<?xml version="1.0" encoding="UTF-8" standalone="no" ?>
<gpx xmlns="http://www.topografix.com/GPX/1/1" xmlns:xsi="http://www.w3.org/2001/XMLSchema-instance" xsi:schemaLocation="http://www.topografix.com/GPX/1/1 http://www.topografix.com/GPX/1/1/gpx.xsd" version="1.1" creator="VisuGPX - https://www.visugpx.com">
  <metadata>
    <name>Virée du dimanche</name>
    <desc><![CDATA[Quelques secteurs un peu technique ]]></desc>
  </metadata>
  <trk>
    <name><![CDATA[2023 07 02 virée du dimanche]]></name>
    <trkseg>
      <trkpt lat="45.83321" lon="4.70916">
        <ele>361.13892</ele>
        <time>2023-07-02T14:23:19.019Z</time>
      </trkpt>
      <trkpt lat="45.83321" lon="4.7091">
        <ele>355.09113</ele>
        <time>2023-07-02T14:23:37.690Z</time>
      </trkpt>
      <trkpt lat="45.83324" lon="4.70911">
        <ele>356.77878</ele>
        <time>2023-07-02T14:23:40.000Z</time>
      </trkpt>
      <trkpt lat="45.83327" lon="4.7091">
        <ele>357.24374</ele>
        <time>2023-07-02T14:23:42.000Z</time>
      </trkpt>
      <trkpt lat="45.83328" lon="4.70909">
        <ele>357.47113</ele>
        <time>2023-07-02T14:23:43.000Z</time>
      </trkpt>
      <trkpt lat="45.8333" lon="4.70907">
        <ele>357.88</ele>
        <time>2023-07-02T14:23:44.000Z</time>
      </trkpt>
      <trkpt lat="45.83331" lon="4.70903">
        <ele>358.20905</ele>
        <time>2023-07-02T14:23:45.000Z</time>
      </trkpt>
      <trkpt lat="45.83332" lon="4.709">
        <ele>358.46732</ele>
        <time>2023-07-02T14:23:46.000Z</time>
      </trkpt>
      <trkpt lat="45.83333" lon="4.70896">
        <ele>358.56744</ele>
        <time>2023-07-02T14:23:47.000Z</time>
      </trkpt>
      <trkpt lat="45.83333" lon="4.70892">
        <ele>358.67041</ele>
        <time>2023-07-02T14:23:48.000Z</time>
      </trkpt>
      <trkpt lat="45.83333" lon="4.70888">
        <ele>358.83557</ele>
        <time>2023-07-02T14:23:49.000Z</time>
      </trkpt>
      <trkpt lat="45.83333" lon="4.70883">
        <ele>358.96115</ele>
        <time>2023-07-02T14:23:50.000Z</time>
      </trkpt>
      <trkpt lat="45.83333" lon="4.70879">
        <ele>359.05423</ele>
        <time>2023-07-02T14:23:51.000Z</time>
      </trkpt>
      <trkpt lat="45.83333" lon="4.70874">
        <ele>359.10992</ele>
        <time>2023-07-02T14:23:52.000Z</time>
      </trkpt>
      <trkpt lat="45.83334" lon="4.70869">
        <ele>359.32336</ele>
        <time>2023-07-02T14:23:53.000Z</time>
      </trkpt>
      <trkpt lat="45.83334" lon="4.70864">
        <ele>359.4559</ele>
        <time>2023-07-02T14:23:54.000Z</time>
      </trkpt>
      <trkpt lat="45.83334" lon="4.70859">
        <ele>359.5592</ele>
        <time>2023-07-02T14:23:55.000Z</time>
      </trkpt>
      <trkpt lat="45.83335" lon="4.70855">
        <ele>359.65811</ele>
        <time>2023-07-02T14:23:56.000Z</time>
      </trkpt>
      <trkpt lat="45.83335" lon="4.7085">
        <ele>359.7562</ele>
        <time>2023-07-02T14:23:57.000Z</time>
      </trkpt>
      <trkpt lat="45.83335" lon="4.70846">
        <ele>359.83759</ele>
        <time>2023-07-02T14:23:58.000Z</time>
      </trkpt>
      <trkpt lat="45.83336" lon="4.70841">
        <ele>359.85583</ele>
        <time>2023-07-02T14:23:59.000Z</time>
      </trkpt>
      <trkpt lat="45.83336" lon="4.70836">
        <ele>360.48633</ele>
        <time>2023-07-02T14:24:00.000Z</time>
      </trkpt>
      <trkpt lat="45.83337" lon="4.70831">
        <ele>360.58838</ele>
        <time>2023-07-02T14:24:01.000Z</time>
      </trkpt>
      <trkpt lat="45.83338" lon="4.70826">
        <ele>360.76605</ele>
        <time>2023-07-02T14:24:02.000Z</time>
      </trkpt>
      <trkpt lat="45.83338" lon="4.7082">
        <ele>360.95538</ele>
        <time>2023-07-02T14:24:03.000Z</time>
      </trkpt>
      <trkpt lat="45.83339" lon="4.70814">
        <ele>361.08887</ele>
        <time>2023-07-02T14:24:04.000Z</time>
      </trkpt>
      <trkpt lat="45.8334" lon="4.70807">
        <ele>361.20786</ele>
        <time>2023-07-02T14:24:05.000Z</time>
      </trkpt>
      <trkpt lat="45.8334" lon="4.70801">
        <ele>361.34857</ele>
        <time>2023-07-02T14:24:06.000Z</time>
      </trkpt>
      <trkpt lat="45.83341" lon="4.70794">
        <ele>361.60278</ele>
        <time>2023-07-02T14:24:07.000Z</time>
      </trkpt>
      <trkpt lat="45.83341" lon="4.70787">
        <ele>361.87933</ele>
        <time>2023-07-02T14:24:08.000Z</time>
      </trkpt>
      <trkpt lat="45.83341" lon="4.70781">
        <ele>362.02448</ele>
        <time>2023-07-02T14:24:09.000Z</time>
      </trkpt>
      <trkpt lat="45.83342" lon="4.70774">
        <ele>362.17828</ele>
        <time>2023-07-02T14:24:10.000Z</time>
      </trkpt>
      <trkpt lat="45.83342" lon="4.70768">
        <ele>362.3374</ele>
        <time>2023-07-02T14:24:11.000Z</time>
      </trkpt>
      <trkpt lat="45.83343" lon="4.70761">
        <ele>362.51785</ele>
        <time>2023-07-02T14:24:12.000Z</time>
      </trkpt>
      <trkpt lat="45.83344" lon="4.70754">
        <ele>362.57245</ele>
        <time>2023-07-02T14:24:13.000Z</time>
      </trkpt>
      <trkpt lat="45.83344" lon="4.70746">
        <ele>362.68503</ele>
        <time>2023-07-02T14:24:14.000Z</time>
      </trkpt>
      <trkpt lat="45.83344" lon="4.7074">
        <ele>362.8316</ele>
        <time>2023-07-02T14:24:15.000Z</time>
      </trkpt>
      <trkpt lat="45.83345" lon="4.70733">
        <ele>362.95721</ele>
        <time>2023-07-02T14:24:16.000Z</time>
      </trkpt>
      <trkpt lat="45.83345" lon="4.70727">
        <ele>363.08282</ele>
        <time>2023-07-02T14:24:17.000Z</time>
      </trkpt>
      <trkpt lat="45.83346" lon="4.70721">
        <ele>363.2038</ele>
        <time>2023-07-02T14:24:18.000Z</time>
      </trkpt>
      <trkpt lat="45.83347" lon="4.70714">
        <ele>363.30603</ele>
        <time>2023-07-02T14:24:19.000Z</time>
      </trkpt>
      <trkpt lat="45.83348" lon="4.70708">
        <ele>363.39594</ele>
        <time>2023-07-02T14:24:20.000Z</time>
      </trkpt>
      <trkpt lat="45.83348" lon="4.70701">
        <ele>363.45587</ele>
        <time>2023-07-02T14:24:21.000Z</time>
      </trkpt>
      <trkpt lat="45.83349" lon="4.70695">
        <ele>363.50262</ele>
        <time>2023-07-02T14:24:22.000Z</time>
      </trkpt>
      <trkpt lat="45.8335" lon="4.70689">
        <ele>363.57965</ele>
        <time>2023-07-02T14:24:23.000Z</time>
      </trkpt>
      <trkpt lat="45.8335" lon="4.70682">
        <ele>363.61578</ele>
        <time>2023-07-02T14:24:24.000Z</time>
      </trkpt>
      <trkpt lat="45.8335" lon="4.70675">
        <ele>363.64996</ele>
        <time>2023-07-02T14:24:25.000Z</time>
      </trkpt>
      <trkpt lat="45.83351" lon="4.70668">
        <ele>363.69382</ele>
        <time>2023-07-02T14:24:26.000Z</time>
      </trkpt>
      <trkpt lat="45.83352" lon="4.70661">
        <ele>363.7597</ele>
        <time>2023-07-02T14:24:27.000Z</time>
      </trkpt>
      <trkpt lat="45.83352" lon="4.70654">
        <ele>363.67398</ele>
        <time>2023-07-02T14:24:28.000Z</time>
      </trkpt>
      <trkpt lat="45.83353" lon="4.70647">
        <ele>363.68723</ele>
        <time>2023-07-02T14:24:29.000Z</time>
      </trkpt>
      <trkpt lat="45.83353" lon="4.70639">
        <ele>363.69806</ele>
        <time>2023-07-02T14:24:30.000Z</time>
      </trkpt>
      <trkpt lat="45.83354" lon="4.7063">
        <ele>363.71179</ele>
        <time>2023-07-02T14:24:31.000Z</time>
      </trkpt>
      <trkpt lat="45.83354" lon="4.70622">
        <ele>363.69296</ele>
        <time>2023-07-02T14:24:32.000Z</time>
      </trkpt>
      <trkpt lat="45.83357" lon="4.70614">
        <ele>363.66153</ele>
        <time>2023-07-02T14:24:33.000Z</time>
      </trkpt>
      <trkpt lat="45.83361" lon="4.70609">
        <ele>363.74222</ele>
        <time>2023-07-02T14:24:34.000Z</time>
      </trkpt>
      <trkpt lat="45.83367" lon="4.70609">
        <ele>363.61368</ele>
        <time>2023-07-02T14:24:35.000Z</time>
      </trkpt>
      <trkpt lat="45.83373" lon="4.70608">
        <ele>363.49384</ele>
        <time>2023-07-02T14:24:36.000Z</time>
      </trkpt>
      <trkpt lat="45.83379" lon="4.70608">
        <ele>363.35669</ele>
        <time>2023-07-02T14:24:37.000Z</time>
      </trkpt>
      <trkpt lat="45.83385" lon="4.70609">
        <ele>363.21478</ele>
        <time>2023-07-02T14:24:38.000Z</time>
      </trkpt>
      <trkpt lat="45.83392" lon="4.7061">
        <ele>363.06177</ele>
        <time>2023-07-02T14:24:39.000Z</time>
      </trkpt>
      <trkpt lat="45.83398" lon="4.70611">
        <ele>362.88788</ele>
        <time>2023-07-02T14:24:40.000Z</time>
      </trkpt>
      <trkpt lat="45.83404" lon="4.70611">
        <ele>362.7229</ele>
        <time>2023-07-02T14:24:41.000Z</time>
      </trkpt>
      <trkpt lat="45.83411" lon="4.70612">
        <ele>362.64435</ele>
        <time>2023-07-02T14:24:42.000Z</time>
      </trkpt>
      <trkpt lat="45.83417" lon="4.70612">
        <ele>362.55157</ele>
        <time>2023-07-02T14:24:43.000Z</time>
      </trkpt>
      <trkpt lat="45.83423" lon="4.70612">
        <ele>362.51416</ele>
        <time>2023-07-02T14:24:44.000Z</time>
      </trkpt>
      <trkpt lat="45.83429" lon="4.70613">
        <ele>362.30573</ele>
        <time>2023-07-02T14:24:45.000Z</time>
      </trkpt>
      <trkpt lat="45.83435" lon="4.70615">
        <ele>362.08707</ele>
        <time>2023-07-02T14:24:46.000Z</time>
      </trkpt>
      <trkpt lat="45.83441" lon="4.70616">
        <ele>361.7691</ele>
        <time>2023-07-02T14:24:47.000Z</time>
      </trkpt>
      <trkpt lat="45.83447" lon="4.70618">
        <ele>361.55249</ele>
        <time>2023-07-02T14:24:48.000Z</time>
      </trkpt>
      <trkpt lat="45.83453" lon="4.70619">
        <ele>361.31464</ele>
        <time>2023-07-02T14:24:49.000Z</time>
      </trkpt>
      <trkpt lat="45.8346" lon="4.70617">
        <ele>361.0748</ele>
        <time>2023-07-02T14:24:50.000Z</time>
      </trkpt>
      <trkpt lat="45.83466" lon="4.70616">
        <ele>360.83786</ele>
        <time>2023-07-02T14:24:51.000Z</time>
      </trkpt>
      <trkpt lat="45.83472" lon="4.70616">
        <ele>360.62222</ele>
        <time>2023-07-02T14:24:52.000Z</time>
      </trkpt>
      <trkpt lat="45.83478" lon="4.70617">
        <ele>360.40839</ele>
        <time>2023-07-02T14:24:53.000Z</time>
      </trkpt>
      <trkpt lat="45.83484" lon="4.70618">
        <ele>360.05374</ele>
        <time>2023-07-02T14:24:54.000Z</time>
      </trkpt>
      <trkpt lat="45.83491" lon="4.70617">
        <ele>359.85916</ele>
        <time>2023-07-02T14:24:55.000Z</time>
      </trkpt>
      <trkpt lat="45.83498" lon="4.70616">
        <ele>359.65915</ele>
        <time>2023-07-02T14:24:56.000Z</time>
      </trkpt>
      <trkpt lat="45.83504" lon="4.70616">
        <ele>359.44861</ele>
        <time>2023-07-02T14:24:57.000Z</time>
      </trkpt>
      <trkpt lat="45.83512" lon="4.70615">
        <ele>359.23264</ele>
        <time>2023-07-02T14:24:58.000Z</time>
      </trkpt>
      <trkpt lat="45.83518" lon="4.70614">
        <ele>359.0322</ele>
        <time>2023-07-02T14:24:59.000Z</time>
      </trkpt>
      <trkpt lat="45.83527" lon="4.70613">
        <ele>358.8418</ele>
        <time>2023-07-02T14:25:00.000Z</time>
      </trkpt>
      <trkpt lat="45.83534" lon="4.70613">
        <ele>358.61197</ele>
        <time>2023-07-02T14:25:01.000Z</time>
      </trkpt>
      <trkpt lat="45.83541" lon="4.70612">
        <ele>358.29572</ele>
        <time>2023-07-02T14:25:02.000Z</time>
      </trkpt>
      <trkpt lat="45.83548" lon="4.70611">
        <ele>358.0849</ele>
        <time>2023-07-02T14:25:03.000Z</time>
      </trkpt>
      <trkpt lat="45.83555" lon="4.70611">
        <ele>357.87726</ele>
        <time>2023-07-02T14:25:04.000Z</time>
      </trkpt>
      <trkpt lat="45.83559" lon="4.7061">
        <ele>357.56573</ele>
        <time>2023-07-02T14:25:05.000Z</time>
      </trkpt>
      <trkpt lat="45.83565" lon="4.70611">
        <ele>357.26099</ele>
        <time>2023-07-02T14:25:06.000Z</time>
      </trkpt>
      <trkpt lat="45.83572" lon="4.70612">
        <ele>356.95474</ele>
        <time>2023-07-02T14:25:07.000Z</time>
      </trkpt>
      <trkpt lat="45.83578" lon="4.70614">
        <ele>356.64868</ele>
        <time>2023-07-02T14:25:08.000Z</time>
      </trkpt>
      <trkpt lat="45.83584" lon="4.70614">
        <ele>356.34372</ele>
        <time>2023-07-02T14:25:09.000Z</time>
      </trkpt>
      <trkpt lat="45.8359" lon="4.70615">
        <ele>356.05112</ele>
        <time>2023-07-02T14:25:10.000Z</time>
      </trkpt>
      <trkpt lat="45.83596" lon="4.70616">
        <ele>355.75348</ele>
        <time>2023-07-02T14:25:11.000Z</time>
      </trkpt>
      <trkpt lat="45.83602" lon="4.70619">
        <ele>355.40445</ele>
        <time>2023-07-02T14:25:12.000Z</time>
      </trkpt>
      <trkpt lat="45.83607" lon="4.70621">
        <ele>355.08664</ele>
        <time>2023-07-02T14:25:13.000Z</time>
      </trkpt>
      <trkpt lat="45.83612" lon="4.70625">
        <ele>354.79553</ele>
        <time>2023-07-02T14:25:14.000Z</time>
      </trkpt>
      <trkpt lat="45.83617" lon="4.70632">
        <ele>354.52789</ele>
        <time>2023-07-02T14:25:15.000Z</time>
      </trkpt>
      <trkpt lat="45.83622" lon="4.70637">
        <ele>354.28485</ele>
        <time>2023-07-02T14:25:16.000Z</time>
      </trkpt>
      <trkpt lat="45.83626" lon="4.70643">
        <ele>354.1015</ele>
        <time>2023-07-02T14:25:17.000Z</time>
      </trkpt>
      <trkpt lat="45.83629" lon="4.70651">
        <ele>353.9306</ele>
        <time>2023-07-02T14:25:18.000Z</time>
      </trkpt>
      <trkpt lat="45.83631" lon="4.70657">
        <ele>353.92682</ele>
        <time>2023-07-02T14:25:19.000Z</time>
      </trkpt>
      <trkpt lat="45.83634" lon="4.70663">
        <ele>354.00156</ele>
        <time>2023-07-02T14:25:20.000Z</time>
      </trkpt>
      <trkpt lat="45.83636" lon="4.7067">
        <ele>353.90833</ele>
        <time>2023-07-02T14:25:21.000Z</time>
      </trkpt>
      <trkpt lat="45.83639" lon="4.70676">
        <ele>353.67102</ele>
        <time>2023-07-02T14:25:22.000Z</time>
      </trkpt>
      <trkpt lat="45.83642" lon="4.70682">
        <ele>353.34131</ele>
        <time>2023-07-02T14:25:23.000Z</time>
      </trkpt>
      <trkpt lat="45.83645" lon="4.70688">
        <ele>352.99957</ele>
        <time>2023-07-02T14:25:24.000Z</time>
      </trkpt>
      <trkpt lat="45.83648" lon="4.70694">
        <ele>352.92261</ele>
        <time>2023-07-02T14:25:25.000Z</time>
      </trkpt>
      <trkpt lat="45.83651" lon="4.707">
        <ele>352.81818</ele>
        <time>2023-07-02T14:25:26.000Z</time>
      </trkpt>
      <trkpt lat="45.83654" lon="4.70706">
        <ele>352.73993</ele>
        <time>2023-07-02T14:25:27.000Z</time>
      </trkpt>
      <trkpt lat="45.83658" lon="4.70712">
        <ele>352.68274</ele>
        <time>2023-07-02T14:25:28.000Z</time>
      </trkpt>
      <trkpt lat="45.8366" lon="4.70718">
        <ele>352.6553</ele>
        <time>2023-07-02T14:25:29.000Z</time>
      </trkpt>
      <trkpt lat="45.83663" lon="4.70724">
        <ele>352.59891</ele>
        <time>2023-07-02T14:25:30.000Z</time>
      </trkpt>
      <trkpt lat="45.83666" lon="4.70731">
        <ele>352.50974</ele>
        <time>2023-07-02T14:25:31.000Z</time>
      </trkpt>
      <trkpt lat="45.83669" lon="4.70737">
        <ele>352.46909</ele>
        <time>2023-07-02T14:25:32.000Z</time>
      </trkpt>
      <trkpt lat="45.83672" lon="4.70744">
        <ele>352.40656</ele>
        <time>2023-07-02T14:25:33.000Z</time>
      </trkpt>
      <trkpt lat="45.83675" lon="4.7075">
        <ele>352.33261</ele>
        <time>2023-07-02T14:25:34.000Z</time>
      </trkpt>
      <trkpt lat="45.83679" lon="4.70757">
        <ele>352.27066</ele>
        <time>2023-07-02T14:25:35.000Z</time>
      </trkpt>
      <trkpt lat="45.83681" lon="4.70763">
        <ele>352.20197</ele>
        <time>2023-07-02T14:25:36.000Z</time>
      </trkpt>
      <trkpt lat="45.83684" lon="4.7077">
        <ele>352.10934</ele>
        <time>2023-07-02T14:25:37.000Z</time>
      </trkpt>
      <trkpt lat="45.83687" lon="4.70776">
        <ele>352.01889</ele>
        <time>2023-07-02T14:25:38.000Z</time>
      </trkpt>
      <trkpt lat="45.8369" lon="4.70783">
        <ele>351.75714</ele>
        <time>2023-07-02T14:25:39.000Z</time>
      </trkpt>
      <trkpt lat="45.83693" lon="4.7079">
        <ele>351.42459</ele>
        <time>2023-07-02T14:25:40.000Z</time>
      </trkpt>
      <trkpt lat="45.83696" lon="4.70796">
        <ele>351.2973</ele>
        <time>2023-07-02T14:25:41.000Z</time>
      </trkpt>
      <trkpt lat="45.83699" lon="4.70803">
        <ele>351.33755</ele>
        <time>2023-07-02T14:25:42.000Z</time>
      </trkpt>
      <trkpt lat="45.83702" lon="4.7081">
        <ele>351.35919</ele>
        <time>2023-07-02T14:25:43.000Z</time>
      </trkpt>
      <trkpt lat="45.83705" lon="4.70817">
        <ele>351.34335</ele>
        <time>2023-07-02T14:25:44.000Z</time>
      </trkpt>
      <trkpt lat="45.83708" lon="4.70824">
        <ele>351.34329</ele>
        <time>2023-07-02T14:25:45.000Z</time>
      </trkpt>
      <trkpt lat="45.83712" lon="4.7083">
        <ele>351.33182</ele>
        <time>2023-07-02T14:25:46.000Z</time>
      </trkpt>
      <trkpt lat="45.83715" lon="4.70837">
        <ele>351.30884</ele>
        <time>2023-07-02T14:25:47.000Z</time>
      </trkpt>
      <trkpt lat="45.83718" lon="4.70844">
        <ele>351.25452</ele>
        <time>2023-07-02T14:25:48.000Z</time>
      </trkpt>
      <trkpt lat="45.83721" lon="4.7085">
        <ele>351.20483</ele>
        <time>2023-07-02T14:25:49.000Z</time>
      </trkpt>
      <trkpt lat="45.83724" lon="4.70857">
        <ele>351.16904</ele>
        <time>2023-07-02T14:25:50.000Z</time>
      </trkpt>
      <trkpt lat="45.83727" lon="4.70864">
        <ele>351.1839</ele>
        <time>2023-07-02T14:25:51.000Z</time>
      </trkpt>
      <trkpt lat="45.8373" lon="4.70871">
        <ele>351.21014</ele>
        <time>2023-07-02T14:25:52.000Z</time>
      </trkpt>
      <trkpt lat="45.83733" lon="4.70878">
        <ele>351.21893</ele>
        <time>2023-07-02T14:25:53.000Z</time>
      </trkpt>
      <trkpt lat="45.83737" lon="4.70884">
        <ele>351.22238</ele>
        <time>2023-07-02T14:25:54.000Z</time>
      </trkpt>
      <trkpt lat="45.8374" lon="4.70892">
        <ele>351.21048</ele>
        <time>2023-07-02T14:25:55.000Z</time>
      </trkpt>
      <trkpt lat="45.83744" lon="4.70899">
        <ele>351.19733</ele>
        <time>2023-07-02T14:25:56.000Z</time>
      </trkpt>
      <trkpt lat="45.83747" lon="4.70906">
        <ele>351.14731</ele>
        <time>2023-07-02T14:25:57.000Z</time>
      </trkpt>
      <trkpt lat="45.83751" lon="4.70913">
        <ele>351.09634</ele>
        <time>2023-07-02T14:25:58.000Z</time>
      </trkpt>
      <trkpt lat="45.83754" lon="4.70921">
        <ele>351.0759</ele>
        <time>2023-07-02T14:25:59.000Z</time>
      </trkpt>
      <trkpt lat="45.83757" lon="4.70928">
        <ele>351.05963</ele>
        <time>2023-07-02T14:26:00.000Z</time>
      </trkpt>
      <trkpt lat="45.8376" lon="4.70936">
        <ele>351.04999</ele>
        <time>2023-07-02T14:26:01.000Z</time>
      </trkpt>
      <trkpt lat="45.83764" lon="4.70944">
        <ele>351.0239</ele>
        <time>2023-07-02T14:26:02.000Z</time>
      </trkpt>
      <trkpt lat="45.83768" lon="4.70951">
        <ele>351.04214</ele>
        <time>2023-07-02T14:26:03.000Z</time>
      </trkpt>
      <trkpt lat="45.83771" lon="4.70959">
        <ele>351.0025</ele>
        <time>2023-07-02T14:26:04.000Z</time>
      </trkpt>
      <trkpt lat="45.83776" lon="4.70967">
        <ele>350.95468</ele>
        <time>2023-07-02T14:26:05.000Z</time>
      </trkpt>
      <trkpt lat="45.8378" lon="4.70975">
        <ele>350.95035</ele>
        <time>2023-07-02T14:26:06.000Z</time>
      </trkpt>
      <trkpt lat="45.83783" lon="4.70983">
        <ele>350.94171</ele>
        <time>2023-07-02T14:26:07.000Z</time>
      </trkpt>
      <trkpt lat="45.83786" lon="4.70991">
        <ele>350.95563</ele>
        <time>2023-07-02T14:26:08.000Z</time>
      </trkpt>
      <trkpt lat="45.83788" lon="4.70998">
        <ele>350.88681</ele>
        <time>2023-07-02T14:26:09.000Z</time>
      </trkpt>
      <trkpt lat="45.83787" lon="4.71005">
        <ele>350.84375</ele>
        <time>2023-07-02T14:26:10.000Z</time>
      </trkpt>
      <trkpt lat="45.83785" lon="4.71011">
        <ele>350.77628</ele>
        <time>2023-07-02T14:26:11.000Z</time>
      </trkpt>
      <trkpt lat="45.83781" lon="4.71017">
        <ele>350.68811</ele>
        <time>2023-07-02T14:26:12.000Z</time>
      </trkpt>
      <trkpt lat="45.83778" lon="4.71022">
        <ele>350.61423</ele>
        <time>2023-07-02T14:26:13.000Z</time>
      </trkpt>
      <trkpt lat="45.83775" lon="4.71028">
        <ele>350.53943</ele>
        <time>2023-07-02T14:26:14.000Z</time>
      </trkpt>
      <trkpt lat="45.83771" lon="4.71033">
        <ele>350.4606</ele>
        <time>2023-07-02T14:26:15.000Z</time>
      </trkpt>
      <trkpt lat="45.83768" lon="4.7104">
        <ele>350.36871</ele>
        <time>2023-07-02T14:26:16.000Z</time>
      </trkpt>
      <trkpt lat="45.83764" lon="4.71046">
        <ele>350.28821</ele>
        <time>2023-07-02T14:26:17.000Z</time>
      </trkpt>
      <trkpt lat="45.83761" lon="4.71053">
        <ele>350.21301</ele>
        <time>2023-07-02T14:26:18.000Z</time>
      </trkpt>
      <trkpt lat="45.83757" lon="4.71059">
        <ele>350.1203</ele>
        <time>2023-07-02T14:26:19.000Z</time>
      </trkpt>
      <trkpt lat="45.83753" lon="4.71065">
        <ele>350.01605</ele>
        <time>2023-07-02T14:26:20.000Z</time>
      </trkpt>
      <trkpt lat="45.8375" lon="4.71072">
        <ele>349.89719</ele>
        <time>2023-07-02T14:26:21.000Z</time>
      </trkpt>
      <trkpt lat="45.83746" lon="4.71078">
        <ele>349.79471</ele>
        <time>2023-07-02T14:26:22.000Z</time>
      </trkpt>
      <trkpt lat="45.83742" lon="4.71084">
        <ele>349.62766</ele>
        <time>2023-07-02T14:26:23.000Z</time>
      </trkpt>
      <trkpt lat="45.83739" lon="4.71091">
        <ele>349.53131</ele>
        <time>2023-07-02T14:26:24.000Z</time>
      </trkpt>
      <trkpt lat="45.83735" lon="4.71096">
        <ele>349.42892</ele>
        <time>2023-07-02T14:26:25.000Z</time>
      </trkpt>
      <trkpt lat="45.83731" lon="4.71103">
        <ele>349.29047</ele>
        <time>2023-07-02T14:26:26.000Z</time>
      </trkpt>
      <trkpt lat="45.83727" lon="4.71109">
        <ele>349.12714</ele>
        <time>2023-07-02T14:26:27.000Z</time>
      </trkpt>
      <trkpt lat="45.83723" lon="4.71116">
        <ele>348.98395</ele>
        <time>2023-07-02T14:26:28.000Z</time>
      </trkpt>
      <trkpt lat="45.83721" lon="4.71123">
        <ele>348.78839</ele>
        <time>2023-07-02T14:26:29.000Z</time>
      </trkpt>
      <trkpt lat="45.83717" lon="4.71131">
        <ele>348.61334</ele>
        <time>2023-07-02T14:26:30.000Z</time>
      </trkpt>
      <trkpt lat="45.83713" lon="4.71138">
        <ele>348.45404</ele>
        <time>2023-07-02T14:26:31.000Z</time>
      </trkpt>
      <trkpt lat="45.83711" lon="4.71144">
        <ele>348.30414</ele>
        <time>2023-07-02T14:26:32.000Z</time>
      </trkpt>
      <trkpt lat="45.83707" lon="4.71149">
        <ele>348.1571</ele>
        <time>2023-07-02T14:26:33.000Z</time>
      </trkpt>
      <trkpt lat="45.83703" lon="4.71153">
        <ele>347.98672</ele>
        <time>2023-07-02T14:26:34.000Z</time>
      </trkpt>
      <trkpt lat="45.837" lon="4.71159">
        <ele>347.82993</ele>
        <time>2023-07-02T14:26:35.000Z</time>
      </trkpt>
      <trkpt lat="45.83698" lon="4.71165">
        <ele>347.6752</ele>
        <time>2023-07-02T14:26:36.000Z</time>
      </trkpt>
      <trkpt lat="45.83696" lon="4.71172">
        <ele>347.51498</ele>
        <time>2023-07-02T14:26:37.000Z</time>
      </trkpt>
      <trkpt lat="45.83694" lon="4.71178">
        <ele>347.34384</ele>
        <time>2023-07-02T14:26:38.000Z</time>
      </trkpt>
      <trkpt lat="45.83692" lon="4.71185">
        <ele>347.23297</ele>
        <time>2023-07-02T14:26:39.000Z</time>
      </trkpt>
      <trkpt lat="45.83689" lon="4.71192">
        <ele>347.1727</ele>
        <time>2023-07-02T14:26:40.000Z</time>
      </trkpt>
      <trkpt lat="45.83687" lon="4.71199">
        <ele>346.96381</ele>
        <time>2023-07-02T14:26:41.000Z</time>
      </trkpt>
      <trkpt lat="45.83685" lon="4.71206">
        <ele>346.77155</ele>
        <time>2023-07-02T14:26:42.000Z</time>
      </trkpt>
      <trkpt lat="45.83684" lon="4.71213">
        <ele>346.54559</ele>
        <time>2023-07-02T14:26:43.000Z</time>
      </trkpt>
      <trkpt lat="45.83681" lon="4.7122">
        <ele>346.31796</ele>
        <time>2023-07-02T14:26:44.000Z</time>
      </trkpt>
      <trkpt lat="45.8368" lon="4.71228">
        <ele>346.08783</ele>
        <time>2023-07-02T14:26:45.000Z</time>
      </trkpt>
      <trkpt lat="45.83677" lon="4.71235">
        <ele>345.85931</ele>
        <time>2023-07-02T14:26:46.000Z</time>
      </trkpt>
      <trkpt lat="45.83676" lon="4.71243">
        <ele>345.62646</ele>
        <time>2023-07-02T14:26:47.000Z</time>
      </trkpt>
      <trkpt lat="45.83674" lon="4.7125">
        <ele>345.37296</ele>
        <time>2023-07-02T14:26:48.000Z</time>
      </trkpt>
      <trkpt lat="45.83674" lon="4.71259">
        <ele>345.24167</ele>
        <time>2023-07-02T14:26:49.000Z</time>
      </trkpt>
      <trkpt lat="45.83672" lon="4.71266">
        <ele>345.08478</ele>
        <time>2023-07-02T14:26:50.000Z</time>
      </trkpt>
      <trkpt lat="45.83671" lon="4.71273">
        <ele>344.92023</ele>
        <time>2023-07-02T14:26:51.000Z</time>
      </trkpt>
      <trkpt lat="45.8367" lon="4.7128">
        <ele>344.76971</ele>
        <time>2023-07-02T14:26:52.000Z</time>
      </trkpt>
      <trkpt lat="45.83668" lon="4.71287">
        <ele>344.6214</ele>
        <time>2023-07-02T14:26:53.000Z</time>
      </trkpt>
      <trkpt lat="45.83666" lon="4.71295">
        <ele>344.51288</ele>
        <time>2023-07-02T14:26:54.000Z</time>
      </trkpt>
      <trkpt lat="45.83665" lon="4.71302">
        <ele>344.3681</ele>
        <time>2023-07-02T14:26:55.000Z</time>
      </trkpt>
      <trkpt lat="45.83663" lon="4.7131">
        <ele>344.2149</ele>
        <time>2023-07-02T14:26:56.000Z</time>
      </trkpt>
      <trkpt lat="45.83662" lon="4.71317">
        <ele>344.14478</ele>
        <time>2023-07-02T14:26:57.000Z</time>
      </trkpt>
      <trkpt lat="45.8366" lon="4.71324">
        <ele>344.14886</ele>
        <time>2023-07-02T14:26:58.000Z</time>
      </trkpt>
      <trkpt lat="45.83657" lon="4.71332">
        <ele>344.10132</ele>
        <time>2023-07-02T14:26:59.000Z</time>
      </trkpt>
      <trkpt lat="45.83656" lon="4.71339">
        <ele>344.02203</ele>
        <time>2023-07-02T14:27:00.000Z</time>
      </trkpt>
      <trkpt lat="45.83654" lon="4.71347">
        <ele>343.91287</ele>
        <time>2023-07-02T14:27:01.000Z</time>
      </trkpt>
      <trkpt lat="45.83653" lon="4.71354">
        <ele>343.81583</ele>
        <time>2023-07-02T14:27:02.000Z</time>
      </trkpt>
      <trkpt lat="45.83653" lon="4.71362">
        <ele>343.74927</ele>
        <time>2023-07-02T14:27:03.000Z</time>
      </trkpt>
      <trkpt lat="45.83653" lon="4.71371">
        <ele>343.85641</ele>
        <time>2023-07-02T14:27:04.000Z</time>
      </trkpt>
      <trkpt lat="45.83651" lon="4.71378">
        <ele>343.84222</ele>
        <time>2023-07-02T14:27:05.000Z</time>
      </trkpt>
      <trkpt lat="45.83648" lon="4.71385">
        <ele>343.78598</ele>
        <time>2023-07-02T14:27:06.000Z</time>
      </trkpt>
      <trkpt lat="45.83647" lon="4.71392">
        <ele>343.78693</ele>
        <time>2023-07-02T14:27:07.000Z</time>
      </trkpt>
      <trkpt lat="45.83646" lon="4.71401">
        <ele>343.79657</ele>
        <time>2023-07-02T14:27:08.000Z</time>
      </trkpt>
      <trkpt lat="45.83644" lon="4.71409">
        <ele>343.79565</ele>
        <time>2023-07-02T14:27:09.000Z</time>
      </trkpt>
      <trkpt lat="45.83642" lon="4.71417">
        <ele>343.7753</ele>
        <time>2023-07-02T14:27:10.000Z</time>
      </trkpt>
      <trkpt lat="45.8364" lon="4.71424">
        <ele>343.77338</ele>
        <time>2023-07-02T14:27:11.000Z</time>
      </trkpt>
      <trkpt lat="45.83638" lon="4.71431">
        <ele>343.75211</ele>
        <time>2023-07-02T14:27:12.000Z</time>
      </trkpt>
      <trkpt lat="45.83636" lon="4.71437">
        <ele>343.71246</ele>
        <time>2023-07-02T14:27:13.000Z</time>
      </trkpt>
      <trkpt lat="45.83634" lon="4.71443">
        <ele>343.74982</ele>
        <time>2023-07-02T14:27:14.000Z</time>
      </trkpt>
      <trkpt lat="45.83632" lon="4.7145">
        <ele>343.8089</ele>
        <time>2023-07-02T14:27:15.000Z</time>
      </trkpt>
      <trkpt lat="45.8363" lon="4.71457">
        <ele>343.94342</ele>
        <time>2023-07-02T14:27:16.000Z</time>
      </trkpt>
      <trkpt lat="45.83628" lon="4.71462">
        <ele>344.01193</ele>
        <time>2023-07-02T14:27:17.000Z</time>
      </trkpt>
      <trkpt lat="45.83625" lon="4.71468">
        <ele>343.83771</ele>
        <time>2023-07-02T14:27:18.000Z</time>
      </trkpt>
      <trkpt lat="45.83621" lon="4.71474">
        <ele>343.68387</ele>
        <time>2023-07-02T14:27:19.000Z</time>
      </trkpt>
      <trkpt lat="45.83617" lon="4.71479">
        <ele>343.52103</ele>
        <time>2023-07-02T14:27:20.000Z</time>
      </trkpt>
      <trkpt lat="45.83613" lon="4.71484">
        <ele>343.54169</ele>
        <time>2023-07-02T14:27:21.000Z</time>
      </trkpt>
      <trkpt lat="45.8361" lon="4.71489">
        <ele>343.52112</ele>
        <time>2023-07-02T14:27:22.000Z</time>
      </trkpt>
      <trkpt lat="45.83609" lon="4.71495">
        <ele>343.47833</ele>
        <time>2023-07-02T14:27:23.000Z</time>
      </trkpt>
      <trkpt lat="45.83609" lon="4.71501">
        <ele>343.25613</ele>
        <time>2023-07-02T14:27:24.000Z</time>
      </trkpt>
      <trkpt lat="45.8361" lon="4.71508">
        <ele>343.15485</ele>
        <time>2023-07-02T14:27:25.000Z</time>
      </trkpt>
      <trkpt lat="45.83613" lon="4.71513">
        <ele>343.09317</ele>
        <time>2023-07-02T14:27:26.000Z</time>
      </trkpt>
      <trkpt lat="45.83614" lon="4.7152">
        <ele>343.00784</ele>
        <time>2023-07-02T14:27:27.000Z</time>
      </trkpt>
      <trkpt lat="45.83616" lon="4.71526">
        <ele>342.90707</ele>
        <time>2023-07-02T14:27:28.000Z</time>
      </trkpt>
      <trkpt lat="45.83619" lon="4.71532">
        <ele>342.77188</ele>
        <time>2023-07-02T14:27:29.000Z</time>
      </trkpt>
      <trkpt lat="45.83621" lon="4.71538">
        <ele>342.65485</ele>
        <time>2023-07-02T14:27:30.000Z</time>
      </trkpt>
      <trkpt lat="45.83622" lon="4.71543">
        <ele>342.68402</ele>
        <time>2023-07-02T14:27:31.000Z</time>
      </trkpt>
      <trkpt lat="45.83621" lon="4.71547">
        <ele>342.74908</ele>
        <time>2023-07-02T14:27:32.000Z</time>
      </trkpt>
      <trkpt lat="45.83622" lon="4.71552">
        <ele>342.88336</ele>
        <time>2023-07-02T14:27:33.000Z</time>
      </trkpt>
      <trkpt lat="45.83622" lon="4.71557">
        <ele>343.04141</ele>
        <time>2023-07-02T14:27:34.000Z</time>
      </trkpt>
      <trkpt lat="45.83622" lon="4.71563">
        <ele>343.20013</ele>
        <time>2023-07-02T14:27:35.000Z</time>
      </trkpt>
      <trkpt lat="45.83621" lon="4.71567">
        <ele>343.26883</ele>
        <time>2023-07-02T14:27:36.000Z</time>
      </trkpt>
      <trkpt lat="45.8362" lon="4.71573">
        <ele>343.31149</ele>
        <time>2023-07-02T14:27:37.000Z</time>
      </trkpt>
      <trkpt lat="45.83621" lon="4.71577">
        <ele>343.53476</ele>
        <time>2023-07-02T14:27:38.000Z</time>
      </trkpt>
      <trkpt lat="45.83621" lon="4.71582">
        <ele>343.7121</ele>
        <time>2023-07-02T14:27:39.000Z</time>
      </trkpt>
      <trkpt lat="45.83621" lon="4.71587">
        <ele>343.90253</ele>
        <time>2023-07-02T14:27:40.000Z</time>
      </trkpt>
      <trkpt lat="45.83621" lon="4.71592">
        <ele>344.15558</ele>
        <time>2023-07-02T14:27:41.000Z</time>
      </trkpt>
      <trkpt lat="45.83622" lon="4.71597">
        <ele>344.41675</ele>
        <time>2023-07-02T14:27:42.000Z</time>
      </trkpt>
      <trkpt lat="45.83623" lon="4.71602">
        <ele>344.36774</ele>
        <time>2023-07-02T14:27:43.000Z</time>
      </trkpt>
      <trkpt lat="45.83624" lon="4.71607">
        <ele>344.37418</ele>
        <time>2023-07-02T14:27:44.000Z</time>
      </trkpt>
      <trkpt lat="45.83626" lon="4.71615">
        <ele>344.35968</ele>
        <time>2023-07-02T14:27:45.000Z</time>
      </trkpt>
      <trkpt lat="45.83626" lon="4.71623">
        <ele>344.32553</ele>
        <time>2023-07-02T14:27:46.000Z</time>
      </trkpt>
      <trkpt lat="45.8363" lon="4.71628">
        <ele>344.23868</ele>
        <time>2023-07-02T14:27:47.000Z</time>
      </trkpt>
      <trkpt lat="45.83633" lon="4.71634">
        <ele>344.16333</ele>
        <time>2023-07-02T14:27:48.000Z</time>
      </trkpt>
      <trkpt lat="45.83637" lon="4.71641">
        <ele>344.05811</ele>
        <time>2023-07-02T14:27:49.000Z</time>
      </trkpt>
      <trkpt lat="45.83641" lon="4.71646">
        <ele>344.10846</ele>
        <time>2023-07-02T14:27:50.000Z</time>
      </trkpt>
      <trkpt lat="45.83646" lon="4.7165">
        <ele>343.94525</ele>
        <time>2023-07-02T14:27:51.000Z</time>
      </trkpt>
      <trkpt lat="45.83651" lon="4.71653">
        <ele>343.75296</ele>
        <time>2023-07-02T14:27:52.000Z</time>
      </trkpt>
      <trkpt lat="45.83657" lon="4.71655">
        <ele>343.63159</ele>
        <time>2023-07-02T14:27:53.000Z</time>
      </trkpt>
      <trkpt lat="45.83664" lon="4.71658">
        <ele>342.95099</ele>
        <time>2023-07-02T14:27:54.000Z</time>
      </trkpt>
      <trkpt lat="45.83671" lon="4.71656">
        <ele>342.38812</ele>
        <time>2023-07-02T14:27:55.000Z</time>
      </trkpt>
      <trkpt lat="45.83677" lon="4.71655">
        <ele>341.79663</ele>
        <time>2023-07-02T14:27:56.000Z</time>
      </trkpt>
      <trkpt lat="45.83684" lon="4.71653">
        <ele>341.22437</ele>
        <time>2023-07-02T14:27:57.000Z</time>
      </trkpt>
      <trkpt lat="45.8369" lon="4.71653">
        <ele>340.57956</ele>
        <time>2023-07-02T14:27:58.000Z</time>
      </trkpt>
      <trkpt lat="45.83696" lon="4.71651">
        <ele>339.9361</ele>
        <time>2023-07-02T14:27:59.000Z</time>
      </trkpt>
      <trkpt lat="45.837" lon="4.71652">
        <ele>339.23257</ele>
        <time>2023-07-02T14:28:00.000Z</time>
      </trkpt>
      <trkpt lat="45.83702" lon="4.71652">
        <ele>338.46356</ele>
        <time>2023-07-02T14:28:01.000Z</time>
      </trkpt>
      <trkpt lat="45.83705" lon="4.71656">
        <ele>337.67563</ele>
        <time>2023-07-02T14:28:02.000Z</time>
      </trkpt>
      <trkpt lat="45.83708" lon="4.7166">
        <ele>337.16864</ele>
        <time>2023-07-02T14:28:03.000Z</time>
      </trkpt>
      <trkpt lat="45.8371" lon="4.71665">
        <ele>336.55835</ele>
        <time>2023-07-02T14:28:04.000Z</time>
      </trkpt>
      <trkpt lat="45.83713" lon="4.7167">
        <ele>335.77838</ele>
        <time>2023-07-02T14:28:05.000Z</time>
      </trkpt>
      <trkpt lat="45.83717" lon="4.71676">
        <ele>335.05725</ele>
        <time>2023-07-02T14:28:06.000Z</time>
      </trkpt>
      <trkpt lat="45.8372" lon="4.71683">
        <ele>334.39191</ele>
        <time>2023-07-02T14:28:07.000Z</time>
      </trkpt>
      <trkpt lat="45.83723" lon="4.71689">
        <ele>333.63168</ele>
        <time>2023-07-02T14:28:08.000Z</time>
      </trkpt>
      <trkpt lat="45.83727" lon="4.71694">
        <ele>332.9119</ele>
        <time>2023-07-02T14:28:09.000Z</time>
      </trkpt>
      <trkpt lat="45.8373" lon="4.71696">
        <ele>332.01468</ele>
        <time>2023-07-02T14:28:10.000Z</time>
      </trkpt>
      <trkpt lat="45.83733" lon="4.71697">
        <ele>331.17578</ele>
        <time>2023-07-02T14:28:11.000Z</time>
      </trkpt>
      <trkpt lat="45.83737" lon="4.71697">
        <ele>330.29202</ele>
        <time>2023-07-02T14:28:12.000Z</time>
      </trkpt>
      <trkpt lat="45.8374" lon="4.71697">
        <ele>329.31491</ele>
        <time>2023-07-02T14:28:13.000Z</time>
      </trkpt>
      <trkpt lat="45.83742" lon="4.71696">
        <ele>328.78235</ele>
        <time>2023-07-02T14:28:14.000Z</time>
      </trkpt>
      <trkpt lat="45.83745" lon="4.71696">
        <ele>328.17075</ele>
        <time>2023-07-02T14:28:15.000Z</time>
      </trkpt>
      <trkpt lat="45.83748" lon="4.71695">
        <ele>327.60083</ele>
        <time>2023-07-02T14:28:16.000Z</time>
      </trkpt>
      <trkpt lat="45.83752" lon="4.71697">
        <ele>327.03119</ele>
        <time>2023-07-02T14:28:17.000Z</time>
      </trkpt>
      <trkpt lat="45.83754" lon="4.71698">
        <ele>326.46088</ele>
        <time>2023-07-02T14:28:18.000Z</time>
      </trkpt>
      <trkpt lat="45.83756" lon="4.71698">
        <ele>325.92914</ele>
        <time>2023-07-02T14:28:19.000Z</time>
      </trkpt>
      <trkpt lat="45.83758" lon="4.71698">
        <ele>325.41293</ele>
        <time>2023-07-02T14:28:20.000Z</time>
      </trkpt>
      <trkpt lat="45.8376" lon="4.71698">
        <ele>324.93954</ele>
        <time>2023-07-02T14:28:21.000Z</time>
      </trkpt>
      <trkpt lat="45.83762" lon="4.71697">
        <ele>324.57452</ele>
        <time>2023-07-02T14:28:22.000Z</time>
      </trkpt>
      <trkpt lat="45.83765" lon="4.71697">
        <ele>324.35593</ele>
        <time>2023-07-02T14:28:23.000Z</time>
      </trkpt>
      <trkpt lat="45.83767" lon="4.71697">
        <ele>324.35571</ele>
        <time>2023-07-02T14:28:24.000Z</time>
      </trkpt>
      <trkpt lat="45.83771" lon="4.71697">
        <ele>324.70844</ele>
        <time>2023-07-02T14:28:25.000Z</time>
      </trkpt>
      <trkpt lat="45.83774" lon="4.71698">
        <ele>325.08356</ele>
        <time>2023-07-02T14:28:26.000Z</time>
      </trkpt>
      <trkpt lat="45.83777" lon="4.71699">
        <ele>325.54169</ele>
        <time>2023-07-02T14:28:27.000Z</time>
      </trkpt>
      <trkpt lat="45.8378" lon="4.717">
        <ele>326.13123</ele>
        <time>2023-07-02T14:28:28.000Z</time>
      </trkpt>
      <trkpt lat="45.83783" lon="4.71701">
        <ele>326.24963</ele>
        <time>2023-07-02T14:28:29.000Z</time>
      </trkpt>
      <trkpt lat="45.83786" lon="4.71701">
        <ele>326.46899</ele>
        <time>2023-07-02T14:28:30.000Z</time>
      </trkpt>
      <trkpt lat="45.8379" lon="4.71703">
        <ele>326.67303</ele>
        <time>2023-07-02T14:28:31.000Z</time>
      </trkpt>
      <trkpt lat="45.83794" lon="4.71705">
        <ele>326.99445</ele>
        <time>2023-07-02T14:28:32.000Z</time>
      </trkpt>
      <trkpt lat="45.83797" lon="4.71706">
        <ele>327.23581</ele>
        <time>2023-07-02T14:28:33.000Z</time>
      </trkpt>
      <trkpt lat="45.83801" lon="4.71707">
        <ele>327.66412</ele>
        <time>2023-07-02T14:28:34.000Z</time>
      </trkpt>
      <trkpt lat="45.83804" lon="4.71708">
        <ele>328.22495</ele>
        <time>2023-07-02T14:28:35.000Z</time>
      </trkpt>
      <trkpt lat="45.83807" lon="4.71709">
        <ele>328.85095</ele>
        <time>2023-07-02T14:28:36.000Z</time>
      </trkpt>
      <trkpt lat="45.83811" lon="4.7171">
        <ele>329.44849</ele>
        <time>2023-07-02T14:28:37.000Z</time>
      </trkpt>
      <trkpt lat="45.83814" lon="4.71711">
        <ele>329.71152</ele>
        <time>2023-07-02T14:28:38.000Z</time>
      </trkpt>
      <trkpt lat="45.83817" lon="4.71712">
        <ele>329.9809</ele>
        <time>2023-07-02T14:28:39.000Z</time>
      </trkpt>
      <trkpt lat="45.8382" lon="4.71714">
        <ele>330.18744</ele>
        <time>2023-07-02T14:28:40.000Z</time>
      </trkpt>
      <trkpt lat="45.83824" lon="4.71715">
        <ele>330.28864</ele>
        <time>2023-07-02T14:28:41.000Z</time>
      </trkpt>
      <trkpt lat="45.83828" lon="4.71717">
        <ele>330.30133</ele>
        <time>2023-07-02T14:28:42.000Z</time>
      </trkpt>
      <trkpt lat="45.83831" lon="4.71718">
        <ele>330.27652</ele>
        <time>2023-07-02T14:28:43.000Z</time>
      </trkpt>
      <trkpt lat="45.83835" lon="4.7172">
        <ele>330.24118</ele>
        <time>2023-07-02T14:28:44.000Z</time>
      </trkpt>
      <trkpt lat="45.8384" lon="4.71721">
        <ele>330.19125</ele>
        <time>2023-07-02T14:28:45.000Z</time>
      </trkpt>
      <trkpt lat="45.83844" lon="4.71722">
        <ele>329.71527</ele>
        <time>2023-07-02T14:28:46.000Z</time>
      </trkpt>
      <trkpt lat="45.83849" lon="4.71723">
        <ele>329.22528</ele>
        <time>2023-07-02T14:28:47.000Z</time>
      </trkpt>
      <trkpt lat="45.83853" lon="4.71724">
        <ele>328.71103</ele>
        <time>2023-07-02T14:28:48.000Z</time>
      </trkpt>
      <trkpt lat="45.83857" lon="4.71725">
        <ele>328.71893</ele>
        <time>2023-07-02T14:28:49.000Z</time>
      </trkpt>
      <trkpt lat="45.83863" lon="4.71728">
        <ele>328.79788</ele>
        <time>2023-07-02T14:28:50.000Z</time>
      </trkpt>
      <trkpt lat="45.83867" lon="4.71729">
        <ele>329.00693</ele>
        <time>2023-07-02T14:28:51.000Z</time>
      </trkpt>
      <trkpt lat="45.83871" lon="4.71729">
        <ele>329.17926</ele>
        <time>2023-07-02T14:28:52.000Z</time>
      </trkpt>
      <trkpt lat="45.83874" lon="4.7173">
        <ele>329.04224</ele>
        <time>2023-07-02T14:28:53.000Z</time>
      </trkpt>
      <trkpt lat="45.83877" lon="4.71732">
        <ele>328.79602</ele>
        <time>2023-07-02T14:28:54.000Z</time>
      </trkpt>
      <trkpt lat="45.83882" lon="4.71733">
        <ele>328.39023</ele>
        <time>2023-07-02T14:28:55.000Z</time>
      </trkpt>
      <trkpt lat="45.83885" lon="4.71734">
        <ele>327.96747</ele>
        <time>2023-07-02T14:28:56.000Z</time>
      </trkpt>
      <trkpt lat="45.83889" lon="4.71735">
        <ele>327.64944</ele>
        <time>2023-07-02T14:28:57.000Z</time>
      </trkpt>
      <trkpt lat="45.83894" lon="4.71737">
        <ele>327.75513</ele>
        <time>2023-07-02T14:28:58.000Z</time>
      </trkpt>
      <trkpt lat="45.83896" lon="4.71738">
        <ele>327.91144</ele>
        <time>2023-07-02T14:28:59.000Z</time>
      </trkpt>
      <trkpt lat="45.839" lon="4.71741">
        <ele>328.18115</ele>
        <time>2023-07-02T14:29:00.000Z</time>
      </trkpt>
      <trkpt lat="45.83903" lon="4.71742">
        <ele>328.53183</ele>
        <time>2023-07-02T14:29:01.000Z</time>
      </trkpt>
      <trkpt lat="45.83906" lon="4.71743">
        <ele>328.8606</ele>
        <time>2023-07-02T14:29:02.000Z</time>
      </trkpt>
      <trkpt lat="45.8391" lon="4.71745">
        <ele>329.15814</ele>
        <time>2023-07-02T14:29:03.000Z</time>
      </trkpt>
      <trkpt lat="45.83913" lon="4.71746">
        <ele>329.32397</ele>
        <time>2023-07-02T14:29:04.000Z</time>
      </trkpt>
      <trkpt lat="45.83916" lon="4.71748">
        <ele>329.36316</ele>
        <time>2023-07-02T14:29:05.000Z</time>
      </trkpt>
      <trkpt lat="45.8392" lon="4.7175">
        <ele>329.80902</ele>
        <time>2023-07-02T14:29:06.000Z</time>
      </trkpt>
      <trkpt lat="45.83924" lon="4.71752">
        <ele>330.33124</ele>
        <time>2023-07-02T14:29:07.000Z</time>
      </trkpt>
      <trkpt lat="45.83928" lon="4.71753">
        <ele>330.84949</ele>
        <time>2023-07-02T14:29:08.000Z</time>
      </trkpt>
      <trkpt lat="45.83932" lon="4.71755">
        <ele>331.32767</ele>
        <time>2023-07-02T14:29:09.000Z</time>
      </trkpt>
      <trkpt lat="45.83937" lon="4.71758">
        <ele>331.6983</ele>
        <time>2023-07-02T14:29:10.000Z</time>
      </trkpt>
      <trkpt lat="45.8394" lon="4.71762">
        <ele>332.03442</ele>
        <time>2023-07-02T14:29:11.000Z</time>
      </trkpt>
      <trkpt lat="45.83943" lon="4.71766">
        <ele>331.99731</ele>
        <time>2023-07-02T14:29:12.000Z</time>
      </trkpt>
      <trkpt lat="45.83946" lon="4.7177">
        <ele>332.32364</ele>
        <time>2023-07-02T14:29:13.000Z</time>
      </trkpt>
      <trkpt lat="45.83948" lon="4.71775">
        <ele>332.56851</ele>
        <time>2023-07-02T14:29:14.000Z</time>
      </trkpt>
      <trkpt lat="45.83949" lon="4.7178">
        <ele>332.80145</ele>
        <time>2023-07-02T14:29:15.000Z</time>
      </trkpt>
      <trkpt lat="45.8395" lon="4.71786">
        <ele>333.00952</ele>
        <time>2023-07-02T14:29:16.000Z</time>
      </trkpt>
      <trkpt lat="45.83951" lon="4.7179">
        <ele>333.1496</ele>
        <time>2023-07-02T14:29:17.000Z</time>
      </trkpt>
      <trkpt lat="45.83951" lon="4.71795">
        <ele>333.27557</ele>
        <time>2023-07-02T14:29:18.000Z</time>
      </trkpt>
      <trkpt lat="45.83953" lon="4.71801">
        <ele>333.45367</ele>
        <time>2023-07-02T14:29:19.000Z</time>
      </trkpt>
      <trkpt lat="45.83955" lon="4.71805">
        <ele>333.61542</ele>
        <time>2023-07-02T14:29:20.000Z</time>
      </trkpt>
      <trkpt lat="45.83958" lon="4.71812">
        <ele>333.77124</ele>
        <time>2023-07-02T14:29:21.000Z</time>
      </trkpt>
      <trkpt lat="45.8396" lon="4.71818">
        <ele>334.06451</ele>
        <time>2023-07-02T14:29:22.000Z</time>
      </trkpt>
      <trkpt lat="45.83964" lon="4.71822">
        <ele>334.04895</ele>
        <time>2023-07-02T14:29:23.000Z</time>
      </trkpt>
      <trkpt lat="45.83968" lon="4.71827">
        <ele>334.03311</ele>
        <time>2023-07-02T14:29:24.000Z</time>
      </trkpt>
      <trkpt lat="45.83971" lon="4.71831">
        <ele>334.0351</ele>
        <time>2023-07-02T14:29:25.000Z</time>
      </trkpt>
      <trkpt lat="45.83973" lon="4.71835">
        <ele>333.9707</ele>
        <time>2023-07-02T14:29:26.000Z</time>
      </trkpt>
      <trkpt lat="45.83976" lon="4.71839">
        <ele>333.78091</ele>
        <time>2023-07-02T14:29:27.000Z</time>
      </trkpt>
      <trkpt lat="45.8398" lon="4.71843">
        <ele>333.6105</ele>
        <time>2023-07-02T14:29:28.000Z</time>
      </trkpt>
      <trkpt lat="45.83982" lon="4.71847">
        <ele>333.46136</ele>
        <time>2023-07-02T14:29:29.000Z</time>
      </trkpt>
      <trkpt lat="45.83985" lon="4.71851">
        <ele>333.24518</ele>
        <time>2023-07-02T14:29:30.000Z</time>
      </trkpt>
      <trkpt lat="45.83987" lon="4.71856">
        <ele>332.93692</ele>
        <time>2023-07-02T14:29:31.000Z</time>
      </trkpt>
      <trkpt lat="45.8399" lon="4.7186">
        <ele>332.98364</ele>
        <time>2023-07-02T14:29:32.000Z</time>
      </trkpt>
      <trkpt lat="45.83992" lon="4.71863">
        <ele>333.01678</ele>
        <time>2023-07-02T14:29:33.000Z</time>
      </trkpt>
      <trkpt lat="45.83995" lon="4.71867">
        <ele>333.06183</ele>
        <time>2023-07-02T14:29:34.000Z</time>
      </trkpt>
      <trkpt lat="45.83997" lon="4.7187">
        <ele>333.13449</ele>
        <time>2023-07-02T14:29:35.000Z</time>
      </trkpt>
      <trkpt lat="45.83999" lon="4.71874">
        <ele>333.22958</ele>
        <time>2023-07-02T14:29:36.000Z</time>
      </trkpt>
      <trkpt lat="45.84002" lon="4.71878">
        <ele>333.31412</ele>
        <time>2023-07-02T14:29:37.000Z</time>
      </trkpt>
      <trkpt lat="45.84004" lon="4.71882">
        <ele>333.40771</ele>
        <time>2023-07-02T14:29:38.000Z</time>
      </trkpt>
      <trkpt lat="45.84006" lon="4.71887">
        <ele>333.34857</ele>
        <time>2023-07-02T14:29:39.000Z</time>
      </trkpt>
      <trkpt lat="45.84009" lon="4.71891">
        <ele>333.3548</ele>
        <time>2023-07-02T14:29:40.000Z</time>
      </trkpt>
      <trkpt lat="45.8401" lon="4.71897">
        <ele>333.4928</ele>
        <time>2023-07-02T14:29:41.000Z</time>
      </trkpt>
      <trkpt lat="45.8401" lon="4.71904">
        <ele>333.4873</ele>
        <time>2023-07-02T14:29:42.000Z</time>
      </trkpt>
      <trkpt lat="45.8401" lon="4.71912">
        <ele>333.74786</ele>
        <time>2023-07-02T14:29:43.000Z</time>
      </trkpt>
      <trkpt lat="45.84009" lon="4.71919">
        <ele>333.9888</ele>
        <time>2023-07-02T14:29:44.000Z</time>
      </trkpt>
      <trkpt lat="45.84009" lon="4.71928">
        <ele>334.17773</ele>
        <time>2023-07-02T14:29:45.000Z</time>
      </trkpt>
      <trkpt lat="45.8401" lon="4.71936">
        <ele>334.39047</ele>
        <time>2023-07-02T14:29:46.000Z</time>
      </trkpt>
      <trkpt lat="45.84011" lon="4.71946">
        <ele>334.55414</ele>
        <time>2023-07-02T14:29:47.000Z</time>
      </trkpt>
      <trkpt lat="45.84012" lon="4.71956">
        <ele>334.94733</ele>
        <time>2023-07-02T14:29:48.000Z</time>
      </trkpt>
      <trkpt lat="45.84012" lon="4.71966">
        <ele>335.354</ele>
        <time>2023-07-02T14:29:49.000Z</time>
      </trkpt>
      <trkpt lat="45.84013" lon="4.71977">
        <ele>335.31146</ele>
        <time>2023-07-02T14:29:50.000Z</time>
      </trkpt>
      <trkpt lat="45.84014" lon="4.71988">
        <ele>335.33273</ele>
        <time>2023-07-02T14:29:51.000Z</time>
      </trkpt>
      <trkpt lat="45.84014" lon="4.72">
        <ele>335.30243</ele>
        <time>2023-07-02T14:29:52.000Z</time>
      </trkpt>
      <trkpt lat="45.84014" lon="4.7201">
        <ele>335.2915</ele>
        <time>2023-07-02T14:29:53.000Z</time>
      </trkpt>
      <trkpt lat="45.84014" lon="4.72021">
        <ele>335.28094</ele>
        <time>2023-07-02T14:29:54.000Z</time>
      </trkpt>
      <trkpt lat="45.84015" lon="4.72032">
        <ele>335.25235</ele>
        <time>2023-07-02T14:29:55.000Z</time>
      </trkpt>
      <trkpt lat="45.84016" lon="4.72044">
        <ele>335.18362</ele>
        <time>2023-07-02T14:29:56.000Z</time>
      </trkpt>
      <trkpt lat="45.84017" lon="4.72055">
        <ele>335.15204</ele>
        <time>2023-07-02T14:29:57.000Z</time>
      </trkpt>
      <trkpt lat="45.84018" lon="4.72065">
        <ele>335.13519</ele>
        <time>2023-07-02T14:29:58.000Z</time>
      </trkpt>
      <trkpt lat="45.84019" lon="4.72076">
        <ele>335.14371</ele>
        <time>2023-07-02T14:29:59.000Z</time>
      </trkpt>
      <trkpt lat="45.84019" lon="4.72085">
        <ele>335.08636</ele>
        <time>2023-07-02T14:30:00.000Z</time>
      </trkpt>
      <trkpt lat="45.8402" lon="4.72096">
        <ele>334.86554</ele>
        <time>2023-07-02T14:30:01.000Z</time>
      </trkpt>
      <trkpt lat="45.84021" lon="4.72106">
        <ele>334.67059</ele>
        <time>2023-07-02T14:30:02.000Z</time>
      </trkpt>
      <trkpt lat="45.84022" lon="4.72115">
        <ele>334.51947</ele>
        <time>2023-07-02T14:30:03.000Z</time>
      </trkpt>
      <trkpt lat="45.84023" lon="4.72123">
        <ele>333.68124</ele>
        <time>2023-07-02T14:30:04.000Z</time>
      </trkpt>
      <trkpt lat="45.84024" lon="4.72131">
        <ele>332.89249</ele>
        <time>2023-07-02T14:30:05.000Z</time>
      </trkpt>
      <trkpt lat="45.84024" lon="4.72139">
        <ele>332.10086</ele>
        <time>2023-07-02T14:30:06.000Z</time>
      </trkpt>
      <trkpt lat="45.84024" lon="4.72146">
        <ele>331.35736</ele>
        <time>2023-07-02T14:30:07.000Z</time>
      </trkpt>
      <trkpt lat="45.84023" lon="4.72154">
        <ele>330.36169</ele>
        <time>2023-07-02T14:30:08.000Z</time>
      </trkpt>
      <trkpt lat="45.84022" lon="4.7216">
        <ele>329.36053</ele>
        <time>2023-07-02T14:30:09.000Z</time>
      </trkpt>
      <trkpt lat="45.84018" lon="4.72163">
        <ele>328.81677</ele>
        <time>2023-07-02T14:30:10.000Z</time>
      </trkpt>
      <trkpt lat="45.84013" lon="4.72166">
        <ele>328.19855</ele>
        <time>2023-07-02T14:30:11.000Z</time>
      </trkpt>
      <trkpt lat="45.84008" lon="4.72168">
        <ele>327.61908</ele>
        <time>2023-07-02T14:30:12.000Z</time>
      </trkpt>
      <trkpt lat="45.84004" lon="4.72168">
        <ele>327.00778</ele>
        <time>2023-07-02T14:30:13.000Z</time>
      </trkpt>
      <trkpt lat="45.83999" lon="4.72168">
        <ele>326.38776</ele>
        <time>2023-07-02T14:30:14.000Z</time>
      </trkpt>
      <trkpt lat="45.83995" lon="4.72167">
        <ele>326.41803</ele>
        <time>2023-07-02T14:30:15.000Z</time>
      </trkpt>
      <trkpt lat="45.83989" lon="4.72165">
        <ele>326.45309</ele>
        <time>2023-07-02T14:30:16.000Z</time>
      </trkpt>
      <trkpt lat="45.83984" lon="4.72164">
        <ele>326.42749</ele>
        <time>2023-07-02T14:30:17.000Z</time>
      </trkpt>
      <trkpt lat="45.83979" lon="4.72163">
        <ele>326.36804</ele>
        <time>2023-07-02T14:30:18.000Z</time>
      </trkpt>
      <trkpt lat="45.83974" lon="4.72162">
        <ele>326.54712</ele>
        <time>2023-07-02T14:30:19.000Z</time>
      </trkpt>
      <trkpt lat="45.83969" lon="4.72162">
        <ele>326.72028</ele>
        <time>2023-07-02T14:30:20.000Z</time>
      </trkpt>
      <trkpt lat="45.83964" lon="4.72162">
        <ele>326.91583</ele>
        <time>2023-07-02T14:30:21.000Z</time>
      </trkpt>
      <trkpt lat="45.8396" lon="4.7216">
        <ele>327.10541</ele>
        <time>2023-07-02T14:30:22.000Z</time>
      </trkpt>
      <trkpt lat="45.83955" lon="4.7216">
        <ele>327.44022</ele>
        <time>2023-07-02T14:30:23.000Z</time>
      </trkpt>
      <trkpt lat="45.83951" lon="4.72158">
        <ele>327.9888</ele>
        <time>2023-07-02T14:30:24.000Z</time>
      </trkpt>
      <trkpt lat="45.83946" lon="4.72159">
        <ele>328.61823</ele>
        <time>2023-07-02T14:30:25.000Z</time>
      </trkpt>
      <trkpt lat="45.83944" lon="4.72161">
        <ele>329.30063</ele>
        <time>2023-07-02T14:30:26.000Z</time>
      </trkpt>
      <trkpt lat="45.83943" lon="4.72163">
        <ele>329.96637</ele>
        <time>2023-07-02T14:30:27.000Z</time>
      </trkpt>
      <trkpt lat="45.83944" lon="4.72168">
        <ele>330.79965</ele>
        <time>2023-07-02T14:30:28.000Z</time>
      </trkpt>
      <trkpt lat="45.83944" lon="4.72171">
        <ele>331.70779</ele>
        <time>2023-07-02T14:30:29.000Z</time>
      </trkpt>
      <trkpt lat="45.83945" lon="4.72175">
        <ele>332.75409</ele>
        <time>2023-07-02T14:30:30.000Z</time>
      </trkpt>
      <trkpt lat="45.83947" lon="4.7218">
        <ele>333.32224</ele>
        <time>2023-07-02T14:30:31.000Z</time>
      </trkpt>
      <trkpt lat="45.83949" lon="4.72183">
        <ele>333.93054</ele>
        <time>2023-07-02T14:30:32.000Z</time>
      </trkpt>
      <trkpt lat="45.83951" lon="4.72187">
        <ele>334.55792</ele>
        <time>2023-07-02T14:30:33.000Z</time>
      </trkpt>
      <trkpt lat="45.83954" lon="4.72191">
        <ele>335.1871</ele>
        <time>2023-07-02T14:30:34.000Z</time>
      </trkpt>
      <trkpt lat="45.83956" lon="4.72196">
        <ele>335.17371</ele>
        <time>2023-07-02T14:30:35.000Z</time>
      </trkpt>
      <trkpt lat="45.83958" lon="4.722">
        <ele>335.16122</ele>
        <time>2023-07-02T14:30:36.000Z</time>
      </trkpt>
      <trkpt lat="45.8396" lon="4.72205">
        <ele>335.19745</ele>
        <time>2023-07-02T14:30:37.000Z</time>
      </trkpt>
      <trkpt lat="45.83962" lon="4.7221">
        <ele>335.24536</ele>
        <time>2023-07-02T14:30:38.000Z</time>
      </trkpt>
      <trkpt lat="45.83965" lon="4.72215">
        <ele>335.05225</ele>
        <time>2023-07-02T14:30:39.000Z</time>
      </trkpt>
      <trkpt lat="45.83967" lon="4.7222">
        <ele>334.89499</ele>
        <time>2023-07-02T14:30:40.000Z</time>
      </trkpt>
      <trkpt lat="45.8397" lon="4.72225">
        <ele>334.73709</ele>
        <time>2023-07-02T14:30:41.000Z</time>
      </trkpt>
      <trkpt lat="45.83972" lon="4.7223">
        <ele>334.55933</ele>
        <time>2023-07-02T14:30:42.000Z</time>
      </trkpt>
      <trkpt lat="45.83974" lon="4.72235">
        <ele>334.18808</ele>
        <time>2023-07-02T14:30:43.000Z</time>
      </trkpt>
      <trkpt lat="45.83977" lon="4.7224">
        <ele>333.63712</ele>
        <time>2023-07-02T14:30:44.000Z</time>
      </trkpt>
      <trkpt lat="45.83979" lon="4.72244">
        <ele>332.97614</ele>
        <time>2023-07-02T14:30:45.000Z</time>
      </trkpt>
      <trkpt lat="45.83982" lon="4.7225">
        <ele>332.26532</ele>
        <time>2023-07-02T14:30:46.000Z</time>
      </trkpt>
      <trkpt lat="45.83984" lon="4.72255">
        <ele>331.53006</ele>
        <time>2023-07-02T14:30:47.000Z</time>
      </trkpt>
      <trkpt lat="45.83987" lon="4.72261">
        <ele>330.62527</ele>
        <time>2023-07-02T14:30:48.000Z</time>
      </trkpt>
      <trkpt lat="45.8399" lon="4.72266">
        <ele>329.60745</ele>
        <time>2023-07-02T14:30:49.000Z</time>
      </trkpt>
      <trkpt lat="45.83992" lon="4.72271">
        <ele>328.44565</ele>
        <time>2023-07-02T14:30:50.000Z</time>
      </trkpt>
      <trkpt lat="45.83996" lon="4.72276">
        <ele>327.76154</ele>
        <time>2023-07-02T14:30:51.000Z</time>
      </trkpt>
      <trkpt lat="45.83999" lon="4.72282">
        <ele>327.61963</ele>
        <time>2023-07-02T14:30:52.000Z</time>
      </trkpt>
      <trkpt lat="45.84003" lon="4.72287">
        <ele>327.47571</ele>
        <time>2023-07-02T14:30:53.000Z</time>
      </trkpt>
      <trkpt lat="45.84007" lon="4.72293">
        <ele>327.31699</ele>
        <time>2023-07-02T14:30:54.000Z</time>
      </trkpt>
      <trkpt lat="45.8401" lon="4.72298">
        <ele>327.13968</ele>
        <time>2023-07-02T14:30:55.000Z</time>
      </trkpt>
      <trkpt lat="45.84012" lon="4.72304">
        <ele>326.94434</ele>
        <time>2023-07-02T14:30:56.000Z</time>
      </trkpt>
      <trkpt lat="45.84011" lon="4.72312">
        <ele>326.73602</ele>
        <time>2023-07-02T14:30:57.000Z</time>
      </trkpt>
      <trkpt lat="45.8401" lon="4.72318">
        <ele>326.50592</ele>
        <time>2023-07-02T14:30:58.000Z</time>
      </trkpt>
      <trkpt lat="45.84005" lon="4.72324">
        <ele>326.25153</ele>
        <time>2023-07-02T14:30:59.000Z</time>
      </trkpt>
      <trkpt lat="45.84001" lon="4.72328">
        <ele>325.97153</ele>
        <time>2023-07-02T14:31:00.000Z</time>
      </trkpt>
      <trkpt lat="45.83997" lon="4.72334">
        <ele>325.56442</ele>
        <time>2023-07-02T14:31:01.000Z</time>
      </trkpt>
      <trkpt lat="45.83992" lon="4.72339">
        <ele>325.18942</ele>
        <time>2023-07-02T14:31:02.000Z</time>
      </trkpt>
      <trkpt lat="45.83986" lon="4.72344">
        <ele>324.83078</ele>
        <time>2023-07-02T14:31:03.000Z</time>
      </trkpt>
      <trkpt lat="45.83981" lon="4.72349">
        <ele>325.10318</ele>
        <time>2023-07-02T14:31:04.000Z</time>
      </trkpt>
      <trkpt lat="45.83976" lon="4.72355">
        <ele>325.36871</ele>
        <time>2023-07-02T14:31:05.000Z</time>
      </trkpt>
      <trkpt lat="45.8397" lon="4.72358">
        <ele>325.63754</ele>
        <time>2023-07-02T14:31:06.000Z</time>
      </trkpt>
      <trkpt lat="45.83964" lon="4.72364">
        <ele>325.95483</ele>
        <time>2023-07-02T14:31:07.000Z</time>
      </trkpt>
      <trkpt lat="45.83958" lon="4.72369">
        <ele>326.24054</ele>
        <time>2023-07-02T14:31:08.000Z</time>
      </trkpt>
      <trkpt lat="45.83952" lon="4.72374">
        <ele>326.54428</ele>
        <time>2023-07-02T14:31:09.000Z</time>
      </trkpt>
      <trkpt lat="45.83946" lon="4.72379">
        <ele>326.845</ele>
        <time>2023-07-02T14:31:10.000Z</time>
      </trkpt>
      <trkpt lat="45.8394" lon="4.72384">
        <ele>327.17017</ele>
        <time>2023-07-02T14:31:11.000Z</time>
      </trkpt>
      <trkpt lat="45.83933" lon="4.72387">
        <ele>326.88043</ele>
        <time>2023-07-02T14:31:12.000Z</time>
      </trkpt>
      <trkpt lat="45.83926" lon="4.72391">
        <ele>326.59863</ele>
        <time>2023-07-02T14:31:13.000Z</time>
      </trkpt>
      <trkpt lat="45.83918" lon="4.72394">
        <ele>326.31088</ele>
        <time>2023-07-02T14:31:14.000Z</time>
      </trkpt>
      <trkpt lat="45.8391" lon="4.72398">
        <ele>326.01837</ele>
        <time>2023-07-02T14:31:15.000Z</time>
      </trkpt>
      <trkpt lat="45.83902" lon="4.72402">
        <ele>325.25977</ele>
        <time>2023-07-02T14:31:16.000Z</time>
      </trkpt>
      <trkpt lat="45.83894" lon="4.72406">
        <ele>324.48386</ele>
        <time>2023-07-02T14:31:17.000Z</time>
      </trkpt>
      <trkpt lat="45.83886" lon="4.72409">
        <ele>323.71796</ele>
        <time>2023-07-02T14:31:18.000Z</time>
      </trkpt>
      <trkpt lat="45.83878" lon="4.72414">
        <ele>322.99603</ele>
        <time>2023-07-02T14:31:19.000Z</time>
      </trkpt>
      <trkpt lat="45.8387" lon="4.72419">
        <ele>322.80542</ele>
        <time>2023-07-02T14:31:20.000Z</time>
      </trkpt>
      <trkpt lat="45.83863" lon="4.72422">
        <ele>322.74237</ele>
        <time>2023-07-02T14:31:21.000Z</time>
      </trkpt>
      <trkpt lat="45.83857" lon="4.72425">
        <ele>322.66888</ele>
        <time>2023-07-02T14:31:22.000Z</time>
      </trkpt>
      <trkpt lat="45.83853" lon="4.72432">
        <ele>322.58966</ele>
        <time>2023-07-02T14:31:23.000Z</time>
      </trkpt>
      <trkpt lat="45.83848" lon="4.72438">
        <ele>321.98596</ele>
        <time>2023-07-02T14:31:24.000Z</time>
      </trkpt>
      <trkpt lat="45.83845" lon="4.72447">
        <ele>322.09918</ele>
        <time>2023-07-02T14:31:25.000Z</time>
      </trkpt>
      <trkpt lat="45.83841" lon="4.72456">
        <ele>322.06903</ele>
        <time>2023-07-02T14:31:26.000Z</time>
      </trkpt>
      <trkpt lat="45.83842" lon="4.72466">
        <ele>322.02484</ele>
        <time>2023-07-02T14:31:27.000Z</time>
      </trkpt>
      <trkpt lat="45.83842" lon="4.72475">
        <ele>322.02225</ele>
        <time>2023-07-02T14:31:28.000Z</time>
      </trkpt>
      <trkpt lat="45.83842" lon="4.72482">
        <ele>322.21423</ele>
        <time>2023-07-02T14:31:29.000Z</time>
      </trkpt>
      <trkpt lat="45.83843" lon="4.72489">
        <ele>322.38654</ele>
        <time>2023-07-02T14:31:30.000Z</time>
      </trkpt>
      <trkpt lat="45.83843" lon="4.72499">
        <ele>321.83203</ele>
        <time>2023-07-02T14:31:31.000Z</time>
      </trkpt>
      <trkpt lat="45.83842" lon="4.72507">
        <ele>321.15054</ele>
        <time>2023-07-02T14:31:32.000Z</time>
      </trkpt>
      <trkpt lat="45.83843" lon="4.72516">
        <ele>320.48553</ele>
        <time>2023-07-02T14:31:33.000Z</time>
      </trkpt>
      <trkpt lat="45.83842" lon="4.72524">
        <ele>319.82968</ele>
        <time>2023-07-02T14:31:34.000Z</time>
      </trkpt>
      <trkpt lat="45.83841" lon="4.72529">
        <ele>319.16229</ele>
        <time>2023-07-02T14:31:35.000Z</time>
      </trkpt>
      <trkpt lat="45.83841" lon="4.72534">
        <ele>318.99213</ele>
        <time>2023-07-02T14:31:36.000Z</time>
      </trkpt>
      <trkpt lat="45.83841" lon="4.72539">
        <ele>318.84412</ele>
        <time>2023-07-02T14:31:37.000Z</time>
      </trkpt>
      <trkpt lat="45.8384" lon="4.72544">
        <ele>318.68085</ele>
        <time>2023-07-02T14:31:38.000Z</time>
      </trkpt>
      <trkpt lat="45.83839" lon="4.72548">
        <ele>318.54593</ele>
        <time>2023-07-02T14:31:39.000Z</time>
      </trkpt>
      <trkpt lat="45.83839" lon="4.72552">
        <ele>317.85791</ele>
        <time>2023-07-02T14:31:40.000Z</time>
      </trkpt>
      <trkpt lat="45.83838" lon="4.72556">
        <ele>317.16025</ele>
        <time>2023-07-02T14:31:41.000Z</time>
      </trkpt>
      <trkpt lat="45.83838" lon="4.7256">
        <ele>316.48096</ele>
        <time>2023-07-02T14:31:42.000Z</time>
      </trkpt>
      <trkpt lat="45.83839" lon="4.72565">
        <ele>315.71225</ele>
        <time>2023-07-02T14:31:44.000Z</time>
      </trkpt>
      <trkpt lat="45.83838" lon="4.72568">
        <ele>315.5383</ele>
        <time>2023-07-02T14:31:45.000Z</time>
      </trkpt>
      <trkpt lat="45.83837" lon="4.7257">
        <ele>314.6774</ele>
        <time>2023-07-02T14:31:46.000Z</time>
      </trkpt>
      <trkpt lat="45.83836" lon="4.72573">
        <ele>313.98184</ele>
        <time>2023-07-02T14:31:47.000Z</time>
      </trkpt>
      <trkpt lat="45.83834" lon="4.72576">
        <ele>313.29962</ele>
        <time>2023-07-02T14:31:48.000Z</time>
      </trkpt>
      <trkpt lat="45.83833" lon="4.7258">
        <ele>312.5394</ele>
        <time>2023-07-02T14:31:49.000Z</time>
      </trkpt>
      <trkpt lat="45.83832" lon="4.72584">
        <ele>311.54517</ele>
        <time>2023-07-02T14:31:50.000Z</time>
      </trkpt>
      <trkpt lat="45.83831" lon="4.72588">
        <ele>310.55533</ele>
        <time>2023-07-02T14:31:51.000Z</time>
      </trkpt>
      <trkpt lat="45.83829" lon="4.72592">
        <ele>310.29376</ele>
        <time>2023-07-02T14:31:52.000Z</time>
      </trkpt>
      <trkpt lat="45.83828" lon="4.72596">
        <ele>310.18451</ele>
        <time>2023-07-02T14:31:53.000Z</time>
      </trkpt>
      <trkpt lat="45.83826" lon="4.726">
        <ele>310.05948</ele>
        <time>2023-07-02T14:31:54.000Z</time>
      </trkpt>
      <trkpt lat="45.83824" lon="4.72603">
        <ele>310.58929</ele>
        <time>2023-07-02T14:31:55.000Z</time>
      </trkpt>
      <trkpt lat="45.83821" lon="4.72606">
        <ele>311.12091</ele>
        <time>2023-07-02T14:31:56.000Z</time>
      </trkpt>
      <trkpt lat="45.83818" lon="4.72609">
        <ele>311.49176</ele>
        <time>2023-07-02T14:31:57.000Z</time>
      </trkpt>
      <trkpt lat="45.83815" lon="4.72611">
        <ele>311.80878</ele>
        <time>2023-07-02T14:31:58.000Z</time>
      </trkpt>
      <trkpt lat="45.83812" lon="4.72613">
        <ele>312.20337</ele>
        <time>2023-07-02T14:31:59.000Z</time>
      </trkpt>
      <trkpt lat="45.83808" lon="4.72614">
        <ele>312.57333</ele>
        <time>2023-07-02T14:32:00.000Z</time>
      </trkpt>
      <trkpt lat="45.83804" lon="4.72616">
        <ele>312.95444</ele>
        <time>2023-07-02T14:32:01.000Z</time>
      </trkpt>
      <trkpt lat="45.838" lon="4.72616">
        <ele>313.39056</ele>
        <time>2023-07-02T14:32:02.000Z</time>
      </trkpt>
      <trkpt lat="45.83796" lon="4.72617">
        <ele>314.07672</ele>
        <time>2023-07-02T14:32:03.000Z</time>
      </trkpt>
      <trkpt lat="45.83792" lon="4.72618">
        <ele>314.83051</ele>
        <time>2023-07-02T14:32:04.000Z</time>
      </trkpt>
      <trkpt lat="45.83788" lon="4.72619">
        <ele>315.57623</ele>
        <time>2023-07-02T14:32:05.000Z</time>
      </trkpt>
      <trkpt lat="45.83785" lon="4.7262">
        <ele>316.2265</ele>
        <time>2023-07-02T14:32:06.000Z</time>
      </trkpt>
      <trkpt lat="45.83782" lon="4.72621">
        <ele>316.86456</ele>
        <time>2023-07-02T14:32:07.000Z</time>
      </trkpt>
      <trkpt lat="45.83778" lon="4.72622">
        <ele>317.47244</ele>
        <time>2023-07-02T14:32:08.000Z</time>
      </trkpt>
      <trkpt lat="45.83775" lon="4.72623">
        <ele>318.14508</ele>
        <time>2023-07-02T14:32:09.000Z</time>
      </trkpt>
      <trkpt lat="45.83771" lon="4.72624">
        <ele>318.87997</ele>
        <time>2023-07-02T14:32:10.000Z</time>
      </trkpt>
      <trkpt lat="45.83768" lon="4.72626">
        <ele>319.6427</ele>
        <time>2023-07-02T14:32:11.000Z</time>
      </trkpt>
      <trkpt lat="45.83764" lon="4.72627">
        <ele>320.39969</ele>
        <time>2023-07-02T14:32:12.000Z</time>
      </trkpt>
      <trkpt lat="45.83761" lon="4.72629">
        <ele>321.13651</ele>
        <time>2023-07-02T14:32:13.000Z</time>
      </trkpt>
      <trkpt lat="45.83758" lon="4.7263">
        <ele>321.8833</ele>
        <time>2023-07-02T14:32:14.000Z</time>
      </trkpt>
      <trkpt lat="45.83754" lon="4.7263">
        <ele>321.98175</ele>
        <time>2023-07-02T14:32:15.000Z</time>
      </trkpt>
      <trkpt lat="45.83751" lon="4.72632">
        <ele>322.12927</ele>
        <time>2023-07-02T14:32:16.000Z</time>
      </trkpt>
      <trkpt lat="45.83747" lon="4.72633">
        <ele>322.44321</ele>
        <time>2023-07-02T14:32:17.000Z</time>
      </trkpt>
      <trkpt lat="45.83743" lon="4.72634">
        <ele>322.76501</ele>
        <time>2023-07-02T14:32:18.000Z</time>
      </trkpt>
      <trkpt lat="45.83739" lon="4.72636">
        <ele>323.0661</ele>
        <time>2023-07-02T14:32:19.000Z</time>
      </trkpt>
      <trkpt lat="45.83735" lon="4.72638">
        <ele>323.55463</ele>
        <time>2023-07-02T14:32:20.000Z</time>
      </trkpt>
      <trkpt lat="45.83731" lon="4.72639">
        <ele>323.5401</ele>
        <time>2023-07-02T14:32:21.000Z</time>
      </trkpt>
      <trkpt lat="45.83727" lon="4.72642">
        <ele>323.5416</ele>
        <time>2023-07-02T14:32:22.000Z</time>
      </trkpt>
      <trkpt lat="45.83724" lon="4.72645">
        <ele>323.29153</ele>
        <time>2023-07-02T14:32:23.000Z</time>
      </trkpt>
      <trkpt lat="45.83721" lon="4.72647">
        <ele>323.09607</ele>
        <time>2023-07-02T14:32:24.000Z</time>
      </trkpt>
      <trkpt lat="45.83718" lon="4.7265">
        <ele>322.88547</ele>
        <time>2023-07-02T14:32:25.000Z</time>
      </trkpt>
      <trkpt lat="45.83715" lon="4.72651">
        <ele>322.74426</ele>
        <time>2023-07-02T14:32:26.000Z</time>
      </trkpt>
      <trkpt lat="45.83711" lon="4.72653">
        <ele>322.60046</ele>
        <time>2023-07-02T14:32:27.000Z</time>
      </trkpt>
      <trkpt lat="45.83708" lon="4.72654">
        <ele>322.4465</ele>
        <time>2023-07-02T14:32:28.000Z</time>
      </trkpt>
      <trkpt lat="45.83704" lon="4.72654">
        <ele>322.52814</ele>
        <time>2023-07-02T14:32:29.000Z</time>
      </trkpt>
      <trkpt lat="45.83701" lon="4.72655">
        <ele>322.58041</ele>
        <time>2023-07-02T14:32:30.000Z</time>
      </trkpt>
      <trkpt lat="45.83697" lon="4.72656">
        <ele>322.64001</ele>
        <time>2023-07-02T14:32:31.000Z</time>
      </trkpt>
      <trkpt lat="45.83693" lon="4.72657">
        <ele>322.66602</ele>
        <time>2023-07-02T14:32:32.000Z</time>
      </trkpt>
      <trkpt lat="45.8369" lon="4.72658">
        <ele>322.71783</ele>
        <time>2023-07-02T14:32:33.000Z</time>
      </trkpt>
      <trkpt lat="45.83687" lon="4.72659">
        <ele>322.73694</ele>
        <time>2023-07-02T14:32:34.000Z</time>
      </trkpt>
      <trkpt lat="45.83683" lon="4.72659">
        <ele>322.79572</ele>
        <time>2023-07-02T14:32:35.000Z</time>
      </trkpt>
      <trkpt lat="45.8368" lon="4.72659">
        <ele>322.79462</ele>
        <time>2023-07-02T14:32:36.000Z</time>
      </trkpt>
      <trkpt lat="45.83677" lon="4.72659">
        <ele>322.80219</ele>
        <time>2023-07-02T14:32:37.000Z</time>
      </trkpt>
      <trkpt lat="45.83674" lon="4.72659">
        <ele>322.84814</ele>
        <time>2023-07-02T14:32:38.000Z</time>
      </trkpt>
      <trkpt lat="45.8367" lon="4.7266">
        <ele>323.00214</ele>
        <time>2023-07-02T14:32:39.000Z</time>
      </trkpt>
      <trkpt lat="45.83667" lon="4.72661">
        <ele>322.95132</ele>
        <time>2023-07-02T14:32:40.000Z</time>
      </trkpt>
      <trkpt lat="45.83664" lon="4.72662">
        <ele>322.90207</ele>
        <time>2023-07-02T14:32:41.000Z</time>
      </trkpt>
      <trkpt lat="45.83661" lon="4.72663">
        <ele>322.90955</ele>
        <time>2023-07-02T14:32:42.000Z</time>
      </trkpt>
      <trkpt lat="45.83658" lon="4.72665">
        <ele>323.06323</ele>
        <time>2023-07-02T14:32:43.000Z</time>
      </trkpt>
      <trkpt lat="45.83656" lon="4.72667">
        <ele>323.2598</ele>
        <time>2023-07-02T14:32:44.000Z</time>
      </trkpt>
      <trkpt lat="45.83653" lon="4.72668">
        <ele>323.478</ele>
        <time>2023-07-02T14:32:45.000Z</time>
      </trkpt>
      <trkpt lat="45.8365" lon="4.72669">
        <ele>323.63669</ele>
        <time>2023-07-02T14:32:46.000Z</time>
      </trkpt>
      <trkpt lat="45.83647" lon="4.7267">
        <ele>323.89951</ele>
        <time>2023-07-02T14:32:47.000Z</time>
      </trkpt>
      <trkpt lat="45.83645" lon="4.72672">
        <ele>324.47644</ele>
        <time>2023-07-02T14:32:48.000Z</time>
      </trkpt>
      <trkpt lat="45.83642" lon="4.72674">
        <ele>324.44687</ele>
        <time>2023-07-02T14:32:49.000Z</time>
      </trkpt>
      <trkpt lat="45.83639" lon="4.72676">
        <ele>324.4234</ele>
        <time>2023-07-02T14:32:50.000Z</time>
      </trkpt>
      <trkpt lat="45.83636" lon="4.72679">
        <ele>324.3902</ele>
        <time>2023-07-02T14:32:51.000Z</time>
      </trkpt>
      <trkpt lat="45.83633" lon="4.72682">
        <ele>324.38315</ele>
        <time>2023-07-02T14:32:52.000Z</time>
      </trkpt>
      <trkpt lat="45.8363" lon="4.72684">
        <ele>324.38089</ele>
        <time>2023-07-02T14:32:53.000Z</time>
      </trkpt>
      <trkpt lat="45.83628" lon="4.72687">
        <ele>326.28592</ele>
        <time>2023-07-02T14:32:54.000Z</time>
      </trkpt>
      <trkpt lat="45.83626" lon="4.7269">
        <ele>326.36722</ele>
        <time>2023-07-02T14:32:55.000Z</time>
      </trkpt>
      <trkpt lat="45.83623" lon="4.72693">
        <ele>326.49042</ele>
        <time>2023-07-02T14:32:56.000Z</time>
      </trkpt>
      <trkpt lat="45.83621" lon="4.72696">
        <ele>326.5965</ele>
        <time>2023-07-02T14:32:57.000Z</time>
      </trkpt>
      <trkpt lat="45.83619" lon="4.72698">
        <ele>326.70413</ele>
        <time>2023-07-02T14:32:58.000Z</time>
      </trkpt>
      <trkpt lat="45.83616" lon="4.727">
        <ele>326.67737</ele>
        <time>2023-07-02T14:32:59.000Z</time>
      </trkpt>
      <trkpt lat="45.83615" lon="4.72702">
        <ele>329.43774</ele>
        <time>2023-07-02T14:33:00.000Z</time>
      </trkpt>
      <trkpt lat="45.83613" lon="4.72703">
        <ele>331.42389</ele>
        <time>2023-07-02T14:33:01.000Z</time>
      </trkpt>
      <trkpt lat="45.83611" lon="4.72705">
        <ele>332.01611</ele>
        <time>2023-07-02T14:33:02.000Z</time>
      </trkpt>
      <trkpt lat="45.83609" lon="4.72707">
        <ele>333.73544</ele>
        <time>2023-07-02T14:33:03.000Z</time>
      </trkpt>
      <trkpt lat="45.83606" lon="4.72708">
        <ele>335.52365</ele>
        <time>2023-07-02T14:33:04.000Z</time>
      </trkpt>
      <trkpt lat="45.83603" lon="4.72708">
        <ele>337.16925</ele>
        <time>2023-07-02T14:33:05.000Z</time>
      </trkpt>
      <trkpt lat="45.83601" lon="4.72709">
        <ele>338.78839</ele>
        <time>2023-07-02T14:33:06.000Z</time>
      </trkpt>
      <trkpt lat="45.836" lon="4.7271">
        <ele>340.14551</ele>
        <time>2023-07-02T14:33:07.000Z</time>
      </trkpt>
      <trkpt lat="45.83597" lon="4.72712">
        <ele>341.23993</ele>
        <time>2023-07-02T14:33:08.000Z</time>
      </trkpt>
      <trkpt lat="45.83595" lon="4.72715">
        <ele>341.72455</ele>
        <time>2023-07-02T14:33:09.000Z</time>
      </trkpt>
      <trkpt lat="45.83592" lon="4.72717">
        <ele>341.85187</ele>
        <time>2023-07-02T14:33:10.000Z</time>
      </trkpt>
      <trkpt lat="45.83589" lon="4.72719">
        <ele>341.97235</ele>
        <time>2023-07-02T14:33:11.000Z</time>
      </trkpt>
      <trkpt lat="45.83586" lon="4.72722">
        <ele>342.11475</ele>
        <time>2023-07-02T14:33:12.000Z</time>
      </trkpt>
      <trkpt lat="45.83584" lon="4.72723">
        <ele>342.27902</ele>
        <time>2023-07-02T14:33:13.000Z</time>
      </trkpt>
      <trkpt lat="45.83581" lon="4.72725">
        <ele>340.55353</ele>
        <time>2023-07-02T14:33:14.000Z</time>
      </trkpt>
      <trkpt lat="45.83578" lon="4.72727">
        <ele>340.62473</ele>
        <time>2023-07-02T14:33:15.000Z</time>
      </trkpt>
      <trkpt lat="45.83574" lon="4.72729">
        <ele>340.71268</ele>
        <time>2023-07-02T14:33:16.000Z</time>
      </trkpt>
      <trkpt lat="45.83571" lon="4.72731">
        <ele>340.7728</ele>
        <time>2023-07-02T14:33:17.000Z</time>
      </trkpt>
      <trkpt lat="45.83569" lon="4.72733">
        <ele>340.80997</ele>
        <time>2023-07-02T14:33:18.000Z</time>
      </trkpt>
      <trkpt lat="45.83565" lon="4.72734">
        <ele>341.01727</ele>
        <time>2023-07-02T14:33:19.000Z</time>
      </trkpt>
      <trkpt lat="45.83561" lon="4.72736">
        <ele>338.42517</ele>
        <time>2023-07-02T14:33:20.000Z</time>
      </trkpt>
      <trkpt lat="45.83558" lon="4.72737">
        <ele>337.12238</ele>
        <time>2023-07-02T14:33:21.000Z</time>
      </trkpt>
      <trkpt lat="45.83554" lon="4.72738">
        <ele>337.13135</ele>
        <time>2023-07-02T14:33:22.000Z</time>
      </trkpt>
      <trkpt lat="45.8355" lon="4.7274">
        <ele>335.87808</ele>
        <time>2023-07-02T14:33:23.000Z</time>
      </trkpt>
      <trkpt lat="45.83547" lon="4.72741">
        <ele>334.61993</ele>
        <time>2023-07-02T14:33:24.000Z</time>
      </trkpt>
      <trkpt lat="45.83544" lon="4.72743">
        <ele>333.45502</ele>
        <time>2023-07-02T14:33:25.000Z</time>
      </trkpt>
      <trkpt lat="45.8354" lon="4.72745">
        <ele>332.02277</ele>
        <time>2023-07-02T14:33:26.000Z</time>
      </trkpt>
      <trkpt lat="45.83537" lon="4.72746">
        <ele>330.77866</ele>
        <time>2023-07-02T14:33:27.000Z</time>
      </trkpt>
      <trkpt lat="45.83534" lon="4.72747">
        <ele>329.50369</ele>
        <time>2023-07-02T14:33:28.000Z</time>
      </trkpt>
      <trkpt lat="45.8353" lon="4.72748">
        <ele>329.18353</ele>
        <time>2023-07-02T14:33:29.000Z</time>
      </trkpt>
      <trkpt lat="45.83526" lon="4.72749">
        <ele>329.24591</ele>
        <time>2023-07-02T14:33:30.000Z</time>
      </trkpt>
      <trkpt lat="45.83522" lon="4.7275">
        <ele>329.32941</ele>
        <time>2023-07-02T14:33:31.000Z</time>
      </trkpt>
      <trkpt lat="45.83519" lon="4.72751">
        <ele>329.56467</ele>
        <time>2023-07-02T14:33:32.000Z</time>
      </trkpt>
      <trkpt lat="45.83515" lon="4.72751">
        <ele>329.78217</ele>
        <time>2023-07-02T14:33:33.000Z</time>
      </trkpt>
      <trkpt lat="45.83512" lon="4.72752">
        <ele>329.94931</ele>
        <time>2023-07-02T14:33:34.000Z</time>
      </trkpt>
      <trkpt lat="45.83509" lon="4.72753">
        <ele>330.08807</ele>
        <time>2023-07-02T14:33:35.000Z</time>
      </trkpt>
      <trkpt lat="45.83505" lon="4.72755">
        <ele>330.20306</ele>
        <time>2023-07-02T14:33:36.000Z</time>
      </trkpt>
      <trkpt lat="45.83502" lon="4.72756">
        <ele>330.4426</ele>
        <time>2023-07-02T14:33:37.000Z</time>
      </trkpt>
      <trkpt lat="45.83498" lon="4.72758">
        <ele>330.74054</ele>
        <time>2023-07-02T14:33:38.000Z</time>
      </trkpt>
      <trkpt lat="45.83495" lon="4.72759">
        <ele>330.47391</ele>
        <time>2023-07-02T14:33:39.000Z</time>
      </trkpt>
      <trkpt lat="45.83491" lon="4.72761">
        <ele>330.26944</ele>
        <time>2023-07-02T14:33:40.000Z</time>
      </trkpt>
      <trkpt lat="45.83488" lon="4.72762">
        <ele>330.07193</ele>
        <time>2023-07-02T14:33:41.000Z</time>
      </trkpt>
      <trkpt lat="45.83484" lon="4.72764">
        <ele>329.83734</ele>
        <time>2023-07-02T14:33:42.000Z</time>
      </trkpt>
      <trkpt lat="45.8348" lon="4.72765">
        <ele>329.59784</ele>
        <time>2023-07-02T14:33:43.000Z</time>
      </trkpt>
      <trkpt lat="45.83476" lon="4.72766">
        <ele>329.22708</ele>
        <time>2023-07-02T14:33:44.000Z</time>
      </trkpt>
      <trkpt lat="45.83472" lon="4.72767">
        <ele>328.85657</ele>
        <time>2023-07-02T14:33:45.000Z</time>
      </trkpt>
      <trkpt lat="45.83468" lon="4.72768">
        <ele>328.86359</ele>
        <time>2023-07-02T14:33:46.000Z</time>
      </trkpt>
      <trkpt lat="45.83465" lon="4.7277">
        <ele>328.84192</ele>
        <time>2023-07-02T14:33:47.000Z</time>
      </trkpt>
      <trkpt lat="45.83461" lon="4.72771">
        <ele>328.98505</ele>
        <time>2023-07-02T14:33:48.000Z</time>
      </trkpt>
      <trkpt lat="45.83458" lon="4.72772">
        <ele>329.20255</ele>
        <time>2023-07-02T14:33:49.000Z</time>
      </trkpt>
      <trkpt lat="45.83454" lon="4.72773">
        <ele>329.39847</ele>
        <time>2023-07-02T14:33:50.000Z</time>
      </trkpt>
      <trkpt lat="45.8345" lon="4.72774">
        <ele>329.79648</ele>
        <time>2023-07-02T14:33:51.000Z</time>
      </trkpt>
      <trkpt lat="45.83445" lon="4.72776">
        <ele>329.61823</ele>
        <time>2023-07-02T14:33:52.000Z</time>
      </trkpt>
      <trkpt lat="45.83439" lon="4.72784">
        <ele>329.50009</ele>
        <time>2023-07-02T14:33:53.000Z</time>
      </trkpt>
      <trkpt lat="45.83437" lon="4.7279">
        <ele>329.4285</ele>
        <time>2023-07-02T14:33:54.000Z</time>
      </trkpt>
      <trkpt lat="45.83436" lon="4.72798">
        <ele>329.33728</ele>
        <time>2023-07-02T14:33:55.000Z</time>
      </trkpt>
      <trkpt lat="45.83436" lon="4.72805">
        <ele>329.23044</ele>
        <time>2023-07-02T14:33:56.000Z</time>
      </trkpt>
      <trkpt lat="45.83437" lon="4.72812">
        <ele>329.01746</ele>
        <time>2023-07-02T14:33:57.000Z</time>
      </trkpt>
      <trkpt lat="45.83436" lon="4.72821">
        <ele>328.77789</ele>
        <time>2023-07-02T14:33:58.000Z</time>
      </trkpt>
      <trkpt lat="45.83436" lon="4.72827">
        <ele>329.16638</ele>
        <time>2023-07-02T14:33:59.000Z</time>
      </trkpt>
      <trkpt lat="45.83435" lon="4.72835">
        <ele>329.47928</ele>
        <time>2023-07-02T14:34:00.000Z</time>
      </trkpt>
      <trkpt lat="45.83434" lon="4.72841">
        <ele>329.70187</ele>
        <time>2023-07-02T14:34:01.000Z</time>
      </trkpt>
      <trkpt lat="45.83435" lon="4.72849">
        <ele>330.00165</ele>
        <time>2023-07-02T14:34:02.000Z</time>
      </trkpt>
      <trkpt lat="45.83438" lon="4.72854">
        <ele>330.50369</ele>
        <time>2023-07-02T14:34:03.000Z</time>
      </trkpt>
      <trkpt lat="45.8344" lon="4.7286">
        <ele>330.5148</ele>
        <time>2023-07-02T14:34:04.000Z</time>
      </trkpt>
      <trkpt lat="45.8344" lon="4.72865">
        <ele>330.61139</ele>
        <time>2023-07-02T14:34:05.000Z</time>
      </trkpt>
      <trkpt lat="45.83441" lon="4.72873">
        <ele>330.61505</ele>
        <time>2023-07-02T14:34:06.000Z</time>
      </trkpt>
      <trkpt lat="45.83441" lon="4.72876">
        <ele>330.57147</ele>
        <time>2023-07-02T14:34:07.000Z</time>
      </trkpt>
      <trkpt lat="45.83441" lon="4.72882">
        <ele>330.34442</ele>
        <time>2023-07-02T14:34:08.000Z</time>
      </trkpt>
      <trkpt lat="45.83443" lon="4.72887">
        <ele>330.07806</ele>
        <time>2023-07-02T14:34:09.000Z</time>
      </trkpt>
      <trkpt lat="45.83444" lon="4.72892">
        <ele>329.88312</ele>
        <time>2023-07-02T14:34:10.000Z</time>
      </trkpt>
      <trkpt lat="45.83444" lon="4.72897">
        <ele>329.45303</ele>
        <time>2023-07-02T14:34:11.000Z</time>
      </trkpt>
      <trkpt lat="45.83444" lon="4.72903">
        <ele>329.32083</ele>
        <time>2023-07-02T14:34:12.000Z</time>
      </trkpt>
      <trkpt lat="45.83445" lon="4.72908">
        <ele>329.39941</ele>
        <time>2023-07-02T14:34:13.000Z</time>
      </trkpt>
      <trkpt lat="45.83446" lon="4.72914">
        <ele>329.48349</ele>
        <time>2023-07-02T14:34:14.000Z</time>
      </trkpt>
      <trkpt lat="45.83448" lon="4.72919">
        <ele>329.60321</ele>
        <time>2023-07-02T14:34:15.000Z</time>
      </trkpt>
      <trkpt lat="45.83449" lon="4.72924">
        <ele>329.74484</ele>
        <time>2023-07-02T14:34:16.000Z</time>
      </trkpt>
      <trkpt lat="45.8345" lon="4.72928">
        <ele>329.89554</ele>
        <time>2023-07-02T14:34:17.000Z</time>
      </trkpt>
      <trkpt lat="45.83452" lon="4.72933">
        <ele>330.04987</ele>
        <time>2023-07-02T14:34:18.000Z</time>
      </trkpt>
      <trkpt lat="45.83454" lon="4.72938">
        <ele>329.9873</ele>
        <time>2023-07-02T14:34:19.000Z</time>
      </trkpt>
      <trkpt lat="45.83456" lon="4.72942">
        <ele>329.98184</ele>
        <time>2023-07-02T14:34:20.000Z</time>
      </trkpt>
      <trkpt lat="45.83457" lon="4.72947">
        <ele>330.08514</ele>
        <time>2023-07-02T14:34:21.000Z</time>
      </trkpt>
      <trkpt lat="45.83459" lon="4.72951">
        <ele>330.13809</ele>
        <time>2023-07-02T14:34:22.000Z</time>
      </trkpt>
      <trkpt lat="45.8346" lon="4.72956">
        <ele>329.95978</ele>
        <time>2023-07-02T14:34:23.000Z</time>
      </trkpt>
      <trkpt lat="45.83462" lon="4.7296">
        <ele>330.32581</ele>
        <time>2023-07-02T14:34:24.000Z</time>
      </trkpt>
      <trkpt lat="45.83464" lon="4.72965">
        <ele>330.61963</ele>
        <time>2023-07-02T14:34:25.000Z</time>
      </trkpt>
      <trkpt lat="45.83465" lon="4.72968">
        <ele>331.01779</ele>
        <time>2023-07-02T14:34:26.000Z</time>
      </trkpt>
      <trkpt lat="45.83467" lon="4.72971">
        <ele>331.46112</ele>
        <time>2023-07-02T14:34:27.000Z</time>
      </trkpt>
      <trkpt lat="45.8347" lon="4.72975">
        <ele>331.91791</ele>
        <time>2023-07-02T14:34:28.000Z</time>
      </trkpt>
      <trkpt lat="45.83471" lon="4.72979">
        <ele>332.37534</ele>
        <time>2023-07-02T14:34:29.000Z</time>
      </trkpt>
      <trkpt lat="45.83473" lon="4.72984">
        <ele>332.74576</ele>
        <time>2023-07-02T14:34:30.000Z</time>
      </trkpt>
      <trkpt lat="45.83475" lon="4.72989">
        <ele>333.15558</ele>
        <time>2023-07-02T14:34:31.000Z</time>
      </trkpt>
      <trkpt lat="45.83476" lon="4.72994">
        <ele>333.67987</ele>
        <time>2023-07-02T14:34:32.000Z</time>
      </trkpt>
      <trkpt lat="45.83477" lon="4.73">
        <ele>333.93927</ele>
        <time>2023-07-02T14:34:33.000Z</time>
      </trkpt>
      <trkpt lat="45.83479" lon="4.73005">
        <ele>334.19281</ele>
        <time>2023-07-02T14:34:34.000Z</time>
      </trkpt>
      <trkpt lat="45.8348" lon="4.73011">
        <ele>334.45404</ele>
        <time>2023-07-02T14:34:35.000Z</time>
      </trkpt>
      <trkpt lat="45.83482" lon="4.73016">
        <ele>334.71826</ele>
        <time>2023-07-02T14:34:36.000Z</time>
      </trkpt>
      <trkpt lat="45.83484" lon="4.73021">
        <ele>334.98132</ele>
        <time>2023-07-02T14:34:37.000Z</time>
      </trkpt>
      <trkpt lat="45.83486" lon="4.73026">
        <ele>335.20352</ele>
        <time>2023-07-02T14:34:38.000Z</time>
      </trkpt>
      <trkpt lat="45.83488" lon="4.73029">
        <ele>335.41162</ele>
        <time>2023-07-02T14:34:39.000Z</time>
      </trkpt>
      <trkpt lat="45.83491" lon="4.73033">
        <ele>335.59332</ele>
        <time>2023-07-02T14:34:40.000Z</time>
      </trkpt>
      <trkpt lat="45.83493" lon="4.73037">
        <ele>335.68683</ele>
        <time>2023-07-02T14:34:41.000Z</time>
      </trkpt>
      <trkpt lat="45.83496" lon="4.7304">
        <ele>335.76123</ele>
        <time>2023-07-02T14:34:42.000Z</time>
      </trkpt>
      <trkpt lat="45.83499" lon="4.73044">
        <ele>335.82452</ele>
        <time>2023-07-02T14:34:43.000Z</time>
      </trkpt>
      <trkpt lat="45.83502" lon="4.73047">
        <ele>335.88617</ele>
        <time>2023-07-02T14:34:44.000Z</time>
      </trkpt>
      <trkpt lat="45.83506" lon="4.7305">
        <ele>335.93848</ele>
        <time>2023-07-02T14:34:45.000Z</time>
      </trkpt>
      <trkpt lat="45.83509" lon="4.73052">
        <ele>335.97809</ele>
        <time>2023-07-02T14:34:46.000Z</time>
      </trkpt>
      <trkpt lat="45.83512" lon="4.73055">
        <ele>336.01968</ele>
        <time>2023-07-02T14:34:47.000Z</time>
      </trkpt>
      <trkpt lat="45.83515" lon="4.73058">
        <ele>336.05927</ele>
        <time>2023-07-02T14:34:48.000Z</time>
      </trkpt>
      <trkpt lat="45.83518" lon="4.73061">
        <ele>336.10706</ele>
        <time>2023-07-02T14:34:49.000Z</time>
      </trkpt>
      <trkpt lat="45.83521" lon="4.73063">
        <ele>336.18524</ele>
        <time>2023-07-02T14:34:50.000Z</time>
      </trkpt>
      <trkpt lat="45.83524" lon="4.73065">
        <ele>336.22845</ele>
        <time>2023-07-02T14:34:51.000Z</time>
      </trkpt>
      <trkpt lat="45.83527" lon="4.73066">
        <ele>336.25394</ele>
        <time>2023-07-02T14:34:52.000Z</time>
      </trkpt>
      <trkpt lat="45.8353" lon="4.73068">
        <ele>336.27402</ele>
        <time>2023-07-02T14:34:53.000Z</time>
      </trkpt>
      <trkpt lat="45.83534" lon="4.73068">
        <ele>336.31735</ele>
        <time>2023-07-02T14:34:54.000Z</time>
      </trkpt>
      <trkpt lat="45.83537" lon="4.73068">
        <ele>336.37595</ele>
        <time>2023-07-02T14:34:55.000Z</time>
      </trkpt>
      <trkpt lat="45.83541" lon="4.73068">
        <ele>336.19284</ele>
        <time>2023-07-02T14:34:56.000Z</time>
      </trkpt>
      <trkpt lat="45.83544" lon="4.73068">
        <ele>336.1286</ele>
        <time>2023-07-02T14:34:57.000Z</time>
      </trkpt>
      <trkpt lat="45.83547" lon="4.73067">
        <ele>336.08829</ele>
        <time>2023-07-02T14:34:58.000Z</time>
      </trkpt>
      <trkpt lat="45.8355" lon="4.73067">
        <ele>336.06039</ele>
        <time>2023-07-02T14:34:59.000Z</time>
      </trkpt>
      <trkpt lat="45.83553" lon="4.73066">
        <ele>335.99323</ele>
        <time>2023-07-02T14:35:00.000Z</time>
      </trkpt>
      <trkpt lat="45.83557" lon="4.73065">
        <ele>335.98834</ele>
        <time>2023-07-02T14:35:01.000Z</time>
      </trkpt>
      <trkpt lat="45.8356" lon="4.73064">
        <ele>335.98303</ele>
        <time>2023-07-02T14:35:02.000Z</time>
      </trkpt>
      <trkpt lat="45.83564" lon="4.73062">
        <ele>336.02673</ele>
        <time>2023-07-02T14:35:03.000Z</time>
      </trkpt>
      <trkpt lat="45.83567" lon="4.73062">
        <ele>336.26315</ele>
        <time>2023-07-02T14:35:04.000Z</time>
      </trkpt>
      <trkpt lat="45.83571" lon="4.73061">
        <ele>336.59723</ele>
        <time>2023-07-02T14:35:05.000Z</time>
      </trkpt>
      <trkpt lat="45.83574" lon="4.7306">
        <ele>336.68256</ele>
        <time>2023-07-02T14:35:06.000Z</time>
      </trkpt>
      <trkpt lat="45.83578" lon="4.7306">
        <ele>336.83148</ele>
        <time>2023-07-02T14:35:07.000Z</time>
      </trkpt>
      <trkpt lat="45.83583" lon="4.73059">
        <ele>336.99646</ele>
        <time>2023-07-02T14:35:08.000Z</time>
      </trkpt>
      <trkpt lat="45.83587" lon="4.73058">
        <ele>337.18176</ele>
        <time>2023-07-02T14:35:09.000Z</time>
      </trkpt>
      <trkpt lat="45.8359" lon="4.73056">
        <ele>337.35965</ele>
        <time>2023-07-02T14:35:10.000Z</time>
      </trkpt>
      <trkpt lat="45.83593" lon="4.73053">
        <ele>337.55994</ele>
        <time>2023-07-02T14:35:11.000Z</time>
      </trkpt>
      <trkpt lat="45.83597" lon="4.73051">
        <ele>337.71564</ele>
        <time>2023-07-02T14:35:12.000Z</time>
      </trkpt>
      <trkpt lat="45.836" lon="4.73048">
        <ele>337.91229</ele>
        <time>2023-07-02T14:35:13.000Z</time>
      </trkpt>
      <trkpt lat="45.83604" lon="4.73046">
        <ele>338.14685</ele>
        <time>2023-07-02T14:35:14.000Z</time>
      </trkpt>
      <trkpt lat="45.83608" lon="4.73043">
        <ele>338.40402</ele>
        <time>2023-07-02T14:35:15.000Z</time>
      </trkpt>
      <trkpt lat="45.83612" lon="4.73041">
        <ele>338.87903</ele>
        <time>2023-07-02T14:35:16.000Z</time>
      </trkpt>
      <trkpt lat="45.83616" lon="4.7304">
        <ele>339.21393</ele>
        <time>2023-07-02T14:35:17.000Z</time>
      </trkpt>
      <trkpt lat="45.8362" lon="4.73038">
        <ele>339.54642</ele>
        <time>2023-07-02T14:35:18.000Z</time>
      </trkpt>
      <trkpt lat="45.83624" lon="4.73035">
        <ele>339.93881</ele>
        <time>2023-07-02T14:35:19.000Z</time>
      </trkpt>
      <trkpt lat="45.83627" lon="4.73031">
        <ele>340.31015</ele>
        <time>2023-07-02T14:35:20.000Z</time>
      </trkpt>
      <trkpt lat="45.83634" lon="4.73027">
        <ele>340.70746</ele>
        <time>2023-07-02T14:35:21.000Z</time>
      </trkpt>
      <trkpt lat="45.83641" lon="4.73027">
        <ele>341.13971</ele>
        <time>2023-07-02T14:35:22.000Z</time>
      </trkpt>
      <trkpt lat="45.83647" lon="4.73025">
        <ele>341.17981</ele>
        <time>2023-07-02T14:35:23.000Z</time>
      </trkpt>
      <trkpt lat="45.83653" lon="4.73022">
        <ele>341.06934</ele>
        <time>2023-07-02T14:35:24.000Z</time>
      </trkpt>
      <trkpt lat="45.83661" lon="4.7302">
        <ele>340.9043</ele>
        <time>2023-07-02T14:35:25.000Z</time>
      </trkpt>
      <trkpt lat="45.83671" lon="4.73022">
        <ele>340.97006</ele>
        <time>2023-07-02T14:35:26.000Z</time>
      </trkpt>
      <trkpt lat="45.83679" lon="4.73021">
        <ele>340.92712</ele>
        <time>2023-07-02T14:35:27.000Z</time>
      </trkpt>
      <trkpt lat="45.83688" lon="4.7302">
        <ele>340.81903</ele>
        <time>2023-07-02T14:35:28.000Z</time>
      </trkpt>
      <trkpt lat="45.83694" lon="4.73018">
        <ele>340.685</ele>
        <time>2023-07-02T14:35:29.000Z</time>
      </trkpt>
      <trkpt lat="45.83704" lon="4.73018">
        <ele>340.51984</ele>
        <time>2023-07-02T14:35:30.000Z</time>
      </trkpt>
      <trkpt lat="45.83715" lon="4.73017">
        <ele>340.25107</ele>
        <time>2023-07-02T14:35:31.000Z</time>
      </trkpt>
      <trkpt lat="45.83722" lon="4.73015">
        <ele>339.90289</ele>
        <time>2023-07-02T14:35:32.000Z</time>
      </trkpt>
      <trkpt lat="45.8373" lon="4.73015">
        <ele>339.42157</ele>
        <time>2023-07-02T14:35:33.000Z</time>
      </trkpt>
      <trkpt lat="45.83735" lon="4.73017">
        <ele>338.77417</ele>
        <time>2023-07-02T14:35:34.000Z</time>
      </trkpt>
      <trkpt lat="45.83741" lon="4.73021">
        <ele>338.06073</ele>
        <time>2023-07-02T14:35:35.000Z</time>
      </trkpt>
      <trkpt lat="45.83745" lon="4.73032">
        <ele>337.3555</ele>
        <time>2023-07-02T14:35:36.000Z</time>
      </trkpt>
      <trkpt lat="45.83748" lon="4.73041">
        <ele>336.67462</ele>
        <time>2023-07-02T14:35:37.000Z</time>
      </trkpt>
      <trkpt lat="45.83749" lon="4.73047">
        <ele>335.93271</ele>
        <time>2023-07-02T14:35:38.000Z</time>
      </trkpt>
      <trkpt lat="45.83751" lon="4.73054">
        <ele>335.26239</ele>
        <time>2023-07-02T14:35:39.000Z</time>
      </trkpt>
      <trkpt lat="45.8375" lon="4.73061">
        <ele>334.61371</ele>
        <time>2023-07-02T14:35:40.000Z</time>
      </trkpt>
      <trkpt lat="45.83749" lon="4.73067">
        <ele>334.06894</ele>
        <time>2023-07-02T14:35:41.000Z</time>
      </trkpt>
      <trkpt lat="45.83748" lon="4.73073">
        <ele>333.54742</ele>
        <time>2023-07-02T14:35:42.000Z</time>
      </trkpt>
      <trkpt lat="45.8375" lon="4.73078">
        <ele>333.05145</ele>
        <time>2023-07-02T14:35:43.000Z</time>
      </trkpt>
      <trkpt lat="45.83752" lon="4.73084">
        <ele>332.68411</ele>
        <time>2023-07-02T14:35:44.000Z</time>
      </trkpt>
      <trkpt lat="45.83755" lon="4.73089">
        <ele>332.25116</ele>
        <time>2023-07-02T14:35:45.000Z</time>
      </trkpt>
      <trkpt lat="45.83757" lon="4.73094">
        <ele>331.85913</ele>
        <time>2023-07-02T14:35:46.000Z</time>
      </trkpt>
      <trkpt lat="45.83759" lon="4.73098">
        <ele>331.56793</ele>
        <time>2023-07-02T14:35:47.000Z</time>
      </trkpt>
      <trkpt lat="45.83761" lon="4.73104">
        <ele>331.30923</ele>
        <time>2023-07-02T14:35:48.000Z</time>
      </trkpt>
      <trkpt lat="45.83763" lon="4.73109">
        <ele>331.05902</ele>
        <time>2023-07-02T14:35:49.000Z</time>
      </trkpt>
      <trkpt lat="45.83765" lon="4.73115">
        <ele>330.85016</ele>
        <time>2023-07-02T14:35:50.000Z</time>
      </trkpt>
      <trkpt lat="45.83767" lon="4.7312">
        <ele>330.6936</ele>
        <time>2023-07-02T14:35:51.000Z</time>
      </trkpt>
      <trkpt lat="45.83769" lon="4.73125">
        <ele>330.63843</ele>
        <time>2023-07-02T14:35:52.000Z</time>
      </trkpt>
      <trkpt lat="45.83771" lon="4.73131">
        <ele>330.60956</ele>
        <time>2023-07-02T14:35:53.000Z</time>
      </trkpt>
      <trkpt lat="45.83773" lon="4.73136">
        <ele>330.91171</ele>
        <time>2023-07-02T14:35:54.000Z</time>
      </trkpt>
      <trkpt lat="45.83774" lon="4.7314">
        <ele>331.21567</ele>
        <time>2023-07-02T14:35:55.000Z</time>
      </trkpt>
      <trkpt lat="45.83776" lon="4.73145">
        <ele>331.54053</ele>
        <time>2023-07-02T14:35:56.000Z</time>
      </trkpt>
      <trkpt lat="45.83777" lon="4.7315">
        <ele>332.07562</ele>
        <time>2023-07-02T14:35:57.000Z</time>
      </trkpt>
      <trkpt lat="45.83779" lon="4.73155">
        <ele>332.84357</ele>
        <time>2023-07-02T14:35:58.000Z</time>
      </trkpt>
      <trkpt lat="45.83779" lon="4.73159">
        <ele>333.05292</ele>
        <time>2023-07-02T14:35:59.000Z</time>
      </trkpt>
      <trkpt lat="45.8378" lon="4.73165">
        <ele>333.43472</ele>
        <time>2023-07-02T14:36:00.000Z</time>
      </trkpt>
      <trkpt lat="45.83781" lon="4.7317">
        <ele>333.71881</ele>
        <time>2023-07-02T14:36:01.000Z</time>
      </trkpt>
      <trkpt lat="45.83781" lon="4.73176">
        <ele>333.95197</ele>
        <time>2023-07-02T14:36:02.000Z</time>
      </trkpt>
      <trkpt lat="45.83781" lon="4.73181">
        <ele>334.56903</ele>
        <time>2023-07-02T14:36:03.000Z</time>
      </trkpt>
      <trkpt lat="45.8378" lon="4.73186">
        <ele>335.00363</ele>
        <time>2023-07-02T14:36:04.000Z</time>
      </trkpt>
      <trkpt lat="45.83777" lon="4.7319">
        <ele>335.68011</ele>
        <time>2023-07-02T14:36:05.000Z</time>
      </trkpt>
      <trkpt lat="45.83774" lon="4.73194">
        <ele>336.42102</ele>
        <time>2023-07-02T14:36:06.000Z</time>
      </trkpt>
      <trkpt lat="45.83771" lon="4.73197">
        <ele>337.21832</ele>
        <time>2023-07-02T14:36:07.000Z</time>
      </trkpt>
      <trkpt lat="45.83768" lon="4.73201">
        <ele>337.57516</ele>
        <time>2023-07-02T14:36:08.000Z</time>
      </trkpt>
      <trkpt lat="45.83764" lon="4.73204">
        <ele>337.95966</ele>
        <time>2023-07-02T14:36:09.000Z</time>
      </trkpt>
      <trkpt lat="45.83761" lon="4.73208">
        <ele>338.31879</ele>
        <time>2023-07-02T14:36:10.000Z</time>
      </trkpt>
      <trkpt lat="45.83757" lon="4.73211">
        <ele>338.72845</ele>
        <time>2023-07-02T14:36:11.000Z</time>
      </trkpt>
      <trkpt lat="45.83753" lon="4.73215">
        <ele>339.17392</ele>
        <time>2023-07-02T14:36:12.000Z</time>
      </trkpt>
      <trkpt lat="45.8375" lon="4.73219">
        <ele>339.64679</ele>
        <time>2023-07-02T14:36:13.000Z</time>
      </trkpt>
      <trkpt lat="45.83746" lon="4.73222">
        <ele>339.88983</ele>
        <time>2023-07-02T14:36:14.000Z</time>
      </trkpt>
      <trkpt lat="45.83742" lon="4.73226">
        <ele>340.29523</ele>
        <time>2023-07-02T14:36:15.000Z</time>
      </trkpt>
      <trkpt lat="45.83739" lon="4.73229">
        <ele>340.6875</ele>
        <time>2023-07-02T14:36:16.000Z</time>
      </trkpt>
      <trkpt lat="45.83736" lon="4.73233">
        <ele>340.84158</ele>
        <time>2023-07-02T14:36:17.000Z</time>
      </trkpt>
      <trkpt lat="45.83733" lon="4.73236">
        <ele>340.77762</ele>
        <time>2023-07-02T14:36:18.000Z</time>
      </trkpt>
      <trkpt lat="45.8373" lon="4.73238">
        <ele>341.36053</ele>
        <time>2023-07-02T14:36:19.000Z</time>
      </trkpt>
      <trkpt lat="45.83727" lon="4.73241">
        <ele>341.79584</ele>
        <time>2023-07-02T14:36:20.000Z</time>
      </trkpt>
      <trkpt lat="45.83724" lon="4.73245">
        <ele>341.72565</ele>
        <time>2023-07-02T14:36:21.000Z</time>
      </trkpt>
      <trkpt lat="45.8372" lon="4.73248">
        <ele>341.68866</ele>
        <time>2023-07-02T14:36:22.000Z</time>
      </trkpt>
      <trkpt lat="45.83718" lon="4.73251">
        <ele>341.59125</ele>
        <time>2023-07-02T14:36:23.000Z</time>
      </trkpt>
      <trkpt lat="45.83715" lon="4.73254">
        <ele>341.44427</ele>
        <time>2023-07-02T14:36:24.000Z</time>
      </trkpt>
      <trkpt lat="45.83712" lon="4.73258">
        <ele>341.09906</ele>
        <time>2023-07-02T14:36:25.000Z</time>
      </trkpt>
      <trkpt lat="45.83708" lon="4.73262">
        <ele>340.6712</ele>
        <time>2023-07-02T14:36:26.000Z</time>
      </trkpt>
      <trkpt lat="45.83705" lon="4.73266">
        <ele>340.12701</ele>
        <time>2023-07-02T14:36:27.000Z</time>
      </trkpt>
      <trkpt lat="45.83701" lon="4.73271">
        <ele>340.08383</ele>
        <time>2023-07-02T14:36:28.000Z</time>
      </trkpt>
      <trkpt lat="45.83698" lon="4.73277">
        <ele>340.07535</ele>
        <time>2023-07-02T14:36:29.000Z</time>
      </trkpt>
      <trkpt lat="45.83695" lon="4.73281">
        <ele>340.03241</ele>
        <time>2023-07-02T14:36:30.000Z</time>
      </trkpt>
      <trkpt lat="45.83692" lon="4.73288">
        <ele>340.2785</ele>
        <time>2023-07-02T14:36:31.000Z</time>
      </trkpt>
      <trkpt lat="45.8369" lon="4.73292">
        <ele>340.3746</ele>
        <time>2023-07-02T14:36:32.000Z</time>
      </trkpt>
      <trkpt lat="45.83688" lon="4.73297">
        <ele>340.5567</ele>
        <time>2023-07-02T14:36:33.000Z</time>
      </trkpt>
      <trkpt lat="45.83684" lon="4.733">
        <ele>340.72324</ele>
        <time>2023-07-02T14:36:34.000Z</time>
      </trkpt>
      <trkpt lat="45.83681" lon="4.73306">
        <ele>340.75079</ele>
        <time>2023-07-02T14:36:35.000Z</time>
      </trkpt>
      <trkpt lat="45.83678" lon="4.73311">
        <ele>340.67639</ele>
        <time>2023-07-02T14:36:36.000Z</time>
      </trkpt>
      <trkpt lat="45.83675" lon="4.73316">
        <ele>340.63214</ele>
        <time>2023-07-02T14:36:37.000Z</time>
      </trkpt>
      <trkpt lat="45.83673" lon="4.73322">
        <ele>340.79059</ele>
        <time>2023-07-02T14:36:38.000Z</time>
      </trkpt>
      <trkpt lat="45.8367" lon="4.73328">
        <ele>340.92767</ele>
        <time>2023-07-02T14:36:39.000Z</time>
      </trkpt>
      <trkpt lat="45.83667" lon="4.73334">
        <ele>341.24573</ele>
        <time>2023-07-02T14:36:40.000Z</time>
      </trkpt>
      <trkpt lat="45.83664" lon="4.73338">
        <ele>341.56244</ele>
        <time>2023-07-02T14:36:41.000Z</time>
      </trkpt>
      <trkpt lat="45.83662" lon="4.73344">
        <ele>341.91965</ele>
        <time>2023-07-02T14:36:42.000Z</time>
      </trkpt>
      <trkpt lat="45.83659" lon="4.73348">
        <ele>342.3028</ele>
        <time>2023-07-02T14:36:43.000Z</time>
      </trkpt>
      <trkpt lat="45.83657" lon="4.73354">
        <ele>342.72046</ele>
        <time>2023-07-02T14:36:44.000Z</time>
      </trkpt>
      <trkpt lat="45.83656" lon="4.73359">
        <ele>343.34586</ele>
        <time>2023-07-02T14:36:45.000Z</time>
      </trkpt>
      <trkpt lat="45.83655" lon="4.73367">
        <ele>344.13522</ele>
        <time>2023-07-02T14:36:46.000Z</time>
      </trkpt>
      <trkpt lat="45.83654" lon="4.73375">
        <ele>344.95212</ele>
        <time>2023-07-02T14:36:47.000Z</time>
      </trkpt>
      <trkpt lat="45.83653" lon="4.73382">
        <ele>345.27158</ele>
        <time>2023-07-02T14:36:48.000Z</time>
      </trkpt>
      <trkpt lat="45.83652" lon="4.73388">
        <ele>345.56696</ele>
        <time>2023-07-02T14:36:49.000Z</time>
      </trkpt>
      <trkpt lat="45.83652" lon="4.73395">
        <ele>345.86685</ele>
        <time>2023-07-02T14:36:50.000Z</time>
      </trkpt>
      <trkpt lat="45.83653" lon="4.73401">
        <ele>345.72256</ele>
        <time>2023-07-02T14:36:51.000Z</time>
      </trkpt>
      <trkpt lat="45.83655" lon="4.73409">
        <ele>345.72772</ele>
        <time>2023-07-02T14:36:52.000Z</time>
      </trkpt>
      <trkpt lat="45.83656" lon="4.73415">
        <ele>345.68634</ele>
        <time>2023-07-02T14:36:53.000Z</time>
      </trkpt>
      <trkpt lat="45.83657" lon="4.73422">
        <ele>345.70508</ele>
        <time>2023-07-02T14:36:54.000Z</time>
      </trkpt>
      <trkpt lat="45.83658" lon="4.73428">
        <ele>345.76605</ele>
        <time>2023-07-02T14:36:55.000Z</time>
      </trkpt>
      <trkpt lat="45.83659" lon="4.73434">
        <ele>345.97052</ele>
        <time>2023-07-02T14:36:56.000Z</time>
      </trkpt>
      <trkpt lat="45.83661" lon="4.73442">
        <ele>346.2088</ele>
        <time>2023-07-02T14:36:57.000Z</time>
      </trkpt>
      <trkpt lat="45.83662" lon="4.73449">
        <ele>346.29605</ele>
        <time>2023-07-02T14:36:58.000Z</time>
      </trkpt>
      <trkpt lat="45.83664" lon="4.73456">
        <ele>346.14816</ele>
        <time>2023-07-02T14:36:59.000Z</time>
      </trkpt>
      <trkpt lat="45.83665" lon="4.73461">
        <ele>345.99365</ele>
        <time>2023-07-02T14:37:00.000Z</time>
      </trkpt>
      <trkpt lat="45.83667" lon="4.73467">
        <ele>346.33463</ele>
        <time>2023-07-02T14:37:01.000Z</time>
      </trkpt>
      <trkpt lat="45.8367" lon="4.73474">
        <ele>346.57193</ele>
        <time>2023-07-02T14:37:02.000Z</time>
      </trkpt>
      <trkpt lat="45.83673" lon="4.7348">
        <ele>346.82181</ele>
        <time>2023-07-02T14:37:03.000Z</time>
      </trkpt>
      <trkpt lat="45.83675" lon="4.73484">
        <ele>347.07776</ele>
        <time>2023-07-02T14:37:04.000Z</time>
      </trkpt>
      <trkpt lat="45.83678" lon="4.7349">
        <ele>347.10513</ele>
        <time>2023-07-02T14:37:05.000Z</time>
      </trkpt>
      <trkpt lat="45.83681" lon="4.73495">
        <ele>346.9624</ele>
        <time>2023-07-02T14:37:06.000Z</time>
      </trkpt>
      <trkpt lat="45.83684" lon="4.73501">
        <ele>346.78937</ele>
        <time>2023-07-02T14:37:07.000Z</time>
      </trkpt>
      <trkpt lat="45.83688" lon="4.73506">
        <ele>347.28262</ele>
        <time>2023-07-02T14:37:08.000Z</time>
      </trkpt>
      <trkpt lat="45.8369" lon="4.73512">
        <ele>347.79654</ele>
        <time>2023-07-02T14:37:09.000Z</time>
      </trkpt>
      <trkpt lat="45.83693" lon="4.73519">
        <ele>348.36612</ele>
        <time>2023-07-02T14:37:10.000Z</time>
      </trkpt>
      <trkpt lat="45.83695" lon="4.73524">
        <ele>349.07941</ele>
        <time>2023-07-02T14:37:11.000Z</time>
      </trkpt>
      <trkpt lat="45.83697" lon="4.7353">
        <ele>349.7984</ele>
        <time>2023-07-02T14:37:12.000Z</time>
      </trkpt>
      <trkpt lat="45.83699" lon="4.73537">
        <ele>350.59018</ele>
        <time>2023-07-02T14:37:13.000Z</time>
      </trkpt>
      <trkpt lat="45.83701" lon="4.73543">
        <ele>350.9118</ele>
        <time>2023-07-02T14:37:14.000Z</time>
      </trkpt>
      <trkpt lat="45.83703" lon="4.7355">
        <ele>351.25458</ele>
        <time>2023-07-02T14:37:15.000Z</time>
      </trkpt>
      <trkpt lat="45.83704" lon="4.73557">
        <ele>351.57391</ele>
        <time>2023-07-02T14:37:16.000Z</time>
      </trkpt>
      <trkpt lat="45.83706" lon="4.73563">
        <ele>351.84683</ele>
        <time>2023-07-02T14:37:17.000Z</time>
      </trkpt>
      <trkpt lat="45.83708" lon="4.7357">
        <ele>352.11002</ele>
        <time>2023-07-02T14:37:18.000Z</time>
      </trkpt>
      <trkpt lat="45.83708" lon="4.73577">
        <ele>352.23666</ele>
        <time>2023-07-02T14:37:19.000Z</time>
      </trkpt>
      <trkpt lat="45.83707" lon="4.73583">
        <ele>352.16864</ele>
        <time>2023-07-02T14:37:20.000Z</time>
      </trkpt>
      <trkpt lat="45.83704" lon="4.73588">
        <ele>352.10739</ele>
        <time>2023-07-02T14:37:21.000Z</time>
      </trkpt>
      <trkpt lat="45.837" lon="4.73592">
        <ele>352.05832</ele>
        <time>2023-07-02T14:37:22.000Z</time>
      </trkpt>
      <trkpt lat="45.83697" lon="4.73594">
        <ele>351.97018</ele>
        <time>2023-07-02T14:37:23.000Z</time>
      </trkpt>
      <trkpt lat="45.83692" lon="4.73597">
        <ele>351.82397</ele>
        <time>2023-07-02T14:37:24.000Z</time>
      </trkpt>
      <trkpt lat="45.83687" lon="4.73599">
        <ele>351.66489</ele>
        <time>2023-07-02T14:37:25.000Z</time>
      </trkpt>
      <trkpt lat="45.83684" lon="4.73601">
        <ele>351.48819</ele>
        <time>2023-07-02T14:37:26.000Z</time>
      </trkpt>
      <trkpt lat="45.83681" lon="4.73603">
        <ele>351.30081</ele>
        <time>2023-07-02T14:37:27.000Z</time>
      </trkpt>
      <trkpt lat="45.83677" lon="4.73605">
        <ele>350.90213</ele>
        <time>2023-07-02T14:37:28.000Z</time>
      </trkpt>
      <trkpt lat="45.83673" lon="4.73604">
        <ele>350.44855</ele>
        <time>2023-07-02T14:37:29.000Z</time>
      </trkpt>
      <trkpt lat="45.8367" lon="4.73605">
        <ele>350.03436</ele>
        <time>2023-07-02T14:37:30.000Z</time>
      </trkpt>
      <trkpt lat="45.83666" lon="4.73606">
        <ele>349.59238</ele>
        <time>2023-07-02T14:37:31.000Z</time>
      </trkpt>
      <trkpt lat="45.83662" lon="4.73608">
        <ele>349.31845</ele>
        <time>2023-07-02T14:37:32.000Z</time>
      </trkpt>
      <trkpt lat="45.83657" lon="4.7361">
        <ele>349.09253</ele>
        <time>2023-07-02T14:37:33.000Z</time>
      </trkpt>
      <trkpt lat="45.83653" lon="4.73611">
        <ele>349.01062</ele>
        <time>2023-07-02T14:37:34.000Z</time>
      </trkpt>
      <trkpt lat="45.8365" lon="4.73613">
        <ele>348.9046</ele>
        <time>2023-07-02T14:37:35.000Z</time>
      </trkpt>
      <trkpt lat="45.83646" lon="4.73615">
        <ele>348.79385</ele>
        <time>2023-07-02T14:37:36.000Z</time>
      </trkpt>
      <trkpt lat="45.83642" lon="4.73617">
        <ele>348.64758</ele>
        <time>2023-07-02T14:37:37.000Z</time>
      </trkpt>
      <trkpt lat="45.83638" lon="4.73619">
        <ele>348.52756</ele>
        <time>2023-07-02T14:37:38.000Z</time>
      </trkpt>
      <trkpt lat="45.83633" lon="4.7362">
        <ele>348.66113</ele>
        <time>2023-07-02T14:37:39.000Z</time>
      </trkpt>
      <trkpt lat="45.83627" lon="4.7362">
        <ele>348.86807</ele>
        <time>2023-07-02T14:37:40.000Z</time>
      </trkpt>
      <trkpt lat="45.83623" lon="4.73622">
        <ele>349.05862</ele>
        <time>2023-07-02T14:37:41.000Z</time>
      </trkpt>
      <trkpt lat="45.83618" lon="4.73625">
        <ele>349.24521</ele>
        <time>2023-07-02T14:37:42.000Z</time>
      </trkpt>
      <trkpt lat="45.83613" lon="4.73628">
        <ele>349.56439</ele>
        <time>2023-07-02T14:37:43.000Z</time>
      </trkpt>
      <trkpt lat="45.83609" lon="4.73631">
        <ele>349.60999</ele>
        <time>2023-07-02T14:37:44.000Z</time>
      </trkpt>
      <trkpt lat="45.83604" lon="4.73632">
        <ele>349.70313</ele>
        <time>2023-07-02T14:37:45.000Z</time>
      </trkpt>
      <trkpt lat="45.83599" lon="4.73633">
        <ele>349.79437</ele>
        <time>2023-07-02T14:37:46.000Z</time>
      </trkpt>
      <trkpt lat="45.83595" lon="4.73636">
        <ele>349.89545</ele>
        <time>2023-07-02T14:37:47.000Z</time>
      </trkpt>
      <trkpt lat="45.83589" lon="4.73637">
        <ele>349.94745</ele>
        <time>2023-07-02T14:37:48.000Z</time>
      </trkpt>
      <trkpt lat="45.83585" lon="4.7364">
        <ele>349.96063</ele>
        <time>2023-07-02T14:37:49.000Z</time>
      </trkpt>
      <trkpt lat="45.83579" lon="4.73643">
        <ele>349.92502</ele>
        <time>2023-07-02T14:37:50.000Z</time>
      </trkpt>
      <trkpt lat="45.83574" lon="4.73647">
        <ele>349.94348</ele>
        <time>2023-07-02T14:37:51.000Z</time>
      </trkpt>
      <trkpt lat="45.8357" lon="4.73651">
        <ele>349.78812</ele>
        <time>2023-07-02T14:37:52.000Z</time>
      </trkpt>
      <trkpt lat="45.83565" lon="4.73653">
        <ele>349.50854</ele>
        <time>2023-07-02T14:37:53.000Z</time>
      </trkpt>
      <trkpt lat="45.83561" lon="4.73659">
        <ele>349.50909</ele>
        <time>2023-07-02T14:37:54.000Z</time>
      </trkpt>
      <trkpt lat="45.83557" lon="4.73665">
        <ele>349.45029</ele>
        <time>2023-07-02T14:37:55.000Z</time>
      </trkpt>
      <trkpt lat="45.83552" lon="4.73669">
        <ele>349.3616</ele>
        <time>2023-07-02T14:37:56.000Z</time>
      </trkpt>
      <trkpt lat="45.83549" lon="4.73672">
        <ele>349.31427</ele>
        <time>2023-07-02T14:37:57.000Z</time>
      </trkpt>
      <trkpt lat="45.83546" lon="4.73678">
        <ele>349.21844</ele>
        <time>2023-07-02T14:37:58.000Z</time>
      </trkpt>
      <trkpt lat="45.83542" lon="4.73683">
        <ele>349.20377</ele>
        <time>2023-07-02T14:37:59.000Z</time>
      </trkpt>
      <trkpt lat="45.83537" lon="4.73689">
        <ele>349.19275</ele>
        <time>2023-07-02T14:38:00.000Z</time>
      </trkpt>
      <trkpt lat="45.83532" lon="4.73695">
        <ele>349.23407</ele>
        <time>2023-07-02T14:38:01.000Z</time>
      </trkpt>
      <trkpt lat="45.83529" lon="4.73698">
        <ele>349.30923</ele>
        <time>2023-07-02T14:38:02.000Z</time>
      </trkpt>
      <trkpt lat="45.83525" lon="4.73703">
        <ele>349.33313</ele>
        <time>2023-07-02T14:38:03.000Z</time>
      </trkpt>
      <trkpt lat="45.8352" lon="4.73705">
        <ele>349.32086</ele>
        <time>2023-07-02T14:38:04.000Z</time>
      </trkpt>
      <trkpt lat="45.83515" lon="4.73709">
        <ele>349.30835</ele>
        <time>2023-07-02T14:38:05.000Z</time>
      </trkpt>
      <trkpt lat="45.8351" lon="4.73711">
        <ele>349.31964</ele>
        <time>2023-07-02T14:38:06.000Z</time>
      </trkpt>
      <trkpt lat="45.83505" lon="4.73714">
        <ele>349.33847</ele>
        <time>2023-07-02T14:38:07.000Z</time>
      </trkpt>
      <trkpt lat="45.83501" lon="4.73716">
        <ele>349.39462</ele>
        <time>2023-07-02T14:38:08.000Z</time>
      </trkpt>
      <trkpt lat="45.83496" lon="4.73718">
        <ele>349.57446</ele>
        <time>2023-07-02T14:38:09.000Z</time>
      </trkpt>
      <trkpt lat="45.83492" lon="4.73721">
        <ele>349.82257</ele>
        <time>2023-07-02T14:38:10.000Z</time>
      </trkpt>
      <trkpt lat="45.83487" lon="4.73721">
        <ele>350.09216</ele>
        <time>2023-07-02T14:38:11.000Z</time>
      </trkpt>
      <trkpt lat="45.83483" lon="4.73721">
        <ele>350.41534</ele>
        <time>2023-07-02T14:38:12.000Z</time>
      </trkpt>
      <trkpt lat="45.83477" lon="4.73721">
        <ele>350.45538</ele>
        <time>2023-07-02T14:38:13.000Z</time>
      </trkpt>
      <trkpt lat="45.83472" lon="4.73721">
        <ele>350.57373</ele>
        <time>2023-07-02T14:38:14.000Z</time>
      </trkpt>
      <trkpt lat="45.83467" lon="4.73722">
        <ele>350.70819</ele>
        <time>2023-07-02T14:38:15.000Z</time>
      </trkpt>
      <trkpt lat="45.83462" lon="4.73722">
        <ele>350.85794</ele>
        <time>2023-07-02T14:38:16.000Z</time>
      </trkpt>
      <trkpt lat="45.83455" lon="4.73722">
        <ele>351.03305</ele>
        <time>2023-07-02T14:38:17.000Z</time>
      </trkpt>
      <trkpt lat="45.8345" lon="4.73722">
        <ele>351.24576</ele>
        <time>2023-07-02T14:38:18.000Z</time>
      </trkpt>
      <trkpt lat="45.83445" lon="4.73722">
        <ele>351.29279</ele>
        <time>2023-07-02T14:38:19.000Z</time>
      </trkpt>
      <trkpt lat="45.8344" lon="4.73722">
        <ele>351.31207</ele>
        <time>2023-07-02T14:38:20.000Z</time>
      </trkpt>
      <trkpt lat="45.83435" lon="4.73722">
        <ele>351.24789</ele>
        <time>2023-07-02T14:38:21.000Z</time>
      </trkpt>
      <trkpt lat="45.8343" lon="4.73723">
        <ele>351.14667</ele>
        <time>2023-07-02T14:38:22.000Z</time>
      </trkpt>
      <trkpt lat="45.83426" lon="4.73724">
        <ele>351.20566</ele>
        <time>2023-07-02T14:38:23.000Z</time>
      </trkpt>
      <trkpt lat="45.83422" lon="4.73724">
        <ele>351.3154</ele>
        <time>2023-07-02T14:38:24.000Z</time>
      </trkpt>
      <trkpt lat="45.83416" lon="4.73724">
        <ele>351.41022</ele>
        <time>2023-07-02T14:38:25.000Z</time>
      </trkpt>
      <trkpt lat="45.83412" lon="4.73724">
        <ele>351.4696</ele>
        <time>2023-07-02T14:38:26.000Z</time>
      </trkpt>
      <trkpt lat="45.83406" lon="4.73725">
        <ele>351.50977</ele>
        <time>2023-07-02T14:38:27.000Z</time>
      </trkpt>
      <trkpt lat="45.83401" lon="4.73726">
        <ele>351.55298</ele>
        <time>2023-07-02T14:38:28.000Z</time>
      </trkpt>
      <trkpt lat="45.83396" lon="4.73727">
        <ele>351.4982</ele>
        <time>2023-07-02T14:38:29.000Z</time>
      </trkpt>
      <trkpt lat="45.83391" lon="4.73728">
        <ele>351.36874</ele>
        <time>2023-07-02T14:38:30.000Z</time>
      </trkpt>
      <trkpt lat="45.83386" lon="4.73728">
        <ele>351.17896</ele>
        <time>2023-07-02T14:38:31.000Z</time>
      </trkpt>
      <trkpt lat="45.83381" lon="4.73729">
        <ele>350.95844</ele>
        <time>2023-07-02T14:38:32.000Z</time>
      </trkpt>
      <trkpt lat="45.83375" lon="4.73729">
        <ele>351.0163</ele>
        <time>2023-07-02T14:38:33.000Z</time>
      </trkpt>
      <trkpt lat="45.8337" lon="4.73729">
        <ele>351.02167</ele>
        <time>2023-07-02T14:38:34.000Z</time>
      </trkpt>
      <trkpt lat="45.83365" lon="4.73729">
        <ele>351.05063</ele>
        <time>2023-07-02T14:38:35.000Z</time>
      </trkpt>
      <trkpt lat="45.83359" lon="4.7373">
        <ele>351.10269</ele>
        <time>2023-07-02T14:38:36.000Z</time>
      </trkpt>
      <trkpt lat="45.83355" lon="4.73729">
        <ele>351.12457</ele>
        <time>2023-07-02T14:38:37.000Z</time>
      </trkpt>
      <trkpt lat="45.8335" lon="4.7373">
        <ele>351.16403</ele>
        <time>2023-07-02T14:38:38.000Z</time>
      </trkpt>
      <trkpt lat="45.83346" lon="4.7373">
        <ele>351.17892</ele>
        <time>2023-07-02T14:38:39.000Z</time>
      </trkpt>
      <trkpt lat="45.8334" lon="4.7373">
        <ele>351.18536</ele>
        <time>2023-07-02T14:38:40.000Z</time>
      </trkpt>
      <trkpt lat="45.83335" lon="4.73731">
        <ele>351.15863</ele>
        <time>2023-07-02T14:38:41.000Z</time>
      </trkpt>
      <trkpt lat="45.8333" lon="4.73732">
        <ele>351.11996</ele>
        <time>2023-07-02T14:38:42.000Z</time>
      </trkpt>
      <trkpt lat="45.83325" lon="4.73734">
        <ele>350.84802</ele>
        <time>2023-07-02T14:38:43.000Z</time>
      </trkpt>
      <trkpt lat="45.8332" lon="4.73736">
        <ele>350.87564</ele>
        <time>2023-07-02T14:38:44.000Z</time>
      </trkpt>
      <trkpt lat="45.83314" lon="4.73736">
        <ele>350.90546</ele>
        <time>2023-07-02T14:38:45.000Z</time>
      </trkpt>
      <trkpt lat="45.8331" lon="4.73737">
        <ele>350.97647</ele>
        <time>2023-07-02T14:38:46.000Z</time>
      </trkpt>
      <trkpt lat="45.83305" lon="4.73737">
        <ele>351.1781</ele>
        <time>2023-07-02T14:38:47.000Z</time>
      </trkpt>
      <trkpt lat="45.833" lon="4.73737">
        <ele>351.38925</ele>
        <time>2023-07-02T14:38:48.000Z</time>
      </trkpt>
      <trkpt lat="45.83296" lon="4.73736">
        <ele>351.65314</ele>
        <time>2023-07-02T14:38:49.000Z</time>
      </trkpt>
      <trkpt lat="45.83292" lon="4.73736">
        <ele>351.94769</ele>
        <time>2023-07-02T14:38:50.000Z</time>
      </trkpt>
      <trkpt lat="45.83287" lon="4.73736">
        <ele>352.03519</ele>
        <time>2023-07-02T14:38:51.000Z</time>
      </trkpt>
      <trkpt lat="45.83283" lon="4.73736">
        <ele>352.14667</ele>
        <time>2023-07-02T14:38:52.000Z</time>
      </trkpt>
      <trkpt lat="45.83278" lon="4.73736">
        <ele>352.26181</ele>
        <time>2023-07-02T14:38:53.000Z</time>
      </trkpt>
      <trkpt lat="45.83275" lon="4.73737">
        <ele>352.39874</ele>
        <time>2023-07-02T14:38:54.000Z</time>
      </trkpt>
      <trkpt lat="45.83271" lon="4.73736">
        <ele>352.53278</ele>
        <time>2023-07-02T14:38:55.000Z</time>
      </trkpt>
      <trkpt lat="45.83267" lon="4.73737">
        <ele>352.68088</ele>
        <time>2023-07-02T14:38:56.000Z</time>
      </trkpt>
      <trkpt lat="45.83262" lon="4.73737">
        <ele>352.85864</ele>
        <time>2023-07-02T14:38:57.000Z</time>
      </trkpt>
      <trkpt lat="45.83258" lon="4.73738">
        <ele>353.15903</ele>
        <time>2023-07-02T14:38:58.000Z</time>
      </trkpt>
      <trkpt lat="45.83253" lon="4.73739">
        <ele>353.4928</ele>
        <time>2023-07-02T14:38:59.000Z</time>
      </trkpt>
      <trkpt lat="45.83249" lon="4.73741">
        <ele>353.64249</ele>
        <time>2023-07-02T14:39:00.000Z</time>
      </trkpt>
      <trkpt lat="45.83244" lon="4.7374">
        <ele>353.85776</ele>
        <time>2023-07-02T14:39:01.000Z</time>
      </trkpt>
      <trkpt lat="45.83239" lon="4.73739">
        <ele>354.12756</ele>
        <time>2023-07-02T14:39:02.000Z</time>
      </trkpt>
      <trkpt lat="45.83234" lon="4.73738">
        <ele>354.38959</ele>
        <time>2023-07-02T14:39:03.000Z</time>
      </trkpt>
      <trkpt lat="45.83229" lon="4.73738">
        <ele>354.67975</ele>
        <time>2023-07-02T14:39:04.000Z</time>
      </trkpt>
      <trkpt lat="45.83224" lon="4.73737">
        <ele>354.9216</ele>
        <time>2023-07-02T14:39:05.000Z</time>
      </trkpt>
      <trkpt lat="45.8322" lon="4.73737">
        <ele>355.15823</ele>
        <time>2023-07-02T14:39:06.000Z</time>
      </trkpt>
      <trkpt lat="45.83215" lon="4.73738">
        <ele>355.25735</ele>
        <time>2023-07-02T14:39:07.000Z</time>
      </trkpt>
      <trkpt lat="45.8321" lon="4.73739">
        <ele>355.35236</ele>
        <time>2023-07-02T14:39:08.000Z</time>
      </trkpt>
      <trkpt lat="45.83204" lon="4.73739">
        <ele>355.39279</ele>
        <time>2023-07-02T14:39:09.000Z</time>
      </trkpt>
      <trkpt lat="45.83199" lon="4.73739">
        <ele>355.4295</ele>
        <time>2023-07-02T14:39:10.000Z</time>
      </trkpt>
      <trkpt lat="45.83194" lon="4.73739">
        <ele>355.69327</ele>
        <time>2023-07-02T14:39:11.000Z</time>
      </trkpt>
      <trkpt lat="45.83189" lon="4.7374">
        <ele>355.86591</ele>
        <time>2023-07-02T14:39:12.000Z</time>
      </trkpt>
      <trkpt lat="45.83184" lon="4.7374">
        <ele>356.06015</ele>
        <time>2023-07-02T14:39:13.000Z</time>
      </trkpt>
      <trkpt lat="45.8318" lon="4.73739">
        <ele>356.23267</ele>
        <time>2023-07-02T14:39:14.000Z</time>
      </trkpt>
      <trkpt lat="45.83175" lon="4.7374">
        <ele>356.42615</ele>
        <time>2023-07-02T14:39:15.000Z</time>
      </trkpt>
      <trkpt lat="45.83169" lon="4.73739">
        <ele>356.56476</ele>
        <time>2023-07-02T14:39:16.000Z</time>
      </trkpt>
      <trkpt lat="45.83164" lon="4.73739">
        <ele>356.67813</ele>
        <time>2023-07-02T14:39:17.000Z</time>
      </trkpt>
      <trkpt lat="45.83159" lon="4.73737">
        <ele>356.66614</ele>
        <time>2023-07-02T14:39:18.000Z</time>
      </trkpt>
      <trkpt lat="45.83154" lon="4.73737">
        <ele>356.64459</ele>
        <time>2023-07-02T14:39:19.000Z</time>
      </trkpt>
      <trkpt lat="45.83148" lon="4.73736">
        <ele>356.98969</ele>
        <time>2023-07-02T14:39:20.000Z</time>
      </trkpt>
      <trkpt lat="45.83143" lon="4.73737">
        <ele>357.37177</ele>
        <time>2023-07-02T14:39:21.000Z</time>
      </trkpt>
      <trkpt lat="45.83138" lon="4.73737">
        <ele>357.5484</ele>
        <time>2023-07-02T14:39:22.000Z</time>
      </trkpt>
      <trkpt lat="45.83133" lon="4.73736">
        <ele>357.7475</ele>
        <time>2023-07-02T14:39:23.000Z</time>
      </trkpt>
      <trkpt lat="45.83128" lon="4.73735">
        <ele>357.94525</ele>
        <time>2023-07-02T14:39:24.000Z</time>
      </trkpt>
      <trkpt lat="45.83124" lon="4.73735">
        <ele>358.15829</ele>
        <time>2023-07-02T14:39:25.000Z</time>
      </trkpt>
      <trkpt lat="45.83119" lon="4.73735">
        <ele>358.36551</ele>
        <time>2023-07-02T14:39:26.000Z</time>
      </trkpt>
      <trkpt lat="45.83115" lon="4.73736">
        <ele>358.57031</ele>
        <time>2023-07-02T14:39:27.000Z</time>
      </trkpt>
      <trkpt lat="45.8311" lon="4.73735">
        <ele>358.77228</ele>
        <time>2023-07-02T14:39:28.000Z</time>
      </trkpt>
      <trkpt lat="45.83106" lon="4.73735">
        <ele>358.96487</ele>
        <time>2023-07-02T14:39:29.000Z</time>
      </trkpt>
      <trkpt lat="45.83101" lon="4.73735">
        <ele>359.1355</ele>
        <time>2023-07-02T14:39:30.000Z</time>
      </trkpt>
      <trkpt lat="45.83098" lon="4.73734">
        <ele>359.32843</ele>
        <time>2023-07-02T14:39:31.000Z</time>
      </trkpt>
      <trkpt lat="45.83093" lon="4.73733">
        <ele>359.56607</ele>
        <time>2023-07-02T14:39:32.000Z</time>
      </trkpt>
      <trkpt lat="45.83088" lon="4.73734">
        <ele>359.77087</ele>
        <time>2023-07-02T14:39:33.000Z</time>
      </trkpt>
      <trkpt lat="45.83083" lon="4.73732">
        <ele>359.96454</ele>
        <time>2023-07-02T14:39:34.000Z</time>
      </trkpt>
      <trkpt lat="45.8308" lon="4.73732">
        <ele>360.11676</ele>
        <time>2023-07-02T14:39:35.000Z</time>
      </trkpt>
      <trkpt lat="45.83075" lon="4.73732">
        <ele>360.33878</ele>
        <time>2023-07-02T14:39:36.000Z</time>
      </trkpt>
      <trkpt lat="45.83071" lon="4.73733">
        <ele>360.56143</ele>
        <time>2023-07-02T14:39:37.000Z</time>
      </trkpt>
      <trkpt lat="45.83067" lon="4.73733">
        <ele>360.82819</ele>
        <time>2023-07-02T14:39:38.000Z</time>
      </trkpt>
      <trkpt lat="45.83063" lon="4.73733">
        <ele>361.11563</ele>
        <time>2023-07-02T14:39:39.000Z</time>
      </trkpt>
      <trkpt lat="45.83059" lon="4.73733">
        <ele>361.21509</ele>
        <time>2023-07-02T14:39:40.000Z</time>
      </trkpt>
      <trkpt lat="45.83055" lon="4.73732">
        <ele>361.13803</ele>
        <time>2023-07-02T14:39:41.000Z</time>
      </trkpt>
      <trkpt lat="45.8305" lon="4.73733">
        <ele>361.3002</ele>
        <time>2023-07-02T14:39:42.000Z</time>
      </trkpt>
      <trkpt lat="45.83046" lon="4.73733">
        <ele>361.45071</ele>
        <time>2023-07-02T14:39:43.000Z</time>
      </trkpt>
      <trkpt lat="45.83043" lon="4.73734">
        <ele>361.60281</ele>
        <time>2023-07-02T14:39:44.000Z</time>
      </trkpt>
      <trkpt lat="45.83038" lon="4.73734">
        <ele>361.79846</ele>
        <time>2023-07-02T14:39:45.000Z</time>
      </trkpt>
      <trkpt lat="45.83034" lon="4.73734">
        <ele>362.08395</ele>
        <time>2023-07-02T14:39:46.000Z</time>
      </trkpt>
      <trkpt lat="45.8303" lon="4.73733">
        <ele>362.38153</ele>
        <time>2023-07-02T14:39:47.000Z</time>
      </trkpt>
      <trkpt lat="45.83026" lon="4.73732">
        <ele>362.70209</ele>
        <time>2023-07-02T14:39:48.000Z</time>
      </trkpt>
      <trkpt lat="45.83021" lon="4.73732">
        <ele>362.96198</ele>
        <time>2023-07-02T14:39:49.000Z</time>
      </trkpt>
      <trkpt lat="45.83017" lon="4.73732">
        <ele>363.24866</ele>
        <time>2023-07-02T14:39:50.000Z</time>
      </trkpt>
      <trkpt lat="45.83013" lon="4.73732">
        <ele>363.5484</ele>
        <time>2023-07-02T14:39:51.000Z</time>
      </trkpt>
      <trkpt lat="45.83009" lon="4.73732">
        <ele>363.87238</ele>
        <time>2023-07-02T14:39:52.000Z</time>
      </trkpt>
      <trkpt lat="45.83004" lon="4.73732">
        <ele>364.21429</ele>
        <time>2023-07-02T14:39:53.000Z</time>
      </trkpt>
      <trkpt lat="45.83" lon="4.73732">
        <ele>364.56625</ele>
        <time>2023-07-02T14:39:54.000Z</time>
      </trkpt>
      <trkpt lat="45.82996" lon="4.73732">
        <ele>364.91418</ele>
        <time>2023-07-02T14:39:55.000Z</time>
      </trkpt>
      <trkpt lat="45.82991" lon="4.73732">
        <ele>365.22113</ele>
        <time>2023-07-02T14:39:56.000Z</time>
      </trkpt>
      <trkpt lat="45.82986" lon="4.73731">
        <ele>365.57315</ele>
        <time>2023-07-02T14:39:57.000Z</time>
      </trkpt>
      <trkpt lat="45.82982" lon="4.73731">
        <ele>365.88467</ele>
        <time>2023-07-02T14:39:58.000Z</time>
      </trkpt>
      <trkpt lat="45.82978" lon="4.73731">
        <ele>366.15558</ele>
        <time>2023-07-02T14:39:59.000Z</time>
      </trkpt>
      <trkpt lat="45.82974" lon="4.73731">
        <ele>366.41913</ele>
        <time>2023-07-02T14:40:00.000Z</time>
      </trkpt>
      <trkpt lat="45.82969" lon="4.73731">
        <ele>366.80478</ele>
        <time>2023-07-02T14:40:01.000Z</time>
      </trkpt>
      <trkpt lat="45.82965" lon="4.7373">
        <ele>367.13785</ele>
        <time>2023-07-02T14:40:02.000Z</time>
      </trkpt>
      <trkpt lat="45.82961" lon="4.7373">
        <ele>367.49103</ele>
        <time>2023-07-02T14:40:03.000Z</time>
      </trkpt>
      <trkpt lat="45.82957" lon="4.7373">
        <ele>367.8291</ele>
        <time>2023-07-02T14:40:04.000Z</time>
      </trkpt>
      <trkpt lat="45.82953" lon="4.7373">
        <ele>368.13934</ele>
        <time>2023-07-02T14:40:05.000Z</time>
      </trkpt>
      <trkpt lat="45.82948" lon="4.73729">
        <ele>368.37421</ele>
        <time>2023-07-02T14:40:06.000Z</time>
      </trkpt>
      <trkpt lat="45.82944" lon="4.73729">
        <ele>368.64166</ele>
        <time>2023-07-02T14:40:07.000Z</time>
      </trkpt>
      <trkpt lat="45.8294" lon="4.73728">
        <ele>368.8978</ele>
        <time>2023-07-02T14:40:08.000Z</time>
      </trkpt>
      <trkpt lat="45.82936" lon="4.73728">
        <ele>369.23352</ele>
        <time>2023-07-02T14:40:09.000Z</time>
      </trkpt>
      <trkpt lat="45.82931" lon="4.73727">
        <ele>369.54492</ele>
        <time>2023-07-02T14:40:10.000Z</time>
      </trkpt>
      <trkpt lat="45.82926" lon="4.73727">
        <ele>369.83871</ele>
        <time>2023-07-02T14:40:11.000Z</time>
      </trkpt>
      <trkpt lat="45.82921" lon="4.73727">
        <ele>370.11664</ele>
        <time>2023-07-02T14:40:12.000Z</time>
      </trkpt>
      <trkpt lat="45.82917" lon="4.73726">
        <ele>370.40115</ele>
        <time>2023-07-02T14:40:13.000Z</time>
      </trkpt>
      <trkpt lat="45.82913" lon="4.73726">
        <ele>370.69427</ele>
        <time>2023-07-02T14:40:14.000Z</time>
      </trkpt>
      <trkpt lat="45.82909" lon="4.73726">
        <ele>370.99765</ele>
        <time>2023-07-02T14:40:15.000Z</time>
      </trkpt>
      <trkpt lat="45.82905" lon="4.73727">
        <ele>371.29077</ele>
        <time>2023-07-02T14:40:16.000Z</time>
      </trkpt>
      <trkpt lat="45.829" lon="4.73727">
        <ele>371.53351</ele>
        <time>2023-07-02T14:40:17.000Z</time>
      </trkpt>
      <trkpt lat="45.82896" lon="4.73727">
        <ele>371.76895</ele>
        <time>2023-07-02T14:40:18.000Z</time>
      </trkpt>
      <trkpt lat="45.82891" lon="4.73727">
        <ele>372.00546</ele>
        <time>2023-07-02T14:40:19.000Z</time>
      </trkpt>
      <trkpt lat="45.82888" lon="4.73727">
        <ele>372.21207</ele>
        <time>2023-07-02T14:40:20.000Z</time>
      </trkpt>
      <trkpt lat="45.82884" lon="4.73726">
        <ele>372.43597</ele>
        <time>2023-07-02T14:40:21.000Z</time>
      </trkpt>
      <trkpt lat="45.8288" lon="4.73726">
        <ele>372.65204</ele>
        <time>2023-07-02T14:40:22.000Z</time>
      </trkpt>
      <trkpt lat="45.82875" lon="4.73725">
        <ele>372.8515</ele>
        <time>2023-07-02T14:40:23.000Z</time>
      </trkpt>
      <trkpt lat="45.8287" lon="4.73725">
        <ele>373.10703</ele>
        <time>2023-07-02T14:40:24.000Z</time>
      </trkpt>
      <trkpt lat="45.82866" lon="4.73725">
        <ele>373.36432</ele>
        <time>2023-07-02T14:40:25.000Z</time>
      </trkpt>
      <trkpt lat="45.82861" lon="4.73725">
        <ele>373.60394</ele>
        <time>2023-07-02T14:40:26.000Z</time>
      </trkpt>
      <trkpt lat="45.82856" lon="4.73724">
        <ele>373.7977</ele>
        <time>2023-07-02T14:40:27.000Z</time>
      </trkpt>
      <trkpt lat="45.82852" lon="4.73723">
        <ele>374.00598</ele>
        <time>2023-07-02T14:40:28.000Z</time>
      </trkpt>
      <trkpt lat="45.82847" lon="4.73723">
        <ele>374.20758</ele>
        <time>2023-07-02T14:40:29.000Z</time>
      </trkpt>
      <trkpt lat="45.82843" lon="4.73723">
        <ele>374.41147</ele>
        <time>2023-07-02T14:40:30.000Z</time>
      </trkpt>
      <trkpt lat="45.82838" lon="4.73724">
        <ele>374.604</ele>
        <time>2023-07-02T14:40:31.000Z</time>
      </trkpt>
      <trkpt lat="45.82834" lon="4.73723">
        <ele>374.80038</ele>
        <time>2023-07-02T14:40:32.000Z</time>
      </trkpt>
      <trkpt lat="45.8283" lon="4.73723">
        <ele>375.00885</ele>
        <time>2023-07-02T14:40:33.000Z</time>
      </trkpt>
      <trkpt lat="45.82826" lon="4.73724">
        <ele>375.19879</ele>
        <time>2023-07-02T14:40:34.000Z</time>
      </trkpt>
      <trkpt lat="45.82821" lon="4.73723">
        <ele>375.3916</ele>
        <time>2023-07-02T14:40:35.000Z</time>
      </trkpt>
      <trkpt lat="45.82816" lon="4.73723">
        <ele>375.61172</ele>
        <time>2023-07-02T14:40:36.000Z</time>
      </trkpt>
      <trkpt lat="45.82812" lon="4.73723">
        <ele>375.84641</ele>
        <time>2023-07-02T14:40:37.000Z</time>
      </trkpt>
      <trkpt lat="45.82808" lon="4.73723">
        <ele>376.07846</ele>
        <time>2023-07-02T14:40:38.000Z</time>
      </trkpt>
      <trkpt lat="45.82804" lon="4.73723">
        <ele>376.31342</ele>
        <time>2023-07-02T14:40:39.000Z</time>
      </trkpt>
      <trkpt lat="45.828" lon="4.73722">
        <ele>376.56589</ele>
        <time>2023-07-02T14:40:40.000Z</time>
      </trkpt>
      <trkpt lat="45.82796" lon="4.73723">
        <ele>376.81012</ele>
        <time>2023-07-02T14:40:41.000Z</time>
      </trkpt>
      <trkpt lat="45.82792" lon="4.73722">
        <ele>377.06134</ele>
        <time>2023-07-02T14:40:42.000Z</time>
      </trkpt>
      <trkpt lat="45.82787" lon="4.73721">
        <ele>377.27255</ele>
        <time>2023-07-02T14:40:43.000Z</time>
      </trkpt>
      <trkpt lat="45.82783" lon="4.7372">
        <ele>377.379</ele>
        <time>2023-07-02T14:40:44.000Z</time>
      </trkpt>
      <trkpt lat="45.82779" lon="4.7372">
        <ele>377.45639</ele>
        <time>2023-07-02T14:40:45.000Z</time>
      </trkpt>
      <trkpt lat="45.82774" lon="4.7372">
        <ele>377.53436</ele>
        <time>2023-07-02T14:40:46.000Z</time>
      </trkpt>
      <trkpt lat="45.8277" lon="4.73719">
        <ele>377.74274</ele>
        <time>2023-07-02T14:40:47.000Z</time>
      </trkpt>
      <trkpt lat="45.82766" lon="4.73719">
        <ele>377.93207</ele>
        <time>2023-07-02T14:40:48.000Z</time>
      </trkpt>
      <trkpt lat="45.82762" lon="4.73718">
        <ele>378.13385</ele>
        <time>2023-07-02T14:40:49.000Z</time>
      </trkpt>
      <trkpt lat="45.82758" lon="4.73718">
        <ele>378.31735</ele>
        <time>2023-07-02T14:40:50.000Z</time>
      </trkpt>
      <trkpt lat="45.82754" lon="4.73718">
        <ele>378.52115</ele>
        <time>2023-07-02T14:40:51.000Z</time>
      </trkpt>
      <trkpt lat="45.82749" lon="4.73718">
        <ele>378.70972</ele>
        <time>2023-07-02T14:40:52.000Z</time>
      </trkpt>
      <trkpt lat="45.82745" lon="4.73718">
        <ele>378.88745</ele>
        <time>2023-07-02T14:40:53.000Z</time>
      </trkpt>
      <trkpt lat="45.82741" lon="4.73719">
        <ele>379.0675</ele>
        <time>2023-07-02T14:40:54.000Z</time>
      </trkpt>
      <trkpt lat="45.82737" lon="4.7372">
        <ele>379.20468</ele>
        <time>2023-07-02T14:40:55.000Z</time>
      </trkpt>
      <trkpt lat="45.82732" lon="4.7372">
        <ele>379.30951</ele>
        <time>2023-07-02T14:40:56.000Z</time>
      </trkpt>
      <trkpt lat="45.82728" lon="4.73721">
        <ele>379.37347</ele>
        <time>2023-07-02T14:40:57.000Z</time>
      </trkpt>
      <trkpt lat="45.82724" lon="4.73721">
        <ele>379.56357</ele>
        <time>2023-07-02T14:40:58.000Z</time>
      </trkpt>
      <trkpt lat="45.8272" lon="4.7372">
        <ele>379.71237</ele>
        <time>2023-07-02T14:40:59.000Z</time>
      </trkpt>
      <trkpt lat="45.82716" lon="4.7372">
        <ele>379.88779</ele>
        <time>2023-07-02T14:41:00.000Z</time>
      </trkpt>
      <trkpt lat="45.82712" lon="4.7372">
        <ele>380.0484</ele>
        <time>2023-07-02T14:41:01.000Z</time>
      </trkpt>
      <trkpt lat="45.82707" lon="4.7372">
        <ele>380.20285</ele>
        <time>2023-07-02T14:41:02.000Z</time>
      </trkpt>
      <trkpt lat="45.82703" lon="4.7372">
        <ele>380.332</ele>
        <time>2023-07-02T14:41:03.000Z</time>
      </trkpt>
      <trkpt lat="45.82699" lon="4.7372">
        <ele>380.49307</ele>
        <time>2023-07-02T14:41:04.000Z</time>
      </trkpt>
      <trkpt lat="45.82696" lon="4.73719">
        <ele>380.63287</ele>
        <time>2023-07-02T14:41:05.000Z</time>
      </trkpt>
      <trkpt lat="45.82692" lon="4.73719">
        <ele>380.78046</ele>
        <time>2023-07-02T14:41:06.000Z</time>
      </trkpt>
      <trkpt lat="45.82688" lon="4.73718">
        <ele>380.8093</ele>
        <time>2023-07-02T14:41:07.000Z</time>
      </trkpt>
      <trkpt lat="45.82684" lon="4.73718">
        <ele>380.9476</ele>
        <time>2023-07-02T14:41:08.000Z</time>
      </trkpt>
      <trkpt lat="45.82679" lon="4.73717">
        <ele>381.05597</ele>
        <time>2023-07-02T14:41:09.000Z</time>
      </trkpt>
      <trkpt lat="45.82675" lon="4.73717">
        <ele>381.18909</ele>
        <time>2023-07-02T14:41:10.000Z</time>
      </trkpt>
      <trkpt lat="45.82671" lon="4.73717">
        <ele>381.28705</ele>
        <time>2023-07-02T14:41:11.000Z</time>
      </trkpt>
      <trkpt lat="45.82667" lon="4.73717">
        <ele>381.4086</ele>
        <time>2023-07-02T14:41:12.000Z</time>
      </trkpt>
      <trkpt lat="45.82662" lon="4.73716">
        <ele>381.51447</ele>
        <time>2023-07-02T14:41:13.000Z</time>
      </trkpt>
      <trkpt lat="45.82657" lon="4.73715">
        <ele>381.61337</ele>
        <time>2023-07-02T14:41:14.000Z</time>
      </trkpt>
      <trkpt lat="45.82653" lon="4.73715">
        <ele>381.74811</ele>
        <time>2023-07-02T14:41:15.000Z</time>
      </trkpt>
      <trkpt lat="45.82648" lon="4.73716">
        <ele>381.90842</ele>
        <time>2023-07-02T14:41:16.000Z</time>
      </trkpt>
      <trkpt lat="45.82643" lon="4.73716">
        <ele>381.98639</ele>
        <time>2023-07-02T14:41:17.000Z</time>
      </trkpt>
      <trkpt lat="45.82638" lon="4.73717">
        <ele>381.93173</ele>
        <time>2023-07-02T14:41:18.000Z</time>
      </trkpt>
      <trkpt lat="45.82633" lon="4.73717">
        <ele>381.9158</ele>
        <time>2023-07-02T14:41:19.000Z</time>
      </trkpt>
      <trkpt lat="45.82628" lon="4.73717">
        <ele>382.03613</ele>
        <time>2023-07-02T14:41:20.000Z</time>
      </trkpt>
      <trkpt lat="45.82623" lon="4.73716">
        <ele>382.11517</ele>
        <time>2023-07-02T14:41:21.000Z</time>
      </trkpt>
      <trkpt lat="45.82618" lon="4.73716">
        <ele>382.17557</ele>
        <time>2023-07-02T14:41:22.000Z</time>
      </trkpt>
      <trkpt lat="45.82613" lon="4.73715">
        <ele>382.30756</ele>
        <time>2023-07-02T14:41:23.000Z</time>
      </trkpt>
      <trkpt lat="45.82607" lon="4.73715">
        <ele>382.42078</ele>
        <time>2023-07-02T14:41:24.000Z</time>
      </trkpt>
      <trkpt lat="45.82601" lon="4.73719">
        <ele>382.54773</ele>
        <time>2023-07-02T14:41:25.000Z</time>
      </trkpt>
      <trkpt lat="45.82595" lon="4.73722">
        <ele>382.63907</ele>
        <time>2023-07-02T14:41:26.000Z</time>
      </trkpt>
      <trkpt lat="45.8259" lon="4.73727">
        <ele>382.62766</ele>
        <time>2023-07-02T14:41:27.000Z</time>
      </trkpt>
      <trkpt lat="45.82583" lon="4.73732">
        <ele>382.45709</ele>
        <time>2023-07-02T14:41:28.000Z</time>
      </trkpt>
      <trkpt lat="45.82583" lon="4.73743">
        <ele>382.4169</ele>
        <time>2023-07-02T14:41:29.000Z</time>
      </trkpt>
      <trkpt lat="45.82581" lon="4.73752">
        <ele>382.34033</ele>
        <time>2023-07-02T14:41:30.000Z</time>
      </trkpt>
      <trkpt lat="45.82579" lon="4.73761">
        <ele>382.29068</ele>
        <time>2023-07-02T14:41:31.000Z</time>
      </trkpt>
      <trkpt lat="45.82577" lon="4.73769">
        <ele>382.19839</ele>
        <time>2023-07-02T14:41:32.000Z</time>
      </trkpt>
      <trkpt lat="45.82574" lon="4.73778">
        <ele>382.11328</ele>
        <time>2023-07-02T14:41:33.000Z</time>
      </trkpt>
      <trkpt lat="45.82574" lon="4.73789">
        <ele>382.03156</ele>
        <time>2023-07-02T14:41:34.000Z</time>
      </trkpt>
      <trkpt lat="45.8257" lon="4.73795">
        <ele>381.9686</ele>
        <time>2023-07-02T14:41:35.000Z</time>
      </trkpt>
      <trkpt lat="45.82566" lon="4.73803">
        <ele>381.82394</ele>
        <time>2023-07-02T14:41:36.000Z</time>
      </trkpt>
      <trkpt lat="45.8256" lon="4.73805">
        <ele>381.79874</ele>
        <time>2023-07-02T14:41:37.000Z</time>
      </trkpt>
      <trkpt lat="45.82559" lon="4.73813">
        <ele>381.78964</ele>
        <time>2023-07-02T14:41:38.000Z</time>
      </trkpt>
      <trkpt lat="45.82557" lon="4.73819">
        <ele>381.79242</ele>
        <time>2023-07-02T14:41:39.000Z</time>
      </trkpt>
      <trkpt lat="45.82555" lon="4.73824">
        <ele>381.56998</ele>
        <time>2023-07-02T14:41:40.000Z</time>
      </trkpt>
      <trkpt lat="45.82553" lon="4.73829">
        <ele>381.40558</ele>
        <time>2023-07-02T14:41:41.000Z</time>
      </trkpt>
      <trkpt lat="45.82552" lon="4.73832">
        <ele>381.23599</ele>
        <time>2023-07-02T14:41:42.000Z</time>
      </trkpt>
      <trkpt lat="45.8255" lon="4.73836">
        <ele>381.18713</ele>
        <time>2023-07-02T14:41:43.000Z</time>
      </trkpt>
      <trkpt lat="45.82552" lon="4.7384">
        <ele>381.07663</ele>
        <time>2023-07-02T14:41:44.000Z</time>
      </trkpt>
      <trkpt lat="45.82554" lon="4.7384">
        <ele>380.97214</ele>
        <time>2023-07-02T14:41:45.000Z</time>
      </trkpt>
      <trkpt lat="45.82557" lon="4.73841">
        <ele>380.91501</ele>
        <time>2023-07-02T14:41:46.000Z</time>
      </trkpt>
      <trkpt lat="45.82561" lon="4.73842">
        <ele>381.01727</ele>
        <time>2023-07-02T14:41:47.000Z</time>
      </trkpt>
      <trkpt lat="45.82563" lon="4.73845">
        <ele>381.16125</ele>
        <time>2023-07-02T14:41:48.000Z</time>
      </trkpt>
      <trkpt lat="45.82566" lon="4.73846">
        <ele>381.19489</ele>
        <time>2023-07-02T14:41:49.000Z</time>
      </trkpt>
      <trkpt lat="45.82568" lon="4.73849">
        <ele>381.28577</ele>
        <time>2023-07-02T14:41:50.000Z</time>
      </trkpt>
      <trkpt lat="45.8257" lon="4.73852">
        <ele>381.37238</ele>
        <time>2023-07-02T14:41:51.000Z</time>
      </trkpt>
      <trkpt lat="45.82572" lon="4.73855">
        <ele>381.45752</ele>
        <time>2023-07-02T14:41:52.000Z</time>
      </trkpt>
      <trkpt lat="45.82574" lon="4.73859">
        <ele>381.50766</ele>
        <time>2023-07-02T14:41:53.000Z</time>
      </trkpt>
      <trkpt lat="45.82575" lon="4.73863">
        <ele>381.57651</ele>
        <time>2023-07-02T14:41:54.000Z</time>
      </trkpt>
      <trkpt lat="45.82576" lon="4.73868">
        <ele>381.65115</ele>
        <time>2023-07-02T14:41:55.000Z</time>
      </trkpt>
      <trkpt lat="45.82577" lon="4.73873">
        <ele>381.78262</ele>
        <time>2023-07-02T14:41:56.000Z</time>
      </trkpt>
      <trkpt lat="45.82578" lon="4.73878">
        <ele>381.92361</ele>
        <time>2023-07-02T14:41:57.000Z</time>
      </trkpt>
      <trkpt lat="45.82579" lon="4.73883">
        <ele>382.04486</ele>
        <time>2023-07-02T14:41:58.000Z</time>
      </trkpt>
      <trkpt lat="45.82581" lon="4.73888">
        <ele>382.16953</ele>
        <time>2023-07-02T14:41:59.000Z</time>
      </trkpt>
      <trkpt lat="45.82582" lon="4.73894">
        <ele>382.36667</ele>
        <time>2023-07-02T14:42:00.000Z</time>
      </trkpt>
      <trkpt lat="45.82583" lon="4.73899">
        <ele>382.55066</ele>
        <time>2023-07-02T14:42:01.000Z</time>
      </trkpt>
      <trkpt lat="45.82584" lon="4.73904">
        <ele>382.74274</ele>
        <time>2023-07-02T14:42:02.000Z</time>
      </trkpt>
      <trkpt lat="45.82585" lon="4.7391">
        <ele>382.80258</ele>
        <time>2023-07-02T14:42:03.000Z</time>
      </trkpt>
      <trkpt lat="45.82586" lon="4.73915">
        <ele>382.86993</ele>
        <time>2023-07-02T14:42:04.000Z</time>
      </trkpt>
      <trkpt lat="45.82587" lon="4.73921">
        <ele>382.97177</ele>
        <time>2023-07-02T14:42:05.000Z</time>
      </trkpt>
      <trkpt lat="45.82588" lon="4.73926">
        <ele>383.04837</ele>
        <time>2023-07-02T14:42:06.000Z</time>
      </trkpt>
      <trkpt lat="45.82589" lon="4.73931">
        <ele>383.23483</ele>
        <time>2023-07-02T14:42:07.000Z</time>
      </trkpt>
      <trkpt lat="45.8259" lon="4.73936">
        <ele>383.37177</ele>
        <time>2023-07-02T14:42:08.000Z</time>
      </trkpt>
      <trkpt lat="45.82591" lon="4.73941">
        <ele>383.46692</ele>
        <time>2023-07-02T14:42:09.000Z</time>
      </trkpt>
      <trkpt lat="45.82592" lon="4.73946">
        <ele>383.50302</ele>
        <time>2023-07-02T14:42:10.000Z</time>
      </trkpt>
      <trkpt lat="45.82593" lon="4.7395">
        <ele>383.53171</ele>
        <time>2023-07-02T14:42:11.000Z</time>
      </trkpt>
      <trkpt lat="45.82594" lon="4.73955">
        <ele>383.48575</ele>
        <time>2023-07-02T14:42:12.000Z</time>
      </trkpt>
      <trkpt lat="45.82595" lon="4.73959">
        <ele>383.46173</ele>
        <time>2023-07-02T14:42:13.000Z</time>
      </trkpt>
      <trkpt lat="45.82596" lon="4.73964">
        <ele>383.40237</ele>
        <time>2023-07-02T14:42:14.000Z</time>
      </trkpt>
      <trkpt lat="45.82597" lon="4.73968">
        <ele>383.4801</ele>
        <time>2023-07-02T14:42:15.000Z</time>
      </trkpt>
      <trkpt lat="45.82598" lon="4.73973">
        <ele>383.54913</ele>
        <time>2023-07-02T14:42:16.000Z</time>
      </trkpt>
      <trkpt lat="45.82599" lon="4.73977">
        <ele>383.5983</ele>
        <time>2023-07-02T14:42:17.000Z</time>
      </trkpt>
      <trkpt lat="45.82599" lon="4.73981">
        <ele>383.64719</ele>
        <time>2023-07-02T14:42:18.000Z</time>
      </trkpt>
      <trkpt lat="45.826" lon="4.73986">
        <ele>383.68719</ele>
        <time>2023-07-02T14:42:19.000Z</time>
      </trkpt>
      <trkpt lat="45.82601" lon="4.7399">
        <ele>383.73785</ele>
        <time>2023-07-02T14:42:20.000Z</time>
      </trkpt>
      <trkpt lat="45.82603" lon="4.73994">
        <ele>383.80023</ele>
        <time>2023-07-02T14:42:21.000Z</time>
      </trkpt>
      <trkpt lat="45.82604" lon="4.73998">
        <ele>383.88434</ele>
        <time>2023-07-02T14:42:22.000Z</time>
      </trkpt>
      <trkpt lat="45.82605" lon="4.74001">
        <ele>383.98071</ele>
        <time>2023-07-02T14:42:23.000Z</time>
      </trkpt>
      <trkpt lat="45.82606" lon="4.74005">
        <ele>384.13925</ele>
        <time>2023-07-02T14:42:24.000Z</time>
      </trkpt>
      <trkpt lat="45.82607" lon="4.74009">
        <ele>384.28513</ele>
        <time>2023-07-02T14:42:25.000Z</time>
      </trkpt>
      <trkpt lat="45.82608" lon="4.74012">
        <ele>384.435</ele>
        <time>2023-07-02T14:42:26.000Z</time>
      </trkpt>
      <trkpt lat="45.82609" lon="4.74017">
        <ele>384.41302</ele>
        <time>2023-07-02T14:42:27.000Z</time>
      </trkpt>
      <trkpt lat="45.8261" lon="4.7402">
        <ele>384.44049</ele>
        <time>2023-07-02T14:42:28.000Z</time>
      </trkpt>
      <trkpt lat="45.8261" lon="4.74024">
        <ele>384.48441</ele>
        <time>2023-07-02T14:42:29.000Z</time>
      </trkpt>
      <trkpt lat="45.82611" lon="4.74028">
        <ele>384.55704</ele>
        <time>2023-07-02T14:42:30.000Z</time>
      </trkpt>
      <trkpt lat="45.82611" lon="4.74032">
        <ele>384.64728</ele>
        <time>2023-07-02T14:42:31.000Z</time>
      </trkpt>
      <trkpt lat="45.82611" lon="4.74036">
        <ele>384.79834</ele>
        <time>2023-07-02T14:42:32.000Z</time>
      </trkpt>
      <trkpt lat="45.82611" lon="4.74041">
        <ele>384.93802</ele>
        <time>2023-07-02T14:42:33.000Z</time>
      </trkpt>
      <trkpt lat="45.82611" lon="4.74046">
        <ele>385.12283</ele>
        <time>2023-07-02T14:42:34.000Z</time>
      </trkpt>
      <trkpt lat="45.8261" lon="4.74051">
        <ele>385.16681</ele>
        <time>2023-07-02T14:42:35.000Z</time>
      </trkpt>
      <trkpt lat="45.8261" lon="4.74056">
        <ele>385.26016</ele>
        <time>2023-07-02T14:42:36.000Z</time>
      </trkpt>
      <trkpt lat="45.82611" lon="4.74061">
        <ele>385.28268</ele>
        <time>2023-07-02T14:42:37.000Z</time>
      </trkpt>
      <trkpt lat="45.82611" lon="4.74066">
        <ele>385.27002</ele>
        <time>2023-07-02T14:42:38.000Z</time>
      </trkpt>
      <trkpt lat="45.82611" lon="4.74071">
        <ele>385.21326</ele>
        <time>2023-07-02T14:42:39.000Z</time>
      </trkpt>
      <trkpt lat="45.82612" lon="4.74077">
        <ele>385.35031</ele>
        <time>2023-07-02T14:42:40.000Z</time>
      </trkpt>
      <trkpt lat="45.82612" lon="4.74082">
        <ele>385.46973</ele>
        <time>2023-07-02T14:42:41.000Z</time>
      </trkpt>
      <trkpt lat="45.82613" lon="4.74087">
        <ele>385.5993</ele>
        <time>2023-07-02T14:42:42.000Z</time>
      </trkpt>
      <trkpt lat="45.82613" lon="4.74092">
        <ele>385.72842</ele>
        <time>2023-07-02T14:42:43.000Z</time>
      </trkpt>
      <trkpt lat="45.82613" lon="4.74096">
        <ele>385.89087</ele>
        <time>2023-07-02T14:42:44.000Z</time>
      </trkpt>
      <trkpt lat="45.82614" lon="4.741">
        <ele>386.05606</ele>
        <time>2023-07-02T14:42:45.000Z</time>
      </trkpt>
      <trkpt lat="45.82614" lon="4.74105">
        <ele>386.24762</ele>
        <time>2023-07-02T14:42:46.000Z</time>
      </trkpt>
      <trkpt lat="45.82614" lon="4.74109">
        <ele>386.70087</ele>
        <time>2023-07-02T14:42:47.000Z</time>
      </trkpt>
      <trkpt lat="45.82615" lon="4.74113">
        <ele>387.22577</ele>
        <time>2023-07-02T14:42:48.000Z</time>
      </trkpt>
      <trkpt lat="45.82615" lon="4.74118">
        <ele>387.31735</ele>
        <time>2023-07-02T14:42:49.000Z</time>
      </trkpt>
      <trkpt lat="45.82615" lon="4.74121">
        <ele>387.40295</ele>
        <time>2023-07-02T14:42:50.000Z</time>
      </trkpt>
      <trkpt lat="45.82615" lon="4.74125">
        <ele>387.47327</ele>
        <time>2023-07-02T14:42:51.000Z</time>
      </trkpt>
      <trkpt lat="45.82615" lon="4.74129">
        <ele>387.57944</ele>
        <time>2023-07-02T14:42:52.000Z</time>
      </trkpt>
      <trkpt lat="45.82615" lon="4.74133">
        <ele>387.6889</ele>
        <time>2023-07-02T14:42:53.000Z</time>
      </trkpt>
      <trkpt lat="45.82615" lon="4.74138">
        <ele>387.76944</ele>
        <time>2023-07-02T14:42:54.000Z</time>
      </trkpt>
      <trkpt lat="45.82615" lon="4.74142">
        <ele>388.10052</ele>
        <time>2023-07-02T14:42:55.000Z</time>
      </trkpt>
      <trkpt lat="45.82615" lon="4.74147">
        <ele>388.38214</ele>
        <time>2023-07-02T14:42:56.000Z</time>
      </trkpt>
      <trkpt lat="45.82615" lon="4.74152">
        <ele>388.77197</ele>
        <time>2023-07-02T14:42:57.000Z</time>
      </trkpt>
      <trkpt lat="45.82615" lon="4.74157">
        <ele>389.19623</ele>
        <time>2023-07-02T14:42:58.000Z</time>
      </trkpt>
      <trkpt lat="45.82615" lon="4.74162">
        <ele>389.65094</ele>
        <time>2023-07-02T14:42:59.000Z</time>
      </trkpt>
      <trkpt lat="45.82615" lon="4.74167">
        <ele>389.90088</ele>
        <time>2023-07-02T14:43:00.000Z</time>
      </trkpt>
      <trkpt lat="45.82615" lon="4.74172">
        <ele>390.18408</ele>
        <time>2023-07-02T14:43:01.000Z</time>
      </trkpt>
      <trkpt lat="45.82615" lon="4.74178">
        <ele>390.43732</ele>
        <time>2023-07-02T14:43:02.000Z</time>
      </trkpt>
      <trkpt lat="45.82614" lon="4.74183">
        <ele>390.69077</ele>
        <time>2023-07-02T14:43:03.000Z</time>
      </trkpt>
      <trkpt lat="45.82614" lon="4.74188">
        <ele>390.93542</ele>
        <time>2023-07-02T14:43:04.000Z</time>
      </trkpt>
      <trkpt lat="45.82613" lon="4.74193">
        <ele>391.17465</ele>
        <time>2023-07-02T14:43:05.000Z</time>
      </trkpt>
      <trkpt lat="45.82612" lon="4.74198">
        <ele>391.39215</ele>
        <time>2023-07-02T14:43:06.000Z</time>
      </trkpt>
      <trkpt lat="45.82612" lon="4.74203">
        <ele>391.3689</ele>
        <time>2023-07-02T14:43:07.000Z</time>
      </trkpt>
      <trkpt lat="45.82611" lon="4.74209">
        <ele>391.28638</ele>
        <time>2023-07-02T14:43:08.000Z</time>
      </trkpt>
      <trkpt lat="45.8261" lon="4.74214">
        <ele>391.66412</ele>
        <time>2023-07-02T14:43:09.000Z</time>
      </trkpt>
      <trkpt lat="45.82609" lon="4.74219">
        <ele>391.84842</ele>
        <time>2023-07-02T14:43:10.000Z</time>
      </trkpt>
      <trkpt lat="45.82608" lon="4.74225">
        <ele>392.01093</ele>
        <time>2023-07-02T14:43:11.000Z</time>
      </trkpt>
      <trkpt lat="45.82607" lon="4.74231">
        <ele>392.18253</ele>
        <time>2023-07-02T14:43:12.000Z</time>
      </trkpt>
      <trkpt lat="45.82605" lon="4.74236">
        <ele>392.37054</ele>
        <time>2023-07-02T14:43:13.000Z</time>
      </trkpt>
      <trkpt lat="45.82604" lon="4.74242">
        <ele>392.55585</ele>
        <time>2023-07-02T14:43:14.000Z</time>
      </trkpt>
      <trkpt lat="45.82603" lon="4.74248">
        <ele>392.41772</ele>
        <time>2023-07-02T14:43:15.000Z</time>
      </trkpt>
      <trkpt lat="45.82602" lon="4.74254">
        <ele>392.28937</ele>
        <time>2023-07-02T14:43:16.000Z</time>
      </trkpt>
      <trkpt lat="45.82601" lon="4.7426">
        <ele>392.40485</ele>
        <time>2023-07-02T14:43:17.000Z</time>
      </trkpt>
      <trkpt lat="45.826" lon="4.74265">
        <ele>392.47754</ele>
        <time>2023-07-02T14:43:18.000Z</time>
      </trkpt>
      <trkpt lat="45.82598" lon="4.74271">
        <ele>392.56824</ele>
        <time>2023-07-02T14:43:19.000Z</time>
      </trkpt>
      <trkpt lat="45.82597" lon="4.74277">
        <ele>392.6676</ele>
        <time>2023-07-02T14:43:20.000Z</time>
      </trkpt>
      <trkpt lat="45.82596" lon="4.74282">
        <ele>392.73599</ele>
        <time>2023-07-02T14:43:21.000Z</time>
      </trkpt>
      <trkpt lat="45.82595" lon="4.74288">
        <ele>392.80441</ele>
        <time>2023-07-02T14:43:22.000Z</time>
      </trkpt>
      <trkpt lat="45.82595" lon="4.74294">
        <ele>392.87729</ele>
        <time>2023-07-02T14:43:23.000Z</time>
      </trkpt>
      <trkpt lat="45.82594" lon="4.74299">
        <ele>392.93521</ele>
        <time>2023-07-02T14:43:24.000Z</time>
      </trkpt>
      <trkpt lat="45.82593" lon="4.74305">
        <ele>392.98935</ele>
        <time>2023-07-02T14:43:25.000Z</time>
      </trkpt>
      <trkpt lat="45.82592" lon="4.7431">
        <ele>392.86618</ele>
        <time>2023-07-02T14:43:26.000Z</time>
      </trkpt>
      <trkpt lat="45.82591" lon="4.74316">
        <ele>392.73849</ele>
        <time>2023-07-02T14:43:27.000Z</time>
      </trkpt>
      <trkpt lat="45.82591" lon="4.74321">
        <ele>392.58206</ele>
        <time>2023-07-02T14:43:28.000Z</time>
      </trkpt>
      <trkpt lat="45.8259" lon="4.74326">
        <ele>392.68329</ele>
        <time>2023-07-02T14:43:29.000Z</time>
      </trkpt>
      <trkpt lat="45.8259" lon="4.74332">
        <ele>392.91797</ele>
        <time>2023-07-02T14:43:30.000Z</time>
      </trkpt>
      <trkpt lat="45.8259" lon="4.74336">
        <ele>393.26572</ele>
        <time>2023-07-02T14:43:31.000Z</time>
      </trkpt>
      <trkpt lat="45.8259" lon="4.74341">
        <ele>393.61603</ele>
        <time>2023-07-02T14:43:32.000Z</time>
      </trkpt>
      <trkpt lat="45.8259" lon="4.74346">
        <ele>393.96744</ele>
        <time>2023-07-02T14:43:33.000Z</time>
      </trkpt>
      <trkpt lat="45.82589" lon="4.7435">
        <ele>394.33487</ele>
        <time>2023-07-02T14:43:34.000Z</time>
      </trkpt>
      <trkpt lat="45.82589" lon="4.74354">
        <ele>394.76874</ele>
        <time>2023-07-02T14:43:35.000Z</time>
      </trkpt>
      <trkpt lat="45.82589" lon="4.74359">
        <ele>395.21924</ele>
        <time>2023-07-02T14:43:36.000Z</time>
      </trkpt>
      <trkpt lat="45.82589" lon="4.74365">
        <ele>395.40643</ele>
        <time>2023-07-02T14:43:37.000Z</time>
      </trkpt>
      <trkpt lat="45.82589" lon="4.7437">
        <ele>395.63007</ele>
        <time>2023-07-02T14:43:38.000Z</time>
      </trkpt>
      <trkpt lat="45.82589" lon="4.74375">
        <ele>395.85468</ele>
        <time>2023-07-02T14:43:39.000Z</time>
      </trkpt>
      <trkpt lat="45.82589" lon="4.7438">
        <ele>396.0762</ele>
        <time>2023-07-02T14:43:40.000Z</time>
      </trkpt>
      <trkpt lat="45.82589" lon="4.74385">
        <ele>396.3093</ele>
        <time>2023-07-02T14:43:41.000Z</time>
      </trkpt>
      <trkpt lat="45.82589" lon="4.7439">
        <ele>396.56317</ele>
        <time>2023-07-02T14:43:42.000Z</time>
      </trkpt>
      <trkpt lat="45.82589" lon="4.74394">
        <ele>396.8143</ele>
        <time>2023-07-02T14:43:43.000Z</time>
      </trkpt>
      <trkpt lat="45.82589" lon="4.74399">
        <ele>397.09482</ele>
        <time>2023-07-02T14:43:44.000Z</time>
      </trkpt>
      <trkpt lat="45.82589" lon="4.74404">
        <ele>397.38538</ele>
        <time>2023-07-02T14:43:45.000Z</time>
      </trkpt>
      <trkpt lat="45.82589" lon="4.74409">
        <ele>398.16379</ele>
        <time>2023-07-02T14:43:46.000Z</time>
      </trkpt>
      <trkpt lat="45.82588" lon="4.74413">
        <ele>398.96442</ele>
        <time>2023-07-02T14:43:47.000Z</time>
      </trkpt>
      <trkpt lat="45.82588" lon="4.74417">
        <ele>399.79523</ele>
        <time>2023-07-02T14:43:48.000Z</time>
      </trkpt>
      <trkpt lat="45.82587" lon="4.7442">
        <ele>400.37778</ele>
        <time>2023-07-02T14:43:49.000Z</time>
      </trkpt>
      <trkpt lat="45.82587" lon="4.74425">
        <ele>401.01312</ele>
        <time>2023-07-02T14:43:50.000Z</time>
      </trkpt>
      <trkpt lat="45.82586" lon="4.74431">
        <ele>401.55746</ele>
        <time>2023-07-02T14:43:51.000Z</time>
      </trkpt>
      <trkpt lat="45.82586" lon="4.74436">
        <ele>402.117</ele>
        <time>2023-07-02T14:43:52.000Z</time>
      </trkpt>
      <trkpt lat="45.82586" lon="4.74441">
        <ele>402.6535</ele>
        <time>2023-07-02T14:43:53.000Z</time>
      </trkpt>
      <trkpt lat="45.82585" lon="4.74446">
        <ele>403.20966</ele>
        <time>2023-07-02T14:43:54.000Z</time>
      </trkpt>
      <trkpt lat="45.82585" lon="4.74451">
        <ele>403.70663</ele>
        <time>2023-07-02T14:43:55.000Z</time>
      </trkpt>
      <trkpt lat="45.82585" lon="4.74455">
        <ele>404.18506</ele>
        <time>2023-07-02T14:43:56.000Z</time>
      </trkpt>
      <trkpt lat="45.82584" lon="4.74459">
        <ele>404.65167</ele>
        <time>2023-07-02T14:43:57.000Z</time>
      </trkpt>
      <trkpt lat="45.82583" lon="4.74463">
        <ele>405.21512</ele>
        <time>2023-07-02T14:43:58.000Z</time>
      </trkpt>
      <trkpt lat="45.82581" lon="4.74467">
        <ele>405.72623</ele>
        <time>2023-07-02T14:43:59.000Z</time>
      </trkpt>
      <trkpt lat="45.82579" lon="4.74469">
        <ele>406.26166</ele>
        <time>2023-07-02T14:44:00.000Z</time>
      </trkpt>
      <trkpt lat="45.82577" lon="4.74471">
        <ele>406.69559</ele>
        <time>2023-07-02T14:44:01.000Z</time>
      </trkpt>
      <trkpt lat="45.82575" lon="4.74473">
        <ele>407.33081</ele>
        <time>2023-07-02T14:44:02.000Z</time>
      </trkpt>
      <trkpt lat="45.82572" lon="4.74476">
        <ele>407.95587</ele>
        <time>2023-07-02T14:44:03.000Z</time>
      </trkpt>
      <trkpt lat="45.8257" lon="4.7448">
        <ele>408.55951</ele>
        <time>2023-07-02T14:44:04.000Z</time>
      </trkpt>
      <trkpt lat="45.82569" lon="4.74485">
        <ele>409.21173</ele>
        <time>2023-07-02T14:44:05.000Z</time>
      </trkpt>
      <trkpt lat="45.82569" lon="4.7449">
        <ele>409.50504</ele>
        <time>2023-07-02T14:44:06.000Z</time>
      </trkpt>
      <trkpt lat="45.8257" lon="4.74493">
        <ele>409.77652</ele>
        <time>2023-07-02T14:44:07.000Z</time>
      </trkpt>
      <trkpt lat="45.82572" lon="4.74496">
        <ele>410.15976</ele>
        <time>2023-07-02T14:44:08.000Z</time>
      </trkpt>
      <trkpt lat="45.82575" lon="4.74498">
        <ele>410.52899</ele>
        <time>2023-07-02T14:44:09.000Z</time>
      </trkpt>
      <trkpt lat="45.82577" lon="4.745">
        <ele>410.93106</ele>
        <time>2023-07-02T14:44:10.000Z</time>
      </trkpt>
      <trkpt lat="45.82577" lon="4.74504">
        <ele>411.3812</ele>
        <time>2023-07-02T14:44:11.000Z</time>
      </trkpt>
      <trkpt lat="45.82578" lon="4.74509">
        <ele>411.83047</ele>
        <time>2023-07-02T14:44:12.000Z</time>
      </trkpt>
      <trkpt lat="45.82579" lon="4.74513">
        <ele>412.3183</ele>
        <time>2023-07-02T14:44:13.000Z</time>
      </trkpt>
      <trkpt lat="45.8258" lon="4.74517">
        <ele>412.77582</ele>
        <time>2023-07-02T14:44:14.000Z</time>
      </trkpt>
      <trkpt lat="45.82582" lon="4.74521">
        <ele>413.31509</ele>
        <time>2023-07-02T14:44:15.000Z</time>
      </trkpt>
      <trkpt lat="45.82584" lon="4.74526">
        <ele>413.85342</ele>
        <time>2023-07-02T14:44:16.000Z</time>
      </trkpt>
      <trkpt lat="45.82586" lon="4.74531">
        <ele>414.3916</ele>
        <time>2023-07-02T14:44:17.000Z</time>
      </trkpt>
      <trkpt lat="45.82587" lon="4.74535">
        <ele>414.84125</ele>
        <time>2023-07-02T14:44:18.000Z</time>
      </trkpt>
      <trkpt lat="45.82588" lon="4.7454">
        <ele>415.3291</ele>
        <time>2023-07-02T14:44:19.000Z</time>
      </trkpt>
      <trkpt lat="45.82589" lon="4.74544">
        <ele>415.80499</ele>
        <time>2023-07-02T14:44:20.000Z</time>
      </trkpt>
      <trkpt lat="45.8259" lon="4.74548">
        <ele>416.37872</ele>
        <time>2023-07-02T14:44:21.000Z</time>
      </trkpt>
      <trkpt lat="45.82592" lon="4.74553">
        <ele>416.73657</ele>
        <time>2023-07-02T14:44:22.000Z</time>
      </trkpt>
      <trkpt lat="45.82593" lon="4.74558">
        <ele>417.11093</ele>
        <time>2023-07-02T14:44:23.000Z</time>
      </trkpt>
      <trkpt lat="45.82595" lon="4.74562">
        <ele>417.44183</ele>
        <time>2023-07-02T14:44:24.000Z</time>
      </trkpt>
      <trkpt lat="45.82597" lon="4.74566">
        <ele>416.95029</ele>
        <time>2023-07-02T14:44:25.000Z</time>
      </trkpt>
      <trkpt lat="45.82598" lon="4.7457">
        <ele>416.51294</ele>
        <time>2023-07-02T14:44:26.000Z</time>
      </trkpt>
      <trkpt lat="45.82599" lon="4.74573">
        <ele>416.04434</ele>
        <time>2023-07-02T14:44:27.000Z</time>
      </trkpt>
      <trkpt lat="45.82602" lon="4.74577">
        <ele>415.45908</ele>
        <time>2023-07-02T14:44:28.000Z</time>
      </trkpt>
      <trkpt lat="45.82605" lon="4.7458">
        <ele>415.23422</ele>
        <time>2023-07-02T14:44:29.000Z</time>
      </trkpt>
      <trkpt lat="45.82608" lon="4.74582">
        <ele>414.80658</ele>
        <time>2023-07-02T14:44:30.000Z</time>
      </trkpt>
      <trkpt lat="45.82612" lon="4.74586">
        <ele>414.36646</ele>
        <time>2023-07-02T14:44:31.000Z</time>
      </trkpt>
      <trkpt lat="45.82614" lon="4.74591">
        <ele>413.92154</ele>
        <time>2023-07-02T14:44:32.000Z</time>
      </trkpt>
      <trkpt lat="45.82617" lon="4.74596">
        <ele>413.51675</ele>
        <time>2023-07-02T14:44:33.000Z</time>
      </trkpt>
      <trkpt lat="45.8262" lon="4.74602">
        <ele>413.15509</ele>
        <time>2023-07-02T14:44:34.000Z</time>
      </trkpt>
      <trkpt lat="45.82624" lon="4.74608">
        <ele>412.78555</ele>
        <time>2023-07-02T14:44:35.000Z</time>
      </trkpt>
      <trkpt lat="45.82628" lon="4.74611">
        <ele>412.40356</ele>
        <time>2023-07-02T14:44:36.000Z</time>
      </trkpt>
      <trkpt lat="45.82632" lon="4.74617">
        <ele>412.0119</ele>
        <time>2023-07-02T14:44:37.000Z</time>
      </trkpt>
      <trkpt lat="45.82633" lon="4.74621">
        <ele>411.60635</ele>
        <time>2023-07-02T14:44:38.000Z</time>
      </trkpt>
      <trkpt lat="45.82637" lon="4.74623">
        <ele>411.26212</ele>
        <time>2023-07-02T14:44:39.000Z</time>
      </trkpt>
      <trkpt lat="45.82641" lon="4.74624">
        <ele>410.85223</ele>
        <time>2023-07-02T14:44:40.000Z</time>
      </trkpt>
      <trkpt lat="45.82645" lon="4.74626">
        <ele>410.46149</ele>
        <time>2023-07-02T14:44:41.000Z</time>
      </trkpt>
      <trkpt lat="45.82649" lon="4.74627">
        <ele>409.94101</ele>
        <time>2023-07-02T14:44:42.000Z</time>
      </trkpt>
      <trkpt lat="45.82652" lon="4.74629">
        <ele>409.28006</ele>
        <time>2023-07-02T14:44:43.000Z</time>
      </trkpt>
      <trkpt lat="45.82654" lon="4.74632">
        <ele>408.71167</ele>
        <time>2023-07-02T14:44:44.000Z</time>
      </trkpt>
      <trkpt lat="45.82654" lon="4.74636">
        <ele>408.99136</ele>
        <time>2023-07-02T14:44:45.000Z</time>
      </trkpt>
      <trkpt lat="45.82655" lon="4.7464">
        <ele>409.27695</ele>
        <time>2023-07-02T14:44:46.000Z</time>
      </trkpt>
      <trkpt lat="45.82656" lon="4.74646">
        <ele>409.62225</ele>
        <time>2023-07-02T14:44:47.000Z</time>
      </trkpt>
      <trkpt lat="45.82656" lon="4.74651">
        <ele>409.76895</ele>
        <time>2023-07-02T14:44:48.000Z</time>
      </trkpt>
      <trkpt lat="45.82657" lon="4.74655">
        <ele>409.54745</ele>
        <time>2023-07-02T14:44:49.000Z</time>
      </trkpt>
      <trkpt lat="45.82657" lon="4.7466">
        <ele>409.30817</ele>
        <time>2023-07-02T14:44:50.000Z</time>
      </trkpt>
      <trkpt lat="45.82658" lon="4.74666">
        <ele>409.37485</ele>
        <time>2023-07-02T14:44:51.000Z</time>
      </trkpt>
      <trkpt lat="45.82659" lon="4.74676">
        <ele>409.24219</ele>
        <time>2023-07-02T14:44:52.000Z</time>
      </trkpt>
      <trkpt lat="45.82661" lon="4.74683">
        <ele>409.03363</ele>
        <time>2023-07-02T14:44:53.000Z</time>
      </trkpt>
      <trkpt lat="45.82662" lon="4.74692">
        <ele>408.78738</ele>
        <time>2023-07-02T14:44:54.000Z</time>
      </trkpt>
      <trkpt lat="45.82663" lon="4.74701">
        <ele>408.5705</ele>
        <time>2023-07-02T14:44:55.000Z</time>
      </trkpt>
      <trkpt lat="45.82663" lon="4.7471">
        <ele>408.38272</ele>
        <time>2023-07-02T14:44:56.000Z</time>
      </trkpt>
      <trkpt lat="45.82663" lon="4.74719">
        <ele>408.20139</ele>
        <time>2023-07-02T14:44:57.000Z</time>
      </trkpt>
      <trkpt lat="45.82663" lon="4.74727">
        <ele>408.11578</ele>
        <time>2023-07-02T14:44:58.000Z</time>
      </trkpt>
      <trkpt lat="45.82665" lon="4.74736">
        <ele>407.95126</ele>
        <time>2023-07-02T14:44:59.000Z</time>
      </trkpt>
      <trkpt lat="45.82665" lon="4.74745">
        <ele>407.62531</ele>
        <time>2023-07-02T14:45:00.000Z</time>
      </trkpt>
      <trkpt lat="45.82664" lon="4.74752">
        <ele>407.20874</ele>
        <time>2023-07-02T14:45:01.000Z</time>
      </trkpt>
      <trkpt lat="45.82661" lon="4.74759">
        <ele>406.69049</ele>
        <time>2023-07-02T14:45:02.000Z</time>
      </trkpt>
      <trkpt lat="45.82658" lon="4.74764">
        <ele>406.31436</ele>
        <time>2023-07-02T14:45:03.000Z</time>
      </trkpt>
      <trkpt lat="45.82653" lon="4.74768">
        <ele>406.25485</ele>
        <time>2023-07-02T14:45:04.000Z</time>
      </trkpt>
      <trkpt lat="45.82648" lon="4.74771">
        <ele>405.97369</ele>
        <time>2023-07-02T14:45:05.000Z</time>
      </trkpt>
      <trkpt lat="45.82646" lon="4.74772">
        <ele>405.61972</ele>
        <time>2023-07-02T14:45:06.000Z</time>
      </trkpt>
      <trkpt lat="45.82642" lon="4.74774">
        <ele>405.20413</ele>
        <time>2023-07-02T14:45:07.000Z</time>
      </trkpt>
      <trkpt lat="45.82639" lon="4.74776">
        <ele>404.75723</ele>
        <time>2023-07-02T14:45:08.000Z</time>
      </trkpt>
      <trkpt lat="45.82635" lon="4.74778">
        <ele>404.20071</ele>
        <time>2023-07-02T14:45:09.000Z</time>
      </trkpt>
      <trkpt lat="45.82632" lon="4.74781">
        <ele>403.63016</ele>
        <time>2023-07-02T14:45:10.000Z</time>
      </trkpt>
      <trkpt lat="45.82628" lon="4.74783">
        <ele>403.05225</ele>
        <time>2023-07-02T14:45:11.000Z</time>
      </trkpt>
      <trkpt lat="45.82624" lon="4.74786">
        <ele>402.59012</ele>
        <time>2023-07-02T14:45:12.000Z</time>
      </trkpt>
      <trkpt lat="45.82619" lon="4.74788">
        <ele>402.13739</ele>
        <time>2023-07-02T14:45:13.000Z</time>
      </trkpt>
      <trkpt lat="45.82613" lon="4.74787">
        <ele>401.62958</ele>
        <time>2023-07-02T14:45:14.000Z</time>
      </trkpt>
      <trkpt lat="45.82608" lon="4.74788">
        <ele>401.18033</ele>
        <time>2023-07-02T14:45:15.000Z</time>
      </trkpt>
      <trkpt lat="45.82604" lon="4.74789">
        <ele>400.73584</ele>
        <time>2023-07-02T14:45:16.000Z</time>
      </trkpt>
      <trkpt lat="45.82599" lon="4.74791">
        <ele>400.23358</ele>
        <time>2023-07-02T14:45:17.000Z</time>
      </trkpt>
      <trkpt lat="45.82595" lon="4.74793">
        <ele>399.66202</ele>
        <time>2023-07-02T14:45:18.000Z</time>
      </trkpt>
      <trkpt lat="45.8259" lon="4.74795">
        <ele>399.1376</ele>
        <time>2023-07-02T14:45:19.000Z</time>
      </trkpt>
      <trkpt lat="45.82585" lon="4.74798">
        <ele>398.86743</ele>
        <time>2023-07-02T14:45:20.000Z</time>
      </trkpt>
      <trkpt lat="45.82581" lon="4.74801">
        <ele>398.74866</ele>
        <time>2023-07-02T14:45:21.000Z</time>
      </trkpt>
      <trkpt lat="45.82578" lon="4.74803">
        <ele>398.84863</ele>
        <time>2023-07-02T14:45:22.000Z</time>
      </trkpt>
      <trkpt lat="45.82573" lon="4.74805">
        <ele>398.97968</ele>
        <time>2023-07-02T14:45:23.000Z</time>
      </trkpt>
      <trkpt lat="45.82569" lon="4.74807">
        <ele>398.76398</ele>
        <time>2023-07-02T14:45:24.000Z</time>
      </trkpt>
      <trkpt lat="45.82566" lon="4.74809">
        <ele>398.64435</ele>
        <time>2023-07-02T14:45:25.000Z</time>
      </trkpt>
      <trkpt lat="45.82564" lon="4.74807">
        <ele>398.66385</ele>
        <time>2023-07-02T14:45:26.000Z</time>
      </trkpt>
      <trkpt lat="45.82561" lon="4.74805">
        <ele>398.92892</ele>
        <time>2023-07-02T14:45:27.000Z</time>
      </trkpt>
      <trkpt lat="45.82559" lon="4.74805">
        <ele>399.44415</ele>
        <time>2023-07-02T14:45:28.000Z</time>
      </trkpt>
      <trkpt lat="45.82556" lon="4.74804">
        <ele>400.00729</ele>
        <time>2023-07-02T14:45:29.000Z</time>
      </trkpt>
      <trkpt lat="45.82554" lon="4.74802">
        <ele>400.79385</ele>
        <time>2023-07-02T14:45:30.000Z</time>
      </trkpt>
      <trkpt lat="45.82551" lon="4.748">
        <ele>401.24033</ele>
        <time>2023-07-02T14:45:31.000Z</time>
      </trkpt>
      <trkpt lat="45.82549" lon="4.74797">
        <ele>401.75165</ele>
        <time>2023-07-02T14:45:32.000Z</time>
      </trkpt>
      <trkpt lat="45.82546" lon="4.74794">
        <ele>402.29608</ele>
        <time>2023-07-02T14:45:33.000Z</time>
      </trkpt>
      <trkpt lat="45.82544" lon="4.74791">
        <ele>402.89053</ele>
        <time>2023-07-02T14:45:34.000Z</time>
      </trkpt>
      <trkpt lat="45.82542" lon="4.74788">
        <ele>403.39661</ele>
        <time>2023-07-02T14:45:35.000Z</time>
      </trkpt>
      <trkpt lat="45.8254" lon="4.74786">
        <ele>403.93768</ele>
        <time>2023-07-02T14:45:36.000Z</time>
      </trkpt>
      <trkpt lat="45.82538" lon="4.74784">
        <ele>404.57251</ele>
        <time>2023-07-02T14:45:37.000Z</time>
      </trkpt>
      <trkpt lat="45.82536" lon="4.74782">
        <ele>405.19226</ele>
        <time>2023-07-02T14:45:38.000Z</time>
      </trkpt>
      <trkpt lat="45.82533" lon="4.74779">
        <ele>405.78809</ele>
        <time>2023-07-02T14:45:39.000Z</time>
      </trkpt>
      <trkpt lat="45.8253" lon="4.74776">
        <ele>406.33652</ele>
        <time>2023-07-02T14:45:40.000Z</time>
      </trkpt>
      <trkpt lat="45.82528" lon="4.74773">
        <ele>406.80923</ele>
        <time>2023-07-02T14:45:41.000Z</time>
      </trkpt>
      <trkpt lat="45.82526" lon="4.74771">
        <ele>407.16064</ele>
        <time>2023-07-02T14:45:42.000Z</time>
      </trkpt>
      <trkpt lat="45.82524" lon="4.74768">
        <ele>407.47894</ele>
        <time>2023-07-02T14:45:43.000Z</time>
      </trkpt>
      <trkpt lat="45.82522" lon="4.74765">
        <ele>407.8371</ele>
        <time>2023-07-02T14:45:44.000Z</time>
      </trkpt>
      <trkpt lat="45.8252" lon="4.74761">
        <ele>408.78937</ele>
        <time>2023-07-02T14:45:45.000Z</time>
      </trkpt>
      <trkpt lat="45.82518" lon="4.74756">
        <ele>409.58438</ele>
        <time>2023-07-02T14:45:46.000Z</time>
      </trkpt>
      <trkpt lat="45.82516" lon="4.7475">
        <ele>410.21539</ele>
        <time>2023-07-02T14:45:47.000Z</time>
      </trkpt>
      <trkpt lat="45.82514" lon="4.74746">
        <ele>410.79419</ele>
        <time>2023-07-02T14:45:48.000Z</time>
      </trkpt>
      <trkpt lat="45.82512" lon="4.74743">
        <ele>411.36337</ele>
        <time>2023-07-02T14:45:49.000Z</time>
      </trkpt>
      <trkpt lat="45.8251" lon="4.7474">
        <ele>411.99139</ele>
        <time>2023-07-02T14:45:50.000Z</time>
      </trkpt>
      <trkpt lat="45.82507" lon="4.7474">
        <ele>412.62152</ele>
        <time>2023-07-02T14:45:51.000Z</time>
      </trkpt>
      <trkpt lat="45.82503" lon="4.7474">
        <ele>413.18829</ele>
        <time>2023-07-02T14:45:52.000Z</time>
      </trkpt>
      <trkpt lat="45.825" lon="4.7474">
        <ele>413.74692</ele>
        <time>2023-07-02T14:45:53.000Z</time>
      </trkpt>
      <trkpt lat="45.82497" lon="4.74741">
        <ele>414.23871</ele>
        <time>2023-07-02T14:45:54.000Z</time>
      </trkpt>
      <trkpt lat="45.82494" lon="4.74742">
        <ele>414.73276</ele>
        <time>2023-07-02T14:45:55.000Z</time>
      </trkpt>
      <trkpt lat="45.8249" lon="4.74743">
        <ele>415.17734</ele>
        <time>2023-07-02T14:45:56.000Z</time>
      </trkpt>
      <trkpt lat="45.82487" lon="4.74743">
        <ele>415.60358</ele>
        <time>2023-07-02T14:45:57.000Z</time>
      </trkpt>
      <trkpt lat="45.82482" lon="4.74743">
        <ele>416.05518</ele>
        <time>2023-07-02T14:45:58.000Z</time>
      </trkpt>
      <trkpt lat="45.82478" lon="4.74743">
        <ele>416.53922</ele>
        <time>2023-07-02T14:45:59.000Z</time>
      </trkpt>
      <trkpt lat="45.82474" lon="4.74743">
        <ele>417.04346</ele>
        <time>2023-07-02T14:46:00.000Z</time>
      </trkpt>
      <trkpt lat="45.82471" lon="4.74743">
        <ele>417.59756</ele>
        <time>2023-07-02T14:46:01.000Z</time>
      </trkpt>
      <trkpt lat="45.82467" lon="4.74742">
        <ele>418.26718</ele>
        <time>2023-07-02T14:46:02.000Z</time>
      </trkpt>
      <trkpt lat="45.82463" lon="4.74742">
        <ele>418.78116</ele>
        <time>2023-07-02T14:46:03.000Z</time>
      </trkpt>
      <trkpt lat="45.8246" lon="4.74743">
        <ele>419.24643</ele>
        <time>2023-07-02T14:46:04.000Z</time>
      </trkpt>
      <trkpt lat="45.82457" lon="4.74743">
        <ele>419.02872</ele>
        <time>2023-07-02T14:46:05.000Z</time>
      </trkpt>
      <trkpt lat="45.82453" lon="4.74744">
        <ele>419.09344</ele>
        <time>2023-07-02T14:46:06.000Z</time>
      </trkpt>
      <trkpt lat="45.82449" lon="4.74745">
        <ele>418.86639</ele>
        <time>2023-07-02T14:46:07.000Z</time>
      </trkpt>
      <trkpt lat="45.82445" lon="4.74746">
        <ele>418.66959</ele>
        <time>2023-07-02T14:46:08.000Z</time>
      </trkpt>
      <trkpt lat="45.82441" lon="4.74746">
        <ele>418.53018</ele>
        <time>2023-07-02T14:46:09.000Z</time>
      </trkpt>
      <trkpt lat="45.82437" lon="4.74746">
        <ele>418.31232</ele>
        <time>2023-07-02T14:46:10.000Z</time>
      </trkpt>
      <trkpt lat="45.82434" lon="4.74746">
        <ele>418.09943</ele>
        <time>2023-07-02T14:46:11.000Z</time>
      </trkpt>
      <trkpt lat="45.82431" lon="4.74745">
        <ele>417.94769</ele>
        <time>2023-07-02T14:46:12.000Z</time>
      </trkpt>
      <trkpt lat="45.82427" lon="4.74744">
        <ele>417.76285</ele>
        <time>2023-07-02T14:46:13.000Z</time>
      </trkpt>
      <trkpt lat="45.82424" lon="4.74744">
        <ele>417.63516</ele>
        <time>2023-07-02T14:46:14.000Z</time>
      </trkpt>
      <trkpt lat="45.82422" lon="4.74743">
        <ele>417.46265</ele>
        <time>2023-07-02T14:46:15.000Z</time>
      </trkpt>
      <trkpt lat="45.8242" lon="4.74742">
        <ele>417.29132</ele>
        <time>2023-07-02T14:46:16.000Z</time>
      </trkpt>
      <trkpt lat="45.82419" lon="4.74738">
        <ele>417.1275</ele>
        <time>2023-07-02T14:46:18.000Z</time>
      </trkpt>
      <trkpt lat="45.82417" lon="4.74735">
        <ele>416.94931</ele>
        <time>2023-07-02T14:46:20.000Z</time>
      </trkpt>
      <trkpt lat="45.82415" lon="4.74733">
        <ele>416.7348</ele>
        <time>2023-07-02T14:46:21.000Z</time>
      </trkpt>
      <trkpt lat="45.82414" lon="4.7473">
        <ele>416.53012</ele>
        <time>2023-07-02T14:46:22.000Z</time>
      </trkpt>
      <trkpt lat="45.82414" lon="4.74726">
        <ele>416.26471</ele>
        <time>2023-07-02T14:46:23.000Z</time>
      </trkpt>
      <trkpt lat="45.82414" lon="4.74721">
        <ele>416.01154</ele>
        <time>2023-07-02T14:46:24.000Z</time>
      </trkpt>
      <trkpt lat="45.82415" lon="4.74716">
        <ele>415.89386</ele>
        <time>2023-07-02T14:46:25.000Z</time>
      </trkpt>
      <trkpt lat="45.82416" lon="4.74711">
        <ele>415.74884</ele>
        <time>2023-07-02T14:46:26.000Z</time>
      </trkpt>
      <trkpt lat="45.82418" lon="4.74706">
        <ele>416.18207</ele>
        <time>2023-07-02T14:46:27.000Z</time>
      </trkpt>
      <trkpt lat="45.8242" lon="4.74702">
        <ele>416.41486</ele>
        <time>2023-07-02T14:46:28.000Z</time>
      </trkpt>
      <trkpt lat="45.82422" lon="4.74697">
        <ele>416.88934</ele>
        <time>2023-07-02T14:46:29.000Z</time>
      </trkpt>
      <trkpt lat="45.82424" lon="4.74689">
        <ele>417.33392</ele>
        <time>2023-07-02T14:46:30.000Z</time>
      </trkpt>
      <trkpt lat="45.82426" lon="4.74684">
        <ele>417.76813</ele>
        <time>2023-07-02T14:46:31.000Z</time>
      </trkpt>
      <trkpt lat="45.82428" lon="4.74676">
        <ele>418.46124</ele>
        <time>2023-07-02T14:46:32.000Z</time>
      </trkpt>
      <trkpt lat="45.82429" lon="4.74669">
        <ele>419.03995</ele>
        <time>2023-07-02T14:46:33.000Z</time>
      </trkpt>
      <trkpt lat="45.82432" lon="4.74659">
        <ele>419.63486</ele>
        <time>2023-07-02T14:46:34.000Z</time>
      </trkpt>
      <trkpt lat="45.82434" lon="4.74651">
        <ele>420.2045</ele>
        <time>2023-07-02T14:46:35.000Z</time>
      </trkpt>
      <trkpt lat="45.82437" lon="4.7464">
        <ele>420.74237</ele>
        <time>2023-07-02T14:46:36.000Z</time>
      </trkpt>
      <trkpt lat="45.82439" lon="4.7463">
        <ele>421.26361</ele>
        <time>2023-07-02T14:46:37.000Z</time>
      </trkpt>
      <trkpt lat="45.8244" lon="4.74618">
        <ele>421.61002</ele>
        <time>2023-07-02T14:46:38.000Z</time>
      </trkpt>
      <trkpt lat="45.82437" lon="4.74606">
        <ele>421.90411</ele>
        <time>2023-07-02T14:46:39.000Z</time>
      </trkpt>
      <trkpt lat="45.82436" lon="4.74593">
        <ele>422.17368</ele>
        <time>2023-07-02T14:46:40.000Z</time>
      </trkpt>
      <trkpt lat="45.82435" lon="4.74581">
        <ele>422.66412</ele>
        <time>2023-07-02T14:46:41.000Z</time>
      </trkpt>
      <trkpt lat="45.82439" lon="4.74574">
        <ele>423.03937</ele>
        <time>2023-07-02T14:46:42.000Z</time>
      </trkpt>
      <trkpt lat="45.82442" lon="4.74566">
        <ele>423.48575</ele>
        <time>2023-07-02T14:46:43.000Z</time>
      </trkpt>
      <trkpt lat="45.82447" lon="4.74561">
        <ele>423.92792</ele>
        <time>2023-07-02T14:46:44.000Z</time>
      </trkpt>
      <trkpt lat="45.82452" lon="4.74557">
        <ele>424.37607</ele>
        <time>2023-07-02T14:46:45.000Z</time>
      </trkpt>
      <trkpt lat="45.82458" lon="4.74554">
        <ele>424.84</ele>
        <time>2023-07-02T14:46:46.000Z</time>
      </trkpt>
      <trkpt lat="45.82464" lon="4.74553">
        <ele>424.81445</ele>
        <time>2023-07-02T14:46:47.000Z</time>
      </trkpt>
      <trkpt lat="45.8247" lon="4.74551">
        <ele>424.77719</ele>
        <time>2023-07-02T14:46:48.000Z</time>
      </trkpt>
      <trkpt lat="45.82475" lon="4.74549">
        <ele>424.69351</ele>
        <time>2023-07-02T14:46:49.000Z</time>
      </trkpt>
      <trkpt lat="45.82481" lon="4.74548">
        <ele>424.61148</ele>
        <time>2023-07-02T14:46:50.000Z</time>
      </trkpt>
      <trkpt lat="45.82486" lon="4.74548">
        <ele>424.56064</ele>
        <time>2023-07-02T14:46:51.000Z</time>
      </trkpt>
      <trkpt lat="45.82491" lon="4.74546">
        <ele>424.19638</ele>
        <time>2023-07-02T14:46:52.000Z</time>
      </trkpt>
      <trkpt lat="45.82496" lon="4.74544">
        <ele>423.93985</ele>
        <time>2023-07-02T14:46:53.000Z</time>
      </trkpt>
      <trkpt lat="45.82503" lon="4.74542">
        <ele>423.65961</ele>
        <time>2023-07-02T14:46:54.000Z</time>
      </trkpt>
      <trkpt lat="45.82507" lon="4.74538">
        <ele>423.36517</ele>
        <time>2023-07-02T14:46:55.000Z</time>
      </trkpt>
      <trkpt lat="45.82512" lon="4.74534">
        <ele>423.08423</ele>
        <time>2023-07-02T14:46:56.000Z</time>
      </trkpt>
      <trkpt lat="45.82519" lon="4.74527">
        <ele>422.64081</ele>
        <time>2023-07-02T14:46:57.000Z</time>
      </trkpt>
      <trkpt lat="45.82524" lon="4.74522">
        <ele>422.36948</ele>
        <time>2023-07-02T14:46:58.000Z</time>
      </trkpt>
      <trkpt lat="45.8253" lon="4.74518">
        <ele>422.17398</ele>
        <time>2023-07-02T14:46:59.000Z</time>
      </trkpt>
      <trkpt lat="45.82537" lon="4.74513">
        <ele>421.9671</ele>
        <time>2023-07-02T14:47:00.000Z</time>
      </trkpt>
      <trkpt lat="45.82543" lon="4.74508">
        <ele>421.54257</ele>
        <time>2023-07-02T14:47:01.000Z</time>
      </trkpt>
      <trkpt lat="45.82548" lon="4.74503">
        <ele>421.18683</ele>
        <time>2023-07-02T14:47:02.000Z</time>
      </trkpt>
      <trkpt lat="45.82554" lon="4.74498">
        <ele>420.75604</ele>
        <time>2023-07-02T14:47:03.000Z</time>
      </trkpt>
      <trkpt lat="45.8256" lon="4.74495">
        <ele>420.30927</ele>
        <time>2023-07-02T14:47:04.000Z</time>
      </trkpt>
      <trkpt lat="45.82564" lon="4.74492">
        <ele>419.86078</ele>
        <time>2023-07-02T14:47:05.000Z</time>
      </trkpt>
      <trkpt lat="45.82565" lon="4.7449">
        <ele>419.54559</ele>
        <time>2023-07-02T14:47:06.000Z</time>
      </trkpt>
      <trkpt lat="45.82566" lon="4.74485">
        <ele>419.27032</ele>
        <time>2023-07-02T14:47:08.000Z</time>
      </trkpt>
      <trkpt lat="45.82565" lon="4.74482">
        <ele>419.01254</ele>
        <time>2023-07-02T14:47:09.000Z</time>
      </trkpt>
      <trkpt lat="45.82566" lon="4.74478">
        <ele>418.78302</ele>
        <time>2023-07-02T14:47:10.000Z</time>
      </trkpt>
      <trkpt lat="45.82568" lon="4.74476">
        <ele>418.57056</ele>
        <time>2023-07-02T14:47:11.000Z</time>
      </trkpt>
      <trkpt lat="45.82569" lon="4.74473">
        <ele>418.32925</ele>
        <time>2023-07-02T14:47:12.000Z</time>
      </trkpt>
      <trkpt lat="45.82571" lon="4.74471">
        <ele>418.10385</ele>
        <time>2023-07-02T14:47:13.000Z</time>
      </trkpt>
      <trkpt lat="45.82574" lon="4.74469">
        <ele>417.8645</ele>
        <time>2023-07-02T14:47:14.000Z</time>
      </trkpt>
      <trkpt lat="45.82577" lon="4.74466">
        <ele>417.63129</ele>
        <time>2023-07-02T14:47:15.000Z</time>
      </trkpt>
      <trkpt lat="45.8258" lon="4.74463">
        <ele>417.43222</ele>
        <time>2023-07-02T14:47:16.000Z</time>
      </trkpt>
      <trkpt lat="45.82582" lon="4.74458">
        <ele>417.08081</ele>
        <time>2023-07-02T14:47:17.000Z</time>
      </trkpt>
      <trkpt lat="45.82582" lon="4.74448">
        <ele>416.90668</ele>
        <time>2023-07-02T14:47:18.000Z</time>
      </trkpt>
      <trkpt lat="45.82584" lon="4.7444">
        <ele>416.71445</ele>
        <time>2023-07-02T14:47:19.000Z</time>
      </trkpt>
      <trkpt lat="45.82585" lon="4.74429">
        <ele>416.38788</ele>
        <time>2023-07-02T14:47:20.000Z</time>
      </trkpt>
      <trkpt lat="45.82586" lon="4.74419">
        <ele>416.07455</ele>
        <time>2023-07-02T14:47:21.000Z</time>
      </trkpt>
      <trkpt lat="45.82587" lon="4.7441">
        <ele>415.7215</ele>
        <time>2023-07-02T14:47:22.000Z</time>
      </trkpt>
      <trkpt lat="45.82588" lon="4.744">
        <ele>415.35083</ele>
        <time>2023-07-02T14:47:23.000Z</time>
      </trkpt>
      <trkpt lat="45.82588" lon="4.74391">
        <ele>414.9519</ele>
        <time>2023-07-02T14:47:24.000Z</time>
      </trkpt>
      <trkpt lat="45.82587" lon="4.74385">
        <ele>414.55746</ele>
        <time>2023-07-02T14:47:25.000Z</time>
      </trkpt>
      <trkpt lat="45.82585" lon="4.74381">
        <ele>414.14386</ele>
        <time>2023-07-02T14:47:26.000Z</time>
      </trkpt>
      <trkpt lat="45.82581" lon="4.74382">
        <ele>413.68359</ele>
        <time>2023-07-02T14:47:27.000Z</time>
      </trkpt>
      <trkpt lat="45.82578" lon="4.74384">
        <ele>413.2084</ele>
        <time>2023-07-02T14:47:28.000Z</time>
      </trkpt>
      <trkpt lat="45.82574" lon="4.74387">
        <ele>412.71249</ele>
        <time>2023-07-02T14:47:29.000Z</time>
      </trkpt>
      <trkpt lat="45.8257" lon="4.74388">
        <ele>412.24194</ele>
        <time>2023-07-02T14:47:30.000Z</time>
      </trkpt>
      <trkpt lat="45.82566" lon="4.74392">
        <ele>411.767</ele>
        <time>2023-07-02T14:47:31.000Z</time>
      </trkpt>
      <trkpt lat="45.82562" lon="4.74394">
        <ele>411.32086</ele>
        <time>2023-07-02T14:47:32.000Z</time>
      </trkpt>
      <trkpt lat="45.82558" lon="4.74396">
        <ele>410.90961</ele>
        <time>2023-07-02T14:47:33.000Z</time>
      </trkpt>
      <trkpt lat="45.82554" lon="4.74398">
        <ele>410.50278</ele>
        <time>2023-07-02T14:47:34.000Z</time>
      </trkpt>
      <trkpt lat="45.82549" lon="4.74399">
        <ele>410.0882</ele>
        <time>2023-07-02T14:47:35.000Z</time>
      </trkpt>
      <trkpt lat="45.82544" lon="4.74401">
        <ele>409.68506</ele>
        <time>2023-07-02T14:47:36.000Z</time>
      </trkpt>
      <trkpt lat="45.82539" lon="4.74403">
        <ele>409.47192</ele>
        <time>2023-07-02T14:47:37.000Z</time>
      </trkpt>
      <trkpt lat="45.82534" lon="4.74405">
        <ele>409.31085</ele>
        <time>2023-07-02T14:47:38.000Z</time>
      </trkpt>
      <trkpt lat="45.82527" lon="4.74407">
        <ele>409.12912</ele>
        <time>2023-07-02T14:47:39.000Z</time>
      </trkpt>
      <trkpt lat="45.82521" lon="4.7441">
        <ele>408.99182</ele>
        <time>2023-07-02T14:47:40.000Z</time>
      </trkpt>
      <trkpt lat="45.82514" lon="4.74412">
        <ele>408.81744</ele>
        <time>2023-07-02T14:47:41.000Z</time>
      </trkpt>
      <trkpt lat="45.82508" lon="4.74415">
        <ele>408.68552</ele>
        <time>2023-07-02T14:47:42.000Z</time>
      </trkpt>
      <trkpt lat="45.825" lon="4.74416">
        <ele>408.57452</ele>
        <time>2023-07-02T14:47:43.000Z</time>
      </trkpt>
      <trkpt lat="45.82493" lon="4.74418">
        <ele>408.49048</ele>
        <time>2023-07-02T14:47:44.000Z</time>
      </trkpt>
      <trkpt lat="45.82486" lon="4.74419">
        <ele>408.42896</ele>
        <time>2023-07-02T14:47:45.000Z</time>
      </trkpt>
      <trkpt lat="45.82479" lon="4.74421">
        <ele>408.34167</ele>
        <time>2023-07-02T14:47:46.000Z</time>
      </trkpt>
      <trkpt lat="45.82472" lon="4.74422">
        <ele>408.14856</ele>
        <time>2023-07-02T14:47:47.000Z</time>
      </trkpt>
      <trkpt lat="45.82465" lon="4.74423">
        <ele>407.94937</ele>
        <time>2023-07-02T14:47:48.000Z</time>
      </trkpt>
      <trkpt lat="45.82459" lon="4.74423">
        <ele>407.7377</ele>
        <time>2023-07-02T14:47:49.000Z</time>
      </trkpt>
      <trkpt lat="45.82451" lon="4.74425">
        <ele>407.504</ele>
        <time>2023-07-02T14:47:50.000Z</time>
      </trkpt>
      <trkpt lat="45.82443" lon="4.74425">
        <ele>407.2807</ele>
        <time>2023-07-02T14:47:51.000Z</time>
      </trkpt>
      <trkpt lat="45.82437" lon="4.74425">
        <ele>407.02643</ele>
        <time>2023-07-02T14:47:52.000Z</time>
      </trkpt>
      <trkpt lat="45.8243" lon="4.74423">
        <ele>406.77231</ele>
        <time>2023-07-02T14:47:53.000Z</time>
      </trkpt>
      <trkpt lat="45.82423" lon="4.74424">
        <ele>406.52277</ele>
        <time>2023-07-02T14:47:54.000Z</time>
      </trkpt>
      <trkpt lat="45.82416" lon="4.74423">
        <ele>406.26593</ele>
        <time>2023-07-02T14:47:55.000Z</time>
      </trkpt>
      <trkpt lat="45.82409" lon="4.74423">
        <ele>406.02859</ele>
        <time>2023-07-02T14:47:56.000Z</time>
      </trkpt>
      <trkpt lat="45.82402" lon="4.74423">
        <ele>405.7804</ele>
        <time>2023-07-02T14:47:57.000Z</time>
      </trkpt>
      <trkpt lat="45.82396" lon="4.74424">
        <ele>405.50458</ele>
        <time>2023-07-02T14:47:58.000Z</time>
      </trkpt>
      <trkpt lat="45.82389" lon="4.74425">
        <ele>405.22198</ele>
        <time>2023-07-02T14:47:59.000Z</time>
      </trkpt>
      <trkpt lat="45.82382" lon="4.74425">
        <ele>404.95697</ele>
        <time>2023-07-02T14:48:00.000Z</time>
      </trkpt>
      <trkpt lat="45.82375" lon="4.74425">
        <ele>404.74628</ele>
        <time>2023-07-02T14:48:01.000Z</time>
      </trkpt>
      <trkpt lat="45.82368" lon="4.74425">
        <ele>404.53256</ele>
        <time>2023-07-02T14:48:02.000Z</time>
      </trkpt>
      <trkpt lat="45.82362" lon="4.74426">
        <ele>404.3457</ele>
        <time>2023-07-02T14:48:03.000Z</time>
      </trkpt>
      <trkpt lat="45.82354" lon="4.74426">
        <ele>404.15482</ele>
        <time>2023-07-02T14:48:04.000Z</time>
      </trkpt>
      <trkpt lat="45.82347" lon="4.74428">
        <ele>403.96109</ele>
        <time>2023-07-02T14:48:05.000Z</time>
      </trkpt>
      <trkpt lat="45.82341" lon="4.74429">
        <ele>403.78448</ele>
        <time>2023-07-02T14:48:06.000Z</time>
      </trkpt>
      <trkpt lat="45.82336" lon="4.7443">
        <ele>403.60971</ele>
        <time>2023-07-02T14:48:07.000Z</time>
      </trkpt>
      <trkpt lat="45.82333" lon="4.7443">
        <ele>403.44431</ele>
        <time>2023-07-02T14:48:08.000Z</time>
      </trkpt>
      <trkpt lat="45.8233" lon="4.74429">
        <ele>403.31516</ele>
        <time>2023-07-02T14:48:09.000Z</time>
      </trkpt>
      <trkpt lat="45.82328" lon="4.74426">
        <ele>403.2164</ele>
        <time>2023-07-02T14:48:10.000Z</time>
      </trkpt>
      <trkpt lat="45.82329" lon="4.74422">
        <ele>403.15826</ele>
        <time>2023-07-02T14:48:11.000Z</time>
      </trkpt>
      <trkpt lat="45.8233" lon="4.74419">
        <ele>403.1131</ele>
        <time>2023-07-02T14:48:12.000Z</time>
      </trkpt>
      <trkpt lat="45.82332" lon="4.74414">
        <ele>403.05466</ele>
        <time>2023-07-02T14:48:13.000Z</time>
      </trkpt>
      <trkpt lat="45.82335" lon="4.7441">
        <ele>403.01028</ele>
        <time>2023-07-02T14:48:14.000Z</time>
      </trkpt>
      <trkpt lat="45.82338" lon="4.74405">
        <ele>402.99991</ele>
        <time>2023-07-02T14:48:15.000Z</time>
      </trkpt>
      <trkpt lat="45.82342" lon="4.744">
        <ele>402.9653</ele>
        <time>2023-07-02T14:48:16.000Z</time>
      </trkpt>
      <trkpt lat="45.82345" lon="4.74395">
        <ele>402.93439</ele>
        <time>2023-07-02T14:48:17.000Z</time>
      </trkpt>
      <trkpt lat="45.82348" lon="4.7439">
        <ele>402.87741</ele>
        <time>2023-07-02T14:48:18.000Z</time>
      </trkpt>
      <trkpt lat="45.82352" lon="4.74384">
        <ele>402.8392</ele>
        <time>2023-07-02T14:48:19.000Z</time>
      </trkpt>
      <trkpt lat="45.82356" lon="4.74379">
        <ele>402.8053</ele>
        <time>2023-07-02T14:48:20.000Z</time>
      </trkpt>
      <trkpt lat="45.8236" lon="4.74374">
        <ele>402.7507</ele>
        <time>2023-07-02T14:48:21.000Z</time>
      </trkpt>
      <trkpt lat="45.82364" lon="4.7437">
        <ele>402.6929</ele>
        <time>2023-07-02T14:48:22.000Z</time>
      </trkpt>
      <trkpt lat="45.82368" lon="4.74364">
        <ele>402.60059</ele>
        <time>2023-07-02T14:48:23.000Z</time>
      </trkpt>
      <trkpt lat="45.82372" lon="4.74359">
        <ele>402.52603</ele>
        <time>2023-07-02T14:48:24.000Z</time>
      </trkpt>
      <trkpt lat="45.82377" lon="4.74354">
        <ele>402.43652</ele>
        <time>2023-07-02T14:48:25.000Z</time>
      </trkpt>
      <trkpt lat="45.8238" lon="4.74348">
        <ele>402.39136</ele>
        <time>2023-07-02T14:48:26.000Z</time>
      </trkpt>
      <trkpt lat="45.82384" lon="4.74343">
        <ele>402.36237</ele>
        <time>2023-07-02T14:48:27.000Z</time>
      </trkpt>
      <trkpt lat="45.82388" lon="4.74338">
        <ele>402.32867</ele>
        <time>2023-07-02T14:48:28.000Z</time>
      </trkpt>
      <trkpt lat="45.82391" lon="4.74332">
        <ele>402.25015</ele>
        <time>2023-07-02T14:48:29.000Z</time>
      </trkpt>
      <trkpt lat="45.82395" lon="4.74328">
        <ele>402.11597</ele>
        <time>2023-07-02T14:48:30.000Z</time>
      </trkpt>
      <trkpt lat="45.82399" lon="4.74323">
        <ele>401.92709</ele>
        <time>2023-07-02T14:48:31.000Z</time>
      </trkpt>
      <trkpt lat="45.82402" lon="4.74317">
        <ele>401.75195</ele>
        <time>2023-07-02T14:48:32.000Z</time>
      </trkpt>
      <trkpt lat="45.82404" lon="4.74312">
        <ele>401.59753</ele>
        <time>2023-07-02T14:48:33.000Z</time>
      </trkpt>
      <trkpt lat="45.82406" lon="4.74306">
        <ele>401.41797</ele>
        <time>2023-07-02T14:48:34.000Z</time>
      </trkpt>
      <trkpt lat="45.82408" lon="4.74299">
        <ele>401.20331</ele>
        <time>2023-07-02T14:48:35.000Z</time>
      </trkpt>
      <trkpt lat="45.82409" lon="4.74292">
        <ele>401.00424</ele>
        <time>2023-07-02T14:48:36.000Z</time>
      </trkpt>
      <trkpt lat="45.8241" lon="4.74283">
        <ele>400.78729</ele>
        <time>2023-07-02T14:48:37.000Z</time>
      </trkpt>
      <trkpt lat="45.8241" lon="4.74275">
        <ele>400.57007</ele>
        <time>2023-07-02T14:48:38.000Z</time>
      </trkpt>
      <trkpt lat="45.8241" lon="4.74266">
        <ele>400.36554</ele>
        <time>2023-07-02T14:48:39.000Z</time>
      </trkpt>
      <trkpt lat="45.82411" lon="4.74261">
        <ele>400.13312</ele>
        <time>2023-07-02T14:48:40.000Z</time>
      </trkpt>
      <trkpt lat="45.82412" lon="4.74255">
        <ele>399.90137</ele>
        <time>2023-07-02T14:48:41.000Z</time>
      </trkpt>
      <trkpt lat="45.82411" lon="4.74249">
        <ele>399.66638</ele>
        <time>2023-07-02T14:48:42.000Z</time>
      </trkpt>
      <trkpt lat="45.82408" lon="4.74246">
        <ele>399.46088</ele>
        <time>2023-07-02T14:48:43.000Z</time>
      </trkpt>
      <trkpt lat="45.82405" lon="4.74245">
        <ele>399.27438</ele>
        <time>2023-07-02T14:48:44.000Z</time>
      </trkpt>
      <trkpt lat="45.82402" lon="4.74244">
        <ele>399.08734</ele>
        <time>2023-07-02T14:48:45.000Z</time>
      </trkpt>
      <trkpt lat="45.82399" lon="4.74243">
        <ele>398.88464</ele>
        <time>2023-07-02T14:48:46.000Z</time>
      </trkpt>
      <trkpt lat="45.82396" lon="4.74241">
        <ele>398.7131</ele>
        <time>2023-07-02T14:48:47.000Z</time>
      </trkpt>
      <trkpt lat="45.82394" lon="4.74239">
        <ele>398.56573</ele>
        <time>2023-07-02T14:48:48.000Z</time>
      </trkpt>
      <trkpt lat="45.82391" lon="4.74237">
        <ele>398.42801</ele>
        <time>2023-07-02T14:48:49.000Z</time>
      </trkpt>
      <trkpt lat="45.82387" lon="4.74235">
        <ele>398.32944</ele>
        <time>2023-07-02T14:48:50.000Z</time>
      </trkpt>
      <trkpt lat="45.82383" lon="4.74233">
        <ele>398.20654</ele>
        <time>2023-07-02T14:48:51.000Z</time>
      </trkpt>
      <trkpt lat="45.82379" lon="4.74229">
        <ele>398.02618</ele>
        <time>2023-07-02T14:48:52.000Z</time>
      </trkpt>
      <trkpt lat="45.82376" lon="4.74227">
        <ele>397.80734</ele>
        <time>2023-07-02T14:48:53.000Z</time>
      </trkpt>
      <trkpt lat="45.82371" lon="4.74225">
        <ele>397.59381</ele>
        <time>2023-07-02T14:48:54.000Z</time>
      </trkpt>
      <trkpt lat="45.82367" lon="4.74221">
        <ele>397.32227</ele>
        <time>2023-07-02T14:48:55.000Z</time>
      </trkpt>
      <trkpt lat="45.8236" lon="4.74217">
        <ele>397.01697</ele>
        <time>2023-07-02T14:48:56.000Z</time>
      </trkpt>
      <trkpt lat="45.82354" lon="4.74212">
        <ele>396.71039</ele>
        <time>2023-07-02T14:48:57.000Z</time>
      </trkpt>
      <trkpt lat="45.82347" lon="4.74208">
        <ele>396.41345</ele>
        <time>2023-07-02T14:48:58.000Z</time>
      </trkpt>
      <trkpt lat="45.82339" lon="4.74202">
        <ele>396.14252</ele>
        <time>2023-07-02T14:48:59.000Z</time>
      </trkpt>
      <trkpt lat="45.82332" lon="4.74195">
        <ele>395.94147</ele>
        <time>2023-07-02T14:49:00.000Z</time>
      </trkpt>
      <trkpt lat="45.82325" lon="4.74188">
        <ele>395.76852</ele>
        <time>2023-07-02T14:49:01.000Z</time>
      </trkpt>
      <trkpt lat="45.82319" lon="4.7418">
        <ele>395.60419</ele>
        <time>2023-07-02T14:49:02.000Z</time>
      </trkpt>
      <trkpt lat="45.82313" lon="4.74174">
        <ele>395.31769</ele>
        <time>2023-07-02T14:49:03.000Z</time>
      </trkpt>
      <trkpt lat="45.82308" lon="4.74167">
        <ele>394.99622</ele>
        <time>2023-07-02T14:49:04.000Z</time>
      </trkpt>
      <trkpt lat="45.82304" lon="4.7416">
        <ele>394.70297</ele>
        <time>2023-07-02T14:49:05.000Z</time>
      </trkpt>
      <trkpt lat="45.82299" lon="4.74151">
        <ele>394.42618</ele>
        <time>2023-07-02T14:49:06.000Z</time>
      </trkpt>
      <trkpt lat="45.82297" lon="4.74144">
        <ele>394.11508</ele>
        <time>2023-07-02T14:49:07.000Z</time>
      </trkpt>
      <trkpt lat="45.82294" lon="4.74136">
        <ele>393.75125</ele>
        <time>2023-07-02T14:49:08.000Z</time>
      </trkpt>
      <trkpt lat="45.82292" lon="4.7413">
        <ele>393.34637</ele>
        <time>2023-07-02T14:49:09.000Z</time>
      </trkpt>
      <trkpt lat="45.82288" lon="4.74125">
        <ele>392.93204</ele>
        <time>2023-07-02T14:49:10.000Z</time>
      </trkpt>
      <trkpt lat="45.82285" lon="4.74119">
        <ele>392.53143</ele>
        <time>2023-07-02T14:49:11.000Z</time>
      </trkpt>
      <trkpt lat="45.82282" lon="4.74114">
        <ele>392.15411</ele>
        <time>2023-07-02T14:49:12.000Z</time>
      </trkpt>
      <trkpt lat="45.82279" lon="4.74108">
        <ele>391.81308</ele>
        <time>2023-07-02T14:49:13.000Z</time>
      </trkpt>
      <trkpt lat="45.82275" lon="4.74105">
        <ele>391.4751</ele>
        <time>2023-07-02T14:49:14.000Z</time>
      </trkpt>
      <trkpt lat="45.82271" lon="4.74102">
        <ele>391.18527</ele>
        <time>2023-07-02T14:49:15.000Z</time>
      </trkpt>
      <trkpt lat="45.82267" lon="4.74097">
        <ele>390.88055</ele>
        <time>2023-07-02T14:49:16.000Z</time>
      </trkpt>
      <trkpt lat="45.82262" lon="4.74093">
        <ele>390.58704</ele>
        <time>2023-07-02T14:49:17.000Z</time>
      </trkpt>
      <trkpt lat="45.82258" lon="4.74089">
        <ele>390.31775</ele>
        <time>2023-07-02T14:49:18.000Z</time>
      </trkpt>
      <trkpt lat="45.82254" lon="4.74086">
        <ele>390.01981</ele>
        <time>2023-07-02T14:49:19.000Z</time>
      </trkpt>
      <trkpt lat="45.8225" lon="4.74082">
        <ele>389.66791</ele>
        <time>2023-07-02T14:49:20.000Z</time>
      </trkpt>
      <trkpt lat="45.82247" lon="4.74079">
        <ele>389.28278</ele>
        <time>2023-07-02T14:49:21.000Z</time>
      </trkpt>
      <trkpt lat="45.82243" lon="4.74075">
        <ele>388.87015</ele>
        <time>2023-07-02T14:49:22.000Z</time>
      </trkpt>
      <trkpt lat="45.82241" lon="4.74071">
        <ele>388.57239</ele>
        <time>2023-07-02T14:49:23.000Z</time>
      </trkpt>
      <trkpt lat="45.82239" lon="4.74068">
        <ele>388.1059</ele>
        <time>2023-07-02T14:49:25.000Z</time>
      </trkpt>
      <trkpt lat="45.82238" lon="4.74071">
        <ele>387.69724</ele>
        <time>2023-07-02T14:49:43.000Z</time>
      </trkpt>
      <trkpt lat="45.8224" lon="4.74072">
        <ele>386.34897</ele>
        <time>2023-07-02T14:49:52.000Z</time>
      </trkpt>
      <trkpt lat="45.82241" lon="4.74075">
        <ele>387.16742</ele>
        <time>2023-07-02T14:49:57.000Z</time>
      </trkpt>
      <trkpt lat="45.82243" lon="4.74077">
        <ele>388.06186</ele>
        <time>2023-07-02T14:49:59.000Z</time>
      </trkpt>
      <trkpt lat="45.82245" lon="4.74078">
        <ele>389.39417</ele>
        <time>2023-07-02T14:50:00.000Z</time>
      </trkpt>
      <trkpt lat="45.82247" lon="4.7408">
        <ele>390.74014</ele>
        <time>2023-07-02T14:50:01.000Z</time>
      </trkpt>
      <trkpt lat="45.8225" lon="4.74082">
        <ele>392.10938</ele>
        <time>2023-07-02T14:50:02.000Z</time>
      </trkpt>
      <trkpt lat="45.82252" lon="4.74084">
        <ele>393.50815</ele>
        <time>2023-07-02T14:50:03.000Z</time>
      </trkpt>
      <trkpt lat="45.82254" lon="4.74087">
        <ele>394.89862</ele>
        <time>2023-07-02T14:50:04.000Z</time>
      </trkpt>
      <trkpt lat="45.82257" lon="4.7409">
        <ele>396.30945</ele>
        <time>2023-07-02T14:50:05.000Z</time>
      </trkpt>
      <trkpt lat="45.82259" lon="4.74092">
        <ele>398.00723</ele>
        <time>2023-07-02T14:50:06.000Z</time>
      </trkpt>
      <trkpt lat="45.82261" lon="4.74094">
        <ele>399.77124</ele>
        <time>2023-07-02T14:50:07.000Z</time>
      </trkpt>
      <trkpt lat="45.82264" lon="4.74097">
        <ele>400.72067</ele>
        <time>2023-07-02T14:50:08.000Z</time>
      </trkpt>
      <trkpt lat="45.82266" lon="4.74099">
        <ele>401.83783</ele>
        <time>2023-07-02T14:50:09.000Z</time>
      </trkpt>
      <trkpt lat="45.82269" lon="4.74102">
        <ele>402.96381</ele>
        <time>2023-07-02T14:50:10.000Z</time>
      </trkpt>
      <trkpt lat="45.82272" lon="4.74105">
        <ele>404.10654</ele>
        <time>2023-07-02T14:50:11.000Z</time>
      </trkpt>
      <trkpt lat="45.82275" lon="4.74108">
        <ele>405.27118</ele>
        <time>2023-07-02T14:50:12.000Z</time>
      </trkpt>
      <trkpt lat="45.82278" lon="4.74112">
        <ele>406.46558</ele>
        <time>2023-07-02T14:50:13.000Z</time>
      </trkpt>
      <trkpt lat="45.82281" lon="4.74116">
        <ele>407.70602</ele>
        <time>2023-07-02T14:50:14.000Z</time>
      </trkpt>
      <trkpt lat="45.82284" lon="4.74121">
        <ele>409.13556</ele>
        <time>2023-07-02T14:50:15.000Z</time>
      </trkpt>
      <trkpt lat="45.82287" lon="4.74125">
        <ele>410.46271</ele>
        <time>2023-07-02T14:50:16.000Z</time>
      </trkpt>
      <trkpt lat="45.8229" lon="4.7413">
        <ele>412.7684</ele>
        <time>2023-07-02T14:50:17.000Z</time>
      </trkpt>
      <trkpt lat="45.82292" lon="4.74134">
        <ele>412.88141</ele>
        <time>2023-07-02T14:50:18.000Z</time>
      </trkpt>
      <trkpt lat="45.82294" lon="4.74139">
        <ele>412.98779</ele>
        <time>2023-07-02T14:50:19.000Z</time>
      </trkpt>
      <trkpt lat="45.82297" lon="4.74145">
        <ele>413.27057</ele>
        <time>2023-07-02T14:50:20.000Z</time>
      </trkpt>
      <trkpt lat="45.82299" lon="4.7415">
        <ele>413.5629</ele>
        <time>2023-07-02T14:50:21.000Z</time>
      </trkpt>
      <trkpt lat="45.82302" lon="4.74155">
        <ele>413.86557</ele>
        <time>2023-07-02T14:50:22.000Z</time>
      </trkpt>
      <trkpt lat="45.82304" lon="4.74161">
        <ele>414.1712</ele>
        <time>2023-07-02T14:50:23.000Z</time>
      </trkpt>
      <trkpt lat="45.82307" lon="4.74165">
        <ele>414.49503</ele>
        <time>2023-07-02T14:50:24.000Z</time>
      </trkpt>
      <trkpt lat="45.8231" lon="4.74169">
        <ele>414.82657</ele>
        <time>2023-07-02T14:50:25.000Z</time>
      </trkpt>
      <trkpt lat="45.82313" lon="4.74172">
        <ele>413.41464</ele>
        <time>2023-07-02T14:50:26.000Z</time>
      </trkpt>
      <trkpt lat="45.82314" lon="4.74175">
        <ele>411.87241</ele>
        <time>2023-07-02T14:50:27.000Z</time>
      </trkpt>
      <trkpt lat="45.82317" lon="4.74178">
        <ele>411.16644</ele>
        <time>2023-07-02T14:50:28.000Z</time>
      </trkpt>
      <trkpt lat="45.82317" lon="4.7418">
        <ele>410.2832</ele>
        <time>2023-07-02T14:50:29.000Z</time>
      </trkpt>
      <trkpt lat="45.82319" lon="4.74182">
        <ele>409.40851</ele>
        <time>2023-07-02T14:50:30.000Z</time>
      </trkpt>
      <trkpt lat="45.82321" lon="4.74184">
        <ele>408.55069</ele>
        <time>2023-07-02T14:50:31.000Z</time>
      </trkpt>
      <trkpt lat="45.8232" lon="4.74182">
        <ele>407.69766</ele>
        <time>2023-07-02T14:50:39.000Z</time>
      </trkpt>
      <trkpt lat="45.82319" lon="4.74179">
        <ele>406.87006</ele>
        <time>2023-07-02T14:50:41.000Z</time>
      </trkpt>
      <trkpt lat="45.82316" lon="4.74176">
        <ele>406.05875</ele>
        <time>2023-07-02T14:50:50.000Z</time>
      </trkpt>
      <trkpt lat="45.82315" lon="4.74173">
        <ele>405.14081</ele>
        <time>2023-07-02T14:50:51.000Z</time>
      </trkpt>
      <trkpt lat="45.82314" lon="4.74169">
        <ele>404.28473</ele>
        <time>2023-07-02T14:50:52.000Z</time>
      </trkpt>
      <trkpt lat="45.82315" lon="4.74165">
        <ele>403.37888</ele>
        <time>2023-07-02T14:50:53.000Z</time>
      </trkpt>
      <trkpt lat="45.82317" lon="4.74163">
        <ele>402.51868</ele>
        <time>2023-07-02T14:50:54.000Z</time>
      </trkpt>
      <trkpt lat="45.8232" lon="4.74162">
        <ele>401.64206</ele>
        <time>2023-07-02T14:50:55.000Z</time>
      </trkpt>
      <trkpt lat="45.82323" lon="4.74162">
        <ele>400.18982</ele>
        <time>2023-07-02T14:50:56.000Z</time>
      </trkpt>
      <trkpt lat="45.82326" lon="4.74162">
        <ele>398.72052</ele>
        <time>2023-07-02T14:50:57.000Z</time>
      </trkpt>
      <trkpt lat="45.82329" lon="4.74161">
        <ele>397.22717</ele>
        <time>2023-07-02T14:50:58.000Z</time>
      </trkpt>
      <trkpt lat="45.82331" lon="4.74158">
        <ele>395.70117</ele>
        <time>2023-07-02T14:50:59.000Z</time>
      </trkpt>
      <trkpt lat="45.82334" lon="4.74153">
        <ele>394.23837</ele>
        <time>2023-07-02T14:51:00.000Z</time>
      </trkpt>
      <trkpt lat="45.82336" lon="4.74149">
        <ele>392.67789</ele>
        <time>2023-07-02T14:51:01.000Z</time>
      </trkpt>
      <trkpt lat="45.82338" lon="4.74146">
        <ele>392.617</ele>
        <time>2023-07-02T14:51:02.000Z</time>
      </trkpt>
      <trkpt lat="45.8234" lon="4.74142">
        <ele>392.68842</ele>
        <time>2023-07-02T14:51:03.000Z</time>
      </trkpt>
      <trkpt lat="45.82343" lon="4.74139">
        <ele>392.7399</ele>
        <time>2023-07-02T14:51:04.000Z</time>
      </trkpt>
      <trkpt lat="45.82345" lon="4.74136">
        <ele>392.7796</ele>
        <time>2023-07-02T14:51:05.000Z</time>
      </trkpt>
      <trkpt lat="45.82347" lon="4.74132">
        <ele>392.89789</ele>
        <time>2023-07-02T14:51:06.000Z</time>
      </trkpt>
      <trkpt lat="45.8235" lon="4.74129">
        <ele>393.03287</ele>
        <time>2023-07-02T14:51:07.000Z</time>
      </trkpt>
      <trkpt lat="45.82352" lon="4.74125">
        <ele>393.06027</ele>
        <time>2023-07-02T14:51:08.000Z</time>
      </trkpt>
      <trkpt lat="45.82355" lon="4.74121">
        <ele>393.07047</ele>
        <time>2023-07-02T14:51:09.000Z</time>
      </trkpt>
      <trkpt lat="45.82358" lon="4.74117">
        <ele>393.00485</ele>
        <time>2023-07-02T14:51:10.000Z</time>
      </trkpt>
      <trkpt lat="45.8236" lon="4.74113">
        <ele>393.04254</ele>
        <time>2023-07-02T14:51:11.000Z</time>
      </trkpt>
      <trkpt lat="45.82363" lon="4.74109">
        <ele>393.04489</ele>
        <time>2023-07-02T14:51:12.000Z</time>
      </trkpt>
      <trkpt lat="45.82365" lon="4.74106">
        <ele>393.05103</ele>
        <time>2023-07-02T14:51:13.000Z</time>
      </trkpt>
      <trkpt lat="45.82368" lon="4.74102">
        <ele>393.05341</ele>
        <time>2023-07-02T14:51:14.000Z</time>
      </trkpt>
      <trkpt lat="45.8237" lon="4.74098">
        <ele>393.02011</ele>
        <time>2023-07-02T14:51:15.000Z</time>
      </trkpt>
      <trkpt lat="45.82373" lon="4.74094">
        <ele>392.60043</ele>
        <time>2023-07-02T14:51:16.000Z</time>
      </trkpt>
      <trkpt lat="45.82375" lon="4.74091">
        <ele>392.17838</ele>
        <time>2023-07-02T14:51:17.000Z</time>
      </trkpt>
      <trkpt lat="45.82377" lon="4.74088">
        <ele>391.70279</ele>
        <time>2023-07-02T14:51:18.000Z</time>
      </trkpt>
      <trkpt lat="45.82378" lon="4.74086">
        <ele>391.21893</ele>
        <time>2023-07-02T14:51:19.000Z</time>
      </trkpt>
      <trkpt lat="45.8238" lon="4.74084">
        <ele>390.76932</ele>
        <time>2023-07-02T14:51:26.000Z</time>
      </trkpt>
      <trkpt lat="45.82382" lon="4.74082">
        <ele>390.37671</ele>
        <time>2023-07-02T14:51:28.000Z</time>
      </trkpt>
      <trkpt lat="45.82384" lon="4.74082">
        <ele>389.97272</ele>
        <time>2023-07-02T14:51:30.000Z</time>
      </trkpt>
      <trkpt lat="45.82386" lon="4.74084">
        <ele>389.45633</ele>
        <time>2023-07-02T14:51:35.000Z</time>
      </trkpt>
      <trkpt lat="45.82387" lon="4.74085">
        <ele>389.44748</ele>
        <time>2023-07-02T14:51:36.000Z</time>
      </trkpt>
      <trkpt lat="45.82389" lon="4.74088">
        <ele>389.51389</ele>
        <time>2023-07-02T14:51:37.000Z</time>
      </trkpt>
      <trkpt lat="45.82391" lon="4.7409">
        <ele>389.51801</ele>
        <time>2023-07-02T14:51:38.000Z</time>
      </trkpt>
      <trkpt lat="45.82392" lon="4.74093">
        <ele>389.52969</ele>
        <time>2023-07-02T14:51:39.000Z</time>
      </trkpt>
      <trkpt lat="45.82394" lon="4.74096">
        <ele>389.64548</ele>
        <time>2023-07-02T14:51:41.000Z</time>
      </trkpt>
      <trkpt lat="45.82397" lon="4.74099">
        <ele>389.78329</ele>
        <time>2023-07-02T14:51:43.000Z</time>
      </trkpt>
      <trkpt lat="45.82399" lon="4.74099">
        <ele>389.45151</ele>
        <time>2023-07-02T14:51:44.000Z</time>
      </trkpt>
      <trkpt lat="45.82401" lon="4.74099">
        <ele>389.12653</ele>
        <time>2023-07-02T14:51:45.000Z</time>
      </trkpt>
      <trkpt lat="45.82403" lon="4.74097">
        <ele>389.21799</ele>
        <time>2023-07-02T14:51:46.000Z</time>
      </trkpt>
      <trkpt lat="45.82405" lon="4.74093">
        <ele>389.27353</ele>
        <time>2023-07-02T14:51:47.000Z</time>
      </trkpt>
      <trkpt lat="45.82407" lon="4.74089">
        <ele>389.33304</ele>
        <time>2023-07-02T14:51:48.000Z</time>
      </trkpt>
      <trkpt lat="45.82408" lon="4.74084">
        <ele>389.42026</ele>
        <time>2023-07-02T14:51:49.000Z</time>
      </trkpt>
      <trkpt lat="45.8241" lon="4.7408">
        <ele>389.9422</ele>
        <time>2023-07-02T14:51:50.000Z</time>
      </trkpt>
      <trkpt lat="45.82413" lon="4.74075">
        <ele>390.46735</ele>
        <time>2023-07-02T14:51:51.000Z</time>
      </trkpt>
      <trkpt lat="45.82415" lon="4.7407">
        <ele>391.03876</ele>
        <time>2023-07-02T14:51:52.000Z</time>
      </trkpt>
      <trkpt lat="45.82417" lon="4.74065">
        <ele>391.64343</ele>
        <time>2023-07-02T14:51:53.000Z</time>
      </trkpt>
      <trkpt lat="45.82419" lon="4.74061">
        <ele>392.17142</ele>
        <time>2023-07-02T14:51:54.000Z</time>
      </trkpt>
      <trkpt lat="45.82421" lon="4.74056">
        <ele>392.73495</ele>
        <time>2023-07-02T14:51:55.000Z</time>
      </trkpt>
      <trkpt lat="45.82423" lon="4.74052">
        <ele>393.21661</ele>
        <time>2023-07-02T14:51:56.000Z</time>
      </trkpt>
      <trkpt lat="45.82425" lon="4.74047">
        <ele>393.81165</ele>
        <time>2023-07-02T14:51:57.000Z</time>
      </trkpt>
      <trkpt lat="45.82428" lon="4.74043">
        <ele>393.91635</ele>
        <time>2023-07-02T14:51:58.000Z</time>
      </trkpt>
      <trkpt lat="45.8243" lon="4.74038">
        <ele>393.95691</ele>
        <time>2023-07-02T14:51:59.000Z</time>
      </trkpt>
      <trkpt lat="45.82432" lon="4.74034">
        <ele>393.96127</ele>
        <time>2023-07-02T14:52:00.000Z</time>
      </trkpt>
      <trkpt lat="45.82434" lon="4.7403">
        <ele>393.89996</ele>
        <time>2023-07-02T14:52:01.000Z</time>
      </trkpt>
      <trkpt lat="45.82436" lon="4.74025">
        <ele>393.8212</ele>
        <time>2023-07-02T14:52:02.000Z</time>
      </trkpt>
      <trkpt lat="45.82438" lon="4.74021">
        <ele>393.69772</ele>
        <time>2023-07-02T14:52:03.000Z</time>
      </trkpt>
      <trkpt lat="45.8244" lon="4.74016">
        <ele>394.0484</ele>
        <time>2023-07-02T14:52:04.000Z</time>
      </trkpt>
      <trkpt lat="45.82442" lon="4.74012">
        <ele>394.3537</ele>
        <time>2023-07-02T14:52:05.000Z</time>
      </trkpt>
      <trkpt lat="45.82444" lon="4.74008">
        <ele>394.31894</ele>
        <time>2023-07-02T14:52:06.000Z</time>
      </trkpt>
      <trkpt lat="45.82446" lon="4.74003">
        <ele>393.72845</ele>
        <time>2023-07-02T14:52:07.000Z</time>
      </trkpt>
      <trkpt lat="45.82449" lon="4.73999">
        <ele>393.11087</ele>
        <time>2023-07-02T14:52:08.000Z</time>
      </trkpt>
      <trkpt lat="45.82451" lon="4.73994">
        <ele>392.68347</ele>
        <time>2023-07-02T14:52:09.000Z</time>
      </trkpt>
      <trkpt lat="45.82453" lon="4.7399">
        <ele>392.19675</ele>
        <time>2023-07-02T14:52:10.000Z</time>
      </trkpt>
      <trkpt lat="45.82455" lon="4.73985">
        <ele>391.72021</ele>
        <time>2023-07-02T14:52:11.000Z</time>
      </trkpt>
      <trkpt lat="45.82456" lon="4.73981">
        <ele>391.25958</ele>
        <time>2023-07-02T14:52:12.000Z</time>
      </trkpt>
      <trkpt lat="45.82458" lon="4.73976">
        <ele>390.77814</ele>
        <time>2023-07-02T14:52:13.000Z</time>
      </trkpt>
      <trkpt lat="45.8246" lon="4.73972">
        <ele>390.26837</ele>
        <time>2023-07-02T14:52:14.000Z</time>
      </trkpt>
      <trkpt lat="45.82461" lon="4.73969">
        <ele>389.73761</ele>
        <time>2023-07-02T14:52:15.000Z</time>
      </trkpt>
      <trkpt lat="45.82463" lon="4.73964">
        <ele>389.26028</ele>
        <time>2023-07-02T14:52:16.000Z</time>
      </trkpt>
      <trkpt lat="45.82465" lon="4.7396">
        <ele>388.77432</ele>
        <time>2023-07-02T14:52:17.000Z</time>
      </trkpt>
      <trkpt lat="45.82467" lon="4.73956">
        <ele>388.23389</ele>
        <time>2023-07-02T14:52:18.000Z</time>
      </trkpt>
      <trkpt lat="45.82468" lon="4.73953">
        <ele>387.67294</ele>
        <time>2023-07-02T14:52:19.000Z</time>
      </trkpt>
      <trkpt lat="45.8247" lon="4.73951">
        <ele>387.03424</ele>
        <time>2023-07-02T14:52:20.000Z</time>
      </trkpt>
      <trkpt lat="45.82472" lon="4.73947">
        <ele>386.41284</ele>
        <time>2023-07-02T14:52:22.000Z</time>
      </trkpt>
      <trkpt lat="45.82474" lon="4.73944">
        <ele>385.95679</ele>
        <time>2023-07-02T14:52:23.000Z</time>
      </trkpt>
      <trkpt lat="45.82475" lon="4.73941">
        <ele>385.49731</ele>
        <time>2023-07-02T14:52:24.000Z</time>
      </trkpt>
      <trkpt lat="45.82476" lon="4.73937">
        <ele>385.04462</ele>
        <time>2023-07-02T14:52:25.000Z</time>
      </trkpt>
      <trkpt lat="45.82477" lon="4.73933">
        <ele>384.64545</ele>
        <time>2023-07-02T14:52:26.000Z</time>
      </trkpt>
      <trkpt lat="45.82479" lon="4.73928">
        <ele>384.16754</ele>
        <time>2023-07-02T14:52:27.000Z</time>
      </trkpt>
      <trkpt lat="45.8248" lon="4.73924">
        <ele>384.25909</ele>
        <time>2023-07-02T14:52:28.000Z</time>
      </trkpt>
      <trkpt lat="45.82481" lon="4.73919">
        <ele>384.36002</ele>
        <time>2023-07-02T14:52:29.000Z</time>
      </trkpt>
      <trkpt lat="45.82482" lon="4.73914">
        <ele>384.15982</ele>
        <time>2023-07-02T14:52:30.000Z</time>
      </trkpt>
      <trkpt lat="45.82482" lon="4.7391">
        <ele>383.9899</ele>
        <time>2023-07-02T14:52:31.000Z</time>
      </trkpt>
      <trkpt lat="45.82483" lon="4.73906">
        <ele>383.81769</ele>
        <time>2023-07-02T14:52:32.000Z</time>
      </trkpt>
      <trkpt lat="45.82483" lon="4.73902">
        <ele>383.595</ele>
        <time>2023-07-02T14:52:33.000Z</time>
      </trkpt>
      <trkpt lat="45.82484" lon="4.73897">
        <ele>383.57111</ele>
        <time>2023-07-02T14:52:34.000Z</time>
      </trkpt>
      <trkpt lat="45.82485" lon="4.73893">
        <ele>383.5524</ele>
        <time>2023-07-02T14:52:35.000Z</time>
      </trkpt>
      <trkpt lat="45.82486" lon="4.7389">
        <ele>383.53766</ele>
        <time>2023-07-02T14:52:36.000Z</time>
      </trkpt>
      <trkpt lat="45.82489" lon="4.73887">
        <ele>383.53403</ele>
        <time>2023-07-02T14:52:37.000Z</time>
      </trkpt>
      <trkpt lat="45.82492" lon="4.73885">
        <ele>383.53741</ele>
        <time>2023-07-02T14:52:38.000Z</time>
      </trkpt>
      <trkpt lat="45.82495" lon="4.73884">
        <ele>383.61478</ele>
        <time>2023-07-02T14:52:39.000Z</time>
      </trkpt>
      <trkpt lat="45.82498" lon="4.73884">
        <ele>383.73245</ele>
        <time>2023-07-02T14:52:40.000Z</time>
      </trkpt>
      <trkpt lat="45.82502" lon="4.73884">
        <ele>383.96283</ele>
        <time>2023-07-02T14:52:41.000Z</time>
      </trkpt>
      <trkpt lat="45.82505" lon="4.73884">
        <ele>384.2326</ele>
        <time>2023-07-02T14:52:42.000Z</time>
      </trkpt>
      <trkpt lat="45.82508" lon="4.73884">
        <ele>384.28387</ele>
        <time>2023-07-02T14:52:43.000Z</time>
      </trkpt>
      <trkpt lat="45.8251" lon="4.73884">
        <ele>384.36261</ele>
        <time>2023-07-02T14:52:44.000Z</time>
      </trkpt>
      <trkpt lat="45.82513" lon="4.73882">
        <ele>384.42267</ele>
        <time>2023-07-02T14:52:45.000Z</time>
      </trkpt>
      <trkpt lat="45.82516" lon="4.73879">
        <ele>384.44312</ele>
        <time>2023-07-02T14:52:46.000Z</time>
      </trkpt>
      <trkpt lat="45.82518" lon="4.73875">
        <ele>384.47937</ele>
        <time>2023-07-02T14:52:47.000Z</time>
      </trkpt>
      <trkpt lat="45.82521" lon="4.73872">
        <ele>384.54715</ele>
        <time>2023-07-02T14:52:48.000Z</time>
      </trkpt>
      <trkpt lat="45.82523" lon="4.73869">
        <ele>384.59607</ele>
        <time>2023-07-02T14:52:49.000Z</time>
      </trkpt>
      <trkpt lat="45.82526" lon="4.73865">
        <ele>384.73834</ele>
        <time>2023-07-02T14:52:50.000Z</time>
      </trkpt>
      <trkpt lat="45.82529" lon="4.7386">
        <ele>384.9104</ele>
        <time>2023-07-02T14:52:51.000Z</time>
      </trkpt>
      <trkpt lat="45.82531" lon="4.73854">
        <ele>385.0267</ele>
        <time>2023-07-02T14:52:52.000Z</time>
      </trkpt>
      <trkpt lat="45.82533" lon="4.73847">
        <ele>385.18192</ele>
        <time>2023-07-02T14:52:53.000Z</time>
      </trkpt>
      <trkpt lat="45.82533" lon="4.7384">
        <ele>385.17593</ele>
        <time>2023-07-02T14:52:54.000Z</time>
      </trkpt>
      <trkpt lat="45.82534" lon="4.73833">
        <ele>385.17548</ele>
        <time>2023-07-02T14:52:55.000Z</time>
      </trkpt>
      <trkpt lat="45.82535" lon="4.73827">
        <ele>385.18268</ele>
        <time>2023-07-02T14:52:56.000Z</time>
      </trkpt>
      <trkpt lat="45.82534" lon="4.7382">
        <ele>385.18378</ele>
        <time>2023-07-02T14:52:57.000Z</time>
      </trkpt>
      <trkpt lat="45.82532" lon="4.73815">
        <ele>385.16888</ele>
        <time>2023-07-02T14:52:58.000Z</time>
      </trkpt>
      <trkpt lat="45.8253" lon="4.73808">
        <ele>385.11047</ele>
        <time>2023-07-02T14:52:59.000Z</time>
      </trkpt>
      <trkpt lat="45.82528" lon="4.73802">
        <ele>385.01947</ele>
        <time>2023-07-02T14:53:00.000Z</time>
      </trkpt>
      <trkpt lat="45.82526" lon="4.73796">
        <ele>384.8981</ele>
        <time>2023-07-02T14:53:01.000Z</time>
      </trkpt>
      <trkpt lat="45.82523" lon="4.7379">
        <ele>384.75262</ele>
        <time>2023-07-02T14:53:02.000Z</time>
      </trkpt>
      <trkpt lat="45.8252" lon="4.73783">
        <ele>384.67133</ele>
        <time>2023-07-02T14:53:03.000Z</time>
      </trkpt>
      <trkpt lat="45.82518" lon="4.73776">
        <ele>384.76199</ele>
        <time>2023-07-02T14:53:04.000Z</time>
      </trkpt>
      <trkpt lat="45.82516" lon="4.7377">
        <ele>384.83154</ele>
        <time>2023-07-02T14:53:05.000Z</time>
      </trkpt>
      <trkpt lat="45.82514" lon="4.73763">
        <ele>384.92203</ele>
        <time>2023-07-02T14:53:06.000Z</time>
      </trkpt>
      <trkpt lat="45.82511" lon="4.73758">
        <ele>384.98666</ele>
        <time>2023-07-02T14:53:07.000Z</time>
      </trkpt>
      <trkpt lat="45.82508" lon="4.73752">
        <ele>385.02463</ele>
        <time>2023-07-02T14:53:08.000Z</time>
      </trkpt>
      <trkpt lat="45.82505" lon="4.73746">
        <ele>385.08038</ele>
        <time>2023-07-02T14:53:09.000Z</time>
      </trkpt>
      <trkpt lat="45.82502" lon="4.7374">
        <ele>385.17462</ele>
        <time>2023-07-02T14:53:10.000Z</time>
      </trkpt>
      <trkpt lat="45.82499" lon="4.73734">
        <ele>385.24524</ele>
        <time>2023-07-02T14:53:11.000Z</time>
      </trkpt>
      <trkpt lat="45.82496" lon="4.73729">
        <ele>385.36911</ele>
        <time>2023-07-02T14:53:12.000Z</time>
      </trkpt>
      <trkpt lat="45.82492" lon="4.73724">
        <ele>385.46326</ele>
        <time>2023-07-02T14:53:13.000Z</time>
      </trkpt>
      <trkpt lat="45.82489" lon="4.73719">
        <ele>385.51727</ele>
        <time>2023-07-02T14:53:14.000Z</time>
      </trkpt>
      <trkpt lat="45.82487" lon="4.73714">
        <ele>385.5087</ele>
        <time>2023-07-02T14:53:15.000Z</time>
      </trkpt>
      <trkpt lat="45.82484" lon="4.73708">
        <ele>385.46884</ele>
        <time>2023-07-02T14:53:16.000Z</time>
      </trkpt>
      <trkpt lat="45.8248" lon="4.73703">
        <ele>385.6579</ele>
        <time>2023-07-02T14:53:17.000Z</time>
      </trkpt>
      <trkpt lat="45.82478" lon="4.73696">
        <ele>385.79306</ele>
        <time>2023-07-02T14:53:18.000Z</time>
      </trkpt>
      <trkpt lat="45.82475" lon="4.73692">
        <ele>385.95502</ele>
        <time>2023-07-02T14:53:19.000Z</time>
      </trkpt>
      <trkpt lat="45.82472" lon="4.73686">
        <ele>386.14005</ele>
        <time>2023-07-02T14:53:20.000Z</time>
      </trkpt>
      <trkpt lat="45.82469" lon="4.73681">
        <ele>386.33682</ele>
        <time>2023-07-02T14:53:21.000Z</time>
      </trkpt>
      <trkpt lat="45.82465" lon="4.73677">
        <ele>386.57111</ele>
        <time>2023-07-02T14:53:22.000Z</time>
      </trkpt>
      <trkpt lat="45.82462" lon="4.73672">
        <ele>386.81134</ele>
        <time>2023-07-02T14:53:23.000Z</time>
      </trkpt>
      <trkpt lat="45.82459" lon="4.73666">
        <ele>386.88849</ele>
        <time>2023-07-02T14:53:24.000Z</time>
      </trkpt>
      <trkpt lat="45.82456" lon="4.7366">
        <ele>387.0195</ele>
        <time>2023-07-02T14:53:25.000Z</time>
      </trkpt>
      <trkpt lat="45.82453" lon="4.73654">
        <ele>387.16071</ele>
        <time>2023-07-02T14:53:26.000Z</time>
      </trkpt>
      <trkpt lat="45.82451" lon="4.73648">
        <ele>387.28192</ele>
        <time>2023-07-02T14:53:27.000Z</time>
      </trkpt>
      <trkpt lat="45.82448" lon="4.73643">
        <ele>387.39017</ele>
        <time>2023-07-02T14:53:28.000Z</time>
      </trkpt>
      <trkpt lat="45.82445" lon="4.73637">
        <ele>387.50446</ele>
        <time>2023-07-02T14:53:29.000Z</time>
      </trkpt>
      <trkpt lat="45.82443" lon="4.73632">
        <ele>387.55768</ele>
        <time>2023-07-02T14:53:30.000Z</time>
      </trkpt>
      <trkpt lat="45.82441" lon="4.73625">
        <ele>387.57187</ele>
        <time>2023-07-02T14:53:31.000Z</time>
      </trkpt>
      <trkpt lat="45.82438" lon="4.73619">
        <ele>387.59625</ele>
        <time>2023-07-02T14:53:32.000Z</time>
      </trkpt>
      <trkpt lat="45.82436" lon="4.73614">
        <ele>387.673</ele>
        <time>2023-07-02T14:53:33.000Z</time>
      </trkpt>
      <trkpt lat="45.82433" lon="4.73608">
        <ele>387.78595</ele>
        <time>2023-07-02T14:53:34.000Z</time>
      </trkpt>
      <trkpt lat="45.82431" lon="4.73602">
        <ele>387.82242</ele>
        <time>2023-07-02T14:53:35.000Z</time>
      </trkpt>
      <trkpt lat="45.82429" lon="4.73595">
        <ele>387.87216</ele>
        <time>2023-07-02T14:53:36.000Z</time>
      </trkpt>
      <trkpt lat="45.82426" lon="4.7359">
        <ele>387.72031</ele>
        <time>2023-07-02T14:53:37.000Z</time>
      </trkpt>
      <trkpt lat="45.82423" lon="4.73585">
        <ele>387.63446</ele>
        <time>2023-07-02T14:53:38.000Z</time>
      </trkpt>
      <trkpt lat="45.8242" lon="4.7358">
        <ele>387.55414</ele>
        <time>2023-07-02T14:53:39.000Z</time>
      </trkpt>
      <trkpt lat="45.82418" lon="4.73575">
        <ele>387.43488</ele>
        <time>2023-07-02T14:53:40.000Z</time>
      </trkpt>
      <trkpt lat="45.82415" lon="4.73569">
        <ele>387.5527</ele>
        <time>2023-07-02T14:53:41.000Z</time>
      </trkpt>
      <trkpt lat="45.82413" lon="4.73563">
        <ele>387.57211</ele>
        <time>2023-07-02T14:53:42.000Z</time>
      </trkpt>
      <trkpt lat="45.82411" lon="4.73558">
        <ele>387.45142</ele>
        <time>2023-07-02T14:53:43.000Z</time>
      </trkpt>
      <trkpt lat="45.82408" lon="4.73553">
        <ele>387.33807</ele>
        <time>2023-07-02T14:53:44.000Z</time>
      </trkpt>
      <trkpt lat="45.82405" lon="4.73547">
        <ele>387.21518</ele>
        <time>2023-07-02T14:53:45.000Z</time>
      </trkpt>
      <trkpt lat="45.82402" lon="4.73542">
        <ele>387.08182</ele>
        <time>2023-07-02T14:53:46.000Z</time>
      </trkpt>
      <trkpt lat="45.82401" lon="4.73537">
        <ele>386.98227</ele>
        <time>2023-07-02T14:53:47.000Z</time>
      </trkpt>
      <trkpt lat="45.82397" lon="4.73532">
        <ele>386.8811</ele>
        <time>2023-07-02T14:53:48.000Z</time>
      </trkpt>
      <trkpt lat="45.82395" lon="4.73526">
        <ele>386.78555</ele>
        <time>2023-07-02T14:53:49.000Z</time>
      </trkpt>
      <trkpt lat="45.82393" lon="4.7352">
        <ele>386.96848</ele>
        <time>2023-07-02T14:53:50.000Z</time>
      </trkpt>
      <trkpt lat="45.82391" lon="4.73514">
        <ele>387.13971</ele>
        <time>2023-07-02T14:53:51.000Z</time>
      </trkpt>
      <trkpt lat="45.82388" lon="4.73508">
        <ele>387.30264</ele>
        <time>2023-07-02T14:53:52.000Z</time>
      </trkpt>
      <trkpt lat="45.82387" lon="4.73502">
        <ele>387.45782</ele>
        <time>2023-07-02T14:53:53.000Z</time>
      </trkpt>
      <trkpt lat="45.82384" lon="4.73496">
        <ele>387.59174</ele>
        <time>2023-07-02T14:53:54.000Z</time>
      </trkpt>
      <trkpt lat="45.82382" lon="4.7349">
        <ele>387.8609</ele>
        <time>2023-07-02T14:53:55.000Z</time>
      </trkpt>
      <trkpt lat="45.8238" lon="4.73485">
        <ele>388.12103</ele>
        <time>2023-07-02T14:53:56.000Z</time>
      </trkpt>
      <trkpt lat="45.82377" lon="4.7348">
        <ele>388.38998</ele>
        <time>2023-07-02T14:53:57.000Z</time>
      </trkpt>
      <trkpt lat="45.82374" lon="4.73473">
        <ele>388.48703</ele>
        <time>2023-07-02T14:53:58.000Z</time>
      </trkpt>
      <trkpt lat="45.82372" lon="4.73467">
        <ele>388.57837</ele>
        <time>2023-07-02T14:53:59.000Z</time>
      </trkpt>
      <trkpt lat="45.82369" lon="4.73461">
        <ele>388.67593</ele>
        <time>2023-07-02T14:54:00.000Z</time>
      </trkpt>
      <trkpt lat="45.82365" lon="4.73455">
        <ele>388.50922</ele>
        <time>2023-07-02T14:54:01.000Z</time>
      </trkpt>
      <trkpt lat="45.82362" lon="4.7345">
        <ele>388.64325</ele>
        <time>2023-07-02T14:54:02.000Z</time>
      </trkpt>
      <trkpt lat="45.82359" lon="4.73444">
        <ele>388.87582</ele>
        <time>2023-07-02T14:54:03.000Z</time>
      </trkpt>
      <trkpt lat="45.82357" lon="4.7344">
        <ele>389.08334</ele>
        <time>2023-07-02T14:54:04.000Z</time>
      </trkpt>
      <trkpt lat="45.82354" lon="4.73434">
        <ele>389.27954</ele>
        <time>2023-07-02T14:54:05.000Z</time>
      </trkpt>
      <trkpt lat="45.82351" lon="4.73429">
        <ele>389.47446</ele>
        <time>2023-07-02T14:54:06.000Z</time>
      </trkpt>
      <trkpt lat="45.82347" lon="4.73424">
        <ele>389.68719</ele>
        <time>2023-07-02T14:54:07.000Z</time>
      </trkpt>
      <trkpt lat="45.82345" lon="4.73419">
        <ele>389.9198</ele>
        <time>2023-07-02T14:54:08.000Z</time>
      </trkpt>
      <trkpt lat="45.82341" lon="4.73414">
        <ele>390.15802</ele>
        <time>2023-07-02T14:54:09.000Z</time>
      </trkpt>
      <trkpt lat="45.82338" lon="4.7341">
        <ele>390.18002</ele>
        <time>2023-07-02T14:54:10.000Z</time>
      </trkpt>
      <trkpt lat="45.82336" lon="4.73402">
        <ele>390.2529</ele>
        <time>2023-07-02T14:54:11.000Z</time>
      </trkpt>
      <trkpt lat="45.82334" lon="4.73396">
        <ele>390.25272</ele>
        <time>2023-07-02T14:54:12.000Z</time>
      </trkpt>
      <trkpt lat="45.82332" lon="4.7339">
        <ele>390.24341</ele>
        <time>2023-07-02T14:54:13.000Z</time>
      </trkpt>
      <trkpt lat="45.8233" lon="4.73384">
        <ele>390.22833</ele>
        <time>2023-07-02T14:54:14.000Z</time>
      </trkpt>
      <trkpt lat="45.82327" lon="4.73378">
        <ele>390.21329</ele>
        <time>2023-07-02T14:54:15.000Z</time>
      </trkpt>
      <trkpt lat="45.82324" lon="4.73373">
        <ele>390.07141</ele>
        <time>2023-07-02T14:54:16.000Z</time>
      </trkpt>
      <trkpt lat="45.82321" lon="4.73367">
        <ele>389.90201</ele>
        <time>2023-07-02T14:54:17.000Z</time>
      </trkpt>
      <trkpt lat="45.82319" lon="4.73362">
        <ele>389.87494</ele>
        <time>2023-07-02T14:54:18.000Z</time>
      </trkpt>
      <trkpt lat="45.82317" lon="4.73356">
        <ele>389.80835</ele>
        <time>2023-07-02T14:54:19.000Z</time>
      </trkpt>
      <trkpt lat="45.82315" lon="4.73349">
        <ele>390.00961</ele>
        <time>2023-07-02T14:54:20.000Z</time>
      </trkpt>
      <trkpt lat="45.82313" lon="4.73343">
        <ele>390.19366</ele>
        <time>2023-07-02T14:54:21.000Z</time>
      </trkpt>
      <trkpt lat="45.82312" lon="4.73336">
        <ele>390.13635</ele>
        <time>2023-07-02T14:54:22.000Z</time>
      </trkpt>
      <trkpt lat="45.8231" lon="4.73329">
        <ele>390.11719</ele>
        <time>2023-07-02T14:54:23.000Z</time>
      </trkpt>
      <trkpt lat="45.82308" lon="4.73322">
        <ele>389.95074</ele>
        <time>2023-07-02T14:54:24.000Z</time>
      </trkpt>
      <trkpt lat="45.82306" lon="4.73315">
        <ele>389.7756</ele>
        <time>2023-07-02T14:54:25.000Z</time>
      </trkpt>
      <trkpt lat="45.82304" lon="4.73309">
        <ele>389.62811</ele>
        <time>2023-07-02T14:54:26.000Z</time>
      </trkpt>
      <trkpt lat="45.82301" lon="4.73303">
        <ele>389.42935</ele>
        <time>2023-07-02T14:54:27.000Z</time>
      </trkpt>
      <trkpt lat="45.82299" lon="4.73297">
        <ele>389.20874</ele>
        <time>2023-07-02T14:54:28.000Z</time>
      </trkpt>
      <trkpt lat="45.82297" lon="4.73291">
        <ele>388.98126</ele>
        <time>2023-07-02T14:54:29.000Z</time>
      </trkpt>
      <trkpt lat="45.82294" lon="4.73284">
        <ele>388.73669</ele>
        <time>2023-07-02T14:54:30.000Z</time>
      </trkpt>
      <trkpt lat="45.82291" lon="4.73278">
        <ele>388.73895</ele>
        <time>2023-07-02T14:54:31.000Z</time>
      </trkpt>
      <trkpt lat="45.82288" lon="4.73275">
        <ele>388.76099</ele>
        <time>2023-07-02T14:54:32.000Z</time>
      </trkpt>
      <trkpt lat="45.82284" lon="4.73273">
        <ele>388.75848</ele>
        <time>2023-07-02T14:54:33.000Z</time>
      </trkpt>
      <trkpt lat="45.8228" lon="4.73275">
        <ele>388.78799</ele>
        <time>2023-07-02T14:54:34.000Z</time>
      </trkpt>
      <trkpt lat="45.82276" lon="4.73277">
        <ele>388.79306</ele>
        <time>2023-07-02T14:54:35.000Z</time>
      </trkpt>
      <trkpt lat="45.82273" lon="4.73279">
        <ele>388.91788</ele>
        <time>2023-07-02T14:54:36.000Z</time>
      </trkpt>
      <trkpt lat="45.8227" lon="4.73281">
        <ele>389.05759</ele>
        <time>2023-07-02T14:54:37.000Z</time>
      </trkpt>
      <trkpt lat="45.82268" lon="4.73283">
        <ele>389.06705</ele>
        <time>2023-07-02T14:54:38.000Z</time>
      </trkpt>
      <trkpt lat="45.82266" lon="4.73285">
        <ele>389.07938</ele>
        <time>2023-07-02T14:54:39.000Z</time>
      </trkpt>
      <trkpt lat="45.82263" lon="4.73287">
        <ele>388.76605</ele>
        <time>2023-07-02T14:54:40.000Z</time>
      </trkpt>
      <trkpt lat="45.82261" lon="4.73288">
        <ele>388.68826</ele>
        <time>2023-07-02T14:54:41.000Z</time>
      </trkpt>
      <trkpt lat="45.82258" lon="4.73289">
        <ele>388.59735</ele>
        <time>2023-07-02T14:54:42.000Z</time>
      </trkpt>
      <trkpt lat="45.82255" lon="4.7329">
        <ele>388.51996</ele>
        <time>2023-07-02T14:54:43.000Z</time>
      </trkpt>
      <trkpt lat="45.82254" lon="4.73289">
        <ele>388.62878</ele>
        <time>2023-07-02T14:54:52.000Z</time>
      </trkpt>
      <trkpt lat="45.82255" lon="4.73287">
        <ele>388.76578</ele>
        <time>2023-07-02T14:55:18.000Z</time>
      </trkpt>
      <trkpt lat="45.82252" lon="4.73289">
        <ele>388.84351</ele>
        <time>2023-07-02T14:55:35.000Z</time>
      </trkpt>
      <trkpt lat="45.8225" lon="4.73289">
        <ele>388.94211</ele>
        <time>2023-07-02T14:55:36.000Z</time>
      </trkpt>
      <trkpt lat="45.82248" lon="4.7329">
        <ele>389.08194</ele>
        <time>2023-07-02T14:55:37.000Z</time>
      </trkpt>
      <trkpt lat="45.82246" lon="4.73291">
        <ele>389.17108</ele>
        <time>2023-07-02T14:55:38.000Z</time>
      </trkpt>
      <trkpt lat="45.82243" lon="4.73293">
        <ele>389.25732</ele>
        <time>2023-07-02T14:55:39.000Z</time>
      </trkpt>
      <trkpt lat="45.8224" lon="4.73294">
        <ele>389.07721</ele>
        <time>2023-07-02T14:55:40.000Z</time>
      </trkpt>
      <trkpt lat="45.82237" lon="4.73295">
        <ele>388.95612</ele>
        <time>2023-07-02T14:55:41.000Z</time>
      </trkpt>
      <trkpt lat="45.82234" lon="4.73296">
        <ele>388.8721</ele>
        <time>2023-07-02T14:55:42.000Z</time>
      </trkpt>
      <trkpt lat="45.8223" lon="4.73298">
        <ele>388.77997</ele>
        <time>2023-07-02T14:55:43.000Z</time>
      </trkpt>
      <trkpt lat="45.82225" lon="4.73301">
        <ele>388.70035</ele>
        <time>2023-07-02T14:55:44.000Z</time>
      </trkpt>
      <trkpt lat="45.82221" lon="4.73303">
        <ele>388.61929</ele>
        <time>2023-07-02T14:55:45.000Z</time>
      </trkpt>
      <trkpt lat="45.82217" lon="4.73304">
        <ele>388.50732</ele>
        <time>2023-07-02T14:55:46.000Z</time>
      </trkpt>
      <trkpt lat="45.82212" lon="4.73307">
        <ele>388.53799</ele>
        <time>2023-07-02T14:55:47.000Z</time>
      </trkpt>
      <trkpt lat="45.82207" lon="4.7331">
        <ele>388.58463</ele>
        <time>2023-07-02T14:55:48.000Z</time>
      </trkpt>
      <trkpt lat="45.82201" lon="4.73313">
        <ele>388.7341</ele>
        <time>2023-07-02T14:55:49.000Z</time>
      </trkpt>
      <trkpt lat="45.82195" lon="4.73317">
        <ele>388.67422</ele>
        <time>2023-07-02T14:55:50.000Z</time>
      </trkpt>
      <trkpt lat="45.8219" lon="4.73319">
        <ele>388.63229</ele>
        <time>2023-07-02T14:55:51.000Z</time>
      </trkpt>
      <trkpt lat="45.82185" lon="4.73321">
        <ele>388.57904</ele>
        <time>2023-07-02T14:55:52.000Z</time>
      </trkpt>
      <trkpt lat="45.82179" lon="4.73321">
        <ele>388.4968</ele>
        <time>2023-07-02T14:55:53.000Z</time>
      </trkpt>
      <trkpt lat="45.82174" lon="4.73317">
        <ele>388.38815</ele>
        <time>2023-07-02T14:55:54.000Z</time>
      </trkpt>
      <trkpt lat="45.8217" lon="4.73311">
        <ele>388.29581</ele>
        <time>2023-07-02T14:55:55.000Z</time>
      </trkpt>
      <trkpt lat="45.82168" lon="4.73305">
        <ele>388.23404</ele>
        <time>2023-07-02T14:55:56.000Z</time>
      </trkpt>
      <trkpt lat="45.82165" lon="4.73298">
        <ele>388.16208</ele>
        <time>2023-07-02T14:55:57.000Z</time>
      </trkpt>
      <trkpt lat="45.82162" lon="4.73292">
        <ele>386.66959</ele>
        <time>2023-07-02T14:55:58.000Z</time>
      </trkpt>
      <trkpt lat="45.82158" lon="4.73286">
        <ele>385.89087</ele>
        <time>2023-07-02T14:55:59.000Z</time>
      </trkpt>
      <trkpt lat="45.82152" lon="4.73289">
        <ele>385.84955</ele>
        <time>2023-07-02T14:56:00.000Z</time>
      </trkpt>
      <trkpt lat="45.82146" lon="4.73289">
        <ele>385.79639</ele>
        <time>2023-07-02T14:56:01.000Z</time>
      </trkpt>
      <trkpt lat="45.82141" lon="4.73291">
        <ele>385.72076</ele>
        <time>2023-07-02T14:56:02.000Z</time>
      </trkpt>
      <trkpt lat="45.82135" lon="4.73294">
        <ele>385.63998</ele>
        <time>2023-07-02T14:56:03.000Z</time>
      </trkpt>
      <trkpt lat="45.82129" lon="4.73296">
        <ele>385.53775</ele>
        <time>2023-07-02T14:56:04.000Z</time>
      </trkpt>
      <trkpt lat="45.82123" lon="4.73297">
        <ele>385.43747</ele>
        <time>2023-07-02T14:56:05.000Z</time>
      </trkpt>
      <trkpt lat="45.82116" lon="4.73297">
        <ele>385.34613</ele>
        <time>2023-07-02T14:56:06.000Z</time>
      </trkpt>
      <trkpt lat="45.82109" lon="4.73299">
        <ele>385.22882</ele>
        <time>2023-07-02T14:56:07.000Z</time>
      </trkpt>
      <trkpt lat="45.82103" lon="4.73301">
        <ele>385.08292</ele>
        <time>2023-07-02T14:56:08.000Z</time>
      </trkpt>
      <trkpt lat="45.82096" lon="4.73304">
        <ele>384.88831</ele>
        <time>2023-07-02T14:56:09.000Z</time>
      </trkpt>
      <trkpt lat="45.8209" lon="4.73308">
        <ele>384.70117</ele>
        <time>2023-07-02T14:56:10.000Z</time>
      </trkpt>
      <trkpt lat="45.82083" lon="4.73311">
        <ele>384.50034</ele>
        <time>2023-07-02T14:56:11.000Z</time>
      </trkpt>
      <trkpt lat="45.82077" lon="4.73315">
        <ele>384.37573</ele>
        <time>2023-07-02T14:56:12.000Z</time>
      </trkpt>
      <trkpt lat="45.82071" lon="4.73319">
        <ele>384.25769</ele>
        <time>2023-07-02T14:56:13.000Z</time>
      </trkpt>
      <trkpt lat="45.82065" lon="4.73322">
        <ele>384.07239</ele>
        <time>2023-07-02T14:56:14.000Z</time>
      </trkpt>
      <trkpt lat="45.8206" lon="4.73326">
        <ele>385.37939</ele>
        <time>2023-07-02T14:56:15.000Z</time>
      </trkpt>
      <trkpt lat="45.82056" lon="4.73329">
        <ele>386.66122</ele>
        <time>2023-07-02T14:56:16.000Z</time>
      </trkpt>
      <trkpt lat="45.82051" lon="4.73331">
        <ele>387.92294</ele>
        <time>2023-07-02T14:56:17.000Z</time>
      </trkpt>
      <trkpt lat="45.82047" lon="4.73333">
        <ele>390.65039</ele>
        <time>2023-07-02T14:56:18.000Z</time>
      </trkpt>
      <trkpt lat="45.82042" lon="4.73336">
        <ele>391.24918</ele>
        <time>2023-07-02T14:56:19.000Z</time>
      </trkpt>
      <trkpt lat="45.82038" lon="4.7334">
        <ele>391.12555</ele>
        <time>2023-07-02T14:56:20.000Z</time>
      </trkpt>
      <trkpt lat="45.82035" lon="4.73343">
        <ele>391.00629</ele>
        <time>2023-07-02T14:56:21.000Z</time>
      </trkpt>
      <trkpt lat="45.8203" lon="4.73347">
        <ele>390.95346</ele>
        <time>2023-07-02T14:56:22.000Z</time>
      </trkpt>
      <trkpt lat="45.82026" lon="4.73352">
        <ele>390.89081</ele>
        <time>2023-07-02T14:56:23.000Z</time>
      </trkpt>
      <trkpt lat="45.82021" lon="4.73356">
        <ele>390.85522</ele>
        <time>2023-07-02T14:56:24.000Z</time>
      </trkpt>
      <trkpt lat="45.82017" lon="4.7336">
        <ele>390.79877</ele>
        <time>2023-07-02T14:56:25.000Z</time>
      </trkpt>
      <trkpt lat="45.82014" lon="4.73363">
        <ele>390.7193</ele>
        <time>2023-07-02T14:56:26.000Z</time>
      </trkpt>
      <trkpt lat="45.8201" lon="4.73367">
        <ele>390.67789</ele>
        <time>2023-07-02T14:56:27.000Z</time>
      </trkpt>
      <trkpt lat="45.82005" lon="4.7337">
        <ele>390.68549</ele>
        <time>2023-07-02T14:56:28.000Z</time>
      </trkpt>
      <trkpt lat="45.82" lon="4.73373">
        <ele>390.69672</ele>
        <time>2023-07-02T14:56:29.000Z</time>
      </trkpt>
      <trkpt lat="45.81996" lon="4.73377">
        <ele>390.72116</ele>
        <time>2023-07-02T14:56:30.000Z</time>
      </trkpt>
      <trkpt lat="45.81991" lon="4.73381">
        <ele>390.75821</ele>
        <time>2023-07-02T14:56:31.000Z</time>
      </trkpt>
      <trkpt lat="45.81987" lon="4.73384">
        <ele>390.68338</ele>
        <time>2023-07-02T14:56:32.000Z</time>
      </trkpt>
      <trkpt lat="45.81983" lon="4.73387">
        <ele>390.5932</ele>
        <time>2023-07-02T14:56:33.000Z</time>
      </trkpt>
      <trkpt lat="45.81978" lon="4.73389">
        <ele>390.56525</ele>
        <time>2023-07-02T14:56:34.000Z</time>
      </trkpt>
      <trkpt lat="45.81974" lon="4.73393">
        <ele>389.06427</ele>
        <time>2023-07-02T14:56:35.000Z</time>
      </trkpt>
      <trkpt lat="45.81969" lon="4.73398">
        <ele>387.56509</ele>
        <time>2023-07-02T14:56:36.000Z</time>
      </trkpt>
      <trkpt lat="45.81963" lon="4.734">
        <ele>386.03015</ele>
        <time>2023-07-02T14:56:37.000Z</time>
      </trkpt>
      <trkpt lat="45.8196" lon="4.73403">
        <ele>384.49307</ele>
        <time>2023-07-02T14:56:38.000Z</time>
      </trkpt>
      <trkpt lat="45.81954" lon="4.73408">
        <ele>384.32837</ele>
        <time>2023-07-02T14:56:39.000Z</time>
      </trkpt>
      <trkpt lat="45.8195" lon="4.73411">
        <ele>383.49182</ele>
        <time>2023-07-02T14:56:40.000Z</time>
      </trkpt>
      <trkpt lat="45.81945" lon="4.73417">
        <ele>382.64307</ele>
        <time>2023-07-02T14:56:41.000Z</time>
      </trkpt>
      <trkpt lat="45.81943" lon="4.73424">
        <ele>381.74875</ele>
        <time>2023-07-02T14:56:42.000Z</time>
      </trkpt>
      <trkpt lat="45.81941" lon="4.73432">
        <ele>381.55682</ele>
        <time>2023-07-02T14:56:43.000Z</time>
      </trkpt>
      <trkpt lat="45.8194" lon="4.7344">
        <ele>381.36957</ele>
        <time>2023-07-02T14:56:44.000Z</time>
      </trkpt>
      <trkpt lat="45.81939" lon="4.73448">
        <ele>381.23709</ele>
        <time>2023-07-02T14:56:45.000Z</time>
      </trkpt>
      <trkpt lat="45.81938" lon="4.73456">
        <ele>381.13742</ele>
        <time>2023-07-02T14:56:46.000Z</time>
      </trkpt>
      <trkpt lat="45.81937" lon="4.73464">
        <ele>381.01318</ele>
        <time>2023-07-02T14:56:47.000Z</time>
      </trkpt>
      <trkpt lat="45.81936" lon="4.73473">
        <ele>380.84845</ele>
        <time>2023-07-02T14:56:48.000Z</time>
      </trkpt>
      <trkpt lat="45.81934" lon="4.73481">
        <ele>380.66479</ele>
        <time>2023-07-02T14:56:49.000Z</time>
      </trkpt>
      <trkpt lat="45.81933" lon="4.7349">
        <ele>380.4986</ele>
        <time>2023-07-02T14:56:50.000Z</time>
      </trkpt>
      <trkpt lat="45.81931" lon="4.73499">
        <ele>380.29214</ele>
        <time>2023-07-02T14:56:51.000Z</time>
      </trkpt>
      <trkpt lat="45.81928" lon="4.73507">
        <ele>380.07446</ele>
        <time>2023-07-02T14:56:52.000Z</time>
      </trkpt>
      <trkpt lat="45.81926" lon="4.73517">
        <ele>379.84561</ele>
        <time>2023-07-02T14:56:53.000Z</time>
      </trkpt>
      <trkpt lat="45.81925" lon="4.73527">
        <ele>379.63312</ele>
        <time>2023-07-02T14:56:54.000Z</time>
      </trkpt>
      <trkpt lat="45.81925" lon="4.73537">
        <ele>379.39731</ele>
        <time>2023-07-02T14:56:55.000Z</time>
      </trkpt>
      <trkpt lat="45.81924" lon="4.73548">
        <ele>379.12848</ele>
        <time>2023-07-02T14:56:56.000Z</time>
      </trkpt>
      <trkpt lat="45.81924" lon="4.73558">
        <ele>378.87372</ele>
        <time>2023-07-02T14:56:57.000Z</time>
      </trkpt>
      <trkpt lat="45.81921" lon="4.73569">
        <ele>378.5058</ele>
        <time>2023-07-02T14:56:58.000Z</time>
      </trkpt>
      <trkpt lat="45.8192" lon="4.73583">
        <ele>378.13196</ele>
        <time>2023-07-02T14:56:59.000Z</time>
      </trkpt>
      <trkpt lat="45.81918" lon="4.73596">
        <ele>378.42288</ele>
        <time>2023-07-02T14:57:00.000Z</time>
      </trkpt>
      <trkpt lat="45.81917" lon="4.73609">
        <ele>378.68744</ele>
        <time>2023-07-02T14:57:01.000Z</time>
      </trkpt>
      <trkpt lat="45.81916" lon="4.73623">
        <ele>378.95139</ele>
        <time>2023-07-02T14:57:02.000Z</time>
      </trkpt>
      <trkpt lat="45.81914" lon="4.73637">
        <ele>378.49796</ele>
        <time>2023-07-02T14:57:03.000Z</time>
      </trkpt>
      <trkpt lat="45.81912" lon="4.73648">
        <ele>378.04858</ele>
        <time>2023-07-02T14:57:04.000Z</time>
      </trkpt>
      <trkpt lat="45.81909" lon="4.73658">
        <ele>377.63846</ele>
        <time>2023-07-02T14:57:05.000Z</time>
      </trkpt>
      <trkpt lat="45.81908" lon="4.73666">
        <ele>377.25995</ele>
        <time>2023-07-02T14:57:06.000Z</time>
      </trkpt>
      <trkpt lat="45.81903" lon="4.73673">
        <ele>376.94739</ele>
        <time>2023-07-02T14:57:07.000Z</time>
      </trkpt>
      <trkpt lat="45.81904" lon="4.73677">
        <ele>376.75458</ele>
        <time>2023-07-02T14:57:08.000Z</time>
      </trkpt>
      <trkpt lat="45.81899" lon="4.73681">
        <ele>376.48566</ele>
        <time>2023-07-02T14:57:09.000Z</time>
      </trkpt>
      <trkpt lat="45.81894" lon="4.73684">
        <ele>376.22638</ele>
        <time>2023-07-02T14:57:10.000Z</time>
      </trkpt>
      <trkpt lat="45.81889" lon="4.73688">
        <ele>375.9567</ele>
        <time>2023-07-02T14:57:11.000Z</time>
      </trkpt>
      <trkpt lat="45.81884" lon="4.73694">
        <ele>375.73309</ele>
        <time>2023-07-02T14:57:12.000Z</time>
      </trkpt>
      <trkpt lat="45.81879" lon="4.73699">
        <ele>375.48944</ele>
        <time>2023-07-02T14:57:13.000Z</time>
      </trkpt>
      <trkpt lat="45.81874" lon="4.73703">
        <ele>375.36084</ele>
        <time>2023-07-02T14:57:14.000Z</time>
      </trkpt>
      <trkpt lat="45.81873" lon="4.73709">
        <ele>375.21362</ele>
        <time>2023-07-02T14:57:15.000Z</time>
      </trkpt>
      <trkpt lat="45.81871" lon="4.73714">
        <ele>375.11041</ele>
        <time>2023-07-02T14:57:16.000Z</time>
      </trkpt>
      <trkpt lat="45.81872" lon="4.7372">
        <ele>375.04953</ele>
        <time>2023-07-02T14:57:17.000Z</time>
      </trkpt>
      <trkpt lat="45.81872" lon="4.73725">
        <ele>375.13751</ele>
        <time>2023-07-02T14:57:18.000Z</time>
      </trkpt>
      <trkpt lat="45.81874" lon="4.73729">
        <ele>375.28442</ele>
        <time>2023-07-02T14:57:19.000Z</time>
      </trkpt>
      <trkpt lat="45.81875" lon="4.73734">
        <ele>375.46948</ele>
        <time>2023-07-02T14:57:20.000Z</time>
      </trkpt>
      <trkpt lat="45.81875" lon="4.73738">
        <ele>375.68567</ele>
        <time>2023-07-02T14:57:21.000Z</time>
      </trkpt>
      <trkpt lat="45.81876" lon="4.73745">
        <ele>375.75873</ele>
        <time>2023-07-02T14:57:22.000Z</time>
      </trkpt>
      <trkpt lat="45.81877" lon="4.7375">
        <ele>375.90405</ele>
        <time>2023-07-02T14:57:23.000Z</time>
      </trkpt>
      <trkpt lat="45.81877" lon="4.73753">
        <ele>376.04202</ele>
        <time>2023-07-02T14:57:24.000Z</time>
      </trkpt>
      <trkpt lat="45.81879" lon="4.73757">
        <ele>376.18445</ele>
        <time>2023-07-02T14:57:25.000Z</time>
      </trkpt>
      <trkpt lat="45.8188" lon="4.73762">
        <ele>376.25562</ele>
        <time>2023-07-02T14:57:26.000Z</time>
      </trkpt>
      <trkpt lat="45.81882" lon="4.73767">
        <ele>376.27887</ele>
        <time>2023-07-02T14:57:27.000Z</time>
      </trkpt>
      <trkpt lat="45.81884" lon="4.73773">
        <ele>376.19995</ele>
        <time>2023-07-02T14:57:28.000Z</time>
      </trkpt>
      <trkpt lat="45.81885" lon="4.73779">
        <ele>376.24799</ele>
        <time>2023-07-02T14:57:29.000Z</time>
      </trkpt>
      <trkpt lat="45.81887" lon="4.73785">
        <ele>376.32675</ele>
        <time>2023-07-02T14:57:30.000Z</time>
      </trkpt>
      <trkpt lat="45.81887" lon="4.73791">
        <ele>376.47427</ele>
        <time>2023-07-02T14:57:31.000Z</time>
      </trkpt>
      <trkpt lat="45.81887" lon="4.73797">
        <ele>376.62445</ele>
        <time>2023-07-02T14:57:32.000Z</time>
      </trkpt>
      <trkpt lat="45.81883" lon="4.73807">
        <ele>376.75946</ele>
        <time>2023-07-02T14:57:33.000Z</time>
      </trkpt>
      <trkpt lat="45.81879" lon="4.73808">
        <ele>376.78928</ele>
        <time>2023-07-02T14:57:34.000Z</time>
      </trkpt>
      <trkpt lat="45.81875" lon="4.73809">
        <ele>376.84238</ele>
        <time>2023-07-02T14:57:35.000Z</time>
      </trkpt>
      <trkpt lat="45.81871" lon="4.73811">
        <ele>376.9877</ele>
        <time>2023-07-02T14:57:36.000Z</time>
      </trkpt>
      <trkpt lat="45.81867" lon="4.73811">
        <ele>377.00424</ele>
        <time>2023-07-02T14:57:37.000Z</time>
      </trkpt>
      <trkpt lat="45.81862" lon="4.7381">
        <ele>376.98401</ele>
        <time>2023-07-02T14:57:38.000Z</time>
      </trkpt>
      <trkpt lat="45.8186" lon="4.73813">
        <ele>376.98972</ele>
        <time>2023-07-02T14:57:39.000Z</time>
      </trkpt>
      <trkpt lat="45.81855" lon="4.73816">
        <ele>377.00516</ele>
        <time>2023-07-02T14:57:40.000Z</time>
      </trkpt>
      <trkpt lat="45.81851" lon="4.73817">
        <ele>377.00052</ele>
        <time>2023-07-02T14:57:41.000Z</time>
      </trkpt>
      <trkpt lat="45.81847" lon="4.7382">
        <ele>377.10699</ele>
        <time>2023-07-02T14:57:42.000Z</time>
      </trkpt>
      <trkpt lat="45.81843" lon="4.73821">
        <ele>377.20938</ele>
        <time>2023-07-02T14:57:43.000Z</time>
      </trkpt>
      <trkpt lat="45.81839" lon="4.73822">
        <ele>377.28665</ele>
        <time>2023-07-02T14:57:44.000Z</time>
      </trkpt>
      <trkpt lat="45.81836" lon="4.73822">
        <ele>377.29413</ele>
        <time>2023-07-02T14:57:45.000Z</time>
      </trkpt>
      <trkpt lat="45.81833" lon="4.73823">
        <ele>377.35568</ele>
        <time>2023-07-02T14:57:46.000Z</time>
      </trkpt>
      <trkpt lat="45.81828" lon="4.73823">
        <ele>377.43652</ele>
        <time>2023-07-02T14:57:47.000Z</time>
      </trkpt>
      <trkpt lat="45.81825" lon="4.73824">
        <ele>377.55289</ele>
        <time>2023-07-02T14:57:48.000Z</time>
      </trkpt>
      <trkpt lat="45.81821" lon="4.73826">
        <ele>377.65033</ele>
        <time>2023-07-02T14:57:49.000Z</time>
      </trkpt>
      <trkpt lat="45.81817" lon="4.73827">
        <ele>377.71143</ele>
        <time>2023-07-02T14:57:50.000Z</time>
      </trkpt>
      <trkpt lat="45.81813" lon="4.73828">
        <ele>377.76062</ele>
        <time>2023-07-02T14:57:51.000Z</time>
      </trkpt>
      <trkpt lat="45.8181" lon="4.73829">
        <ele>377.7713</ele>
        <time>2023-07-02T14:57:52.000Z</time>
      </trkpt>
      <trkpt lat="45.81806" lon="4.7383">
        <ele>377.76437</ele>
        <time>2023-07-02T14:57:53.000Z</time>
      </trkpt>
      <trkpt lat="45.81802" lon="4.73831">
        <ele>377.77106</ele>
        <time>2023-07-02T14:57:54.000Z</time>
      </trkpt>
      <trkpt lat="45.81797" lon="4.73832">
        <ele>377.85153</ele>
        <time>2023-07-02T14:57:55.000Z</time>
      </trkpt>
      <trkpt lat="45.81792" lon="4.73834">
        <ele>377.75165</ele>
        <time>2023-07-02T14:57:56.000Z</time>
      </trkpt>
      <trkpt lat="45.81788" lon="4.73836">
        <ele>377.78433</ele>
        <time>2023-07-02T14:57:57.000Z</time>
      </trkpt>
      <trkpt lat="45.81782" lon="4.73836">
        <ele>377.60663</ele>
        <time>2023-07-02T14:57:58.000Z</time>
      </trkpt>
      <trkpt lat="45.81777" lon="4.73835">
        <ele>377.27631</ele>
        <time>2023-07-02T14:57:59.000Z</time>
      </trkpt>
      <trkpt lat="45.81772" lon="4.73833">
        <ele>376.88422</ele>
        <time>2023-07-02T14:58:00.000Z</time>
      </trkpt>
      <trkpt lat="45.81768" lon="4.73825">
        <ele>376.85052</ele>
        <time>2023-07-02T14:58:01.000Z</time>
      </trkpt>
      <trkpt lat="45.81762" lon="4.73815">
        <ele>376.74637</ele>
        <time>2023-07-02T14:58:02.000Z</time>
      </trkpt>
      <trkpt lat="45.81756" lon="4.73805">
        <ele>376.60522</ele>
        <time>2023-07-02T14:58:03.000Z</time>
      </trkpt>
      <trkpt lat="45.81751" lon="4.73793">
        <ele>376.44745</ele>
        <time>2023-07-02T14:58:04.000Z</time>
      </trkpt>
      <trkpt lat="45.81747" lon="4.73781">
        <ele>376.25259</ele>
        <time>2023-07-02T14:58:05.000Z</time>
      </trkpt>
      <trkpt lat="45.81741" lon="4.73767">
        <ele>376.01416</ele>
        <time>2023-07-02T14:58:06.000Z</time>
      </trkpt>
      <trkpt lat="45.81737" lon="4.73753">
        <ele>375.7023</ele>
        <time>2023-07-02T14:58:07.000Z</time>
      </trkpt>
      <trkpt lat="45.81734" lon="4.73737">
        <ele>375.31699</ele>
        <time>2023-07-02T14:58:08.000Z</time>
      </trkpt>
      <trkpt lat="45.81731" lon="4.73722">
        <ele>374.98489</ele>
        <time>2023-07-02T14:58:09.000Z</time>
      </trkpt>
      <trkpt lat="45.81727" lon="4.73708">
        <ele>374.59064</ele>
        <time>2023-07-02T14:58:10.000Z</time>
      </trkpt>
      <trkpt lat="45.81724" lon="4.73692">
        <ele>374.22504</ele>
        <time>2023-07-02T14:58:11.000Z</time>
      </trkpt>
      <trkpt lat="45.8172" lon="4.7368">
        <ele>373.96271</ele>
        <time>2023-07-02T14:58:12.000Z</time>
      </trkpt>
      <trkpt lat="45.81717" lon="4.73667">
        <ele>373.77603</ele>
        <time>2023-07-02T14:58:13.000Z</time>
      </trkpt>
      <trkpt lat="45.8171" lon="4.73658">
        <ele>373.37454</ele>
        <time>2023-07-02T14:58:14.000Z</time>
      </trkpt>
      <trkpt lat="45.81704" lon="4.7365">
        <ele>372.90451</ele>
        <time>2023-07-02T14:58:15.000Z</time>
      </trkpt>
      <trkpt lat="45.81698" lon="4.73643">
        <ele>372.55438</ele>
        <time>2023-07-02T14:58:16.000Z</time>
      </trkpt>
      <trkpt lat="45.81692" lon="4.73636">
        <ele>372.20166</ele>
        <time>2023-07-02T14:58:17.000Z</time>
      </trkpt>
      <trkpt lat="45.81686" lon="4.73631">
        <ele>372.12271</ele>
        <time>2023-07-02T14:58:18.000Z</time>
      </trkpt>
      <trkpt lat="45.81681" lon="4.73626">
        <ele>372.17804</ele>
        <time>2023-07-02T14:58:19.000Z</time>
      </trkpt>
      <trkpt lat="45.81676" lon="4.7362">
        <ele>372.21817</ele>
        <time>2023-07-02T14:58:20.000Z</time>
      </trkpt>
      <trkpt lat="45.81672" lon="4.73615">
        <ele>371.93637</ele>
        <time>2023-07-02T14:58:21.000Z</time>
      </trkpt>
      <trkpt lat="45.81668" lon="4.7361">
        <ele>371.80948</ele>
        <time>2023-07-02T14:58:22.000Z</time>
      </trkpt>
      <trkpt lat="45.81663" lon="4.73605">
        <ele>371.63495</ele>
        <time>2023-07-02T14:58:23.000Z</time>
      </trkpt>
      <trkpt lat="45.81659" lon="4.73599">
        <ele>371.58502</ele>
        <time>2023-07-02T14:58:24.000Z</time>
      </trkpt>
      <trkpt lat="45.81654" lon="4.73594">
        <ele>371.57614</ele>
        <time>2023-07-02T14:58:25.000Z</time>
      </trkpt>
      <trkpt lat="45.81649" lon="4.73589">
        <ele>371.61768</ele>
        <time>2023-07-02T14:58:26.000Z</time>
      </trkpt>
      <trkpt lat="45.81643" lon="4.73583">
        <ele>371.75851</ele>
        <time>2023-07-02T14:58:27.000Z</time>
      </trkpt>
      <trkpt lat="45.81639" lon="4.73578">
        <ele>371.91537</ele>
        <time>2023-07-02T14:58:28.000Z</time>
      </trkpt>
      <trkpt lat="45.81634" lon="4.73572">
        <ele>372.05853</ele>
        <time>2023-07-02T14:58:29.000Z</time>
      </trkpt>
      <trkpt lat="45.81629" lon="4.73565">
        <ele>372.10861</ele>
        <time>2023-07-02T14:58:30.000Z</time>
      </trkpt>
      <trkpt lat="45.81624" lon="4.7356">
        <ele>372.17609</ele>
        <time>2023-07-02T14:58:31.000Z</time>
      </trkpt>
      <trkpt lat="45.8162" lon="4.73553">
        <ele>372.14749</ele>
        <time>2023-07-02T14:58:32.000Z</time>
      </trkpt>
      <trkpt lat="45.81615" lon="4.73546">
        <ele>372.12982</ele>
        <time>2023-07-02T14:58:33.000Z</time>
      </trkpt>
      <trkpt lat="45.81611" lon="4.73541">
        <ele>372.30737</ele>
        <time>2023-07-02T14:58:34.000Z</time>
      </trkpt>
      <trkpt lat="45.81605" lon="4.73536">
        <ele>372.5036</ele>
        <time>2023-07-02T14:58:35.000Z</time>
      </trkpt>
      <trkpt lat="45.81601" lon="4.7353">
        <ele>372.70648</ele>
        <time>2023-07-02T14:58:36.000Z</time>
      </trkpt>
      <trkpt lat="45.81596" lon="4.73525">
        <ele>372.93793</ele>
        <time>2023-07-02T14:58:37.000Z</time>
      </trkpt>
      <trkpt lat="45.81592" lon="4.7352">
        <ele>373.12616</ele>
        <time>2023-07-02T14:58:38.000Z</time>
      </trkpt>
      <trkpt lat="45.81587" lon="4.73517">
        <ele>373.36554</ele>
        <time>2023-07-02T14:58:39.000Z</time>
      </trkpt>
      <trkpt lat="45.81582" lon="4.73513">
        <ele>373.62323</ele>
        <time>2023-07-02T14:58:40.000Z</time>
      </trkpt>
      <trkpt lat="45.81579" lon="4.73508">
        <ele>373.85773</ele>
        <time>2023-07-02T14:58:41.000Z</time>
      </trkpt>
      <trkpt lat="45.81575" lon="4.73503">
        <ele>374.06104</ele>
        <time>2023-07-02T14:58:42.000Z</time>
      </trkpt>
      <trkpt lat="45.8157" lon="4.73501">
        <ele>374.33017</ele>
        <time>2023-07-02T14:58:43.000Z</time>
      </trkpt>
      <trkpt lat="45.81567" lon="4.73503">
        <ele>374.49298</ele>
        <time>2023-07-02T14:58:44.000Z</time>
      </trkpt>
      <trkpt lat="45.81565" lon="4.73506">
        <ele>374.64917</ele>
        <time>2023-07-02T14:58:45.000Z</time>
      </trkpt>
      <trkpt lat="45.81565" lon="4.73509">
        <ele>374.78162</ele>
        <time>2023-07-02T14:58:47.000Z</time>
      </trkpt>
      <trkpt lat="45.81563" lon="4.73515">
        <ele>374.96228</ele>
        <time>2023-07-02T14:58:52.000Z</time>
      </trkpt>
      <trkpt lat="45.81561" lon="4.73521">
        <ele>375.1767</ele>
        <time>2023-07-02T14:58:53.000Z</time>
      </trkpt>
      <trkpt lat="45.81559" lon="4.73527">
        <ele>375.35455</ele>
        <time>2023-07-02T14:58:54.000Z</time>
      </trkpt>
      <trkpt lat="45.81556" lon="4.73534">
        <ele>375.52512</ele>
        <time>2023-07-02T14:58:55.000Z</time>
      </trkpt>
      <trkpt lat="45.81554" lon="4.73541">
        <ele>375.6752</ele>
        <time>2023-07-02T14:58:56.000Z</time>
      </trkpt>
      <trkpt lat="45.81551" lon="4.73549">
        <ele>375.7981</ele>
        <time>2023-07-02T14:58:57.000Z</time>
      </trkpt>
      <trkpt lat="45.81549" lon="4.73557">
        <ele>375.83749</ele>
        <time>2023-07-02T14:58:58.000Z</time>
      </trkpt>
      <trkpt lat="45.81549" lon="4.73565">
        <ele>375.84918</ele>
        <time>2023-07-02T14:58:59.000Z</time>
      </trkpt>
      <trkpt lat="45.81547" lon="4.73573">
        <ele>375.85388</ele>
        <time>2023-07-02T14:59:00.000Z</time>
      </trkpt>
      <trkpt lat="45.81545" lon="4.73582">
        <ele>375.9129</ele>
        <time>2023-07-02T14:59:01.000Z</time>
      </trkpt>
      <trkpt lat="45.81542" lon="4.73591">
        <ele>375.94229</ele>
        <time>2023-07-02T14:59:02.000Z</time>
      </trkpt>
      <trkpt lat="45.8154" lon="4.73599">
        <ele>376.00467</ele>
        <time>2023-07-02T14:59:03.000Z</time>
      </trkpt>
      <trkpt lat="45.81537" lon="4.73608">
        <ele>375.77728</ele>
        <time>2023-07-02T14:59:04.000Z</time>
      </trkpt>
      <trkpt lat="45.81534" lon="4.73616">
        <ele>375.61383</ele>
        <time>2023-07-02T14:59:05.000Z</time>
      </trkpt>
      <trkpt lat="45.81532" lon="4.73623">
        <ele>375.39142</ele>
        <time>2023-07-02T14:59:06.000Z</time>
      </trkpt>
      <trkpt lat="45.81529" lon="4.73632">
        <ele>375.17184</ele>
        <time>2023-07-02T14:59:07.000Z</time>
      </trkpt>
      <trkpt lat="45.81526" lon="4.73642">
        <ele>374.89432</ele>
        <time>2023-07-02T14:59:08.000Z</time>
      </trkpt>
      <trkpt lat="45.81524" lon="4.7365">
        <ele>374.59482</ele>
        <time>2023-07-02T14:59:09.000Z</time>
      </trkpt>
      <trkpt lat="45.81521" lon="4.73659">
        <ele>374.32178</ele>
        <time>2023-07-02T14:59:10.000Z</time>
      </trkpt>
      <trkpt lat="45.81517" lon="4.73667">
        <ele>374.0733</ele>
        <time>2023-07-02T14:59:11.000Z</time>
      </trkpt>
      <trkpt lat="45.81515" lon="4.73676">
        <ele>373.69693</ele>
        <time>2023-07-02T14:59:12.000Z</time>
      </trkpt>
      <trkpt lat="45.81512" lon="4.73687">
        <ele>373.25729</ele>
        <time>2023-07-02T14:59:13.000Z</time>
      </trkpt>
      <trkpt lat="45.8151" lon="4.73698">
        <ele>372.8414</ele>
        <time>2023-07-02T14:59:14.000Z</time>
      </trkpt>
      <trkpt lat="45.81507" lon="4.7371">
        <ele>372.53583</ele>
        <time>2023-07-02T14:59:15.000Z</time>
      </trkpt>
      <trkpt lat="45.81504" lon="4.73722">
        <ele>372.19556</ele>
        <time>2023-07-02T14:59:16.000Z</time>
      </trkpt>
      <trkpt lat="45.815" lon="4.73734">
        <ele>371.86801</ele>
        <time>2023-07-02T14:59:17.000Z</time>
      </trkpt>
      <trkpt lat="45.81495" lon="4.73747">
        <ele>371.57846</ele>
        <time>2023-07-02T14:59:18.000Z</time>
      </trkpt>
      <trkpt lat="45.8149" lon="4.73755">
        <ele>371.28506</ele>
        <time>2023-07-02T14:59:19.000Z</time>
      </trkpt>
      <trkpt lat="45.81487" lon="4.73761">
        <ele>370.99332</ele>
        <time>2023-07-02T14:59:20.000Z</time>
      </trkpt>
      <trkpt lat="45.81484" lon="4.73767">
        <ele>370.61481</ele>
        <time>2023-07-02T14:59:21.000Z</time>
      </trkpt>
      <trkpt lat="45.81482" lon="4.73774">
        <ele>370.19931</ele>
        <time>2023-07-02T14:59:22.000Z</time>
      </trkpt>
      <trkpt lat="45.81481" lon="4.7378">
        <ele>369.74533</ele>
        <time>2023-07-02T14:59:23.000Z</time>
      </trkpt>
      <trkpt lat="45.8148" lon="4.73787">
        <ele>369.5224</ele>
        <time>2023-07-02T14:59:24.000Z</time>
      </trkpt>
      <trkpt lat="45.81481" lon="4.73792">
        <ele>369.24872</ele>
        <time>2023-07-02T14:59:25.000Z</time>
      </trkpt>
      <trkpt lat="45.81482" lon="4.73799">
        <ele>369.06342</ele>
        <time>2023-07-02T14:59:26.000Z</time>
      </trkpt>
      <trkpt lat="45.81483" lon="4.73807">
        <ele>368.81573</ele>
        <time>2023-07-02T14:59:27.000Z</time>
      </trkpt>
      <trkpt lat="45.81485" lon="4.73815">
        <ele>368.5907</ele>
        <time>2023-07-02T14:59:28.000Z</time>
      </trkpt>
      <trkpt lat="45.81488" lon="4.73824">
        <ele>368.39999</ele>
        <time>2023-07-02T14:59:29.000Z</time>
      </trkpt>
      <trkpt lat="45.8149" lon="4.73832">
        <ele>368.19064</ele>
        <time>2023-07-02T14:59:30.000Z</time>
      </trkpt>
      <trkpt lat="45.8149" lon="4.73839">
        <ele>367.95679</ele>
        <time>2023-07-02T14:59:31.000Z</time>
      </trkpt>
      <trkpt lat="45.81491" lon="4.73847">
        <ele>367.75732</ele>
        <time>2023-07-02T14:59:32.000Z</time>
      </trkpt>
      <trkpt lat="45.81491" lon="4.73855">
        <ele>367.63519</ele>
        <time>2023-07-02T14:59:33.000Z</time>
      </trkpt>
      <trkpt lat="45.81491" lon="4.73862">
        <ele>367.49542</ele>
        <time>2023-07-02T14:59:34.000Z</time>
      </trkpt>
      <trkpt lat="45.81491" lon="4.73869">
        <ele>367.43149</ele>
        <time>2023-07-02T14:59:35.000Z</time>
      </trkpt>
      <trkpt lat="45.81491" lon="4.73875">
        <ele>367.36911</ele>
        <time>2023-07-02T14:59:36.000Z</time>
      </trkpt>
      <trkpt lat="45.81491" lon="4.73881">
        <ele>367.35373</ele>
        <time>2023-07-02T14:59:37.000Z</time>
      </trkpt>
      <trkpt lat="45.8149" lon="4.73887">
        <ele>367.34781</ele>
        <time>2023-07-02T14:59:38.000Z</time>
      </trkpt>
      <trkpt lat="45.81489" lon="4.73896">
        <ele>367.36597</ele>
        <time>2023-07-02T14:59:39.000Z</time>
      </trkpt>
      <trkpt lat="45.81489" lon="4.73902">
        <ele>367.38629</ele>
        <time>2023-07-02T14:59:40.000Z</time>
      </trkpt>
      <trkpt lat="45.81487" lon="4.7391">
        <ele>367.40802</ele>
        <time>2023-07-02T14:59:41.000Z</time>
      </trkpt>
      <trkpt lat="45.81486" lon="4.73917">
        <ele>367.4379</ele>
        <time>2023-07-02T14:59:42.000Z</time>
      </trkpt>
      <trkpt lat="45.81486" lon="4.73926">
        <ele>367.43085</ele>
        <time>2023-07-02T14:59:43.000Z</time>
      </trkpt>
      <trkpt lat="45.81484" lon="4.73935">
        <ele>367.42032</ele>
        <time>2023-07-02T14:59:44.000Z</time>
      </trkpt>
      <trkpt lat="45.81482" lon="4.73945">
        <ele>367.41586</ele>
        <time>2023-07-02T14:59:45.000Z</time>
      </trkpt>
      <trkpt lat="45.81479" lon="4.73955">
        <ele>367.37347</ele>
        <time>2023-07-02T14:59:46.000Z</time>
      </trkpt>
      <trkpt lat="45.81478" lon="4.7396">
        <ele>367.3266</ele>
        <time>2023-07-02T14:59:47.000Z</time>
      </trkpt>
      <trkpt lat="45.81478" lon="4.73968">
        <ele>367.24759</ele>
        <time>2023-07-02T14:59:48.000Z</time>
      </trkpt>
      <trkpt lat="45.81477" lon="4.73975">
        <ele>367.15448</ele>
        <time>2023-07-02T14:59:49.000Z</time>
      </trkpt>
      <trkpt lat="45.81473" lon="4.7398">
        <ele>367.08899</ele>
        <time>2023-07-02T14:59:50.000Z</time>
      </trkpt>
      <trkpt lat="45.8147" lon="4.73986">
        <ele>367.07062</ele>
        <time>2023-07-02T14:59:51.000Z</time>
      </trkpt>
      <trkpt lat="45.81467" lon="4.73991">
        <ele>367.00809</ele>
        <time>2023-07-02T14:59:52.000Z</time>
      </trkpt>
      <trkpt lat="45.81463" lon="4.73997">
        <ele>366.9024</ele>
        <time>2023-07-02T14:59:53.000Z</time>
      </trkpt>
      <trkpt lat="45.8146" lon="4.74001">
        <ele>366.75</ele>
        <time>2023-07-02T14:59:54.000Z</time>
      </trkpt>
      <trkpt lat="45.81457" lon="4.74005">
        <ele>366.50125</ele>
        <time>2023-07-02T14:59:55.000Z</time>
      </trkpt>
      <trkpt lat="45.81455" lon="4.74009">
        <ele>366.26614</ele>
        <time>2023-07-02T14:59:56.000Z</time>
      </trkpt>
      <trkpt lat="45.81451" lon="4.74014">
        <ele>366.0376</ele>
        <time>2023-07-02T14:59:57.000Z</time>
      </trkpt>
      <trkpt lat="45.8145" lon="4.74017">
        <ele>365.79572</ele>
        <time>2023-07-02T14:59:58.000Z</time>
      </trkpt>
      <trkpt lat="45.81447" lon="4.74016">
        <ele>365.52032</ele>
        <time>2023-07-02T14:59:59.000Z</time>
      </trkpt>
      <trkpt lat="45.81443" lon="4.74017">
        <ele>365.39285</ele>
        <time>2023-07-02T15:00:00.000Z</time>
      </trkpt>
      <trkpt lat="45.81442" lon="4.74014">
        <ele>365.40161</ele>
        <time>2023-07-02T15:00:01.000Z</time>
      </trkpt>
      <trkpt lat="45.81439" lon="4.74008">
        <ele>365.42075</ele>
        <time>2023-07-02T15:00:02.000Z</time>
      </trkpt>
      <trkpt lat="45.81436" lon="4.74006">
        <ele>365.25677</ele>
        <time>2023-07-02T15:00:03.000Z</time>
      </trkpt>
      <trkpt lat="45.81434" lon="4.74004">
        <ele>365.11978</ele>
        <time>2023-07-02T15:00:04.000Z</time>
      </trkpt>
      <trkpt lat="45.81433" lon="4.74001">
        <ele>365.03665</ele>
        <time>2023-07-02T15:00:05.000Z</time>
      </trkpt>
      <trkpt lat="45.81431" lon="4.73998">
        <ele>364.92401</ele>
        <time>2023-07-02T15:00:06.000Z</time>
      </trkpt>
      <trkpt lat="45.8143" lon="4.73995">
        <ele>364.80579</ele>
        <time>2023-07-02T15:00:07.000Z</time>
      </trkpt>
      <trkpt lat="45.81428" lon="4.73992">
        <ele>364.82355</ele>
        <time>2023-07-02T15:00:08.000Z</time>
      </trkpt>
      <trkpt lat="45.81427" lon="4.73988">
        <ele>364.89398</ele>
        <time>2023-07-02T15:00:09.000Z</time>
      </trkpt>
      <trkpt lat="45.81426" lon="4.73985">
        <ele>364.95435</ele>
        <time>2023-07-02T15:00:10.000Z</time>
      </trkpt>
      <trkpt lat="45.81424" lon="4.73981">
        <ele>365.15549</ele>
        <time>2023-07-02T15:00:11.000Z</time>
      </trkpt>
      <trkpt lat="45.81423" lon="4.73977">
        <ele>365.38605</ele>
        <time>2023-07-02T15:00:12.000Z</time>
      </trkpt>
      <trkpt lat="45.81421" lon="4.73974">
        <ele>365.4061</ele>
        <time>2023-07-02T15:00:13.000Z</time>
      </trkpt>
      <trkpt lat="45.8142" lon="4.7397">
        <ele>365.51315</ele>
        <time>2023-07-02T15:00:14.000Z</time>
      </trkpt>
      <trkpt lat="45.81419" lon="4.73967">
        <ele>365.67535</ele>
        <time>2023-07-02T15:00:15.000Z</time>
      </trkpt>
      <trkpt lat="45.81418" lon="4.73964">
        <ele>365.83441</ele>
        <time>2023-07-02T15:00:16.000Z</time>
      </trkpt>
      <trkpt lat="45.81416" lon="4.7396">
        <ele>365.94604</ele>
        <time>2023-07-02T15:00:17.000Z</time>
      </trkpt>
      <trkpt lat="45.81415" lon="4.73955">
        <ele>366.1488</ele>
        <time>2023-07-02T15:00:18.000Z</time>
      </trkpt>
      <trkpt lat="45.81412" lon="4.7395">
        <ele>366.48242</ele>
        <time>2023-07-02T15:00:19.000Z</time>
      </trkpt>
      <trkpt lat="45.81409" lon="4.73945">
        <ele>366.68658</ele>
        <time>2023-07-02T15:00:20.000Z</time>
      </trkpt>
      <trkpt lat="45.81405" lon="4.73942">
        <ele>366.70538</ele>
        <time>2023-07-02T15:00:21.000Z</time>
      </trkpt>
      <trkpt lat="45.81402" lon="4.73938">
        <ele>366.74286</ele>
        <time>2023-07-02T15:00:22.000Z</time>
      </trkpt>
      <trkpt lat="45.81399" lon="4.73933">
        <ele>366.99347</ele>
        <time>2023-07-02T15:00:23.000Z</time>
      </trkpt>
      <trkpt lat="45.81396" lon="4.73928">
        <ele>367.68863</ele>
        <time>2023-07-02T15:00:24.000Z</time>
      </trkpt>
      <trkpt lat="45.81391" lon="4.7392">
        <ele>368.1268</ele>
        <time>2023-07-02T15:00:25.000Z</time>
      </trkpt>
      <trkpt lat="45.81388" lon="4.73915">
        <ele>368.755</ele>
        <time>2023-07-02T15:00:26.000Z</time>
      </trkpt>
      <trkpt lat="45.81386" lon="4.73911">
        <ele>369.418</ele>
        <time>2023-07-02T15:00:27.000Z</time>
      </trkpt>
      <trkpt lat="45.81383" lon="4.73907">
        <ele>369.99408</ele>
        <time>2023-07-02T15:00:28.000Z</time>
      </trkpt>
      <trkpt lat="45.81379" lon="4.739">
        <ele>370.56378</ele>
        <time>2023-07-02T15:00:29.000Z</time>
      </trkpt>
      <trkpt lat="45.81377" lon="4.73895">
        <ele>371.0817</ele>
        <time>2023-07-02T15:00:30.000Z</time>
      </trkpt>
      <trkpt lat="45.81371" lon="4.73889">
        <ele>371.60956</ele>
        <time>2023-07-02T15:00:31.000Z</time>
      </trkpt>
      <trkpt lat="45.81368" lon="4.73884">
        <ele>371.83661</ele>
        <time>2023-07-02T15:00:32.000Z</time>
      </trkpt>
      <trkpt lat="45.81365" lon="4.73878">
        <ele>372.39218</ele>
        <time>2023-07-02T15:00:33.000Z</time>
      </trkpt>
      <trkpt lat="45.8136" lon="4.73873">
        <ele>372.94653</ele>
        <time>2023-07-02T15:00:34.000Z</time>
      </trkpt>
      <trkpt lat="45.81359" lon="4.73869">
        <ele>373.44876</ele>
        <time>2023-07-02T15:00:35.000Z</time>
      </trkpt>
      <trkpt lat="45.81357" lon="4.73866">
        <ele>373.96951</ele>
        <time>2023-07-02T15:00:36.000Z</time>
      </trkpt>
      <trkpt lat="45.81354" lon="4.73862">
        <ele>374.61688</ele>
        <time>2023-07-02T15:00:37.000Z</time>
      </trkpt>
      <trkpt lat="45.81352" lon="4.7386">
        <ele>375.21985</ele>
        <time>2023-07-02T15:00:38.000Z</time>
      </trkpt>
      <trkpt lat="45.8135" lon="4.73857">
        <ele>375.73764</ele>
        <time>2023-07-02T15:00:39.000Z</time>
      </trkpt>
      <trkpt lat="45.81347" lon="4.73852">
        <ele>376.20068</ele>
        <time>2023-07-02T15:00:40.000Z</time>
      </trkpt>
      <trkpt lat="45.81344" lon="4.73847">
        <ele>376.73877</ele>
        <time>2023-07-02T15:00:41.000Z</time>
      </trkpt>
      <trkpt lat="45.81341" lon="4.73842">
        <ele>377.25867</ele>
        <time>2023-07-02T15:00:42.000Z</time>
      </trkpt>
      <trkpt lat="45.81337" lon="4.73837">
        <ele>377.77295</ele>
        <time>2023-07-02T15:00:43.000Z</time>
      </trkpt>
      <trkpt lat="45.81335" lon="4.73831">
        <ele>377.77518</ele>
        <time>2023-07-02T15:00:44.000Z</time>
      </trkpt>
      <trkpt lat="45.81331" lon="4.73828">
        <ele>377.99701</ele>
        <time>2023-07-02T15:00:45.000Z</time>
      </trkpt>
      <trkpt lat="45.81327" lon="4.73822">
        <ele>378.07413</ele>
        <time>2023-07-02T15:00:46.000Z</time>
      </trkpt>
      <trkpt lat="45.81323" lon="4.73816">
        <ele>378.14716</ele>
        <time>2023-07-02T15:00:47.000Z</time>
      </trkpt>
      <trkpt lat="45.81319" lon="4.7381">
        <ele>378.38022</ele>
        <time>2023-07-02T15:00:48.000Z</time>
      </trkpt>
      <trkpt lat="45.81315" lon="4.73804">
        <ele>378.73724</ele>
        <time>2023-07-02T15:00:49.000Z</time>
      </trkpt>
      <trkpt lat="45.8131" lon="4.738">
        <ele>378.90683</ele>
        <time>2023-07-02T15:00:50.000Z</time>
      </trkpt>
      <trkpt lat="45.81306" lon="4.73794">
        <ele>378.9447</ele>
        <time>2023-07-02T15:00:51.000Z</time>
      </trkpt>
      <trkpt lat="45.81304" lon="4.73788">
        <ele>379.30759</ele>
        <time>2023-07-02T15:00:52.000Z</time>
      </trkpt>
      <trkpt lat="45.81301" lon="4.73784">
        <ele>379.58447</ele>
        <time>2023-07-02T15:00:53.000Z</time>
      </trkpt>
      <trkpt lat="45.81297" lon="4.7378">
        <ele>379.80612</ele>
        <time>2023-07-02T15:00:54.000Z</time>
      </trkpt>
      <trkpt lat="45.81292" lon="4.73773">
        <ele>380.05679</ele>
        <time>2023-07-02T15:00:55.000Z</time>
      </trkpt>
      <trkpt lat="45.81289" lon="4.7377">
        <ele>380.2706</ele>
        <time>2023-07-02T15:00:56.000Z</time>
      </trkpt>
      <trkpt lat="45.81284" lon="4.73766">
        <ele>380.43512</ele>
        <time>2023-07-02T15:00:57.000Z</time>
      </trkpt>
      <trkpt lat="45.8128" lon="4.73763">
        <ele>380.57666</ele>
        <time>2023-07-02T15:00:58.000Z</time>
      </trkpt>
      <trkpt lat="45.81277" lon="4.73757">
        <ele>380.68365</ele>
        <time>2023-07-02T15:00:59.000Z</time>
      </trkpt>
      <trkpt lat="45.81274" lon="4.73752">
        <ele>380.8085</ele>
        <time>2023-07-02T15:01:00.000Z</time>
      </trkpt>
      <trkpt lat="45.81271" lon="4.73748">
        <ele>380.96503</ele>
        <time>2023-07-02T15:01:01.000Z</time>
      </trkpt>
      <trkpt lat="45.81267" lon="4.73742">
        <ele>381.15744</ele>
        <time>2023-07-02T15:01:02.000Z</time>
      </trkpt>
      <trkpt lat="45.81263" lon="4.73737">
        <ele>381.32101</ele>
        <time>2023-07-02T15:01:03.000Z</time>
      </trkpt>
      <trkpt lat="45.81259" lon="4.73733">
        <ele>381.56863</ele>
        <time>2023-07-02T15:01:04.000Z</time>
      </trkpt>
      <trkpt lat="45.81255" lon="4.7373">
        <ele>381.87823</ele>
        <time>2023-07-02T15:01:05.000Z</time>
      </trkpt>
      <trkpt lat="45.81252" lon="4.73726">
        <ele>381.98749</ele>
        <time>2023-07-02T15:01:06.000Z</time>
      </trkpt>
      <trkpt lat="45.81248" lon="4.73721">
        <ele>382.15564</ele>
        <time>2023-07-02T15:01:07.000Z</time>
      </trkpt>
      <trkpt lat="45.81243" lon="4.73716">
        <ele>382.17499</ele>
        <time>2023-07-02T15:01:08.000Z</time>
      </trkpt>
      <trkpt lat="45.81239" lon="4.73715">
        <ele>382.06039</ele>
        <time>2023-07-02T15:01:09.000Z</time>
      </trkpt>
      <trkpt lat="45.81234" lon="4.73711">
        <ele>382.17157</ele>
        <time>2023-07-02T15:01:10.000Z</time>
      </trkpt>
      <trkpt lat="45.8123" lon="4.73708">
        <ele>382.23053</ele>
        <time>2023-07-02T15:01:11.000Z</time>
      </trkpt>
      <trkpt lat="45.81225" lon="4.73706">
        <ele>382.28745</ele>
        <time>2023-07-02T15:01:12.000Z</time>
      </trkpt>
      <trkpt lat="45.81222" lon="4.73705">
        <ele>382.33905</ele>
        <time>2023-07-02T15:01:13.000Z</time>
      </trkpt>
      <trkpt lat="45.81218" lon="4.73704">
        <ele>382.41876</ele>
        <time>2023-07-02T15:01:14.000Z</time>
      </trkpt>
      <trkpt lat="45.81214" lon="4.73704">
        <ele>382.52405</ele>
        <time>2023-07-02T15:01:15.000Z</time>
      </trkpt>
      <trkpt lat="45.8121" lon="4.73703">
        <ele>382.66724</ele>
        <time>2023-07-02T15:01:16.000Z</time>
      </trkpt>
      <trkpt lat="45.81207" lon="4.73701">
        <ele>382.73624</ele>
        <time>2023-07-02T15:01:17.000Z</time>
      </trkpt>
      <trkpt lat="45.81203" lon="4.73701">
        <ele>382.94608</ele>
        <time>2023-07-02T15:01:18.000Z</time>
      </trkpt>
      <trkpt lat="45.81199" lon="4.73699">
        <ele>383.19553</ele>
        <time>2023-07-02T15:01:19.000Z</time>
      </trkpt>
      <trkpt lat="45.81195" lon="4.73698">
        <ele>383.46484</ele>
        <time>2023-07-02T15:01:20.000Z</time>
      </trkpt>
      <trkpt lat="45.81191" lon="4.73697">
        <ele>383.68414</ele>
        <time>2023-07-02T15:01:21.000Z</time>
      </trkpt>
      <trkpt lat="45.81187" lon="4.73696">
        <ele>383.84338</ele>
        <time>2023-07-02T15:01:22.000Z</time>
      </trkpt>
      <trkpt lat="45.81184" lon="4.73695">
        <ele>384.06805</ele>
        <time>2023-07-02T15:01:23.000Z</time>
      </trkpt>
      <trkpt lat="45.8118" lon="4.73694">
        <ele>384.24844</ele>
        <time>2023-07-02T15:01:24.000Z</time>
      </trkpt>
      <trkpt lat="45.81176" lon="4.73693">
        <ele>384.39182</ele>
        <time>2023-07-02T15:01:25.000Z</time>
      </trkpt>
      <trkpt lat="45.81173" lon="4.73692">
        <ele>384.54343</ele>
        <time>2023-07-02T15:01:26.000Z</time>
      </trkpt>
      <trkpt lat="45.81169" lon="4.73692">
        <ele>384.7041</ele>
        <time>2023-07-02T15:01:27.000Z</time>
      </trkpt>
      <trkpt lat="45.81166" lon="4.73691">
        <ele>384.83929</ele>
        <time>2023-07-02T15:01:28.000Z</time>
      </trkpt>
      <trkpt lat="45.81162" lon="4.73691">
        <ele>384.953</ele>
        <time>2023-07-02T15:01:29.000Z</time>
      </trkpt>
      <trkpt lat="45.81158" lon="4.7369">
        <ele>385.08636</ele>
        <time>2023-07-02T15:01:30.000Z</time>
      </trkpt>
      <trkpt lat="45.81154" lon="4.73689">
        <ele>385.24203</ele>
        <time>2023-07-02T15:01:31.000Z</time>
      </trkpt>
      <trkpt lat="45.8115" lon="4.73688">
        <ele>385.42694</ele>
        <time>2023-07-02T15:01:32.000Z</time>
      </trkpt>
      <trkpt lat="45.81145" lon="4.73688">
        <ele>385.60977</ele>
        <time>2023-07-02T15:01:33.000Z</time>
      </trkpt>
      <trkpt lat="45.81141" lon="4.73686">
        <ele>385.8591</ele>
        <time>2023-07-02T15:01:34.000Z</time>
      </trkpt>
      <trkpt lat="45.81136" lon="4.73684">
        <ele>386.13541</ele>
        <time>2023-07-02T15:01:35.000Z</time>
      </trkpt>
      <trkpt lat="45.81131" lon="4.73683">
        <ele>386.41803</ele>
        <time>2023-07-02T15:01:36.000Z</time>
      </trkpt>
      <trkpt lat="45.81125" lon="4.73681">
        <ele>386.71783</ele>
        <time>2023-07-02T15:01:37.000Z</time>
      </trkpt>
      <trkpt lat="45.81119" lon="4.7368">
        <ele>386.90695</ele>
        <time>2023-07-02T15:01:38.000Z</time>
      </trkpt>
      <trkpt lat="45.81113" lon="4.73679">
        <ele>387.10071</ele>
        <time>2023-07-02T15:01:39.000Z</time>
      </trkpt>
      <trkpt lat="45.81107" lon="4.73677">
        <ele>387.11365</ele>
        <time>2023-07-02T15:01:40.000Z</time>
      </trkpt>
      <trkpt lat="45.81101" lon="4.73677">
        <ele>387.10202</ele>
        <time>2023-07-02T15:01:41.000Z</time>
      </trkpt>
      <trkpt lat="45.81095" lon="4.73677">
        <ele>387.11087</ele>
        <time>2023-07-02T15:01:42.000Z</time>
      </trkpt>
      <trkpt lat="45.81089" lon="4.73675">
        <ele>387.13483</ele>
        <time>2023-07-02T15:01:43.000Z</time>
      </trkpt>
      <trkpt lat="45.81083" lon="4.73674">
        <ele>387.15088</ele>
        <time>2023-07-02T15:01:44.000Z</time>
      </trkpt>
      <trkpt lat="45.81077" lon="4.73674">
        <ele>387.08609</ele>
        <time>2023-07-02T15:01:45.000Z</time>
      </trkpt>
      <trkpt lat="45.81072" lon="4.73673">
        <ele>387.20547</ele>
        <time>2023-07-02T15:01:46.000Z</time>
      </trkpt>
      <trkpt lat="45.81066" lon="4.73672">
        <ele>387.28607</ele>
        <time>2023-07-02T15:01:47.000Z</time>
      </trkpt>
      <trkpt lat="45.81061" lon="4.73669">
        <ele>387.34116</ele>
        <time>2023-07-02T15:01:48.000Z</time>
      </trkpt>
      <trkpt lat="45.81055" lon="4.73667">
        <ele>387.54037</ele>
        <time>2023-07-02T15:01:49.000Z</time>
      </trkpt>
      <trkpt lat="45.81049" lon="4.73665">
        <ele>387.73669</ele>
        <time>2023-07-02T15:01:50.000Z</time>
      </trkpt>
      <trkpt lat="45.81044" lon="4.73666">
        <ele>387.71893</ele>
        <time>2023-07-02T15:01:51.000Z</time>
      </trkpt>
      <trkpt lat="45.81039" lon="4.73671">
        <ele>387.67731</ele>
        <time>2023-07-02T15:01:52.000Z</time>
      </trkpt>
      <trkpt lat="45.81035" lon="4.73677">
        <ele>387.63156</ele>
        <time>2023-07-02T15:01:53.000Z</time>
      </trkpt>
      <trkpt lat="45.81031" lon="4.73684">
        <ele>387.45709</ele>
        <time>2023-07-02T15:01:54.000Z</time>
      </trkpt>
      <trkpt lat="45.81027" lon="4.73691">
        <ele>387.24844</ele>
        <time>2023-07-02T15:01:55.000Z</time>
      </trkpt>
      <trkpt lat="45.81022" lon="4.73698">
        <ele>387.00452</ele>
        <time>2023-07-02T15:01:56.000Z</time>
      </trkpt>
      <trkpt lat="45.81018" lon="4.73704">
        <ele>386.78192</ele>
        <time>2023-07-02T15:01:57.000Z</time>
      </trkpt>
      <trkpt lat="45.81014" lon="4.7371">
        <ele>386.56226</ele>
        <time>2023-07-02T15:01:58.000Z</time>
      </trkpt>
      <trkpt lat="45.81011" lon="4.73716">
        <ele>386.28082</ele>
        <time>2023-07-02T15:01:59.000Z</time>
      </trkpt>
      <trkpt lat="45.81006" lon="4.73721">
        <ele>386.15836</ele>
        <time>2023-07-02T15:02:00.000Z</time>
      </trkpt>
      <trkpt lat="45.81002" lon="4.73725">
        <ele>386.02237</ele>
        <time>2023-07-02T15:02:01.000Z</time>
      </trkpt>
      <trkpt lat="45.80999" lon="4.73726">
        <ele>385.88287</ele>
        <time>2023-07-02T15:02:02.000Z</time>
      </trkpt>
      <trkpt lat="45.80995" lon="4.73724">
        <ele>385.73169</ele>
        <time>2023-07-02T15:02:03.000Z</time>
      </trkpt>
      <trkpt lat="45.80992" lon="4.7372">
        <ele>385.61069</ele>
        <time>2023-07-02T15:02:04.000Z</time>
      </trkpt>
      <trkpt lat="45.8099" lon="4.73713">
        <ele>385.52148</ele>
        <time>2023-07-02T15:02:05.000Z</time>
      </trkpt>
      <trkpt lat="45.80989" lon="4.73707">
        <ele>385.52643</ele>
        <time>2023-07-02T15:02:06.000Z</time>
      </trkpt>
      <trkpt lat="45.8099" lon="4.73702">
        <ele>385.49414</ele>
        <time>2023-07-02T15:02:07.000Z</time>
      </trkpt>
      <trkpt lat="45.80989" lon="4.73695">
        <ele>385.50146</ele>
        <time>2023-07-02T15:02:08.000Z</time>
      </trkpt>
      <trkpt lat="45.80987" lon="4.73688">
        <ele>385.39063</ele>
        <time>2023-07-02T15:02:09.000Z</time>
      </trkpt>
      <trkpt lat="45.80987" lon="4.73683">
        <ele>385.30695</ele>
        <time>2023-07-02T15:02:10.000Z</time>
      </trkpt>
      <trkpt lat="45.80986" lon="4.73676">
        <ele>385.39606</ele>
        <time>2023-07-02T15:02:11.000Z</time>
      </trkpt>
      <trkpt lat="45.80985" lon="4.7367">
        <ele>385.44281</ele>
        <time>2023-07-02T15:02:12.000Z</time>
      </trkpt>
      <trkpt lat="45.80984" lon="4.73665">
        <ele>385.5173</ele>
        <time>2023-07-02T15:02:13.000Z</time>
      </trkpt>
      <trkpt lat="45.80984" lon="4.73659">
        <ele>385.66541</ele>
        <time>2023-07-02T15:02:14.000Z</time>
      </trkpt>
      <trkpt lat="45.80983" lon="4.73653">
        <ele>385.84543</ele>
        <time>2023-07-02T15:02:15.000Z</time>
      </trkpt>
      <trkpt lat="45.80982" lon="4.73647">
        <ele>386.02673</ele>
        <time>2023-07-02T15:02:16.000Z</time>
      </trkpt>
      <trkpt lat="45.80982" lon="4.73642">
        <ele>386.18658</ele>
        <time>2023-07-02T15:02:17.000Z</time>
      </trkpt>
      <trkpt lat="45.80981" lon="4.73636">
        <ele>386.33734</ele>
        <time>2023-07-02T15:02:18.000Z</time>
      </trkpt>
      <trkpt lat="45.80981" lon="4.73631">
        <ele>386.58282</ele>
        <time>2023-07-02T15:02:19.000Z</time>
      </trkpt>
      <trkpt lat="45.8098" lon="4.73626">
        <ele>386.88</ele>
        <time>2023-07-02T15:02:20.000Z</time>
      </trkpt>
      <trkpt lat="45.8098" lon="4.7362">
        <ele>387.23724</ele>
        <time>2023-07-02T15:02:21.000Z</time>
      </trkpt>
      <trkpt lat="45.8098" lon="4.73615">
        <ele>387.47208</ele>
        <time>2023-07-02T15:02:22.000Z</time>
      </trkpt>
      <trkpt lat="45.8098" lon="4.7361">
        <ele>387.71429</ele>
        <time>2023-07-02T15:02:23.000Z</time>
      </trkpt>
      <trkpt lat="45.8098" lon="4.73605">
        <ele>387.88779</ele>
        <time>2023-07-02T15:02:24.000Z</time>
      </trkpt>
      <trkpt lat="45.8098" lon="4.736">
        <ele>388.09332</ele>
        <time>2023-07-02T15:02:25.000Z</time>
      </trkpt>
      <trkpt lat="45.8098" lon="4.73595">
        <ele>388.22995</ele>
        <time>2023-07-02T15:02:26.000Z</time>
      </trkpt>
      <trkpt lat="45.8098" lon="4.7359">
        <ele>388.37946</ele>
        <time>2023-07-02T15:02:27.000Z</time>
      </trkpt>
      <trkpt lat="45.8098" lon="4.73585">
        <ele>388.49268</ele>
        <time>2023-07-02T15:02:28.000Z</time>
      </trkpt>
      <trkpt lat="45.8098" lon="4.7358">
        <ele>388.57697</ele>
        <time>2023-07-02T15:02:29.000Z</time>
      </trkpt>
      <trkpt lat="45.8098" lon="4.73575">
        <ele>388.66876</ele>
        <time>2023-07-02T15:02:30.000Z</time>
      </trkpt>
      <trkpt lat="45.80979" lon="4.7357">
        <ele>388.77722</ele>
        <time>2023-07-02T15:02:31.000Z</time>
      </trkpt>
      <trkpt lat="45.80978" lon="4.73565">
        <ele>388.88336</ele>
        <time>2023-07-02T15:02:32.000Z</time>
      </trkpt>
      <trkpt lat="45.80977" lon="4.73561">
        <ele>389.01358</ele>
        <time>2023-07-02T15:02:33.000Z</time>
      </trkpt>
      <trkpt lat="45.80977" lon="4.73556">
        <ele>389.12506</ele>
        <time>2023-07-02T15:02:34.000Z</time>
      </trkpt>
      <trkpt lat="45.80977" lon="4.73552">
        <ele>389.18515</ele>
        <time>2023-07-02T15:02:35.000Z</time>
      </trkpt>
      <trkpt lat="45.80976" lon="4.73547">
        <ele>389.24405</ele>
        <time>2023-07-02T15:02:36.000Z</time>
      </trkpt>
      <trkpt lat="45.80976" lon="4.73543">
        <ele>389.32297</ele>
        <time>2023-07-02T15:02:37.000Z</time>
      </trkpt>
      <trkpt lat="45.80976" lon="4.73538">
        <ele>389.41461</ele>
        <time>2023-07-02T15:02:38.000Z</time>
      </trkpt>
      <trkpt lat="45.80975" lon="4.73534">
        <ele>389.45532</ele>
        <time>2023-07-02T15:02:39.000Z</time>
      </trkpt>
      <trkpt lat="45.80975" lon="4.73529">
        <ele>389.4671</ele>
        <time>2023-07-02T15:02:40.000Z</time>
      </trkpt>
      <trkpt lat="45.80974" lon="4.73526">
        <ele>389.43076</ele>
        <time>2023-07-02T15:02:41.000Z</time>
      </trkpt>
      <trkpt lat="45.80974" lon="4.73522">
        <ele>389.55453</ele>
        <time>2023-07-02T15:02:42.000Z</time>
      </trkpt>
      <trkpt lat="45.80973" lon="4.73518">
        <ele>389.65771</ele>
        <time>2023-07-02T15:02:43.000Z</time>
      </trkpt>
      <trkpt lat="45.80972" lon="4.73513">
        <ele>389.83325</ele>
        <time>2023-07-02T15:02:44.000Z</time>
      </trkpt>
      <trkpt lat="45.80972" lon="4.73509">
        <ele>389.96332</ele>
        <time>2023-07-02T15:02:45.000Z</time>
      </trkpt>
      <trkpt lat="45.80971" lon="4.73504">
        <ele>390.06866</ele>
        <time>2023-07-02T15:02:46.000Z</time>
      </trkpt>
      <trkpt lat="45.80971" lon="4.73499">
        <ele>390.21759</ele>
        <time>2023-07-02T15:02:47.000Z</time>
      </trkpt>
      <trkpt lat="45.8097" lon="4.73494">
        <ele>390.36841</ele>
        <time>2023-07-02T15:02:48.000Z</time>
      </trkpt>
      <trkpt lat="45.8097" lon="4.73489">
        <ele>390.54596</ele>
        <time>2023-07-02T15:02:49.000Z</time>
      </trkpt>
      <trkpt lat="45.80969" lon="4.73484">
        <ele>390.6839</ele>
        <time>2023-07-02T15:02:50.000Z</time>
      </trkpt>
      <trkpt lat="45.80968" lon="4.73479">
        <ele>390.81274</ele>
        <time>2023-07-02T15:02:51.000Z</time>
      </trkpt>
      <trkpt lat="45.80968" lon="4.73474">
        <ele>391.03082</ele>
        <time>2023-07-02T15:02:52.000Z</time>
      </trkpt>
      <trkpt lat="45.80967" lon="4.73468">
        <ele>391.2189</ele>
        <time>2023-07-02T15:02:53.000Z</time>
      </trkpt>
      <trkpt lat="45.80967" lon="4.73463">
        <ele>391.39032</ele>
        <time>2023-07-02T15:02:54.000Z</time>
      </trkpt>
      <trkpt lat="45.80967" lon="4.73457">
        <ele>391.59579</ele>
        <time>2023-07-02T15:02:55.000Z</time>
      </trkpt>
      <trkpt lat="45.80966" lon="4.73451">
        <ele>391.69397</ele>
        <time>2023-07-02T15:02:56.000Z</time>
      </trkpt>
      <trkpt lat="45.80965" lon="4.73445">
        <ele>391.77518</ele>
        <time>2023-07-02T15:02:57.000Z</time>
      </trkpt>
      <trkpt lat="45.80964" lon="4.73439">
        <ele>391.84302</ele>
        <time>2023-07-02T15:02:58.000Z</time>
      </trkpt>
      <trkpt lat="45.80962" lon="4.73433">
        <ele>391.92706</ele>
        <time>2023-07-02T15:02:59.000Z</time>
      </trkpt>
      <trkpt lat="45.80962" lon="4.73426">
        <ele>391.99521</ele>
        <time>2023-07-02T15:03:00.000Z</time>
      </trkpt>
      <trkpt lat="45.80961" lon="4.73419">
        <ele>392.06073</ele>
        <time>2023-07-02T15:03:01.000Z</time>
      </trkpt>
      <trkpt lat="45.8096" lon="4.73411">
        <ele>392.07944</ele>
        <time>2023-07-02T15:03:02.000Z</time>
      </trkpt>
      <trkpt lat="45.8096" lon="4.73405">
        <ele>392.07916</ele>
        <time>2023-07-02T15:03:03.000Z</time>
      </trkpt>
      <trkpt lat="45.80959" lon="4.73397">
        <ele>392.05258</ele>
        <time>2023-07-02T15:03:04.000Z</time>
      </trkpt>
      <trkpt lat="45.80958" lon="4.7339">
        <ele>392.01163</ele>
        <time>2023-07-02T15:03:05.000Z</time>
      </trkpt>
      <trkpt lat="45.80957" lon="4.73382">
        <ele>392.05835</ele>
        <time>2023-07-02T15:03:06.000Z</time>
      </trkpt>
      <trkpt lat="45.80956" lon="4.73375">
        <ele>392.08197</ele>
        <time>2023-07-02T15:03:07.000Z</time>
      </trkpt>
      <trkpt lat="45.80955" lon="4.73367">
        <ele>392.15686</ele>
        <time>2023-07-02T15:03:08.000Z</time>
      </trkpt>
      <trkpt lat="45.80953" lon="4.73359">
        <ele>392.22751</ele>
        <time>2023-07-02T15:03:09.000Z</time>
      </trkpt>
      <trkpt lat="45.80949" lon="4.73352">
        <ele>392.17108</ele>
        <time>2023-07-02T15:03:10.000Z</time>
      </trkpt>
      <trkpt lat="45.80946" lon="4.73345">
        <ele>392.14163</ele>
        <time>2023-07-02T15:03:11.000Z</time>
      </trkpt>
      <trkpt lat="45.80941" lon="4.73338">
        <ele>392.04904</ele>
        <time>2023-07-02T15:03:12.000Z</time>
      </trkpt>
      <trkpt lat="45.80936" lon="4.73333">
        <ele>391.90289</ele>
        <time>2023-07-02T15:03:13.000Z</time>
      </trkpt>
      <trkpt lat="45.80932" lon="4.73326">
        <ele>391.78244</ele>
        <time>2023-07-02T15:03:14.000Z</time>
      </trkpt>
      <trkpt lat="45.80928" lon="4.73321">
        <ele>391.67694</ele>
        <time>2023-07-02T15:03:15.000Z</time>
      </trkpt>
      <trkpt lat="45.80923" lon="4.73317">
        <ele>391.63943</ele>
        <time>2023-07-02T15:03:16.000Z</time>
      </trkpt>
      <trkpt lat="45.80918" lon="4.73313">
        <ele>391.60492</ele>
        <time>2023-07-02T15:03:17.000Z</time>
      </trkpt>
      <trkpt lat="45.80916" lon="4.73305">
        <ele>391.57391</ele>
        <time>2023-07-02T15:03:18.000Z</time>
      </trkpt>
      <trkpt lat="45.80915" lon="4.73298">
        <ele>391.56183</ele>
        <time>2023-07-02T15:03:19.000Z</time>
      </trkpt>
      <trkpt lat="45.80916" lon="4.73289">
        <ele>391.44125</ele>
        <time>2023-07-02T15:03:20.000Z</time>
      </trkpt>
      <trkpt lat="45.80919" lon="4.73283">
        <ele>391.42047</ele>
        <time>2023-07-02T15:03:21.000Z</time>
      </trkpt>
      <trkpt lat="45.80923" lon="4.73278">
        <ele>391.40289</ele>
        <time>2023-07-02T15:03:22.000Z</time>
      </trkpt>
      <trkpt lat="45.80927" lon="4.73271">
        <ele>391.37424</ele>
        <time>2023-07-02T15:03:23.000Z</time>
      </trkpt>
      <trkpt lat="45.80931" lon="4.73265">
        <ele>391.3483</ele>
        <time>2023-07-02T15:03:24.000Z</time>
      </trkpt>
      <trkpt lat="45.80935" lon="4.73257">
        <ele>391.33939</ele>
        <time>2023-07-02T15:03:25.000Z</time>
      </trkpt>
      <trkpt lat="45.80939" lon="4.73249">
        <ele>391.23053</ele>
        <time>2023-07-02T15:03:26.000Z</time>
      </trkpt>
      <trkpt lat="45.80945" lon="4.73242">
        <ele>391.07477</ele>
        <time>2023-07-02T15:03:27.000Z</time>
      </trkpt>
      <trkpt lat="45.80949" lon="4.73234">
        <ele>390.86572</ele>
        <time>2023-07-02T15:03:28.000Z</time>
      </trkpt>
      <trkpt lat="45.80955" lon="4.73227">
        <ele>390.58502</ele>
        <time>2023-07-02T15:03:29.000Z</time>
      </trkpt>
      <trkpt lat="45.8096" lon="4.73219">
        <ele>390.39001</ele>
        <time>2023-07-02T15:03:30.000Z</time>
      </trkpt>
      <trkpt lat="45.80965" lon="4.73211">
        <ele>390.14838</ele>
        <time>2023-07-02T15:03:31.000Z</time>
      </trkpt>
      <trkpt lat="45.80971" lon="4.73203">
        <ele>389.89481</ele>
        <time>2023-07-02T15:03:32.000Z</time>
      </trkpt>
      <trkpt lat="45.80976" lon="4.73195">
        <ele>389.67667</ele>
        <time>2023-07-02T15:03:33.000Z</time>
      </trkpt>
      <trkpt lat="45.80981" lon="4.73187">
        <ele>389.41022</ele>
        <time>2023-07-02T15:03:34.000Z</time>
      </trkpt>
      <trkpt lat="45.80986" lon="4.73178">
        <ele>389.095</ele>
        <time>2023-07-02T15:03:35.000Z</time>
      </trkpt>
      <trkpt lat="45.80992" lon="4.7317">
        <ele>388.81821</ele>
        <time>2023-07-02T15:03:36.000Z</time>
      </trkpt>
      <trkpt lat="45.80998" lon="4.73162">
        <ele>388.48849</ele>
        <time>2023-07-02T15:03:37.000Z</time>
      </trkpt>
      <trkpt lat="45.81003" lon="4.73153">
        <ele>388.11716</ele>
        <time>2023-07-02T15:03:38.000Z</time>
      </trkpt>
      <trkpt lat="45.81008" lon="4.73145">
        <ele>387.70355</ele>
        <time>2023-07-02T15:03:39.000Z</time>
      </trkpt>
      <trkpt lat="45.81014" lon="4.73136">
        <ele>387.38571</ele>
        <time>2023-07-02T15:03:40.000Z</time>
      </trkpt>
      <trkpt lat="45.8102" lon="4.73127">
        <ele>386.98245</ele>
        <time>2023-07-02T15:03:41.000Z</time>
      </trkpt>
      <trkpt lat="45.81025" lon="4.73118">
        <ele>386.59592</ele>
        <time>2023-07-02T15:03:42.000Z</time>
      </trkpt>
      <trkpt lat="45.81031" lon="4.73108">
        <ele>385.96799</ele>
        <time>2023-07-02T15:03:43.000Z</time>
      </trkpt>
      <trkpt lat="45.81036" lon="4.73099">
        <ele>385.32397</ele>
        <time>2023-07-02T15:03:44.000Z</time>
      </trkpt>
      <trkpt lat="45.81043" lon="4.73089">
        <ele>384.68927</ele>
        <time>2023-07-02T15:03:45.000Z</time>
      </trkpt>
      <trkpt lat="45.81049" lon="4.73079">
        <ele>384.06232</ele>
        <time>2023-07-02T15:03:46.000Z</time>
      </trkpt>
      <trkpt lat="45.81055" lon="4.7307">
        <ele>383.48148</ele>
        <time>2023-07-02T15:03:47.000Z</time>
      </trkpt>
      <trkpt lat="45.81061" lon="4.7306">
        <ele>382.92496</ele>
        <time>2023-07-02T15:03:48.000Z</time>
      </trkpt>
      <trkpt lat="45.81068" lon="4.73051">
        <ele>382.41928</ele>
        <time>2023-07-02T15:03:49.000Z</time>
      </trkpt>
      <trkpt lat="45.81074" lon="4.73041">
        <ele>381.92535</ele>
        <time>2023-07-02T15:03:50.000Z</time>
      </trkpt>
      <trkpt lat="45.8108" lon="4.73031">
        <ele>381.43463</ele>
        <time>2023-07-02T15:03:51.000Z</time>
      </trkpt>
      <trkpt lat="45.81086" lon="4.73021">
        <ele>380.94855</ele>
        <time>2023-07-02T15:03:52.000Z</time>
      </trkpt>
      <trkpt lat="45.81093" lon="4.73013">
        <ele>380.42581</ele>
        <time>2023-07-02T15:03:53.000Z</time>
      </trkpt>
      <trkpt lat="45.81099" lon="4.73003">
        <ele>379.91769</ele>
        <time>2023-07-02T15:03:54.000Z</time>
      </trkpt>
      <trkpt lat="45.81104" lon="4.72993">
        <ele>379.40933</ele>
        <time>2023-07-02T15:03:55.000Z</time>
      </trkpt>
      <trkpt lat="45.8111" lon="4.72983">
        <ele>378.91504</ele>
        <time>2023-07-02T15:03:56.000Z</time>
      </trkpt>
      <trkpt lat="45.81116" lon="4.72973">
        <ele>378.47537</ele>
        <time>2023-07-02T15:03:57.000Z</time>
      </trkpt>
      <trkpt lat="45.81122" lon="4.72963">
        <ele>378.05908</ele>
        <time>2023-07-02T15:03:58.000Z</time>
      </trkpt>
      <trkpt lat="45.81128" lon="4.72953">
        <ele>377.51407</ele>
        <time>2023-07-02T15:03:59.000Z</time>
      </trkpt>
      <trkpt lat="45.81134" lon="4.72944">
        <ele>377.09793</ele>
        <time>2023-07-02T15:04:00.000Z</time>
      </trkpt>
      <trkpt lat="45.8114" lon="4.72935">
        <ele>376.46567</ele>
        <time>2023-07-02T15:04:01.000Z</time>
      </trkpt>
      <trkpt lat="45.81146" lon="4.72926">
        <ele>375.83307</ele>
        <time>2023-07-02T15:04:02.000Z</time>
      </trkpt>
      <trkpt lat="45.81152" lon="4.72917">
        <ele>375.45563</ele>
        <time>2023-07-02T15:04:03.000Z</time>
      </trkpt>
      <trkpt lat="45.81158" lon="4.72907">
        <ele>375.07794</ele>
        <time>2023-07-02T15:04:04.000Z</time>
      </trkpt>
      <trkpt lat="45.81164" lon="4.72899">
        <ele>374.63702</ele>
        <time>2023-07-02T15:04:05.000Z</time>
      </trkpt>
      <trkpt lat="45.8117" lon="4.7289">
        <ele>374.20142</ele>
        <time>2023-07-02T15:04:06.000Z</time>
      </trkpt>
      <trkpt lat="45.81175" lon="4.72882">
        <ele>373.75519</ele>
        <time>2023-07-02T15:04:07.000Z</time>
      </trkpt>
      <trkpt lat="45.81181" lon="4.72876">
        <ele>373.29181</ele>
        <time>2023-07-02T15:04:08.000Z</time>
      </trkpt>
      <trkpt lat="45.81185" lon="4.72868">
        <ele>372.82697</ele>
        <time>2023-07-02T15:04:09.000Z</time>
      </trkpt>
      <trkpt lat="45.81189" lon="4.7286">
        <ele>372.39474</ele>
        <time>2023-07-02T15:04:10.000Z</time>
      </trkpt>
      <trkpt lat="45.81194" lon="4.72853">
        <ele>371.99628</ele>
        <time>2023-07-02T15:04:11.000Z</time>
      </trkpt>
      <trkpt lat="45.81198" lon="4.72845">
        <ele>371.60184</ele>
        <time>2023-07-02T15:04:12.000Z</time>
      </trkpt>
      <trkpt lat="45.81202" lon="4.72839">
        <ele>371.24905</ele>
        <time>2023-07-02T15:04:13.000Z</time>
      </trkpt>
      <trkpt lat="45.81205" lon="4.72833">
        <ele>370.86148</ele>
        <time>2023-07-02T15:04:14.000Z</time>
      </trkpt>
      <trkpt lat="45.81208" lon="4.72826">
        <ele>370.50363</ele>
        <time>2023-07-02T15:04:15.000Z</time>
      </trkpt>
      <trkpt lat="45.81211" lon="4.7282">
        <ele>370.13089</ele>
        <time>2023-07-02T15:04:16.000Z</time>
      </trkpt>
      <trkpt lat="45.81214" lon="4.72816">
        <ele>369.78555</ele>
        <time>2023-07-02T15:04:17.000Z</time>
      </trkpt>
      <trkpt lat="45.81216" lon="4.7281">
        <ele>369.41022</ele>
        <time>2023-07-02T15:04:18.000Z</time>
      </trkpt>
      <trkpt lat="45.81218" lon="4.72802">
        <ele>369.17368</ele>
        <time>2023-07-02T15:04:19.000Z</time>
      </trkpt>
      <trkpt lat="45.81216" lon="4.72796">
        <ele>368.84042</ele>
        <time>2023-07-02T15:04:20.000Z</time>
      </trkpt>
      <trkpt lat="45.81215" lon="4.72792">
        <ele>368.72964</ele>
        <time>2023-07-02T15:04:21.000Z</time>
      </trkpt>
      <trkpt lat="45.81213" lon="4.72787">
        <ele>368.63004</ele>
        <time>2023-07-02T15:04:22.000Z</time>
      </trkpt>
      <trkpt lat="45.81209" lon="4.72783">
        <ele>368.48853</ele>
        <time>2023-07-02T15:04:23.000Z</time>
      </trkpt>
      <trkpt lat="45.81206" lon="4.7278">
        <ele>368.35971</ele>
        <time>2023-07-02T15:04:24.000Z</time>
      </trkpt>
      <trkpt lat="45.81203" lon="4.72777">
        <ele>369.79065</ele>
        <time>2023-07-02T15:04:25.000Z</time>
      </trkpt>
      <trkpt lat="45.812" lon="4.72774">
        <ele>371.20874</ele>
        <time>2023-07-02T15:04:26.000Z</time>
      </trkpt>
      <trkpt lat="45.81197" lon="4.72771">
        <ele>371.32416</ele>
        <time>2023-07-02T15:04:27.000Z</time>
      </trkpt>
      <trkpt lat="45.81195" lon="4.7277">
        <ele>371.46616</ele>
        <time>2023-07-02T15:04:28.000Z</time>
      </trkpt>
      <trkpt lat="45.81194" lon="4.72767">
        <ele>371.62262</ele>
        <time>2023-07-02T15:04:29.000Z</time>
      </trkpt>
      <trkpt lat="45.81191" lon="4.72765">
        <ele>371.77661</ele>
        <time>2023-07-02T15:04:30.000Z</time>
      </trkpt>
      <trkpt lat="45.81189" lon="4.72762">
        <ele>371.92642</ele>
        <time>2023-07-02T15:04:31.000Z</time>
      </trkpt>
      <trkpt lat="45.81186" lon="4.72759">
        <ele>373.26135</ele>
        <time>2023-07-02T15:04:32.000Z</time>
      </trkpt>
      <trkpt lat="45.81184" lon="4.72756">
        <ele>374.94006</ele>
        <time>2023-07-02T15:04:33.000Z</time>
      </trkpt>
      <trkpt lat="45.8118" lon="4.72753">
        <ele>376.64465</ele>
        <time>2023-07-02T15:04:34.000Z</time>
      </trkpt>
      <trkpt lat="45.81177" lon="4.7275">
        <ele>378.36224</ele>
        <time>2023-07-02T15:04:35.000Z</time>
      </trkpt>
      <trkpt lat="45.81171" lon="4.72745">
        <ele>380.14618</ele>
        <time>2023-07-02T15:04:36.000Z</time>
      </trkpt>
      <trkpt lat="45.81168" lon="4.72743">
        <ele>381.99081</ele>
        <time>2023-07-02T15:04:37.000Z</time>
      </trkpt>
      <trkpt lat="45.81165" lon="4.72739">
        <ele>383.81766</ele>
        <time>2023-07-02T15:04:38.000Z</time>
      </trkpt>
      <trkpt lat="45.81161" lon="4.72736">
        <ele>384.60797</ele>
        <time>2023-07-02T15:04:39.000Z</time>
      </trkpt>
      <trkpt lat="45.81157" lon="4.72731">
        <ele>384.47549</ele>
        <time>2023-07-02T15:04:40.000Z</time>
      </trkpt>
      <trkpt lat="45.81154" lon="4.72727">
        <ele>384.38266</ele>
        <time>2023-07-02T15:04:41.000Z</time>
      </trkpt>
      <trkpt lat="45.81149" lon="4.72724">
        <ele>384.27853</ele>
        <time>2023-07-02T15:04:42.000Z</time>
      </trkpt>
      <trkpt lat="45.81145" lon="4.7272">
        <ele>384.16577</ele>
        <time>2023-07-02T15:04:43.000Z</time>
      </trkpt>
      <trkpt lat="45.81141" lon="4.72717">
        <ele>384.08072</ele>
        <time>2023-07-02T15:04:44.000Z</time>
      </trkpt>
      <trkpt lat="45.81136" lon="4.72712">
        <ele>382.49991</ele>
        <time>2023-07-02T15:04:45.000Z</time>
      </trkpt>
      <trkpt lat="45.8113" lon="4.72707">
        <ele>380.96533</ele>
        <time>2023-07-02T15:04:46.000Z</time>
      </trkpt>
      <trkpt lat="45.81128" lon="4.72704">
        <ele>380.72916</ele>
        <time>2023-07-02T15:04:47.000Z</time>
      </trkpt>
      <trkpt lat="45.81122" lon="4.727">
        <ele>380.52289</ele>
        <time>2023-07-02T15:04:48.000Z</time>
      </trkpt>
      <trkpt lat="45.81118" lon="4.72697">
        <ele>380.33105</ele>
        <time>2023-07-02T15:04:49.000Z</time>
      </trkpt>
      <trkpt lat="45.81113" lon="4.72692">
        <ele>380.09766</ele>
        <time>2023-07-02T15:04:50.000Z</time>
      </trkpt>
      <trkpt lat="45.81108" lon="4.72689">
        <ele>379.84088</ele>
        <time>2023-07-02T15:04:51.000Z</time>
      </trkpt>
      <trkpt lat="45.81103" lon="4.72684">
        <ele>378.36105</ele>
        <time>2023-07-02T15:04:52.000Z</time>
      </trkpt>
      <trkpt lat="45.81096" lon="4.72679">
        <ele>376.51874</ele>
        <time>2023-07-02T15:04:53.000Z</time>
      </trkpt>
      <trkpt lat="45.8109" lon="4.72677">
        <ele>374.66827</ele>
        <time>2023-07-02T15:04:54.000Z</time>
      </trkpt>
      <trkpt lat="45.81084" lon="4.72673">
        <ele>372.79425</ele>
        <time>2023-07-02T15:04:55.000Z</time>
      </trkpt>
      <trkpt lat="45.81079" lon="4.72669">
        <ele>370.87671</ele>
        <time>2023-07-02T15:04:56.000Z</time>
      </trkpt>
      <trkpt lat="45.81074" lon="4.72664">
        <ele>368.90045</ele>
        <time>2023-07-02T15:04:57.000Z</time>
      </trkpt>
      <trkpt lat="45.8107" lon="4.72657">
        <ele>366.9256</ele>
        <time>2023-07-02T15:04:58.000Z</time>
      </trkpt>
      <trkpt lat="45.81064" lon="4.72653">
        <ele>365.99893</ele>
        <time>2023-07-02T15:04:59.000Z</time>
      </trkpt>
      <trkpt lat="45.8106" lon="4.72648">
        <ele>366.00482</ele>
        <time>2023-07-02T15:05:00.000Z</time>
      </trkpt>
      <trkpt lat="45.81054" lon="4.72643">
        <ele>365.97006</ele>
        <time>2023-07-02T15:05:01.000Z</time>
      </trkpt>
      <trkpt lat="45.81049" lon="4.72638">
        <ele>365.93243</ele>
        <time>2023-07-02T15:05:02.000Z</time>
      </trkpt>
      <trkpt lat="45.81044" lon="4.72635">
        <ele>365.91055</ele>
        <time>2023-07-02T15:05:03.000Z</time>
      </trkpt>
      <trkpt lat="45.81038" lon="4.72631">
        <ele>365.83743</ele>
        <time>2023-07-02T15:05:04.000Z</time>
      </trkpt>
      <trkpt lat="45.81032" lon="4.72626">
        <ele>365.75009</ele>
        <time>2023-07-02T15:05:05.000Z</time>
      </trkpt>
      <trkpt lat="45.81027" lon="4.72622">
        <ele>365.59387</ele>
        <time>2023-07-02T15:05:06.000Z</time>
      </trkpt>
      <trkpt lat="45.81022" lon="4.72619">
        <ele>365.48172</ele>
        <time>2023-07-02T15:05:07.000Z</time>
      </trkpt>
      <trkpt lat="45.81015" lon="4.72616">
        <ele>365.29019</ele>
        <time>2023-07-02T15:05:08.000Z</time>
      </trkpt>
      <trkpt lat="45.81014" lon="4.72613">
        <ele>365.09576</ele>
        <time>2023-07-02T15:05:09.000Z</time>
      </trkpt>
      <trkpt lat="45.8101" lon="4.72613">
        <ele>364.90005</ele>
        <time>2023-07-02T15:05:10.000Z</time>
      </trkpt>
      <trkpt lat="45.81009" lon="4.72615">
        <ele>364.7106</ele>
        <time>2023-07-02T15:05:12.000Z</time>
      </trkpt>
      <trkpt lat="45.81011" lon="4.72618">
        <ele>364.58237</ele>
        <time>2023-07-02T15:05:14.000Z</time>
      </trkpt>
      <trkpt lat="45.81013" lon="4.72618">
        <ele>364.47382</ele>
        <time>2023-07-02T15:05:15.000Z</time>
      </trkpt>
      <trkpt lat="45.81014" lon="4.72622">
        <ele>364.45844</ele>
        <time>2023-07-02T15:05:17.000Z</time>
      </trkpt>
      <trkpt lat="45.81013" lon="4.72625">
        <ele>364.28687</ele>
        <time>2023-07-02T15:05:18.000Z</time>
      </trkpt>
      <trkpt lat="45.81011" lon="4.72627">
        <ele>364.13028</ele>
        <time>2023-07-02T15:05:20.000Z</time>
      </trkpt>
      <trkpt lat="45.81009" lon="4.72627">
        <ele>363.95499</ele>
        <time>2023-07-02T15:05:22.000Z</time>
      </trkpt>
      <trkpt lat="45.81007" lon="4.72629">
        <ele>363.849</ele>
        <time>2023-07-02T15:05:24.000Z</time>
      </trkpt>
      <trkpt lat="45.81006" lon="4.72632">
        <ele>363.73114</ele>
        <time>2023-07-02T15:05:26.000Z</time>
      </trkpt>
      <trkpt lat="45.81005" lon="4.72634">
        <ele>363.62509</ele>
        <time>2023-07-02T15:05:27.000Z</time>
      </trkpt>
      <trkpt lat="45.81003" lon="4.72637">
        <ele>363.54034</ele>
        <time>2023-07-02T15:05:28.000Z</time>
      </trkpt>
      <trkpt lat="45.81001" lon="4.7264">
        <ele>363.4437</ele>
        <time>2023-07-02T15:05:29.000Z</time>
      </trkpt>
      <trkpt lat="45.80999" lon="4.72644">
        <ele>363.37201</ele>
        <time>2023-07-02T15:05:30.000Z</time>
      </trkpt>
      <trkpt lat="45.80997" lon="4.72648">
        <ele>363.34393</ele>
        <time>2023-07-02T15:05:31.000Z</time>
      </trkpt>
      <trkpt lat="45.80996" lon="4.72652">
        <ele>363.30283</ele>
        <time>2023-07-02T15:05:32.000Z</time>
      </trkpt>
      <trkpt lat="45.80994" lon="4.72655">
        <ele>363.28644</ele>
        <time>2023-07-02T15:05:33.000Z</time>
      </trkpt>
      <trkpt lat="45.80992" lon="4.72657">
        <ele>363.1524</ele>
        <time>2023-07-02T15:05:34.000Z</time>
      </trkpt>
      <trkpt lat="45.80988" lon="4.72659">
        <ele>363.05997</ele>
        <time>2023-07-02T15:05:36.000Z</time>
      </trkpt>
      <trkpt lat="45.80986" lon="4.7266">
        <ele>362.86978</ele>
        <time>2023-07-02T15:05:38.000Z</time>
      </trkpt>
      <trkpt lat="45.80984" lon="4.7266">
        <ele>362.61182</ele>
        <time>2023-07-02T15:05:43.000Z</time>
      </trkpt>
      <trkpt lat="45.80982" lon="4.72661">
        <ele>362.34204</ele>
        <time>2023-07-02T15:05:44.000Z</time>
      </trkpt>
      <trkpt lat="45.8098" lon="4.72663">
        <ele>362.04266</ele>
        <time>2023-07-02T15:05:45.000Z</time>
      </trkpt>
      <trkpt lat="45.80978" lon="4.72665">
        <ele>361.71188</ele>
        <time>2023-07-02T15:05:46.000Z</time>
      </trkpt>
      <trkpt lat="45.80976" lon="4.72666">
        <ele>361.29303</ele>
        <time>2023-07-02T15:05:47.000Z</time>
      </trkpt>
      <trkpt lat="45.80974" lon="4.72669">
        <ele>360.96387</ele>
        <time>2023-07-02T15:05:52.000Z</time>
      </trkpt>
      <trkpt lat="45.80972" lon="4.72671">
        <ele>360.40073</ele>
        <time>2023-07-02T15:06:03.000Z</time>
      </trkpt>
      <trkpt lat="45.8097" lon="4.72672">
        <ele>359.819</ele>
        <time>2023-07-02T15:06:04.000Z</time>
      </trkpt>
      <trkpt lat="45.80968" lon="4.72673">
        <ele>359.1864</ele>
        <time>2023-07-02T15:06:05.000Z</time>
      </trkpt>
      <trkpt lat="45.80966" lon="4.72673">
        <ele>358.5784</ele>
        <time>2023-07-02T15:06:06.000Z</time>
      </trkpt>
      <trkpt lat="45.80963" lon="4.72673">
        <ele>357.94611</ele>
        <time>2023-07-02T15:06:07.000Z</time>
      </trkpt>
      <trkpt lat="45.8096" lon="4.72673">
        <ele>357.3226</ele>
        <time>2023-07-02T15:06:08.000Z</time>
      </trkpt>
      <trkpt lat="45.80956" lon="4.72672">
        <ele>356.74811</ele>
        <time>2023-07-02T15:06:09.000Z</time>
      </trkpt>
      <trkpt lat="45.80954" lon="4.72672">
        <ele>356.14911</ele>
        <time>2023-07-02T15:06:10.000Z</time>
      </trkpt>
      <trkpt lat="45.80952" lon="4.72671">
        <ele>355.52521</ele>
        <time>2023-07-02T15:06:11.000Z</time>
      </trkpt>
      <trkpt lat="45.80949" lon="4.7267">
        <ele>354.94101</ele>
        <time>2023-07-02T15:06:12.000Z</time>
      </trkpt>
      <trkpt lat="45.80946" lon="4.72668">
        <ele>354.36349</ele>
        <time>2023-07-02T15:06:13.000Z</time>
      </trkpt>
      <trkpt lat="45.80944" lon="4.72667">
        <ele>353.80737</ele>
        <time>2023-07-02T15:06:14.000Z</time>
      </trkpt>
      <trkpt lat="45.80941" lon="4.72666">
        <ele>353.25562</ele>
        <time>2023-07-02T15:06:15.000Z</time>
      </trkpt>
      <trkpt lat="45.80938" lon="4.72664">
        <ele>352.76044</ele>
        <time>2023-07-02T15:06:16.000Z</time>
      </trkpt>
      <trkpt lat="45.80935" lon="4.72662">
        <ele>352.35736</ele>
        <time>2023-07-02T15:06:17.000Z</time>
      </trkpt>
      <trkpt lat="45.80932" lon="4.7266">
        <ele>352.00937</ele>
        <time>2023-07-02T15:06:18.000Z</time>
      </trkpt>
      <trkpt lat="45.80929" lon="4.72658">
        <ele>351.68146</ele>
        <time>2023-07-02T15:06:19.000Z</time>
      </trkpt>
      <trkpt lat="45.80926" lon="4.72656">
        <ele>351.41156</ele>
        <time>2023-07-02T15:06:20.000Z</time>
      </trkpt>
      <trkpt lat="45.80922" lon="4.72654">
        <ele>351.14615</ele>
        <time>2023-07-02T15:06:21.000Z</time>
      </trkpt>
      <trkpt lat="45.80918" lon="4.72651">
        <ele>350.93402</ele>
        <time>2023-07-02T15:06:22.000Z</time>
      </trkpt>
      <trkpt lat="45.80915" lon="4.72649">
        <ele>350.94257</ele>
        <time>2023-07-02T15:06:23.000Z</time>
      </trkpt>
      <trkpt lat="45.80912" lon="4.72646">
        <ele>351.00522</ele>
        <time>2023-07-02T15:06:24.000Z</time>
      </trkpt>
      <trkpt lat="45.8091" lon="4.72644">
        <ele>351.15427</ele>
        <time>2023-07-02T15:06:25.000Z</time>
      </trkpt>
      <trkpt lat="45.80908" lon="4.72641">
        <ele>351.289</ele>
        <time>2023-07-02T15:06:26.000Z</time>
      </trkpt>
      <trkpt lat="45.80905" lon="4.72639">
        <ele>351.39835</ele>
        <time>2023-07-02T15:06:28.000Z</time>
      </trkpt>
      <trkpt lat="45.80903" lon="4.72639">
        <ele>351.45892</ele>
        <time>2023-07-02T15:06:29.000Z</time>
      </trkpt>
      <trkpt lat="45.80901" lon="4.7264">
        <ele>351.48871</ele>
        <time>2023-07-02T15:06:30.000Z</time>
      </trkpt>
      <trkpt lat="45.80899" lon="4.72641">
        <ele>351.50018</ele>
        <time>2023-07-02T15:06:31.000Z</time>
      </trkpt>
      <trkpt lat="45.80897" lon="4.72643">
        <ele>351.52734</ele>
        <time>2023-07-02T15:06:32.000Z</time>
      </trkpt>
      <trkpt lat="45.80893" lon="4.72643">
        <ele>351.58194</ele>
        <time>2023-07-02T15:06:33.000Z</time>
      </trkpt>
      <trkpt lat="45.80889" lon="4.72643">
        <ele>351.61362</ele>
        <time>2023-07-02T15:06:34.000Z</time>
      </trkpt>
      <trkpt lat="45.80886" lon="4.72643">
        <ele>351.65384</ele>
        <time>2023-07-02T15:06:35.000Z</time>
      </trkpt>
      <trkpt lat="45.80884" lon="4.72642">
        <ele>351.6998</ele>
        <time>2023-07-02T15:06:36.000Z</time>
      </trkpt>
      <trkpt lat="45.80882" lon="4.7264">
        <ele>351.77267</ele>
        <time>2023-07-02T15:06:37.000Z</time>
      </trkpt>
      <trkpt lat="45.8088" lon="4.72639">
        <ele>351.79962</ele>
        <time>2023-07-02T15:06:38.000Z</time>
      </trkpt>
      <trkpt lat="45.80878" lon="4.72639">
        <ele>351.85114</ele>
        <time>2023-07-02T15:06:41.000Z</time>
      </trkpt>
      <trkpt lat="45.80877" lon="4.72637">
        <ele>351.9101</ele>
        <time>2023-07-02T15:06:46.000Z</time>
      </trkpt>
      <trkpt lat="45.80874" lon="4.72637">
        <ele>351.91632</ele>
        <time>2023-07-02T15:06:53.000Z</time>
      </trkpt>
      <trkpt lat="45.80872" lon="4.72636">
        <ele>351.89233</ele>
        <time>2023-07-02T15:07:00.000Z</time>
      </trkpt>
      <trkpt lat="45.80869" lon="4.72634">
        <ele>351.9075</ele>
        <time>2023-07-02T15:07:03.000Z</time>
      </trkpt>
      <trkpt lat="45.80867" lon="4.72634">
        <ele>351.95169</ele>
        <time>2023-07-02T15:07:10.000Z</time>
      </trkpt>
      <trkpt lat="45.80865" lon="4.72632">
        <ele>351.88992</ele>
        <time>2023-07-02T15:07:16.000Z</time>
      </trkpt>
      <trkpt lat="45.80866" lon="4.72629">
        <ele>351.69415</ele>
        <time>2023-07-02T15:07:22.000Z</time>
      </trkpt>
      <trkpt lat="45.80864" lon="4.72631">
        <ele>351.51208</ele>
        <time>2023-07-02T15:08:17.000Z</time>
      </trkpt>
      <trkpt lat="45.80861" lon="4.7263">
        <ele>351.32062</ele>
        <time>2023-07-02T15:08:19.000Z</time>
      </trkpt>
      <trkpt lat="45.80857" lon="4.72628">
        <ele>351.17267</ele>
        <time>2023-07-02T15:08:21.000Z</time>
      </trkpt>
      <trkpt lat="45.80854" lon="4.72626">
        <ele>351.01208</ele>
        <time>2023-07-02T15:08:22.000Z</time>
      </trkpt>
      <trkpt lat="45.80851" lon="4.72624">
        <ele>350.90891</ele>
        <time>2023-07-02T15:08:23.000Z</time>
      </trkpt>
      <trkpt lat="45.80849" lon="4.72622">
        <ele>350.76361</ele>
        <time>2023-07-02T15:08:24.000Z</time>
      </trkpt>
      <trkpt lat="45.80846" lon="4.72621">
        <ele>350.59552</ele>
        <time>2023-07-02T15:08:25.000Z</time>
      </trkpt>
      <trkpt lat="45.80844" lon="4.7262">
        <ele>350.44626</ele>
        <time>2023-07-02T15:08:26.000Z</time>
      </trkpt>
      <trkpt lat="45.80842" lon="4.72618">
        <ele>350.37598</ele>
        <time>2023-07-02T15:08:28.000Z</time>
      </trkpt>
      <trkpt lat="45.8084" lon="4.72615">
        <ele>350.28091</ele>
        <time>2023-07-02T15:08:29.000Z</time>
      </trkpt>
      <trkpt lat="45.80839" lon="4.72612">
        <ele>350.20517</ele>
        <time>2023-07-02T15:08:30.000Z</time>
      </trkpt>
      <trkpt lat="45.80837" lon="4.72609">
        <ele>350.19821</ele>
        <time>2023-07-02T15:08:31.000Z</time>
      </trkpt>
      <trkpt lat="45.80836" lon="4.72606">
        <ele>350.13535</ele>
        <time>2023-07-02T15:08:32.000Z</time>
      </trkpt>
      <trkpt lat="45.80834" lon="4.72603">
        <ele>350.06195</ele>
        <time>2023-07-02T15:08:33.000Z</time>
      </trkpt>
      <trkpt lat="45.80832" lon="4.726">
        <ele>349.99741</ele>
        <time>2023-07-02T15:08:34.000Z</time>
      </trkpt>
      <trkpt lat="45.80831" lon="4.72599">
        <ele>350.00476</ele>
        <time>2023-07-02T15:08:35.000Z</time>
      </trkpt>
      <trkpt lat="45.80828" lon="4.726">
        <ele>349.99164</ele>
        <time>2023-07-02T15:08:36.000Z</time>
      </trkpt>
      <trkpt lat="45.80826" lon="4.72601">
        <ele>349.99774</ele>
        <time>2023-07-02T15:08:37.000Z</time>
      </trkpt>
      <trkpt lat="45.80823" lon="4.72601">
        <ele>350.03809</ele>
        <time>2023-07-02T15:08:38.000Z</time>
      </trkpt>
      <trkpt lat="45.80819" lon="4.726">
        <ele>350.18158</ele>
        <time>2023-07-02T15:08:39.000Z</time>
      </trkpt>
      <trkpt lat="45.80816" lon="4.72598">
        <ele>350.31171</ele>
        <time>2023-07-02T15:08:40.000Z</time>
      </trkpt>
      <trkpt lat="45.80813" lon="4.72597">
        <ele>350.50006</ele>
        <time>2023-07-02T15:08:42.000Z</time>
      </trkpt>
      <trkpt lat="45.80812" lon="4.72596">
        <ele>350.59531</ele>
        <time>2023-07-02T15:08:44.000Z</time>
      </trkpt>
      <trkpt lat="45.8081" lon="4.72592">
        <ele>350.72208</ele>
        <time>2023-07-02T15:08:46.000Z</time>
      </trkpt>
      <trkpt lat="45.80808" lon="4.72589">
        <ele>350.80157</ele>
        <time>2023-07-02T15:08:48.000Z</time>
      </trkpt>
      <trkpt lat="45.80806" lon="4.72588">
        <ele>350.92773</ele>
        <time>2023-07-02T15:08:49.000Z</time>
      </trkpt>
      <trkpt lat="45.80804" lon="4.72586">
        <ele>351.07745</ele>
        <time>2023-07-02T15:08:50.000Z</time>
      </trkpt>
      <trkpt lat="45.80802" lon="4.72585">
        <ele>351.21136</ele>
        <time>2023-07-02T15:08:51.000Z</time>
      </trkpt>
      <trkpt lat="45.808" lon="4.72582">
        <ele>351.30304</ele>
        <time>2023-07-02T15:08:52.000Z</time>
      </trkpt>
      <trkpt lat="45.80798" lon="4.72579">
        <ele>351.40961</ele>
        <time>2023-07-02T15:08:53.000Z</time>
      </trkpt>
      <trkpt lat="45.80797" lon="4.72577">
        <ele>351.50137</ele>
        <time>2023-07-02T15:08:54.000Z</time>
      </trkpt>
      <trkpt lat="45.80794" lon="4.72574">
        <ele>351.51675</ele>
        <time>2023-07-02T15:08:56.000Z</time>
      </trkpt>
      <trkpt lat="45.80793" lon="4.72572">
        <ele>351.51791</ele>
        <time>2023-07-02T15:08:57.000Z</time>
      </trkpt>
      <trkpt lat="45.80792" lon="4.7257">
        <ele>351.49039</ele>
        <time>2023-07-02T15:08:58.000Z</time>
      </trkpt>
      <trkpt lat="45.80789" lon="4.72569">
        <ele>351.44083</ele>
        <time>2023-07-02T15:08:59.000Z</time>
      </trkpt>
      <trkpt lat="45.80785" lon="4.72569">
        <ele>351.33466</ele>
        <time>2023-07-02T15:09:00.000Z</time>
      </trkpt>
      <trkpt lat="45.80781" lon="4.72568">
        <ele>351.24338</ele>
        <time>2023-07-02T15:09:01.000Z</time>
      </trkpt>
      <trkpt lat="45.80776" lon="4.72565">
        <ele>351.04004</ele>
        <time>2023-07-02T15:09:02.000Z</time>
      </trkpt>
      <trkpt lat="45.80773" lon="4.72562">
        <ele>350.83813</ele>
        <time>2023-07-02T15:09:03.000Z</time>
      </trkpt>
      <trkpt lat="45.80771" lon="4.72558">
        <ele>350.67108</ele>
        <time>2023-07-02T15:09:04.000Z</time>
      </trkpt>
      <trkpt lat="45.8077" lon="4.72556">
        <ele>350.49268</ele>
        <time>2023-07-02T15:09:05.000Z</time>
      </trkpt>
      <trkpt lat="45.80767" lon="4.72554">
        <ele>350.29672</ele>
        <time>2023-07-02T15:09:07.000Z</time>
      </trkpt>
      <trkpt lat="45.80765" lon="4.72555">
        <ele>350.11322</ele>
        <time>2023-07-02T15:09:08.000Z</time>
      </trkpt>
      <trkpt lat="45.80762" lon="4.72555">
        <ele>349.93588</ele>
        <time>2023-07-02T15:09:09.000Z</time>
      </trkpt>
      <trkpt lat="45.80759" lon="4.72555">
        <ele>349.81195</ele>
        <time>2023-07-02T15:09:10.000Z</time>
      </trkpt>
      <trkpt lat="45.80756" lon="4.72553">
        <ele>349.59717</ele>
        <time>2023-07-02T15:09:11.000Z</time>
      </trkpt>
      <trkpt lat="45.80752" lon="4.72552">
        <ele>349.31854</ele>
        <time>2023-07-02T15:09:12.000Z</time>
      </trkpt>
      <trkpt lat="45.80748" lon="4.72549">
        <ele>349.09634</ele>
        <time>2023-07-02T15:09:13.000Z</time>
      </trkpt>
      <trkpt lat="45.80745" lon="4.72546">
        <ele>348.86246</ele>
        <time>2023-07-02T15:09:14.000Z</time>
      </trkpt>
      <trkpt lat="45.80741" lon="4.72544">
        <ele>348.62793</ele>
        <time>2023-07-02T15:09:15.000Z</time>
      </trkpt>
      <trkpt lat="45.80738" lon="4.72542">
        <ele>348.42236</ele>
        <time>2023-07-02T15:09:16.000Z</time>
      </trkpt>
      <trkpt lat="45.80736" lon="4.7254">
        <ele>348.26996</ele>
        <time>2023-07-02T15:09:17.000Z</time>
      </trkpt>
      <trkpt lat="45.80734" lon="4.72539">
        <ele>348.06241</ele>
        <time>2023-07-02T15:09:18.000Z</time>
      </trkpt>
      <trkpt lat="45.80732" lon="4.72538">
        <ele>347.91718</ele>
        <time>2023-07-02T15:09:19.000Z</time>
      </trkpt>
      <trkpt lat="45.8073" lon="4.72535">
        <ele>347.81271</ele>
        <time>2023-07-02T15:09:20.000Z</time>
      </trkpt>
      <trkpt lat="45.80729" lon="4.72533">
        <ele>347.72858</ele>
        <time>2023-07-02T15:09:21.000Z</time>
      </trkpt>
      <trkpt lat="45.80726" lon="4.72531">
        <ele>347.61786</ele>
        <time>2023-07-02T15:09:22.000Z</time>
      </trkpt>
      <trkpt lat="45.80723" lon="4.72529">
        <ele>347.5274</ele>
        <time>2023-07-02T15:09:23.000Z</time>
      </trkpt>
      <trkpt lat="45.8072" lon="4.72527">
        <ele>347.47403</ele>
        <time>2023-07-02T15:09:24.000Z</time>
      </trkpt>
      <trkpt lat="45.80717" lon="4.72524">
        <ele>347.36249</ele>
        <time>2023-07-02T15:09:25.000Z</time>
      </trkpt>
      <trkpt lat="45.80714" lon="4.7252">
        <ele>347.23508</ele>
        <time>2023-07-02T15:09:26.000Z</time>
      </trkpt>
      <trkpt lat="45.80712" lon="4.72517">
        <ele>347.14108</ele>
        <time>2023-07-02T15:09:27.000Z</time>
      </trkpt>
      <trkpt lat="45.80709" lon="4.72515">
        <ele>347.07111</ele>
        <time>2023-07-02T15:09:28.000Z</time>
      </trkpt>
      <trkpt lat="45.80706" lon="4.72514">
        <ele>346.96246</ele>
        <time>2023-07-02T15:09:29.000Z</time>
      </trkpt>
      <trkpt lat="45.80702" lon="4.72514">
        <ele>346.86093</ele>
        <time>2023-07-02T15:09:30.000Z</time>
      </trkpt>
      <trkpt lat="45.80698" lon="4.72514">
        <ele>346.84146</ele>
        <time>2023-07-02T15:09:31.000Z</time>
      </trkpt>
      <trkpt lat="45.80694" lon="4.72513">
        <ele>346.83807</ele>
        <time>2023-07-02T15:09:32.000Z</time>
      </trkpt>
      <trkpt lat="45.80691" lon="4.72511">
        <ele>346.78217</ele>
        <time>2023-07-02T15:09:33.000Z</time>
      </trkpt>
      <trkpt lat="45.80688" lon="4.72509">
        <ele>346.78284</ele>
        <time>2023-07-02T15:09:34.000Z</time>
      </trkpt>
      <trkpt lat="45.80684" lon="4.72508">
        <ele>346.668</ele>
        <time>2023-07-02T15:09:35.000Z</time>
      </trkpt>
      <trkpt lat="45.80681" lon="4.72508">
        <ele>346.53256</ele>
        <time>2023-07-02T15:09:36.000Z</time>
      </trkpt>
      <trkpt lat="45.80678" lon="4.72508">
        <ele>346.37958</ele>
        <time>2023-07-02T15:09:37.000Z</time>
      </trkpt>
      <trkpt lat="45.80675" lon="4.72508">
        <ele>346.21875</ele>
        <time>2023-07-02T15:09:38.000Z</time>
      </trkpt>
      <trkpt lat="45.80673" lon="4.72508">
        <ele>346.00717</ele>
        <time>2023-07-02T15:09:39.000Z</time>
      </trkpt>
      <trkpt lat="45.80671" lon="4.72507">
        <ele>345.80222</ele>
        <time>2023-07-02T15:09:40.000Z</time>
      </trkpt>
      <trkpt lat="45.80668" lon="4.72504">
        <ele>345.62265</ele>
        <time>2023-07-02T15:09:41.000Z</time>
      </trkpt>
      <trkpt lat="45.80666" lon="4.72502">
        <ele>345.45593</ele>
        <time>2023-07-02T15:09:42.000Z</time>
      </trkpt>
      <trkpt lat="45.80665" lon="4.72499">
        <ele>345.32196</ele>
        <time>2023-07-02T15:09:43.000Z</time>
      </trkpt>
      <trkpt lat="45.80663" lon="4.72496">
        <ele>345.20047</ele>
        <time>2023-07-02T15:09:44.000Z</time>
      </trkpt>
      <trkpt lat="45.80661" lon="4.72494">
        <ele>345.07764</ele>
        <time>2023-07-02T15:09:45.000Z</time>
      </trkpt>
      <trkpt lat="45.80659" lon="4.7249">
        <ele>344.9729</ele>
        <time>2023-07-02T15:09:46.000Z</time>
      </trkpt>
      <trkpt lat="45.80657" lon="4.72486">
        <ele>344.79697</ele>
        <time>2023-07-02T15:09:47.000Z</time>
      </trkpt>
      <trkpt lat="45.80656" lon="4.72481">
        <ele>344.61655</ele>
        <time>2023-07-02T15:09:48.000Z</time>
      </trkpt>
      <trkpt lat="45.80655" lon="4.72476">
        <ele>344.4837</ele>
        <time>2023-07-02T15:09:49.000Z</time>
      </trkpt>
      <trkpt lat="45.80655" lon="4.72473">
        <ele>344.34628</ele>
        <time>2023-07-02T15:09:50.000Z</time>
      </trkpt>
      <trkpt lat="45.80654" lon="4.7247">
        <ele>344.20538</ele>
        <time>2023-07-02T15:09:51.000Z</time>
      </trkpt>
      <trkpt lat="45.80653" lon="4.72467">
        <ele>344.04642</ele>
        <time>2023-07-02T15:09:52.000Z</time>
      </trkpt>
      <trkpt lat="45.80651" lon="4.72464">
        <ele>343.87369</ele>
        <time>2023-07-02T15:09:54.000Z</time>
      </trkpt>
      <trkpt lat="45.80648" lon="4.72463">
        <ele>343.66241</ele>
        <time>2023-07-02T15:09:55.000Z</time>
      </trkpt>
      <trkpt lat="45.80645" lon="4.72462">
        <ele>343.52438</ele>
        <time>2023-07-02T15:09:56.000Z</time>
      </trkpt>
      <trkpt lat="45.80642" lon="4.72461">
        <ele>343.37061</ele>
        <time>2023-07-02T15:09:57.000Z</time>
      </trkpt>
      <trkpt lat="45.80639" lon="4.72459">
        <ele>343.24765</ele>
        <time>2023-07-02T15:09:58.000Z</time>
      </trkpt>
      <trkpt lat="45.80635" lon="4.72459">
        <ele>343.17776</ele>
        <time>2023-07-02T15:09:59.000Z</time>
      </trkpt>
      <trkpt lat="45.80632" lon="4.72458">
        <ele>343.11151</ele>
        <time>2023-07-02T15:10:00.000Z</time>
      </trkpt>
      <trkpt lat="45.8063" lon="4.72459">
        <ele>343.05362</ele>
        <time>2023-07-02T15:10:01.000Z</time>
      </trkpt>
      <trkpt lat="45.80626" lon="4.7246">
        <ele>342.97333</ele>
        <time>2023-07-02T15:10:03.000Z</time>
      </trkpt>
      <trkpt lat="45.80623" lon="4.72461">
        <ele>342.94885</ele>
        <time>2023-07-02T15:10:05.000Z</time>
      </trkpt>
      <trkpt lat="45.80623" lon="4.72463">
        <ele>342.98184</ele>
        <time>2023-07-02T15:10:13.000Z</time>
      </trkpt>
      <trkpt lat="45.80621" lon="4.72465">
        <ele>342.96149</ele>
        <time>2023-07-02T15:10:15.000Z</time>
      </trkpt>
      <trkpt lat="45.80618" lon="4.72468">
        <ele>342.9137</ele>
        <time>2023-07-02T15:10:17.000Z</time>
      </trkpt>
      <trkpt lat="45.80616" lon="4.72469">
        <ele>342.81985</ele>
        <time>2023-07-02T15:10:18.000Z</time>
      </trkpt>
      <trkpt lat="45.80613" lon="4.7247">
        <ele>342.70123</ele>
        <time>2023-07-02T15:10:19.000Z</time>
      </trkpt>
      <trkpt lat="45.80611" lon="4.7247">
        <ele>342.61212</ele>
        <time>2023-07-02T15:10:20.000Z</time>
      </trkpt>
      <trkpt lat="45.80608" lon="4.72469">
        <ele>342.48145</ele>
        <time>2023-07-02T15:10:21.000Z</time>
      </trkpt>
      <trkpt lat="45.80606" lon="4.72469">
        <ele>342.35019</ele>
        <time>2023-07-02T15:10:22.000Z</time>
      </trkpt>
      <trkpt lat="45.80604" lon="4.72469">
        <ele>342.20566</ele>
        <time>2023-07-02T15:10:23.000Z</time>
      </trkpt>
      <trkpt lat="45.80601" lon="4.72468">
        <ele>342.05151</ele>
        <time>2023-07-02T15:10:25.000Z</time>
      </trkpt>
      <trkpt lat="45.80597" lon="4.72468">
        <ele>342.00922</ele>
        <time>2023-07-02T15:10:27.000Z</time>
      </trkpt>
      <trkpt lat="45.80595" lon="4.72468">
        <ele>341.99176</ele>
        <time>2023-07-02T15:10:28.000Z</time>
      </trkpt>
      <trkpt lat="45.80593" lon="4.72467">
        <ele>342.05255</ele>
        <time>2023-07-02T15:10:29.000Z</time>
      </trkpt>
      <trkpt lat="45.80591" lon="4.72466">
        <ele>342.12521</ele>
        <time>2023-07-02T15:10:30.000Z</time>
      </trkpt>
      <trkpt lat="45.8059" lon="4.72465">
        <ele>342.22827</ele>
        <time>2023-07-02T15:10:31.000Z</time>
      </trkpt>
      <trkpt lat="45.80587" lon="4.72462">
        <ele>342.33301</ele>
        <time>2023-07-02T15:10:33.000Z</time>
      </trkpt>
      <trkpt lat="45.80585" lon="4.72462">
        <ele>342.40302</ele>
        <time>2023-07-02T15:10:34.000Z</time>
      </trkpt>
      <trkpt lat="45.80583" lon="4.72461">
        <ele>342.45557</ele>
        <time>2023-07-02T15:10:35.000Z</time>
      </trkpt>
      <trkpt lat="45.8058" lon="4.7246">
        <ele>342.53027</ele>
        <time>2023-07-02T15:10:36.000Z</time>
      </trkpt>
      <trkpt lat="45.80578" lon="4.72459">
        <ele>342.54974</ele>
        <time>2023-07-02T15:10:38.000Z</time>
      </trkpt>
      <trkpt lat="45.80575" lon="4.72458">
        <ele>342.49438</ele>
        <time>2023-07-02T15:10:40.000Z</time>
      </trkpt>
      <trkpt lat="45.80572" lon="4.72458">
        <ele>342.43134</ele>
        <time>2023-07-02T15:10:42.000Z</time>
      </trkpt>
      <trkpt lat="45.80569" lon="4.72459">
        <ele>342.39136</ele>
        <time>2023-07-02T15:10:44.000Z</time>
      </trkpt>
      <trkpt lat="45.80566" lon="4.72461">
        <ele>342.39307</ele>
        <time>2023-07-02T15:10:46.000Z</time>
      </trkpt>
      <trkpt lat="45.80564" lon="4.72461">
        <ele>342.47836</ele>
        <time>2023-07-02T15:10:47.000Z</time>
      </trkpt>
      <trkpt lat="45.80562" lon="4.72461">
        <ele>342.56134</ele>
        <time>2023-07-02T15:10:48.000Z</time>
      </trkpt>
      <trkpt lat="45.80559" lon="4.7246">
        <ele>342.62296</ele>
        <time>2023-07-02T15:10:50.000Z</time>
      </trkpt>
      <trkpt lat="45.80555" lon="4.72459">
        <ele>342.6944</ele>
        <time>2023-07-02T15:10:52.000Z</time>
      </trkpt>
      <trkpt lat="45.80553" lon="4.72458">
        <ele>342.73602</ele>
        <time>2023-07-02T15:10:53.000Z</time>
      </trkpt>
      <trkpt lat="45.80552" lon="4.72455">
        <ele>342.75836</ele>
        <time>2023-07-02T15:10:55.000Z</time>
      </trkpt>
      <trkpt lat="45.8055" lon="4.72451">
        <ele>342.65045</ele>
        <time>2023-07-02T15:10:57.000Z</time>
      </trkpt>
      <trkpt lat="45.80548" lon="4.72449">
        <ele>342.52271</ele>
        <time>2023-07-02T15:10:58.000Z</time>
      </trkpt>
      <trkpt lat="45.80546" lon="4.72448">
        <ele>342.33948</ele>
        <time>2023-07-02T15:10:59.000Z</time>
      </trkpt>
      <trkpt lat="45.80543" lon="4.72446">
        <ele>342.09482</ele>
        <time>2023-07-02T15:11:01.000Z</time>
      </trkpt>
      <trkpt lat="45.8054" lon="4.72444">
        <ele>341.85242</ele>
        <time>2023-07-02T15:11:03.000Z</time>
      </trkpt>
      <trkpt lat="45.80538" lon="4.72443">
        <ele>341.57275</ele>
        <time>2023-07-02T15:11:04.000Z</time>
      </trkpt>
      <trkpt lat="45.80536" lon="4.72443">
        <ele>341.94849</ele>
        <time>2023-07-02T15:11:07.000Z</time>
      </trkpt>
      <trkpt lat="45.80534" lon="4.72441">
        <ele>342.52856</ele>
        <time>2023-07-02T15:11:10.000Z</time>
      </trkpt>
      <trkpt lat="45.80532" lon="4.72441">
        <ele>343.14218</ele>
        <time>2023-07-02T15:11:13.000Z</time>
      </trkpt>
      <trkpt lat="45.8053" lon="4.7244">
        <ele>343.80981</ele>
        <time>2023-07-02T15:11:15.000Z</time>
      </trkpt>
      <trkpt lat="45.80528" lon="4.72439">
        <ele>344.45679</ele>
        <time>2023-07-02T15:11:21.000Z</time>
      </trkpt>
      <trkpt lat="45.80527" lon="4.7244">
        <ele>344.84406</ele>
        <time>2023-07-02T15:11:25.000Z</time>
      </trkpt>
      <trkpt lat="45.80524" lon="4.72439">
        <ele>345.24603</ele>
        <time>2023-07-02T15:11:28.000Z</time>
      </trkpt>
      <trkpt lat="45.80521" lon="4.72439">
        <ele>345.66119</ele>
        <time>2023-07-02T15:11:30.000Z</time>
      </trkpt>
      <trkpt lat="45.80519" lon="4.72439">
        <ele>346.02844</ele>
        <time>2023-07-02T15:11:31.000Z</time>
      </trkpt>
      <trkpt lat="45.80516" lon="4.7244">
        <ele>346.35077</ele>
        <time>2023-07-02T15:11:32.000Z</time>
      </trkpt>
      <trkpt lat="45.80513" lon="4.72442">
        <ele>346.71198</ele>
        <time>2023-07-02T15:11:33.000Z</time>
      </trkpt>
      <trkpt lat="45.80511" lon="4.72443">
        <ele>347.17581</ele>
        <time>2023-07-02T15:11:34.000Z</time>
      </trkpt>
      <trkpt lat="45.80509" lon="4.72444">
        <ele>347.70932</ele>
        <time>2023-07-02T15:11:35.000Z</time>
      </trkpt>
      <trkpt lat="45.80507" lon="4.72445">
        <ele>348.25577</ele>
        <time>2023-07-02T15:11:36.000Z</time>
      </trkpt>
      <trkpt lat="45.80504" lon="4.72447">
        <ele>348.9079</ele>
        <time>2023-07-02T15:11:37.000Z</time>
      </trkpt>
      <trkpt lat="45.80502" lon="4.7245">
        <ele>349.57153</ele>
        <time>2023-07-02T15:11:38.000Z</time>
      </trkpt>
      <trkpt lat="45.80499" lon="4.72452">
        <ele>350.32523</ele>
        <time>2023-07-02T15:11:39.000Z</time>
      </trkpt>
      <trkpt lat="45.80496" lon="4.72453">
        <ele>351.14066</ele>
        <time>2023-07-02T15:11:40.000Z</time>
      </trkpt>
      <trkpt lat="45.80492" lon="4.72454">
        <ele>351.69629</ele>
        <time>2023-07-02T15:11:41.000Z</time>
      </trkpt>
      <trkpt lat="45.80489" lon="4.72453">
        <ele>352.24179</ele>
        <time>2023-07-02T15:11:42.000Z</time>
      </trkpt>
      <trkpt lat="45.80487" lon="4.72452">
        <ele>352.08542</ele>
        <time>2023-07-02T15:11:43.000Z</time>
      </trkpt>
      <trkpt lat="45.80483" lon="4.72453">
        <ele>351.66544</ele>
        <time>2023-07-02T15:11:44.000Z</time>
      </trkpt>
      <trkpt lat="45.8048" lon="4.72454">
        <ele>351.12991</ele>
        <time>2023-07-02T15:11:45.000Z</time>
      </trkpt>
      <trkpt lat="45.80476" lon="4.72456">
        <ele>350.50391</ele>
        <time>2023-07-02T15:11:46.000Z</time>
      </trkpt>
      <trkpt lat="45.80474" lon="4.72456">
        <ele>349.91138</ele>
        <time>2023-07-02T15:11:47.000Z</time>
      </trkpt>
      <trkpt lat="45.80472" lon="4.72457">
        <ele>349.59479</ele>
        <time>2023-07-02T15:11:48.000Z</time>
      </trkpt>
      <trkpt lat="45.80468" lon="4.72459">
        <ele>349.23743</ele>
        <time>2023-07-02T15:11:49.000Z</time>
      </trkpt>
      <trkpt lat="45.80465" lon="4.72462">
        <ele>348.87469</ele>
        <time>2023-07-02T15:11:50.000Z</time>
      </trkpt>
      <trkpt lat="45.80461" lon="4.72465">
        <ele>348.54504</ele>
        <time>2023-07-02T15:11:51.000Z</time>
      </trkpt>
      <trkpt lat="45.80458" lon="4.72467">
        <ele>348.28558</ele>
        <time>2023-07-02T15:11:52.000Z</time>
      </trkpt>
      <trkpt lat="45.80456" lon="4.72468">
        <ele>348.27908</ele>
        <time>2023-07-02T15:11:53.000Z</time>
      </trkpt>
      <trkpt lat="45.80454" lon="4.72469">
        <ele>348.11993</ele>
        <time>2023-07-02T15:11:54.000Z</time>
      </trkpt>
      <trkpt lat="45.80452" lon="4.72469">
        <ele>347.92432</ele>
        <time>2023-07-02T15:11:55.000Z</time>
      </trkpt>
      <trkpt lat="45.8045" lon="4.72469">
        <ele>347.73471</ele>
        <time>2023-07-02T15:11:56.000Z</time>
      </trkpt>
      <trkpt lat="45.80446" lon="4.72469">
        <ele>347.31134</ele>
        <time>2023-07-02T15:11:58.000Z</time>
      </trkpt>
      <trkpt lat="45.80443" lon="4.72468">
        <ele>346.85822</ele>
        <time>2023-07-02T15:11:59.000Z</time>
      </trkpt>
      <trkpt lat="45.8044" lon="4.72467">
        <ele>346.36819</ele>
        <time>2023-07-02T15:12:00.000Z</time>
      </trkpt>
      <trkpt lat="45.80438" lon="4.72467">
        <ele>345.86639</ele>
        <time>2023-07-02T15:12:01.000Z</time>
      </trkpt>
      <trkpt lat="45.80435" lon="4.72467">
        <ele>345.55933</ele>
        <time>2023-07-02T15:12:02.000Z</time>
      </trkpt>
      <trkpt lat="45.80431" lon="4.72466">
        <ele>345.37421</ele>
        <time>2023-07-02T15:12:03.000Z</time>
      </trkpt>
      <trkpt lat="45.80427" lon="4.72465">
        <ele>345.24872</ele>
        <time>2023-07-02T15:12:04.000Z</time>
      </trkpt>
      <trkpt lat="45.80425" lon="4.72463">
        <ele>345.18652</ele>
        <time>2023-07-02T15:12:05.000Z</time>
      </trkpt>
      <trkpt lat="45.80422" lon="4.7246">
        <ele>345.19907</ele>
        <time>2023-07-02T15:12:06.000Z</time>
      </trkpt>
      <trkpt lat="45.8042" lon="4.72459">
        <ele>345.29056</ele>
        <time>2023-07-02T15:12:07.000Z</time>
      </trkpt>
      <trkpt lat="45.80417" lon="4.72458">
        <ele>345.32874</ele>
        <time>2023-07-02T15:12:08.000Z</time>
      </trkpt>
      <trkpt lat="45.80415" lon="4.72458">
        <ele>345.38632</ele>
        <time>2023-07-02T15:12:09.000Z</time>
      </trkpt>
      <trkpt lat="45.80412" lon="4.72458">
        <ele>345.65775</ele>
        <time>2023-07-02T15:12:10.000Z</time>
      </trkpt>
      <trkpt lat="45.8041" lon="4.7246">
        <ele>345.71417</ele>
        <time>2023-07-02T15:12:11.000Z</time>
      </trkpt>
      <trkpt lat="45.80408" lon="4.72462">
        <ele>345.73553</ele>
        <time>2023-07-02T15:12:12.000Z</time>
      </trkpt>
      <trkpt lat="45.80406" lon="4.72466">
        <ele>345.77643</ele>
        <time>2023-07-02T15:12:13.000Z</time>
      </trkpt>
      <trkpt lat="45.80405" lon="4.72471">
        <ele>345.52719</ele>
        <time>2023-07-02T15:12:14.000Z</time>
      </trkpt>
      <trkpt lat="45.80404" lon="4.72477">
        <ele>345.21713</ele>
        <time>2023-07-02T15:12:15.000Z</time>
      </trkpt>
      <trkpt lat="45.80403" lon="4.72482">
        <ele>344.90732</ele>
        <time>2023-07-02T15:12:16.000Z</time>
      </trkpt>
      <trkpt lat="45.80403" lon="4.72486">
        <ele>344.62051</ele>
        <time>2023-07-02T15:12:17.000Z</time>
      </trkpt>
      <trkpt lat="45.80402" lon="4.7249">
        <ele>344.51782</ele>
        <time>2023-07-02T15:12:18.000Z</time>
      </trkpt>
      <trkpt lat="45.804" lon="4.72492">
        <ele>344.42792</ele>
        <time>2023-07-02T15:12:19.000Z</time>
      </trkpt>
      <trkpt lat="45.80398" lon="4.72494">
        <ele>344.31366</ele>
        <time>2023-07-02T15:12:20.000Z</time>
      </trkpt>
      <trkpt lat="45.80396" lon="4.72494">
        <ele>344.20416</ele>
        <time>2023-07-02T15:12:21.000Z</time>
      </trkpt>
      <trkpt lat="45.80392" lon="4.72496">
        <ele>344.09369</ele>
        <time>2023-07-02T15:12:23.000Z</time>
      </trkpt>
      <trkpt lat="45.8039" lon="4.725">
        <ele>343.95642</ele>
        <time>2023-07-02T15:12:25.000Z</time>
      </trkpt>
      <trkpt lat="45.80388" lon="4.72503">
        <ele>343.80478</ele>
        <time>2023-07-02T15:12:26.000Z</time>
      </trkpt>
      <trkpt lat="45.80386" lon="4.72504">
        <ele>343.62802</ele>
        <time>2023-07-02T15:12:27.000Z</time>
      </trkpt>
      <trkpt lat="45.80384" lon="4.72505">
        <ele>343.47653</ele>
        <time>2023-07-02T15:12:28.000Z</time>
      </trkpt>
      <trkpt lat="45.80381" lon="4.72505">
        <ele>343.44101</ele>
        <time>2023-07-02T15:12:29.000Z</time>
      </trkpt>
      <trkpt lat="45.80379" lon="4.72506">
        <ele>343.45151</ele>
        <time>2023-07-02T15:12:30.000Z</time>
      </trkpt>
      <trkpt lat="45.80377" lon="4.72507">
        <ele>343.517</ele>
        <time>2023-07-02T15:12:31.000Z</time>
      </trkpt>
      <trkpt lat="45.80373" lon="4.72508">
        <ele>343.37762</ele>
        <time>2023-07-02T15:12:33.000Z</time>
      </trkpt>
      <trkpt lat="45.80371" lon="4.72509">
        <ele>343.52182</ele>
        <time>2023-07-02T15:12:34.000Z</time>
      </trkpt>
      <trkpt lat="45.80369" lon="4.72511">
        <ele>343.71808</ele>
        <time>2023-07-02T15:12:35.000Z</time>
      </trkpt>
      <trkpt lat="45.80366" lon="4.72513">
        <ele>343.92685</ele>
        <time>2023-07-02T15:12:36.000Z</time>
      </trkpt>
      <trkpt lat="45.80364" lon="4.72515">
        <ele>344.31326</ele>
        <time>2023-07-02T15:12:37.000Z</time>
      </trkpt>
      <trkpt lat="45.80361" lon="4.72517">
        <ele>344.89288</ele>
        <time>2023-07-02T15:12:38.000Z</time>
      </trkpt>
      <trkpt lat="45.80358" lon="4.72518">
        <ele>345.24808</ele>
        <time>2023-07-02T15:12:39.000Z</time>
      </trkpt>
      <trkpt lat="45.80355" lon="4.72519">
        <ele>345.67645</ele>
        <time>2023-07-02T15:12:40.000Z</time>
      </trkpt>
      <trkpt lat="45.80353" lon="4.72521">
        <ele>346.05316</ele>
        <time>2023-07-02T15:12:41.000Z</time>
      </trkpt>
      <trkpt lat="45.80351" lon="4.72522">
        <ele>346.49554</ele>
        <time>2023-07-02T15:12:42.000Z</time>
      </trkpt>
      <trkpt lat="45.80349" lon="4.72524">
        <ele>346.93805</ele>
        <time>2023-07-02T15:12:43.000Z</time>
      </trkpt>
      <trkpt lat="45.80348" lon="4.72525">
        <ele>347.38739</ele>
        <time>2023-07-02T15:12:44.000Z</time>
      </trkpt>
      <trkpt lat="45.80346" lon="4.72526">
        <ele>347.84937</ele>
        <time>2023-07-02T15:12:45.000Z</time>
      </trkpt>
      <trkpt lat="45.80344" lon="4.72527">
        <ele>348.32758</ele>
        <time>2023-07-02T15:12:46.000Z</time>
      </trkpt>
      <trkpt lat="45.80341" lon="4.7253">
        <ele>349.31467</ele>
        <time>2023-07-02T15:12:48.000Z</time>
      </trkpt>
      <trkpt lat="45.80339" lon="4.72532">
        <ele>350.2132</ele>
        <time>2023-07-02T15:12:49.000Z</time>
      </trkpt>
      <trkpt lat="45.80337" lon="4.72534">
        <ele>351.03003</ele>
        <time>2023-07-02T15:12:50.000Z</time>
      </trkpt>
      <trkpt lat="45.80335" lon="4.72535">
        <ele>351.62051</ele>
        <time>2023-07-02T15:12:51.000Z</time>
      </trkpt>
      <trkpt lat="45.80333" lon="4.72536">
        <ele>352.19516</ele>
        <time>2023-07-02T15:12:52.000Z</time>
      </trkpt>
      <trkpt lat="45.80331" lon="4.72538">
        <ele>352.70776</ele>
        <time>2023-07-02T15:12:53.000Z</time>
      </trkpt>
      <trkpt lat="45.80329" lon="4.7254">
        <ele>353.17935</ele>
        <time>2023-07-02T15:12:54.000Z</time>
      </trkpt>
      <trkpt lat="45.80327" lon="4.72542">
        <ele>353.62091</ele>
        <time>2023-07-02T15:12:55.000Z</time>
      </trkpt>
      <trkpt lat="45.80325" lon="4.72543">
        <ele>354.07495</ele>
        <time>2023-07-02T15:12:56.000Z</time>
      </trkpt>
      <trkpt lat="45.80322" lon="4.72546">
        <ele>354.63922</ele>
        <time>2023-07-02T15:12:58.000Z</time>
      </trkpt>
      <trkpt lat="45.8032" lon="4.72548">
        <ele>355.00592</ele>
        <time>2023-07-02T15:12:59.000Z</time>
      </trkpt>
      <trkpt lat="45.80318" lon="4.7255">
        <ele>355.21533</ele>
        <time>2023-07-02T15:13:00.000Z</time>
      </trkpt>
      <trkpt lat="45.80316" lon="4.72552">
        <ele>355.57391</ele>
        <time>2023-07-02T15:13:01.000Z</time>
      </trkpt>
      <trkpt lat="45.80315" lon="4.72554">
        <ele>355.75558</ele>
        <time>2023-07-02T15:13:02.000Z</time>
      </trkpt>
      <trkpt lat="45.80313" lon="4.72558">
        <ele>356.10516</ele>
        <time>2023-07-02T15:13:04.000Z</time>
      </trkpt>
      <trkpt lat="45.80311" lon="4.72561">
        <ele>356.70197</ele>
        <time>2023-07-02T15:13:05.000Z</time>
      </trkpt>
      <trkpt lat="45.80309" lon="4.72564">
        <ele>357.32944</ele>
        <time>2023-07-02T15:13:06.000Z</time>
      </trkpt>
      <trkpt lat="45.80307" lon="4.72568">
        <ele>358.02646</ele>
        <time>2023-07-02T15:13:07.000Z</time>
      </trkpt>
      <trkpt lat="45.80304" lon="4.72571">
        <ele>358.78165</ele>
        <time>2023-07-02T15:13:08.000Z</time>
      </trkpt>
      <trkpt lat="45.80301" lon="4.72573">
        <ele>359.52414</ele>
        <time>2023-07-02T15:13:09.000Z</time>
      </trkpt>
      <trkpt lat="45.80298" lon="4.72573">
        <ele>359.89117</ele>
        <time>2023-07-02T15:13:10.000Z</time>
      </trkpt>
      <trkpt lat="45.80294" lon="4.72573">
        <ele>360.31085</ele>
        <time>2023-07-02T15:13:11.000Z</time>
      </trkpt>
      <trkpt lat="45.80291" lon="4.72571">
        <ele>360.36078</ele>
        <time>2023-07-02T15:13:12.000Z</time>
      </trkpt>
      <trkpt lat="45.80289" lon="4.7257">
        <ele>360.5466</ele>
        <time>2023-07-02T15:13:13.000Z</time>
      </trkpt>
      <trkpt lat="45.80286" lon="4.72568">
        <ele>360.85614</ele>
        <time>2023-07-02T15:13:14.000Z</time>
      </trkpt>
      <trkpt lat="45.80283" lon="4.72566">
        <ele>361.14261</ele>
        <time>2023-07-02T15:13:15.000Z</time>
      </trkpt>
      <trkpt lat="45.8028" lon="4.72564">
        <ele>361.47055</ele>
        <time>2023-07-02T15:13:16.000Z</time>
      </trkpt>
      <trkpt lat="45.80277" lon="4.72563">
        <ele>361.72324</ele>
        <time>2023-07-02T15:13:17.000Z</time>
      </trkpt>
      <trkpt lat="45.80273" lon="4.72561">
        <ele>361.92496</ele>
        <time>2023-07-02T15:13:18.000Z</time>
      </trkpt>
      <trkpt lat="45.80269" lon="4.7256">
        <ele>361.88779</ele>
        <time>2023-07-02T15:13:19.000Z</time>
      </trkpt>
      <trkpt lat="45.80266" lon="4.72559">
        <ele>361.90387</ele>
        <time>2023-07-02T15:13:20.000Z</time>
      </trkpt>
      <trkpt lat="45.80263" lon="4.72557">
        <ele>362.03018</ele>
        <time>2023-07-02T15:13:21.000Z</time>
      </trkpt>
      <trkpt lat="45.80261" lon="4.72555">
        <ele>362.20233</ele>
        <time>2023-07-02T15:13:22.000Z</time>
      </trkpt>
      <trkpt lat="45.80258" lon="4.72552">
        <ele>362.49857</ele>
        <time>2023-07-02T15:13:23.000Z</time>
      </trkpt>
      <trkpt lat="45.80256" lon="4.7255">
        <ele>362.68768</ele>
        <time>2023-07-02T15:13:24.000Z</time>
      </trkpt>
      <trkpt lat="45.80254" lon="4.72549">
        <ele>362.54999</ele>
        <time>2023-07-02T15:13:25.000Z</time>
      </trkpt>
      <trkpt lat="45.8025" lon="4.72547">
        <ele>362.33307</ele>
        <time>2023-07-02T15:13:26.000Z</time>
      </trkpt>
      <trkpt lat="45.80246" lon="4.72544">
        <ele>361.99203</ele>
        <time>2023-07-02T15:13:27.000Z</time>
      </trkpt>
      <trkpt lat="45.80242" lon="4.72543">
        <ele>361.62589</ele>
        <time>2023-07-02T15:13:28.000Z</time>
      </trkpt>
      <trkpt lat="45.80239" lon="4.72542">
        <ele>361.15967</ele>
        <time>2023-07-02T15:13:29.000Z</time>
      </trkpt>
      <trkpt lat="45.80236" lon="4.7254">
        <ele>360.57843</ele>
        <time>2023-07-02T15:13:30.000Z</time>
      </trkpt>
      <trkpt lat="45.80233" lon="4.72539">
        <ele>360.1282</ele>
        <time>2023-07-02T15:13:31.000Z</time>
      </trkpt>
      <trkpt lat="45.80229" lon="4.72536">
        <ele>360.07504</ele>
        <time>2023-07-02T15:13:32.000Z</time>
      </trkpt>
      <trkpt lat="45.80226" lon="4.72536">
        <ele>359.94565</ele>
        <time>2023-07-02T15:13:33.000Z</time>
      </trkpt>
      <trkpt lat="45.80223" lon="4.72535">
        <ele>358.94061</ele>
        <time>2023-07-02T15:13:34.000Z</time>
      </trkpt>
      <trkpt lat="45.80219" lon="4.72533">
        <ele>357.93915</ele>
        <time>2023-07-02T15:13:35.000Z</time>
      </trkpt>
      <trkpt lat="45.80216" lon="4.72532">
        <ele>356.92072</ele>
        <time>2023-07-02T15:13:36.000Z</time>
      </trkpt>
      <trkpt lat="45.80213" lon="4.7253">
        <ele>355.93857</ele>
        <time>2023-07-02T15:13:37.000Z</time>
      </trkpt>
      <trkpt lat="45.80211" lon="4.72528">
        <ele>354.91577</ele>
        <time>2023-07-02T15:13:38.000Z</time>
      </trkpt>
      <trkpt lat="45.80209" lon="4.72524">
        <ele>353.96655</ele>
        <time>2023-07-02T15:13:39.000Z</time>
      </trkpt>
      <trkpt lat="45.80207" lon="4.7252">
        <ele>353.01166</ele>
        <time>2023-07-02T15:13:40.000Z</time>
      </trkpt>
      <trkpt lat="45.80206" lon="4.72516">
        <ele>352.00751</ele>
        <time>2023-07-02T15:13:41.000Z</time>
      </trkpt>
      <trkpt lat="45.80205" lon="4.72511">
        <ele>351.04483</ele>
        <time>2023-07-02T15:13:42.000Z</time>
      </trkpt>
      <trkpt lat="45.80205" lon="4.72506">
        <ele>350.11676</ele>
        <time>2023-07-02T15:13:43.000Z</time>
      </trkpt>
      <trkpt lat="45.80204" lon="4.72501">
        <ele>349.18353</ele>
        <time>2023-07-02T15:13:44.000Z</time>
      </trkpt>
      <trkpt lat="45.80204" lon="4.72497">
        <ele>348.30484</ele>
        <time>2023-07-02T15:13:45.000Z</time>
      </trkpt>
      <trkpt lat="45.80203" lon="4.72494">
        <ele>347.48944</ele>
        <time>2023-07-02T15:13:46.000Z</time>
      </trkpt>
      <trkpt lat="45.80203" lon="4.7249">
        <ele>346.77441</ele>
        <time>2023-07-02T15:13:47.000Z</time>
      </trkpt>
      <trkpt lat="45.80202" lon="4.72486">
        <ele>346.09799</ele>
        <time>2023-07-02T15:13:48.000Z</time>
      </trkpt>
      <trkpt lat="45.802" lon="4.72482">
        <ele>345.51947</ele>
        <time>2023-07-02T15:13:49.000Z</time>
      </trkpt>
      <trkpt lat="45.80199" lon="4.72478">
        <ele>344.98514</ele>
        <time>2023-07-02T15:13:50.000Z</time>
      </trkpt>
      <trkpt lat="45.80198" lon="4.72474">
        <ele>344.34222</ele>
        <time>2023-07-02T15:13:51.000Z</time>
      </trkpt>
      <trkpt lat="45.80197" lon="4.72471">
        <ele>343.67657</ele>
        <time>2023-07-02T15:13:52.000Z</time>
      </trkpt>
      <trkpt lat="45.80196" lon="4.72467">
        <ele>343.0119</ele>
        <time>2023-07-02T15:13:53.000Z</time>
      </trkpt>
      <trkpt lat="45.80195" lon="4.72462">
        <ele>343.07758</ele>
        <time>2023-07-02T15:13:54.000Z</time>
      </trkpt>
      <trkpt lat="45.80194" lon="4.72458">
        <ele>344.12747</ele>
        <time>2023-07-02T15:13:55.000Z</time>
      </trkpt>
      <trkpt lat="45.80191" lon="4.72455">
        <ele>344.90082</ele>
        <time>2023-07-02T15:13:56.000Z</time>
      </trkpt>
      <trkpt lat="45.80188" lon="4.72453">
        <ele>345.84348</ele>
        <time>2023-07-02T15:13:57.000Z</time>
      </trkpt>
      <trkpt lat="45.80184" lon="4.72453">
        <ele>346.82907</ele>
        <time>2023-07-02T15:13:58.000Z</time>
      </trkpt>
      <trkpt lat="45.8018" lon="4.72455">
        <ele>347.74335</ele>
        <time>2023-07-02T15:13:59.000Z</time>
      </trkpt>
      <trkpt lat="45.80177" lon="4.72457">
        <ele>348.70636</ele>
        <time>2023-07-02T15:14:00.000Z</time>
      </trkpt>
      <trkpt lat="45.80174" lon="4.7246">
        <ele>349.64981</ele>
        <time>2023-07-02T15:14:01.000Z</time>
      </trkpt>
      <trkpt lat="45.80171" lon="4.72463">
        <ele>350.59821</ele>
        <time>2023-07-02T15:14:02.000Z</time>
      </trkpt>
      <trkpt lat="45.80169" lon="4.72466">
        <ele>351.42755</ele>
        <time>2023-07-02T15:14:03.000Z</time>
      </trkpt>
      <trkpt lat="45.80166" lon="4.72468">
        <ele>352.22824</ele>
        <time>2023-07-02T15:14:04.000Z</time>
      </trkpt>
      <trkpt lat="45.80165" lon="4.7247">
        <ele>352.9834</ele>
        <time>2023-07-02T15:14:05.000Z</time>
      </trkpt>
      <trkpt lat="45.80162" lon="4.72472">
        <ele>353.71286</ele>
        <time>2023-07-02T15:14:06.000Z</time>
      </trkpt>
      <trkpt lat="45.8016" lon="4.72474">
        <ele>354.44586</ele>
        <time>2023-07-02T15:14:07.000Z</time>
      </trkpt>
      <trkpt lat="45.80158" lon="4.72476">
        <ele>355.1553</ele>
        <time>2023-07-02T15:14:08.000Z</time>
      </trkpt>
      <trkpt lat="45.80155" lon="4.72478">
        <ele>355.81866</ele>
        <time>2023-07-02T15:14:09.000Z</time>
      </trkpt>
      <trkpt lat="45.80152" lon="4.72479">
        <ele>356.45993</ele>
        <time>2023-07-02T15:14:10.000Z</time>
      </trkpt>
      <trkpt lat="45.80149" lon="4.7248">
        <ele>357.16473</ele>
        <time>2023-07-02T15:14:11.000Z</time>
      </trkpt>
      <trkpt lat="45.80145" lon="4.72481">
        <ele>357.96222</ele>
        <time>2023-07-02T15:14:12.000Z</time>
      </trkpt>
      <trkpt lat="45.80141" lon="4.72482">
        <ele>358.83118</ele>
        <time>2023-07-02T15:14:13.000Z</time>
      </trkpt>
      <trkpt lat="45.80138" lon="4.72483">
        <ele>359.75381</ele>
        <time>2023-07-02T15:14:14.000Z</time>
      </trkpt>
      <trkpt lat="45.80134" lon="4.72484">
        <ele>359.69687</ele>
        <time>2023-07-02T15:14:15.000Z</time>
      </trkpt>
      <trkpt lat="45.80131" lon="4.72486">
        <ele>359.96863</ele>
        <time>2023-07-02T15:14:16.000Z</time>
      </trkpt>
      <trkpt lat="45.80128" lon="4.72488">
        <ele>360.04852</ele>
        <time>2023-07-02T15:14:17.000Z</time>
      </trkpt>
      <trkpt lat="45.80124" lon="4.7249">
        <ele>360.1178</ele>
        <time>2023-07-02T15:14:18.000Z</time>
      </trkpt>
      <trkpt lat="45.80121" lon="4.72492">
        <ele>360.18347</ele>
        <time>2023-07-02T15:14:19.000Z</time>
      </trkpt>
      <trkpt lat="45.80117" lon="4.72494">
        <ele>360.1337</ele>
        <time>2023-07-02T15:14:20.000Z</time>
      </trkpt>
      <trkpt lat="45.80113" lon="4.72495">
        <ele>360.02985</ele>
        <time>2023-07-02T15:14:21.000Z</time>
      </trkpt>
      <trkpt lat="45.8011" lon="4.72497">
        <ele>359.89227</ele>
        <time>2023-07-02T15:14:22.000Z</time>
      </trkpt>
      <trkpt lat="45.80107" lon="4.72499">
        <ele>359.80383</ele>
        <time>2023-07-02T15:14:23.000Z</time>
      </trkpt>
      <trkpt lat="45.80104" lon="4.72501">
        <ele>359.77194</ele>
        <time>2023-07-02T15:14:24.000Z</time>
      </trkpt>
      <trkpt lat="45.80101" lon="4.72503">
        <ele>359.72491</ele>
        <time>2023-07-02T15:14:25.000Z</time>
      </trkpt>
      <trkpt lat="45.80097" lon="4.72504">
        <ele>359.66309</ele>
        <time>2023-07-02T15:14:26.000Z</time>
      </trkpt>
      <trkpt lat="45.80094" lon="4.72505">
        <ele>359.53088</ele>
        <time>2023-07-02T15:14:27.000Z</time>
      </trkpt>
      <trkpt lat="45.80091" lon="4.72505">
        <ele>359.38629</ele>
        <time>2023-07-02T15:14:28.000Z</time>
      </trkpt>
      <trkpt lat="45.80088" lon="4.72506">
        <ele>359.38898</ele>
        <time>2023-07-02T15:14:29.000Z</time>
      </trkpt>
      <trkpt lat="45.80086" lon="4.72506">
        <ele>359.45547</ele>
        <time>2023-07-02T15:14:30.000Z</time>
      </trkpt>
      <trkpt lat="45.80083" lon="4.72506">
        <ele>359.50476</ele>
        <time>2023-07-02T15:14:31.000Z</time>
      </trkpt>
      <trkpt lat="45.8008" lon="4.72506">
        <ele>359.22153</ele>
        <time>2023-07-02T15:14:32.000Z</time>
      </trkpt>
      <trkpt lat="45.80077" lon="4.72507">
        <ele>358.93073</ele>
        <time>2023-07-02T15:14:33.000Z</time>
      </trkpt>
      <trkpt lat="45.80073" lon="4.72508">
        <ele>358.7019</ele>
        <time>2023-07-02T15:14:34.000Z</time>
      </trkpt>
      <trkpt lat="45.8007" lon="4.72509">
        <ele>358.47272</ele>
        <time>2023-07-02T15:14:35.000Z</time>
      </trkpt>
      <trkpt lat="45.80067" lon="4.72511">
        <ele>358.1521</ele>
        <time>2023-07-02T15:14:36.000Z</time>
      </trkpt>
      <trkpt lat="45.80064" lon="4.72513">
        <ele>357.87405</ele>
        <time>2023-07-02T15:14:37.000Z</time>
      </trkpt>
      <trkpt lat="45.80061" lon="4.72515">
        <ele>357.65085</ele>
        <time>2023-07-02T15:14:38.000Z</time>
      </trkpt>
      <trkpt lat="45.80058" lon="4.72517">
        <ele>357.47992</ele>
        <time>2023-07-02T15:14:39.000Z</time>
      </trkpt>
      <trkpt lat="45.80055" lon="4.72518">
        <ele>357.41006</ele>
        <time>2023-07-02T15:14:40.000Z</time>
      </trkpt>
      <trkpt lat="45.80051" lon="4.72519">
        <ele>357.39551</ele>
        <time>2023-07-02T15:14:41.000Z</time>
      </trkpt>
      <trkpt lat="45.80048" lon="4.72521">
        <ele>357.49286</ele>
        <time>2023-07-02T15:14:42.000Z</time>
      </trkpt>
      <trkpt lat="45.80044" lon="4.72524">
        <ele>357.6792</ele>
        <time>2023-07-02T15:14:43.000Z</time>
      </trkpt>
      <trkpt lat="45.80038" lon="4.72529">
        <ele>357.81781</ele>
        <time>2023-07-02T15:14:44.000Z</time>
      </trkpt>
      <trkpt lat="45.80034" lon="4.72532">
        <ele>357.87421</ele>
        <time>2023-07-02T15:14:45.000Z</time>
      </trkpt>
      <trkpt lat="45.8003" lon="4.72534">
        <ele>357.49786</ele>
        <time>2023-07-02T15:14:46.000Z</time>
      </trkpt>
      <trkpt lat="45.80025" lon="4.72535">
        <ele>357.11029</ele>
        <time>2023-07-02T15:14:47.000Z</time>
      </trkpt>
      <trkpt lat="45.80021" lon="4.72536">
        <ele>356.70074</ele>
        <time>2023-07-02T15:14:48.000Z</time>
      </trkpt>
      <trkpt lat="45.80017" lon="4.72538">
        <ele>356.15686</ele>
        <time>2023-07-02T15:14:49.000Z</time>
      </trkpt>
      <trkpt lat="45.80012" lon="4.72541">
        <ele>355.54581</ele>
        <time>2023-07-02T15:14:50.000Z</time>
      </trkpt>
      <trkpt lat="45.80008" lon="4.72542">
        <ele>354.85663</ele>
        <time>2023-07-02T15:14:51.000Z</time>
      </trkpt>
      <trkpt lat="45.80003" lon="4.72545">
        <ele>354.49774</ele>
        <time>2023-07-02T15:14:52.000Z</time>
      </trkpt>
      <trkpt lat="45.79999" lon="4.72546">
        <ele>354.08054</ele>
        <time>2023-07-02T15:14:53.000Z</time>
      </trkpt>
      <trkpt lat="45.79994" lon="4.72549">
        <ele>353.59546</ele>
        <time>2023-07-02T15:14:54.000Z</time>
      </trkpt>
      <trkpt lat="45.7999" lon="4.7255">
        <ele>353.06635</ele>
        <time>2023-07-02T15:14:55.000Z</time>
      </trkpt>
      <trkpt lat="45.79985" lon="4.72551">
        <ele>352.62912</ele>
        <time>2023-07-02T15:14:56.000Z</time>
      </trkpt>
      <trkpt lat="45.7998" lon="4.72554">
        <ele>352.15262</ele>
        <time>2023-07-02T15:14:57.000Z</time>
      </trkpt>
      <trkpt lat="45.79974" lon="4.72555">
        <ele>351.60486</ele>
        <time>2023-07-02T15:14:58.000Z</time>
      </trkpt>
      <trkpt lat="45.79969" lon="4.72556">
        <ele>351.11871</ele>
        <time>2023-07-02T15:14:59.000Z</time>
      </trkpt>
      <trkpt lat="45.79964" lon="4.72556">
        <ele>350.66003</ele>
        <time>2023-07-02T15:15:00.000Z</time>
      </trkpt>
      <trkpt lat="45.7996" lon="4.72555">
        <ele>350.26602</ele>
        <time>2023-07-02T15:15:01.000Z</time>
      </trkpt>
      <trkpt lat="45.79956" lon="4.72553">
        <ele>349.7774</ele>
        <time>2023-07-02T15:15:02.000Z</time>
      </trkpt>
      <trkpt lat="45.79952" lon="4.72549">
        <ele>349.25262</ele>
        <time>2023-07-02T15:15:03.000Z</time>
      </trkpt>
      <trkpt lat="45.79948" lon="4.72546">
        <ele>348.77582</ele>
        <time>2023-07-02T15:15:04.000Z</time>
      </trkpt>
      <trkpt lat="45.79946" lon="4.72542">
        <ele>348.35062</ele>
        <time>2023-07-02T15:15:05.000Z</time>
      </trkpt>
      <trkpt lat="45.79943" lon="4.7254">
        <ele>348.32916</ele>
        <time>2023-07-02T15:15:06.000Z</time>
      </trkpt>
      <trkpt lat="45.79939" lon="4.72538">
        <ele>348.35406</ele>
        <time>2023-07-02T15:15:07.000Z</time>
      </trkpt>
      <trkpt lat="45.79936" lon="4.72536">
        <ele>348.39194</ele>
        <time>2023-07-02T15:15:08.000Z</time>
      </trkpt>
      <trkpt lat="45.79933" lon="4.72535">
        <ele>348.461</ele>
        <time>2023-07-02T15:15:09.000Z</time>
      </trkpt>
      <trkpt lat="45.7993" lon="4.72535">
        <ele>348.52563</ele>
        <time>2023-07-02T15:15:10.000Z</time>
      </trkpt>
      <trkpt lat="45.79928" lon="4.72536">
        <ele>348.68463</ele>
        <time>2023-07-02T15:15:11.000Z</time>
      </trkpt>
      <trkpt lat="45.79926" lon="4.72536">
        <ele>348.85425</ele>
        <time>2023-07-02T15:15:12.000Z</time>
      </trkpt>
      <trkpt lat="45.79923" lon="4.72536">
        <ele>349.02496</ele>
        <time>2023-07-02T15:15:13.000Z</time>
      </trkpt>
      <trkpt lat="45.79921" lon="4.72536">
        <ele>349.17657</ele>
        <time>2023-07-02T15:15:14.000Z</time>
      </trkpt>
      <trkpt lat="45.79917" lon="4.72536">
        <ele>349.38885</ele>
        <time>2023-07-02T15:15:15.000Z</time>
      </trkpt>
      <trkpt lat="45.79914" lon="4.72536">
        <ele>349.58829</ele>
        <time>2023-07-02T15:15:16.000Z</time>
      </trkpt>
      <trkpt lat="45.7991" lon="4.72536">
        <ele>349.80231</ele>
        <time>2023-07-02T15:15:17.000Z</time>
      </trkpt>
      <trkpt lat="45.79906" lon="4.72537">
        <ele>350.01813</ele>
        <time>2023-07-02T15:15:18.000Z</time>
      </trkpt>
      <trkpt lat="45.79902" lon="4.72537">
        <ele>350.15573</ele>
        <time>2023-07-02T15:15:19.000Z</time>
      </trkpt>
      <trkpt lat="45.79897" lon="4.72538">
        <ele>350.22842</ele>
        <time>2023-07-02T15:15:20.000Z</time>
      </trkpt>
      <trkpt lat="45.79892" lon="4.72539">
        <ele>350.22455</ele>
        <time>2023-07-02T15:15:21.000Z</time>
      </trkpt>
      <trkpt lat="45.79889" lon="4.72539">
        <ele>350.16547</ele>
        <time>2023-07-02T15:15:22.000Z</time>
      </trkpt>
      <trkpt lat="45.79886" lon="4.72539">
        <ele>350.03696</ele>
        <time>2023-07-02T15:15:23.000Z</time>
      </trkpt>
      <trkpt lat="45.79882" lon="4.7254">
        <ele>349.89822</ele>
        <time>2023-07-02T15:15:24.000Z</time>
      </trkpt>
      <trkpt lat="45.79878" lon="4.7254">
        <ele>349.78021</ele>
        <time>2023-07-02T15:15:25.000Z</time>
      </trkpt>
      <trkpt lat="45.79874" lon="4.7254">
        <ele>349.74826</ele>
        <time>2023-07-02T15:15:26.000Z</time>
      </trkpt>
      <trkpt lat="45.7987" lon="4.72539">
        <ele>349.69717</ele>
        <time>2023-07-02T15:15:27.000Z</time>
      </trkpt>
      <trkpt lat="45.79866" lon="4.72539">
        <ele>349.66791</ele>
        <time>2023-07-02T15:15:28.000Z</time>
      </trkpt>
      <trkpt lat="45.79863" lon="4.72541">
        <ele>349.56564</ele>
        <time>2023-07-02T15:15:29.000Z</time>
      </trkpt>
      <trkpt lat="45.7986" lon="4.72542">
        <ele>349.50983</ele>
        <time>2023-07-02T15:15:30.000Z</time>
      </trkpt>
      <trkpt lat="45.79856" lon="4.72542">
        <ele>349.3974</ele>
        <time>2023-07-02T15:15:31.000Z</time>
      </trkpt>
      <trkpt lat="45.79853" lon="4.72543">
        <ele>349.23038</ele>
        <time>2023-07-02T15:15:32.000Z</time>
      </trkpt>
      <trkpt lat="45.7985" lon="4.72544">
        <ele>349.039</ele>
        <time>2023-07-02T15:15:33.000Z</time>
      </trkpt>
      <trkpt lat="45.79847" lon="4.72544">
        <ele>348.90674</ele>
        <time>2023-07-02T15:15:34.000Z</time>
      </trkpt>
      <trkpt lat="45.79844" lon="4.72545">
        <ele>348.78836</ele>
        <time>2023-07-02T15:15:35.000Z</time>
      </trkpt>
      <trkpt lat="45.79841" lon="4.72545">
        <ele>348.70102</ele>
        <time>2023-07-02T15:15:36.000Z</time>
      </trkpt>
      <trkpt lat="45.79837" lon="4.72547">
        <ele>348.60516</ele>
        <time>2023-07-02T15:15:37.000Z</time>
      </trkpt>
      <trkpt lat="45.79833" lon="4.72548">
        <ele>348.55865</ele>
        <time>2023-07-02T15:15:38.000Z</time>
      </trkpt>
      <trkpt lat="45.79829" lon="4.72549">
        <ele>348.59171</ele>
        <time>2023-07-02T15:15:39.000Z</time>
      </trkpt>
      <trkpt lat="45.79826" lon="4.72549">
        <ele>348.70071</ele>
        <time>2023-07-02T15:15:40.000Z</time>
      </trkpt>
      <trkpt lat="45.79822" lon="4.72549">
        <ele>348.81885</ele>
        <time>2023-07-02T15:15:41.000Z</time>
      </trkpt>
      <trkpt lat="45.79818" lon="4.72549">
        <ele>349.00946</ele>
        <time>2023-07-02T15:15:42.000Z</time>
      </trkpt>
      <trkpt lat="45.79815" lon="4.72548">
        <ele>349.29291</ele>
        <time>2023-07-02T15:15:43.000Z</time>
      </trkpt>
      <trkpt lat="45.79812" lon="4.72548">
        <ele>349.55939</ele>
        <time>2023-07-02T15:15:44.000Z</time>
      </trkpt>
      <trkpt lat="45.7981" lon="4.72548">
        <ele>349.90112</ele>
        <time>2023-07-02T15:15:45.000Z</time>
      </trkpt>
      <trkpt lat="45.79807" lon="4.72547">
        <ele>350.1499</ele>
        <time>2023-07-02T15:15:47.000Z</time>
      </trkpt>
      <trkpt lat="45.79804" lon="4.72547">
        <ele>350.36136</ele>
        <time>2023-07-02T15:16:55.000Z</time>
      </trkpt>
      <trkpt lat="45.79802" lon="4.72548">
        <ele>350.57635</ele>
        <time>2023-07-02T15:16:57.000Z</time>
      </trkpt>
      <trkpt lat="45.79802" lon="4.72554">
        <ele>350.8273</ele>
        <time>2023-07-02T15:16:59.000Z</time>
      </trkpt>
      <trkpt lat="45.79802" lon="4.72558">
        <ele>351.01697</ele>
        <time>2023-07-02T15:17:00.000Z</time>
      </trkpt>
      <trkpt lat="45.79802" lon="4.72563">
        <ele>351.1886</ele>
        <time>2023-07-02T15:17:01.000Z</time>
      </trkpt>
      <trkpt lat="45.79802" lon="4.72567">
        <ele>351.36591</ele>
        <time>2023-07-02T15:17:02.000Z</time>
      </trkpt>
      <trkpt lat="45.79802" lon="4.72572">
        <ele>351.54651</ele>
        <time>2023-07-02T15:17:03.000Z</time>
      </trkpt>
      <trkpt lat="45.79802" lon="4.72576">
        <ele>351.65747</ele>
        <time>2023-07-02T15:17:04.000Z</time>
      </trkpt>
      <trkpt lat="45.79802" lon="4.72582">
        <ele>351.78177</ele>
        <time>2023-07-02T15:17:05.000Z</time>
      </trkpt>
      <trkpt lat="45.79802" lon="4.72593">
        <ele>351.84735</ele>
        <time>2023-07-02T15:17:06.000Z</time>
      </trkpt>
      <trkpt lat="45.79802" lon="4.726">
        <ele>351.87421</ele>
        <time>2023-07-02T15:17:07.000Z</time>
      </trkpt>
      <trkpt lat="45.79801" lon="4.72607">
        <ele>351.8736</ele>
        <time>2023-07-02T15:17:08.000Z</time>
      </trkpt>
      <trkpt lat="45.79801" lon="4.72613">
        <ele>351.85431</ele>
        <time>2023-07-02T15:17:09.000Z</time>
      </trkpt>
      <trkpt lat="45.79801" lon="4.7262">
        <ele>351.78745</ele>
        <time>2023-07-02T15:17:10.000Z</time>
      </trkpt>
      <trkpt lat="45.79803" lon="4.72622">
        <ele>351.65924</ele>
        <time>2023-07-02T15:17:11.000Z</time>
      </trkpt>
      <trkpt lat="45.79802" lon="4.72629">
        <ele>351.54797</ele>
        <time>2023-07-02T15:17:12.000Z</time>
      </trkpt>
      <trkpt lat="45.79802" lon="4.72635">
        <ele>351.37363</ele>
        <time>2023-07-02T15:17:13.000Z</time>
      </trkpt>
      <trkpt lat="45.79802" lon="4.72642">
        <ele>351.16327</ele>
        <time>2023-07-02T15:17:14.000Z</time>
      </trkpt>
      <trkpt lat="45.79802" lon="4.72648">
        <ele>350.95624</ele>
        <time>2023-07-02T15:17:15.000Z</time>
      </trkpt>
      <trkpt lat="45.79803" lon="4.72656">
        <ele>350.8132</ele>
        <time>2023-07-02T15:17:16.000Z</time>
      </trkpt>
      <trkpt lat="45.79803" lon="4.72663">
        <ele>350.72897</ele>
        <time>2023-07-02T15:17:17.000Z</time>
      </trkpt>
      <trkpt lat="45.79805" lon="4.72668">
        <ele>350.59927</ele>
        <time>2023-07-02T15:17:18.000Z</time>
      </trkpt>
      <trkpt lat="45.79805" lon="4.72673">
        <ele>350.47406</ele>
        <time>2023-07-02T15:17:19.000Z</time>
      </trkpt>
      <trkpt lat="45.79806" lon="4.72679">
        <ele>350.36652</ele>
        <time>2023-07-02T15:17:20.000Z</time>
      </trkpt>
      <trkpt lat="45.79805" lon="4.72685">
        <ele>350.28314</ele>
        <time>2023-07-02T15:17:21.000Z</time>
      </trkpt>
      <trkpt lat="45.79804" lon="4.72692">
        <ele>350.17902</ele>
        <time>2023-07-02T15:17:22.000Z</time>
      </trkpt>
      <trkpt lat="45.79802" lon="4.72698">
        <ele>350.12143</ele>
        <time>2023-07-02T15:17:23.000Z</time>
      </trkpt>
      <trkpt lat="45.79798" lon="4.72707">
        <ele>350.08432</ele>
        <time>2023-07-02T15:17:24.000Z</time>
      </trkpt>
      <trkpt lat="45.79794" lon="4.72713">
        <ele>350.0444</ele>
        <time>2023-07-02T15:17:25.000Z</time>
      </trkpt>
      <trkpt lat="45.79792" lon="4.72717">
        <ele>350.0101</ele>
        <time>2023-07-02T15:17:26.000Z</time>
      </trkpt>
      <trkpt lat="45.79789" lon="4.72722">
        <ele>349.97244</ele>
        <time>2023-07-02T15:17:27.000Z</time>
      </trkpt>
      <trkpt lat="45.79786" lon="4.72726">
        <ele>349.94131</ele>
        <time>2023-07-02T15:17:28.000Z</time>
      </trkpt>
      <trkpt lat="45.79784" lon="4.72731">
        <ele>349.83838</ele>
        <time>2023-07-02T15:17:29.000Z</time>
      </trkpt>
      <trkpt lat="45.79782" lon="4.72735">
        <ele>349.72662</ele>
        <time>2023-07-02T15:17:30.000Z</time>
      </trkpt>
      <trkpt lat="45.7978" lon="4.72739">
        <ele>349.67691</ele>
        <time>2023-07-02T15:17:31.000Z</time>
      </trkpt>
      <trkpt lat="45.79779" lon="4.72743">
        <ele>349.59732</ele>
        <time>2023-07-02T15:17:32.000Z</time>
      </trkpt>
      <trkpt lat="45.79777" lon="4.72745">
        <ele>349.56219</ele>
        <time>2023-07-02T15:17:33.000Z</time>
      </trkpt>
      <trkpt lat="45.79776" lon="4.72747">
        <ele>349.59637</ele>
        <time>2023-07-02T15:17:34.000Z</time>
      </trkpt>
      <trkpt lat="45.79774" lon="4.7275">
        <ele>349.55646</ele>
        <time>2023-07-02T15:17:35.000Z</time>
      </trkpt>
      <trkpt lat="45.79773" lon="4.72754">
        <ele>349.56937</ele>
        <time>2023-07-02T15:17:36.000Z</time>
      </trkpt>
      <trkpt lat="45.79772" lon="4.72757">
        <ele>349.53839</ele>
        <time>2023-07-02T15:17:37.000Z</time>
      </trkpt>
      <trkpt lat="45.79771" lon="4.72761">
        <ele>349.50015</ele>
        <time>2023-07-02T15:17:38.000Z</time>
      </trkpt>
      <trkpt lat="45.7977" lon="4.72765">
        <ele>349.41644</ele>
        <time>2023-07-02T15:17:39.000Z</time>
      </trkpt>
      <trkpt lat="45.79769" lon="4.72768">
        <ele>349.35587</ele>
        <time>2023-07-02T15:17:40.000Z</time>
      </trkpt>
      <trkpt lat="45.79768" lon="4.72772">
        <ele>349.29474</ele>
        <time>2023-07-02T15:17:41.000Z</time>
      </trkpt>
      <trkpt lat="45.79767" lon="4.72775">
        <ele>349.25742</ele>
        <time>2023-07-02T15:17:42.000Z</time>
      </trkpt>
      <trkpt lat="45.79765" lon="4.72779">
        <ele>349.18347</ele>
        <time>2023-07-02T15:17:43.000Z</time>
      </trkpt>
      <trkpt lat="45.79765" lon="4.72783">
        <ele>349.1033</ele>
        <time>2023-07-02T15:17:44.000Z</time>
      </trkpt>
      <trkpt lat="45.79765" lon="4.72786">
        <ele>348.99649</ele>
        <time>2023-07-02T15:17:45.000Z</time>
      </trkpt>
      <trkpt lat="45.79766" lon="4.7279">
        <ele>348.89474</ele>
        <time>2023-07-02T15:17:46.000Z</time>
      </trkpt>
      <trkpt lat="45.79766" lon="4.72794">
        <ele>348.83298</ele>
        <time>2023-07-02T15:17:47.000Z</time>
      </trkpt>
      <trkpt lat="45.79766" lon="4.72799">
        <ele>348.77823</ele>
        <time>2023-07-02T15:17:49.000Z</time>
      </trkpt>
      <trkpt lat="45.79766" lon="4.72802">
        <ele>348.76544</ele>
        <time>2023-07-02T15:17:51.000Z</time>
      </trkpt>
      <trkpt lat="45.79766" lon="4.72805">
        <ele>348.72354</ele>
        <time>2023-07-02T15:17:53.000Z</time>
      </trkpt>
      <trkpt lat="45.79765" lon="4.72808">
        <ele>348.65485</ele>
        <time>2023-07-02T15:17:56.000Z</time>
      </trkpt>
      <trkpt lat="45.79763" lon="4.72811">
        <ele>348.58362</ele>
        <time>2023-07-02T15:17:58.000Z</time>
      </trkpt>
      <trkpt lat="45.7976" lon="4.72814">
        <ele>348.50543</ele>
        <time>2023-07-02T15:18:00.000Z</time>
      </trkpt>
      <trkpt lat="45.79759" lon="4.72819">
        <ele>348.36966</ele>
        <time>2023-07-02T15:18:02.000Z</time>
      </trkpt>
      <trkpt lat="45.79759" lon="4.72822">
        <ele>348.26953</ele>
        <time>2023-07-02T15:18:03.000Z</time>
      </trkpt>
      <trkpt lat="45.79759" lon="4.72826">
        <ele>348.08041</ele>
        <time>2023-07-02T15:18:04.000Z</time>
      </trkpt>
      <trkpt lat="45.79758" lon="4.72829">
        <ele>347.89972</ele>
        <time>2023-07-02T15:18:05.000Z</time>
      </trkpt>
      <trkpt lat="45.79758" lon="4.72832">
        <ele>347.79236</ele>
        <time>2023-07-02T15:18:06.000Z</time>
      </trkpt>
      <trkpt lat="45.79759" lon="4.72835">
        <ele>347.73651</ele>
        <time>2023-07-02T15:18:10.000Z</time>
      </trkpt>
      <trkpt lat="45.79757" lon="4.72839">
        <ele>347.63861</ele>
        <time>2023-07-02T15:18:12.000Z</time>
      </trkpt>
      <trkpt lat="45.79754" lon="4.72842">
        <ele>347.25839</ele>
        <time>2023-07-02T15:18:14.000Z</time>
      </trkpt>
      <trkpt lat="45.79752" lon="4.72843">
        <ele>346.88641</ele>
        <time>2023-07-02T15:18:15.000Z</time>
      </trkpt>
      <trkpt lat="45.7975" lon="4.72844">
        <ele>346.51181</ele>
        <time>2023-07-02T15:18:16.000Z</time>
      </trkpt>
      <trkpt lat="45.79747" lon="4.72844">
        <ele>346.17358</ele>
        <time>2023-07-02T15:18:17.000Z</time>
      </trkpt>
      <trkpt lat="45.79746" lon="4.72844">
        <ele>345.83035</ele>
        <time>2023-07-02T15:18:18.000Z</time>
      </trkpt>
      <trkpt lat="45.79743" lon="4.72846">
        <ele>345.43414</ele>
        <time>2023-07-02T15:18:20.000Z</time>
      </trkpt>
      <trkpt lat="45.79742" lon="4.72848">
        <ele>345.02182</ele>
        <time>2023-07-02T15:18:21.000Z</time>
      </trkpt>
      <trkpt lat="45.79741" lon="4.72851">
        <ele>344.68155</ele>
        <time>2023-07-02T15:18:22.000Z</time>
      </trkpt>
      <trkpt lat="45.79741" lon="4.72854">
        <ele>344.34528</ele>
        <time>2023-07-02T15:18:23.000Z</time>
      </trkpt>
      <trkpt lat="45.7974" lon="4.72858">
        <ele>344.03168</ele>
        <time>2023-07-02T15:18:24.000Z</time>
      </trkpt>
      <trkpt lat="45.79738" lon="4.72861">
        <ele>343.74747</ele>
        <time>2023-07-02T15:18:25.000Z</time>
      </trkpt>
      <trkpt lat="45.79736" lon="4.72862">
        <ele>343.44669</ele>
        <time>2023-07-02T15:18:26.000Z</time>
      </trkpt>
      <trkpt lat="45.79734" lon="4.72863">
        <ele>343.12515</ele>
        <time>2023-07-02T15:18:27.000Z</time>
      </trkpt>
      <trkpt lat="45.79732" lon="4.72864">
        <ele>342.90192</ele>
        <time>2023-07-02T15:18:29.000Z</time>
      </trkpt>
      <trkpt lat="45.7973" lon="4.72868">
        <ele>342.6369</ele>
        <time>2023-07-02T15:18:35.000Z</time>
      </trkpt>
      <trkpt lat="45.79728" lon="4.72872">
        <ele>342.32901</ele>
        <time>2023-07-02T15:18:37.000Z</time>
      </trkpt>
      <trkpt lat="45.79727" lon="4.72874">
        <ele>342.0307</ele>
        <time>2023-07-02T15:18:38.000Z</time>
      </trkpt>
      <trkpt lat="45.79725" lon="4.72877">
        <ele>341.66241</ele>
        <time>2023-07-02T15:18:39.000Z</time>
      </trkpt>
      <trkpt lat="45.79723" lon="4.7288">
        <ele>341.29779</ele>
        <time>2023-07-02T15:18:40.000Z</time>
      </trkpt>
      <trkpt lat="45.7972" lon="4.72882">
        <ele>340.96072</ele>
        <time>2023-07-02T15:18:41.000Z</time>
      </trkpt>
      <trkpt lat="45.79718" lon="4.72884">
        <ele>340.92758</ele>
        <time>2023-07-02T15:18:42.000Z</time>
      </trkpt>
      <trkpt lat="45.79716" lon="4.72887">
        <ele>340.89764</ele>
        <time>2023-07-02T15:18:43.000Z</time>
      </trkpt>
      <trkpt lat="45.79715" lon="4.72889">
        <ele>340.86618</ele>
        <time>2023-07-02T15:18:45.000Z</time>
      </trkpt>
      <trkpt lat="45.79714" lon="4.72892">
        <ele>340.82013</ele>
        <time>2023-07-02T15:18:49.000Z</time>
      </trkpt>
      <trkpt lat="45.79713" lon="4.72897">
        <ele>340.80042</ele>
        <time>2023-07-02T15:18:52.000Z</time>
      </trkpt>
      <trkpt lat="45.79713" lon="4.72902">
        <ele>340.82843</ele>
        <time>2023-07-02T15:18:54.000Z</time>
      </trkpt>
      <trkpt lat="45.79712" lon="4.72905">
        <ele>340.85806</ele>
        <time>2023-07-02T15:18:55.000Z</time>
      </trkpt>
      <trkpt lat="45.79711" lon="4.72908">
        <ele>340.7908</ele>
        <time>2023-07-02T15:18:56.000Z</time>
      </trkpt>
      <trkpt lat="45.7971" lon="4.72912">
        <ele>340.67908</ele>
        <time>2023-07-02T15:18:57.000Z</time>
      </trkpt>
      <trkpt lat="45.79709" lon="4.72915">
        <ele>340.53629</ele>
        <time>2023-07-02T15:18:58.000Z</time>
      </trkpt>
      <trkpt lat="45.79707" lon="4.72919">
        <ele>340.38663</ele>
        <time>2023-07-02T15:19:00.000Z</time>
      </trkpt>
      <trkpt lat="45.79705" lon="4.72922">
        <ele>340.26996</ele>
        <time>2023-07-02T15:19:01.000Z</time>
      </trkpt>
      <trkpt lat="45.79703" lon="4.72926">
        <ele>340.14874</ele>
        <time>2023-07-02T15:19:03.000Z</time>
      </trkpt>
      <trkpt lat="45.79702" lon="4.72927">
        <ele>339.86618</ele>
        <time>2023-07-02T15:19:04.000Z</time>
      </trkpt>
      <trkpt lat="45.797" lon="4.7293">
        <ele>339.65265</ele>
        <time>2023-07-02T15:19:06.000Z</time>
      </trkpt>
      <trkpt lat="45.79698" lon="4.72933">
        <ele>339.49774</ele>
        <time>2023-07-02T15:19:08.000Z</time>
      </trkpt>
      <trkpt lat="45.79699" lon="4.72936">
        <ele>339.29874</ele>
        <time>2023-07-02T15:19:10.000Z</time>
      </trkpt>
      <trkpt lat="45.79702" lon="4.72937">
        <ele>339.19318</ele>
        <time>2023-07-02T15:19:12.000Z</time>
      </trkpt>
      <trkpt lat="45.79704" lon="4.72937">
        <ele>338.94339</ele>
        <time>2023-07-02T15:19:14.000Z</time>
      </trkpt>
      <trkpt lat="45.79706" lon="4.72939">
        <ele>338.70688</ele>
        <time>2023-07-02T15:19:16.000Z</time>
      </trkpt>
      <trkpt lat="45.79707" lon="4.72943">
        <ele>338.62482</ele>
        <time>2023-07-02T15:19:18.000Z</time>
      </trkpt>
      <trkpt lat="45.79709" lon="4.72947">
        <ele>338.52509</ele>
        <time>2023-07-02T15:19:20.000Z</time>
      </trkpt>
      <trkpt lat="45.7971" lon="4.7295">
        <ele>338.43317</ele>
        <time>2023-07-02T15:19:21.000Z</time>
      </trkpt>
      <trkpt lat="45.79711" lon="4.72953">
        <ele>341.53091</ele>
        <time>2023-07-02T15:19:22.000Z</time>
      </trkpt>
      <trkpt lat="45.79712" lon="4.72955">
        <ele>341.56393</ele>
        <time>2023-07-02T15:19:23.000Z</time>
      </trkpt>
      <trkpt lat="45.79713" lon="4.72958">
        <ele>341.60483</ele>
        <time>2023-07-02T15:19:24.000Z</time>
      </trkpt>
      <trkpt lat="45.79714" lon="4.72962">
        <ele>341.67068</ele>
        <time>2023-07-02T15:19:25.000Z</time>
      </trkpt>
      <trkpt lat="45.79714" lon="4.72965">
        <ele>341.75323</ele>
        <time>2023-07-02T15:19:26.000Z</time>
      </trkpt>
      <trkpt lat="45.79713" lon="4.72968">
        <ele>345.28256</ele>
        <time>2023-07-02T15:19:28.000Z</time>
      </trkpt>
      <trkpt lat="45.79714" lon="4.72972">
        <ele>345.61926</ele>
        <time>2023-07-02T15:19:30.000Z</time>
      </trkpt>
      <trkpt lat="45.79715" lon="4.72975">
        <ele>345.97839</ele>
        <time>2023-07-02T15:19:32.000Z</time>
      </trkpt>
      <trkpt lat="45.79715" lon="4.72979">
        <ele>351.52646</ele>
        <time>2023-07-02T15:19:34.000Z</time>
      </trkpt>
      <trkpt lat="45.79713" lon="4.72983">
        <ele>353.64777</ele>
        <time>2023-07-02T15:19:36.000Z</time>
      </trkpt>
      <trkpt lat="45.79711" lon="4.72984">
        <ele>353.6416</ele>
        <time>2023-07-02T15:19:38.000Z</time>
      </trkpt>
      <trkpt lat="45.79709" lon="4.72986">
        <ele>354.44894</ele>
        <time>2023-07-02T15:19:40.000Z</time>
      </trkpt>
      <trkpt lat="45.79709" lon="4.72989">
        <ele>353.59656</ele>
        <time>2023-07-02T15:19:44.000Z</time>
      </trkpt>
      <trkpt lat="45.7971" lon="4.72992">
        <ele>354.45276</ele>
        <time>2023-07-02T15:19:47.000Z</time>
      </trkpt>
      <trkpt lat="45.79711" lon="4.72995">
        <ele>353.57047</ele>
        <time>2023-07-02T15:19:50.000Z</time>
      </trkpt>
      <trkpt lat="45.79711" lon="4.72998">
        <ele>354.48764</ele>
        <time>2023-07-02T15:19:53.000Z</time>
      </trkpt>
      <trkpt lat="45.7971" lon="4.73">
        <ele>353.71881</ele>
        <time>2023-07-02T15:19:58.000Z</time>
      </trkpt>
      <trkpt lat="45.79709" lon="4.73002">
        <ele>354.46942</ele>
        <time>2023-07-02T15:20:01.000Z</time>
      </trkpt>
      <trkpt lat="45.79707" lon="4.73003">
        <ele>353.55426</ele>
        <time>2023-07-02T15:20:05.000Z</time>
      </trkpt>
      <trkpt lat="45.79705" lon="4.73006">
        <ele>354.30573</ele>
        <time>2023-07-02T15:20:08.000Z</time>
      </trkpt>
      <trkpt lat="45.79705" lon="4.73009">
        <ele>350.14801</ele>
        <time>2023-07-02T15:20:11.000Z</time>
      </trkpt>
      <trkpt lat="45.79703" lon="4.73011">
        <ele>350.57889</ele>
        <time>2023-07-02T15:20:14.000Z</time>
      </trkpt>
      <trkpt lat="45.79701" lon="4.73015">
        <ele>351.02963</ele>
        <time>2023-07-02T15:20:16.000Z</time>
      </trkpt>
      <trkpt lat="45.79699" lon="4.73017">
        <ele>349.83319</ele>
        <time>2023-07-02T15:20:17.000Z</time>
      </trkpt>
      <trkpt lat="45.79697" lon="4.73019">
        <ele>350.2413</ele>
        <time>2023-07-02T15:20:18.000Z</time>
      </trkpt>
      <trkpt lat="45.79694" lon="4.73021">
        <ele>347.2746</ele>
        <time>2023-07-02T15:20:19.000Z</time>
      </trkpt>
      <trkpt lat="45.79691" lon="4.73023">
        <ele>345.89435</ele>
        <time>2023-07-02T15:20:20.000Z</time>
      </trkpt>
      <trkpt lat="45.79689" lon="4.73025">
        <ele>344.48969</ele>
        <time>2023-07-02T15:20:21.000Z</time>
      </trkpt>
      <trkpt lat="45.79687" lon="4.73026">
        <ele>337.84399</ele>
        <time>2023-07-02T15:20:22.000Z</time>
      </trkpt>
      <trkpt lat="45.79684" lon="4.73027">
        <ele>334.61288</ele>
        <time>2023-07-02T15:20:23.000Z</time>
      </trkpt>
      <trkpt lat="45.79682" lon="4.73029">
        <ele>333.60071</ele>
        <time>2023-07-02T15:20:24.000Z</time>
      </trkpt>
      <trkpt lat="45.7968" lon="4.7303">
        <ele>331.72946</ele>
        <time>2023-07-02T15:20:25.000Z</time>
      </trkpt>
      <trkpt lat="45.79679" lon="4.73032">
        <ele>331.50751</ele>
        <time>2023-07-02T15:20:26.000Z</time>
      </trkpt>
      <trkpt lat="45.79678" lon="4.73036">
        <ele>329.62305</ele>
        <time>2023-07-02T15:20:28.000Z</time>
      </trkpt>
      <trkpt lat="45.79675" lon="4.7304">
        <ele>329.36136</ele>
        <time>2023-07-02T15:20:30.000Z</time>
      </trkpt>
      <trkpt lat="45.79673" lon="4.73042">
        <ele>327.44302</ele>
        <time>2023-07-02T15:20:31.000Z</time>
      </trkpt>
      <trkpt lat="45.79671" lon="4.73044">
        <ele>327.20572</ele>
        <time>2023-07-02T15:20:32.000Z</time>
      </trkpt>
      <trkpt lat="45.79669" lon="4.73047">
        <ele>325.27765</ele>
        <time>2023-07-02T15:20:33.000Z</time>
      </trkpt>
      <trkpt lat="45.79667" lon="4.73049">
        <ele>324.99475</ele>
        <time>2023-07-02T15:20:34.000Z</time>
      </trkpt>
      <trkpt lat="45.79665" lon="4.73052">
        <ele>323.04175</ele>
        <time>2023-07-02T15:20:35.000Z</time>
      </trkpt>
      <trkpt lat="45.79662" lon="4.73056">
        <ele>322.81461</ele>
        <time>2023-07-02T15:20:36.000Z</time>
      </trkpt>
      <trkpt lat="45.7966" lon="4.73059">
        <ele>321.05576</ele>
        <time>2023-07-02T15:20:37.000Z</time>
      </trkpt>
      <trkpt lat="45.79658" lon="4.73061">
        <ele>319.22647</ele>
        <time>2023-07-02T15:20:38.000Z</time>
      </trkpt>
      <trkpt lat="45.79656" lon="4.73062">
        <ele>319.05627</ele>
        <time>2023-07-02T15:20:39.000Z</time>
      </trkpt>
      <trkpt lat="45.79654" lon="4.73064">
        <ele>317.35059</ele>
        <time>2023-07-02T15:20:40.000Z</time>
      </trkpt>
      <trkpt lat="45.79651" lon="4.73067">
        <ele>315.70569</ele>
        <time>2023-07-02T15:20:42.000Z</time>
      </trkpt>
      <trkpt lat="45.7965" lon="4.7307">
        <ele>315.64667</ele>
        <time>2023-07-02T15:20:44.000Z</time>
      </trkpt>
      <trkpt lat="45.79648" lon="4.73074">
        <ele>315.52991</ele>
        <time>2023-07-02T15:20:46.000Z</time>
      </trkpt>
      <trkpt lat="45.79646" lon="4.73077">
        <ele>315.46091</ele>
        <time>2023-07-02T15:20:47.000Z</time>
      </trkpt>
      <trkpt lat="45.79643" lon="4.73079">
        <ele>315.39359</ele>
        <time>2023-07-02T15:20:48.000Z</time>
      </trkpt>
      <trkpt lat="45.79639" lon="4.73081">
        <ele>315.38336</ele>
        <time>2023-07-02T15:20:49.000Z</time>
      </trkpt>
      <trkpt lat="45.79635" lon="4.73083">
        <ele>315.36505</ele>
        <time>2023-07-02T15:20:50.000Z</time>
      </trkpt>
      <trkpt lat="45.79631" lon="4.73084">
        <ele>315.34305</ele>
        <time>2023-07-02T15:20:51.000Z</time>
      </trkpt>
      <trkpt lat="45.79628" lon="4.73084">
        <ele>315.24625</ele>
        <time>2023-07-02T15:20:52.000Z</time>
      </trkpt>
      <trkpt lat="45.79625" lon="4.73084">
        <ele>315.28168</ele>
        <time>2023-07-02T15:20:54.000Z</time>
      </trkpt>
      <trkpt lat="45.79623" lon="4.73084">
        <ele>315.23212</ele>
        <time>2023-07-02T15:20:55.000Z</time>
      </trkpt>
      <trkpt lat="45.79621" lon="4.73084">
        <ele>315.17569</ele>
        <time>2023-07-02T15:20:56.000Z</time>
      </trkpt>
      <trkpt lat="45.79618" lon="4.73083">
        <ele>314.97247</ele>
        <time>2023-07-02T15:20:57.000Z</time>
      </trkpt>
      <trkpt lat="45.79615" lon="4.73083">
        <ele>314.84979</ele>
        <time>2023-07-02T15:20:58.000Z</time>
      </trkpt>
      <trkpt lat="45.7961" lon="4.73083">
        <ele>314.74396</ele>
        <time>2023-07-02T15:20:59.000Z</time>
      </trkpt>
      <trkpt lat="45.79606" lon="4.73084">
        <ele>314.53076</ele>
        <time>2023-07-02T15:21:00.000Z</time>
      </trkpt>
      <trkpt lat="45.79601" lon="4.73085">
        <ele>314.22549</ele>
        <time>2023-07-02T15:21:01.000Z</time>
      </trkpt>
      <trkpt lat="45.79596" lon="4.73086">
        <ele>314.01553</ele>
        <time>2023-07-02T15:21:02.000Z</time>
      </trkpt>
      <trkpt lat="45.79586" lon="4.73089">
        <ele>313.814</ele>
        <time>2023-07-02T15:21:03.000Z</time>
      </trkpt>
      <trkpt lat="45.79581" lon="4.73092">
        <ele>313.56702</ele>
        <time>2023-07-02T15:21:04.000Z</time>
      </trkpt>
      <trkpt lat="45.79576" lon="4.73093">
        <ele>313.27325</ele>
        <time>2023-07-02T15:21:05.000Z</time>
      </trkpt>
      <trkpt lat="45.7957" lon="4.73097">
        <ele>313.0318</ele>
        <time>2023-07-02T15:21:06.000Z</time>
      </trkpt>
      <trkpt lat="45.79568" lon="4.731">
        <ele>312.87729</ele>
        <time>2023-07-02T15:21:07.000Z</time>
      </trkpt>
      <trkpt lat="45.79563" lon="4.73103">
        <ele>312.7113</ele>
        <time>2023-07-02T15:21:08.000Z</time>
      </trkpt>
      <trkpt lat="45.79558" lon="4.73111">
        <ele>312.51285</ele>
        <time>2023-07-02T15:21:09.000Z</time>
      </trkpt>
      <trkpt lat="45.79552" lon="4.73116">
        <ele>312.23932</ele>
        <time>2023-07-02T15:21:10.000Z</time>
      </trkpt>
      <trkpt lat="45.79546" lon="4.73123">
        <ele>312.0014</ele>
        <time>2023-07-02T15:21:11.000Z</time>
      </trkpt>
      <trkpt lat="45.79539" lon="4.73133">
        <ele>311.78461</ele>
        <time>2023-07-02T15:21:12.000Z</time>
      </trkpt>
      <trkpt lat="45.79534" lon="4.73141">
        <ele>311.64954</ele>
        <time>2023-07-02T15:21:13.000Z</time>
      </trkpt>
      <trkpt lat="45.79529" lon="4.73151">
        <ele>311.41675</ele>
        <time>2023-07-02T15:21:14.000Z</time>
      </trkpt>
      <trkpt lat="45.79523" lon="4.73158">
        <ele>311.29553</ele>
        <time>2023-07-02T15:21:15.000Z</time>
      </trkpt>
      <trkpt lat="45.79516" lon="4.73164">
        <ele>311.19781</ele>
        <time>2023-07-02T15:21:16.000Z</time>
      </trkpt>
      <trkpt lat="45.7951" lon="4.73167">
        <ele>311.26428</ele>
        <time>2023-07-02T15:21:17.000Z</time>
      </trkpt>
      <trkpt lat="45.79504" lon="4.73171">
        <ele>311.25641</ele>
        <time>2023-07-02T15:21:18.000Z</time>
      </trkpt>
      <trkpt lat="45.795" lon="4.73177">
        <ele>311.2045</ele>
        <time>2023-07-02T15:21:19.000Z</time>
      </trkpt>
      <trkpt lat="45.79497" lon="4.73181">
        <ele>311.33163</ele>
        <time>2023-07-02T15:21:20.000Z</time>
      </trkpt>
      <trkpt lat="45.79493" lon="4.73183">
        <ele>311.55829</ele>
        <time>2023-07-02T15:21:21.000Z</time>
      </trkpt>
      <trkpt lat="45.79488" lon="4.73186">
        <ele>311.72546</ele>
        <time>2023-07-02T15:21:22.000Z</time>
      </trkpt>
      <trkpt lat="45.79483" lon="4.7319">
        <ele>311.90326</ele>
        <time>2023-07-02T15:21:23.000Z</time>
      </trkpt>
      <trkpt lat="45.79479" lon="4.73193">
        <ele>312.05695</ele>
        <time>2023-07-02T15:21:24.000Z</time>
      </trkpt>
      <trkpt lat="45.79475" lon="4.73194">
        <ele>312.21973</ele>
        <time>2023-07-02T15:21:25.000Z</time>
      </trkpt>
      <trkpt lat="45.79472" lon="4.73198">
        <ele>312.34442</ele>
        <time>2023-07-02T15:21:26.000Z</time>
      </trkpt>
      <trkpt lat="45.79467" lon="4.73201">
        <ele>312.4939</ele>
        <time>2023-07-02T15:21:27.000Z</time>
      </trkpt>
      <trkpt lat="45.79465" lon="4.73204">
        <ele>312.64508</ele>
        <time>2023-07-02T15:21:28.000Z</time>
      </trkpt>
      <trkpt lat="45.79462" lon="4.73209">
        <ele>312.82867</ele>
        <time>2023-07-02T15:21:29.000Z</time>
      </trkpt>
      <trkpt lat="45.79458" lon="4.73212">
        <ele>313.01459</ele>
        <time>2023-07-02T15:21:30.000Z</time>
      </trkpt>
      <trkpt lat="45.79455" lon="4.73214">
        <ele>313.25302</ele>
        <time>2023-07-02T15:21:31.000Z</time>
      </trkpt>
      <trkpt lat="45.79454" lon="4.73218">
        <ele>313.41461</ele>
        <time>2023-07-02T15:21:32.000Z</time>
      </trkpt>
      <trkpt lat="45.79452" lon="4.7322">
        <ele>313.55746</ele>
        <time>2023-07-02T15:21:33.000Z</time>
      </trkpt>
      <trkpt lat="45.79447" lon="4.7322">
        <ele>313.73395</ele>
        <time>2023-07-02T15:21:34.000Z</time>
      </trkpt>
      <trkpt lat="45.79443" lon="4.73221">
        <ele>313.87085</ele>
        <time>2023-07-02T15:21:35.000Z</time>
      </trkpt>
      <trkpt lat="45.79442" lon="4.73223">
        <ele>314.11197</ele>
        <time>2023-07-02T15:21:36.000Z</time>
      </trkpt>
      <trkpt lat="45.79439" lon="4.73224">
        <ele>314.36029</ele>
        <time>2023-07-02T15:21:37.000Z</time>
      </trkpt>
      <trkpt lat="45.79435" lon="4.7323">
        <ele>314.63367</ele>
        <time>2023-07-02T15:21:38.000Z</time>
      </trkpt>
      <trkpt lat="45.79432" lon="4.73233">
        <ele>314.92584</ele>
        <time>2023-07-02T15:21:39.000Z</time>
      </trkpt>
      <trkpt lat="45.7943" lon="4.73236">
        <ele>315.12875</ele>
        <time>2023-07-02T15:21:40.000Z</time>
      </trkpt>
      <trkpt lat="45.79427" lon="4.73239">
        <ele>315.32257</ele>
        <time>2023-07-02T15:21:41.000Z</time>
      </trkpt>
      <trkpt lat="45.79424" lon="4.73242">
        <ele>315.58051</ele>
        <time>2023-07-02T15:21:42.000Z</time>
      </trkpt>
      <trkpt lat="45.79421" lon="4.73246">
        <ele>315.79462</ele>
        <time>2023-07-02T15:21:43.000Z</time>
      </trkpt>
      <trkpt lat="45.79417" lon="4.73249">
        <ele>315.77539</ele>
        <time>2023-07-02T15:21:44.000Z</time>
      </trkpt>
      <trkpt lat="45.79412" lon="4.73249">
        <ele>315.70401</ele>
        <time>2023-07-02T15:21:45.000Z</time>
      </trkpt>
      <trkpt lat="45.79408" lon="4.73248">
        <ele>315.65036</ele>
        <time>2023-07-02T15:21:46.000Z</time>
      </trkpt>
      <trkpt lat="45.79401" lon="4.73245">
        <ele>315.52045</ele>
        <time>2023-07-02T15:21:47.000Z</time>
      </trkpt>
      <trkpt lat="45.79395" lon="4.73246">
        <ele>315.40363</ele>
        <time>2023-07-02T15:21:48.000Z</time>
      </trkpt>
      <trkpt lat="45.7939" lon="4.73248">
        <ele>315.26877</ele>
        <time>2023-07-02T15:21:49.000Z</time>
      </trkpt>
      <trkpt lat="45.79386" lon="4.7325">
        <ele>315.18661</ele>
        <time>2023-07-02T15:21:50.000Z</time>
      </trkpt>
      <trkpt lat="45.79381" lon="4.73252">
        <ele>315.04117</ele>
        <time>2023-07-02T15:21:51.000Z</time>
      </trkpt>
      <trkpt lat="45.79377" lon="4.73252">
        <ele>315.02682</ele>
        <time>2023-07-02T15:21:52.000Z</time>
      </trkpt>
      <trkpt lat="45.79376" lon="4.73254">
        <ele>314.99637</ele>
        <time>2023-07-02T15:21:53.000Z</time>
      </trkpt>
      <trkpt lat="45.79371" lon="4.73254">
        <ele>315.05731</ele>
        <time>2023-07-02T15:21:56.000Z</time>
      </trkpt>
      <trkpt lat="45.79369" lon="4.73254">
        <ele>315.0993</ele>
        <time>2023-07-02T15:21:57.000Z</time>
      </trkpt>
      <trkpt lat="45.79367" lon="4.73251">
        <ele>314.99036</ele>
        <time>2023-07-02T15:21:59.000Z</time>
      </trkpt>
      <trkpt lat="45.79365" lon="4.73251">
        <ele>314.9848</ele>
        <time>2023-07-02T15:22:02.000Z</time>
      </trkpt>
      <trkpt lat="45.79363" lon="4.73253">
        <ele>314.82104</ele>
        <time>2023-07-02T15:22:10.000Z</time>
      </trkpt>
      <trkpt lat="45.79361" lon="4.73253">
        <ele>314.42361</ele>
        <time>2023-07-02T15:22:16.000Z</time>
      </trkpt>
      <trkpt lat="45.79358" lon="4.73253">
        <ele>313.82562</ele>
        <time>2023-07-02T15:22:18.000Z</time>
      </trkpt>
      <trkpt lat="45.79356" lon="4.73254">
        <ele>313.2662</ele>
        <time>2023-07-02T15:22:20.000Z</time>
      </trkpt>
      <trkpt lat="45.79353" lon="4.73254">
        <ele>312.66498</ele>
        <time>2023-07-02T15:22:22.000Z</time>
      </trkpt>
      <trkpt lat="45.79351" lon="4.73254">
        <ele>312.08078</ele>
        <time>2023-07-02T15:22:23.000Z</time>
      </trkpt>
      <trkpt lat="45.79348" lon="4.73254">
        <ele>311.74625</ele>
        <time>2023-07-02T15:22:24.000Z</time>
      </trkpt>
      <trkpt lat="45.79347" lon="4.73254">
        <ele>311.4502</ele>
        <time>2023-07-02T15:22:25.000Z</time>
      </trkpt>
      <trkpt lat="45.79342" lon="4.73254">
        <ele>311.17712</ele>
        <time>2023-07-02T15:22:27.000Z</time>
      </trkpt>
      <trkpt lat="45.79339" lon="4.73252">
        <ele>310.89539</ele>
        <time>2023-07-02T15:22:28.000Z</time>
      </trkpt>
      <trkpt lat="45.79332" lon="4.73249">
        <ele>310.58459</ele>
        <time>2023-07-02T15:22:29.000Z</time>
      </trkpt>
      <trkpt lat="45.79329" lon="4.73247">
        <ele>310.27902</ele>
        <time>2023-07-02T15:22:30.000Z</time>
      </trkpt>
      <trkpt lat="45.79327" lon="4.73247">
        <ele>309.90985</ele>
        <time>2023-07-02T15:22:31.000Z</time>
      </trkpt>
      <trkpt lat="45.79325" lon="4.73247">
        <ele>309.54684</ele>
        <time>2023-07-02T15:22:32.000Z</time>
      </trkpt>
      <trkpt lat="45.79324" lon="4.73245">
        <ele>309.13757</ele>
        <time>2023-07-02T15:22:34.000Z</time>
      </trkpt>
      <trkpt lat="45.79323" lon="4.73242">
        <ele>308.7182</ele>
        <time>2023-07-02T15:22:37.000Z</time>
      </trkpt>
      <trkpt lat="45.79321" lon="4.73241">
        <ele>308.20172</ele>
        <time>2023-07-02T15:22:39.000Z</time>
      </trkpt>
      <trkpt lat="45.79318" lon="4.73243">
        <ele>307.75705</ele>
        <time>2023-07-02T15:22:41.000Z</time>
      </trkpt>
      <trkpt lat="45.79318" lon="4.73247">
        <ele>307.35385</ele>
        <time>2023-07-02T15:22:44.000Z</time>
      </trkpt>
      <trkpt lat="45.79318" lon="4.7325">
        <ele>306.8399</ele>
        <time>2023-07-02T15:22:46.000Z</time>
      </trkpt>
      <trkpt lat="45.79316" lon="4.73251">
        <ele>306.47858</ele>
        <time>2023-07-02T15:22:47.000Z</time>
      </trkpt>
      <trkpt lat="45.79313" lon="4.73252">
        <ele>306.39639</ele>
        <time>2023-07-02T15:22:48.000Z</time>
      </trkpt>
      <trkpt lat="45.79311" lon="4.73252">
        <ele>306.53738</ele>
        <time>2023-07-02T15:22:49.000Z</time>
      </trkpt>
      <trkpt lat="45.79308" lon="4.73252">
        <ele>306.62457</ele>
        <time>2023-07-02T15:22:50.000Z</time>
      </trkpt>
      <trkpt lat="45.79305" lon="4.73252">
        <ele>306.69159</ele>
        <time>2023-07-02T15:22:51.000Z</time>
      </trkpt>
      <trkpt lat="45.79301" lon="4.73252">
        <ele>306.70795</ele>
        <time>2023-07-02T15:22:52.000Z</time>
      </trkpt>
      <trkpt lat="45.793" lon="4.73252">
        <ele>306.69189</ele>
        <time>2023-07-02T15:22:53.000Z</time>
      </trkpt>
      <trkpt lat="45.79296" lon="4.73254">
        <ele>306.65182</ele>
        <time>2023-07-02T15:22:55.000Z</time>
      </trkpt>
      <trkpt lat="45.79292" lon="4.73255">
        <ele>306.62137</ele>
        <time>2023-07-02T15:22:56.000Z</time>
      </trkpt>
      <trkpt lat="45.79289" lon="4.73256">
        <ele>306.62354</ele>
        <time>2023-07-02T15:22:57.000Z</time>
      </trkpt>
      <trkpt lat="45.79287" lon="4.73257">
        <ele>306.6474</ele>
        <time>2023-07-02T15:22:58.000Z</time>
      </trkpt>
      <trkpt lat="45.79284" lon="4.73258">
        <ele>306.68283</ele>
        <time>2023-07-02T15:22:59.000Z</time>
      </trkpt>
      <trkpt lat="45.79282" lon="4.73259">
        <ele>306.73764</ele>
        <time>2023-07-02T15:23:00.000Z</time>
      </trkpt>
      <trkpt lat="45.79279" lon="4.7326">
        <ele>306.78241</ele>
        <time>2023-07-02T15:23:01.000Z</time>
      </trkpt>
      <trkpt lat="45.79277" lon="4.7326">
        <ele>306.78943</ele>
        <time>2023-07-02T15:23:02.000Z</time>
      </trkpt>
      <trkpt lat="45.79274" lon="4.73261">
        <ele>306.81158</ele>
        <time>2023-07-02T15:23:04.000Z</time>
      </trkpt>
      <trkpt lat="45.79271" lon="4.73262">
        <ele>306.83838</ele>
        <time>2023-07-02T15:23:05.000Z</time>
      </trkpt>
      <trkpt lat="45.79268" lon="4.73264">
        <ele>306.82513</ele>
        <time>2023-07-02T15:23:06.000Z</time>
      </trkpt>
      <trkpt lat="45.79265" lon="4.73266">
        <ele>306.80078</ele>
        <time>2023-07-02T15:23:07.000Z</time>
      </trkpt>
      <trkpt lat="45.79263" lon="4.73268">
        <ele>306.75507</ele>
        <time>2023-07-02T15:23:08.000Z</time>
      </trkpt>
      <trkpt lat="45.79261" lon="4.7327">
        <ele>306.69659</ele>
        <time>2023-07-02T15:23:09.000Z</time>
      </trkpt>
      <trkpt lat="45.79259" lon="4.73272">
        <ele>306.59351</ele>
        <time>2023-07-02T15:23:10.000Z</time>
      </trkpt>
      <trkpt lat="45.79256" lon="4.73275">
        <ele>306.47882</ele>
        <time>2023-07-02T15:23:11.000Z</time>
      </trkpt>
      <trkpt lat="45.79254" lon="4.73277">
        <ele>306.38568</ele>
        <time>2023-07-02T15:23:12.000Z</time>
      </trkpt>
      <trkpt lat="45.79251" lon="4.7328">
        <ele>306.27985</ele>
        <time>2023-07-02T15:23:13.000Z</time>
      </trkpt>
      <trkpt lat="45.79249" lon="4.73283">
        <ele>306.18756</ele>
        <time>2023-07-02T15:23:14.000Z</time>
      </trkpt>
      <trkpt lat="45.79246" lon="4.73285">
        <ele>306.11951</ele>
        <time>2023-07-02T15:23:15.000Z</time>
      </trkpt>
      <trkpt lat="45.79245" lon="4.73287">
        <ele>306.04846</ele>
        <time>2023-07-02T15:23:16.000Z</time>
      </trkpt>
      <trkpt lat="45.79242" lon="4.73289">
        <ele>305.94928</ele>
        <time>2023-07-02T15:23:17.000Z</time>
      </trkpt>
      <trkpt lat="45.79238" lon="4.73292">
        <ele>305.87555</ele>
        <time>2023-07-02T15:23:18.000Z</time>
      </trkpt>
      <trkpt lat="45.79235" lon="4.73295">
        <ele>305.75562</ele>
        <time>2023-07-02T15:23:19.000Z</time>
      </trkpt>
      <trkpt lat="45.79231" lon="4.73299">
        <ele>305.66605</ele>
        <time>2023-07-02T15:23:20.000Z</time>
      </trkpt>
      <trkpt lat="45.79229" lon="4.73302">
        <ele>305.59604</ele>
        <time>2023-07-02T15:23:21.000Z</time>
      </trkpt>
      <trkpt lat="45.79227" lon="4.73306">
        <ele>305.52591</ele>
        <time>2023-07-02T15:23:23.000Z</time>
      </trkpt>
      <trkpt lat="45.79225" lon="4.73307">
        <ele>305.48209</ele>
        <time>2023-07-02T15:23:24.000Z</time>
      </trkpt>
      <trkpt lat="45.79223" lon="4.73309">
        <ele>305.44574</ele>
        <time>2023-07-02T15:23:26.000Z</time>
      </trkpt>
      <trkpt lat="45.79221" lon="4.7331">
        <ele>305.39642</ele>
        <time>2023-07-02T15:23:28.000Z</time>
      </trkpt>
      <trkpt lat="45.7922" lon="4.73312">
        <ele>305.46487</ele>
        <time>2023-07-02T15:23:52.000Z</time>
      </trkpt>
      <trkpt lat="45.79217" lon="4.73316">
        <ele>305.49564</ele>
        <time>2023-07-02T15:23:54.000Z</time>
      </trkpt>
      <trkpt lat="45.79215" lon="4.73318">
        <ele>305.53683</ele>
        <time>2023-07-02T15:23:55.000Z</time>
      </trkpt>
      <trkpt lat="45.79213" lon="4.73319">
        <ele>305.57825</ele>
        <time>2023-07-02T15:23:56.000Z</time>
      </trkpt>
      <trkpt lat="45.79211" lon="4.7332">
        <ele>305.66321</ele>
        <time>2023-07-02T15:23:57.000Z</time>
      </trkpt>
      <trkpt lat="45.79208" lon="4.73321">
        <ele>305.74911</ele>
        <time>2023-07-02T15:23:58.000Z</time>
      </trkpt>
      <trkpt lat="45.79206" lon="4.73322">
        <ele>305.84116</ele>
        <time>2023-07-02T15:23:59.000Z</time>
      </trkpt>
      <trkpt lat="45.79204" lon="4.73322">
        <ele>305.94421</ele>
        <time>2023-07-02T15:24:00.000Z</time>
      </trkpt>
      <trkpt lat="45.79201" lon="4.73321">
        <ele>306.04544</ele>
        <time>2023-07-02T15:24:02.000Z</time>
      </trkpt>
      <trkpt lat="45.79199" lon="4.73321">
        <ele>306.16168</ele>
        <time>2023-07-02T15:24:05.000Z</time>
      </trkpt>
      <trkpt lat="45.79197" lon="4.73321">
        <ele>306.30795</ele>
        <time>2023-07-02T15:24:09.000Z</time>
      </trkpt>
      <trkpt lat="45.79195" lon="4.73321">
        <ele>306.51065</ele>
        <time>2023-07-02T15:24:21.000Z</time>
      </trkpt>
      <trkpt lat="45.79192" lon="4.73321">
        <ele>306.64514</ele>
        <time>2023-07-02T15:24:23.000Z</time>
      </trkpt>
      <trkpt lat="45.7919" lon="4.73322">
        <ele>306.86966</ele>
        <time>2023-07-02T15:24:24.000Z</time>
      </trkpt>
      <trkpt lat="45.79187" lon="4.73322">
        <ele>307.07111</ele>
        <time>2023-07-02T15:24:25.000Z</time>
      </trkpt>
      <trkpt lat="45.79184" lon="4.73322">
        <ele>307.26898</ele>
        <time>2023-07-02T15:24:26.000Z</time>
      </trkpt>
      <trkpt lat="45.79181" lon="4.73323">
        <ele>307.43658</ele>
        <time>2023-07-02T15:24:27.000Z</time>
      </trkpt>
      <trkpt lat="45.79179" lon="4.73324">
        <ele>307.65692</ele>
        <time>2023-07-02T15:24:28.000Z</time>
      </trkpt>
      <trkpt lat="45.79178" lon="4.73326">
        <ele>307.86267</ele>
        <time>2023-07-02T15:24:34.000Z</time>
      </trkpt>
      <trkpt lat="45.79176" lon="4.73327">
        <ele>308.06207</ele>
        <time>2023-07-02T15:24:41.000Z</time>
      </trkpt>
      <trkpt lat="45.79174" lon="4.73327">
        <ele>308.12756</ele>
        <time>2023-07-02T15:24:44.000Z</time>
      </trkpt>
      <trkpt lat="45.79172" lon="4.73329">
        <ele>308.15448</ele>
        <time>2023-07-02T15:24:50.000Z</time>
      </trkpt>
      <trkpt lat="45.79171" lon="4.73331">
        <ele>308.16162</ele>
        <time>2023-07-02T15:24:54.000Z</time>
      </trkpt>
      <trkpt lat="45.79169" lon="4.73333">
        <ele>308.15271</ele>
        <time>2023-07-02T15:24:57.000Z</time>
      </trkpt>
      <trkpt lat="45.79167" lon="4.73334">
        <ele>308.07196</ele>
        <time>2023-07-02T15:25:00.000Z</time>
      </trkpt>
      <trkpt lat="45.79165" lon="4.73334">
        <ele>307.92365</ele>
        <time>2023-07-02T15:25:08.000Z</time>
      </trkpt>
      <trkpt lat="45.79161" lon="4.73335">
        <ele>307.74268</ele>
        <time>2023-07-02T15:25:20.000Z</time>
      </trkpt>
      <trkpt lat="45.79159" lon="4.73335">
        <ele>307.58252</ele>
        <time>2023-07-02T15:25:21.000Z</time>
      </trkpt>
      <trkpt lat="45.79157" lon="4.73336">
        <ele>307.43008</ele>
        <time>2023-07-02T15:25:22.000Z</time>
      </trkpt>
      <trkpt lat="45.79155" lon="4.73337">
        <ele>307.26895</ele>
        <time>2023-07-02T15:25:23.000Z</time>
      </trkpt>
      <trkpt lat="45.79153" lon="4.73338">
        <ele>307.09299</ele>
        <time>2023-07-02T15:25:24.000Z</time>
      </trkpt>
      <trkpt lat="45.7915" lon="4.73338">
        <ele>306.86163</ele>
        <time>2023-07-02T15:25:26.000Z</time>
      </trkpt>
      <trkpt lat="45.79147" lon="4.73338">
        <ele>306.65848</ele>
        <time>2023-07-02T15:25:28.000Z</time>
      </trkpt>
      <trkpt lat="45.79145" lon="4.73337">
        <ele>306.37537</ele>
        <time>2023-07-02T15:25:30.000Z</time>
      </trkpt>
      <trkpt lat="45.79143" lon="4.73336">
        <ele>306.12698</ele>
        <time>2023-07-02T15:25:32.000Z</time>
      </trkpt>
      <trkpt lat="45.79141" lon="4.73332">
        <ele>305.8378</ele>
        <time>2023-07-02T15:25:34.000Z</time>
      </trkpt>
      <trkpt lat="45.7914" lon="4.73329">
        <ele>305.51825</ele>
        <time>2023-07-02T15:25:36.000Z</time>
      </trkpt>
      <trkpt lat="45.79138" lon="4.73325">
        <ele>305.19086</ele>
        <time>2023-07-02T15:25:38.000Z</time>
      </trkpt>
      <trkpt lat="45.79134" lon="4.73323">
        <ele>304.85754</ele>
        <time>2023-07-02T15:25:40.000Z</time>
      </trkpt>
      <trkpt lat="45.79132" lon="4.73323">
        <ele>304.48914</ele>
        <time>2023-07-02T15:25:41.000Z</time>
      </trkpt>
      <trkpt lat="45.7913" lon="4.73322">
        <ele>304.16992</ele>
        <time>2023-07-02T15:25:42.000Z</time>
      </trkpt>
      <trkpt lat="45.79127" lon="4.73322">
        <ele>303.89575</ele>
        <time>2023-07-02T15:25:43.000Z</time>
      </trkpt>
      <trkpt lat="45.79125" lon="4.73322">
        <ele>303.67383</ele>
        <time>2023-07-02T15:25:44.000Z</time>
      </trkpt>
      <trkpt lat="45.79122" lon="4.73323">
        <ele>303.48199</ele>
        <time>2023-07-02T15:25:45.000Z</time>
      </trkpt>
      <trkpt lat="45.79119" lon="4.73324">
        <ele>303.34225</ele>
        <time>2023-07-02T15:25:46.000Z</time>
      </trkpt>
      <trkpt lat="45.79116" lon="4.73325">
        <ele>303.25333</ele>
        <time>2023-07-02T15:25:47.000Z</time>
      </trkpt>
      <trkpt lat="45.79113" lon="4.73326">
        <ele>303.17825</ele>
        <time>2023-07-02T15:25:48.000Z</time>
      </trkpt>
      <trkpt lat="45.79111" lon="4.73327">
        <ele>303.06372</ele>
        <time>2023-07-02T15:25:49.000Z</time>
      </trkpt>
      <trkpt lat="45.79108" lon="4.73328">
        <ele>302.9646</ele>
        <time>2023-07-02T15:25:50.000Z</time>
      </trkpt>
      <trkpt lat="45.79106" lon="4.73329">
        <ele>302.8808</ele>
        <time>2023-07-02T15:25:51.000Z</time>
      </trkpt>
      <trkpt lat="45.79103" lon="4.73329">
        <ele>302.79749</ele>
        <time>2023-07-02T15:25:52.000Z</time>
      </trkpt>
      <trkpt lat="45.791" lon="4.73329">
        <ele>302.72672</ele>
        <time>2023-07-02T15:25:53.000Z</time>
      </trkpt>
      <trkpt lat="45.79098" lon="4.73328">
        <ele>302.6402</ele>
        <time>2023-07-02T15:25:54.000Z</time>
      </trkpt>
      <trkpt lat="45.79095" lon="4.73327">
        <ele>302.56552</ele>
        <time>2023-07-02T15:25:55.000Z</time>
      </trkpt>
      <trkpt lat="45.79091" lon="4.73326">
        <ele>302.48367</ele>
        <time>2023-07-02T15:25:56.000Z</time>
      </trkpt>
      <trkpt lat="45.79088" lon="4.73325">
        <ele>302.45117</ele>
        <time>2023-07-02T15:25:57.000Z</time>
      </trkpt>
      <trkpt lat="45.79085" lon="4.73323">
        <ele>302.49899</ele>
        <time>2023-07-02T15:25:58.000Z</time>
      </trkpt>
      <trkpt lat="45.79082" lon="4.73321">
        <ele>302.50143</ele>
        <time>2023-07-02T15:25:59.000Z</time>
      </trkpt>
      <trkpt lat="45.79079" lon="4.73319">
        <ele>302.45834</ele>
        <time>2023-07-02T15:26:00.000Z</time>
      </trkpt>
      <trkpt lat="45.79076" lon="4.73317">
        <ele>302.43433</ele>
        <time>2023-07-02T15:26:01.000Z</time>
      </trkpt>
      <trkpt lat="45.79073" lon="4.73316">
        <ele>302.35669</ele>
        <time>2023-07-02T15:26:02.000Z</time>
      </trkpt>
      <trkpt lat="45.7907" lon="4.73314">
        <ele>302.30182</ele>
        <time>2023-07-02T15:26:03.000Z</time>
      </trkpt>
      <trkpt lat="45.79067" lon="4.73313">
        <ele>302.23895</ele>
        <time>2023-07-02T15:26:04.000Z</time>
      </trkpt>
      <trkpt lat="45.79063" lon="4.73313">
        <ele>302.17764</ele>
        <time>2023-07-02T15:26:05.000Z</time>
      </trkpt>
      <trkpt lat="45.7906" lon="4.73313">
        <ele>302.03488</ele>
        <time>2023-07-02T15:26:06.000Z</time>
      </trkpt>
      <trkpt lat="45.79057" lon="4.73313">
        <ele>301.87982</ele>
        <time>2023-07-02T15:26:07.000Z</time>
      </trkpt>
      <trkpt lat="45.79054" lon="4.73313">
        <ele>301.7243</ele>
        <time>2023-07-02T15:26:08.000Z</time>
      </trkpt>
      <trkpt lat="45.79052" lon="4.73313">
        <ele>301.62921</ele>
        <time>2023-07-02T15:26:09.000Z</time>
      </trkpt>
      <trkpt lat="45.79049" lon="4.73313">
        <ele>301.53046</ele>
        <time>2023-07-02T15:26:10.000Z</time>
      </trkpt>
      <trkpt lat="45.79046" lon="4.73314">
        <ele>301.43246</ele>
        <time>2023-07-02T15:26:11.000Z</time>
      </trkpt>
      <trkpt lat="45.79043" lon="4.73314">
        <ele>301.29584</ele>
        <time>2023-07-02T15:26:12.000Z</time>
      </trkpt>
      <trkpt lat="45.79039" lon="4.73314">
        <ele>301.15225</ele>
        <time>2023-07-02T15:26:13.000Z</time>
      </trkpt>
      <trkpt lat="45.79036" lon="4.73314">
        <ele>301.04349</ele>
        <time>2023-07-02T15:26:14.000Z</time>
      </trkpt>
      <trkpt lat="45.79033" lon="4.73314">
        <ele>300.98303</ele>
        <time>2023-07-02T15:26:15.000Z</time>
      </trkpt>
      <trkpt lat="45.79029" lon="4.73314">
        <ele>300.92896</ele>
        <time>2023-07-02T15:26:16.000Z</time>
      </trkpt>
      <trkpt lat="45.79026" lon="4.73314">
        <ele>300.86591</ele>
        <time>2023-07-02T15:26:17.000Z</time>
      </trkpt>
      <trkpt lat="45.79023" lon="4.73314">
        <ele>300.77365</ele>
        <time>2023-07-02T15:26:18.000Z</time>
      </trkpt>
      <trkpt lat="45.79019" lon="4.73313">
        <ele>300.69733</ele>
        <time>2023-07-02T15:26:19.000Z</time>
      </trkpt>
      <trkpt lat="45.79016" lon="4.73312">
        <ele>300.62921</ele>
        <time>2023-07-02T15:26:20.000Z</time>
      </trkpt>
      <trkpt lat="45.79013" lon="4.7331">
        <ele>300.60733</ele>
        <time>2023-07-02T15:26:21.000Z</time>
      </trkpt>
      <trkpt lat="45.7901" lon="4.73308">
        <ele>300.60049</ele>
        <time>2023-07-02T15:26:22.000Z</time>
      </trkpt>
      <trkpt lat="45.79007" lon="4.73307">
        <ele>300.60144</ele>
        <time>2023-07-02T15:26:23.000Z</time>
      </trkpt>
      <trkpt lat="45.79005" lon="4.73305">
        <ele>300.5817</ele>
        <time>2023-07-02T15:26:24.000Z</time>
      </trkpt>
      <trkpt lat="45.79002" lon="4.73304">
        <ele>300.51797</ele>
        <time>2023-07-02T15:26:25.000Z</time>
      </trkpt>
      <trkpt lat="45.78999" lon="4.73302">
        <ele>300.52167</ele>
        <time>2023-07-02T15:26:26.000Z</time>
      </trkpt>
      <trkpt lat="45.78997" lon="4.73299">
        <ele>300.54495</ele>
        <time>2023-07-02T15:26:27.000Z</time>
      </trkpt>
      <trkpt lat="45.78995" lon="4.73296">
        <ele>300.58795</ele>
        <time>2023-07-02T15:26:28.000Z</time>
      </trkpt>
      <trkpt lat="45.78993" lon="4.73292">
        <ele>300.56531</ele>
        <time>2023-07-02T15:26:29.000Z</time>
      </trkpt>
      <trkpt lat="45.78991" lon="4.7329">
        <ele>300.52631</ele>
        <time>2023-07-02T15:26:30.000Z</time>
      </trkpt>
      <trkpt lat="45.78988" lon="4.73288">
        <ele>300.461</ele>
        <time>2023-07-02T15:26:31.000Z</time>
      </trkpt>
      <trkpt lat="45.78985" lon="4.73287">
        <ele>300.45209</ele>
        <time>2023-07-02T15:26:32.000Z</time>
      </trkpt>
      <trkpt lat="45.78982" lon="4.73287">
        <ele>300.46091</ele>
        <time>2023-07-02T15:26:33.000Z</time>
      </trkpt>
      <trkpt lat="45.78979" lon="4.73286">
        <ele>300.49796</ele>
        <time>2023-07-02T15:26:34.000Z</time>
      </trkpt>
      <trkpt lat="45.78976" lon="4.73285">
        <ele>300.52448</ele>
        <time>2023-07-02T15:26:35.000Z</time>
      </trkpt>
      <trkpt lat="45.78973" lon="4.73284">
        <ele>300.53427</ele>
        <time>2023-07-02T15:26:36.000Z</time>
      </trkpt>
      <trkpt lat="45.7897" lon="4.73284">
        <ele>300.53189</ele>
        <time>2023-07-02T15:26:37.000Z</time>
      </trkpt>
      <trkpt lat="45.78967" lon="4.73283">
        <ele>300.4855</ele>
        <time>2023-07-02T15:26:38.000Z</time>
      </trkpt>
      <trkpt lat="45.78964" lon="4.73282">
        <ele>300.44116</ele>
        <time>2023-07-02T15:26:39.000Z</time>
      </trkpt>
      <trkpt lat="45.78961" lon="4.73282">
        <ele>300.46735</ele>
        <time>2023-07-02T15:26:40.000Z</time>
      </trkpt>
      <trkpt lat="45.78958" lon="4.73281">
        <ele>300.44687</ele>
        <time>2023-07-02T15:26:41.000Z</time>
      </trkpt>
      <trkpt lat="45.78955" lon="4.73278">
        <ele>300.41159</ele>
        <time>2023-07-02T15:26:42.000Z</time>
      </trkpt>
      <trkpt lat="45.78952" lon="4.73276">
        <ele>300.3884</ele>
        <time>2023-07-02T15:26:43.000Z</time>
      </trkpt>
      <trkpt lat="45.7895" lon="4.73274">
        <ele>300.35214</ele>
        <time>2023-07-02T15:26:44.000Z</time>
      </trkpt>
      <trkpt lat="45.78947" lon="4.73272">
        <ele>300.33362</ele>
        <time>2023-07-02T15:26:45.000Z</time>
      </trkpt>
      <trkpt lat="45.78944" lon="4.73271">
        <ele>300.29242</ele>
        <time>2023-07-02T15:26:46.000Z</time>
      </trkpt>
      <trkpt lat="45.78942" lon="4.73269">
        <ele>300.23419</ele>
        <time>2023-07-02T15:26:47.000Z</time>
      </trkpt>
      <trkpt lat="45.7894" lon="4.73269">
        <ele>300.19482</ele>
        <time>2023-07-02T15:26:48.000Z</time>
      </trkpt>
      <trkpt lat="45.78938" lon="4.73268">
        <ele>300.17902</ele>
        <time>2023-07-02T15:26:49.000Z</time>
      </trkpt>
      <trkpt lat="45.78935" lon="4.73268">
        <ele>300.19965</ele>
        <time>2023-07-02T15:26:50.000Z</time>
      </trkpt>
      <trkpt lat="45.78933" lon="4.73268">
        <ele>300.17395</ele>
        <time>2023-07-02T15:26:51.000Z</time>
      </trkpt>
      <trkpt lat="45.7893" lon="4.73268">
        <ele>300.10281</ele>
        <time>2023-07-02T15:26:52.000Z</time>
      </trkpt>
      <trkpt lat="45.78928" lon="4.73268">
        <ele>300.03384</ele>
        <time>2023-07-02T15:26:53.000Z</time>
      </trkpt>
      <trkpt lat="45.78925" lon="4.73268">
        <ele>299.93515</ele>
        <time>2023-07-02T15:26:54.000Z</time>
      </trkpt>
      <trkpt lat="45.78922" lon="4.73267">
        <ele>299.83688</ele>
        <time>2023-07-02T15:26:55.000Z</time>
      </trkpt>
      <trkpt lat="45.78919" lon="4.73267">
        <ele>299.76514</ele>
        <time>2023-07-02T15:26:56.000Z</time>
      </trkpt>
      <trkpt lat="45.78917" lon="4.73266">
        <ele>299.67328</ele>
        <time>2023-07-02T15:26:57.000Z</time>
      </trkpt>
      <trkpt lat="45.78914" lon="4.73265">
        <ele>299.55771</ele>
        <time>2023-07-02T15:26:58.000Z</time>
      </trkpt>
      <trkpt lat="45.78912" lon="4.73264">
        <ele>299.44943</ele>
        <time>2023-07-02T15:26:59.000Z</time>
      </trkpt>
      <trkpt lat="45.78909" lon="4.73263">
        <ele>299.32486</ele>
        <time>2023-07-02T15:27:00.000Z</time>
      </trkpt>
      <trkpt lat="45.78906" lon="4.73262">
        <ele>299.20441</ele>
        <time>2023-07-02T15:27:01.000Z</time>
      </trkpt>
      <trkpt lat="45.78904" lon="4.73261">
        <ele>299.13046</ele>
        <time>2023-07-02T15:27:02.000Z</time>
      </trkpt>
      <trkpt lat="45.78902" lon="4.7326">
        <ele>299.03003</ele>
        <time>2023-07-02T15:27:03.000Z</time>
      </trkpt>
      <trkpt lat="45.78899" lon="4.73259">
        <ele>298.95944</ele>
        <time>2023-07-02T15:27:04.000Z</time>
      </trkpt>
      <trkpt lat="45.78897" lon="4.73258">
        <ele>298.88385</ele>
        <time>2023-07-02T15:27:05.000Z</time>
      </trkpt>
      <trkpt lat="45.78895" lon="4.73257">
        <ele>298.83429</ele>
        <time>2023-07-02T15:27:06.000Z</time>
      </trkpt>
      <trkpt lat="45.78893" lon="4.73256">
        <ele>298.80231</ele>
        <time>2023-07-02T15:27:07.000Z</time>
      </trkpt>
      <trkpt lat="45.7889" lon="4.73255">
        <ele>298.74307</ele>
        <time>2023-07-02T15:27:08.000Z</time>
      </trkpt>
      <trkpt lat="45.78888" lon="4.73254">
        <ele>298.65265</ele>
        <time>2023-07-02T15:27:09.000Z</time>
      </trkpt>
      <trkpt lat="45.78885" lon="4.73253">
        <ele>298.56696</ele>
        <time>2023-07-02T15:27:10.000Z</time>
      </trkpt>
      <trkpt lat="45.78883" lon="4.73254">
        <ele>298.54153</ele>
        <time>2023-07-02T15:27:11.000Z</time>
      </trkpt>
      <trkpt lat="45.78881" lon="4.73254">
        <ele>298.51385</ele>
        <time>2023-07-02T15:27:12.000Z</time>
      </trkpt>
      <trkpt lat="45.78878" lon="4.73254">
        <ele>298.46732</ele>
        <time>2023-07-02T15:27:13.000Z</time>
      </trkpt>
      <trkpt lat="45.78876" lon="4.73254">
        <ele>298.4162</ele>
        <time>2023-07-02T15:27:14.000Z</time>
      </trkpt>
      <trkpt lat="45.78875" lon="4.73253">
        <ele>298.35254</ele>
        <time>2023-07-02T15:27:15.000Z</time>
      </trkpt>
      <trkpt lat="45.78873" lon="4.73253">
        <ele>298.13263</ele>
        <time>2023-07-02T15:27:16.000Z</time>
      </trkpt>
      <trkpt lat="45.7887" lon="4.73253">
        <ele>297.94296</ele>
        <time>2023-07-02T15:27:18.000Z</time>
      </trkpt>
      <trkpt lat="45.78867" lon="4.73253">
        <ele>297.85596</ele>
        <time>2023-07-02T15:27:20.000Z</time>
      </trkpt>
      <trkpt lat="45.78864" lon="4.73254">
        <ele>297.72589</ele>
        <time>2023-07-02T15:27:35.000Z</time>
      </trkpt>
      <trkpt lat="45.78862" lon="4.73255">
        <ele>297.62006</ele>
        <time>2023-07-02T15:27:36.000Z</time>
      </trkpt>
      <trkpt lat="45.7886" lon="4.73255">
        <ele>297.55203</ele>
        <time>2023-07-02T15:27:37.000Z</time>
      </trkpt>
      <trkpt lat="45.78858" lon="4.73255">
        <ele>297.45901</ele>
        <time>2023-07-02T15:27:38.000Z</time>
      </trkpt>
      <trkpt lat="45.78855" lon="4.73256">
        <ele>297.40747</ele>
        <time>2023-07-02T15:27:39.000Z</time>
      </trkpt>
      <trkpt lat="45.78854" lon="4.73257">
        <ele>297.34702</ele>
        <time>2023-07-02T15:27:40.000Z</time>
      </trkpt>
      <trkpt lat="45.78852" lon="4.73258">
        <ele>297.2963</ele>
        <time>2023-07-02T15:27:41.000Z</time>
      </trkpt>
      <trkpt lat="45.7885" lon="4.7326">
        <ele>297.25323</ele>
        <time>2023-07-02T15:27:42.000Z</time>
      </trkpt>
      <trkpt lat="45.78847" lon="4.73261">
        <ele>297.19522</ele>
        <time>2023-07-02T15:27:43.000Z</time>
      </trkpt>
      <trkpt lat="45.78844" lon="4.73262">
        <ele>297.14645</ele>
        <time>2023-07-02T15:27:44.000Z</time>
      </trkpt>
      <trkpt lat="45.78842" lon="4.73261">
        <ele>297.15265</ele>
        <time>2023-07-02T15:27:45.000Z</time>
      </trkpt>
      <trkpt lat="45.7884" lon="4.73261">
        <ele>297.14694</ele>
        <time>2023-07-02T15:27:46.000Z</time>
      </trkpt>
      <trkpt lat="45.78838" lon="4.7326">
        <ele>297.1192</ele>
        <time>2023-07-02T15:27:47.000Z</time>
      </trkpt>
      <trkpt lat="45.78836" lon="4.73259">
        <ele>297.11838</ele>
        <time>2023-07-02T15:27:48.000Z</time>
      </trkpt>
      <trkpt lat="45.78834" lon="4.73257">
        <ele>297.12213</ele>
        <time>2023-07-02T15:27:49.000Z</time>
      </trkpt>
      <trkpt lat="45.78832" lon="4.73255">
        <ele>297.12457</ele>
        <time>2023-07-02T15:27:50.000Z</time>
      </trkpt>
      <trkpt lat="45.7883" lon="4.73253">
        <ele>297.13129</ele>
        <time>2023-07-02T15:27:51.000Z</time>
      </trkpt>
      <trkpt lat="45.78827" lon="4.73252">
        <ele>297.26706</ele>
        <time>2023-07-02T15:27:52.000Z</time>
      </trkpt>
      <trkpt lat="45.78825" lon="4.73251">
        <ele>297.42813</ele>
        <time>2023-07-02T15:27:53.000Z</time>
      </trkpt>
      <trkpt lat="45.78822" lon="4.73251">
        <ele>297.57581</ele>
        <time>2023-07-02T15:27:54.000Z</time>
      </trkpt>
      <trkpt lat="45.7882" lon="4.73252">
        <ele>297.7438</ele>
        <time>2023-07-02T15:27:55.000Z</time>
      </trkpt>
      <trkpt lat="45.78817" lon="4.73253">
        <ele>297.91998</ele>
        <time>2023-07-02T15:27:56.000Z</time>
      </trkpt>
      <trkpt lat="45.78814" lon="4.73253">
        <ele>298.06979</ele>
        <time>2023-07-02T15:27:57.000Z</time>
      </trkpt>
      <trkpt lat="45.78812" lon="4.73253">
        <ele>298.2413</ele>
        <time>2023-07-02T15:27:58.000Z</time>
      </trkpt>
      <trkpt lat="45.78809" lon="4.73252">
        <ele>298.38474</ele>
        <time>2023-07-02T15:27:59.000Z</time>
      </trkpt>
      <trkpt lat="45.78806" lon="4.73252">
        <ele>298.51086</ele>
        <time>2023-07-02T15:28:00.000Z</time>
      </trkpt>
      <trkpt lat="45.78803" lon="4.73251">
        <ele>298.64423</ele>
        <time>2023-07-02T15:28:01.000Z</time>
      </trkpt>
      <trkpt lat="45.78801" lon="4.73249">
        <ele>298.77695</ele>
        <time>2023-07-02T15:28:02.000Z</time>
      </trkpt>
      <trkpt lat="45.78798" lon="4.73247">
        <ele>298.88074</ele>
        <time>2023-07-02T15:28:03.000Z</time>
      </trkpt>
      <trkpt lat="45.78795" lon="4.73246">
        <ele>298.97131</ele>
        <time>2023-07-02T15:28:04.000Z</time>
      </trkpt>
      <trkpt lat="45.78792" lon="4.73246">
        <ele>299.03284</ele>
        <time>2023-07-02T15:28:05.000Z</time>
      </trkpt>
      <trkpt lat="45.78788" lon="4.73245">
        <ele>299.10931</ele>
        <time>2023-07-02T15:28:06.000Z</time>
      </trkpt>
      <trkpt lat="45.78786" lon="4.73245">
        <ele>299.17999</ele>
        <time>2023-07-02T15:28:07.000Z</time>
      </trkpt>
      <trkpt lat="45.78783" lon="4.73245">
        <ele>299.20636</ele>
        <time>2023-07-02T15:28:08.000Z</time>
      </trkpt>
      <trkpt lat="45.7878" lon="4.73245">
        <ele>299.21082</ele>
        <time>2023-07-02T15:28:09.000Z</time>
      </trkpt>
      <trkpt lat="45.78777" lon="4.73245">
        <ele>299.23077</ele>
        <time>2023-07-02T15:28:10.000Z</time>
      </trkpt>
      <trkpt lat="45.78774" lon="4.73245">
        <ele>299.26428</ele>
        <time>2023-07-02T15:28:11.000Z</time>
      </trkpt>
      <trkpt lat="45.78771" lon="4.73245">
        <ele>299.30621</ele>
        <time>2023-07-02T15:28:12.000Z</time>
      </trkpt>
      <trkpt lat="45.78769" lon="4.73245">
        <ele>299.33051</ele>
        <time>2023-07-02T15:28:13.000Z</time>
      </trkpt>
      <trkpt lat="45.78766" lon="4.73244">
        <ele>299.3382</ele>
        <time>2023-07-02T15:28:14.000Z</time>
      </trkpt>
      <trkpt lat="45.78763" lon="4.73244">
        <ele>299.35361</ele>
        <time>2023-07-02T15:28:15.000Z</time>
      </trkpt>
      <trkpt lat="45.7876" lon="4.73244">
        <ele>299.35883</ele>
        <time>2023-07-02T15:28:16.000Z</time>
      </trkpt>
      <trkpt lat="45.78758" lon="4.73244">
        <ele>299.33987</ele>
        <time>2023-07-02T15:28:17.000Z</time>
      </trkpt>
      <trkpt lat="45.78755" lon="4.73244">
        <ele>299.29639</ele>
        <time>2023-07-02T15:28:18.000Z</time>
      </trkpt>
      <trkpt lat="45.78752" lon="4.73245">
        <ele>299.19315</ele>
        <time>2023-07-02T15:28:19.000Z</time>
      </trkpt>
      <trkpt lat="45.78749" lon="4.73245">
        <ele>299.1124</ele>
        <time>2023-07-02T15:28:20.000Z</time>
      </trkpt>
      <trkpt lat="45.78746" lon="4.73246">
        <ele>299.035</ele>
        <time>2023-07-02T15:28:21.000Z</time>
      </trkpt>
      <trkpt lat="45.78743" lon="4.73246">
        <ele>299.00464</ele>
        <time>2023-07-02T15:28:22.000Z</time>
      </trkpt>
      <trkpt lat="45.7874" lon="4.73246">
        <ele>299.01407</ele>
        <time>2023-07-02T15:28:23.000Z</time>
      </trkpt>
      <trkpt lat="45.78737" lon="4.73246">
        <ele>298.96857</ele>
        <time>2023-07-02T15:28:24.000Z</time>
      </trkpt>
      <trkpt lat="45.78734" lon="4.73247">
        <ele>298.94733</ele>
        <time>2023-07-02T15:28:25.000Z</time>
      </trkpt>
      <trkpt lat="45.78731" lon="4.73249">
        <ele>298.9213</ele>
        <time>2023-07-02T15:28:26.000Z</time>
      </trkpt>
      <trkpt lat="45.78728" lon="4.7325">
        <ele>298.89471</ele>
        <time>2023-07-02T15:28:27.000Z</time>
      </trkpt>
      <trkpt lat="45.78725" lon="4.73251">
        <ele>298.91074</ele>
        <time>2023-07-02T15:28:28.000Z</time>
      </trkpt>
      <trkpt lat="45.78722" lon="4.73252">
        <ele>298.92416</ele>
        <time>2023-07-02T15:28:29.000Z</time>
      </trkpt>
      <trkpt lat="45.7872" lon="4.73253">
        <ele>298.96671</ele>
        <time>2023-07-02T15:28:30.000Z</time>
      </trkpt>
      <trkpt lat="45.78717" lon="4.73255">
        <ele>298.98645</ele>
        <time>2023-07-02T15:28:31.000Z</time>
      </trkpt>
      <trkpt lat="45.78714" lon="4.73258">
        <ele>298.99658</ele>
        <time>2023-07-02T15:28:32.000Z</time>
      </trkpt>
      <trkpt lat="45.78711" lon="4.7326">
        <ele>298.98553</ele>
        <time>2023-07-02T15:28:33.000Z</time>
      </trkpt>
      <trkpt lat="45.78709" lon="4.73263">
        <ele>298.97958</ele>
        <time>2023-07-02T15:28:34.000Z</time>
      </trkpt>
      <trkpt lat="45.78707" lon="4.73267">
        <ele>299.00351</ele>
        <time>2023-07-02T15:28:35.000Z</time>
      </trkpt>
      <trkpt lat="45.78708" lon="4.7327">
        <ele>299.00992</ele>
        <time>2023-07-02T15:28:36.000Z</time>
      </trkpt>
      <trkpt lat="45.7871" lon="4.73271">
        <ele>299.03149</ele>
        <time>2023-07-02T15:28:37.000Z</time>
      </trkpt>
      <trkpt lat="45.78713" lon="4.7327">
        <ele>299.05951</ele>
        <time>2023-07-02T15:28:38.000Z</time>
      </trkpt>
      <trkpt lat="45.78715" lon="4.73268">
        <ele>299.1676</ele>
        <time>2023-07-02T15:28:39.000Z</time>
      </trkpt>
      <trkpt lat="45.78717" lon="4.73266">
        <ele>299.26157</ele>
        <time>2023-07-02T15:28:40.000Z</time>
      </trkpt>
      <trkpt lat="45.7872" lon="4.73263">
        <ele>299.35773</ele>
        <time>2023-07-02T15:28:41.000Z</time>
      </trkpt>
      <trkpt lat="45.78723" lon="4.73261">
        <ele>299.41113</ele>
        <time>2023-07-02T15:28:42.000Z</time>
      </trkpt>
      <trkpt lat="45.78725" lon="4.73259">
        <ele>299.46719</ele>
        <time>2023-07-02T15:28:43.000Z</time>
      </trkpt>
      <trkpt lat="45.78728" lon="4.73257">
        <ele>299.5643</ele>
        <time>2023-07-02T15:28:44.000Z</time>
      </trkpt>
      <trkpt lat="45.7873" lon="4.73256">
        <ele>299.64307</ele>
        <time>2023-07-02T15:28:45.000Z</time>
      </trkpt>
      <trkpt lat="45.78733" lon="4.73255">
        <ele>299.68539</ele>
        <time>2023-07-02T15:28:46.000Z</time>
      </trkpt>
      <trkpt lat="45.78736" lon="4.73254">
        <ele>299.72272</ele>
        <time>2023-07-02T15:28:47.000Z</time>
      </trkpt>
      <trkpt lat="45.78738" lon="4.73254">
        <ele>299.73431</ele>
        <time>2023-07-02T15:28:48.000Z</time>
      </trkpt>
      <trkpt lat="45.78741" lon="4.73254">
        <ele>299.73557</ele>
        <time>2023-07-02T15:28:49.000Z</time>
      </trkpt>
      <trkpt lat="45.78743" lon="4.73255">
        <ele>299.70844</ele>
        <time>2023-07-02T15:28:50.000Z</time>
      </trkpt>
      <trkpt lat="45.78746" lon="4.73255">
        <ele>299.69446</ele>
        <time>2023-07-02T15:28:51.000Z</time>
      </trkpt>
      <trkpt lat="45.78749" lon="4.73255">
        <ele>299.66772</ele>
        <time>2023-07-02T15:28:52.000Z</time>
      </trkpt>
      <trkpt lat="45.78752" lon="4.73255">
        <ele>299.64664</ele>
        <time>2023-07-02T15:28:53.000Z</time>
      </trkpt>
      <trkpt lat="45.78755" lon="4.73256">
        <ele>299.63165</ele>
        <time>2023-07-02T15:28:54.000Z</time>
      </trkpt>
      <trkpt lat="45.78758" lon="4.73257">
        <ele>299.56097</ele>
        <time>2023-07-02T15:28:55.000Z</time>
      </trkpt>
      <trkpt lat="45.78761" lon="4.73257">
        <ele>299.52078</ele>
        <time>2023-07-02T15:28:56.000Z</time>
      </trkpt>
      <trkpt lat="45.78764" lon="4.73258">
        <ele>299.45297</ele>
        <time>2023-07-02T15:28:57.000Z</time>
      </trkpt>
      <trkpt lat="45.78767" lon="4.73259">
        <ele>299.37665</ele>
        <time>2023-07-02T15:28:58.000Z</time>
      </trkpt>
      <trkpt lat="45.78769" lon="4.73259">
        <ele>299.27158</ele>
        <time>2023-07-02T15:28:59.000Z</time>
      </trkpt>
      <trkpt lat="45.78771" lon="4.7326">
        <ele>299.18671</ele>
        <time>2023-07-02T15:29:00.000Z</time>
      </trkpt>
      <trkpt lat="45.78774" lon="4.73261">
        <ele>299.07547</ele>
        <time>2023-07-02T15:29:01.000Z</time>
      </trkpt>
      <trkpt lat="45.78776" lon="4.73262">
        <ele>298.94904</ele>
        <time>2023-07-02T15:29:02.000Z</time>
      </trkpt>
      <trkpt lat="45.78779" lon="4.73263">
        <ele>298.82819</ele>
        <time>2023-07-02T15:29:03.000Z</time>
      </trkpt>
      <trkpt lat="45.78782" lon="4.73265">
        <ele>298.72177</ele>
        <time>2023-07-02T15:29:04.000Z</time>
      </trkpt>
      <trkpt lat="45.78785" lon="4.73267">
        <ele>298.61456</ele>
        <time>2023-07-02T15:29:05.000Z</time>
      </trkpt>
      <trkpt lat="45.78788" lon="4.73269">
        <ele>298.54175</ele>
        <time>2023-07-02T15:29:06.000Z</time>
      </trkpt>
      <trkpt lat="45.78791" lon="4.73271">
        <ele>298.48627</ele>
        <time>2023-07-02T15:29:07.000Z</time>
      </trkpt>
      <trkpt lat="45.78794" lon="4.73272">
        <ele>298.46277</ele>
        <time>2023-07-02T15:29:08.000Z</time>
      </trkpt>
      <trkpt lat="45.78797" lon="4.73273">
        <ele>298.48837</ele>
        <time>2023-07-02T15:29:09.000Z</time>
      </trkpt>
      <trkpt lat="45.788" lon="4.73274">
        <ele>298.50388</ele>
        <time>2023-07-02T15:29:10.000Z</time>
      </trkpt>
      <trkpt lat="45.78803" lon="4.73276">
        <ele>298.46716</ele>
        <time>2023-07-02T15:29:11.000Z</time>
      </trkpt>
      <trkpt lat="45.78806" lon="4.73277">
        <ele>298.43329</ele>
        <time>2023-07-02T15:29:12.000Z</time>
      </trkpt>
      <trkpt lat="45.78809" lon="4.73278">
        <ele>298.43732</ele>
        <time>2023-07-02T15:29:13.000Z</time>
      </trkpt>
      <trkpt lat="45.78812" lon="4.73279">
        <ele>298.46667</ele>
        <time>2023-07-02T15:29:14.000Z</time>
      </trkpt>
      <trkpt lat="45.78815" lon="4.7328">
        <ele>298.54843</ele>
        <time>2023-07-02T15:29:15.000Z</time>
      </trkpt>
      <trkpt lat="45.78818" lon="4.73281">
        <ele>298.61847</ele>
        <time>2023-07-02T15:29:16.000Z</time>
      </trkpt>
      <trkpt lat="45.78821" lon="4.73282">
        <ele>298.71042</ele>
        <time>2023-07-02T15:29:17.000Z</time>
      </trkpt>
      <trkpt lat="45.78824" lon="4.73284">
        <ele>298.78473</ele>
        <time>2023-07-02T15:29:18.000Z</time>
      </trkpt>
      <trkpt lat="45.78826" lon="4.73286">
        <ele>298.86624</ele>
        <time>2023-07-02T15:29:19.000Z</time>
      </trkpt>
      <trkpt lat="45.78829" lon="4.73288">
        <ele>298.9516</ele>
        <time>2023-07-02T15:29:20.000Z</time>
      </trkpt>
      <trkpt lat="45.78831" lon="4.7329">
        <ele>299.04962</ele>
        <time>2023-07-02T15:29:21.000Z</time>
      </trkpt>
      <trkpt lat="45.78834" lon="4.73292">
        <ele>299.13159</ele>
        <time>2023-07-02T15:29:22.000Z</time>
      </trkpt>
      <trkpt lat="45.78836" lon="4.73294">
        <ele>299.21271</ele>
        <time>2023-07-02T15:29:23.000Z</time>
      </trkpt>
      <trkpt lat="45.78839" lon="4.73296">
        <ele>299.28445</ele>
        <time>2023-07-02T15:29:24.000Z</time>
      </trkpt>
      <trkpt lat="45.78842" lon="4.73298">
        <ele>299.37372</ele>
        <time>2023-07-02T15:29:25.000Z</time>
      </trkpt>
      <trkpt lat="45.78844" lon="4.733">
        <ele>299.50925</ele>
        <time>2023-07-02T15:29:26.000Z</time>
      </trkpt>
      <trkpt lat="45.78847" lon="4.73301">
        <ele>299.65204</ele>
        <time>2023-07-02T15:29:27.000Z</time>
      </trkpt>
      <trkpt lat="45.78849" lon="4.73302">
        <ele>299.76532</ele>
        <time>2023-07-02T15:29:28.000Z</time>
      </trkpt>
      <trkpt lat="45.78851" lon="4.73303">
        <ele>299.87274</ele>
        <time>2023-07-02T15:29:29.000Z</time>
      </trkpt>
      <trkpt lat="45.78853" lon="4.73304">
        <ele>299.96933</ele>
        <time>2023-07-02T15:29:30.000Z</time>
      </trkpt>
      <trkpt lat="45.78855" lon="4.73305">
        <ele>300.12766</ele>
        <time>2023-07-02T15:29:31.000Z</time>
      </trkpt>
      <trkpt lat="45.78857" lon="4.73307">
        <ele>300.3476</ele>
        <time>2023-07-02T15:29:32.000Z</time>
      </trkpt>
      <trkpt lat="45.78859" lon="4.73308">
        <ele>300.52499</ele>
        <time>2023-07-02T15:29:33.000Z</time>
      </trkpt>
      <trkpt lat="45.78863" lon="4.7331">
        <ele>300.68167</ele>
        <time>2023-07-02T15:29:35.000Z</time>
      </trkpt>
      <trkpt lat="45.78865" lon="4.73312">
        <ele>300.84027</ele>
        <time>2023-07-02T15:29:36.000Z</time>
      </trkpt>
      <trkpt lat="45.78868" lon="4.73313">
        <ele>301.01715</ele>
        <time>2023-07-02T15:29:37.000Z</time>
      </trkpt>
      <trkpt lat="45.7887" lon="4.73314">
        <ele>301.18082</ele>
        <time>2023-07-02T15:29:38.000Z</time>
      </trkpt>
      <trkpt lat="45.78872" lon="4.73315">
        <ele>301.3609</ele>
        <time>2023-07-02T15:29:39.000Z</time>
      </trkpt>
      <trkpt lat="45.78874" lon="4.73316">
        <ele>301.52792</ele>
        <time>2023-07-02T15:29:40.000Z</time>
      </trkpt>
      <trkpt lat="45.78877" lon="4.73318">
        <ele>301.68082</ele>
        <time>2023-07-02T15:29:41.000Z</time>
      </trkpt>
      <trkpt lat="45.78879" lon="4.7332">
        <ele>301.89099</ele>
        <time>2023-07-02T15:29:42.000Z</time>
      </trkpt>
      <trkpt lat="45.78882" lon="4.73322">
        <ele>302.13892</ele>
        <time>2023-07-02T15:29:43.000Z</time>
      </trkpt>
      <trkpt lat="45.78884" lon="4.73323">
        <ele>302.36444</ele>
        <time>2023-07-02T15:29:44.000Z</time>
      </trkpt>
      <trkpt lat="45.78886" lon="4.73325">
        <ele>302.63806</ele>
        <time>2023-07-02T15:29:45.000Z</time>
      </trkpt>
      <trkpt lat="45.78888" lon="4.73327">
        <ele>303.09555</ele>
        <time>2023-07-02T15:29:46.000Z</time>
      </trkpt>
      <trkpt lat="45.7889" lon="4.73328">
        <ele>303.56232</ele>
        <time>2023-07-02T15:29:47.000Z</time>
      </trkpt>
      <trkpt lat="45.78893" lon="4.7333">
        <ele>303.98416</ele>
        <time>2023-07-02T15:29:49.000Z</time>
      </trkpt>
      <trkpt lat="45.78895" lon="4.73331">
        <ele>304.43369</ele>
        <time>2023-07-02T15:29:50.000Z</time>
      </trkpt>
      <trkpt lat="45.78897" lon="4.73333">
        <ele>304.90573</ele>
        <time>2023-07-02T15:29:51.000Z</time>
      </trkpt>
      <trkpt lat="45.789" lon="4.73334">
        <ele>305.4086</ele>
        <time>2023-07-02T15:29:53.000Z</time>
      </trkpt>
      <trkpt lat="45.78903" lon="4.73337">
        <ele>305.88107</ele>
        <time>2023-07-02T15:29:55.000Z</time>
      </trkpt>
      <trkpt lat="45.78906" lon="4.73338">
        <ele>306.25687</ele>
        <time>2023-07-02T15:29:57.000Z</time>
      </trkpt>
      <trkpt lat="45.78909" lon="4.73337">
        <ele>306.64923</ele>
        <time>2023-07-02T15:29:59.000Z</time>
      </trkpt>
      <trkpt lat="45.78913" lon="4.73336">
        <ele>307.02399</ele>
        <time>2023-07-02T15:30:01.000Z</time>
      </trkpt>
      <trkpt lat="45.78915" lon="4.73336">
        <ele>307.34753</ele>
        <time>2023-07-02T15:30:02.000Z</time>
      </trkpt>
      <trkpt lat="45.78917" lon="4.73337">
        <ele>307.64999</ele>
        <time>2023-07-02T15:30:03.000Z</time>
      </trkpt>
      <trkpt lat="45.78918" lon="4.73337">
        <ele>308.00726</ele>
        <time>2023-07-02T15:30:04.000Z</time>
      </trkpt>
      <trkpt lat="45.7892" lon="4.73338">
        <ele>308.34824</ele>
        <time>2023-07-02T15:30:05.000Z</time>
      </trkpt>
      <trkpt lat="45.78922" lon="4.73339">
        <ele>308.70413</ele>
        <time>2023-07-02T15:30:06.000Z</time>
      </trkpt>
      <trkpt lat="45.78924" lon="4.73341">
        <ele>309.05823</ele>
        <time>2023-07-02T15:30:07.000Z</time>
      </trkpt>
      <trkpt lat="45.78927" lon="4.73342">
        <ele>309.36554</ele>
        <time>2023-07-02T15:30:08.000Z</time>
      </trkpt>
      <trkpt lat="45.78929" lon="4.73343">
        <ele>309.65717</ele>
        <time>2023-07-02T15:30:09.000Z</time>
      </trkpt>
      <trkpt lat="45.78931" lon="4.73344">
        <ele>309.97223</ele>
        <time>2023-07-02T15:30:10.000Z</time>
      </trkpt>
      <trkpt lat="45.78934" lon="4.73345">
        <ele>310.23804</ele>
        <time>2023-07-02T15:30:11.000Z</time>
      </trkpt>
      <trkpt lat="45.78936" lon="4.73347">
        <ele>310.34705</ele>
        <time>2023-07-02T15:30:12.000Z</time>
      </trkpt>
      <trkpt lat="45.78939" lon="4.73348">
        <ele>310.40656</ele>
        <time>2023-07-02T15:30:13.000Z</time>
      </trkpt>
      <trkpt lat="45.78942" lon="4.73348">
        <ele>310.52267</ele>
        <time>2023-07-02T15:30:14.000Z</time>
      </trkpt>
      <trkpt lat="45.78944" lon="4.73348">
        <ele>310.64011</ele>
        <time>2023-07-02T15:30:15.000Z</time>
      </trkpt>
      <trkpt lat="45.78947" lon="4.73349">
        <ele>310.72525</ele>
        <time>2023-07-02T15:30:16.000Z</time>
      </trkpt>
      <trkpt lat="45.7895" lon="4.73349">
        <ele>310.78778</ele>
        <time>2023-07-02T15:30:17.000Z</time>
      </trkpt>
      <trkpt lat="45.78953" lon="4.7335">
        <ele>310.86542</ele>
        <time>2023-07-02T15:30:18.000Z</time>
      </trkpt>
      <trkpt lat="45.78956" lon="4.73351">
        <ele>310.95258</ele>
        <time>2023-07-02T15:30:19.000Z</time>
      </trkpt>
      <trkpt lat="45.78959" lon="4.73352">
        <ele>311.00726</ele>
        <time>2023-07-02T15:30:20.000Z</time>
      </trkpt>
      <trkpt lat="45.78962" lon="4.73354">
        <ele>311.07803</ele>
        <time>2023-07-02T15:30:21.000Z</time>
      </trkpt>
      <trkpt lat="45.78965" lon="4.73356">
        <ele>311.19498</ele>
        <time>2023-07-02T15:30:22.000Z</time>
      </trkpt>
      <trkpt lat="45.78968" lon="4.73358">
        <ele>311.311</ele>
        <time>2023-07-02T15:30:23.000Z</time>
      </trkpt>
      <trkpt lat="45.78971" lon="4.7336">
        <ele>311.35379</ele>
        <time>2023-07-02T15:30:24.000Z</time>
      </trkpt>
      <trkpt lat="45.78975" lon="4.73361">
        <ele>311.40717</ele>
        <time>2023-07-02T15:30:25.000Z</time>
      </trkpt>
      <trkpt lat="45.78977" lon="4.73363">
        <ele>311.45633</ele>
        <time>2023-07-02T15:30:26.000Z</time>
      </trkpt>
      <trkpt lat="45.7898" lon="4.73364">
        <ele>311.49106</ele>
        <time>2023-07-02T15:30:27.000Z</time>
      </trkpt>
      <trkpt lat="45.78983" lon="4.73365">
        <ele>311.51816</ele>
        <time>2023-07-02T15:30:28.000Z</time>
      </trkpt>
      <trkpt lat="45.78987" lon="4.73366">
        <ele>311.54364</ele>
        <time>2023-07-02T15:30:29.000Z</time>
      </trkpt>
      <trkpt lat="45.7899" lon="4.73368">
        <ele>311.58344</ele>
        <time>2023-07-02T15:30:30.000Z</time>
      </trkpt>
      <trkpt lat="45.78993" lon="4.73369">
        <ele>311.62677</ele>
        <time>2023-07-02T15:30:31.000Z</time>
      </trkpt>
      <trkpt lat="45.78997" lon="4.73369">
        <ele>311.62531</ele>
        <time>2023-07-02T15:30:32.000Z</time>
      </trkpt>
      <trkpt lat="45.79" lon="4.73369">
        <ele>311.6088</ele>
        <time>2023-07-02T15:30:33.000Z</time>
      </trkpt>
      <trkpt lat="45.79004" lon="4.73369">
        <ele>311.55185</ele>
        <time>2023-07-02T15:30:34.000Z</time>
      </trkpt>
      <trkpt lat="45.79007" lon="4.7337">
        <ele>311.46515</ele>
        <time>2023-07-02T15:30:35.000Z</time>
      </trkpt>
      <trkpt lat="45.79009" lon="4.73371">
        <ele>311.35037</ele>
        <time>2023-07-02T15:30:36.000Z</time>
      </trkpt>
      <trkpt lat="45.79012" lon="4.73373">
        <ele>311.30582</ele>
        <time>2023-07-02T15:30:37.000Z</time>
      </trkpt>
      <trkpt lat="45.79015" lon="4.73375">
        <ele>311.28436</ele>
        <time>2023-07-02T15:30:38.000Z</time>
      </trkpt>
      <trkpt lat="45.79018" lon="4.73376">
        <ele>311.3024</ele>
        <time>2023-07-02T15:30:39.000Z</time>
      </trkpt>
      <trkpt lat="45.79021" lon="4.73377">
        <ele>311.32895</ele>
        <time>2023-07-02T15:30:40.000Z</time>
      </trkpt>
      <trkpt lat="45.79025" lon="4.73379">
        <ele>311.38913</ele>
        <time>2023-07-02T15:30:41.000Z</time>
      </trkpt>
      <trkpt lat="45.79028" lon="4.7338">
        <ele>311.40894</ele>
        <time>2023-07-02T15:30:42.000Z</time>
      </trkpt>
      <trkpt lat="45.79031" lon="4.73381">
        <ele>311.40985</ele>
        <time>2023-07-02T15:30:43.000Z</time>
      </trkpt>
      <trkpt lat="45.79035" lon="4.73381">
        <ele>311.5152</ele>
        <time>2023-07-02T15:30:44.000Z</time>
      </trkpt>
      <trkpt lat="45.79038" lon="4.73382">
        <ele>311.64548</ele>
        <time>2023-07-02T15:30:45.000Z</time>
      </trkpt>
      <trkpt lat="45.79041" lon="4.73383">
        <ele>311.79074</ele>
        <time>2023-07-02T15:30:46.000Z</time>
      </trkpt>
      <trkpt lat="45.79044" lon="4.73383">
        <ele>311.92749</ele>
        <time>2023-07-02T15:30:47.000Z</time>
      </trkpt>
      <trkpt lat="45.79047" lon="4.73384">
        <ele>312.06021</ele>
        <time>2023-07-02T15:30:48.000Z</time>
      </trkpt>
      <trkpt lat="45.7905" lon="4.73385">
        <ele>312.1839</ele>
        <time>2023-07-02T15:30:49.000Z</time>
      </trkpt>
      <trkpt lat="45.79053" lon="4.73385">
        <ele>312.29993</ele>
        <time>2023-07-02T15:30:50.000Z</time>
      </trkpt>
      <trkpt lat="45.79056" lon="4.73386">
        <ele>312.43048</ele>
        <time>2023-07-02T15:30:51.000Z</time>
      </trkpt>
      <trkpt lat="45.7906" lon="4.73387">
        <ele>312.59628</ele>
        <time>2023-07-02T15:30:52.000Z</time>
      </trkpt>
      <trkpt lat="45.79063" lon="4.73388">
        <ele>312.77725</ele>
        <time>2023-07-02T15:30:53.000Z</time>
      </trkpt>
      <trkpt lat="45.79065" lon="4.73389">
        <ele>313.00958</ele>
        <time>2023-07-02T15:30:54.000Z</time>
      </trkpt>
      <trkpt lat="45.79068" lon="4.73389">
        <ele>313.2106</ele>
        <time>2023-07-02T15:30:55.000Z</time>
      </trkpt>
      <trkpt lat="45.79072" lon="4.73389">
        <ele>313.43405</ele>
        <time>2023-07-02T15:30:56.000Z</time>
      </trkpt>
      <trkpt lat="45.79075" lon="4.7339">
        <ele>313.69366</ele>
        <time>2023-07-02T15:30:57.000Z</time>
      </trkpt>
      <trkpt lat="45.79079" lon="4.73391">
        <ele>313.97269</ele>
        <time>2023-07-02T15:30:58.000Z</time>
      </trkpt>
      <trkpt lat="45.79082" lon="4.73393">
        <ele>314.25211</ele>
        <time>2023-07-02T15:30:59.000Z</time>
      </trkpt>
      <trkpt lat="45.79086" lon="4.73395">
        <ele>314.59067</ele>
        <time>2023-07-02T15:31:00.000Z</time>
      </trkpt>
      <trkpt lat="45.7909" lon="4.73396">
        <ele>314.86652</ele>
        <time>2023-07-02T15:31:01.000Z</time>
      </trkpt>
      <trkpt lat="45.79093" lon="4.73398">
        <ele>315.12341</ele>
        <time>2023-07-02T15:31:02.000Z</time>
      </trkpt>
      <trkpt lat="45.79096" lon="4.73399">
        <ele>315.42343</ele>
        <time>2023-07-02T15:31:03.000Z</time>
      </trkpt>
      <trkpt lat="45.79099" lon="4.734">
        <ele>315.64603</ele>
        <time>2023-07-02T15:31:04.000Z</time>
      </trkpt>
      <trkpt lat="45.79102" lon="4.73401">
        <ele>315.72964</ele>
        <time>2023-07-02T15:31:05.000Z</time>
      </trkpt>
      <trkpt lat="45.79105" lon="4.73403">
        <ele>315.7153</ele>
        <time>2023-07-02T15:31:06.000Z</time>
      </trkpt>
      <trkpt lat="45.79109" lon="4.73404">
        <ele>315.89081</ele>
        <time>2023-07-02T15:31:07.000Z</time>
      </trkpt>
      <trkpt lat="45.79112" lon="4.73406">
        <ele>316.07993</ele>
        <time>2023-07-02T15:31:08.000Z</time>
      </trkpt>
      <trkpt lat="45.79114" lon="4.73407">
        <ele>316.23257</ele>
        <time>2023-07-02T15:31:09.000Z</time>
      </trkpt>
      <trkpt lat="45.79117" lon="4.73408">
        <ele>316.39017</ele>
        <time>2023-07-02T15:31:10.000Z</time>
      </trkpt>
      <trkpt lat="45.79119" lon="4.73408">
        <ele>316.54034</ele>
        <time>2023-07-02T15:31:11.000Z</time>
      </trkpt>
      <trkpt lat="45.79122" lon="4.73407">
        <ele>316.659</ele>
        <time>2023-07-02T15:31:12.000Z</time>
      </trkpt>
      <trkpt lat="45.79124" lon="4.73406">
        <ele>316.77386</ele>
        <time>2023-07-02T15:31:13.000Z</time>
      </trkpt>
      <trkpt lat="45.79126" lon="4.73405">
        <ele>316.86209</ele>
        <time>2023-07-02T15:31:14.000Z</time>
      </trkpt>
      <trkpt lat="45.79128" lon="4.73404">
        <ele>316.97992</ele>
        <time>2023-07-02T15:31:15.000Z</time>
      </trkpt>
      <trkpt lat="45.79131" lon="4.73403">
        <ele>317.06213</ele>
        <time>2023-07-02T15:31:16.000Z</time>
      </trkpt>
      <trkpt lat="45.79133" lon="4.73403">
        <ele>317.03729</ele>
        <time>2023-07-02T15:31:17.000Z</time>
      </trkpt>
      <trkpt lat="45.79136" lon="4.73403">
        <ele>316.93167</ele>
        <time>2023-07-02T15:31:18.000Z</time>
      </trkpt>
      <trkpt lat="45.79138" lon="4.73403">
        <ele>316.78983</ele>
        <time>2023-07-02T15:31:19.000Z</time>
      </trkpt>
      <trkpt lat="45.7914" lon="4.73403">
        <ele>316.72107</ele>
        <time>2023-07-02T15:31:20.000Z</time>
      </trkpt>
      <trkpt lat="45.79143" lon="4.73401">
        <ele>316.59171</ele>
        <time>2023-07-02T15:31:22.000Z</time>
      </trkpt>
      <trkpt lat="45.79144" lon="4.73399">
        <ele>316.45856</ele>
        <time>2023-07-02T15:31:25.000Z</time>
      </trkpt>
      <trkpt lat="45.79146" lon="4.73398">
        <ele>316.47739</ele>
        <time>2023-07-02T15:31:39.000Z</time>
      </trkpt>
      <trkpt lat="45.79147" lon="4.73396">
        <ele>316.47266</ele>
        <time>2023-07-02T15:31:40.000Z</time>
      </trkpt>
      <trkpt lat="45.79148" lon="4.73393">
        <ele>316.54742</ele>
        <time>2023-07-02T15:31:41.000Z</time>
      </trkpt>
      <trkpt lat="45.7915" lon="4.7339">
        <ele>316.69678</ele>
        <time>2023-07-02T15:31:43.000Z</time>
      </trkpt>
      <trkpt lat="45.79152" lon="4.73394">
        <ele>316.5881</ele>
        <time>2023-07-02T15:31:45.000Z</time>
      </trkpt>
      <trkpt lat="45.79153" lon="4.73396">
        <ele>316.47598</ele>
        <time>2023-07-02T15:31:46.000Z</time>
      </trkpt>
      <trkpt lat="45.79155" lon="4.73398">
        <ele>316.5069</ele>
        <time>2023-07-02T15:31:47.000Z</time>
      </trkpt>
      <trkpt lat="45.79157" lon="4.73398">
        <ele>316.52084</ele>
        <time>2023-07-02T15:31:48.000Z</time>
      </trkpt>
      <trkpt lat="45.79159" lon="4.73399">
        <ele>316.52811</ele>
        <time>2023-07-02T15:31:49.000Z</time>
      </trkpt>
      <trkpt lat="45.79161" lon="4.73401">
        <ele>316.56363</ele>
        <time>2023-07-02T15:31:50.000Z</time>
      </trkpt>
      <trkpt lat="45.79163" lon="4.73402">
        <ele>316.65491</ele>
        <time>2023-07-02T15:31:51.000Z</time>
      </trkpt>
      <trkpt lat="45.79166" lon="4.73402">
        <ele>316.75839</ele>
        <time>2023-07-02T15:31:52.000Z</time>
      </trkpt>
      <trkpt lat="45.79168" lon="4.73402">
        <ele>316.86685</ele>
        <time>2023-07-02T15:31:53.000Z</time>
      </trkpt>
      <trkpt lat="45.7917" lon="4.73402">
        <ele>316.98798</ele>
        <time>2023-07-02T15:31:54.000Z</time>
      </trkpt>
      <trkpt lat="45.79173" lon="4.73402">
        <ele>317.07208</ele>
        <time>2023-07-02T15:31:55.000Z</time>
      </trkpt>
      <trkpt lat="45.79176" lon="4.73404">
        <ele>317.18073</ele>
        <time>2023-07-02T15:31:56.000Z</time>
      </trkpt>
      <trkpt lat="45.79178" lon="4.73405">
        <ele>317.27191</ele>
        <time>2023-07-02T15:31:57.000Z</time>
      </trkpt>
      <trkpt lat="45.79181" lon="4.73406">
        <ele>317.32611</ele>
        <time>2023-07-02T15:31:58.000Z</time>
      </trkpt>
      <trkpt lat="45.79184" lon="4.73408">
        <ele>317.4422</ele>
        <time>2023-07-02T15:31:59.000Z</time>
      </trkpt>
      <trkpt lat="45.79187" lon="4.73409">
        <ele>317.59521</ele>
        <time>2023-07-02T15:32:00.000Z</time>
      </trkpt>
      <trkpt lat="45.79189" lon="4.73411">
        <ele>317.55981</ele>
        <time>2023-07-02T15:32:01.000Z</time>
      </trkpt>
      <trkpt lat="45.79192" lon="4.73413">
        <ele>317.54059</ele>
        <time>2023-07-02T15:32:02.000Z</time>
      </trkpt>
      <trkpt lat="45.79195" lon="4.73414">
        <ele>317.57928</ele>
        <time>2023-07-02T15:32:03.000Z</time>
      </trkpt>
      <trkpt lat="45.79198" lon="4.73416">
        <ele>317.62048</ele>
        <time>2023-07-02T15:32:04.000Z</time>
      </trkpt>
      <trkpt lat="45.792" lon="4.73417">
        <ele>317.78751</ele>
        <time>2023-07-02T15:32:05.000Z</time>
      </trkpt>
      <trkpt lat="45.79203" lon="4.73419">
        <ele>317.95712</ele>
        <time>2023-07-02T15:32:06.000Z</time>
      </trkpt>
      <trkpt lat="45.79206" lon="4.73419">
        <ele>318.01947</ele>
        <time>2023-07-02T15:32:07.000Z</time>
      </trkpt>
      <trkpt lat="45.79209" lon="4.7342">
        <ele>318.05023</ele>
        <time>2023-07-02T15:32:08.000Z</time>
      </trkpt>
      <trkpt lat="45.79212" lon="4.73422">
        <ele>318.11017</ele>
        <time>2023-07-02T15:32:09.000Z</time>
      </trkpt>
      <trkpt lat="45.79215" lon="4.73424">
        <ele>318.18384</ele>
        <time>2023-07-02T15:32:10.000Z</time>
      </trkpt>
      <trkpt lat="45.79218" lon="4.73426">
        <ele>318.11481</ele>
        <time>2023-07-02T15:32:11.000Z</time>
      </trkpt>
      <trkpt lat="45.7922" lon="4.73427">
        <ele>317.97614</ele>
        <time>2023-07-02T15:32:12.000Z</time>
      </trkpt>
      <trkpt lat="45.79223" lon="4.7343">
        <ele>317.98218</ele>
        <time>2023-07-02T15:32:13.000Z</time>
      </trkpt>
      <trkpt lat="45.79226" lon="4.73432">
        <ele>317.99576</ele>
        <time>2023-07-02T15:32:14.000Z</time>
      </trkpt>
      <trkpt lat="45.7923" lon="4.73434">
        <ele>318.03287</ele>
        <time>2023-07-02T15:32:15.000Z</time>
      </trkpt>
      <trkpt lat="45.79233" lon="4.73436">
        <ele>318.11707</ele>
        <time>2023-07-02T15:32:16.000Z</time>
      </trkpt>
      <trkpt lat="45.79235" lon="4.73438">
        <ele>318.29556</ele>
        <time>2023-07-02T15:32:17.000Z</time>
      </trkpt>
      <trkpt lat="45.79238" lon="4.73439">
        <ele>318.40594</ele>
        <time>2023-07-02T15:32:18.000Z</time>
      </trkpt>
      <trkpt lat="45.79241" lon="4.73441">
        <ele>318.42642</ele>
        <time>2023-07-02T15:32:19.000Z</time>
      </trkpt>
      <trkpt lat="45.79244" lon="4.73442">
        <ele>318.72083</ele>
        <time>2023-07-02T15:32:20.000Z</time>
      </trkpt>
      <trkpt lat="45.79247" lon="4.73444">
        <ele>319.00302</ele>
        <time>2023-07-02T15:32:21.000Z</time>
      </trkpt>
      <trkpt lat="45.7925" lon="4.73447">
        <ele>319.29837</ele>
        <time>2023-07-02T15:32:22.000Z</time>
      </trkpt>
      <trkpt lat="45.79253" lon="4.73449">
        <ele>319.57715</ele>
        <time>2023-07-02T15:32:23.000Z</time>
      </trkpt>
      <trkpt lat="45.79255" lon="4.73451">
        <ele>319.87671</ele>
        <time>2023-07-02T15:32:24.000Z</time>
      </trkpt>
      <trkpt lat="45.79258" lon="4.73451">
        <ele>320.13922</ele>
        <time>2023-07-02T15:32:25.000Z</time>
      </trkpt>
      <trkpt lat="45.79262" lon="4.73452">
        <ele>320.4184</ele>
        <time>2023-07-02T15:32:26.000Z</time>
      </trkpt>
      <trkpt lat="45.79265" lon="4.73452">
        <ele>320.73746</ele>
        <time>2023-07-02T15:32:27.000Z</time>
      </trkpt>
      <trkpt lat="45.79268" lon="4.73453">
        <ele>321.11948</ele>
        <time>2023-07-02T15:32:28.000Z</time>
      </trkpt>
      <trkpt lat="45.79271" lon="4.73454">
        <ele>321.50067</ele>
        <time>2023-07-02T15:32:29.000Z</time>
      </trkpt>
      <trkpt lat="45.79274" lon="4.73455">
        <ele>321.84708</ele>
        <time>2023-07-02T15:32:30.000Z</time>
      </trkpt>
      <trkpt lat="45.79277" lon="4.73456">
        <ele>322.24066</ele>
        <time>2023-07-02T15:32:31.000Z</time>
      </trkpt>
      <trkpt lat="45.79281" lon="4.73456">
        <ele>322.66098</ele>
        <time>2023-07-02T15:32:32.000Z</time>
      </trkpt>
      <trkpt lat="45.79284" lon="4.73456">
        <ele>322.95712</ele>
        <time>2023-07-02T15:32:33.000Z</time>
      </trkpt>
      <trkpt lat="45.79287" lon="4.73457">
        <ele>323.23392</ele>
        <time>2023-07-02T15:32:34.000Z</time>
      </trkpt>
      <trkpt lat="45.79289" lon="4.73457">
        <ele>323.53745</ele>
        <time>2023-07-02T15:32:35.000Z</time>
      </trkpt>
      <trkpt lat="45.79292" lon="4.73458">
        <ele>323.78091</ele>
        <time>2023-07-02T15:32:36.000Z</time>
      </trkpt>
      <trkpt lat="45.79296" lon="4.73458">
        <ele>324.0094</ele>
        <time>2023-07-02T15:32:37.000Z</time>
      </trkpt>
      <trkpt lat="45.79299" lon="4.73458">
        <ele>324.25412</ele>
        <time>2023-07-02T15:32:38.000Z</time>
      </trkpt>
      <trkpt lat="45.79302" lon="4.73458">
        <ele>324.61365</ele>
        <time>2023-07-02T15:32:39.000Z</time>
      </trkpt>
      <trkpt lat="45.79306" lon="4.73459">
        <ele>324.73749</ele>
        <time>2023-07-02T15:32:40.000Z</time>
      </trkpt>
      <trkpt lat="45.79309" lon="4.7346">
        <ele>324.88718</ele>
        <time>2023-07-02T15:32:41.000Z</time>
      </trkpt>
      <trkpt lat="45.79313" lon="4.73461">
        <ele>325.12772</ele>
        <time>2023-07-02T15:32:42.000Z</time>
      </trkpt>
      <trkpt lat="45.79316" lon="4.73463">
        <ele>325.39084</ele>
        <time>2023-07-02T15:32:43.000Z</time>
      </trkpt>
      <trkpt lat="45.79319" lon="4.73465">
        <ele>325.63693</ele>
        <time>2023-07-02T15:32:44.000Z</time>
      </trkpt>
      <trkpt lat="45.79322" lon="4.73467">
        <ele>325.8783</ele>
        <time>2023-07-02T15:32:45.000Z</time>
      </trkpt>
      <trkpt lat="45.79325" lon="4.73469">
        <ele>326.10495</ele>
        <time>2023-07-02T15:32:46.000Z</time>
      </trkpt>
      <trkpt lat="45.79328" lon="4.7347">
        <ele>326.30432</ele>
        <time>2023-07-02T15:32:47.000Z</time>
      </trkpt>
      <trkpt lat="45.79331" lon="4.73472">
        <ele>326.5101</ele>
        <time>2023-07-02T15:32:48.000Z</time>
      </trkpt>
      <trkpt lat="45.79335" lon="4.73474">
        <ele>326.67679</ele>
        <time>2023-07-02T15:32:49.000Z</time>
      </trkpt>
      <trkpt lat="45.79338" lon="4.73476">
        <ele>326.82507</ele>
        <time>2023-07-02T15:32:50.000Z</time>
      </trkpt>
      <trkpt lat="45.79342" lon="4.73478">
        <ele>326.99536</ele>
        <time>2023-07-02T15:32:51.000Z</time>
      </trkpt>
      <trkpt lat="45.79345" lon="4.7348">
        <ele>327.19507</ele>
        <time>2023-07-02T15:32:52.000Z</time>
      </trkpt>
      <trkpt lat="45.79349" lon="4.73482">
        <ele>327.38989</ele>
        <time>2023-07-02T15:32:53.000Z</time>
      </trkpt>
      <trkpt lat="45.79352" lon="4.73484">
        <ele>327.6058</ele>
        <time>2023-07-02T15:32:54.000Z</time>
      </trkpt>
      <trkpt lat="45.79355" lon="4.73486">
        <ele>327.7941</ele>
        <time>2023-07-02T15:32:55.000Z</time>
      </trkpt>
      <trkpt lat="45.79358" lon="4.73489">
        <ele>328.02179</ele>
        <time>2023-07-02T15:32:56.000Z</time>
      </trkpt>
      <trkpt lat="45.79361" lon="4.73491">
        <ele>328.24121</ele>
        <time>2023-07-02T15:32:57.000Z</time>
      </trkpt>
      <trkpt lat="45.79364" lon="4.73494">
        <ele>328.4137</ele>
        <time>2023-07-02T15:32:58.000Z</time>
      </trkpt>
      <trkpt lat="45.79367" lon="4.73496">
        <ele>328.57278</ele>
        <time>2023-07-02T15:32:59.000Z</time>
      </trkpt>
      <trkpt lat="45.79371" lon="4.73499">
        <ele>328.69476</ele>
        <time>2023-07-02T15:33:00.000Z</time>
      </trkpt>
      <trkpt lat="45.79375" lon="4.73501">
        <ele>328.8172</ele>
        <time>2023-07-02T15:33:01.000Z</time>
      </trkpt>
      <trkpt lat="45.79378" lon="4.73503">
        <ele>328.85983</ele>
        <time>2023-07-02T15:33:02.000Z</time>
      </trkpt>
      <trkpt lat="45.79382" lon="4.73504">
        <ele>328.88239</ele>
        <time>2023-07-02T15:33:03.000Z</time>
      </trkpt>
      <trkpt lat="45.79386" lon="4.73506">
        <ele>328.9054</ele>
        <time>2023-07-02T15:33:04.000Z</time>
      </trkpt>
      <trkpt lat="45.7939" lon="4.73508">
        <ele>328.93121</ele>
        <time>2023-07-02T15:33:05.000Z</time>
      </trkpt>
      <trkpt lat="45.79393" lon="4.7351">
        <ele>328.98331</ele>
        <time>2023-07-02T15:33:06.000Z</time>
      </trkpt>
      <trkpt lat="45.79397" lon="4.73513">
        <ele>329.0441</ele>
        <time>2023-07-02T15:33:07.000Z</time>
      </trkpt>
      <trkpt lat="45.79401" lon="4.73514">
        <ele>329.04688</ele>
        <time>2023-07-02T15:33:08.000Z</time>
      </trkpt>
      <trkpt lat="45.79405" lon="4.73515">
        <ele>329.08588</ele>
        <time>2023-07-02T15:33:09.000Z</time>
      </trkpt>
      <trkpt lat="45.79408" lon="4.73515">
        <ele>329.16278</ele>
        <time>2023-07-02T15:33:10.000Z</time>
      </trkpt>
      <trkpt lat="45.79411" lon="4.73516">
        <ele>329.19965</ele>
        <time>2023-07-02T15:33:11.000Z</time>
      </trkpt>
      <trkpt lat="45.79414" lon="4.73517">
        <ele>329.19</ele>
        <time>2023-07-02T15:33:12.000Z</time>
      </trkpt>
      <trkpt lat="45.79418" lon="4.73517">
        <ele>329.16721</ele>
        <time>2023-07-02T15:33:13.000Z</time>
      </trkpt>
      <trkpt lat="45.79422" lon="4.73517">
        <ele>329.17505</ele>
        <time>2023-07-02T15:33:14.000Z</time>
      </trkpt>
      <trkpt lat="45.79426" lon="4.73517">
        <ele>329.19745</ele>
        <time>2023-07-02T15:33:15.000Z</time>
      </trkpt>
      <trkpt lat="45.7943" lon="4.73516">
        <ele>329.18707</ele>
        <time>2023-07-02T15:33:16.000Z</time>
      </trkpt>
      <trkpt lat="45.79433" lon="4.73515">
        <ele>329.18781</ele>
        <time>2023-07-02T15:33:17.000Z</time>
      </trkpt>
      <trkpt lat="45.79437" lon="4.73514">
        <ele>329.21704</ele>
        <time>2023-07-02T15:33:18.000Z</time>
      </trkpt>
      <trkpt lat="45.7944" lon="4.73512">
        <ele>329.28339</ele>
        <time>2023-07-02T15:33:19.000Z</time>
      </trkpt>
      <trkpt lat="45.79444" lon="4.7351">
        <ele>329.33405</ele>
        <time>2023-07-02T15:33:20.000Z</time>
      </trkpt>
      <trkpt lat="45.79447" lon="4.73508">
        <ele>329.40311</ele>
        <time>2023-07-02T15:33:21.000Z</time>
      </trkpt>
      <trkpt lat="45.79451" lon="4.73507">
        <ele>329.46185</ele>
        <time>2023-07-02T15:33:22.000Z</time>
      </trkpt>
      <trkpt lat="45.79455" lon="4.73505">
        <ele>329.49496</ele>
        <time>2023-07-02T15:33:23.000Z</time>
      </trkpt>
      <trkpt lat="45.79458" lon="4.73503">
        <ele>329.5506</ele>
        <time>2023-07-02T15:33:24.000Z</time>
      </trkpt>
      <trkpt lat="45.79462" lon="4.73501">
        <ele>329.59418</ele>
        <time>2023-07-02T15:33:25.000Z</time>
      </trkpt>
      <trkpt lat="45.79466" lon="4.73498">
        <ele>329.62155</ele>
        <time>2023-07-02T15:33:26.000Z</time>
      </trkpt>
      <trkpt lat="45.79469" lon="4.73496">
        <ele>329.62485</ele>
        <time>2023-07-02T15:33:27.000Z</time>
      </trkpt>
      <trkpt lat="45.79472" lon="4.73493">
        <ele>329.61612</ele>
        <time>2023-07-02T15:33:28.000Z</time>
      </trkpt>
      <trkpt lat="45.79474" lon="4.7349">
        <ele>329.65564</ele>
        <time>2023-07-02T15:33:29.000Z</time>
      </trkpt>
      <trkpt lat="45.79477" lon="4.73487">
        <ele>329.69089</ele>
        <time>2023-07-02T15:33:30.000Z</time>
      </trkpt>
      <trkpt lat="45.7948" lon="4.73485">
        <ele>329.80707</ele>
        <time>2023-07-02T15:33:31.000Z</time>
      </trkpt>
      <trkpt lat="45.79484" lon="4.73483">
        <ele>329.98062</ele>
        <time>2023-07-02T15:33:32.000Z</time>
      </trkpt>
      <trkpt lat="45.79488" lon="4.73481">
        <ele>330.17377</ele>
        <time>2023-07-02T15:33:33.000Z</time>
      </trkpt>
      <trkpt lat="45.79491" lon="4.73478">
        <ele>330.36322</ele>
        <time>2023-07-02T15:33:34.000Z</time>
      </trkpt>
      <trkpt lat="45.79494" lon="4.73475">
        <ele>330.57172</ele>
        <time>2023-07-02T15:33:35.000Z</time>
      </trkpt>
      <trkpt lat="45.79497" lon="4.73473">
        <ele>330.78543</ele>
        <time>2023-07-02T15:33:36.000Z</time>
      </trkpt>
      <trkpt lat="45.795" lon="4.7347">
        <ele>330.96881</ele>
        <time>2023-07-02T15:33:37.000Z</time>
      </trkpt>
      <trkpt lat="45.79503" lon="4.73468">
        <ele>331.15555</ele>
        <time>2023-07-02T15:33:38.000Z</time>
      </trkpt>
      <trkpt lat="45.79506" lon="4.73466">
        <ele>331.32748</ele>
        <time>2023-07-02T15:33:39.000Z</time>
      </trkpt>
      <trkpt lat="45.79509" lon="4.73464">
        <ele>331.51129</ele>
        <time>2023-07-02T15:33:40.000Z</time>
      </trkpt>
      <trkpt lat="45.79512" lon="4.73462">
        <ele>331.68341</ele>
        <time>2023-07-02T15:33:41.000Z</time>
      </trkpt>
      <trkpt lat="45.79516" lon="4.7346">
        <ele>331.87109</ele>
        <time>2023-07-02T15:33:42.000Z</time>
      </trkpt>
      <trkpt lat="45.79519" lon="4.73458">
        <ele>332.08597</ele>
        <time>2023-07-02T15:33:43.000Z</time>
      </trkpt>
      <trkpt lat="45.79522" lon="4.73457">
        <ele>332.27847</ele>
        <time>2023-07-02T15:33:44.000Z</time>
      </trkpt>
      <trkpt lat="45.79526" lon="4.73455">
        <ele>332.47894</ele>
        <time>2023-07-02T15:33:45.000Z</time>
      </trkpt>
      <trkpt lat="45.7953" lon="4.73453">
        <ele>332.68079</ele>
        <time>2023-07-02T15:33:46.000Z</time>
      </trkpt>
      <trkpt lat="45.79533" lon="4.73451">
        <ele>332.89694</ele>
        <time>2023-07-02T15:33:47.000Z</time>
      </trkpt>
      <trkpt lat="45.79537" lon="4.73449">
        <ele>333.13876</ele>
        <time>2023-07-02T15:33:48.000Z</time>
      </trkpt>
      <trkpt lat="45.7954" lon="4.73448">
        <ele>333.33636</ele>
        <time>2023-07-02T15:33:49.000Z</time>
      </trkpt>
      <trkpt lat="45.79544" lon="4.73448">
        <ele>333.40253</ele>
        <time>2023-07-02T15:33:50.000Z</time>
      </trkpt>
      <trkpt lat="45.79548" lon="4.73446">
        <ele>333.42178</ele>
        <time>2023-07-02T15:33:51.000Z</time>
      </trkpt>
      <trkpt lat="45.79552" lon="4.73445">
        <ele>333.43958</ele>
        <time>2023-07-02T15:33:52.000Z</time>
      </trkpt>
      <trkpt lat="45.79555" lon="4.73444">
        <ele>333.56683</ele>
        <time>2023-07-02T15:33:53.000Z</time>
      </trkpt>
      <trkpt lat="45.79559" lon="4.73444">
        <ele>333.67245</ele>
        <time>2023-07-02T15:33:54.000Z</time>
      </trkpt>
      <trkpt lat="45.79562" lon="4.73443">
        <ele>333.7767</ele>
        <time>2023-07-02T15:33:55.000Z</time>
      </trkpt>
      <trkpt lat="45.79566" lon="4.73442">
        <ele>333.90375</ele>
        <time>2023-07-02T15:33:56.000Z</time>
      </trkpt>
      <trkpt lat="45.79569" lon="4.73442">
        <ele>334.01013</ele>
        <time>2023-07-02T15:33:57.000Z</time>
      </trkpt>
      <trkpt lat="45.79573" lon="4.73441">
        <ele>334.09366</ele>
        <time>2023-07-02T15:33:58.000Z</time>
      </trkpt>
      <trkpt lat="45.79576" lon="4.73441">
        <ele>334.14722</ele>
        <time>2023-07-02T15:33:59.000Z</time>
      </trkpt>
      <trkpt lat="45.7958" lon="4.7344">
        <ele>334.19937</ele>
        <time>2023-07-02T15:34:00.000Z</time>
      </trkpt>
      <trkpt lat="45.79584" lon="4.73438">
        <ele>334.24554</ele>
        <time>2023-07-02T15:34:01.000Z</time>
      </trkpt>
      <trkpt lat="45.79587" lon="4.73437">
        <ele>334.21173</ele>
        <time>2023-07-02T15:34:02.000Z</time>
      </trkpt>
      <trkpt lat="45.79591" lon="4.73436">
        <ele>334.16989</ele>
        <time>2023-07-02T15:34:03.000Z</time>
      </trkpt>
      <trkpt lat="45.79594" lon="4.73435">
        <ele>334.10022</ele>
        <time>2023-07-02T15:34:04.000Z</time>
      </trkpt>
      <trkpt lat="45.79598" lon="4.73435">
        <ele>334.16351</ele>
        <time>2023-07-02T15:34:05.000Z</time>
      </trkpt>
      <trkpt lat="45.79602" lon="4.73434">
        <ele>334.19733</ele>
        <time>2023-07-02T15:34:06.000Z</time>
      </trkpt>
      <trkpt lat="45.79605" lon="4.73433">
        <ele>334.25082</ele>
        <time>2023-07-02T15:34:07.000Z</time>
      </trkpt>
      <trkpt lat="45.79609" lon="4.73432">
        <ele>334.31332</ele>
        <time>2023-07-02T15:34:08.000Z</time>
      </trkpt>
      <trkpt lat="45.79612" lon="4.73431">
        <ele>334.36374</ele>
        <time>2023-07-02T15:34:09.000Z</time>
      </trkpt>
      <trkpt lat="45.79616" lon="4.7343">
        <ele>334.52829</ele>
        <time>2023-07-02T15:34:10.000Z</time>
      </trkpt>
      <trkpt lat="45.79619" lon="4.7343">
        <ele>334.71072</ele>
        <time>2023-07-02T15:34:11.000Z</time>
      </trkpt>
      <trkpt lat="45.79622" lon="4.73431">
        <ele>334.8732</ele>
        <time>2023-07-02T15:34:12.000Z</time>
      </trkpt>
      <trkpt lat="45.79626" lon="4.73431">
        <ele>334.92523</ele>
        <time>2023-07-02T15:34:13.000Z</time>
      </trkpt>
      <trkpt lat="45.79629" lon="4.73432">
        <ele>335.0043</ele>
        <time>2023-07-02T15:34:14.000Z</time>
      </trkpt>
      <trkpt lat="45.79633" lon="4.73432">
        <ele>334.96408</ele>
        <time>2023-07-02T15:34:15.000Z</time>
      </trkpt>
      <trkpt lat="45.79636" lon="4.73431">
        <ele>334.93008</ele>
        <time>2023-07-02T15:34:16.000Z</time>
      </trkpt>
      <trkpt lat="45.79639" lon="4.7343">
        <ele>334.90329</ele>
        <time>2023-07-02T15:34:17.000Z</time>
      </trkpt>
      <trkpt lat="45.79642" lon="4.73429">
        <ele>334.86786</ele>
        <time>2023-07-02T15:34:18.000Z</time>
      </trkpt>
      <trkpt lat="45.79645" lon="4.73429">
        <ele>334.84332</ele>
        <time>2023-07-02T15:34:19.000Z</time>
      </trkpt>
      <trkpt lat="45.79648" lon="4.73428">
        <ele>334.99146</ele>
        <time>2023-07-02T15:34:20.000Z</time>
      </trkpt>
      <trkpt lat="45.79652" lon="4.73427">
        <ele>335.13849</ele>
        <time>2023-07-02T15:34:21.000Z</time>
      </trkpt>
      <trkpt lat="45.79655" lon="4.73427">
        <ele>335.36127</ele>
        <time>2023-07-02T15:34:22.000Z</time>
      </trkpt>
      <trkpt lat="45.79658" lon="4.73426">
        <ele>335.5773</ele>
        <time>2023-07-02T15:34:23.000Z</time>
      </trkpt>
      <trkpt lat="45.79662" lon="4.73425">
        <ele>335.82599</ele>
        <time>2023-07-02T15:34:24.000Z</time>
      </trkpt>
      <trkpt lat="45.79665" lon="4.73424">
        <ele>335.96091</ele>
        <time>2023-07-02T15:34:25.000Z</time>
      </trkpt>
      <trkpt lat="45.79668" lon="4.73424">
        <ele>336.09064</ele>
        <time>2023-07-02T15:34:26.000Z</time>
      </trkpt>
      <trkpt lat="45.79671" lon="4.73423">
        <ele>336.21991</ele>
        <time>2023-07-02T15:34:27.000Z</time>
      </trkpt>
      <trkpt lat="45.79675" lon="4.73422">
        <ele>336.34003</ele>
        <time>2023-07-02T15:34:28.000Z</time>
      </trkpt>
      <trkpt lat="45.79678" lon="4.73421">
        <ele>336.4751</ele>
        <time>2023-07-02T15:34:29.000Z</time>
      </trkpt>
      <trkpt lat="45.79682" lon="4.7342">
        <ele>336.62753</ele>
        <time>2023-07-02T15:34:30.000Z</time>
      </trkpt>
      <trkpt lat="45.79685" lon="4.7342">
        <ele>336.79163</ele>
        <time>2023-07-02T15:34:31.000Z</time>
      </trkpt>
      <trkpt lat="45.79688" lon="4.73419">
        <ele>336.95746</ele>
        <time>2023-07-02T15:34:32.000Z</time>
      </trkpt>
      <trkpt lat="45.79692" lon="4.73418">
        <ele>337.08603</ele>
        <time>2023-07-02T15:34:33.000Z</time>
      </trkpt>
      <trkpt lat="45.79695" lon="4.73418">
        <ele>337.15329</ele>
        <time>2023-07-02T15:34:34.000Z</time>
      </trkpt>
      <trkpt lat="45.79698" lon="4.73417">
        <ele>337.34567</ele>
        <time>2023-07-02T15:34:35.000Z</time>
      </trkpt>
      <trkpt lat="45.79701" lon="4.73415">
        <ele>337.51169</ele>
        <time>2023-07-02T15:34:36.000Z</time>
      </trkpt>
      <trkpt lat="45.79705" lon="4.73414">
        <ele>337.66547</ele>
        <time>2023-07-02T15:34:37.000Z</time>
      </trkpt>
      <trkpt lat="45.79708" lon="4.73413">
        <ele>337.77109</ele>
        <time>2023-07-02T15:34:38.000Z</time>
      </trkpt>
      <trkpt lat="45.79711" lon="4.73412">
        <ele>337.88818</ele>
        <time>2023-07-02T15:34:39.000Z</time>
      </trkpt>
      <trkpt lat="45.79714" lon="4.7341">
        <ele>337.83698</ele>
        <time>2023-07-02T15:34:40.000Z</time>
      </trkpt>
      <trkpt lat="45.79718" lon="4.73409">
        <ele>337.76886</ele>
        <time>2023-07-02T15:34:41.000Z</time>
      </trkpt>
      <trkpt lat="45.79721" lon="4.73408">
        <ele>337.89432</ele>
        <time>2023-07-02T15:34:42.000Z</time>
      </trkpt>
      <trkpt lat="45.79724" lon="4.73407">
        <ele>338.00735</ele>
        <time>2023-07-02T15:34:43.000Z</time>
      </trkpt>
      <trkpt lat="45.79727" lon="4.73406">
        <ele>338.14789</ele>
        <time>2023-07-02T15:34:44.000Z</time>
      </trkpt>
      <trkpt lat="45.79731" lon="4.73404">
        <ele>338.29065</ele>
        <time>2023-07-02T15:34:45.000Z</time>
      </trkpt>
      <trkpt lat="45.79734" lon="4.73402">
        <ele>338.4444</ele>
        <time>2023-07-02T15:34:46.000Z</time>
      </trkpt>
      <trkpt lat="45.79737" lon="4.73401">
        <ele>338.59503</ele>
        <time>2023-07-02T15:34:47.000Z</time>
      </trkpt>
      <trkpt lat="45.7974" lon="4.734">
        <ele>338.75848</ele>
        <time>2023-07-02T15:34:48.000Z</time>
      </trkpt>
      <trkpt lat="45.79744" lon="4.73399">
        <ele>338.8898</ele>
        <time>2023-07-02T15:34:49.000Z</time>
      </trkpt>
      <trkpt lat="45.79747" lon="4.73397">
        <ele>339.01166</ele>
        <time>2023-07-02T15:34:50.000Z</time>
      </trkpt>
      <trkpt lat="45.7975" lon="4.73396">
        <ele>339.10849</ele>
        <time>2023-07-02T15:34:51.000Z</time>
      </trkpt>
      <trkpt lat="45.79753" lon="4.73394">
        <ele>339.2066</ele>
        <time>2023-07-02T15:34:52.000Z</time>
      </trkpt>
      <trkpt lat="45.79756" lon="4.73393">
        <ele>339.3009</ele>
        <time>2023-07-02T15:34:53.000Z</time>
      </trkpt>
      <trkpt lat="45.79759" lon="4.73392">
        <ele>339.46918</ele>
        <time>2023-07-02T15:34:54.000Z</time>
      </trkpt>
      <trkpt lat="45.79761" lon="4.73393">
        <ele>339.53067</ele>
        <time>2023-07-02T15:34:55.000Z</time>
      </trkpt>
      <trkpt lat="45.79764" lon="4.73394">
        <ele>339.5816</ele>
        <time>2023-07-02T15:34:56.000Z</time>
      </trkpt>
      <trkpt lat="45.79766" lon="4.73395">
        <ele>339.62628</ele>
        <time>2023-07-02T15:34:57.000Z</time>
      </trkpt>
      <trkpt lat="45.7977" lon="4.73396">
        <ele>339.68927</ele>
        <time>2023-07-02T15:34:58.000Z</time>
      </trkpt>
      <trkpt lat="45.79773" lon="4.73396">
        <ele>339.76123</ele>
        <time>2023-07-02T15:34:59.000Z</time>
      </trkpt>
      <trkpt lat="45.79776" lon="4.73397">
        <ele>339.79141</ele>
        <time>2023-07-02T15:35:00.000Z</time>
      </trkpt>
      <trkpt lat="45.7978" lon="4.73398">
        <ele>339.84857</ele>
        <time>2023-07-02T15:35:01.000Z</time>
      </trkpt>
      <trkpt lat="45.79783" lon="4.73399">
        <ele>339.69727</ele>
        <time>2023-07-02T15:35:02.000Z</time>
      </trkpt>
      <trkpt lat="45.79787" lon="4.734">
        <ele>339.52264</ele>
        <time>2023-07-02T15:35:03.000Z</time>
      </trkpt>
      <trkpt lat="45.79791" lon="4.73401">
        <ele>339.28586</ele>
        <time>2023-07-02T15:35:04.000Z</time>
      </trkpt>
      <trkpt lat="45.79795" lon="4.73402">
        <ele>339.01453</ele>
        <time>2023-07-02T15:35:05.000Z</time>
      </trkpt>
      <trkpt lat="45.79798" lon="4.73403">
        <ele>338.9646</ele>
        <time>2023-07-02T15:35:06.000Z</time>
      </trkpt>
      <trkpt lat="45.79802" lon="4.73405">
        <ele>338.81476</ele>
        <time>2023-07-02T15:35:07.000Z</time>
      </trkpt>
      <trkpt lat="45.79806" lon="4.73406">
        <ele>338.72141</ele>
        <time>2023-07-02T15:35:08.000Z</time>
      </trkpt>
      <trkpt lat="45.79809" lon="4.73407">
        <ele>338.63641</ele>
        <time>2023-07-02T15:35:09.000Z</time>
      </trkpt>
      <trkpt lat="45.79813" lon="4.73408">
        <ele>338.50842</ele>
        <time>2023-07-02T15:35:10.000Z</time>
      </trkpt>
      <trkpt lat="45.79817" lon="4.73409">
        <ele>338.71109</ele>
        <time>2023-07-02T15:35:11.000Z</time>
      </trkpt>
      <trkpt lat="45.79821" lon="4.7341">
        <ele>338.90634</ele>
        <time>2023-07-02T15:35:12.000Z</time>
      </trkpt>
      <trkpt lat="45.79825" lon="4.73411">
        <ele>339.11478</ele>
        <time>2023-07-02T15:35:13.000Z</time>
      </trkpt>
      <trkpt lat="45.79828" lon="4.73412">
        <ele>339.3139</ele>
        <time>2023-07-02T15:35:14.000Z</time>
      </trkpt>
      <trkpt lat="45.79833" lon="4.73413">
        <ele>339.67758</ele>
        <time>2023-07-02T15:35:15.000Z</time>
      </trkpt>
      <trkpt lat="45.79837" lon="4.73414">
        <ele>340.02509</ele>
        <time>2023-07-02T15:35:16.000Z</time>
      </trkpt>
      <trkpt lat="45.7984" lon="4.73415">
        <ele>340.3681</ele>
        <time>2023-07-02T15:35:17.000Z</time>
      </trkpt>
      <trkpt lat="45.79843" lon="4.73416">
        <ele>340.72049</ele>
        <time>2023-07-02T15:35:18.000Z</time>
      </trkpt>
      <trkpt lat="45.79847" lon="4.73417">
        <ele>341.10425</ele>
        <time>2023-07-02T15:35:19.000Z</time>
      </trkpt>
      <trkpt lat="45.79851" lon="4.73418">
        <ele>341.50513</ele>
        <time>2023-07-02T15:35:20.000Z</time>
      </trkpt>
      <trkpt lat="45.79855" lon="4.73419">
        <ele>341.89111</ele>
        <time>2023-07-02T15:35:21.000Z</time>
      </trkpt>
      <trkpt lat="45.79859" lon="4.7342">
        <ele>342.26328</ele>
        <time>2023-07-02T15:35:22.000Z</time>
      </trkpt>
      <trkpt lat="45.79863" lon="4.73422">
        <ele>342.66245</ele>
        <time>2023-07-02T15:35:23.000Z</time>
      </trkpt>
      <trkpt lat="45.79867" lon="4.73423">
        <ele>343.10303</ele>
        <time>2023-07-02T15:35:24.000Z</time>
      </trkpt>
      <trkpt lat="45.7987" lon="4.73424">
        <ele>343.55542</ele>
        <time>2023-07-02T15:35:25.000Z</time>
      </trkpt>
      <trkpt lat="45.79874" lon="4.73425">
        <ele>343.8869</ele>
        <time>2023-07-02T15:35:26.000Z</time>
      </trkpt>
      <trkpt lat="45.79878" lon="4.73426">
        <ele>344.24988</ele>
        <time>2023-07-02T15:35:27.000Z</time>
      </trkpt>
      <trkpt lat="45.79881" lon="4.73427">
        <ele>344.5285</ele>
        <time>2023-07-02T15:35:28.000Z</time>
      </trkpt>
      <trkpt lat="45.79884" lon="4.73428">
        <ele>344.81027</ele>
        <time>2023-07-02T15:35:29.000Z</time>
      </trkpt>
      <trkpt lat="45.79887" lon="4.73429">
        <ele>345.14926</ele>
        <time>2023-07-02T15:35:30.000Z</time>
      </trkpt>
      <trkpt lat="45.79889" lon="4.73431">
        <ele>345.16644</ele>
        <time>2023-07-02T15:35:31.000Z</time>
      </trkpt>
      <trkpt lat="45.79892" lon="4.73432">
        <ele>345.20416</ele>
        <time>2023-07-02T15:35:32.000Z</time>
      </trkpt>
      <trkpt lat="45.79895" lon="4.73432">
        <ele>345.27213</ele>
        <time>2023-07-02T15:35:33.000Z</time>
      </trkpt>
      <trkpt lat="45.79899" lon="4.7343">
        <ele>345.33597</ele>
        <time>2023-07-02T15:35:34.000Z</time>
      </trkpt>
      <trkpt lat="45.79902" lon="4.73427">
        <ele>345.33847</ele>
        <time>2023-07-02T15:35:35.000Z</time>
      </trkpt>
      <trkpt lat="45.79905" lon="4.73424">
        <ele>345.39615</ele>
        <time>2023-07-02T15:35:36.000Z</time>
      </trkpt>
      <trkpt lat="45.79908" lon="4.73422">
        <ele>345.47107</ele>
        <time>2023-07-02T15:35:37.000Z</time>
      </trkpt>
      <trkpt lat="45.79911" lon="4.7342">
        <ele>345.56412</ele>
        <time>2023-07-02T15:35:38.000Z</time>
      </trkpt>
      <trkpt lat="45.79914" lon="4.73418">
        <ele>345.61676</ele>
        <time>2023-07-02T15:35:39.000Z</time>
      </trkpt>
      <trkpt lat="45.79918" lon="4.73416">
        <ele>345.67447</ele>
        <time>2023-07-02T15:35:40.000Z</time>
      </trkpt>
      <trkpt lat="45.79921" lon="4.73414">
        <ele>345.71838</ele>
        <time>2023-07-02T15:35:41.000Z</time>
      </trkpt>
      <trkpt lat="45.79924" lon="4.73412">
        <ele>345.78665</ele>
        <time>2023-07-02T15:35:42.000Z</time>
      </trkpt>
      <trkpt lat="45.79927" lon="4.7341">
        <ele>345.81845</ele>
        <time>2023-07-02T15:35:43.000Z</time>
      </trkpt>
      <trkpt lat="45.79931" lon="4.73409">
        <ele>345.86005</ele>
        <time>2023-07-02T15:35:44.000Z</time>
      </trkpt>
      <trkpt lat="45.79934" lon="4.73407">
        <ele>345.99933</ele>
        <time>2023-07-02T15:35:45.000Z</time>
      </trkpt>
      <trkpt lat="45.79937" lon="4.73406">
        <ele>346.0498</ele>
        <time>2023-07-02T15:35:46.000Z</time>
      </trkpt>
      <trkpt lat="45.79941" lon="4.73404">
        <ele>346.14078</ele>
        <time>2023-07-02T15:35:47.000Z</time>
      </trkpt>
      <trkpt lat="45.79944" lon="4.73402">
        <ele>346.24417</ele>
        <time>2023-07-02T15:35:48.000Z</time>
      </trkpt>
      <trkpt lat="45.79948" lon="4.734">
        <ele>346.35602</ele>
        <time>2023-07-02T15:35:49.000Z</time>
      </trkpt>
      <trkpt lat="45.79951" lon="4.73397">
        <ele>346.43961</ele>
        <time>2023-07-02T15:35:50.000Z</time>
      </trkpt>
      <trkpt lat="45.79954" lon="4.73395">
        <ele>346.53882</ele>
        <time>2023-07-02T15:35:51.000Z</time>
      </trkpt>
      <trkpt lat="45.79957" lon="4.73392">
        <ele>346.61765</ele>
        <time>2023-07-02T15:35:52.000Z</time>
      </trkpt>
      <trkpt lat="45.7996" lon="4.7339">
        <ele>346.69989</ele>
        <time>2023-07-02T15:35:53.000Z</time>
      </trkpt>
      <trkpt lat="45.79962" lon="4.73386">
        <ele>346.72211</ele>
        <time>2023-07-02T15:35:54.000Z</time>
      </trkpt>
      <trkpt lat="45.79964" lon="4.73382">
        <ele>346.72299</ele>
        <time>2023-07-02T15:35:55.000Z</time>
      </trkpt>
      <trkpt lat="45.79966" lon="4.73377">
        <ele>346.71106</ele>
        <time>2023-07-02T15:35:56.000Z</time>
      </trkpt>
      <trkpt lat="45.79966" lon="4.7337">
        <ele>346.69571</ele>
        <time>2023-07-02T15:35:57.000Z</time>
      </trkpt>
      <trkpt lat="45.79966" lon="4.73364">
        <ele>346.64236</ele>
        <time>2023-07-02T15:35:58.000Z</time>
      </trkpt>
      <trkpt lat="45.79963" lon="4.73357">
        <ele>346.43423</ele>
        <time>2023-07-02T15:35:59.000Z</time>
      </trkpt>
      <trkpt lat="45.79962" lon="4.7335">
        <ele>346.26349</ele>
        <time>2023-07-02T15:36:00.000Z</time>
      </trkpt>
      <trkpt lat="45.7996" lon="4.73343">
        <ele>346.12213</ele>
        <time>2023-07-02T15:36:01.000Z</time>
      </trkpt>
      <trkpt lat="45.7996" lon="4.73336">
        <ele>345.97937</ele>
        <time>2023-07-02T15:36:02.000Z</time>
      </trkpt>
      <trkpt lat="45.79959" lon="4.73329">
        <ele>345.92072</ele>
        <time>2023-07-02T15:36:03.000Z</time>
      </trkpt>
      <trkpt lat="45.79959" lon="4.73322">
        <ele>345.85422</ele>
        <time>2023-07-02T15:36:04.000Z</time>
      </trkpt>
      <trkpt lat="45.7996" lon="4.73314">
        <ele>345.71231</ele>
        <time>2023-07-02T15:36:05.000Z</time>
      </trkpt>
      <trkpt lat="45.79963" lon="4.73307">
        <ele>345.58179</ele>
        <time>2023-07-02T15:36:06.000Z</time>
      </trkpt>
      <trkpt lat="45.79967" lon="4.73299">
        <ele>345.47165</ele>
        <time>2023-07-02T15:36:07.000Z</time>
      </trkpt>
      <trkpt lat="45.79973" lon="4.73295">
        <ele>345.32977</ele>
        <time>2023-07-02T15:36:08.000Z</time>
      </trkpt>
      <trkpt lat="45.79977" lon="4.73292">
        <ele>345.02933</ele>
        <time>2023-07-02T15:36:09.000Z</time>
      </trkpt>
      <trkpt lat="45.79983" lon="4.73289">
        <ele>344.69824</ele>
        <time>2023-07-02T15:36:10.000Z</time>
      </trkpt>
      <trkpt lat="45.79989" lon="4.73288">
        <ele>344.29901</ele>
        <time>2023-07-02T15:36:11.000Z</time>
      </trkpt>
      <trkpt lat="45.79994" lon="4.73286">
        <ele>343.90576</ele>
        <time>2023-07-02T15:36:12.000Z</time>
      </trkpt>
      <trkpt lat="45.79999" lon="4.73288">
        <ele>343.71295</ele>
        <time>2023-07-02T15:36:13.000Z</time>
      </trkpt>
      <trkpt lat="45.80004" lon="4.73288">
        <ele>343.51938</ele>
        <time>2023-07-02T15:36:14.000Z</time>
      </trkpt>
      <trkpt lat="45.80009" lon="4.73286">
        <ele>343.32797</ele>
        <time>2023-07-02T15:36:15.000Z</time>
      </trkpt>
      <trkpt lat="45.80014" lon="4.73285">
        <ele>343.11871</ele>
        <time>2023-07-02T15:36:16.000Z</time>
      </trkpt>
      <trkpt lat="45.80018" lon="4.73284">
        <ele>342.9386</ele>
        <time>2023-07-02T15:36:17.000Z</time>
      </trkpt>
      <trkpt lat="45.80022" lon="4.73284">
        <ele>342.83456</ele>
        <time>2023-07-02T15:36:18.000Z</time>
      </trkpt>
      <trkpt lat="45.80027" lon="4.73283">
        <ele>342.89972</ele>
        <time>2023-07-02T15:36:19.000Z</time>
      </trkpt>
      <trkpt lat="45.80031" lon="4.73282">
        <ele>342.95532</ele>
        <time>2023-07-02T15:36:20.000Z</time>
      </trkpt>
      <trkpt lat="45.80036" lon="4.73281">
        <ele>343.01147</ele>
        <time>2023-07-02T15:36:21.000Z</time>
      </trkpt>
      <trkpt lat="45.8004" lon="4.7328">
        <ele>343.05923</ele>
        <time>2023-07-02T15:36:22.000Z</time>
      </trkpt>
      <trkpt lat="45.80045" lon="4.7328">
        <ele>343.05502</ele>
        <time>2023-07-02T15:36:23.000Z</time>
      </trkpt>
      <trkpt lat="45.80049" lon="4.73279">
        <ele>343.00079</ele>
        <time>2023-07-02T15:36:24.000Z</time>
      </trkpt>
      <trkpt lat="45.80054" lon="4.73278">
        <ele>342.92807</ele>
        <time>2023-07-02T15:36:25.000Z</time>
      </trkpt>
      <trkpt lat="45.80058" lon="4.73276">
        <ele>342.84579</ele>
        <time>2023-07-02T15:36:26.000Z</time>
      </trkpt>
      <trkpt lat="45.80062" lon="4.73275">
        <ele>342.73318</ele>
        <time>2023-07-02T15:36:27.000Z</time>
      </trkpt>
      <trkpt lat="45.80067" lon="4.73274">
        <ele>342.55646</ele>
        <time>2023-07-02T15:36:28.000Z</time>
      </trkpt>
      <trkpt lat="45.80071" lon="4.73272">
        <ele>342.4791</ele>
        <time>2023-07-02T15:36:29.000Z</time>
      </trkpt>
      <trkpt lat="45.80077" lon="4.7327">
        <ele>342.45441</ele>
        <time>2023-07-02T15:36:30.000Z</time>
      </trkpt>
      <trkpt lat="45.80082" lon="4.73268">
        <ele>342.48993</ele>
        <time>2023-07-02T15:36:31.000Z</time>
      </trkpt>
      <trkpt lat="45.80086" lon="4.73267">
        <ele>342.45514</ele>
        <time>2023-07-02T15:36:32.000Z</time>
      </trkpt>
      <trkpt lat="45.80091" lon="4.73265">
        <ele>342.4165</ele>
        <time>2023-07-02T15:36:33.000Z</time>
      </trkpt>
      <trkpt lat="45.80095" lon="4.73263">
        <ele>342.4025</ele>
        <time>2023-07-02T15:36:34.000Z</time>
      </trkpt>
      <trkpt lat="45.80099" lon="4.73261">
        <ele>342.41837</ele>
        <time>2023-07-02T15:36:35.000Z</time>
      </trkpt>
      <trkpt lat="45.80104" lon="4.73261">
        <ele>342.46515</ele>
        <time>2023-07-02T15:36:36.000Z</time>
      </trkpt>
      <trkpt lat="45.80109" lon="4.73259">
        <ele>342.47369</ele>
        <time>2023-07-02T15:36:37.000Z</time>
      </trkpt>
      <trkpt lat="45.80114" lon="4.73259">
        <ele>342.46713</ele>
        <time>2023-07-02T15:36:38.000Z</time>
      </trkpt>
      <trkpt lat="45.80118" lon="4.73257">
        <ele>342.4491</ele>
        <time>2023-07-02T15:36:39.000Z</time>
      </trkpt>
      <trkpt lat="45.80123" lon="4.73257">
        <ele>342.39124</ele>
        <time>2023-07-02T15:36:40.000Z</time>
      </trkpt>
      <trkpt lat="45.80127" lon="4.73256">
        <ele>342.27615</ele>
        <time>2023-07-02T15:36:41.000Z</time>
      </trkpt>
      <trkpt lat="45.80131" lon="4.73255">
        <ele>342.26199</ele>
        <time>2023-07-02T15:36:42.000Z</time>
      </trkpt>
      <trkpt lat="45.80137" lon="4.73255">
        <ele>342.11807</ele>
        <time>2023-07-02T15:36:43.000Z</time>
      </trkpt>
      <trkpt lat="45.80141" lon="4.73255">
        <ele>342.00067</ele>
        <time>2023-07-02T15:36:44.000Z</time>
      </trkpt>
      <trkpt lat="45.80145" lon="4.73256">
        <ele>341.86865</ele>
        <time>2023-07-02T15:36:45.000Z</time>
      </trkpt>
      <trkpt lat="45.8015" lon="4.73256">
        <ele>341.74713</ele>
        <time>2023-07-02T15:36:46.000Z</time>
      </trkpt>
      <trkpt lat="45.80154" lon="4.73256">
        <ele>341.64365</ele>
        <time>2023-07-02T15:36:47.000Z</time>
      </trkpt>
      <trkpt lat="45.80159" lon="4.73256">
        <ele>341.63159</ele>
        <time>2023-07-02T15:36:48.000Z</time>
      </trkpt>
      <trkpt lat="45.80163" lon="4.73256">
        <ele>341.65942</ele>
        <time>2023-07-02T15:36:49.000Z</time>
      </trkpt>
      <trkpt lat="45.80167" lon="4.73255">
        <ele>341.65665</ele>
        <time>2023-07-02T15:36:50.000Z</time>
      </trkpt>
      <trkpt lat="45.80171" lon="4.73255">
        <ele>341.66571</ele>
        <time>2023-07-02T15:36:51.000Z</time>
      </trkpt>
      <trkpt lat="45.80175" lon="4.73255">
        <ele>341.73468</ele>
        <time>2023-07-02T15:36:52.000Z</time>
      </trkpt>
      <trkpt lat="45.80179" lon="4.73255">
        <ele>341.6059</ele>
        <time>2023-07-02T15:36:53.000Z</time>
      </trkpt>
      <trkpt lat="45.80183" lon="4.73255">
        <ele>341.49832</ele>
        <time>2023-07-02T15:36:54.000Z</time>
      </trkpt>
      <trkpt lat="45.80187" lon="4.73256">
        <ele>341.36789</ele>
        <time>2023-07-02T15:36:55.000Z</time>
      </trkpt>
      <trkpt lat="45.80191" lon="4.73256">
        <ele>341.21103</ele>
        <time>2023-07-02T15:36:56.000Z</time>
      </trkpt>
      <trkpt lat="45.80194" lon="4.73255">
        <ele>341.07208</ele>
        <time>2023-07-02T15:36:57.000Z</time>
      </trkpt>
      <trkpt lat="45.80197" lon="4.73254">
        <ele>340.92584</ele>
        <time>2023-07-02T15:36:58.000Z</time>
      </trkpt>
      <trkpt lat="45.802" lon="4.73254">
        <ele>340.80853</ele>
        <time>2023-07-02T15:36:59.000Z</time>
      </trkpt>
      <trkpt lat="45.80203" lon="4.73253">
        <ele>340.71198</ele>
        <time>2023-07-02T15:37:00.000Z</time>
      </trkpt>
      <trkpt lat="45.80206" lon="4.73254">
        <ele>340.8725</ele>
        <time>2023-07-02T15:37:01.000Z</time>
      </trkpt>
      <trkpt lat="45.8021" lon="4.73254">
        <ele>340.93555</ele>
        <time>2023-07-02T15:37:02.000Z</time>
      </trkpt>
      <trkpt lat="45.80213" lon="4.73254">
        <ele>341.12433</ele>
        <time>2023-07-02T15:37:03.000Z</time>
      </trkpt>
      <trkpt lat="45.80217" lon="4.73253">
        <ele>341.31818</ele>
        <time>2023-07-02T15:37:04.000Z</time>
      </trkpt>
      <trkpt lat="45.8022" lon="4.73253">
        <ele>341.54437</ele>
        <time>2023-07-02T15:37:05.000Z</time>
      </trkpt>
      <trkpt lat="45.80224" lon="4.73254">
        <ele>341.73602</ele>
        <time>2023-07-02T15:37:06.000Z</time>
      </trkpt>
      <trkpt lat="45.80227" lon="4.73254">
        <ele>341.93988</ele>
        <time>2023-07-02T15:37:07.000Z</time>
      </trkpt>
      <trkpt lat="45.80231" lon="4.73253">
        <ele>342.1395</ele>
        <time>2023-07-02T15:37:08.000Z</time>
      </trkpt>
      <trkpt lat="45.80235" lon="4.73253">
        <ele>342.33978</ele>
        <time>2023-07-02T15:37:09.000Z</time>
      </trkpt>
      <trkpt lat="45.80239" lon="4.73253">
        <ele>342.55002</ele>
        <time>2023-07-02T15:37:10.000Z</time>
      </trkpt>
      <trkpt lat="45.80243" lon="4.73253">
        <ele>342.74921</ele>
        <time>2023-07-02T15:37:11.000Z</time>
      </trkpt>
      <trkpt lat="45.80247" lon="4.73253">
        <ele>342.95865</ele>
        <time>2023-07-02T15:37:12.000Z</time>
      </trkpt>
      <trkpt lat="45.80251" lon="4.73252">
        <ele>343.15741</ele>
        <time>2023-07-02T15:37:13.000Z</time>
      </trkpt>
      <trkpt lat="45.80255" lon="4.73252">
        <ele>343.35269</ele>
        <time>2023-07-02T15:37:14.000Z</time>
      </trkpt>
      <trkpt lat="45.80259" lon="4.73252">
        <ele>343.52716</ele>
        <time>2023-07-02T15:37:15.000Z</time>
      </trkpt>
      <trkpt lat="45.80263" lon="4.73251">
        <ele>343.72299</ele>
        <time>2023-07-02T15:37:16.000Z</time>
      </trkpt>
      <trkpt lat="45.80267" lon="4.73251">
        <ele>343.91046</ele>
        <time>2023-07-02T15:37:17.000Z</time>
      </trkpt>
      <trkpt lat="45.8027" lon="4.7325">
        <ele>344.08057</ele>
        <time>2023-07-02T15:37:18.000Z</time>
      </trkpt>
      <trkpt lat="45.80274" lon="4.7325">
        <ele>344.20602</ele>
        <time>2023-07-02T15:37:19.000Z</time>
      </trkpt>
      <trkpt lat="45.80277" lon="4.73249">
        <ele>344.33282</ele>
        <time>2023-07-02T15:37:20.000Z</time>
      </trkpt>
      <trkpt lat="45.8028" lon="4.73248">
        <ele>344.22995</ele>
        <time>2023-07-02T15:37:21.000Z</time>
      </trkpt>
      <trkpt lat="45.80284" lon="4.73247">
        <ele>344.14703</ele>
        <time>2023-07-02T15:37:22.000Z</time>
      </trkpt>
      <trkpt lat="45.80288" lon="4.73246">
        <ele>344.04083</ele>
        <time>2023-07-02T15:37:23.000Z</time>
      </trkpt>
      <trkpt lat="45.80292" lon="4.73245">
        <ele>343.91553</ele>
        <time>2023-07-02T15:37:24.000Z</time>
      </trkpt>
      <trkpt lat="45.80297" lon="4.73245">
        <ele>343.78333</ele>
        <time>2023-07-02T15:37:25.000Z</time>
      </trkpt>
      <trkpt lat="45.80302" lon="4.73246">
        <ele>343.68491</ele>
        <time>2023-07-02T15:37:26.000Z</time>
      </trkpt>
      <trkpt lat="45.80306" lon="4.73247">
        <ele>343.59286</ele>
        <time>2023-07-02T15:37:27.000Z</time>
      </trkpt>
      <trkpt lat="45.8031" lon="4.73248">
        <ele>343.34262</ele>
        <time>2023-07-02T15:37:28.000Z</time>
      </trkpt>
      <trkpt lat="45.80314" lon="4.73249">
        <ele>343.29041</ele>
        <time>2023-07-02T15:37:29.000Z</time>
      </trkpt>
      <trkpt lat="45.80318" lon="4.73251">
        <ele>343.18887</ele>
        <time>2023-07-02T15:37:30.000Z</time>
      </trkpt>
      <trkpt lat="45.80322" lon="4.73253">
        <ele>343.09079</ele>
        <time>2023-07-02T15:37:31.000Z</time>
      </trkpt>
      <trkpt lat="45.80326" lon="4.73254">
        <ele>342.97754</ele>
        <time>2023-07-02T15:37:32.000Z</time>
      </trkpt>
      <trkpt lat="45.80331" lon="4.73253">
        <ele>342.86838</ele>
        <time>2023-07-02T15:37:33.000Z</time>
      </trkpt>
      <trkpt lat="45.80335" lon="4.73251">
        <ele>342.76044</ele>
        <time>2023-07-02T15:37:34.000Z</time>
      </trkpt>
      <trkpt lat="45.80338" lon="4.73247">
        <ele>342.69025</ele>
        <time>2023-07-02T15:37:35.000Z</time>
      </trkpt>
      <trkpt lat="45.8034" lon="4.73244">
        <ele>342.61066</ele>
        <time>2023-07-02T15:37:36.000Z</time>
      </trkpt>
      <trkpt lat="45.80342" lon="4.7324">
        <ele>342.54572</ele>
        <time>2023-07-02T15:37:37.000Z</time>
      </trkpt>
      <trkpt lat="45.80344" lon="4.73236">
        <ele>342.49496</ele>
        <time>2023-07-02T15:37:38.000Z</time>
      </trkpt>
      <trkpt lat="45.80346" lon="4.73232">
        <ele>342.43842</ele>
        <time>2023-07-02T15:37:39.000Z</time>
      </trkpt>
      <trkpt lat="45.80348" lon="4.73229">
        <ele>342.76236</ele>
        <time>2023-07-02T15:37:40.000Z</time>
      </trkpt>
      <trkpt lat="45.80349" lon="4.73224">
        <ele>343.0976</ele>
        <time>2023-07-02T15:37:41.000Z</time>
      </trkpt>
      <trkpt lat="45.8035" lon="4.7322">
        <ele>343.4119</ele>
        <time>2023-07-02T15:37:42.000Z</time>
      </trkpt>
      <trkpt lat="45.80351" lon="4.73216">
        <ele>343.80499</ele>
        <time>2023-07-02T15:37:43.000Z</time>
      </trkpt>
      <trkpt lat="45.80351" lon="4.73213">
        <ele>344.23679</ele>
        <time>2023-07-02T15:37:44.000Z</time>
      </trkpt>
      <trkpt lat="45.80352" lon="4.7321">
        <ele>344.63162</ele>
        <time>2023-07-02T15:37:46.000Z</time>
      </trkpt>
      <trkpt lat="45.80355" lon="4.73209">
        <ele>345.01599</ele>
        <time>2023-07-02T15:38:29.000Z</time>
      </trkpt>
      <trkpt lat="45.80357" lon="4.73208">
        <ele>345.40454</ele>
        <time>2023-07-02T15:38:30.000Z</time>
      </trkpt>
      <trkpt lat="45.80359" lon="4.73207">
        <ele>345.99515</ele>
        <time>2023-07-02T15:38:31.000Z</time>
      </trkpt>
      <trkpt lat="45.80362" lon="4.73205">
        <ele>346.36807</ele>
        <time>2023-07-02T15:38:32.000Z</time>
      </trkpt>
      <trkpt lat="45.80365" lon="4.73204">
        <ele>346.74954</ele>
        <time>2023-07-02T15:38:33.000Z</time>
      </trkpt>
      <trkpt lat="45.80368" lon="4.73204">
        <ele>347.14441</ele>
        <time>2023-07-02T15:38:34.000Z</time>
      </trkpt>
      <trkpt lat="45.80371" lon="4.73203">
        <ele>347.57068</ele>
        <time>2023-07-02T15:38:35.000Z</time>
      </trkpt>
      <trkpt lat="45.80373" lon="4.73202">
        <ele>348.04071</ele>
        <time>2023-07-02T15:38:36.000Z</time>
      </trkpt>
      <trkpt lat="45.80376" lon="4.732">
        <ele>348.51324</ele>
        <time>2023-07-02T15:38:37.000Z</time>
      </trkpt>
      <trkpt lat="45.80379" lon="4.73197">
        <ele>348.97937</ele>
        <time>2023-07-02T15:38:38.000Z</time>
      </trkpt>
      <trkpt lat="45.80382" lon="4.73195">
        <ele>349.42465</ele>
        <time>2023-07-02T15:38:39.000Z</time>
      </trkpt>
      <trkpt lat="45.80385" lon="4.73193">
        <ele>349.88202</ele>
        <time>2023-07-02T15:38:40.000Z</time>
      </trkpt>
      <trkpt lat="45.80387" lon="4.73191">
        <ele>350.39301</ele>
        <time>2023-07-02T15:38:41.000Z</time>
      </trkpt>
      <trkpt lat="45.8039" lon="4.73189">
        <ele>350.91754</ele>
        <time>2023-07-02T15:38:42.000Z</time>
      </trkpt>
      <trkpt lat="45.80393" lon="4.73187">
        <ele>351.10214</ele>
        <time>2023-07-02T15:38:43.000Z</time>
      </trkpt>
      <trkpt lat="45.80396" lon="4.73185">
        <ele>351.28571</ele>
        <time>2023-07-02T15:38:44.000Z</time>
      </trkpt>
      <trkpt lat="45.80398" lon="4.73183">
        <ele>351.5014</ele>
        <time>2023-07-02T15:38:45.000Z</time>
      </trkpt>
      <trkpt lat="45.80401" lon="4.73181">
        <ele>351.71463</ele>
        <time>2023-07-02T15:38:46.000Z</time>
      </trkpt>
      <trkpt lat="45.80405" lon="4.73179">
        <ele>351.89459</ele>
        <time>2023-07-02T15:38:47.000Z</time>
      </trkpt>
      <trkpt lat="45.80407" lon="4.73177">
        <ele>352.10132</ele>
        <time>2023-07-02T15:38:48.000Z</time>
      </trkpt>
      <trkpt lat="45.80409" lon="4.73176">
        <ele>352.31372</ele>
        <time>2023-07-02T15:38:49.000Z</time>
      </trkpt>
      <trkpt lat="45.80411" lon="4.73176">
        <ele>352.47443</ele>
        <time>2023-07-02T15:38:50.000Z</time>
      </trkpt>
      <trkpt lat="45.80414" lon="4.73174">
        <ele>352.65594</ele>
        <time>2023-07-02T15:38:51.000Z</time>
      </trkpt>
      <trkpt lat="45.80416" lon="4.73173">
        <ele>352.86353</ele>
        <time>2023-07-02T15:38:52.000Z</time>
      </trkpt>
      <trkpt lat="45.80419" lon="4.73171">
        <ele>353.1015</ele>
        <time>2023-07-02T15:38:53.000Z</time>
      </trkpt>
      <trkpt lat="45.80422" lon="4.73169">
        <ele>353.32196</ele>
        <time>2023-07-02T15:38:54.000Z</time>
      </trkpt>
      <trkpt lat="45.80424" lon="4.73167">
        <ele>353.52557</ele>
        <time>2023-07-02T15:38:55.000Z</time>
      </trkpt>
      <trkpt lat="45.80427" lon="4.73166">
        <ele>353.68588</ele>
        <time>2023-07-02T15:38:56.000Z</time>
      </trkpt>
      <trkpt lat="45.80429" lon="4.73164">
        <ele>353.89755</ele>
        <time>2023-07-02T15:38:57.000Z</time>
      </trkpt>
      <trkpt lat="45.80432" lon="4.73162">
        <ele>354.08624</ele>
        <time>2023-07-02T15:38:58.000Z</time>
      </trkpt>
      <trkpt lat="45.80434" lon="4.73161">
        <ele>354.31882</ele>
        <time>2023-07-02T15:38:59.000Z</time>
      </trkpt>
      <trkpt lat="45.80436" lon="4.7316">
        <ele>354.51678</ele>
        <time>2023-07-02T15:39:00.000Z</time>
      </trkpt>
      <trkpt lat="45.80438" lon="4.7316">
        <ele>354.66638</ele>
        <time>2023-07-02T15:39:01.000Z</time>
      </trkpt>
      <trkpt lat="45.8044" lon="4.73159">
        <ele>354.83261</ele>
        <time>2023-07-02T15:39:02.000Z</time>
      </trkpt>
      <trkpt lat="45.80442" lon="4.73158">
        <ele>354.97287</ele>
        <time>2023-07-02T15:39:03.000Z</time>
      </trkpt>
      <trkpt lat="45.80444" lon="4.73157">
        <ele>355.12741</ele>
        <time>2023-07-02T15:39:04.000Z</time>
      </trkpt>
      <trkpt lat="45.80448" lon="4.73155">
        <ele>355.23834</ele>
        <time>2023-07-02T15:39:06.000Z</time>
      </trkpt>
      <trkpt lat="45.8045" lon="4.73153">
        <ele>355.336</ele>
        <time>2023-07-02T15:39:07.000Z</time>
      </trkpt>
      <trkpt lat="45.80452" lon="4.73151">
        <ele>355.44681</ele>
        <time>2023-07-02T15:39:08.000Z</time>
      </trkpt>
      <trkpt lat="45.80453" lon="4.73149">
        <ele>355.56583</ele>
        <time>2023-07-02T15:39:09.000Z</time>
      </trkpt>
      <trkpt lat="45.80455" lon="4.73147">
        <ele>355.71259</ele>
        <time>2023-07-02T15:39:10.000Z</time>
      </trkpt>
      <trkpt lat="45.80457" lon="4.73145">
        <ele>355.88214</ele>
        <time>2023-07-02T15:39:11.000Z</time>
      </trkpt>
      <trkpt lat="45.80459" lon="4.73144">
        <ele>355.97357</ele>
        <time>2023-07-02T15:39:12.000Z</time>
      </trkpt>
      <trkpt lat="45.80461" lon="4.73143">
        <ele>356.00467</ele>
        <time>2023-07-02T15:39:13.000Z</time>
      </trkpt>
      <trkpt lat="45.80464" lon="4.73141">
        <ele>356.09503</ele>
        <time>2023-07-02T15:39:14.000Z</time>
      </trkpt>
      <trkpt lat="45.80466" lon="4.7314">
        <ele>356.18076</ele>
        <time>2023-07-02T15:39:15.000Z</time>
      </trkpt>
      <trkpt lat="45.80469" lon="4.73138">
        <ele>356.27911</ele>
        <time>2023-07-02T15:39:16.000Z</time>
      </trkpt>
      <trkpt lat="45.80472" lon="4.73135">
        <ele>355.79587</ele>
        <time>2023-07-02T15:39:17.000Z</time>
      </trkpt>
      <trkpt lat="45.80474" lon="4.73134">
        <ele>355.2182</ele>
        <time>2023-07-02T15:39:18.000Z</time>
      </trkpt>
      <trkpt lat="45.80477" lon="4.73132">
        <ele>354.5733</ele>
        <time>2023-07-02T15:39:19.000Z</time>
      </trkpt>
      <trkpt lat="45.80479" lon="4.7313">
        <ele>353.91418</ele>
        <time>2023-07-02T15:39:20.000Z</time>
      </trkpt>
      <trkpt lat="45.80482" lon="4.73128">
        <ele>353.21945</ele>
        <time>2023-07-02T15:39:21.000Z</time>
      </trkpt>
      <trkpt lat="45.80484" lon="4.73127">
        <ele>352.50873</ele>
        <time>2023-07-02T15:39:22.000Z</time>
      </trkpt>
      <trkpt lat="45.80486" lon="4.73125">
        <ele>351.60822</ele>
        <time>2023-07-02T15:39:23.000Z</time>
      </trkpt>
      <trkpt lat="45.80489" lon="4.73124">
        <ele>350.66693</ele>
        <time>2023-07-02T15:39:24.000Z</time>
      </trkpt>
      <trkpt lat="45.80491" lon="4.73122">
        <ele>349.66885</ele>
        <time>2023-07-02T15:39:25.000Z</time>
      </trkpt>
      <trkpt lat="45.80493" lon="4.7312">
        <ele>349.04092</ele>
        <time>2023-07-02T15:39:26.000Z</time>
      </trkpt>
      <trkpt lat="45.80494" lon="4.73118">
        <ele>348.39008</ele>
        <time>2023-07-02T15:39:27.000Z</time>
      </trkpt>
      <trkpt lat="45.80496" lon="4.73115">
        <ele>347.77386</ele>
        <time>2023-07-02T15:39:28.000Z</time>
      </trkpt>
      <trkpt lat="45.80497" lon="4.73113">
        <ele>347.16705</ele>
        <time>2023-07-02T15:39:29.000Z</time>
      </trkpt>
      <trkpt lat="45.80498" lon="4.7311">
        <ele>346.50327</ele>
        <time>2023-07-02T15:39:30.000Z</time>
      </trkpt>
      <trkpt lat="45.805" lon="4.73107">
        <ele>345.88428</ele>
        <time>2023-07-02T15:39:31.000Z</time>
      </trkpt>
      <trkpt lat="45.80501" lon="4.73104">
        <ele>345.38873</ele>
        <time>2023-07-02T15:39:32.000Z</time>
      </trkpt>
      <trkpt lat="45.80503" lon="4.73101">
        <ele>344.98178</ele>
        <time>2023-07-02T15:39:33.000Z</time>
      </trkpt>
      <trkpt lat="45.80506" lon="4.73097">
        <ele>344.58984</ele>
        <time>2023-07-02T15:39:34.000Z</time>
      </trkpt>
      <trkpt lat="45.80507" lon="4.73094">
        <ele>344.32562</ele>
        <time>2023-07-02T15:39:35.000Z</time>
      </trkpt>
      <trkpt lat="45.80509" lon="4.73091">
        <ele>344.07086</ele>
        <time>2023-07-02T15:39:36.000Z</time>
      </trkpt>
      <trkpt lat="45.80511" lon="4.73088">
        <ele>344.41171</ele>
        <time>2023-07-02T15:39:37.000Z</time>
      </trkpt>
      <trkpt lat="45.80513" lon="4.73086">
        <ele>344.80493</ele>
        <time>2023-07-02T15:39:38.000Z</time>
      </trkpt>
      <trkpt lat="45.80514" lon="4.73082">
        <ele>345.30048</ele>
        <time>2023-07-02T15:39:39.000Z</time>
      </trkpt>
      <trkpt lat="45.80515" lon="4.7308">
        <ele>345.78885</ele>
        <time>2023-07-02T15:39:40.000Z</time>
      </trkpt>
      <trkpt lat="45.80516" lon="4.73077">
        <ele>346.33829</ele>
        <time>2023-07-02T15:39:41.000Z</time>
      </trkpt>
      <trkpt lat="45.80517" lon="4.73074">
        <ele>346.89307</ele>
        <time>2023-07-02T15:39:42.000Z</time>
      </trkpt>
      <trkpt lat="45.80518" lon="4.73071">
        <ele>347.5412</ele>
        <time>2023-07-02T15:39:44.000Z</time>
      </trkpt>
      <trkpt lat="45.8052" lon="4.73071">
        <ele>348.31683</ele>
        <time>2023-07-02T15:40:21.000Z</time>
      </trkpt>
      <trkpt lat="45.80522" lon="4.73068">
        <ele>349.13889</ele>
        <time>2023-07-02T15:40:34.000Z</time>
      </trkpt>
      <trkpt lat="45.80525" lon="4.73064">
        <ele>349.61591</ele>
        <time>2023-07-02T15:40:36.000Z</time>
      </trkpt>
      <trkpt lat="45.80526" lon="4.73062">
        <ele>350.10315</ele>
        <time>2023-07-02T15:40:37.000Z</time>
      </trkpt>
      <trkpt lat="45.80528" lon="4.73059">
        <ele>350.62112</ele>
        <time>2023-07-02T15:40:38.000Z</time>
      </trkpt>
      <trkpt lat="45.80529" lon="4.73057">
        <ele>350.92706</ele>
        <time>2023-07-02T15:40:39.000Z</time>
      </trkpt>
      <trkpt lat="45.8053" lon="4.73054">
        <ele>351.26523</ele>
        <time>2023-07-02T15:40:40.000Z</time>
      </trkpt>
      <trkpt lat="45.80532" lon="4.73051">
        <ele>351.5538</ele>
        <time>2023-07-02T15:40:41.000Z</time>
      </trkpt>
      <trkpt lat="45.80534" lon="4.73048">
        <ele>351.63467</ele>
        <time>2023-07-02T15:40:42.000Z</time>
      </trkpt>
      <trkpt lat="45.80536" lon="4.73045">
        <ele>352.04816</ele>
        <time>2023-07-02T15:40:43.000Z</time>
      </trkpt>
      <trkpt lat="45.80538" lon="4.73041">
        <ele>352.32373</ele>
        <time>2023-07-02T15:40:44.000Z</time>
      </trkpt>
      <trkpt lat="45.8054" lon="4.73037">
        <ele>352.48639</ele>
        <time>2023-07-02T15:40:45.000Z</time>
      </trkpt>
      <trkpt lat="45.80541" lon="4.73033">
        <ele>352.65839</ele>
        <time>2023-07-02T15:40:46.000Z</time>
      </trkpt>
      <trkpt lat="45.80543" lon="4.7303">
        <ele>352.77252</ele>
        <time>2023-07-02T15:40:47.000Z</time>
      </trkpt>
      <trkpt lat="45.80544" lon="4.73028">
        <ele>352.85547</ele>
        <time>2023-07-02T15:40:48.000Z</time>
      </trkpt>
      <trkpt lat="45.80546" lon="4.73025">
        <ele>352.93692</ele>
        <time>2023-07-02T15:40:49.000Z</time>
      </trkpt>
      <trkpt lat="45.80547" lon="4.73022">
        <ele>352.96527</ele>
        <time>2023-07-02T15:40:50.000Z</time>
      </trkpt>
      <trkpt lat="45.80549" lon="4.73019">
        <ele>352.97946</ele>
        <time>2023-07-02T15:40:51.000Z</time>
      </trkpt>
      <trkpt lat="45.80551" lon="4.73017">
        <ele>353.00586</ele>
        <time>2023-07-02T15:40:52.000Z</time>
      </trkpt>
      <trkpt lat="45.80552" lon="4.73014">
        <ele>353.11591</ele>
        <time>2023-07-02T15:40:53.000Z</time>
      </trkpt>
      <trkpt lat="45.80554" lon="4.73011">
        <ele>353.11118</ele>
        <time>2023-07-02T15:40:54.000Z</time>
      </trkpt>
      <trkpt lat="45.80555" lon="4.73007">
        <ele>353.12213</ele>
        <time>2023-07-02T15:40:55.000Z</time>
      </trkpt>
      <trkpt lat="45.80556" lon="4.73005">
        <ele>353.11972</ele>
        <time>2023-07-02T15:40:56.000Z</time>
      </trkpt>
      <trkpt lat="45.80558" lon="4.73002">
        <ele>353.11334</ele>
        <time>2023-07-02T15:40:57.000Z</time>
      </trkpt>
      <trkpt lat="45.80559" lon="4.72999">
        <ele>353.04785</ele>
        <time>2023-07-02T15:40:58.000Z</time>
      </trkpt>
      <trkpt lat="45.80561" lon="4.72996">
        <ele>353.17117</ele>
        <time>2023-07-02T15:40:59.000Z</time>
      </trkpt>
      <trkpt lat="45.80562" lon="4.72993">
        <ele>353.2991</ele>
        <time>2023-07-02T15:41:01.000Z</time>
      </trkpt>
      <trkpt lat="45.80565" lon="4.7299">
        <ele>353.71704</ele>
        <time>2023-07-02T15:41:11.000Z</time>
      </trkpt>
      <trkpt lat="45.80566" lon="4.72988">
        <ele>354.23453</ele>
        <time>2023-07-02T15:41:12.000Z</time>
      </trkpt>
      <trkpt lat="45.80568" lon="4.72985">
        <ele>354.37717</ele>
        <time>2023-07-02T15:41:13.000Z</time>
      </trkpt>
      <trkpt lat="45.8057" lon="4.72982">
        <ele>354.59662</ele>
        <time>2023-07-02T15:41:14.000Z</time>
      </trkpt>
      <trkpt lat="45.80572" lon="4.72978">
        <ele>354.80511</ele>
        <time>2023-07-02T15:41:15.000Z</time>
      </trkpt>
      <trkpt lat="45.80573" lon="4.72975">
        <ele>354.98657</ele>
        <time>2023-07-02T15:41:16.000Z</time>
      </trkpt>
      <trkpt lat="45.80575" lon="4.72971">
        <ele>355.19617</ele>
        <time>2023-07-02T15:41:17.000Z</time>
      </trkpt>
      <trkpt lat="45.80577" lon="4.72968">
        <ele>355.41193</ele>
        <time>2023-07-02T15:41:18.000Z</time>
      </trkpt>
      <trkpt lat="45.80579" lon="4.72965">
        <ele>355.58026</ele>
        <time>2023-07-02T15:41:19.000Z</time>
      </trkpt>
      <trkpt lat="45.80581" lon="4.72961">
        <ele>355.79236</ele>
        <time>2023-07-02T15:41:20.000Z</time>
      </trkpt>
      <trkpt lat="45.80583" lon="4.72957">
        <ele>356.02493</ele>
        <time>2023-07-02T15:41:21.000Z</time>
      </trkpt>
      <trkpt lat="45.80586" lon="4.72954">
        <ele>356.23572</ele>
        <time>2023-07-02T15:41:22.000Z</time>
      </trkpt>
      <trkpt lat="45.80587" lon="4.72951">
        <ele>356.44061</ele>
        <time>2023-07-02T15:41:23.000Z</time>
      </trkpt>
      <trkpt lat="45.80589" lon="4.72949">
        <ele>356.66791</ele>
        <time>2023-07-02T15:41:24.000Z</time>
      </trkpt>
      <trkpt lat="45.8059" lon="4.72947">
        <ele>356.85056</ele>
        <time>2023-07-02T15:41:25.000Z</time>
      </trkpt>
      <trkpt lat="45.80592" lon="4.72945">
        <ele>357.01889</ele>
        <time>2023-07-02T15:41:26.000Z</time>
      </trkpt>
      <trkpt lat="45.80593" lon="4.72943">
        <ele>357.18668</ele>
        <time>2023-07-02T15:41:27.000Z</time>
      </trkpt>
      <trkpt lat="45.80593" lon="4.72939">
        <ele>357.35788</ele>
        <time>2023-07-02T15:41:28.000Z</time>
      </trkpt>
      <trkpt lat="45.80592" lon="4.72936">
        <ele>357.5387</ele>
        <time>2023-07-02T15:41:29.000Z</time>
      </trkpt>
      <trkpt lat="45.8059" lon="4.72932">
        <ele>357.71616</ele>
        <time>2023-07-02T15:41:30.000Z</time>
      </trkpt>
      <trkpt lat="45.80588" lon="4.72928">
        <ele>357.61526</ele>
        <time>2023-07-02T15:41:31.000Z</time>
      </trkpt>
      <trkpt lat="45.80586" lon="4.72925">
        <ele>357.5325</ele>
        <time>2023-07-02T15:41:32.000Z</time>
      </trkpt>
      <trkpt lat="45.80584" lon="4.72921">
        <ele>357.45074</ele>
        <time>2023-07-02T15:41:33.000Z</time>
      </trkpt>
      <trkpt lat="45.80582" lon="4.72917">
        <ele>357.36789</ele>
        <time>2023-07-02T15:41:34.000Z</time>
      </trkpt>
      <trkpt lat="45.8058" lon="4.72913">
        <ele>357.2587</ele>
        <time>2023-07-02T15:41:35.000Z</time>
      </trkpt>
      <trkpt lat="45.80578" lon="4.72909">
        <ele>357.13364</ele>
        <time>2023-07-02T15:41:36.000Z</time>
      </trkpt>
      <trkpt lat="45.80575" lon="4.72904">
        <ele>356.9838</ele>
        <time>2023-07-02T15:41:37.000Z</time>
      </trkpt>
      <trkpt lat="45.80573" lon="4.72901">
        <ele>356.83817</ele>
        <time>2023-07-02T15:41:38.000Z</time>
      </trkpt>
      <trkpt lat="45.8057" lon="4.72897">
        <ele>356.7196</ele>
        <time>2023-07-02T15:41:39.000Z</time>
      </trkpt>
      <trkpt lat="45.80568" lon="4.72894">
        <ele>356.59531</ele>
        <time>2023-07-02T15:41:40.000Z</time>
      </trkpt>
      <trkpt lat="45.80566" lon="4.7289">
        <ele>356.45734</ele>
        <time>2023-07-02T15:41:41.000Z</time>
      </trkpt>
      <trkpt lat="45.80564" lon="4.72887">
        <ele>356.35126</ele>
        <time>2023-07-02T15:41:42.000Z</time>
      </trkpt>
      <trkpt lat="45.80561" lon="4.72883">
        <ele>356.24176</ele>
        <time>2023-07-02T15:41:43.000Z</time>
      </trkpt>
      <trkpt lat="45.80559" lon="4.72879">
        <ele>356.1449</ele>
        <time>2023-07-02T15:41:44.000Z</time>
      </trkpt>
      <trkpt lat="45.80556" lon="4.72875">
        <ele>355.98358</ele>
        <time>2023-07-02T15:41:45.000Z</time>
      </trkpt>
      <trkpt lat="45.80554" lon="4.72871">
        <ele>355.81476</ele>
        <time>2023-07-02T15:41:46.000Z</time>
      </trkpt>
      <trkpt lat="45.80551" lon="4.72867">
        <ele>355.7637</ele>
        <time>2023-07-02T15:41:47.000Z</time>
      </trkpt>
      <trkpt lat="45.80548" lon="4.72863">
        <ele>355.64633</ele>
        <time>2023-07-02T15:41:48.000Z</time>
      </trkpt>
      <trkpt lat="45.80545" lon="4.72858">
        <ele>355.48938</ele>
        <time>2023-07-02T15:41:49.000Z</time>
      </trkpt>
      <trkpt lat="45.80543" lon="4.72853">
        <ele>355.32672</ele>
        <time>2023-07-02T15:41:50.000Z</time>
      </trkpt>
      <trkpt lat="45.80541" lon="4.72848">
        <ele>355.15826</ele>
        <time>2023-07-02T15:41:51.000Z</time>
      </trkpt>
      <trkpt lat="45.80538" lon="4.72842">
        <ele>354.9845</ele>
        <time>2023-07-02T15:41:52.000Z</time>
      </trkpt>
      <trkpt lat="45.80537" lon="4.72835">
        <ele>354.8067</ele>
        <time>2023-07-02T15:41:53.000Z</time>
      </trkpt>
      <trkpt lat="45.80534" lon="4.72828">
        <ele>354.62927</ele>
        <time>2023-07-02T15:41:54.000Z</time>
      </trkpt>
      <trkpt lat="45.80532" lon="4.72821">
        <ele>354.43884</ele>
        <time>2023-07-02T15:41:55.000Z</time>
      </trkpt>
      <trkpt lat="45.80528" lon="4.72813">
        <ele>354.24295</ele>
        <time>2023-07-02T15:41:56.000Z</time>
      </trkpt>
      <trkpt lat="45.80525" lon="4.72805">
        <ele>354.04712</ele>
        <time>2023-07-02T15:41:57.000Z</time>
      </trkpt>
      <trkpt lat="45.80523" lon="4.72796">
        <ele>353.87698</ele>
        <time>2023-07-02T15:41:58.000Z</time>
      </trkpt>
      <trkpt lat="45.80519" lon="4.72787">
        <ele>353.61063</ele>
        <time>2023-07-02T15:41:59.000Z</time>
      </trkpt>
      <trkpt lat="45.80516" lon="4.72778">
        <ele>353.92841</ele>
        <time>2023-07-02T15:42:00.000Z</time>
      </trkpt>
      <trkpt lat="45.80512" lon="4.72769">
        <ele>354.211</ele>
        <time>2023-07-02T15:42:01.000Z</time>
      </trkpt>
      <trkpt lat="45.80509" lon="4.72763">
        <ele>354.46829</ele>
        <time>2023-07-02T15:42:02.000Z</time>
      </trkpt>
      <trkpt lat="45.80506" lon="4.72757">
        <ele>354.80853</ele>
        <time>2023-07-02T15:42:03.000Z</time>
      </trkpt>
      <trkpt lat="45.80503" lon="4.72752">
        <ele>355.13684</ele>
        <time>2023-07-02T15:42:04.000Z</time>
      </trkpt>
      <trkpt lat="45.80499" lon="4.72745">
        <ele>355.66095</ele>
        <time>2023-07-02T15:42:05.000Z</time>
      </trkpt>
      <trkpt lat="45.80494" lon="4.72739">
        <ele>356.21173</ele>
        <time>2023-07-02T15:42:06.000Z</time>
      </trkpt>
      <trkpt lat="45.80489" lon="4.72734">
        <ele>356.58551</ele>
        <time>2023-07-02T15:42:07.000Z</time>
      </trkpt>
      <trkpt lat="45.80484" lon="4.7273">
        <ele>357.03021</ele>
        <time>2023-07-02T15:42:08.000Z</time>
      </trkpt>
      <trkpt lat="45.80479" lon="4.72724">
        <ele>357.42438</ele>
        <time>2023-07-02T15:42:09.000Z</time>
      </trkpt>
      <trkpt lat="45.80474" lon="4.72718">
        <ele>357.77338</ele>
        <time>2023-07-02T15:42:10.000Z</time>
      </trkpt>
      <trkpt lat="45.80469" lon="4.72713">
        <ele>357.99982</ele>
        <time>2023-07-02T15:42:11.000Z</time>
      </trkpt>
      <trkpt lat="45.80464" lon="4.72709">
        <ele>358.23395</ele>
        <time>2023-07-02T15:42:12.000Z</time>
      </trkpt>
      <trkpt lat="45.80459" lon="4.72704">
        <ele>358.5235</ele>
        <time>2023-07-02T15:42:13.000Z</time>
      </trkpt>
      <trkpt lat="45.80454" lon="4.72697">
        <ele>358.88379</ele>
        <time>2023-07-02T15:42:14.000Z</time>
      </trkpt>
      <trkpt lat="45.80448" lon="4.72691">
        <ele>359.17657</ele>
        <time>2023-07-02T15:42:15.000Z</time>
      </trkpt>
      <trkpt lat="45.80442" lon="4.72685">
        <ele>359.26682</ele>
        <time>2023-07-02T15:42:16.000Z</time>
      </trkpt>
      <trkpt lat="45.80436" lon="4.72681">
        <ele>359.39935</ele>
        <time>2023-07-02T15:42:17.000Z</time>
      </trkpt>
      <trkpt lat="45.80429" lon="4.72678">
        <ele>359.52448</ele>
        <time>2023-07-02T15:42:18.000Z</time>
      </trkpt>
      <trkpt lat="45.80423" lon="4.72675">
        <ele>359.77872</ele>
        <time>2023-07-02T15:42:19.000Z</time>
      </trkpt>
      <trkpt lat="45.80417" lon="4.72672">
        <ele>359.46591</ele>
        <time>2023-07-02T15:42:20.000Z</time>
      </trkpt>
      <trkpt lat="45.80408" lon="4.72668">
        <ele>359.10245</ele>
        <time>2023-07-02T15:42:21.000Z</time>
      </trkpt>
      <trkpt lat="45.80403" lon="4.72664">
        <ele>358.79257</ele>
        <time>2023-07-02T15:42:22.000Z</time>
      </trkpt>
      <trkpt lat="45.80395" lon="4.72659">
        <ele>358.42279</ele>
        <time>2023-07-02T15:42:23.000Z</time>
      </trkpt>
      <trkpt lat="45.80387" lon="4.72655">
        <ele>358.06964</ele>
        <time>2023-07-02T15:42:24.000Z</time>
      </trkpt>
      <trkpt lat="45.8038" lon="4.72652">
        <ele>357.98077</ele>
        <time>2023-07-02T15:42:25.000Z</time>
      </trkpt>
      <trkpt lat="45.80374" lon="4.72648">
        <ele>357.89426</ele>
        <time>2023-07-02T15:42:26.000Z</time>
      </trkpt>
      <trkpt lat="45.80366" lon="4.72643">
        <ele>357.77634</ele>
        <time>2023-07-02T15:42:27.000Z</time>
      </trkpt>
      <trkpt lat="45.80358" lon="4.72638">
        <ele>357.698</ele>
        <time>2023-07-02T15:42:28.000Z</time>
      </trkpt>
      <trkpt lat="45.8035" lon="4.72634">
        <ele>357.6181</ele>
        <time>2023-07-02T15:42:29.000Z</time>
      </trkpt>
      <trkpt lat="45.80343" lon="4.72631">
        <ele>357.46927</ele>
        <time>2023-07-02T15:42:30.000Z</time>
      </trkpt>
      <trkpt lat="45.80338" lon="4.72626">
        <ele>357.52521</ele>
        <time>2023-07-02T15:42:31.000Z</time>
      </trkpt>
      <trkpt lat="45.80331" lon="4.7262">
        <ele>357.55695</ele>
        <time>2023-07-02T15:42:32.000Z</time>
      </trkpt>
      <trkpt lat="45.80324" lon="4.72611">
        <ele>357.46027</ele>
        <time>2023-07-02T15:42:33.000Z</time>
      </trkpt>
      <trkpt lat="45.80319" lon="4.72606">
        <ele>357.38641</ele>
        <time>2023-07-02T15:42:34.000Z</time>
      </trkpt>
      <trkpt lat="45.80315" lon="4.72603">
        <ele>357.47229</ele>
        <time>2023-07-02T15:42:35.000Z</time>
      </trkpt>
      <trkpt lat="45.80311" lon="4.72599">
        <ele>357.78403</ele>
        <time>2023-07-02T15:42:36.000Z</time>
      </trkpt>
      <trkpt lat="45.80309" lon="4.72597">
        <ele>358.03201</ele>
        <time>2023-07-02T15:42:37.000Z</time>
      </trkpt>
      <trkpt lat="45.80308" lon="4.72596">
        <ele>358.51608</ele>
        <time>2023-07-02T15:42:39.000Z</time>
      </trkpt>
      <trkpt lat="45.80307" lon="4.72593">
        <ele>359.15927</ele>
        <time>2023-07-02T15:42:42.000Z</time>
      </trkpt>
      <trkpt lat="45.80305" lon="4.72593">
        <ele>359.71017</ele>
        <time>2023-07-02T15:42:43.000Z</time>
      </trkpt>
      <trkpt lat="45.80304" lon="4.72589">
        <ele>359.98471</ele>
        <time>2023-07-02T15:42:44.000Z</time>
      </trkpt>
      <trkpt lat="45.80302" lon="4.72587">
        <ele>360.27155</ele>
        <time>2023-07-02T15:42:45.000Z</time>
      </trkpt>
      <trkpt lat="45.803" lon="4.72584">
        <ele>360.55023</ele>
        <time>2023-07-02T15:42:46.000Z</time>
      </trkpt>
      <trkpt lat="45.80297" lon="4.72581">
        <ele>360.90314</ele>
        <time>2023-07-02T15:42:47.000Z</time>
      </trkpt>
      <trkpt lat="45.80294" lon="4.72578">
        <ele>360.85757</ele>
        <time>2023-07-02T15:42:48.000Z</time>
      </trkpt>
      <trkpt lat="45.8029" lon="4.72574">
        <ele>360.75885</ele>
        <time>2023-07-02T15:42:49.000Z</time>
      </trkpt>
      <trkpt lat="45.80286" lon="4.7257">
        <ele>360.67133</ele>
        <time>2023-07-02T15:42:50.000Z</time>
      </trkpt>
      <trkpt lat="45.80282" lon="4.72568">
        <ele>360.5798</ele>
        <time>2023-07-02T15:42:51.000Z</time>
      </trkpt>
      <trkpt lat="45.80279" lon="4.72565">
        <ele>360.62775</ele>
        <time>2023-07-02T15:42:52.000Z</time>
      </trkpt>
      <trkpt lat="45.80274" lon="4.72564">
        <ele>360.71533</ele>
        <time>2023-07-02T15:42:53.000Z</time>
      </trkpt>
      <trkpt lat="45.80271" lon="4.72562">
        <ele>360.66373</ele>
        <time>2023-07-02T15:42:54.000Z</time>
      </trkpt>
      <trkpt lat="45.80267" lon="4.72559">
        <ele>360.58813</ele>
        <time>2023-07-02T15:42:55.000Z</time>
      </trkpt>
      <trkpt lat="45.80264" lon="4.72557">
        <ele>360.80536</ele>
        <time>2023-07-02T15:42:56.000Z</time>
      </trkpt>
      <trkpt lat="45.80262" lon="4.72555">
        <ele>361.0195</ele>
        <time>2023-07-02T15:42:57.000Z</time>
      </trkpt>
      <trkpt lat="45.80259" lon="4.72552">
        <ele>361.20325</ele>
        <time>2023-07-02T15:42:58.000Z</time>
      </trkpt>
      <trkpt lat="45.80257" lon="4.72551">
        <ele>361.44257</ele>
        <time>2023-07-02T15:42:59.000Z</time>
      </trkpt>
      <trkpt lat="45.80254" lon="4.72551">
        <ele>361.74295</ele>
        <time>2023-07-02T15:43:00.000Z</time>
      </trkpt>
      <trkpt lat="45.80251" lon="4.7255">
        <ele>361.37506</ele>
        <time>2023-07-02T15:43:01.000Z</time>
      </trkpt>
      <trkpt lat="45.80248" lon="4.72549">
        <ele>360.82587</ele>
        <time>2023-07-02T15:43:02.000Z</time>
      </trkpt>
      <trkpt lat="45.80245" lon="4.72547">
        <ele>360.38635</ele>
        <time>2023-07-02T15:43:03.000Z</time>
      </trkpt>
      <trkpt lat="45.80241" lon="4.72545">
        <ele>360.31494</ele>
        <time>2023-07-02T15:43:04.000Z</time>
      </trkpt>
      <trkpt lat="45.80238" lon="4.72543">
        <ele>360.19077</ele>
        <time>2023-07-02T15:43:05.000Z</time>
      </trkpt>
      <trkpt lat="45.80233" lon="4.72541">
        <ele>360.10944</ele>
        <time>2023-07-02T15:43:06.000Z</time>
      </trkpt>
      <trkpt lat="45.80229" lon="4.72538">
        <ele>360.19904</ele>
        <time>2023-07-02T15:43:07.000Z</time>
      </trkpt>
      <trkpt lat="45.80226" lon="4.72536">
        <ele>359.88483</ele>
        <time>2023-07-02T15:43:08.000Z</time>
      </trkpt>
      <trkpt lat="45.80222" lon="4.72534">
        <ele>358.89899</ele>
        <time>2023-07-02T15:43:09.000Z</time>
      </trkpt>
      <trkpt lat="45.80219" lon="4.72533">
        <ele>358.02713</ele>
        <time>2023-07-02T15:43:10.000Z</time>
      </trkpt>
      <trkpt lat="45.80216" lon="4.72532">
        <ele>357.1087</ele>
        <time>2023-07-02T15:43:11.000Z</time>
      </trkpt>
      <trkpt lat="45.80213" lon="4.7253">
        <ele>356.14478</ele>
        <time>2023-07-02T15:43:12.000Z</time>
      </trkpt>
      <trkpt lat="45.8021" lon="4.72526">
        <ele>355.23712</ele>
        <time>2023-07-02T15:43:13.000Z</time>
      </trkpt>
      <trkpt lat="45.80208" lon="4.72521">
        <ele>354.32709</ele>
        <time>2023-07-02T15:43:14.000Z</time>
      </trkpt>
      <trkpt lat="45.80208" lon="4.72516">
        <ele>353.43231</ele>
        <time>2023-07-02T15:43:15.000Z</time>
      </trkpt>
      <trkpt lat="45.80207" lon="4.7251">
        <ele>352.36432</ele>
        <time>2023-07-02T15:43:16.000Z</time>
      </trkpt>
      <trkpt lat="45.80208" lon="4.72505">
        <ele>351.21143</ele>
        <time>2023-07-02T15:43:17.000Z</time>
      </trkpt>
      <trkpt lat="45.80207" lon="4.725">
        <ele>350.03946</ele>
        <time>2023-07-02T15:43:18.000Z</time>
      </trkpt>
      <trkpt lat="45.80207" lon="4.72495">
        <ele>348.78802</ele>
        <time>2023-07-02T15:43:19.000Z</time>
      </trkpt>
      <trkpt lat="45.80206" lon="4.7249">
        <ele>347.52362</ele>
        <time>2023-07-02T15:43:20.000Z</time>
      </trkpt>
      <trkpt lat="45.80205" lon="4.72485">
        <ele>346.70358</ele>
        <time>2023-07-02T15:43:21.000Z</time>
      </trkpt>
      <trkpt lat="45.80204" lon="4.72481">
        <ele>345.85486</ele>
        <time>2023-07-02T15:43:22.000Z</time>
      </trkpt>
      <trkpt lat="45.80203" lon="4.72476">
        <ele>344.98178</ele>
        <time>2023-07-02T15:43:23.000Z</time>
      </trkpt>
      <trkpt lat="45.80202" lon="4.72471">
        <ele>344.09442</ele>
        <time>2023-07-02T15:43:24.000Z</time>
      </trkpt>
      <trkpt lat="45.802" lon="4.72466">
        <ele>343.2464</ele>
        <time>2023-07-02T15:43:25.000Z</time>
      </trkpt>
      <trkpt lat="45.80199" lon="4.72461">
        <ele>342.33646</ele>
        <time>2023-07-02T15:43:26.000Z</time>
      </trkpt>
      <trkpt lat="45.80198" lon="4.72458">
        <ele>341.22287</ele>
        <time>2023-07-02T15:43:27.000Z</time>
      </trkpt>
      <trkpt lat="45.80196" lon="4.72455">
        <ele>341.55463</ele>
        <time>2023-07-02T15:43:28.000Z</time>
      </trkpt>
      <trkpt lat="45.80193" lon="4.72454">
        <ele>342.60919</ele>
        <time>2023-07-02T15:43:29.000Z</time>
      </trkpt>
      <trkpt lat="45.80189" lon="4.72455">
        <ele>343.81982</ele>
        <time>2023-07-02T15:43:30.000Z</time>
      </trkpt>
      <trkpt lat="45.80186" lon="4.72457">
        <ele>345.15997</ele>
        <time>2023-07-02T15:43:31.000Z</time>
      </trkpt>
      <trkpt lat="45.80182" lon="4.72459">
        <ele>346.45734</ele>
        <time>2023-07-02T15:43:32.000Z</time>
      </trkpt>
      <trkpt lat="45.80179" lon="4.72461">
        <ele>347.70709</ele>
        <time>2023-07-02T15:43:33.000Z</time>
      </trkpt>
      <trkpt lat="45.80176" lon="4.72463">
        <ele>348.59711</ele>
        <time>2023-07-02T15:43:34.000Z</time>
      </trkpt>
      <trkpt lat="45.80173" lon="4.72466">
        <ele>349.59375</ele>
        <time>2023-07-02T15:43:35.000Z</time>
      </trkpt>
      <trkpt lat="45.80169" lon="4.72469">
        <ele>350.50299</ele>
        <time>2023-07-02T15:43:36.000Z</time>
      </trkpt>
      <trkpt lat="45.80166" lon="4.72471">
        <ele>351.40707</ele>
        <time>2023-07-02T15:43:37.000Z</time>
      </trkpt>
      <trkpt lat="45.80164" lon="4.72472">
        <ele>352.31793</ele>
        <time>2023-07-02T15:43:38.000Z</time>
      </trkpt>
      <trkpt lat="45.80161" lon="4.72474">
        <ele>353.38541</ele>
        <time>2023-07-02T15:43:39.000Z</time>
      </trkpt>
      <trkpt lat="45.80158" lon="4.72475">
        <ele>354.50226</ele>
        <time>2023-07-02T15:43:40.000Z</time>
      </trkpt>
      <trkpt lat="45.80155" lon="4.72477">
        <ele>355.61438</ele>
        <time>2023-07-02T15:43:41.000Z</time>
      </trkpt>
      <trkpt lat="45.80151" lon="4.72479">
        <ele>356.69724</ele>
        <time>2023-07-02T15:43:42.000Z</time>
      </trkpt>
      <trkpt lat="45.80147" lon="4.72481">
        <ele>357.71146</ele>
        <time>2023-07-02T15:43:43.000Z</time>
      </trkpt>
      <trkpt lat="45.80143" lon="4.72482">
        <ele>358.74564</ele>
        <time>2023-07-02T15:43:44.000Z</time>
      </trkpt>
      <trkpt lat="45.80139" lon="4.72484">
        <ele>359.74841</ele>
        <time>2023-07-02T15:43:45.000Z</time>
      </trkpt>
      <trkpt lat="45.80136" lon="4.72486">
        <ele>360.789</ele>
        <time>2023-07-02T15:43:46.000Z</time>
      </trkpt>
      <trkpt lat="45.80133" lon="4.72487">
        <ele>361.74902</ele>
        <time>2023-07-02T15:43:47.000Z</time>
      </trkpt>
      <trkpt lat="45.80129" lon="4.72489">
        <ele>361.63745</ele>
        <time>2023-07-02T15:43:48.000Z</time>
      </trkpt>
      <trkpt lat="45.80125" lon="4.72491">
        <ele>361.59149</ele>
        <time>2023-07-02T15:43:49.000Z</time>
      </trkpt>
      <trkpt lat="45.80121" lon="4.72492">
        <ele>361.3454</ele>
        <time>2023-07-02T15:43:50.000Z</time>
      </trkpt>
      <trkpt lat="45.80117" lon="4.72494">
        <ele>361.06088</ele>
        <time>2023-07-02T15:43:51.000Z</time>
      </trkpt>
      <trkpt lat="45.80114" lon="4.72496">
        <ele>360.81732</ele>
        <time>2023-07-02T15:43:52.000Z</time>
      </trkpt>
      <trkpt lat="45.8011" lon="4.72498">
        <ele>360.60547</ele>
        <time>2023-07-02T15:43:53.000Z</time>
      </trkpt>
      <trkpt lat="45.80107" lon="4.72501">
        <ele>360.77328</ele>
        <time>2023-07-02T15:43:54.000Z</time>
      </trkpt>
      <trkpt lat="45.80104" lon="4.72503">
        <ele>360.85541</ele>
        <time>2023-07-02T15:43:55.000Z</time>
      </trkpt>
      <trkpt lat="45.801" lon="4.72504">
        <ele>361.04108</ele>
        <time>2023-07-02T15:43:56.000Z</time>
      </trkpt>
      <trkpt lat="45.80097" lon="4.72505">
        <ele>361.23566</ele>
        <time>2023-07-02T15:43:57.000Z</time>
      </trkpt>
      <trkpt lat="45.80094" lon="4.72505">
        <ele>361.28427</ele>
        <time>2023-07-02T15:43:58.000Z</time>
      </trkpt>
      <trkpt lat="45.80091" lon="4.72505">
        <ele>361.15381</ele>
        <time>2023-07-02T15:43:59.000Z</time>
      </trkpt>
      <trkpt lat="45.80088" lon="4.72505">
        <ele>360.95557</ele>
        <time>2023-07-02T15:44:00.000Z</time>
      </trkpt>
      <trkpt lat="45.80086" lon="4.72505">
        <ele>360.74326</ele>
        <time>2023-07-02T15:44:01.000Z</time>
      </trkpt>
      <trkpt lat="45.80083" lon="4.72505">
        <ele>360.59839</ele>
        <time>2023-07-02T15:44:02.000Z</time>
      </trkpt>
      <trkpt lat="45.8008" lon="4.72506">
        <ele>360.52924</ele>
        <time>2023-07-02T15:44:03.000Z</time>
      </trkpt>
      <trkpt lat="45.80077" lon="4.72507">
        <ele>360.47867</ele>
        <time>2023-07-02T15:44:04.000Z</time>
      </trkpt>
      <trkpt lat="45.80075" lon="4.72509">
        <ele>360.38647</ele>
        <time>2023-07-02T15:44:05.000Z</time>
      </trkpt>
      <trkpt lat="45.80071" lon="4.72511">
        <ele>360.25641</ele>
        <time>2023-07-02T15:44:06.000Z</time>
      </trkpt>
      <trkpt lat="45.80068" lon="4.72512">
        <ele>360.22858</ele>
        <time>2023-07-02T15:44:07.000Z</time>
      </trkpt>
      <trkpt lat="45.80065" lon="4.72514">
        <ele>360.2298</ele>
        <time>2023-07-02T15:44:08.000Z</time>
      </trkpt>
      <trkpt lat="45.80062" lon="4.72516">
        <ele>360.08942</ele>
        <time>2023-07-02T15:44:09.000Z</time>
      </trkpt>
      <trkpt lat="45.80059" lon="4.72518">
        <ele>360.0079</ele>
        <time>2023-07-02T15:44:10.000Z</time>
      </trkpt>
      <trkpt lat="45.80056" lon="4.72519">
        <ele>359.79221</ele>
        <time>2023-07-02T15:44:11.000Z</time>
      </trkpt>
      <trkpt lat="45.80053" lon="4.72519">
        <ele>359.56122</ele>
        <time>2023-07-02T15:44:12.000Z</time>
      </trkpt>
      <trkpt lat="45.8005" lon="4.7252">
        <ele>359.33591</ele>
        <time>2023-07-02T15:44:13.000Z</time>
      </trkpt>
      <trkpt lat="45.80047" lon="4.72522">
        <ele>359.19452</ele>
        <time>2023-07-02T15:44:14.000Z</time>
      </trkpt>
      <trkpt lat="45.80043" lon="4.72525">
        <ele>359.19281</ele>
        <time>2023-07-02T15:44:15.000Z</time>
      </trkpt>
      <trkpt lat="45.8004" lon="4.72526">
        <ele>358.48419</ele>
        <time>2023-07-02T15:44:16.000Z</time>
      </trkpt>
      <trkpt lat="45.80037" lon="4.72527">
        <ele>357.6857</ele>
        <time>2023-07-02T15:44:17.000Z</time>
      </trkpt>
      <trkpt lat="45.80033" lon="4.72528">
        <ele>356.98639</ele>
        <time>2023-07-02T15:44:18.000Z</time>
      </trkpt>
      <trkpt lat="45.8003" lon="4.7253">
        <ele>356.34277</ele>
        <time>2023-07-02T15:44:19.000Z</time>
      </trkpt>
      <trkpt lat="45.80026" lon="4.72531">
        <ele>355.66937</ele>
        <time>2023-07-02T15:44:20.000Z</time>
      </trkpt>
      <trkpt lat="45.80022" lon="4.72533">
        <ele>354.97885</ele>
        <time>2023-07-02T15:44:21.000Z</time>
      </trkpt>
      <trkpt lat="45.80015" lon="4.72537">
        <ele>354.30353</ele>
        <time>2023-07-02T15:44:22.000Z</time>
      </trkpt>
      <trkpt lat="45.80011" lon="4.72539">
        <ele>353.64203</ele>
        <time>2023-07-02T15:44:23.000Z</time>
      </trkpt>
      <trkpt lat="45.80007" lon="4.7254">
        <ele>352.99109</ele>
        <time>2023-07-02T15:44:24.000Z</time>
      </trkpt>
      <trkpt lat="45.80004" lon="4.72542">
        <ele>352.35727</ele>
        <time>2023-07-02T15:44:25.000Z</time>
      </trkpt>
      <trkpt lat="45.8" lon="4.72543">
        <ele>351.63269</ele>
        <time>2023-07-02T15:44:26.000Z</time>
      </trkpt>
      <trkpt lat="45.79997" lon="4.72543">
        <ele>350.85864</ele>
        <time>2023-07-02T15:44:27.000Z</time>
      </trkpt>
      <trkpt lat="45.79993" lon="4.72545">
        <ele>350.08496</ele>
        <time>2023-07-02T15:44:28.000Z</time>
      </trkpt>
      <trkpt lat="45.79989" lon="4.72546">
        <ele>349.36792</ele>
        <time>2023-07-02T15:44:29.000Z</time>
      </trkpt>
      <trkpt lat="45.79984" lon="4.72548">
        <ele>348.61603</ele>
        <time>2023-07-02T15:44:30.000Z</time>
      </trkpt>
      <trkpt lat="45.7998" lon="4.72549">
        <ele>347.91129</ele>
        <time>2023-07-02T15:44:31.000Z</time>
      </trkpt>
      <trkpt lat="45.79976" lon="4.7255">
        <ele>347.24628</ele>
        <time>2023-07-02T15:44:32.000Z</time>
      </trkpt>
      <trkpt lat="45.79971" lon="4.72551">
        <ele>346.62729</ele>
        <time>2023-07-02T15:44:33.000Z</time>
      </trkpt>
      <trkpt lat="45.79967" lon="4.7255">
        <ele>345.9635</ele>
        <time>2023-07-02T15:44:34.000Z</time>
      </trkpt>
      <trkpt lat="45.79962" lon="4.72548">
        <ele>345.16171</ele>
        <time>2023-07-02T15:44:35.000Z</time>
      </trkpt>
      <trkpt lat="45.79958" lon="4.72547">
        <ele>345.02234</ele>
        <time>2023-07-02T15:44:36.000Z</time>
      </trkpt>
      <trkpt lat="45.79954" lon="4.72544">
        <ele>344.98077</ele>
        <time>2023-07-02T15:44:37.000Z</time>
      </trkpt>
      <trkpt lat="45.79951" lon="4.72541">
        <ele>344.99652</ele>
        <time>2023-07-02T15:44:38.000Z</time>
      </trkpt>
      <trkpt lat="45.79946" lon="4.72538">
        <ele>345.05624</ele>
        <time>2023-07-02T15:44:39.000Z</time>
      </trkpt>
      <trkpt lat="45.79942" lon="4.72534">
        <ele>345.19138</ele>
        <time>2023-07-02T15:44:40.000Z</time>
      </trkpt>
      <trkpt lat="45.79938" lon="4.72533">
        <ele>345.39465</ele>
        <time>2023-07-02T15:44:41.000Z</time>
      </trkpt>
      <trkpt lat="45.79935" lon="4.72532">
        <ele>345.47043</ele>
        <time>2023-07-02T15:44:42.000Z</time>
      </trkpt>
      <trkpt lat="45.7993" lon="4.72531">
        <ele>345.53616</ele>
        <time>2023-07-02T15:44:43.000Z</time>
      </trkpt>
      <trkpt lat="45.79926" lon="4.72531">
        <ele>345.5755</ele>
        <time>2023-07-02T15:44:44.000Z</time>
      </trkpt>
      <trkpt lat="45.79921" lon="4.72531">
        <ele>345.62152</ele>
        <time>2023-07-02T15:44:45.000Z</time>
      </trkpt>
      <trkpt lat="45.79916" lon="4.72531">
        <ele>345.75958</ele>
        <time>2023-07-02T15:44:46.000Z</time>
      </trkpt>
      <trkpt lat="45.79911" lon="4.7253">
        <ele>345.86917</ele>
        <time>2023-07-02T15:44:47.000Z</time>
      </trkpt>
      <trkpt lat="45.79906" lon="4.72532">
        <ele>345.96091</ele>
        <time>2023-07-02T15:44:48.000Z</time>
      </trkpt>
      <trkpt lat="45.799" lon="4.72533">
        <ele>346.09616</ele>
        <time>2023-07-02T15:44:49.000Z</time>
      </trkpt>
      <trkpt lat="45.79895" lon="4.72533">
        <ele>346.25214</ele>
        <time>2023-07-02T15:44:50.000Z</time>
      </trkpt>
      <trkpt lat="45.79891" lon="4.72535">
        <ele>346.4791</ele>
        <time>2023-07-02T15:44:51.000Z</time>
      </trkpt>
      <trkpt lat="45.79885" lon="4.72536">
        <ele>346.67206</ele>
        <time>2023-07-02T15:44:52.000Z</time>
      </trkpt>
      <trkpt lat="45.79881" lon="4.72537">
        <ele>346.83871</ele>
        <time>2023-07-02T15:44:53.000Z</time>
      </trkpt>
      <trkpt lat="45.79876" lon="4.72538">
        <ele>346.93137</ele>
        <time>2023-07-02T15:44:54.000Z</time>
      </trkpt>
      <trkpt lat="45.79871" lon="4.72538">
        <ele>347.05548</ele>
        <time>2023-07-02T15:44:55.000Z</time>
      </trkpt>
      <trkpt lat="45.79866" lon="4.7254">
        <ele>347.15265</ele>
        <time>2023-07-02T15:44:56.000Z</time>
      </trkpt>
      <trkpt lat="45.79862" lon="4.7254">
        <ele>347.27222</ele>
        <time>2023-07-02T15:44:57.000Z</time>
      </trkpt>
      <trkpt lat="45.79858" lon="4.7254">
        <ele>347.3688</ele>
        <time>2023-07-02T15:44:58.000Z</time>
      </trkpt>
      <trkpt lat="45.79855" lon="4.7254">
        <ele>347.38556</ele>
        <time>2023-07-02T15:44:59.000Z</time>
      </trkpt>
      <trkpt lat="45.79851" lon="4.7254">
        <ele>347.41864</ele>
        <time>2023-07-02T15:45:00.000Z</time>
      </trkpt>
      <trkpt lat="45.79847" lon="4.7254">
        <ele>347.38248</ele>
        <time>2023-07-02T15:45:01.000Z</time>
      </trkpt>
      <trkpt lat="45.79844" lon="4.72539">
        <ele>347.44196</ele>
        <time>2023-07-02T15:45:02.000Z</time>
      </trkpt>
      <trkpt lat="45.79841" lon="4.7254">
        <ele>347.48438</ele>
        <time>2023-07-02T15:45:03.000Z</time>
      </trkpt>
      <trkpt lat="45.79838" lon="4.7254">
        <ele>347.51807</ele>
        <time>2023-07-02T15:45:04.000Z</time>
      </trkpt>
      <trkpt lat="45.79836" lon="4.7254">
        <ele>347.54449</ele>
        <time>2023-07-02T15:45:05.000Z</time>
      </trkpt>
      <trkpt lat="45.79832" lon="4.72541">
        <ele>347.64032</ele>
        <time>2023-07-02T15:45:06.000Z</time>
      </trkpt>
      <trkpt lat="45.79828" lon="4.72542">
        <ele>347.64474</ele>
        <time>2023-07-02T15:45:07.000Z</time>
      </trkpt>
      <trkpt lat="45.79825" lon="4.72542">
        <ele>347.70895</ele>
        <time>2023-07-02T15:45:08.000Z</time>
      </trkpt>
      <trkpt lat="45.7982" lon="4.72543">
        <ele>347.75201</ele>
        <time>2023-07-02T15:45:09.000Z</time>
      </trkpt>
      <trkpt lat="45.79816" lon="4.72543">
        <ele>347.78741</ele>
        <time>2023-07-02T15:45:10.000Z</time>
      </trkpt>
      <trkpt lat="45.79812" lon="4.72542">
        <ele>347.75342</ele>
        <time>2023-07-02T15:45:11.000Z</time>
      </trkpt>
      <trkpt lat="45.79808" lon="4.72541">
        <ele>347.71643</ele>
        <time>2023-07-02T15:45:12.000Z</time>
      </trkpt>
      <trkpt lat="45.79805" lon="4.72538">
        <ele>347.67136</ele>
        <time>2023-07-02T15:45:13.000Z</time>
      </trkpt>
      <trkpt lat="45.79802" lon="4.72535">
        <ele>347.73071</ele>
        <time>2023-07-02T15:45:14.000Z</time>
      </trkpt>
      <trkpt lat="45.79799" lon="4.7253">
        <ele>347.70941</ele>
        <time>2023-07-02T15:45:15.000Z</time>
      </trkpt>
      <trkpt lat="45.79798" lon="4.72527">
        <ele>347.74139</ele>
        <time>2023-07-02T15:45:16.000Z</time>
      </trkpt>
      <trkpt lat="45.79797" lon="4.72523">
        <ele>347.73755</ele>
        <time>2023-07-02T15:45:17.000Z</time>
      </trkpt>
      <trkpt lat="45.79796" lon="4.72518">
        <ele>347.73114</ele>
        <time>2023-07-02T15:45:18.000Z</time>
      </trkpt>
      <trkpt lat="45.79795" lon="4.72513">
        <ele>347.78384</ele>
        <time>2023-07-02T15:45:19.000Z</time>
      </trkpt>
      <trkpt lat="45.79795" lon="4.72509">
        <ele>347.8204</ele>
        <time>2023-07-02T15:45:20.000Z</time>
      </trkpt>
      <trkpt lat="45.79795" lon="4.72505">
        <ele>347.91254</ele>
        <time>2023-07-02T15:45:21.000Z</time>
      </trkpt>
      <trkpt lat="45.79794" lon="4.725">
        <ele>347.93292</ele>
        <time>2023-07-02T15:45:22.000Z</time>
      </trkpt>
      <trkpt lat="45.79794" lon="4.72495">
        <ele>347.9689</ele>
        <time>2023-07-02T15:45:23.000Z</time>
      </trkpt>
      <trkpt lat="45.79793" lon="4.72491">
        <ele>347.96259</ele>
        <time>2023-07-02T15:45:24.000Z</time>
      </trkpt>
      <trkpt lat="45.79793" lon="4.72486">
        <ele>347.98892</ele>
        <time>2023-07-02T15:45:25.000Z</time>
      </trkpt>
      <trkpt lat="45.79793" lon="4.72481">
        <ele>347.93219</ele>
        <time>2023-07-02T15:45:26.000Z</time>
      </trkpt>
      <trkpt lat="45.79792" lon="4.72477">
        <ele>347.98187</ele>
        <time>2023-07-02T15:45:27.000Z</time>
      </trkpt>
      <trkpt lat="45.79791" lon="4.72473">
        <ele>348.02722</ele>
        <time>2023-07-02T15:45:28.000Z</time>
      </trkpt>
      <trkpt lat="45.7979" lon="4.72469">
        <ele>348.0108</ele>
        <time>2023-07-02T15:45:29.000Z</time>
      </trkpt>
      <trkpt lat="45.79789" lon="4.72466">
        <ele>348.00394</ele>
        <time>2023-07-02T15:45:30.000Z</time>
      </trkpt>
      <trkpt lat="45.79787" lon="4.72462">
        <ele>347.99341</ele>
        <time>2023-07-02T15:45:31.000Z</time>
      </trkpt>
      <trkpt lat="45.79785" lon="4.72457">
        <ele>347.99786</ele>
        <time>2023-07-02T15:45:32.000Z</time>
      </trkpt>
      <trkpt lat="45.79783" lon="4.72452">
        <ele>348.01932</ele>
        <time>2023-07-02T15:45:33.000Z</time>
      </trkpt>
      <trkpt lat="45.79781" lon="4.72447">
        <ele>348.03644</ele>
        <time>2023-07-02T15:45:34.000Z</time>
      </trkpt>
      <trkpt lat="45.79779" lon="4.72443">
        <ele>348.12949</ele>
        <time>2023-07-02T15:45:35.000Z</time>
      </trkpt>
      <trkpt lat="45.79777" lon="4.7244">
        <ele>348.19952</ele>
        <time>2023-07-02T15:45:36.000Z</time>
      </trkpt>
      <trkpt lat="45.79775" lon="4.72437">
        <ele>348.32758</ele>
        <time>2023-07-02T15:45:37.000Z</time>
      </trkpt>
      <trkpt lat="45.79773" lon="4.72433">
        <ele>348.45547</ele>
        <time>2023-07-02T15:45:38.000Z</time>
      </trkpt>
      <trkpt lat="45.7977" lon="4.72429">
        <ele>348.48749</ele>
        <time>2023-07-02T15:45:39.000Z</time>
      </trkpt>
      <trkpt lat="45.79769" lon="4.72426">
        <ele>348.55237</ele>
        <time>2023-07-02T15:45:40.000Z</time>
      </trkpt>
      <trkpt lat="45.79768" lon="4.72422">
        <ele>348.57458</ele>
        <time>2023-07-02T15:45:41.000Z</time>
      </trkpt>
      <trkpt lat="45.79767" lon="4.72419">
        <ele>348.66815</ele>
        <time>2023-07-02T15:45:42.000Z</time>
      </trkpt>
      <trkpt lat="45.79768" lon="4.72415">
        <ele>348.73367</ele>
        <time>2023-07-02T15:45:43.000Z</time>
      </trkpt>
      <trkpt lat="45.79769" lon="4.72413">
        <ele>348.84503</ele>
        <time>2023-07-02T15:45:44.000Z</time>
      </trkpt>
      <trkpt lat="45.79769" lon="4.7241">
        <ele>348.88779</ele>
        <time>2023-07-02T15:45:48.000Z</time>
      </trkpt>
      <trkpt lat="45.79771" lon="4.72407">
        <ele>348.87387</ele>
        <time>2023-07-02T15:46:11.000Z</time>
      </trkpt>
      <trkpt lat="45.79773" lon="4.72407">
        <ele>348.85626</ele>
        <time>2023-07-02T15:46:14.000Z</time>
      </trkpt>
      <trkpt lat="45.79776" lon="4.72406">
        <ele>348.88153</ele>
        <time>2023-07-02T15:46:16.000Z</time>
      </trkpt>
      <trkpt lat="45.79779" lon="4.72405">
        <ele>348.96921</ele>
        <time>2023-07-02T15:46:17.000Z</time>
      </trkpt>
      <trkpt lat="45.79781" lon="4.72404">
        <ele>349.01749</ele>
        <time>2023-07-02T15:46:18.000Z</time>
      </trkpt>
      <trkpt lat="45.79784" lon="4.72402">
        <ele>349.0661</ele>
        <time>2023-07-02T15:46:19.000Z</time>
      </trkpt>
      <trkpt lat="45.79786" lon="4.72401">
        <ele>349.1015</ele>
        <time>2023-07-02T15:46:20.000Z</time>
      </trkpt>
      <trkpt lat="45.79789" lon="4.724">
        <ele>349.17004</ele>
        <time>2023-07-02T15:46:21.000Z</time>
      </trkpt>
      <trkpt lat="45.79793" lon="4.72399">
        <ele>349.8866</ele>
        <time>2023-07-02T15:46:22.000Z</time>
      </trkpt>
      <trkpt lat="45.79796" lon="4.72397">
        <ele>350.50378</ele>
        <time>2023-07-02T15:46:23.000Z</time>
      </trkpt>
      <trkpt lat="45.79799" lon="4.72396">
        <ele>351.15393</ele>
        <time>2023-07-02T15:46:24.000Z</time>
      </trkpt>
      <trkpt lat="45.79803" lon="4.72394">
        <ele>351.85098</ele>
        <time>2023-07-02T15:46:25.000Z</time>
      </trkpt>
      <trkpt lat="45.79806" lon="4.72393">
        <ele>352.54626</ele>
        <time>2023-07-02T15:46:26.000Z</time>
      </trkpt>
      <trkpt lat="45.79809" lon="4.72391">
        <ele>353.36966</ele>
        <time>2023-07-02T15:46:27.000Z</time>
      </trkpt>
      <trkpt lat="45.79812" lon="4.72389">
        <ele>354.1156</ele>
        <time>2023-07-02T15:46:28.000Z</time>
      </trkpt>
      <trkpt lat="45.79815" lon="4.72388">
        <ele>354.9743</ele>
        <time>2023-07-02T15:46:29.000Z</time>
      </trkpt>
      <trkpt lat="45.79818" lon="4.72386">
        <ele>355.84033</ele>
        <time>2023-07-02T15:46:30.000Z</time>
      </trkpt>
      <trkpt lat="45.79822" lon="4.72384">
        <ele>356.68652</ele>
        <time>2023-07-02T15:46:31.000Z</time>
      </trkpt>
      <trkpt lat="45.79825" lon="4.72383">
        <ele>357.27042</ele>
        <time>2023-07-02T15:46:32.000Z</time>
      </trkpt>
      <trkpt lat="45.79828" lon="4.72381">
        <ele>357.97714</ele>
        <time>2023-07-02T15:46:33.000Z</time>
      </trkpt>
      <trkpt lat="45.7983" lon="4.72379">
        <ele>358.79614</ele>
        <time>2023-07-02T15:46:34.000Z</time>
      </trkpt>
      <trkpt lat="45.79833" lon="4.72377">
        <ele>359.60849</ele>
        <time>2023-07-02T15:46:35.000Z</time>
      </trkpt>
      <trkpt lat="45.79836" lon="4.72375">
        <ele>360.42456</ele>
        <time>2023-07-02T15:46:36.000Z</time>
      </trkpt>
      <trkpt lat="45.79839" lon="4.72373">
        <ele>361.27057</ele>
        <time>2023-07-02T15:46:37.000Z</time>
      </trkpt>
      <trkpt lat="45.79842" lon="4.72372">
        <ele>362.12778</ele>
        <time>2023-07-02T15:46:38.000Z</time>
      </trkpt>
      <trkpt lat="45.79846" lon="4.7237">
        <ele>362.95416</ele>
        <time>2023-07-02T15:46:39.000Z</time>
      </trkpt>
      <trkpt lat="45.79849" lon="4.72368">
        <ele>363.77225</ele>
        <time>2023-07-02T15:46:40.000Z</time>
      </trkpt>
      <trkpt lat="45.79852" lon="4.72366">
        <ele>364.72363</ele>
        <time>2023-07-02T15:46:41.000Z</time>
      </trkpt>
      <trkpt lat="45.79856" lon="4.72364">
        <ele>365.06805</ele>
        <time>2023-07-02T15:46:42.000Z</time>
      </trkpt>
      <trkpt lat="45.79859" lon="4.72363">
        <ele>365.48743</ele>
        <time>2023-07-02T15:46:43.000Z</time>
      </trkpt>
      <trkpt lat="45.79863" lon="4.72361">
        <ele>365.85754</ele>
        <time>2023-07-02T15:46:44.000Z</time>
      </trkpt>
      <trkpt lat="45.79867" lon="4.7236">
        <ele>366.08096</ele>
        <time>2023-07-02T15:46:45.000Z</time>
      </trkpt>
      <trkpt lat="45.7987" lon="4.72358">
        <ele>366.30206</ele>
        <time>2023-07-02T15:46:46.000Z</time>
      </trkpt>
      <trkpt lat="45.79874" lon="4.72357">
        <ele>366.479</ele>
        <time>2023-07-02T15:46:47.000Z</time>
      </trkpt>
      <trkpt lat="45.79878" lon="4.72356">
        <ele>366.71133</ele>
        <time>2023-07-02T15:46:48.000Z</time>
      </trkpt>
      <trkpt lat="45.79882" lon="4.72355">
        <ele>366.80737</ele>
        <time>2023-07-02T15:46:49.000Z</time>
      </trkpt>
      <trkpt lat="45.79886" lon="4.72353">
        <ele>366.88934</ele>
        <time>2023-07-02T15:46:50.000Z</time>
      </trkpt>
      <trkpt lat="45.7989" lon="4.72352">
        <ele>367.03793</ele>
        <time>2023-07-02T15:46:51.000Z</time>
      </trkpt>
      <trkpt lat="45.79893" lon="4.72351">
        <ele>367.50464</ele>
        <time>2023-07-02T15:46:52.000Z</time>
      </trkpt>
      <trkpt lat="45.79897" lon="4.7235">
        <ele>367.5199</ele>
        <time>2023-07-02T15:46:53.000Z</time>
      </trkpt>
      <trkpt lat="45.799" lon="4.7235">
        <ele>367.40289</ele>
        <time>2023-07-02T15:46:54.000Z</time>
      </trkpt>
      <trkpt lat="45.79904" lon="4.72351">
        <ele>367.2561</ele>
        <time>2023-07-02T15:46:55.000Z</time>
      </trkpt>
      <trkpt lat="45.79907" lon="4.72353">
        <ele>367.0239</ele>
        <time>2023-07-02T15:46:56.000Z</time>
      </trkpt>
      <trkpt lat="45.7991" lon="4.72353">
        <ele>366.75186</ele>
        <time>2023-07-02T15:46:57.000Z</time>
      </trkpt>
      <trkpt lat="45.79913" lon="4.72354">
        <ele>366.47882</ele>
        <time>2023-07-02T15:46:58.000Z</time>
      </trkpt>
      <trkpt lat="45.79916" lon="4.72353">
        <ele>366.185</ele>
        <time>2023-07-02T15:46:59.000Z</time>
      </trkpt>
      <trkpt lat="45.79918" lon="4.72353">
        <ele>365.91827</ele>
        <time>2023-07-02T15:47:00.000Z</time>
      </trkpt>
      <trkpt lat="45.79921" lon="4.72353">
        <ele>365.49048</ele>
        <time>2023-07-02T15:47:02.000Z</time>
      </trkpt>
      <trkpt lat="45.79923" lon="4.72354">
        <ele>365.14755</ele>
        <time>2023-07-02T15:47:04.000Z</time>
      </trkpt>
      <trkpt lat="45.79921" lon="4.72355">
        <ele>364.64227</ele>
        <time>2023-07-02T15:47:19.000Z</time>
      </trkpt>
      <trkpt lat="45.79919" lon="4.72354">
        <ele>364.0553</ele>
        <time>2023-07-02T15:47:25.000Z</time>
      </trkpt>
      <trkpt lat="45.79914" lon="4.72355">
        <ele>363.52408</ele>
        <time>2023-07-02T15:47:27.000Z</time>
      </trkpt>
      <trkpt lat="45.79911" lon="4.72355">
        <ele>363.00818</ele>
        <time>2023-07-02T15:47:28.000Z</time>
      </trkpt>
      <trkpt lat="45.79909" lon="4.72355">
        <ele>362.47559</ele>
        <time>2023-07-02T15:47:29.000Z</time>
      </trkpt>
      <trkpt lat="45.79906" lon="4.72355">
        <ele>361.89786</ele>
        <time>2023-07-02T15:47:30.000Z</time>
      </trkpt>
      <trkpt lat="45.79903" lon="4.72355">
        <ele>361.38208</ele>
        <time>2023-07-02T15:47:31.000Z</time>
      </trkpt>
      <trkpt lat="45.79901" lon="4.72354">
        <ele>360.84491</ele>
        <time>2023-07-02T15:47:32.000Z</time>
      </trkpt>
      <trkpt lat="45.79898" lon="4.72353">
        <ele>360.29358</ele>
        <time>2023-07-02T15:47:33.000Z</time>
      </trkpt>
      <trkpt lat="45.79895" lon="4.72353">
        <ele>359.65155</ele>
        <time>2023-07-02T15:47:34.000Z</time>
      </trkpt>
      <trkpt lat="45.79893" lon="4.72353">
        <ele>359.38647</ele>
        <time>2023-07-02T15:47:35.000Z</time>
      </trkpt>
      <trkpt lat="45.7989" lon="4.72354">
        <ele>359.21915</ele>
        <time>2023-07-02T15:47:36.000Z</time>
      </trkpt>
      <trkpt lat="45.79887" lon="4.72356">
        <ele>359.10083</ele>
        <time>2023-07-02T15:47:37.000Z</time>
      </trkpt>
      <trkpt lat="45.79884" lon="4.72357">
        <ele>359.04181</ele>
        <time>2023-07-02T15:47:38.000Z</time>
      </trkpt>
      <trkpt lat="45.79882" lon="4.72357">
        <ele>359.00992</ele>
        <time>2023-07-02T15:47:39.000Z</time>
      </trkpt>
      <trkpt lat="45.79879" lon="4.72358">
        <ele>359.04929</ele>
        <time>2023-07-02T15:47:40.000Z</time>
      </trkpt>
      <trkpt lat="45.79876" lon="4.72359">
        <ele>359.19107</ele>
        <time>2023-07-02T15:47:41.000Z</time>
      </trkpt>
      <trkpt lat="45.79873" lon="4.7236">
        <ele>359.31738</ele>
        <time>2023-07-02T15:47:42.000Z</time>
      </trkpt>
      <trkpt lat="45.7987" lon="4.72362">
        <ele>359.42361</ele>
        <time>2023-07-02T15:47:43.000Z</time>
      </trkpt>
      <trkpt lat="45.79867" lon="4.72363">
        <ele>359.41455</ele>
        <time>2023-07-02T15:47:44.000Z</time>
      </trkpt>
      <trkpt lat="45.79863" lon="4.72365">
        <ele>359.56677</ele>
        <time>2023-07-02T15:47:45.000Z</time>
      </trkpt>
      <trkpt lat="45.79859" lon="4.72367">
        <ele>359.83594</ele>
        <time>2023-07-02T15:47:46.000Z</time>
      </trkpt>
      <trkpt lat="45.79856" lon="4.72369">
        <ele>360.15948</ele>
        <time>2023-07-02T15:47:47.000Z</time>
      </trkpt>
      <trkpt lat="45.79852" lon="4.7237">
        <ele>360.45102</ele>
        <time>2023-07-02T15:47:48.000Z</time>
      </trkpt>
      <trkpt lat="45.79849" lon="4.72372">
        <ele>360.71661</ele>
        <time>2023-07-02T15:47:49.000Z</time>
      </trkpt>
      <trkpt lat="45.79845" lon="4.72374">
        <ele>360.42865</ele>
        <time>2023-07-02T15:47:50.000Z</time>
      </trkpt>
      <trkpt lat="45.79842" lon="4.72375">
        <ele>360.12018</ele>
        <time>2023-07-02T15:47:51.000Z</time>
      </trkpt>
      <trkpt lat="45.79839" lon="4.72377">
        <ele>359.84161</ele>
        <time>2023-07-02T15:47:52.000Z</time>
      </trkpt>
      <trkpt lat="45.79835" lon="4.72378">
        <ele>359.55951</ele>
        <time>2023-07-02T15:47:53.000Z</time>
      </trkpt>
      <trkpt lat="45.79831" lon="4.7238">
        <ele>359.30582</ele>
        <time>2023-07-02T15:47:54.000Z</time>
      </trkpt>
      <trkpt lat="45.79827" lon="4.72382">
        <ele>359.01617</ele>
        <time>2023-07-02T15:47:55.000Z</time>
      </trkpt>
      <trkpt lat="45.79824" lon="4.72384">
        <ele>358.73364</ele>
        <time>2023-07-02T15:47:56.000Z</time>
      </trkpt>
      <trkpt lat="45.7982" lon="4.72386">
        <ele>358.4176</ele>
        <time>2023-07-02T15:47:57.000Z</time>
      </trkpt>
      <trkpt lat="45.79817" lon="4.72388">
        <ele>358.09039</ele>
        <time>2023-07-02T15:47:58.000Z</time>
      </trkpt>
      <trkpt lat="45.79814" lon="4.72389">
        <ele>357.76093</ele>
        <time>2023-07-02T15:47:59.000Z</time>
      </trkpt>
      <trkpt lat="45.79811" lon="4.7239">
        <ele>357.39191</ele>
        <time>2023-07-02T15:48:00.000Z</time>
      </trkpt>
      <trkpt lat="45.79807" lon="4.72391">
        <ele>357.00638</ele>
        <time>2023-07-02T15:48:01.000Z</time>
      </trkpt>
      <trkpt lat="45.79804" lon="4.72393">
        <ele>356.60287</ele>
        <time>2023-07-02T15:48:02.000Z</time>
      </trkpt>
      <trkpt lat="45.79801" lon="4.72394">
        <ele>356.22495</ele>
        <time>2023-07-02T15:48:03.000Z</time>
      </trkpt>
      <trkpt lat="45.79799" lon="4.72396">
        <ele>355.79935</ele>
        <time>2023-07-02T15:48:04.000Z</time>
      </trkpt>
      <trkpt lat="45.79796" lon="4.72398">
        <ele>355.34442</ele>
        <time>2023-07-02T15:48:05.000Z</time>
      </trkpt>
      <trkpt lat="45.79793" lon="4.72399">
        <ele>354.82928</ele>
        <time>2023-07-02T15:48:06.000Z</time>
      </trkpt>
      <trkpt lat="45.7979" lon="4.724">
        <ele>354.23071</ele>
        <time>2023-07-02T15:48:07.000Z</time>
      </trkpt>
      <trkpt lat="45.79787" lon="4.72401">
        <ele>353.62668</ele>
        <time>2023-07-02T15:48:08.000Z</time>
      </trkpt>
      <trkpt lat="45.79785" lon="4.72401">
        <ele>353.07614</ele>
        <time>2023-07-02T15:48:09.000Z</time>
      </trkpt>
      <trkpt lat="45.79783" lon="4.72401">
        <ele>353.09229</ele>
        <time>2023-07-02T15:48:10.000Z</time>
      </trkpt>
      <trkpt lat="45.7978" lon="4.72402">
        <ele>353.13724</ele>
        <time>2023-07-02T15:48:12.000Z</time>
      </trkpt>
      <trkpt lat="45.79777" lon="4.72402">
        <ele>353.17194</ele>
        <time>2023-07-02T15:48:14.000Z</time>
      </trkpt>
      <trkpt lat="45.79774" lon="4.72403">
        <ele>353.19522</ele>
        <time>2023-07-02T15:48:15.000Z</time>
      </trkpt>
      <trkpt lat="45.79771" lon="4.72403">
        <ele>353.22186</ele>
        <time>2023-07-02T15:48:17.000Z</time>
      </trkpt>
      <trkpt lat="45.79768" lon="4.72401">
        <ele>353.21817</ele>
        <time>2023-07-02T15:48:19.000Z</time>
      </trkpt>
      <trkpt lat="45.79767" lon="4.72398">
        <ele>353.22305</ele>
        <time>2023-07-02T15:48:21.000Z</time>
      </trkpt>
      <trkpt lat="45.79766" lon="4.72394">
        <ele>353.23865</ele>
        <time>2023-07-02T15:48:24.000Z</time>
      </trkpt>
      <trkpt lat="45.79767" lon="4.72391">
        <ele>353.24136</ele>
        <time>2023-07-02T15:48:25.000Z</time>
      </trkpt>
      <trkpt lat="45.79768" lon="4.72388">
        <ele>353.2243</ele>
        <time>2023-07-02T15:48:26.000Z</time>
      </trkpt>
      <trkpt lat="45.7977" lon="4.72385">
        <ele>353.17419</ele>
        <time>2023-07-02T15:48:27.000Z</time>
      </trkpt>
      <trkpt lat="45.79773" lon="4.72383">
        <ele>353.07773</ele>
        <time>2023-07-02T15:48:28.000Z</time>
      </trkpt>
      <trkpt lat="45.79776" lon="4.72382">
        <ele>352.99951</ele>
        <time>2023-07-02T15:48:29.000Z</time>
      </trkpt>
      <trkpt lat="45.79779" lon="4.72381">
        <ele>352.93225</ele>
        <time>2023-07-02T15:48:30.000Z</time>
      </trkpt>
      <trkpt lat="45.79782" lon="4.7238">
        <ele>352.89496</ele>
        <time>2023-07-02T15:48:31.000Z</time>
      </trkpt>
      <trkpt lat="45.79786" lon="4.72379">
        <ele>352.90561</ele>
        <time>2023-07-02T15:48:32.000Z</time>
      </trkpt>
      <trkpt lat="45.79789" lon="4.72379">
        <ele>353.41287</ele>
        <time>2023-07-02T15:48:33.000Z</time>
      </trkpt>
      <trkpt lat="45.79793" lon="4.72378">
        <ele>353.97186</ele>
        <time>2023-07-02T15:48:34.000Z</time>
      </trkpt>
      <trkpt lat="45.79797" lon="4.72377">
        <ele>354.58566</ele>
        <time>2023-07-02T15:48:35.000Z</time>
      </trkpt>
      <trkpt lat="45.79801" lon="4.72376">
        <ele>355.19806</ele>
        <time>2023-07-02T15:48:36.000Z</time>
      </trkpt>
      <trkpt lat="45.79805" lon="4.72375">
        <ele>355.77563</ele>
        <time>2023-07-02T15:48:37.000Z</time>
      </trkpt>
      <trkpt lat="45.79808" lon="4.72374">
        <ele>356.25739</ele>
        <time>2023-07-02T15:48:38.000Z</time>
      </trkpt>
      <trkpt lat="45.79812" lon="4.72373">
        <ele>356.70224</ele>
        <time>2023-07-02T15:48:39.000Z</time>
      </trkpt>
      <trkpt lat="45.79815" lon="4.72371">
        <ele>357.18927</ele>
        <time>2023-07-02T15:48:40.000Z</time>
      </trkpt>
      <trkpt lat="45.7982" lon="4.7237">
        <ele>357.64008</ele>
        <time>2023-07-02T15:48:41.000Z</time>
      </trkpt>
      <trkpt lat="45.79823" lon="4.72369">
        <ele>357.66605</ele>
        <time>2023-07-02T15:48:42.000Z</time>
      </trkpt>
      <trkpt lat="45.79827" lon="4.72368">
        <ele>357.6579</ele>
        <time>2023-07-02T15:48:43.000Z</time>
      </trkpt>
      <trkpt lat="45.79832" lon="4.72366">
        <ele>357.64948</ele>
        <time>2023-07-02T15:48:44.000Z</time>
      </trkpt>
      <trkpt lat="45.79836" lon="4.72365">
        <ele>357.64468</ele>
        <time>2023-07-02T15:48:45.000Z</time>
      </trkpt>
      <trkpt lat="45.7984" lon="4.72364">
        <ele>357.61707</ele>
        <time>2023-07-02T15:48:46.000Z</time>
      </trkpt>
      <trkpt lat="45.79845" lon="4.72362">
        <ele>357.60065</ele>
        <time>2023-07-02T15:48:47.000Z</time>
      </trkpt>
      <trkpt lat="45.79849" lon="4.7236">
        <ele>357.59033</ele>
        <time>2023-07-02T15:48:48.000Z</time>
      </trkpt>
      <trkpt lat="45.79852" lon="4.72358">
        <ele>357.58832</ele>
        <time>2023-07-02T15:48:49.000Z</time>
      </trkpt>
      <trkpt lat="45.79856" lon="4.72357">
        <ele>357.52133</ele>
        <time>2023-07-02T15:48:50.000Z</time>
      </trkpt>
      <trkpt lat="45.7986" lon="4.72355">
        <ele>357.48004</ele>
        <time>2023-07-02T15:48:51.000Z</time>
      </trkpt>
      <trkpt lat="45.79865" lon="4.72354">
        <ele>357.4111</ele>
        <time>2023-07-02T15:48:52.000Z</time>
      </trkpt>
      <trkpt lat="45.79869" lon="4.72352">
        <ele>356.90079</ele>
        <time>2023-07-02T15:48:53.000Z</time>
      </trkpt>
      <trkpt lat="45.79873" lon="4.72349">
        <ele>356.37057</ele>
        <time>2023-07-02T15:48:54.000Z</time>
      </trkpt>
      <trkpt lat="45.79877" lon="4.72347">
        <ele>356.23337</ele>
        <time>2023-07-02T15:48:55.000Z</time>
      </trkpt>
      <trkpt lat="45.79882" lon="4.72344">
        <ele>356.07996</ele>
        <time>2023-07-02T15:48:56.000Z</time>
      </trkpt>
      <trkpt lat="45.79886" lon="4.72343">
        <ele>355.94553</ele>
        <time>2023-07-02T15:48:57.000Z</time>
      </trkpt>
      <trkpt lat="45.7989" lon="4.7234">
        <ele>355.87933</ele>
        <time>2023-07-02T15:48:58.000Z</time>
      </trkpt>
      <trkpt lat="45.79894" lon="4.72339">
        <ele>355.80072</ele>
        <time>2023-07-02T15:48:59.000Z</time>
      </trkpt>
      <trkpt lat="45.79899" lon="4.72337">
        <ele>355.68222</ele>
        <time>2023-07-02T15:49:00.000Z</time>
      </trkpt>
      <trkpt lat="45.79903" lon="4.72335">
        <ele>355.56543</ele>
        <time>2023-07-02T15:49:01.000Z</time>
      </trkpt>
      <trkpt lat="45.79907" lon="4.72333">
        <ele>355.92462</ele>
        <time>2023-07-02T15:49:02.000Z</time>
      </trkpt>
      <trkpt lat="45.79911" lon="4.72332">
        <ele>356.30759</ele>
        <time>2023-07-02T15:49:03.000Z</time>
      </trkpt>
      <trkpt lat="45.79915" lon="4.7233">
        <ele>356.67929</ele>
        <time>2023-07-02T15:49:04.000Z</time>
      </trkpt>
      <trkpt lat="45.7992" lon="4.72329">
        <ele>357.03421</ele>
        <time>2023-07-02T15:49:05.000Z</time>
      </trkpt>
      <trkpt lat="45.79925" lon="4.72327">
        <ele>357.37924</ele>
        <time>2023-07-02T15:49:06.000Z</time>
      </trkpt>
      <trkpt lat="45.79928" lon="4.72325">
        <ele>357.8277</ele>
        <time>2023-07-02T15:49:07.000Z</time>
      </trkpt>
      <trkpt lat="45.79932" lon="4.72323">
        <ele>358.3783</ele>
        <time>2023-07-02T15:49:08.000Z</time>
      </trkpt>
      <trkpt lat="45.79937" lon="4.7232">
        <ele>358.94073</ele>
        <time>2023-07-02T15:49:09.000Z</time>
      </trkpt>
      <trkpt lat="45.79941" lon="4.72318">
        <ele>359.59396</ele>
        <time>2023-07-02T15:49:10.000Z</time>
      </trkpt>
      <trkpt lat="45.79945" lon="4.72316">
        <ele>359.91522</ele>
        <time>2023-07-02T15:49:11.000Z</time>
      </trkpt>
      <trkpt lat="45.7995" lon="4.72314">
        <ele>360.28204</ele>
        <time>2023-07-02T15:49:12.000Z</time>
      </trkpt>
      <trkpt lat="45.79954" lon="4.72311">
        <ele>360.5484</ele>
        <time>2023-07-02T15:49:13.000Z</time>
      </trkpt>
      <trkpt lat="45.79959" lon="4.7231">
        <ele>360.80011</ele>
        <time>2023-07-02T15:49:14.000Z</time>
      </trkpt>
      <trkpt lat="45.79964" lon="4.72307">
        <ele>360.62817</ele>
        <time>2023-07-02T15:49:15.000Z</time>
      </trkpt>
      <trkpt lat="45.79968" lon="4.72305">
        <ele>360.44916</ele>
        <time>2023-07-02T15:49:16.000Z</time>
      </trkpt>
      <trkpt lat="45.79973" lon="4.72302">
        <ele>360.28949</ele>
        <time>2023-07-02T15:49:17.000Z</time>
      </trkpt>
      <trkpt lat="45.79977" lon="4.723">
        <ele>360.12476</ele>
        <time>2023-07-02T15:49:18.000Z</time>
      </trkpt>
      <trkpt lat="45.79982" lon="4.72298">
        <ele>360.01782</ele>
        <time>2023-07-02T15:49:19.000Z</time>
      </trkpt>
      <trkpt lat="45.79986" lon="4.72296">
        <ele>360.12772</ele>
        <time>2023-07-02T15:49:20.000Z</time>
      </trkpt>
      <trkpt lat="45.7999" lon="4.72293">
        <ele>360.27594</ele>
        <time>2023-07-02T15:49:21.000Z</time>
      </trkpt>
      <trkpt lat="45.79994" lon="4.72291">
        <ele>360.44742</ele>
        <time>2023-07-02T15:49:22.000Z</time>
      </trkpt>
      <trkpt lat="45.79998" lon="4.72289">
        <ele>360.62271</ele>
        <time>2023-07-02T15:49:23.000Z</time>
      </trkpt>
      <trkpt lat="45.80003" lon="4.72287">
        <ele>360.81326</ele>
        <time>2023-07-02T15:49:24.000Z</time>
      </trkpt>
      <trkpt lat="45.80007" lon="4.72285">
        <ele>361.01443</ele>
        <time>2023-07-02T15:49:25.000Z</time>
      </trkpt>
      <trkpt lat="45.80011" lon="4.72282">
        <ele>361.24664</ele>
        <time>2023-07-02T15:49:26.000Z</time>
      </trkpt>
      <trkpt lat="45.80015" lon="4.7228">
        <ele>361.37241</ele>
        <time>2023-07-02T15:49:27.000Z</time>
      </trkpt>
      <trkpt lat="45.80019" lon="4.72277">
        <ele>361.39719</ele>
        <time>2023-07-02T15:49:28.000Z</time>
      </trkpt>
      <trkpt lat="45.80023" lon="4.72274">
        <ele>361.40872</ele>
        <time>2023-07-02T15:49:29.000Z</time>
      </trkpt>
      <trkpt lat="45.80027" lon="4.72271">
        <ele>361.37735</ele>
        <time>2023-07-02T15:49:30.000Z</time>
      </trkpt>
      <trkpt lat="45.80031" lon="4.72268">
        <ele>361.64081</ele>
        <time>2023-07-02T15:49:31.000Z</time>
      </trkpt>
      <trkpt lat="45.80035" lon="4.72265">
        <ele>361.87488</ele>
        <time>2023-07-02T15:49:32.000Z</time>
      </trkpt>
      <trkpt lat="45.80039" lon="4.72262">
        <ele>362.18155</ele>
        <time>2023-07-02T15:49:33.000Z</time>
      </trkpt>
      <trkpt lat="45.80043" lon="4.72259">
        <ele>362.48538</ele>
        <time>2023-07-02T15:49:34.000Z</time>
      </trkpt>
      <trkpt lat="45.80047" lon="4.72256">
        <ele>362.79398</ele>
        <time>2023-07-02T15:49:35.000Z</time>
      </trkpt>
      <trkpt lat="45.80051" lon="4.72253">
        <ele>363.09744</ele>
        <time>2023-07-02T15:49:36.000Z</time>
      </trkpt>
      <trkpt lat="45.80055" lon="4.72251">
        <ele>363.38446</ele>
        <time>2023-07-02T15:49:37.000Z</time>
      </trkpt>
      <trkpt lat="45.80059" lon="4.72248">
        <ele>363.66013</ele>
        <time>2023-07-02T15:49:38.000Z</time>
      </trkpt>
      <trkpt lat="45.80063" lon="4.72244">
        <ele>363.93268</ele>
        <time>2023-07-02T15:49:39.000Z</time>
      </trkpt>
      <trkpt lat="45.80067" lon="4.72242">
        <ele>363.97168</ele>
        <time>2023-07-02T15:49:40.000Z</time>
      </trkpt>
      <trkpt lat="45.80071" lon="4.72239">
        <ele>364.0072</ele>
        <time>2023-07-02T15:49:41.000Z</time>
      </trkpt>
      <trkpt lat="45.80075" lon="4.72236">
        <ele>364.02985</ele>
        <time>2023-07-02T15:49:42.000Z</time>
      </trkpt>
      <trkpt lat="45.80078" lon="4.72233">
        <ele>364.04358</ele>
        <time>2023-07-02T15:49:43.000Z</time>
      </trkpt>
      <trkpt lat="45.80082" lon="4.7223">
        <ele>364.05939</ele>
        <time>2023-07-02T15:49:44.000Z</time>
      </trkpt>
      <trkpt lat="45.80085" lon="4.72226">
        <ele>364.06876</ele>
        <time>2023-07-02T15:49:45.000Z</time>
      </trkpt>
      <trkpt lat="45.80089" lon="4.72223">
        <ele>364.09573</ele>
        <time>2023-07-02T15:49:46.000Z</time>
      </trkpt>
      <trkpt lat="45.80093" lon="4.7222">
        <ele>364.11517</ele>
        <time>2023-07-02T15:49:47.000Z</time>
      </trkpt>
      <trkpt lat="45.80096" lon="4.72217">
        <ele>364.13644</ele>
        <time>2023-07-02T15:49:48.000Z</time>
      </trkpt>
      <trkpt lat="45.801" lon="4.72215">
        <ele>364.14944</ele>
        <time>2023-07-02T15:49:49.000Z</time>
      </trkpt>
      <trkpt lat="45.80103" lon="4.72212">
        <ele>364.15875</ele>
        <time>2023-07-02T15:49:50.000Z</time>
      </trkpt>
      <trkpt lat="45.80106" lon="4.72209">
        <ele>364.17426</ele>
        <time>2023-07-02T15:49:51.000Z</time>
      </trkpt>
      <trkpt lat="45.8011" lon="4.72207">
        <ele>364.19348</ele>
        <time>2023-07-02T15:49:52.000Z</time>
      </trkpt>
      <trkpt lat="45.80114" lon="4.72204">
        <ele>364.2211</ele>
        <time>2023-07-02T15:49:53.000Z</time>
      </trkpt>
      <trkpt lat="45.80118" lon="4.72202">
        <ele>364.2616</ele>
        <time>2023-07-02T15:49:54.000Z</time>
      </trkpt>
      <trkpt lat="45.80121" lon="4.722">
        <ele>364.30048</ele>
        <time>2023-07-02T15:49:55.000Z</time>
      </trkpt>
      <trkpt lat="45.80125" lon="4.72198">
        <ele>364.33444</ele>
        <time>2023-07-02T15:49:56.000Z</time>
      </trkpt>
      <trkpt lat="45.80129" lon="4.72196">
        <ele>364.18594</ele>
        <time>2023-07-02T15:49:57.000Z</time>
      </trkpt>
      <trkpt lat="45.80133" lon="4.72195">
        <ele>364.13467</ele>
        <time>2023-07-02T15:49:58.000Z</time>
      </trkpt>
      <trkpt lat="45.80137" lon="4.72194">
        <ele>364.09628</ele>
        <time>2023-07-02T15:49:59.000Z</time>
      </trkpt>
      <trkpt lat="45.8014" lon="4.72195">
        <ele>364.02679</ele>
        <time>2023-07-02T15:50:00.000Z</time>
      </trkpt>
      <trkpt lat="45.80144" lon="4.72196">
        <ele>363.98013</ele>
        <time>2023-07-02T15:50:01.000Z</time>
      </trkpt>
      <trkpt lat="45.80147" lon="4.72197">
        <ele>363.93597</ele>
        <time>2023-07-02T15:50:02.000Z</time>
      </trkpt>
      <trkpt lat="45.80151" lon="4.72196">
        <ele>363.88672</ele>
        <time>2023-07-02T15:50:03.000Z</time>
      </trkpt>
      <trkpt lat="45.80155" lon="4.72194">
        <ele>363.81177</ele>
        <time>2023-07-02T15:50:04.000Z</time>
      </trkpt>
      <trkpt lat="45.80158" lon="4.72191">
        <ele>363.741</ele>
        <time>2023-07-02T15:50:05.000Z</time>
      </trkpt>
      <trkpt lat="45.8016" lon="4.72187">
        <ele>363.65372</ele>
        <time>2023-07-02T15:50:06.000Z</time>
      </trkpt>
      <trkpt lat="45.80162" lon="4.72181">
        <ele>363.67831</ele>
        <time>2023-07-02T15:50:07.000Z</time>
      </trkpt>
      <trkpt lat="45.80163" lon="4.72176">
        <ele>363.75848</ele>
        <time>2023-07-02T15:50:08.000Z</time>
      </trkpt>
      <trkpt lat="45.80165" lon="4.7217">
        <ele>363.89087</ele>
        <time>2023-07-02T15:50:09.000Z</time>
      </trkpt>
      <trkpt lat="45.80169" lon="4.72165">
        <ele>364.04156</ele>
        <time>2023-07-02T15:50:10.000Z</time>
      </trkpt>
      <trkpt lat="45.80171" lon="4.7216">
        <ele>364.19522</ele>
        <time>2023-07-02T15:50:11.000Z</time>
      </trkpt>
      <trkpt lat="45.80174" lon="4.72156">
        <ele>364.07953</ele>
        <time>2023-07-02T15:50:12.000Z</time>
      </trkpt>
      <trkpt lat="45.80176" lon="4.72152">
        <ele>363.99988</ele>
        <time>2023-07-02T15:50:13.000Z</time>
      </trkpt>
      <trkpt lat="45.80179" lon="4.72148">
        <ele>363.90771</ele>
        <time>2023-07-02T15:50:14.000Z</time>
      </trkpt>
      <trkpt lat="45.80182" lon="4.72145">
        <ele>363.80634</ele>
        <time>2023-07-02T15:50:15.000Z</time>
      </trkpt>
      <trkpt lat="45.80185" lon="4.72142">
        <ele>363.69781</ele>
        <time>2023-07-02T15:50:16.000Z</time>
      </trkpt>
      <trkpt lat="45.80188" lon="4.72139">
        <ele>363.77258</ele>
        <time>2023-07-02T15:50:17.000Z</time>
      </trkpt>
      <trkpt lat="45.80191" lon="4.72136">
        <ele>363.76407</ele>
        <time>2023-07-02T15:50:18.000Z</time>
      </trkpt>
      <trkpt lat="45.80195" lon="4.72132">
        <ele>363.741</ele>
        <time>2023-07-02T15:50:19.000Z</time>
      </trkpt>
      <trkpt lat="45.80197" lon="4.72129">
        <ele>363.78693</ele>
        <time>2023-07-02T15:50:20.000Z</time>
      </trkpt>
      <trkpt lat="45.802" lon="4.72125">
        <ele>363.80872</ele>
        <time>2023-07-02T15:50:21.000Z</time>
      </trkpt>
      <trkpt lat="45.80202" lon="4.72122">
        <ele>363.85373</ele>
        <time>2023-07-02T15:50:22.000Z</time>
      </trkpt>
      <trkpt lat="45.80205" lon="4.72119">
        <ele>363.89297</ele>
        <time>2023-07-02T15:50:23.000Z</time>
      </trkpt>
      <trkpt lat="45.80208" lon="4.72116">
        <ele>363.96402</ele>
        <time>2023-07-02T15:50:24.000Z</time>
      </trkpt>
      <trkpt lat="45.80211" lon="4.72114">
        <ele>364.03207</ele>
        <time>2023-07-02T15:50:25.000Z</time>
      </trkpt>
      <trkpt lat="45.80214" lon="4.72111">
        <ele>364.21823</ele>
        <time>2023-07-02T15:50:26.000Z</time>
      </trkpt>
      <trkpt lat="45.80217" lon="4.72108">
        <ele>364.3205</ele>
        <time>2023-07-02T15:50:27.000Z</time>
      </trkpt>
      <trkpt lat="45.8022" lon="4.72105">
        <ele>364.38959</ele>
        <time>2023-07-02T15:50:28.000Z</time>
      </trkpt>
      <trkpt lat="45.80223" lon="4.72102">
        <ele>364.41556</ele>
        <time>2023-07-02T15:50:29.000Z</time>
      </trkpt>
      <trkpt lat="45.80225" lon="4.72098">
        <ele>364.41791</ele>
        <time>2023-07-02T15:50:30.000Z</time>
      </trkpt>
      <trkpt lat="45.80228" lon="4.72095">
        <ele>364.41022</ele>
        <time>2023-07-02T15:50:31.000Z</time>
      </trkpt>
      <trkpt lat="45.80231" lon="4.72092">
        <ele>364.73996</ele>
        <time>2023-07-02T15:50:32.000Z</time>
      </trkpt>
      <trkpt lat="45.80233" lon="4.72089">
        <ele>364.79718</ele>
        <time>2023-07-02T15:50:33.000Z</time>
      </trkpt>
      <trkpt lat="45.80236" lon="4.72086">
        <ele>364.88828</ele>
        <time>2023-07-02T15:50:34.000Z</time>
      </trkpt>
      <trkpt lat="45.80239" lon="4.72083">
        <ele>364.9758</ele>
        <time>2023-07-02T15:50:35.000Z</time>
      </trkpt>
      <trkpt lat="45.80242" lon="4.7208">
        <ele>365.08646</ele>
        <time>2023-07-02T15:50:36.000Z</time>
      </trkpt>
      <trkpt lat="45.80245" lon="4.72076">
        <ele>365.21591</ele>
        <time>2023-07-02T15:50:37.000Z</time>
      </trkpt>
      <trkpt lat="45.80247" lon="4.72073">
        <ele>365.3652</ele>
        <time>2023-07-02T15:50:38.000Z</time>
      </trkpt>
      <trkpt lat="45.8025" lon="4.7207">
        <ele>365.53394</ele>
        <time>2023-07-02T15:50:39.000Z</time>
      </trkpt>
      <trkpt lat="45.80253" lon="4.72067">
        <ele>365.6489</ele>
        <time>2023-07-02T15:50:40.000Z</time>
      </trkpt>
      <trkpt lat="45.80256" lon="4.72063">
        <ele>365.77948</ele>
        <time>2023-07-02T15:50:41.000Z</time>
      </trkpt>
      <trkpt lat="45.80258" lon="4.72059">
        <ele>365.91977</ele>
        <time>2023-07-02T15:50:42.000Z</time>
      </trkpt>
      <trkpt lat="45.80261" lon="4.72056">
        <ele>366.08456</ele>
        <time>2023-07-02T15:50:43.000Z</time>
      </trkpt>
      <trkpt lat="45.80265" lon="4.72052">
        <ele>366.32397</ele>
        <time>2023-07-02T15:50:44.000Z</time>
      </trkpt>
      <trkpt lat="45.80268" lon="4.72049">
        <ele>366.59775</ele>
        <time>2023-07-02T15:50:45.000Z</time>
      </trkpt>
      <trkpt lat="45.80271" lon="4.72046">
        <ele>366.78979</ele>
        <time>2023-07-02T15:50:46.000Z</time>
      </trkpt>
      <trkpt lat="45.80275" lon="4.72043">
        <ele>366.73102</ele>
        <time>2023-07-02T15:50:47.000Z</time>
      </trkpt>
      <trkpt lat="45.80278" lon="4.72039">
        <ele>366.66788</ele>
        <time>2023-07-02T15:50:48.000Z</time>
      </trkpt>
      <trkpt lat="45.80281" lon="4.72036">
        <ele>366.62616</ele>
        <time>2023-07-02T15:50:49.000Z</time>
      </trkpt>
      <trkpt lat="45.80284" lon="4.72032">
        <ele>366.5687</ele>
        <time>2023-07-02T15:50:50.000Z</time>
      </trkpt>
      <trkpt lat="45.80286" lon="4.72029">
        <ele>366.54816</ele>
        <time>2023-07-02T15:50:51.000Z</time>
      </trkpt>
      <trkpt lat="45.80289" lon="4.72026">
        <ele>366.52655</ele>
        <time>2023-07-02T15:50:52.000Z</time>
      </trkpt>
      <trkpt lat="45.80292" lon="4.72023">
        <ele>366.79443</ele>
        <time>2023-07-02T15:50:53.000Z</time>
      </trkpt>
      <trkpt lat="45.80296" lon="4.7202">
        <ele>366.83038</ele>
        <time>2023-07-02T15:50:54.000Z</time>
      </trkpt>
      <trkpt lat="45.80299" lon="4.72016">
        <ele>366.90665</ele>
        <time>2023-07-02T15:50:55.000Z</time>
      </trkpt>
      <trkpt lat="45.80303" lon="4.72013">
        <ele>366.95047</ele>
        <time>2023-07-02T15:50:56.000Z</time>
      </trkpt>
      <trkpt lat="45.80306" lon="4.7201">
        <ele>367.00302</ele>
        <time>2023-07-02T15:50:57.000Z</time>
      </trkpt>
      <trkpt lat="45.80309" lon="4.72007">
        <ele>367.01965</ele>
        <time>2023-07-02T15:50:58.000Z</time>
      </trkpt>
      <trkpt lat="45.80313" lon="4.72003">
        <ele>367.01898</ele>
        <time>2023-07-02T15:50:59.000Z</time>
      </trkpt>
      <trkpt lat="45.80316" lon="4.72">
        <ele>367.05762</ele>
        <time>2023-07-02T15:51:00.000Z</time>
      </trkpt>
      <trkpt lat="45.8032" lon="4.71996">
        <ele>367.06879</ele>
        <time>2023-07-02T15:51:01.000Z</time>
      </trkpt>
      <trkpt lat="45.80323" lon="4.71992">
        <ele>367.04169</ele>
        <time>2023-07-02T15:51:02.000Z</time>
      </trkpt>
      <trkpt lat="45.80326" lon="4.71989">
        <ele>367.01465</ele>
        <time>2023-07-02T15:51:03.000Z</time>
      </trkpt>
      <trkpt lat="45.8033" lon="4.71985">
        <ele>366.87827</ele>
        <time>2023-07-02T15:51:04.000Z</time>
      </trkpt>
      <trkpt lat="45.80333" lon="4.71982">
        <ele>366.72321</ele>
        <time>2023-07-02T15:51:05.000Z</time>
      </trkpt>
      <trkpt lat="45.80336" lon="4.71979">
        <ele>366.62265</ele>
        <time>2023-07-02T15:51:06.000Z</time>
      </trkpt>
      <trkpt lat="45.80339" lon="4.71976">
        <ele>366.81201</ele>
        <time>2023-07-02T15:51:07.000Z</time>
      </trkpt>
      <trkpt lat="45.80342" lon="4.71974">
        <ele>366.99609</ele>
        <time>2023-07-02T15:51:08.000Z</time>
      </trkpt>
      <trkpt lat="45.80345" lon="4.71971">
        <ele>366.96402</ele>
        <time>2023-07-02T15:51:09.000Z</time>
      </trkpt>
      <trkpt lat="45.80349" lon="4.71969">
        <ele>366.99051</ele>
        <time>2023-07-02T15:51:10.000Z</time>
      </trkpt>
      <trkpt lat="45.80352" lon="4.71966">
        <ele>366.99542</ele>
        <time>2023-07-02T15:51:11.000Z</time>
      </trkpt>
      <trkpt lat="45.80355" lon="4.71964">
        <ele>366.91235</ele>
        <time>2023-07-02T15:51:12.000Z</time>
      </trkpt>
      <trkpt lat="45.80358" lon="4.71962">
        <ele>366.7692</ele>
        <time>2023-07-02T15:51:13.000Z</time>
      </trkpt>
      <trkpt lat="45.80361" lon="4.7196">
        <ele>366.82828</ele>
        <time>2023-07-02T15:51:14.000Z</time>
      </trkpt>
      <trkpt lat="45.80365" lon="4.71958">
        <ele>366.87616</ele>
        <time>2023-07-02T15:51:15.000Z</time>
      </trkpt>
      <trkpt lat="45.80369" lon="4.71956">
        <ele>366.93723</ele>
        <time>2023-07-02T15:51:16.000Z</time>
      </trkpt>
      <trkpt lat="45.80373" lon="4.71954">
        <ele>366.9874</ele>
        <time>2023-07-02T15:51:17.000Z</time>
      </trkpt>
      <trkpt lat="45.80376" lon="4.71953">
        <ele>367.06509</ele>
        <time>2023-07-02T15:51:18.000Z</time>
      </trkpt>
      <trkpt lat="45.80379" lon="4.71952">
        <ele>367.16293</ele>
        <time>2023-07-02T15:51:19.000Z</time>
      </trkpt>
      <trkpt lat="45.80383" lon="4.71951">
        <ele>367.23914</ele>
        <time>2023-07-02T15:51:20.000Z</time>
      </trkpt>
      <trkpt lat="45.80387" lon="4.71951">
        <ele>367.34314</ele>
        <time>2023-07-02T15:51:21.000Z</time>
      </trkpt>
      <trkpt lat="45.80391" lon="4.7195">
        <ele>367.42035</ele>
        <time>2023-07-02T15:51:22.000Z</time>
      </trkpt>
      <trkpt lat="45.80396" lon="4.71951">
        <ele>367.4747</ele>
        <time>2023-07-02T15:51:23.000Z</time>
      </trkpt>
      <trkpt lat="45.804" lon="4.71952">
        <ele>367.56879</ele>
        <time>2023-07-02T15:51:24.000Z</time>
      </trkpt>
      <trkpt lat="45.80404" lon="4.71953">
        <ele>367.61108</ele>
        <time>2023-07-02T15:51:25.000Z</time>
      </trkpt>
      <trkpt lat="45.80407" lon="4.71954">
        <ele>367.65234</ele>
        <time>2023-07-02T15:51:26.000Z</time>
      </trkpt>
      <trkpt lat="45.80411" lon="4.71955">
        <ele>367.69775</ele>
        <time>2023-07-02T15:51:27.000Z</time>
      </trkpt>
      <trkpt lat="45.80415" lon="4.71956">
        <ele>367.73862</ele>
        <time>2023-07-02T15:51:28.000Z</time>
      </trkpt>
      <trkpt lat="45.80419" lon="4.71957">
        <ele>367.78848</ele>
        <time>2023-07-02T15:51:29.000Z</time>
      </trkpt>
      <trkpt lat="45.80422" lon="4.71958">
        <ele>367.82388</ele>
        <time>2023-07-02T15:51:30.000Z</time>
      </trkpt>
      <trkpt lat="45.80425" lon="4.71959">
        <ele>367.84186</ele>
        <time>2023-07-02T15:51:31.000Z</time>
      </trkpt>
      <trkpt lat="45.80429" lon="4.7196">
        <ele>367.86172</ele>
        <time>2023-07-02T15:51:32.000Z</time>
      </trkpt>
      <trkpt lat="45.80433" lon="4.71962">
        <ele>367.87677</ele>
        <time>2023-07-02T15:51:33.000Z</time>
      </trkpt>
      <trkpt lat="45.80438" lon="4.71963">
        <ele>367.87189</ele>
        <time>2023-07-02T15:51:34.000Z</time>
      </trkpt>
      <trkpt lat="45.80442" lon="4.71964">
        <ele>367.85947</ele>
        <time>2023-07-02T15:51:35.000Z</time>
      </trkpt>
      <trkpt lat="45.80448" lon="4.71966">
        <ele>367.87189</ele>
        <time>2023-07-02T15:51:36.000Z</time>
      </trkpt>
      <trkpt lat="45.80452" lon="4.71968">
        <ele>367.86212</ele>
        <time>2023-07-02T15:51:37.000Z</time>
      </trkpt>
      <trkpt lat="45.80457" lon="4.7197">
        <ele>367.82901</ele>
        <time>2023-07-02T15:51:38.000Z</time>
      </trkpt>
      <trkpt lat="45.80461" lon="4.71971">
        <ele>367.80878</ele>
        <time>2023-07-02T15:51:39.000Z</time>
      </trkpt>
      <trkpt lat="45.80465" lon="4.71973">
        <ele>367.76642</ele>
        <time>2023-07-02T15:51:40.000Z</time>
      </trkpt>
      <trkpt lat="45.8047" lon="4.71975">
        <ele>367.71649</ele>
        <time>2023-07-02T15:51:41.000Z</time>
      </trkpt>
      <trkpt lat="45.80474" lon="4.71976">
        <ele>367.69196</ele>
        <time>2023-07-02T15:51:42.000Z</time>
      </trkpt>
      <trkpt lat="45.80479" lon="4.71978">
        <ele>367.75235</ele>
        <time>2023-07-02T15:51:43.000Z</time>
      </trkpt>
      <trkpt lat="45.80484" lon="4.71979">
        <ele>367.76035</ele>
        <time>2023-07-02T15:51:44.000Z</time>
      </trkpt>
      <trkpt lat="45.80488" lon="4.71981">
        <ele>367.78729</ele>
        <time>2023-07-02T15:51:45.000Z</time>
      </trkpt>
      <trkpt lat="45.80491" lon="4.71983">
        <ele>367.76486</ele>
        <time>2023-07-02T15:51:46.000Z</time>
      </trkpt>
      <trkpt lat="45.80497" lon="4.71985">
        <ele>367.67099</ele>
        <time>2023-07-02T15:51:47.000Z</time>
      </trkpt>
      <trkpt lat="45.80501" lon="4.71988">
        <ele>367.51245</ele>
        <time>2023-07-02T15:51:48.000Z</time>
      </trkpt>
      <trkpt lat="45.80507" lon="4.71988">
        <ele>367.52692</ele>
        <time>2023-07-02T15:51:49.000Z</time>
      </trkpt>
      <trkpt lat="45.8051" lon="4.71989">
        <ele>367.51611</ele>
        <time>2023-07-02T15:51:50.000Z</time>
      </trkpt>
      <trkpt lat="45.80514" lon="4.7199">
        <ele>367.53909</ele>
        <time>2023-07-02T15:51:51.000Z</time>
      </trkpt>
      <trkpt lat="45.80519" lon="4.7199">
        <ele>367.58685</ele>
        <time>2023-07-02T15:51:52.000Z</time>
      </trkpt>
      <trkpt lat="45.80524" lon="4.71992">
        <ele>367.66412</ele>
        <time>2023-07-02T15:51:53.000Z</time>
      </trkpt>
      <trkpt lat="45.80528" lon="4.71992">
        <ele>367.78561</ele>
        <time>2023-07-02T15:51:54.000Z</time>
      </trkpt>
      <trkpt lat="45.80532" lon="4.71993">
        <ele>367.87701</ele>
        <time>2023-07-02T15:51:55.000Z</time>
      </trkpt>
      <trkpt lat="45.80537" lon="4.71995">
        <ele>367.92621</ele>
        <time>2023-07-02T15:51:56.000Z</time>
      </trkpt>
      <trkpt lat="45.80542" lon="4.71995">
        <ele>367.98523</ele>
        <time>2023-07-02T15:51:57.000Z</time>
      </trkpt>
      <trkpt lat="45.80547" lon="4.71996">
        <ele>368.04794</ele>
        <time>2023-07-02T15:51:58.000Z</time>
      </trkpt>
      <trkpt lat="45.8055" lon="4.71997">
        <ele>368.07404</ele>
        <time>2023-07-02T15:51:59.000Z</time>
      </trkpt>
      <trkpt lat="45.80553" lon="4.72001">
        <ele>368.1282</ele>
        <time>2023-07-02T15:52:00.000Z</time>
      </trkpt>
      <trkpt lat="45.80558" lon="4.72004">
        <ele>368.16681</ele>
        <time>2023-07-02T15:52:01.000Z</time>
      </trkpt>
      <trkpt lat="45.80561" lon="4.72007">
        <ele>368.23346</ele>
        <time>2023-07-02T15:52:02.000Z</time>
      </trkpt>
      <trkpt lat="45.80565" lon="4.7201">
        <ele>368.2316</ele>
        <time>2023-07-02T15:52:03.000Z</time>
      </trkpt>
      <trkpt lat="45.8057" lon="4.72012">
        <ele>368.26141</ele>
        <time>2023-07-02T15:52:04.000Z</time>
      </trkpt>
      <trkpt lat="45.80574" lon="4.72013">
        <ele>368.32114</ele>
        <time>2023-07-02T15:52:05.000Z</time>
      </trkpt>
      <trkpt lat="45.80579" lon="4.72014">
        <ele>368.33707</ele>
        <time>2023-07-02T15:52:06.000Z</time>
      </trkpt>
      <trkpt lat="45.80583" lon="4.72014">
        <ele>368.36325</ele>
        <time>2023-07-02T15:52:07.000Z</time>
      </trkpt>
      <trkpt lat="45.80587" lon="4.72015">
        <ele>368.40143</ele>
        <time>2023-07-02T15:52:08.000Z</time>
      </trkpt>
      <trkpt lat="45.80591" lon="4.72017">
        <ele>368.45224</ele>
        <time>2023-07-02T15:52:09.000Z</time>
      </trkpt>
      <trkpt lat="45.80596" lon="4.72018">
        <ele>368.50626</ele>
        <time>2023-07-02T15:52:10.000Z</time>
      </trkpt>
      <trkpt lat="45.806" lon="4.7202">
        <ele>368.52716</ele>
        <time>2023-07-02T15:52:11.000Z</time>
      </trkpt>
      <trkpt lat="45.80604" lon="4.72023">
        <ele>368.51675</ele>
        <time>2023-07-02T15:52:12.000Z</time>
      </trkpt>
      <trkpt lat="45.80608" lon="4.72025">
        <ele>368.49646</ele>
        <time>2023-07-02T15:52:13.000Z</time>
      </trkpt>
      <trkpt lat="45.80612" lon="4.72028">
        <ele>368.4389</ele>
        <time>2023-07-02T15:52:14.000Z</time>
      </trkpt>
      <trkpt lat="45.80616" lon="4.7203">
        <ele>368.42426</ele>
        <time>2023-07-02T15:52:15.000Z</time>
      </trkpt>
      <trkpt lat="45.8062" lon="4.72033">
        <ele>368.51727</ele>
        <time>2023-07-02T15:52:16.000Z</time>
      </trkpt>
      <trkpt lat="45.80624" lon="4.72036">
        <ele>368.41885</ele>
        <time>2023-07-02T15:52:17.000Z</time>
      </trkpt>
      <trkpt lat="45.80629" lon="4.7204">
        <ele>367.96054</ele>
        <time>2023-07-02T15:52:18.000Z</time>
      </trkpt>
      <trkpt lat="45.80633" lon="4.72044">
        <ele>367.48737</ele>
        <time>2023-07-02T15:52:19.000Z</time>
      </trkpt>
      <trkpt lat="45.80637" lon="4.72047">
        <ele>367.03772</ele>
        <time>2023-07-02T15:52:20.000Z</time>
      </trkpt>
      <trkpt lat="45.80641" lon="4.72051">
        <ele>366.6142</ele>
        <time>2023-07-02T15:52:21.000Z</time>
      </trkpt>
      <trkpt lat="45.80644" lon="4.72056">
        <ele>366.18231</ele>
        <time>2023-07-02T15:52:22.000Z</time>
      </trkpt>
      <trkpt lat="45.80647" lon="4.7206">
        <ele>365.7265</ele>
        <time>2023-07-02T15:52:23.000Z</time>
      </trkpt>
      <trkpt lat="45.8065" lon="4.72063">
        <ele>365.28409</ele>
        <time>2023-07-02T15:52:24.000Z</time>
      </trkpt>
      <trkpt lat="45.80653" lon="4.72068">
        <ele>364.84415</ele>
        <time>2023-07-02T15:52:25.000Z</time>
      </trkpt>
      <trkpt lat="45.80656" lon="4.72072">
        <ele>364.41226</ele>
        <time>2023-07-02T15:52:26.000Z</time>
      </trkpt>
      <trkpt lat="45.80658" lon="4.72078">
        <ele>363.95911</ele>
        <time>2023-07-02T15:52:27.000Z</time>
      </trkpt>
      <trkpt lat="45.80661" lon="4.72082">
        <ele>363.52924</ele>
        <time>2023-07-02T15:52:28.000Z</time>
      </trkpt>
      <trkpt lat="45.80662" lon="4.72088">
        <ele>363.09906</ele>
        <time>2023-07-02T15:52:29.000Z</time>
      </trkpt>
      <trkpt lat="45.80664" lon="4.72092">
        <ele>362.65814</ele>
        <time>2023-07-02T15:52:30.000Z</time>
      </trkpt>
      <trkpt lat="45.80665" lon="4.72097">
        <ele>362.21823</ele>
        <time>2023-07-02T15:52:31.000Z</time>
      </trkpt>
      <trkpt lat="45.80668" lon="4.72102">
        <ele>361.81885</ele>
        <time>2023-07-02T15:52:32.000Z</time>
      </trkpt>
      <trkpt lat="45.8067" lon="4.72107">
        <ele>361.40717</ele>
        <time>2023-07-02T15:52:33.000Z</time>
      </trkpt>
      <trkpt lat="45.80672" lon="4.72111">
        <ele>360.97565</ele>
        <time>2023-07-02T15:52:34.000Z</time>
      </trkpt>
      <trkpt lat="45.80674" lon="4.72117">
        <ele>360.508</ele>
        <time>2023-07-02T15:52:35.000Z</time>
      </trkpt>
      <trkpt lat="45.80675" lon="4.72122">
        <ele>359.93457</ele>
        <time>2023-07-02T15:52:36.000Z</time>
      </trkpt>
      <trkpt lat="45.80676" lon="4.72127">
        <ele>359.60748</ele>
        <time>2023-07-02T15:52:37.000Z</time>
      </trkpt>
      <trkpt lat="45.80677" lon="4.72133">
        <ele>359.62811</ele>
        <time>2023-07-02T15:52:38.000Z</time>
      </trkpt>
      <trkpt lat="45.80677" lon="4.72138">
        <ele>359.66058</ele>
        <time>2023-07-02T15:52:39.000Z</time>
      </trkpt>
      <trkpt lat="45.80678" lon="4.72143">
        <ele>359.62967</ele>
        <time>2023-07-02T15:52:40.000Z</time>
      </trkpt>
      <trkpt lat="45.80679" lon="4.72149">
        <ele>359.56732</ele>
        <time>2023-07-02T15:52:41.000Z</time>
      </trkpt>
      <trkpt lat="45.80681" lon="4.72154">
        <ele>359.5415</ele>
        <time>2023-07-02T15:52:42.000Z</time>
      </trkpt>
      <trkpt lat="45.80682" lon="4.72159">
        <ele>359.54099</ele>
        <time>2023-07-02T15:52:43.000Z</time>
      </trkpt>
      <trkpt lat="45.80684" lon="4.72164">
        <ele>359.51538</ele>
        <time>2023-07-02T15:52:44.000Z</time>
      </trkpt>
      <trkpt lat="45.80685" lon="4.72169">
        <ele>359.466</ele>
        <time>2023-07-02T15:52:45.000Z</time>
      </trkpt>
      <trkpt lat="45.80686" lon="4.72175">
        <ele>359.42108</ele>
        <time>2023-07-02T15:52:46.000Z</time>
      </trkpt>
      <trkpt lat="45.80686" lon="4.7218">
        <ele>359.39047</ele>
        <time>2023-07-02T15:52:47.000Z</time>
      </trkpt>
      <trkpt lat="45.80687" lon="4.72184">
        <ele>359.4032</ele>
        <time>2023-07-02T15:52:48.000Z</time>
      </trkpt>
      <trkpt lat="45.80688" lon="4.72188">
        <ele>359.40076</ele>
        <time>2023-07-02T15:52:49.000Z</time>
      </trkpt>
      <trkpt lat="45.8069" lon="4.7219">
        <ele>359.42462</ele>
        <time>2023-07-02T15:52:50.000Z</time>
      </trkpt>
      <trkpt lat="45.80692" lon="4.72189">
        <ele>359.45969</ele>
        <time>2023-07-02T15:52:51.000Z</time>
      </trkpt>
      <trkpt lat="45.80694" lon="4.72187">
        <ele>359.46939</ele>
        <time>2023-07-02T15:52:52.000Z</time>
      </trkpt>
      <trkpt lat="45.80693" lon="4.72184">
        <ele>359.49741</ele>
        <time>2023-07-02T15:52:54.000Z</time>
      </trkpt>
      <trkpt lat="45.80692" lon="4.72182">
        <ele>359.58508</ele>
        <time>2023-07-02T15:52:59.000Z</time>
      </trkpt>
      <trkpt lat="45.80691" lon="4.72178">
        <ele>359.69485</ele>
        <time>2023-07-02T15:54:12.000Z</time>
      </trkpt>
      <trkpt lat="45.8069" lon="4.72176">
        <ele>359.82013</ele>
        <time>2023-07-02T15:54:13.000Z</time>
      </trkpt>
      <trkpt lat="45.80689" lon="4.72173">
        <ele>359.88232</ele>
        <time>2023-07-02T15:54:14.000Z</time>
      </trkpt>
      <trkpt lat="45.80688" lon="4.72169">
        <ele>359.95093</ele>
        <time>2023-07-02T15:54:15.000Z</time>
      </trkpt>
      <trkpt lat="45.80686" lon="4.72166">
        <ele>360.00272</ele>
        <time>2023-07-02T15:54:16.000Z</time>
      </trkpt>
      <trkpt lat="45.80685" lon="4.72162">
        <ele>360.1106</ele>
        <time>2023-07-02T15:54:17.000Z</time>
      </trkpt>
      <trkpt lat="45.80684" lon="4.72159">
        <ele>360.23895</ele>
        <time>2023-07-02T15:54:18.000Z</time>
      </trkpt>
      <trkpt lat="45.80683" lon="4.72156">
        <ele>360.32599</ele>
        <time>2023-07-02T15:54:19.000Z</time>
      </trkpt>
      <trkpt lat="45.80683" lon="4.72154">
        <ele>360.41577</ele>
        <time>2023-07-02T15:54:20.000Z</time>
      </trkpt>
      <trkpt lat="45.80684" lon="4.72151">
        <ele>360.49078</ele>
        <time>2023-07-02T15:54:21.000Z</time>
      </trkpt>
      <trkpt lat="45.80685" lon="4.72148">
        <ele>360.56995</ele>
        <time>2023-07-02T15:54:22.000Z</time>
      </trkpt>
      <trkpt lat="45.80687" lon="4.72146">
        <ele>360.6366</ele>
        <time>2023-07-02T15:54:23.000Z</time>
      </trkpt>
      <trkpt lat="45.80688" lon="4.72142">
        <ele>360.617</ele>
        <time>2023-07-02T15:54:24.000Z</time>
      </trkpt>
      <trkpt lat="45.80689" lon="4.72139">
        <ele>360.58054</ele>
        <time>2023-07-02T15:54:25.000Z</time>
      </trkpt>
      <trkpt lat="45.80691" lon="4.72134">
        <ele>360.51675</ele>
        <time>2023-07-02T15:54:26.000Z</time>
      </trkpt>
      <trkpt lat="45.80696" lon="4.72137">
        <ele>360.39987</ele>
        <time>2023-07-02T15:54:27.000Z</time>
      </trkpt>
      <trkpt lat="45.80698" lon="4.72142">
        <ele>360.28357</ele>
        <time>2023-07-02T15:54:28.000Z</time>
      </trkpt>
      <trkpt lat="45.80698" lon="4.72148">
        <ele>360.20306</ele>
        <time>2023-07-02T15:54:29.000Z</time>
      </trkpt>
      <trkpt lat="45.80699" lon="4.72155">
        <ele>360.10632</ele>
        <time>2023-07-02T15:54:30.000Z</time>
      </trkpt>
      <trkpt lat="45.807" lon="4.72162">
        <ele>359.98395</ele>
        <time>2023-07-02T15:54:31.000Z</time>
      </trkpt>
      <trkpt lat="45.807" lon="4.72169">
        <ele>359.84235</ele>
        <time>2023-07-02T15:54:32.000Z</time>
      </trkpt>
      <trkpt lat="45.807" lon="4.72177">
        <ele>359.68829</ele>
        <time>2023-07-02T15:54:33.000Z</time>
      </trkpt>
      <trkpt lat="45.807" lon="4.72185">
        <ele>359.53217</ele>
        <time>2023-07-02T15:54:34.000Z</time>
      </trkpt>
      <trkpt lat="45.807" lon="4.72193">
        <ele>359.37558</ele>
        <time>2023-07-02T15:54:35.000Z</time>
      </trkpt>
      <trkpt lat="45.807" lon="4.72202">
        <ele>359.24933</ele>
        <time>2023-07-02T15:54:36.000Z</time>
      </trkpt>
      <trkpt lat="45.80699" lon="4.72211">
        <ele>359.08319</ele>
        <time>2023-07-02T15:54:37.000Z</time>
      </trkpt>
      <trkpt lat="45.80699" lon="4.7222">
        <ele>358.89166</ele>
        <time>2023-07-02T15:54:38.000Z</time>
      </trkpt>
      <trkpt lat="45.807" lon="4.7223">
        <ele>358.70856</ele>
        <time>2023-07-02T15:54:39.000Z</time>
      </trkpt>
      <trkpt lat="45.807" lon="4.72239">
        <ele>358.50162</ele>
        <time>2023-07-02T15:54:40.000Z</time>
      </trkpt>
      <trkpt lat="45.807" lon="4.7225">
        <ele>358.29648</ele>
        <time>2023-07-02T15:54:41.000Z</time>
      </trkpt>
      <trkpt lat="45.80699" lon="4.7226">
        <ele>358.06046</ele>
        <time>2023-07-02T15:54:42.000Z</time>
      </trkpt>
      <trkpt lat="45.80699" lon="4.7227">
        <ele>357.80731</ele>
        <time>2023-07-02T15:54:43.000Z</time>
      </trkpt>
      <trkpt lat="45.80698" lon="4.72279">
        <ele>357.66699</ele>
        <time>2023-07-02T15:54:44.000Z</time>
      </trkpt>
      <trkpt lat="45.80698" lon="4.72288">
        <ele>357.49207</ele>
        <time>2023-07-02T15:54:45.000Z</time>
      </trkpt>
      <trkpt lat="45.80696" lon="4.72297">
        <ele>357.31049</ele>
        <time>2023-07-02T15:54:46.000Z</time>
      </trkpt>
      <trkpt lat="45.80695" lon="4.72305">
        <ele>357.16516</ele>
        <time>2023-07-02T15:54:47.000Z</time>
      </trkpt>
      <trkpt lat="45.80694" lon="4.72314">
        <ele>356.99432</ele>
        <time>2023-07-02T15:54:48.000Z</time>
      </trkpt>
      <trkpt lat="45.80693" lon="4.72321">
        <ele>356.77484</ele>
        <time>2023-07-02T15:54:49.000Z</time>
      </trkpt>
      <trkpt lat="45.80693" lon="4.72327">
        <ele>356.52585</ele>
        <time>2023-07-02T15:54:50.000Z</time>
      </trkpt>
      <trkpt lat="45.80693" lon="4.72334">
        <ele>356.28082</ele>
        <time>2023-07-02T15:54:51.000Z</time>
      </trkpt>
      <trkpt lat="45.80693" lon="4.72336">
        <ele>356.03497</ele>
        <time>2023-07-02T15:54:52.000Z</time>
      </trkpt>
      <trkpt lat="45.80693" lon="4.7234">
        <ele>355.80011</ele>
        <time>2023-07-02T15:54:53.000Z</time>
      </trkpt>
      <trkpt lat="45.80693" lon="4.72342">
        <ele>355.54901</ele>
        <time>2023-07-02T15:54:54.000Z</time>
      </trkpt>
      <trkpt lat="45.80692" lon="4.72345">
        <ele>355.30539</ele>
        <time>2023-07-02T15:54:55.000Z</time>
      </trkpt>
      <trkpt lat="45.80691" lon="4.72347">
        <ele>355.05054</ele>
        <time>2023-07-02T15:54:56.000Z</time>
      </trkpt>
      <trkpt lat="45.8069" lon="4.7235">
        <ele>354.81055</ele>
        <time>2023-07-02T15:54:57.000Z</time>
      </trkpt>
      <trkpt lat="45.8069" lon="4.72353">
        <ele>354.57214</ele>
        <time>2023-07-02T15:54:58.000Z</time>
      </trkpt>
      <trkpt lat="45.80689" lon="4.72357">
        <ele>354.31964</ele>
        <time>2023-07-02T15:54:59.000Z</time>
      </trkpt>
      <trkpt lat="45.80689" lon="4.72362">
        <ele>354.08264</ele>
        <time>2023-07-02T15:55:00.000Z</time>
      </trkpt>
      <trkpt lat="45.80688" lon="4.72367">
        <ele>353.84964</ele>
        <time>2023-07-02T15:55:01.000Z</time>
      </trkpt>
      <trkpt lat="45.80687" lon="4.72373">
        <ele>353.6427</ele>
        <time>2023-07-02T15:55:02.000Z</time>
      </trkpt>
      <trkpt lat="45.80686" lon="4.72378">
        <ele>353.47357</ele>
        <time>2023-07-02T15:55:03.000Z</time>
      </trkpt>
      <trkpt lat="45.80685" lon="4.72384">
        <ele>353.2507</ele>
        <time>2023-07-02T15:55:04.000Z</time>
      </trkpt>
      <trkpt lat="45.80684" lon="4.7239">
        <ele>353.04999</ele>
        <time>2023-07-02T15:55:05.000Z</time>
      </trkpt>
      <trkpt lat="45.80683" lon="4.72396">
        <ele>352.88385</ele>
        <time>2023-07-02T15:55:06.000Z</time>
      </trkpt>
      <trkpt lat="45.80683" lon="4.72402">
        <ele>352.74301</ele>
        <time>2023-07-02T15:55:07.000Z</time>
      </trkpt>
      <trkpt lat="45.80683" lon="4.72408">
        <ele>352.64883</ele>
        <time>2023-07-02T15:55:08.000Z</time>
      </trkpt>
      <trkpt lat="45.80683" lon="4.72414">
        <ele>352.57498</ele>
        <time>2023-07-02T15:55:09.000Z</time>
      </trkpt>
      <trkpt lat="45.80683" lon="4.7242">
        <ele>352.53653</ele>
        <time>2023-07-02T15:55:10.000Z</time>
      </trkpt>
      <trkpt lat="45.80683" lon="4.72427">
        <ele>352.50757</ele>
        <time>2023-07-02T15:55:11.000Z</time>
      </trkpt>
      <trkpt lat="45.80683" lon="4.72432">
        <ele>352.49332</ele>
        <time>2023-07-02T15:55:12.000Z</time>
      </trkpt>
      <trkpt lat="45.80684" lon="4.72437">
        <ele>352.46777</ele>
        <time>2023-07-02T15:55:13.000Z</time>
      </trkpt>
      <trkpt lat="45.80685" lon="4.72442">
        <ele>352.43036</ele>
        <time>2023-07-02T15:55:14.000Z</time>
      </trkpt>
      <trkpt lat="45.80687" lon="4.72447">
        <ele>352.396</ele>
        <time>2023-07-02T15:55:15.000Z</time>
      </trkpt>
      <trkpt lat="45.80689" lon="4.7245">
        <ele>352.33032</ele>
        <time>2023-07-02T15:55:16.000Z</time>
      </trkpt>
      <trkpt lat="45.80692" lon="4.72454">
        <ele>352.26813</ele>
        <time>2023-07-02T15:55:17.000Z</time>
      </trkpt>
      <trkpt lat="45.80696" lon="4.72458">
        <ele>352.22415</ele>
        <time>2023-07-02T15:55:18.000Z</time>
      </trkpt>
      <trkpt lat="45.807" lon="4.72461">
        <ele>352.15683</ele>
        <time>2023-07-02T15:55:19.000Z</time>
      </trkpt>
      <trkpt lat="45.80704" lon="4.72463">
        <ele>352.09219</ele>
        <time>2023-07-02T15:55:20.000Z</time>
      </trkpt>
      <trkpt lat="45.80708" lon="4.72465">
        <ele>352.03174</ele>
        <time>2023-07-02T15:55:21.000Z</time>
      </trkpt>
      <trkpt lat="45.80712" lon="4.72467">
        <ele>351.97046</ele>
        <time>2023-07-02T15:55:22.000Z</time>
      </trkpt>
      <trkpt lat="45.80716" lon="4.72469">
        <ele>351.91949</ele>
        <time>2023-07-02T15:55:23.000Z</time>
      </trkpt>
      <trkpt lat="45.8072" lon="4.72472">
        <ele>351.89957</ele>
        <time>2023-07-02T15:55:24.000Z</time>
      </trkpt>
      <trkpt lat="45.80724" lon="4.72474">
        <ele>351.8638</ele>
        <time>2023-07-02T15:55:25.000Z</time>
      </trkpt>
      <trkpt lat="45.80728" lon="4.72475">
        <ele>351.86444</ele>
        <time>2023-07-02T15:55:26.000Z</time>
      </trkpt>
      <trkpt lat="45.80732" lon="4.72477">
        <ele>351.85565</ele>
        <time>2023-07-02T15:55:27.000Z</time>
      </trkpt>
      <trkpt lat="45.80736" lon="4.72478">
        <ele>351.80035</ele>
        <time>2023-07-02T15:55:28.000Z</time>
      </trkpt>
      <trkpt lat="45.8074" lon="4.7248">
        <ele>351.74988</ele>
        <time>2023-07-02T15:55:29.000Z</time>
      </trkpt>
      <trkpt lat="45.80744" lon="4.72482">
        <ele>351.70581</ele>
        <time>2023-07-02T15:55:30.000Z</time>
      </trkpt>
      <trkpt lat="45.80748" lon="4.72484">
        <ele>351.63843</ele>
        <time>2023-07-02T15:55:31.000Z</time>
      </trkpt>
      <trkpt lat="45.80755" lon="4.72487">
        <ele>351.56812</ele>
        <time>2023-07-02T15:55:32.000Z</time>
      </trkpt>
      <trkpt lat="45.80759" lon="4.72488">
        <ele>351.50616</ele>
        <time>2023-07-02T15:55:33.000Z</time>
      </trkpt>
      <trkpt lat="45.80764" lon="4.72491">
        <ele>351.47842</ele>
        <time>2023-07-02T15:55:34.000Z</time>
      </trkpt>
      <trkpt lat="45.80768" lon="4.72494">
        <ele>351.43927</ele>
        <time>2023-07-02T15:55:35.000Z</time>
      </trkpt>
      <trkpt lat="45.80772" lon="4.72495">
        <ele>351.43756</ele>
        <time>2023-07-02T15:55:36.000Z</time>
      </trkpt>
      <trkpt lat="45.80777" lon="4.72497">
        <ele>351.44537</ele>
        <time>2023-07-02T15:55:37.000Z</time>
      </trkpt>
      <trkpt lat="45.80781" lon="4.72499">
        <ele>351.45554</ele>
        <time>2023-07-02T15:55:38.000Z</time>
      </trkpt>
      <trkpt lat="45.80785" lon="4.72502">
        <ele>351.49814</ele>
        <time>2023-07-02T15:55:39.000Z</time>
      </trkpt>
      <trkpt lat="45.8079" lon="4.72505">
        <ele>351.54218</ele>
        <time>2023-07-02T15:55:40.000Z</time>
      </trkpt>
      <trkpt lat="45.80794" lon="4.72506">
        <ele>351.60864</ele>
        <time>2023-07-02T15:55:41.000Z</time>
      </trkpt>
      <trkpt lat="45.80798" lon="4.72509">
        <ele>351.68768</ele>
        <time>2023-07-02T15:55:42.000Z</time>
      </trkpt>
      <trkpt lat="45.80803" lon="4.72511">
        <ele>351.74142</ele>
        <time>2023-07-02T15:55:43.000Z</time>
      </trkpt>
      <trkpt lat="45.80808" lon="4.72514">
        <ele>351.82108</ele>
        <time>2023-07-02T15:55:44.000Z</time>
      </trkpt>
      <trkpt lat="45.80812" lon="4.72516">
        <ele>351.91043</ele>
        <time>2023-07-02T15:55:45.000Z</time>
      </trkpt>
      <trkpt lat="45.80816" lon="4.72518">
        <ele>351.99615</ele>
        <time>2023-07-02T15:55:46.000Z</time>
      </trkpt>
      <trkpt lat="45.8082" lon="4.72521">
        <ele>352.06036</ele>
        <time>2023-07-02T15:55:47.000Z</time>
      </trkpt>
      <trkpt lat="45.80824" lon="4.72524">
        <ele>352.11533</ele>
        <time>2023-07-02T15:55:48.000Z</time>
      </trkpt>
      <trkpt lat="45.80829" lon="4.72527">
        <ele>352.17792</ele>
        <time>2023-07-02T15:55:49.000Z</time>
      </trkpt>
      <trkpt lat="45.80833" lon="4.72527">
        <ele>352.24991</ele>
        <time>2023-07-02T15:55:50.000Z</time>
      </trkpt>
      <trkpt lat="45.80839" lon="4.72529">
        <ele>352.37653</ele>
        <time>2023-07-02T15:55:51.000Z</time>
      </trkpt>
      <trkpt lat="45.80843" lon="4.72531">
        <ele>352.51447</ele>
        <time>2023-07-02T15:55:52.000Z</time>
      </trkpt>
      <trkpt lat="45.80848" lon="4.72534">
        <ele>352.68048</ele>
        <time>2023-07-02T15:55:53.000Z</time>
      </trkpt>
      <trkpt lat="45.80853" lon="4.72537">
        <ele>352.84076</ele>
        <time>2023-07-02T15:55:54.000Z</time>
      </trkpt>
      <trkpt lat="45.80858" lon="4.72539">
        <ele>353.00958</ele>
        <time>2023-07-02T15:55:55.000Z</time>
      </trkpt>
      <trkpt lat="45.80862" lon="4.72542">
        <ele>353.17715</ele>
        <time>2023-07-02T15:55:56.000Z</time>
      </trkpt>
      <trkpt lat="45.80866" lon="4.72545">
        <ele>353.29745</ele>
        <time>2023-07-02T15:55:57.000Z</time>
      </trkpt>
      <trkpt lat="45.8087" lon="4.72546">
        <ele>353.37347</ele>
        <time>2023-07-02T15:55:58.000Z</time>
      </trkpt>
      <trkpt lat="45.80875" lon="4.72547">
        <ele>353.43979</ele>
        <time>2023-07-02T15:55:59.000Z</time>
      </trkpt>
      <trkpt lat="45.8088" lon="4.7255">
        <ele>353.48749</ele>
        <time>2023-07-02T15:56:00.000Z</time>
      </trkpt>
      <trkpt lat="45.80884" lon="4.72552">
        <ele>353.55093</ele>
        <time>2023-07-02T15:56:01.000Z</time>
      </trkpt>
      <trkpt lat="45.80888" lon="4.72554">
        <ele>353.62436</ele>
        <time>2023-07-02T15:56:02.000Z</time>
      </trkpt>
      <trkpt lat="45.80893" lon="4.72556">
        <ele>353.73108</ele>
        <time>2023-07-02T15:56:03.000Z</time>
      </trkpt>
      <trkpt lat="45.80898" lon="4.72558">
        <ele>353.82684</ele>
        <time>2023-07-02T15:56:04.000Z</time>
      </trkpt>
      <trkpt lat="45.80903" lon="4.72559">
        <ele>353.96234</ele>
        <time>2023-07-02T15:56:05.000Z</time>
      </trkpt>
      <trkpt lat="45.80907" lon="4.72562">
        <ele>354.07169</ele>
        <time>2023-07-02T15:56:06.000Z</time>
      </trkpt>
      <trkpt lat="45.80912" lon="4.72564">
        <ele>354.19922</ele>
        <time>2023-07-02T15:56:07.000Z</time>
      </trkpt>
      <trkpt lat="45.80918" lon="4.72566">
        <ele>354.37201</ele>
        <time>2023-07-02T15:56:08.000Z</time>
      </trkpt>
      <trkpt lat="45.80923" lon="4.72568">
        <ele>354.55078</ele>
        <time>2023-07-02T15:56:09.000Z</time>
      </trkpt>
      <trkpt lat="45.80928" lon="4.72573">
        <ele>354.64883</ele>
        <time>2023-07-02T15:56:10.000Z</time>
      </trkpt>
      <trkpt lat="45.80932" lon="4.72578">
        <ele>354.69714</ele>
        <time>2023-07-02T15:56:11.000Z</time>
      </trkpt>
      <trkpt lat="45.80937" lon="4.72584">
        <ele>354.70969</ele>
        <time>2023-07-02T15:56:12.000Z</time>
      </trkpt>
      <trkpt lat="45.80941" lon="4.72586">
        <ele>354.67795</ele>
        <time>2023-07-02T15:56:13.000Z</time>
      </trkpt>
      <trkpt lat="45.80947" lon="4.72588">
        <ele>354.64517</ele>
        <time>2023-07-02T15:56:14.000Z</time>
      </trkpt>
      <trkpt lat="45.80952" lon="4.72591">
        <ele>353.82275</ele>
        <time>2023-07-02T15:56:15.000Z</time>
      </trkpt>
      <trkpt lat="45.80957" lon="4.72594">
        <ele>353.24905</ele>
        <time>2023-07-02T15:56:16.000Z</time>
      </trkpt>
      <trkpt lat="45.80962" lon="4.72595">
        <ele>352.66122</ele>
        <time>2023-07-02T15:56:17.000Z</time>
      </trkpt>
      <trkpt lat="45.80967" lon="4.72597">
        <ele>352.10223</ele>
        <time>2023-07-02T15:56:18.000Z</time>
      </trkpt>
      <trkpt lat="45.80972" lon="4.72599">
        <ele>351.56058</ele>
        <time>2023-07-02T15:56:19.000Z</time>
      </trkpt>
      <trkpt lat="45.80976" lon="4.72602">
        <ele>350.80515</ele>
        <time>2023-07-02T15:56:20.000Z</time>
      </trkpt>
      <trkpt lat="45.8098" lon="4.72604">
        <ele>350.32202</ele>
        <time>2023-07-02T15:56:21.000Z</time>
      </trkpt>
      <trkpt lat="45.80984" lon="4.72605">
        <ele>350.33832</ele>
        <time>2023-07-02T15:56:22.000Z</time>
      </trkpt>
      <trkpt lat="45.80989" lon="4.72604">
        <ele>350.33344</ele>
        <time>2023-07-02T15:56:23.000Z</time>
      </trkpt>
      <trkpt lat="45.80994" lon="4.72608">
        <ele>350.29611</ele>
        <time>2023-07-02T15:56:24.000Z</time>
      </trkpt>
      <trkpt lat="45.80999" lon="4.72609">
        <ele>350.28006</ele>
        <time>2023-07-02T15:56:25.000Z</time>
      </trkpt>
      <trkpt lat="45.81005" lon="4.72611">
        <ele>350.28339</ele>
        <time>2023-07-02T15:56:26.000Z</time>
      </trkpt>
      <trkpt lat="45.8101" lon="4.72615">
        <ele>350.30826</ele>
        <time>2023-07-02T15:56:27.000Z</time>
      </trkpt>
      <trkpt lat="45.81014" lon="4.72617">
        <ele>350.1622</ele>
        <time>2023-07-02T15:56:28.000Z</time>
      </trkpt>
      <trkpt lat="45.81019" lon="4.7262">
        <ele>349.90994</ele>
        <time>2023-07-02T15:56:29.000Z</time>
      </trkpt>
      <trkpt lat="45.81022" lon="4.72623">
        <ele>349.65802</ele>
        <time>2023-07-02T15:56:30.000Z</time>
      </trkpt>
      <trkpt lat="45.81028" lon="4.72626">
        <ele>349.40372</ele>
        <time>2023-07-02T15:56:31.000Z</time>
      </trkpt>
      <trkpt lat="45.81033" lon="4.7263">
        <ele>349.28146</ele>
        <time>2023-07-02T15:56:32.000Z</time>
      </trkpt>
      <trkpt lat="45.81038" lon="4.72634">
        <ele>349.15454</ele>
        <time>2023-07-02T15:56:33.000Z</time>
      </trkpt>
      <trkpt lat="45.81043" lon="4.72638">
        <ele>349.03134</ele>
        <time>2023-07-02T15:56:34.000Z</time>
      </trkpt>
      <trkpt lat="45.81046" lon="4.7264">
        <ele>349.71841</ele>
        <time>2023-07-02T15:56:35.000Z</time>
      </trkpt>
      <trkpt lat="45.81051" lon="4.72644">
        <ele>350.15323</ele>
        <time>2023-07-02T15:56:36.000Z</time>
      </trkpt>
      <trkpt lat="45.81056" lon="4.72648">
        <ele>350.62524</ele>
        <time>2023-07-02T15:56:37.000Z</time>
      </trkpt>
      <trkpt lat="45.81062" lon="4.72653">
        <ele>350.98883</ele>
        <time>2023-07-02T15:56:38.000Z</time>
      </trkpt>
      <trkpt lat="45.81067" lon="4.72658">
        <ele>351.29974</ele>
        <time>2023-07-02T15:56:39.000Z</time>
      </trkpt>
      <trkpt lat="45.81072" lon="4.72662">
        <ele>351.96857</ele>
        <time>2023-07-02T15:56:40.000Z</time>
      </trkpt>
      <trkpt lat="45.81077" lon="4.72665">
        <ele>352.34174</ele>
        <time>2023-07-02T15:56:41.000Z</time>
      </trkpt>
      <trkpt lat="45.81082" lon="4.72668">
        <ele>352.24152</ele>
        <time>2023-07-02T15:56:42.000Z</time>
      </trkpt>
      <trkpt lat="45.81087" lon="4.72673">
        <ele>352.10638</ele>
        <time>2023-07-02T15:56:43.000Z</time>
      </trkpt>
      <trkpt lat="45.81093" lon="4.72679">
        <ele>352.00275</ele>
        <time>2023-07-02T15:56:44.000Z</time>
      </trkpt>
      <trkpt lat="45.81099" lon="4.72684">
        <ele>351.8736</ele>
        <time>2023-07-02T15:56:45.000Z</time>
      </trkpt>
      <trkpt lat="45.81102" lon="4.72688">
        <ele>351.73654</ele>
        <time>2023-07-02T15:56:46.000Z</time>
      </trkpt>
      <trkpt lat="45.81107" lon="4.72692">
        <ele>351.4675</ele>
        <time>2023-07-02T15:56:47.000Z</time>
      </trkpt>
      <trkpt lat="45.81112" lon="4.727">
        <ele>351.26715</ele>
        <time>2023-07-02T15:56:48.000Z</time>
      </trkpt>
      <trkpt lat="45.81116" lon="4.72706">
        <ele>351.2547</ele>
        <time>2023-07-02T15:56:49.000Z</time>
      </trkpt>
      <trkpt lat="45.81122" lon="4.72711">
        <ele>351.32291</ele>
        <time>2023-07-02T15:56:50.000Z</time>
      </trkpt>
      <trkpt lat="45.81128" lon="4.72715">
        <ele>351.40747</ele>
        <time>2023-07-02T15:56:51.000Z</time>
      </trkpt>
      <trkpt lat="45.81133" lon="4.72718">
        <ele>351.40509</ele>
        <time>2023-07-02T15:56:52.000Z</time>
      </trkpt>
      <trkpt lat="45.81138" lon="4.72721">
        <ele>351.40045</ele>
        <time>2023-07-02T15:56:53.000Z</time>
      </trkpt>
      <trkpt lat="45.81145" lon="4.72723">
        <ele>352.28833</ele>
        <time>2023-07-02T15:56:54.000Z</time>
      </trkpt>
      <trkpt lat="45.8115" lon="4.72728">
        <ele>353.20282</ele>
        <time>2023-07-02T15:56:55.000Z</time>
      </trkpt>
      <trkpt lat="45.81154" lon="4.72731">
        <ele>354.08844</ele>
        <time>2023-07-02T15:56:56.000Z</time>
      </trkpt>
      <trkpt lat="45.81157" lon="4.72734">
        <ele>355.03204</ele>
        <time>2023-07-02T15:56:57.000Z</time>
      </trkpt>
      <trkpt lat="45.81161" lon="4.72737">
        <ele>356.07758</ele>
        <time>2023-07-02T15:56:58.000Z</time>
      </trkpt>
      <trkpt lat="45.81164" lon="4.7274">
        <ele>357.12885</ele>
        <time>2023-07-02T15:56:59.000Z</time>
      </trkpt>
      <trkpt lat="45.81169" lon="4.72744">
        <ele>358.03284</ele>
        <time>2023-07-02T15:57:00.000Z</time>
      </trkpt>
      <trkpt lat="45.81172" lon="4.72747">
        <ele>359.07162</ele>
        <time>2023-07-02T15:57:01.000Z</time>
      </trkpt>
      <trkpt lat="45.81176" lon="4.72748">
        <ele>360.24768</ele>
        <time>2023-07-02T15:57:02.000Z</time>
      </trkpt>
      <trkpt lat="45.81181" lon="4.72752">
        <ele>361.19937</ele>
        <time>2023-07-02T15:57:03.000Z</time>
      </trkpt>
      <trkpt lat="45.81184" lon="4.72754">
        <ele>362.13678</ele>
        <time>2023-07-02T15:57:04.000Z</time>
      </trkpt>
      <trkpt lat="45.81186" lon="4.72756">
        <ele>363.05548</ele>
        <time>2023-07-02T15:57:05.000Z</time>
      </trkpt>
      <trkpt lat="45.81188" lon="4.7276">
        <ele>363.94519</ele>
        <time>2023-07-02T15:57:06.000Z</time>
      </trkpt>
      <trkpt lat="45.8119" lon="4.72763">
        <ele>364.96185</ele>
        <time>2023-07-02T15:57:07.000Z</time>
      </trkpt>
      <trkpt lat="45.81192" lon="4.72765">
        <ele>366.06091</ele>
        <time>2023-07-02T15:57:08.000Z</time>
      </trkpt>
      <trkpt lat="45.81194" lon="4.72767">
        <ele>367.07529</ele>
        <time>2023-07-02T15:57:09.000Z</time>
      </trkpt>
      <trkpt lat="45.81196" lon="4.72769">
        <ele>368.13654</ele>
        <time>2023-07-02T15:57:10.000Z</time>
      </trkpt>
      <trkpt lat="45.81199" lon="4.72771">
        <ele>369.15338</ele>
        <time>2023-07-02T15:57:11.000Z</time>
      </trkpt>
      <trkpt lat="45.81202" lon="4.72774">
        <ele>369.99396</ele>
        <time>2023-07-02T15:57:12.000Z</time>
      </trkpt>
      <trkpt lat="45.81205" lon="4.72776">
        <ele>370.90726</ele>
        <time>2023-07-02T15:57:13.000Z</time>
      </trkpt>
      <trkpt lat="45.81208" lon="4.72779">
        <ele>372.43906</ele>
        <time>2023-07-02T15:57:14.000Z</time>
      </trkpt>
      <trkpt lat="45.8121" lon="4.72781">
        <ele>373.84772</ele>
        <time>2023-07-02T15:57:15.000Z</time>
      </trkpt>
      <trkpt lat="45.81213" lon="4.72784">
        <ele>375.25214</ele>
        <time>2023-07-02T15:57:16.000Z</time>
      </trkpt>
      <trkpt lat="45.81215" lon="4.72785">
        <ele>376.51685</ele>
        <time>2023-07-02T15:57:17.000Z</time>
      </trkpt>
      <trkpt lat="45.81217" lon="4.72786">
        <ele>377.81067</ele>
        <time>2023-07-02T15:57:18.000Z</time>
      </trkpt>
      <trkpt lat="45.81219" lon="4.72786">
        <ele>379.17108</ele>
        <time>2023-07-02T15:57:19.000Z</time>
      </trkpt>
      <trkpt lat="45.81221" lon="4.72784">
        <ele>380.55704</ele>
        <time>2023-07-02T15:57:20.000Z</time>
      </trkpt>
      <trkpt lat="45.81223" lon="4.72782">
        <ele>381.81253</ele>
        <time>2023-07-02T15:57:21.000Z</time>
      </trkpt>
      <trkpt lat="45.81225" lon="4.72779">
        <ele>382.91702</ele>
        <time>2023-07-02T15:57:22.000Z</time>
      </trkpt>
      <trkpt lat="45.81228" lon="4.72776">
        <ele>384.27338</ele>
        <time>2023-07-02T15:57:23.000Z</time>
      </trkpt>
      <trkpt lat="45.81231" lon="4.72772">
        <ele>385.62988</ele>
        <time>2023-07-02T15:57:24.000Z</time>
      </trkpt>
      <trkpt lat="45.81233" lon="4.72767">
        <ele>386.98541</ele>
        <time>2023-07-02T15:57:25.000Z</time>
      </trkpt>
      <trkpt lat="45.81234" lon="4.72762">
        <ele>388.37268</ele>
        <time>2023-07-02T15:57:26.000Z</time>
      </trkpt>
      <trkpt lat="45.81236" lon="4.72756">
        <ele>389.75568</ele>
        <time>2023-07-02T15:57:27.000Z</time>
      </trkpt>
      <trkpt lat="45.81238" lon="4.7275">
        <ele>391.15842</ele>
        <time>2023-07-02T15:57:28.000Z</time>
      </trkpt>
      <trkpt lat="45.81239" lon="4.72745">
        <ele>392.55661</ele>
        <time>2023-07-02T15:57:29.000Z</time>
      </trkpt>
      <trkpt lat="45.81241" lon="4.72739">
        <ele>393.87128</ele>
        <time>2023-07-02T15:57:30.000Z</time>
      </trkpt>
      <trkpt lat="45.81243" lon="4.72734">
        <ele>395.22968</ele>
        <time>2023-07-02T15:57:31.000Z</time>
      </trkpt>
      <trkpt lat="45.81246" lon="4.72729">
        <ele>397.49576</ele>
        <time>2023-07-02T15:57:32.000Z</time>
      </trkpt>
      <trkpt lat="45.81248" lon="4.72723">
        <ele>397.50882</ele>
        <time>2023-07-02T15:57:33.000Z</time>
      </trkpt>
      <trkpt lat="45.8125" lon="4.72718">
        <ele>396.02121</ele>
        <time>2023-07-02T15:57:34.000Z</time>
      </trkpt>
      <trkpt lat="45.81252" lon="4.72713">
        <ele>394.61328</ele>
        <time>2023-07-02T15:57:35.000Z</time>
      </trkpt>
      <trkpt lat="45.81254" lon="4.72706">
        <ele>393.2305</ele>
        <time>2023-07-02T15:57:36.000Z</time>
      </trkpt>
      <trkpt lat="45.81256" lon="4.727">
        <ele>391.95251</ele>
        <time>2023-07-02T15:57:37.000Z</time>
      </trkpt>
      <trkpt lat="45.81258" lon="4.72694">
        <ele>390.66351</ele>
        <time>2023-07-02T15:57:38.000Z</time>
      </trkpt>
      <trkpt lat="45.81259" lon="4.72689">
        <ele>389.35721</ele>
        <time>2023-07-02T15:57:39.000Z</time>
      </trkpt>
      <trkpt lat="45.81261" lon="4.72683">
        <ele>388.0144</ele>
        <time>2023-07-02T15:57:40.000Z</time>
      </trkpt>
      <trkpt lat="45.81263" lon="4.72677">
        <ele>386.68976</ele>
        <time>2023-07-02T15:57:41.000Z</time>
      </trkpt>
      <trkpt lat="45.81266" lon="4.72671">
        <ele>385.36874</ele>
        <time>2023-07-02T15:57:42.000Z</time>
      </trkpt>
      <trkpt lat="45.81267" lon="4.72665">
        <ele>384.03769</ele>
        <time>2023-07-02T15:57:43.000Z</time>
      </trkpt>
      <trkpt lat="45.81269" lon="4.72659">
        <ele>382.69934</ele>
        <time>2023-07-02T15:57:44.000Z</time>
      </trkpt>
      <trkpt lat="45.81271" lon="4.72652">
        <ele>381.37616</ele>
        <time>2023-07-02T15:57:45.000Z</time>
      </trkpt>
      <trkpt lat="45.81273" lon="4.72646">
        <ele>380.02863</ele>
        <time>2023-07-02T15:57:46.000Z</time>
      </trkpt>
      <trkpt lat="45.81275" lon="4.7264">
        <ele>378.66602</ele>
        <time>2023-07-02T15:57:47.000Z</time>
      </trkpt>
      <trkpt lat="45.81277" lon="4.72633">
        <ele>377.29214</ele>
        <time>2023-07-02T15:57:48.000Z</time>
      </trkpt>
      <trkpt lat="45.81279" lon="4.72627">
        <ele>375.9198</ele>
        <time>2023-07-02T15:57:49.000Z</time>
      </trkpt>
      <trkpt lat="45.81282" lon="4.72622">
        <ele>374.57251</ele>
        <time>2023-07-02T15:57:50.000Z</time>
      </trkpt>
      <trkpt lat="45.81283" lon="4.72615">
        <ele>373.20493</ele>
        <time>2023-07-02T15:57:51.000Z</time>
      </trkpt>
      <trkpt lat="45.81285" lon="4.72609">
        <ele>371.05536</ele>
        <time>2023-07-02T15:57:52.000Z</time>
      </trkpt>
      <trkpt lat="45.81288" lon="4.72603">
        <ele>371.13489</ele>
        <time>2023-07-02T15:57:53.000Z</time>
      </trkpt>
      <trkpt lat="45.8129" lon="4.72596">
        <ele>371.25763</ele>
        <time>2023-07-02T15:57:54.000Z</time>
      </trkpt>
      <trkpt lat="45.81292" lon="4.7259">
        <ele>371.36948</ele>
        <time>2023-07-02T15:57:55.000Z</time>
      </trkpt>
      <trkpt lat="45.81294" lon="4.72584">
        <ele>371.49722</ele>
        <time>2023-07-02T15:57:56.000Z</time>
      </trkpt>
      <trkpt lat="45.81296" lon="4.72578">
        <ele>371.62885</ele>
        <time>2023-07-02T15:57:57.000Z</time>
      </trkpt>
      <trkpt lat="45.81298" lon="4.72572">
        <ele>371.76416</ele>
        <time>2023-07-02T15:57:58.000Z</time>
      </trkpt>
      <trkpt lat="45.813" lon="4.72566">
        <ele>371.87695</ele>
        <time>2023-07-02T15:57:59.000Z</time>
      </trkpt>
      <trkpt lat="45.81302" lon="4.72558">
        <ele>372.02594</ele>
        <time>2023-07-02T15:58:00.000Z</time>
      </trkpt>
      <trkpt lat="45.81304" lon="4.72552">
        <ele>372.13144</ele>
        <time>2023-07-02T15:58:01.000Z</time>
      </trkpt>
      <trkpt lat="45.81307" lon="4.72546">
        <ele>372.19672</ele>
        <time>2023-07-02T15:58:02.000Z</time>
      </trkpt>
      <trkpt lat="45.81309" lon="4.72539">
        <ele>372.27396</ele>
        <time>2023-07-02T15:58:03.000Z</time>
      </trkpt>
      <trkpt lat="45.81311" lon="4.72534">
        <ele>372.44785</ele>
        <time>2023-07-02T15:58:04.000Z</time>
      </trkpt>
      <trkpt lat="45.81313" lon="4.72528">
        <ele>372.59021</ele>
        <time>2023-07-02T15:58:05.000Z</time>
      </trkpt>
      <trkpt lat="45.81314" lon="4.72521">
        <ele>372.75507</ele>
        <time>2023-07-02T15:58:06.000Z</time>
      </trkpt>
      <trkpt lat="45.81316" lon="4.72515">
        <ele>372.93362</ele>
        <time>2023-07-02T15:58:07.000Z</time>
      </trkpt>
      <trkpt lat="45.81318" lon="4.72509">
        <ele>373.11932</ele>
        <time>2023-07-02T15:58:08.000Z</time>
      </trkpt>
      <trkpt lat="45.81321" lon="4.72501">
        <ele>373.27051</ele>
        <time>2023-07-02T15:58:09.000Z</time>
      </trkpt>
      <trkpt lat="45.81323" lon="4.72496">
        <ele>373.41974</ele>
        <time>2023-07-02T15:58:10.000Z</time>
      </trkpt>
      <trkpt lat="45.81325" lon="4.72489">
        <ele>373.58929</ele>
        <time>2023-07-02T15:58:11.000Z</time>
      </trkpt>
      <trkpt lat="45.81327" lon="4.72483">
        <ele>373.80487</ele>
        <time>2023-07-02T15:58:12.000Z</time>
      </trkpt>
      <trkpt lat="45.81329" lon="4.72477">
        <ele>373.95593</ele>
        <time>2023-07-02T15:58:13.000Z</time>
      </trkpt>
      <trkpt lat="45.81331" lon="4.72471">
        <ele>374.07306</ele>
        <time>2023-07-02T15:58:14.000Z</time>
      </trkpt>
      <trkpt lat="45.81333" lon="4.72466">
        <ele>374.19977</ele>
        <time>2023-07-02T15:58:15.000Z</time>
      </trkpt>
      <trkpt lat="45.81335" lon="4.7246">
        <ele>374.32724</ele>
        <time>2023-07-02T15:58:16.000Z</time>
      </trkpt>
      <trkpt lat="45.81337" lon="4.72453">
        <ele>374.45697</ele>
        <time>2023-07-02T15:58:17.000Z</time>
      </trkpt>
      <trkpt lat="45.81339" lon="4.72447">
        <ele>374.59811</ele>
        <time>2023-07-02T15:58:18.000Z</time>
      </trkpt>
      <trkpt lat="45.8134" lon="4.7244">
        <ele>374.7547</ele>
        <time>2023-07-02T15:58:19.000Z</time>
      </trkpt>
      <trkpt lat="45.81342" lon="4.72434">
        <ele>374.914</ele>
        <time>2023-07-02T15:58:20.000Z</time>
      </trkpt>
      <trkpt lat="45.81343" lon="4.72428">
        <ele>375.10611</ele>
        <time>2023-07-02T15:58:21.000Z</time>
      </trkpt>
      <trkpt lat="45.81344" lon="4.72422">
        <ele>375.29367</ele>
        <time>2023-07-02T15:58:22.000Z</time>
      </trkpt>
      <trkpt lat="45.81345" lon="4.72417">
        <ele>375.47736</ele>
        <time>2023-07-02T15:58:23.000Z</time>
      </trkpt>
      <trkpt lat="45.81346" lon="4.72412">
        <ele>375.71957</ele>
        <time>2023-07-02T15:58:24.000Z</time>
      </trkpt>
      <trkpt lat="45.81348" lon="4.72406">
        <ele>375.96725</ele>
        <time>2023-07-02T15:58:25.000Z</time>
      </trkpt>
      <trkpt lat="45.81348" lon="4.72402">
        <ele>376.20743</ele>
        <time>2023-07-02T15:58:26.000Z</time>
      </trkpt>
      <trkpt lat="45.81348" lon="4.72398">
        <ele>376.4277</ele>
        <time>2023-07-02T15:58:27.000Z</time>
      </trkpt>
      <trkpt lat="45.81349" lon="4.72394">
        <ele>376.61841</ele>
        <time>2023-07-02T15:58:28.000Z</time>
      </trkpt>
      <trkpt lat="45.81348" lon="4.7239">
        <ele>376.83466</ele>
        <time>2023-07-02T15:58:29.000Z</time>
      </trkpt>
      <trkpt lat="45.81349" lon="4.72386">
        <ele>377.03943</ele>
        <time>2023-07-02T15:58:30.000Z</time>
      </trkpt>
      <trkpt lat="45.81349" lon="4.72382">
        <ele>377.39737</ele>
        <time>2023-07-02T15:58:31.000Z</time>
      </trkpt>
      <trkpt lat="45.81351" lon="4.72378">
        <ele>377.73022</ele>
        <time>2023-07-02T15:58:32.000Z</time>
      </trkpt>
      <trkpt lat="45.81353" lon="4.72374">
        <ele>378.00201</ele>
        <time>2023-07-02T15:58:33.000Z</time>
      </trkpt>
      <trkpt lat="45.81356" lon="4.72372">
        <ele>378.26395</ele>
        <time>2023-07-02T15:58:34.000Z</time>
      </trkpt>
      <trkpt lat="45.81358" lon="4.72369">
        <ele>378.52502</ele>
        <time>2023-07-02T15:58:35.000Z</time>
      </trkpt>
      <trkpt lat="45.81361" lon="4.72366">
        <ele>379.97809</ele>
        <time>2023-07-02T15:58:36.000Z</time>
      </trkpt>
      <trkpt lat="45.81363" lon="4.72363">
        <ele>381.41437</ele>
        <time>2023-07-02T15:58:37.000Z</time>
      </trkpt>
      <trkpt lat="45.81366" lon="4.72357">
        <ele>382.87982</ele>
        <time>2023-07-02T15:58:38.000Z</time>
      </trkpt>
      <trkpt lat="45.81367" lon="4.72351">
        <ele>384.34003</ele>
        <time>2023-07-02T15:58:39.000Z</time>
      </trkpt>
      <trkpt lat="45.81369" lon="4.72345">
        <ele>385.80676</ele>
        <time>2023-07-02T15:58:40.000Z</time>
      </trkpt>
      <trkpt lat="45.81372" lon="4.72338">
        <ele>387.28049</ele>
        <time>2023-07-02T15:58:41.000Z</time>
      </trkpt>
      <trkpt lat="45.81373" lon="4.72332">
        <ele>388.78735</ele>
        <time>2023-07-02T15:58:42.000Z</time>
      </trkpt>
      <trkpt lat="45.81375" lon="4.72325">
        <ele>390.29904</ele>
        <time>2023-07-02T15:58:43.000Z</time>
      </trkpt>
      <trkpt lat="45.81376" lon="4.72319">
        <ele>391.66422</ele>
        <time>2023-07-02T15:58:44.000Z</time>
      </trkpt>
      <trkpt lat="45.81378" lon="4.72313">
        <ele>393.05814</ele>
        <time>2023-07-02T15:58:45.000Z</time>
      </trkpt>
      <trkpt lat="45.81381" lon="4.72306">
        <ele>394.45383</ele>
        <time>2023-07-02T15:58:46.000Z</time>
      </trkpt>
      <trkpt lat="45.81383" lon="4.723">
        <ele>395.85242</ele>
        <time>2023-07-02T15:58:47.000Z</time>
      </trkpt>
      <trkpt lat="45.81385" lon="4.72294">
        <ele>397.91971</ele>
        <time>2023-07-02T15:58:48.000Z</time>
      </trkpt>
      <trkpt lat="45.81387" lon="4.72286">
        <ele>399.31195</ele>
        <time>2023-07-02T15:58:49.000Z</time>
      </trkpt>
      <trkpt lat="45.8139" lon="4.72279">
        <ele>400.96777</ele>
        <time>2023-07-02T15:58:50.000Z</time>
      </trkpt>
      <trkpt lat="45.81392" lon="4.72272">
        <ele>402.49384</ele>
        <time>2023-07-02T15:58:51.000Z</time>
      </trkpt>
      <trkpt lat="45.81394" lon="4.72266">
        <ele>404.03302</ele>
        <time>2023-07-02T15:58:52.000Z</time>
      </trkpt>
      <trkpt lat="45.81396" lon="4.72259">
        <ele>405.69498</ele>
        <time>2023-07-02T15:58:53.000Z</time>
      </trkpt>
      <trkpt lat="45.81399" lon="4.72252">
        <ele>407.36285</ele>
        <time>2023-07-02T15:58:54.000Z</time>
      </trkpt>
      <trkpt lat="45.81401" lon="4.72246">
        <ele>409.01474</ele>
        <time>2023-07-02T15:58:55.000Z</time>
      </trkpt>
      <trkpt lat="45.81403" lon="4.72239">
        <ele>409.48022</ele>
        <time>2023-07-02T15:58:56.000Z</time>
      </trkpt>
      <trkpt lat="45.81405" lon="4.72233">
        <ele>409.97015</ele>
        <time>2023-07-02T15:58:57.000Z</time>
      </trkpt>
      <trkpt lat="45.81407" lon="4.72226">
        <ele>410.42212</ele>
        <time>2023-07-02T15:58:58.000Z</time>
      </trkpt>
      <trkpt lat="45.81409" lon="4.7222">
        <ele>410.8811</ele>
        <time>2023-07-02T15:58:59.000Z</time>
      </trkpt>
      <trkpt lat="45.81411" lon="4.72214">
        <ele>411.34503</ele>
        <time>2023-07-02T15:59:00.000Z</time>
      </trkpt>
      <trkpt lat="45.81412" lon="4.72208">
        <ele>411.81152</ele>
        <time>2023-07-02T15:59:01.000Z</time>
      </trkpt>
      <trkpt lat="45.81414" lon="4.72202">
        <ele>412.28769</ele>
        <time>2023-07-02T15:59:02.000Z</time>
      </trkpt>
      <trkpt lat="45.81416" lon="4.72196">
        <ele>412.78125</ele>
        <time>2023-07-02T15:59:03.000Z</time>
      </trkpt>
      <trkpt lat="45.81418" lon="4.72188">
        <ele>413.27094</ele>
        <time>2023-07-02T15:59:04.000Z</time>
      </trkpt>
      <trkpt lat="45.8142" lon="4.72182">
        <ele>413.72687</ele>
        <time>2023-07-02T15:59:05.000Z</time>
      </trkpt>
      <trkpt lat="45.81422" lon="4.72175">
        <ele>414.22125</ele>
        <time>2023-07-02T15:59:06.000Z</time>
      </trkpt>
      <trkpt lat="45.81424" lon="4.72169">
        <ele>414.68237</ele>
        <time>2023-07-02T15:59:07.000Z</time>
      </trkpt>
      <trkpt lat="45.81426" lon="4.72163">
        <ele>414.49423</ele>
        <time>2023-07-02T15:59:08.000Z</time>
      </trkpt>
      <trkpt lat="45.81428" lon="4.72157">
        <ele>415.32364</ele>
        <time>2023-07-02T15:59:09.000Z</time>
      </trkpt>
      <trkpt lat="45.81429" lon="4.72152">
        <ele>416.13281</ele>
        <time>2023-07-02T15:59:10.000Z</time>
      </trkpt>
      <trkpt lat="45.81431" lon="4.72146">
        <ele>417.04892</ele>
        <time>2023-07-02T15:59:11.000Z</time>
      </trkpt>
      <trkpt lat="45.81433" lon="4.7214">
        <ele>417.11859</ele>
        <time>2023-07-02T15:59:12.000Z</time>
      </trkpt>
      <trkpt lat="45.81436" lon="4.72134">
        <ele>417.39789</ele>
        <time>2023-07-02T15:59:13.000Z</time>
      </trkpt>
      <trkpt lat="45.81438" lon="4.72127">
        <ele>417.59686</ele>
        <time>2023-07-02T15:59:14.000Z</time>
      </trkpt>
      <trkpt lat="45.8144" lon="4.7212">
        <ele>417.80389</ele>
        <time>2023-07-02T15:59:15.000Z</time>
      </trkpt>
      <trkpt lat="45.81442" lon="4.72113">
        <ele>418.09048</ele>
        <time>2023-07-02T15:59:16.000Z</time>
      </trkpt>
      <trkpt lat="45.81445" lon="4.72106">
        <ele>418.31607</ele>
        <time>2023-07-02T15:59:17.000Z</time>
      </trkpt>
      <trkpt lat="45.81446" lon="4.721">
        <ele>418.49698</ele>
        <time>2023-07-02T15:59:18.000Z</time>
      </trkpt>
      <trkpt lat="45.81449" lon="4.72093">
        <ele>419.01962</ele>
        <time>2023-07-02T15:59:19.000Z</time>
      </trkpt>
      <trkpt lat="45.81451" lon="4.72086">
        <ele>419.75946</ele>
        <time>2023-07-02T15:59:20.000Z</time>
      </trkpt>
      <trkpt lat="45.81453" lon="4.7208">
        <ele>420.50772</ele>
        <time>2023-07-02T15:59:21.000Z</time>
      </trkpt>
      <trkpt lat="45.81455" lon="4.72074">
        <ele>420.56577</ele>
        <time>2023-07-02T15:59:22.000Z</time>
      </trkpt>
      <trkpt lat="45.81457" lon="4.72068">
        <ele>420.70972</ele>
        <time>2023-07-02T15:59:23.000Z</time>
      </trkpt>
      <trkpt lat="45.81458" lon="4.72062">
        <ele>420.84491</ele>
        <time>2023-07-02T15:59:24.000Z</time>
      </trkpt>
      <trkpt lat="45.81461" lon="4.72057">
        <ele>421.32724</ele>
        <time>2023-07-02T15:59:25.000Z</time>
      </trkpt>
      <trkpt lat="45.81463" lon="4.72051">
        <ele>421.80875</ele>
        <time>2023-07-02T15:59:26.000Z</time>
      </trkpt>
      <trkpt lat="45.81465" lon="4.72044">
        <ele>422.53497</ele>
        <time>2023-07-02T15:59:27.000Z</time>
      </trkpt>
      <trkpt lat="45.81466" lon="4.72037">
        <ele>423.43546</ele>
        <time>2023-07-02T15:59:28.000Z</time>
      </trkpt>
      <trkpt lat="45.81469" lon="4.72031">
        <ele>423.90707</ele>
        <time>2023-07-02T15:59:29.000Z</time>
      </trkpt>
      <trkpt lat="45.81471" lon="4.72025">
        <ele>423.48907</ele>
        <time>2023-07-02T15:59:30.000Z</time>
      </trkpt>
      <trkpt lat="45.81472" lon="4.72019">
        <ele>422.91034</ele>
        <time>2023-07-02T15:59:31.000Z</time>
      </trkpt>
      <trkpt lat="45.81474" lon="4.72013">
        <ele>423.1673</ele>
        <time>2023-07-02T15:59:32.000Z</time>
      </trkpt>
      <trkpt lat="45.81475" lon="4.72006">
        <ele>423.22369</ele>
        <time>2023-07-02T15:59:33.000Z</time>
      </trkpt>
      <trkpt lat="45.81477" lon="4.72">
        <ele>423.46884</ele>
        <time>2023-07-02T15:59:34.000Z</time>
      </trkpt>
      <trkpt lat="45.8148" lon="4.71992">
        <ele>423.91504</ele>
        <time>2023-07-02T15:59:35.000Z</time>
      </trkpt>
      <trkpt lat="45.81481" lon="4.71986">
        <ele>424.2767</ele>
        <time>2023-07-02T15:59:36.000Z</time>
      </trkpt>
      <trkpt lat="45.81482" lon="4.7198">
        <ele>424.7789</ele>
        <time>2023-07-02T15:59:37.000Z</time>
      </trkpt>
      <trkpt lat="45.81482" lon="4.71974">
        <ele>425.24884</ele>
        <time>2023-07-02T15:59:38.000Z</time>
      </trkpt>
      <trkpt lat="45.81483" lon="4.71967">
        <ele>425.45392</ele>
        <time>2023-07-02T15:59:39.000Z</time>
      </trkpt>
      <trkpt lat="45.81484" lon="4.71959">
        <ele>425.33228</ele>
        <time>2023-07-02T15:59:40.000Z</time>
      </trkpt>
      <trkpt lat="45.81484" lon="4.71952">
        <ele>425.71201</ele>
        <time>2023-07-02T15:59:41.000Z</time>
      </trkpt>
      <trkpt lat="45.81484" lon="4.71947">
        <ele>426.93033</ele>
        <time>2023-07-02T15:59:42.000Z</time>
      </trkpt>
      <trkpt lat="45.81486" lon="4.71939">
        <ele>427.87518</ele>
        <time>2023-07-02T15:59:43.000Z</time>
      </trkpt>
      <trkpt lat="45.81487" lon="4.71932">
        <ele>427.92841</ele>
        <time>2023-07-02T15:59:44.000Z</time>
      </trkpt>
      <trkpt lat="45.81486" lon="4.71925">
        <ele>427.77036</ele>
        <time>2023-07-02T15:59:45.000Z</time>
      </trkpt>
      <trkpt lat="45.81488" lon="4.71921">
        <ele>427.48032</ele>
        <time>2023-07-02T15:59:46.000Z</time>
      </trkpt>
      <trkpt lat="45.81489" lon="4.71918">
        <ele>427.02985</ele>
        <time>2023-07-02T15:59:47.000Z</time>
      </trkpt>
      <trkpt lat="45.81491" lon="4.71915">
        <ele>426.87177</ele>
        <time>2023-07-02T15:59:48.000Z</time>
      </trkpt>
      <trkpt lat="45.81493" lon="4.71912">
        <ele>426.80518</ele>
        <time>2023-07-02T15:59:49.000Z</time>
      </trkpt>
      <trkpt lat="45.81496" lon="4.71907">
        <ele>427.52057</ele>
        <time>2023-07-02T15:59:50.000Z</time>
      </trkpt>
      <trkpt lat="45.81497" lon="4.719">
        <ele>427.5329</ele>
        <time>2023-07-02T15:59:51.000Z</time>
      </trkpt>
      <trkpt lat="45.81498" lon="4.71893">
        <ele>427.59735</ele>
        <time>2023-07-02T15:59:52.000Z</time>
      </trkpt>
      <trkpt lat="45.81498" lon="4.71885">
        <ele>427.66269</ele>
        <time>2023-07-02T15:59:53.000Z</time>
      </trkpt>
      <trkpt lat="45.81499" lon="4.71876">
        <ele>427.62799</ele>
        <time>2023-07-02T15:59:54.000Z</time>
      </trkpt>
      <trkpt lat="45.815" lon="4.71868">
        <ele>427.40009</ele>
        <time>2023-07-02T15:59:55.000Z</time>
      </trkpt>
      <trkpt lat="45.81501" lon="4.7186">
        <ele>427.47934</ele>
        <time>2023-07-02T15:59:56.000Z</time>
      </trkpt>
      <trkpt lat="45.81501" lon="4.71852">
        <ele>427.45709</ele>
        <time>2023-07-02T15:59:57.000Z</time>
      </trkpt>
      <trkpt lat="45.81502" lon="4.71845">
        <ele>427.51114</ele>
        <time>2023-07-02T15:59:58.000Z</time>
      </trkpt>
      <trkpt lat="45.81503" lon="4.71837">
        <ele>427.48267</ele>
        <time>2023-07-02T15:59:59.000Z</time>
      </trkpt>
      <trkpt lat="45.81504" lon="4.71829">
        <ele>427.54901</ele>
        <time>2023-07-02T16:00:00.000Z</time>
      </trkpt>
      <trkpt lat="45.81505" lon="4.71821">
        <ele>427.10361</ele>
        <time>2023-07-02T16:00:01.000Z</time>
      </trkpt>
      <trkpt lat="45.81506" lon="4.71813">
        <ele>426.49911</ele>
        <time>2023-07-02T16:00:02.000Z</time>
      </trkpt>
      <trkpt lat="45.81506" lon="4.71805">
        <ele>426.08243</ele>
        <time>2023-07-02T16:00:03.000Z</time>
      </trkpt>
      <trkpt lat="45.81508" lon="4.71798">
        <ele>426.77911</ele>
        <time>2023-07-02T16:00:04.000Z</time>
      </trkpt>
      <trkpt lat="45.8151" lon="4.71791">
        <ele>426.70224</ele>
        <time>2023-07-02T16:00:05.000Z</time>
      </trkpt>
      <trkpt lat="45.8151" lon="4.71784">
        <ele>426.86371</ele>
        <time>2023-07-02T16:00:06.000Z</time>
      </trkpt>
      <trkpt lat="45.81511" lon="4.71777">
        <ele>426.96509</ele>
        <time>2023-07-02T16:00:07.000Z</time>
      </trkpt>
      <trkpt lat="45.81512" lon="4.7177">
        <ele>426.59937</ele>
        <time>2023-07-02T16:00:08.000Z</time>
      </trkpt>
      <trkpt lat="45.81514" lon="4.71763">
        <ele>426.216</ele>
        <time>2023-07-02T16:00:09.000Z</time>
      </trkpt>
      <trkpt lat="45.81515" lon="4.71757">
        <ele>425.72357</ele>
        <time>2023-07-02T16:00:10.000Z</time>
      </trkpt>
      <trkpt lat="45.81518" lon="4.71752">
        <ele>425.95297</ele>
        <time>2023-07-02T16:00:11.000Z</time>
      </trkpt>
      <trkpt lat="45.81521" lon="4.71748">
        <ele>426.16071</ele>
        <time>2023-07-02T16:00:12.000Z</time>
      </trkpt>
      <trkpt lat="45.81525" lon="4.71746">
        <ele>426.39459</ele>
        <time>2023-07-02T16:00:13.000Z</time>
      </trkpt>
      <trkpt lat="45.81529" lon="4.71744">
        <ele>426.57657</ele>
        <time>2023-07-02T16:00:14.000Z</time>
      </trkpt>
      <trkpt lat="45.81533" lon="4.7174">
        <ele>427.18365</ele>
        <time>2023-07-02T16:00:15.000Z</time>
      </trkpt>
      <trkpt lat="45.81535" lon="4.71735">
        <ele>427.5705</ele>
        <time>2023-07-02T16:00:16.000Z</time>
      </trkpt>
      <trkpt lat="45.81537" lon="4.7173">
        <ele>427.35504</ele>
        <time>2023-07-02T16:00:17.000Z</time>
      </trkpt>
      <trkpt lat="45.8154" lon="4.71727">
        <ele>427.24008</ele>
        <time>2023-07-02T16:00:18.000Z</time>
      </trkpt>
      <trkpt lat="45.81543" lon="4.71723">
        <ele>427.16245</ele>
        <time>2023-07-02T16:00:19.000Z</time>
      </trkpt>
      <trkpt lat="45.81546" lon="4.7172">
        <ele>427.08392</ele>
        <time>2023-07-02T16:00:20.000Z</time>
      </trkpt>
      <trkpt lat="45.81551" lon="4.71719">
        <ele>426.90851</ele>
        <time>2023-07-02T16:00:21.000Z</time>
      </trkpt>
      <trkpt lat="45.81555" lon="4.71718">
        <ele>426.02277</ele>
        <time>2023-07-02T16:00:22.000Z</time>
      </trkpt>
      <trkpt lat="45.81559" lon="4.71718">
        <ele>425.09082</ele>
        <time>2023-07-02T16:00:23.000Z</time>
      </trkpt>
      <trkpt lat="45.81562" lon="4.71718">
        <ele>423.93756</ele>
        <time>2023-07-02T16:00:24.000Z</time>
      </trkpt>
      <trkpt lat="45.81565" lon="4.71718">
        <ele>423.4585</ele>
        <time>2023-07-02T16:00:25.000Z</time>
      </trkpt>
      <trkpt lat="45.81568" lon="4.71717">
        <ele>422.81552</ele>
        <time>2023-07-02T16:00:26.000Z</time>
      </trkpt>
      <trkpt lat="45.81572" lon="4.71717">
        <ele>422.25677</ele>
        <time>2023-07-02T16:00:27.000Z</time>
      </trkpt>
      <trkpt lat="45.81575" lon="4.71716">
        <ele>421.69165</ele>
        <time>2023-07-02T16:00:28.000Z</time>
      </trkpt>
      <trkpt lat="45.81578" lon="4.71716">
        <ele>421.12726</ele>
        <time>2023-07-02T16:00:29.000Z</time>
      </trkpt>
      <trkpt lat="45.81581" lon="4.71716">
        <ele>420.53424</ele>
        <time>2023-07-02T16:00:30.000Z</time>
      </trkpt>
      <trkpt lat="45.81585" lon="4.71715">
        <ele>419.95709</ele>
        <time>2023-07-02T16:00:31.000Z</time>
      </trkpt>
      <trkpt lat="45.81589" lon="4.71715">
        <ele>419.34479</ele>
        <time>2023-07-02T16:00:32.000Z</time>
      </trkpt>
      <trkpt lat="45.81593" lon="4.71714">
        <ele>418.69214</ele>
        <time>2023-07-02T16:00:33.000Z</time>
      </trkpt>
      <trkpt lat="45.81597" lon="4.71714">
        <ele>418.10962</ele>
        <time>2023-07-02T16:00:34.000Z</time>
      </trkpt>
      <trkpt lat="45.81602" lon="4.71713">
        <ele>417.10773</ele>
        <time>2023-07-02T16:00:35.000Z</time>
      </trkpt>
      <trkpt lat="45.81607" lon="4.7171">
        <ele>415.83292</ele>
        <time>2023-07-02T16:00:36.000Z</time>
      </trkpt>
      <trkpt lat="45.81611" lon="4.7171">
        <ele>414.98355</ele>
        <time>2023-07-02T16:00:37.000Z</time>
      </trkpt>
      <trkpt lat="45.81616" lon="4.7171">
        <ele>414.01895</ele>
        <time>2023-07-02T16:00:38.000Z</time>
      </trkpt>
      <trkpt lat="45.8162" lon="4.71709">
        <ele>413.02582</ele>
        <time>2023-07-02T16:00:39.000Z</time>
      </trkpt>
      <trkpt lat="45.81625" lon="4.71709">
        <ele>412.00766</ele>
        <time>2023-07-02T16:00:40.000Z</time>
      </trkpt>
      <trkpt lat="45.8163" lon="4.7171">
        <ele>411.07217</ele>
        <time>2023-07-02T16:00:41.000Z</time>
      </trkpt>
      <trkpt lat="45.81635" lon="4.7171">
        <ele>410.81699</ele>
        <time>2023-07-02T16:00:42.000Z</time>
      </trkpt>
      <trkpt lat="45.81641" lon="4.7171">
        <ele>410.55753</ele>
        <time>2023-07-02T16:00:43.000Z</time>
      </trkpt>
      <trkpt lat="45.81646" lon="4.7171">
        <ele>410.29532</ele>
        <time>2023-07-02T16:00:44.000Z</time>
      </trkpt>
      <trkpt lat="45.81653" lon="4.71709">
        <ele>410.00043</ele>
        <time>2023-07-02T16:00:45.000Z</time>
      </trkpt>
      <trkpt lat="45.81659" lon="4.71708">
        <ele>409.20071</ele>
        <time>2023-07-02T16:00:46.000Z</time>
      </trkpt>
      <trkpt lat="45.81665" lon="4.71709">
        <ele>408.29434</ele>
        <time>2023-07-02T16:00:47.000Z</time>
      </trkpt>
      <trkpt lat="45.81672" lon="4.71708">
        <ele>407.35162</ele>
        <time>2023-07-02T16:00:48.000Z</time>
      </trkpt>
      <trkpt lat="45.8168" lon="4.71708">
        <ele>406.34741</ele>
        <time>2023-07-02T16:00:49.000Z</time>
      </trkpt>
      <trkpt lat="45.81687" lon="4.7171">
        <ele>405.30991</ele>
        <time>2023-07-02T16:00:50.000Z</time>
      </trkpt>
      <trkpt lat="45.81694" lon="4.71712">
        <ele>404.21661</ele>
        <time>2023-07-02T16:00:51.000Z</time>
      </trkpt>
      <trkpt lat="45.81701" lon="4.71714">
        <ele>403.32794</ele>
        <time>2023-07-02T16:00:52.000Z</time>
      </trkpt>
      <trkpt lat="45.81708" lon="4.71715">
        <ele>402.34982</ele>
        <time>2023-07-02T16:00:53.000Z</time>
      </trkpt>
      <trkpt lat="45.81716" lon="4.71717">
        <ele>401.31781</ele>
        <time>2023-07-02T16:00:54.000Z</time>
      </trkpt>
      <trkpt lat="45.81725" lon="4.71718">
        <ele>400.24014</ele>
        <time>2023-07-02T16:00:55.000Z</time>
      </trkpt>
      <trkpt lat="45.81733" lon="4.71719">
        <ele>399.31552</ele>
        <time>2023-07-02T16:00:56.000Z</time>
      </trkpt>
      <trkpt lat="45.81742" lon="4.7172">
        <ele>398.57782</ele>
        <time>2023-07-02T16:00:57.000Z</time>
      </trkpt>
      <trkpt lat="45.8175" lon="4.71721">
        <ele>397.81894</ele>
        <time>2023-07-02T16:00:58.000Z</time>
      </trkpt>
      <trkpt lat="45.81759" lon="4.71723">
        <ele>397.01263</ele>
        <time>2023-07-02T16:00:59.000Z</time>
      </trkpt>
      <trkpt lat="45.81769" lon="4.71726">
        <ele>396.1994</ele>
        <time>2023-07-02T16:01:00.000Z</time>
      </trkpt>
      <trkpt lat="45.81778" lon="4.71727">
        <ele>395.35687</ele>
        <time>2023-07-02T16:01:01.000Z</time>
      </trkpt>
      <trkpt lat="45.81787" lon="4.71729">
        <ele>394.5036</ele>
        <time>2023-07-02T16:01:02.000Z</time>
      </trkpt>
      <trkpt lat="45.81796" lon="4.7173">
        <ele>393.66129</ele>
        <time>2023-07-02T16:01:03.000Z</time>
      </trkpt>
      <trkpt lat="45.81806" lon="4.71732">
        <ele>392.79672</ele>
        <time>2023-07-02T16:01:04.000Z</time>
      </trkpt>
      <trkpt lat="45.81816" lon="4.71732">
        <ele>391.91516</ele>
        <time>2023-07-02T16:01:05.000Z</time>
      </trkpt>
      <trkpt lat="45.81825" lon="4.71733">
        <ele>391.52542</ele>
        <time>2023-07-02T16:01:06.000Z</time>
      </trkpt>
      <trkpt lat="45.81835" lon="4.71734">
        <ele>391.12717</ele>
        <time>2023-07-02T16:01:07.000Z</time>
      </trkpt>
      <trkpt lat="45.81845" lon="4.71734">
        <ele>390.72263</ele>
        <time>2023-07-02T16:01:08.000Z</time>
      </trkpt>
      <trkpt lat="45.81855" lon="4.71734">
        <ele>390.34894</ele>
        <time>2023-07-02T16:01:09.000Z</time>
      </trkpt>
      <trkpt lat="45.81866" lon="4.71734">
        <ele>389.97717</ele>
        <time>2023-07-02T16:01:10.000Z</time>
      </trkpt>
      <trkpt lat="45.81876" lon="4.71734">
        <ele>389.6225</ele>
        <time>2023-07-02T16:01:11.000Z</time>
      </trkpt>
      <trkpt lat="45.81887" lon="4.71733">
        <ele>389.04163</ele>
        <time>2023-07-02T16:01:12.000Z</time>
      </trkpt>
      <trkpt lat="45.81898" lon="4.71733">
        <ele>388.47842</ele>
        <time>2023-07-02T16:01:13.000Z</time>
      </trkpt>
      <trkpt lat="45.81909" lon="4.71733">
        <ele>387.8916</ele>
        <time>2023-07-02T16:01:14.000Z</time>
      </trkpt>
      <trkpt lat="45.81919" lon="4.71732">
        <ele>387.31674</ele>
        <time>2023-07-02T16:01:15.000Z</time>
      </trkpt>
      <trkpt lat="45.8193" lon="4.71731">
        <ele>386.74387</ele>
        <time>2023-07-02T16:01:16.000Z</time>
      </trkpt>
      <trkpt lat="45.8194" lon="4.7173">
        <ele>386.15561</ele>
        <time>2023-07-02T16:01:17.000Z</time>
      </trkpt>
      <trkpt lat="45.81951" lon="4.7173">
        <ele>385.57358</ele>
        <time>2023-07-02T16:01:18.000Z</time>
      </trkpt>
      <trkpt lat="45.81961" lon="4.71729">
        <ele>385.0174</ele>
        <time>2023-07-02T16:01:19.000Z</time>
      </trkpt>
      <trkpt lat="45.81971" lon="4.71727">
        <ele>384.49896</ele>
        <time>2023-07-02T16:01:20.000Z</time>
      </trkpt>
      <trkpt lat="45.81981" lon="4.71726">
        <ele>384.00034</ele>
        <time>2023-07-02T16:01:21.000Z</time>
      </trkpt>
      <trkpt lat="45.81991" lon="4.71724">
        <ele>383.5213</ele>
        <time>2023-07-02T16:01:22.000Z</time>
      </trkpt>
      <trkpt lat="45.82" lon="4.71722">
        <ele>383.05832</ele>
        <time>2023-07-02T16:01:23.000Z</time>
      </trkpt>
      <trkpt lat="45.82009" lon="4.7172">
        <ele>382.62143</ele>
        <time>2023-07-02T16:01:24.000Z</time>
      </trkpt>
      <trkpt lat="45.82017" lon="4.71719">
        <ele>382.16653</ele>
        <time>2023-07-02T16:01:25.000Z</time>
      </trkpt>
      <trkpt lat="45.82025" lon="4.71717">
        <ele>381.74713</ele>
        <time>2023-07-02T16:01:26.000Z</time>
      </trkpt>
      <trkpt lat="45.82034" lon="4.71715">
        <ele>381.37296</ele>
        <time>2023-07-02T16:01:27.000Z</time>
      </trkpt>
      <trkpt lat="45.82042" lon="4.71713">
        <ele>381.02399</ele>
        <time>2023-07-02T16:01:28.000Z</time>
      </trkpt>
      <trkpt lat="45.82049" lon="4.71711">
        <ele>380.69153</ele>
        <time>2023-07-02T16:01:29.000Z</time>
      </trkpt>
      <trkpt lat="45.82058" lon="4.71709">
        <ele>380.40057</ele>
        <time>2023-07-02T16:01:30.000Z</time>
      </trkpt>
      <trkpt lat="45.82065" lon="4.71708">
        <ele>380.12772</ele>
        <time>2023-07-02T16:01:31.000Z</time>
      </trkpt>
      <trkpt lat="45.82073" lon="4.71706">
        <ele>379.86905</ele>
        <time>2023-07-02T16:01:32.000Z</time>
      </trkpt>
      <trkpt lat="45.82079" lon="4.71704">
        <ele>379.67535</ele>
        <time>2023-07-02T16:01:33.000Z</time>
      </trkpt>
      <trkpt lat="45.82084" lon="4.71702">
        <ele>379.50461</ele>
        <time>2023-07-02T16:01:34.000Z</time>
      </trkpt>
      <trkpt lat="45.82089" lon="4.71702">
        <ele>379.34207</ele>
        <time>2023-07-02T16:01:35.000Z</time>
      </trkpt>
      <trkpt lat="45.82093" lon="4.717">
        <ele>379.18469</ele>
        <time>2023-07-02T16:01:36.000Z</time>
      </trkpt>
      <trkpt lat="45.82096" lon="4.71698">
        <ele>379.02328</ele>
        <time>2023-07-02T16:01:37.000Z</time>
      </trkpt>
      <trkpt lat="45.82098" lon="4.71697">
        <ele>378.86621</ele>
        <time>2023-07-02T16:01:38.000Z</time>
      </trkpt>
      <trkpt lat="45.821" lon="4.71695">
        <ele>378.70172</ele>
        <time>2023-07-02T16:02:02.000Z</time>
      </trkpt>
      <trkpt lat="45.82104" lon="4.71692">
        <ele>378.50934</ele>
        <time>2023-07-02T16:02:04.000Z</time>
      </trkpt>
      <trkpt lat="45.82107" lon="4.71689">
        <ele>378.33942</ele>
        <time>2023-07-02T16:02:05.000Z</time>
      </trkpt>
      <trkpt lat="45.82111" lon="4.7169">
        <ele>378.13995</ele>
        <time>2023-07-02T16:02:06.000Z</time>
      </trkpt>
      <trkpt lat="45.82115" lon="4.71692">
        <ele>377.94308</ele>
        <time>2023-07-02T16:02:07.000Z</time>
      </trkpt>
      <trkpt lat="45.82117" lon="4.71698">
        <ele>377.73724</ele>
        <time>2023-07-02T16:02:08.000Z</time>
      </trkpt>
      <trkpt lat="45.82119" lon="4.71704">
        <ele>377.54929</ele>
        <time>2023-07-02T16:02:09.000Z</time>
      </trkpt>
      <trkpt lat="45.82123" lon="4.71709">
        <ele>377.28131</ele>
        <time>2023-07-02T16:02:10.000Z</time>
      </trkpt>
      <trkpt lat="45.82126" lon="4.71713">
        <ele>377.01974</ele>
        <time>2023-07-02T16:02:11.000Z</time>
      </trkpt>
      <trkpt lat="45.82134" lon="4.71711">
        <ele>376.72476</ele>
        <time>2023-07-02T16:02:12.000Z</time>
      </trkpt>
      <trkpt lat="45.82141" lon="4.7171">
        <ele>376.4256</ele>
        <time>2023-07-02T16:02:13.000Z</time>
      </trkpt>
      <trkpt lat="45.82148" lon="4.71711">
        <ele>376.09589</ele>
        <time>2023-07-02T16:02:14.000Z</time>
      </trkpt>
      <trkpt lat="45.82155" lon="4.71711">
        <ele>375.76187</ele>
        <time>2023-07-02T16:02:15.000Z</time>
      </trkpt>
      <trkpt lat="45.82162" lon="4.71712">
        <ele>375.41583</ele>
        <time>2023-07-02T16:02:16.000Z</time>
      </trkpt>
      <trkpt lat="45.82169" lon="4.71713">
        <ele>375.06439</ele>
        <time>2023-07-02T16:02:17.000Z</time>
      </trkpt>
      <trkpt lat="45.82176" lon="4.71714">
        <ele>374.79303</ele>
        <time>2023-07-02T16:02:18.000Z</time>
      </trkpt>
      <trkpt lat="45.82183" lon="4.71715">
        <ele>374.51862</ele>
        <time>2023-07-02T16:02:19.000Z</time>
      </trkpt>
      <trkpt lat="45.82188" lon="4.71715">
        <ele>374.26453</ele>
        <time>2023-07-02T16:02:20.000Z</time>
      </trkpt>
      <trkpt lat="45.82196" lon="4.71716">
        <ele>374.0224</ele>
        <time>2023-07-02T16:02:21.000Z</time>
      </trkpt>
      <trkpt lat="45.82201" lon="4.71717">
        <ele>373.8432</ele>
        <time>2023-07-02T16:02:22.000Z</time>
      </trkpt>
      <trkpt lat="45.82207" lon="4.71717">
        <ele>373.67545</ele>
        <time>2023-07-02T16:02:23.000Z</time>
      </trkpt>
      <trkpt lat="45.82215" lon="4.71718">
        <ele>373.47021</ele>
        <time>2023-07-02T16:02:24.000Z</time>
      </trkpt>
      <trkpt lat="45.82221" lon="4.71719">
        <ele>373.26166</ele>
        <time>2023-07-02T16:02:25.000Z</time>
      </trkpt>
      <trkpt lat="45.82227" lon="4.7172">
        <ele>373.06033</ele>
        <time>2023-07-02T16:02:26.000Z</time>
      </trkpt>
      <trkpt lat="45.82233" lon="4.71722">
        <ele>372.8244</ele>
        <time>2023-07-02T16:02:27.000Z</time>
      </trkpt>
      <trkpt lat="45.82239" lon="4.71723">
        <ele>372.56915</ele>
        <time>2023-07-02T16:02:28.000Z</time>
      </trkpt>
      <trkpt lat="45.82244" lon="4.71726">
        <ele>372.34329</ele>
        <time>2023-07-02T16:02:29.000Z</time>
      </trkpt>
      <trkpt lat="45.82251" lon="4.71727">
        <ele>372.18674</ele>
        <time>2023-07-02T16:02:30.000Z</time>
      </trkpt>
      <trkpt lat="45.82257" lon="4.71728">
        <ele>371.46533</ele>
        <time>2023-07-02T16:02:31.000Z</time>
      </trkpt>
      <trkpt lat="45.82263" lon="4.71731">
        <ele>370.90335</ele>
        <time>2023-07-02T16:02:32.000Z</time>
      </trkpt>
      <trkpt lat="45.8227" lon="4.71732">
        <ele>370.31604</ele>
        <time>2023-07-02T16:02:33.000Z</time>
      </trkpt>
      <trkpt lat="45.82276" lon="4.71734">
        <ele>369.75153</ele>
        <time>2023-07-02T16:02:34.000Z</time>
      </trkpt>
      <trkpt lat="45.82282" lon="4.71736">
        <ele>369.17291</ele>
        <time>2023-07-02T16:02:35.000Z</time>
      </trkpt>
      <trkpt lat="45.82288" lon="4.71739">
        <ele>368.5983</ele>
        <time>2023-07-02T16:02:36.000Z</time>
      </trkpt>
      <trkpt lat="45.82294" lon="4.71741">
        <ele>368.01709</ele>
        <time>2023-07-02T16:02:37.000Z</time>
      </trkpt>
      <trkpt lat="45.82301" lon="4.71742">
        <ele>367.38422</ele>
        <time>2023-07-02T16:02:38.000Z</time>
      </trkpt>
      <trkpt lat="45.82307" lon="4.71743">
        <ele>366.79388</ele>
        <time>2023-07-02T16:02:39.000Z</time>
      </trkpt>
      <trkpt lat="45.82312" lon="4.71745">
        <ele>366.15982</ele>
        <time>2023-07-02T16:02:40.000Z</time>
      </trkpt>
      <trkpt lat="45.82318" lon="4.71747">
        <ele>365.59763</ele>
        <time>2023-07-02T16:02:41.000Z</time>
      </trkpt>
      <trkpt lat="45.82324" lon="4.71749">
        <ele>364.98053</ele>
        <time>2023-07-02T16:02:42.000Z</time>
      </trkpt>
      <trkpt lat="45.82331" lon="4.7175">
        <ele>364.35724</ele>
        <time>2023-07-02T16:02:43.000Z</time>
      </trkpt>
      <trkpt lat="45.82338" lon="4.71752">
        <ele>363.7962</ele>
        <time>2023-07-02T16:02:44.000Z</time>
      </trkpt>
      <trkpt lat="45.82344" lon="4.71754">
        <ele>363.2197</ele>
        <time>2023-07-02T16:02:45.000Z</time>
      </trkpt>
      <trkpt lat="45.8235" lon="4.71756">
        <ele>362.67944</ele>
        <time>2023-07-02T16:02:46.000Z</time>
      </trkpt>
      <trkpt lat="45.82356" lon="4.71756">
        <ele>362.16</ele>
        <time>2023-07-02T16:02:47.000Z</time>
      </trkpt>
      <trkpt lat="45.82362" lon="4.71759">
        <ele>361.65131</ele>
        <time>2023-07-02T16:02:48.000Z</time>
      </trkpt>
      <trkpt lat="45.82368" lon="4.7176">
        <ele>361.11621</ele>
        <time>2023-07-02T16:02:49.000Z</time>
      </trkpt>
      <trkpt lat="45.82374" lon="4.71761">
        <ele>360.59134</ele>
        <time>2023-07-02T16:02:50.000Z</time>
      </trkpt>
      <trkpt lat="45.8238" lon="4.71761">
        <ele>360.61411</ele>
        <time>2023-07-02T16:02:51.000Z</time>
      </trkpt>
      <trkpt lat="45.82386" lon="4.71763">
        <ele>360.48837</ele>
        <time>2023-07-02T16:02:52.000Z</time>
      </trkpt>
      <trkpt lat="45.82392" lon="4.71765">
        <ele>360.40714</ele>
        <time>2023-07-02T16:02:53.000Z</time>
      </trkpt>
      <trkpt lat="45.82398" lon="4.71768">
        <ele>360.31061</ele>
        <time>2023-07-02T16:02:54.000Z</time>
      </trkpt>
      <trkpt lat="45.82404" lon="4.7177">
        <ele>360.20337</ele>
        <time>2023-07-02T16:02:55.000Z</time>
      </trkpt>
      <trkpt lat="45.8241" lon="4.71773">
        <ele>360.10657</ele>
        <time>2023-07-02T16:02:56.000Z</time>
      </trkpt>
      <trkpt lat="45.82416" lon="4.71775">
        <ele>359.99969</ele>
        <time>2023-07-02T16:02:57.000Z</time>
      </trkpt>
      <trkpt lat="45.82423" lon="4.71778">
        <ele>359.85455</ele>
        <time>2023-07-02T16:02:58.000Z</time>
      </trkpt>
      <trkpt lat="45.82429" lon="4.71781">
        <ele>359.65335</ele>
        <time>2023-07-02T16:02:59.000Z</time>
      </trkpt>
      <trkpt lat="45.82435" lon="4.71783">
        <ele>359.48648</ele>
        <time>2023-07-02T16:03:00.000Z</time>
      </trkpt>
      <trkpt lat="45.8244" lon="4.71785">
        <ele>359.24765</ele>
        <time>2023-07-02T16:03:01.000Z</time>
      </trkpt>
      <trkpt lat="45.82447" lon="4.71788">
        <ele>359.01675</ele>
        <time>2023-07-02T16:03:02.000Z</time>
      </trkpt>
      <trkpt lat="45.82454" lon="4.71789">
        <ele>358.79187</ele>
        <time>2023-07-02T16:03:03.000Z</time>
      </trkpt>
      <trkpt lat="45.82461" lon="4.71791">
        <ele>358.53235</ele>
        <time>2023-07-02T16:03:04.000Z</time>
      </trkpt>
      <trkpt lat="45.82468" lon="4.71792">
        <ele>358.27313</ele>
        <time>2023-07-02T16:03:05.000Z</time>
      </trkpt>
      <trkpt lat="45.82474" lon="4.71795">
        <ele>358.03232</ele>
        <time>2023-07-02T16:03:06.000Z</time>
      </trkpt>
      <trkpt lat="45.8248" lon="4.71796">
        <ele>357.79434</ele>
        <time>2023-07-02T16:03:07.000Z</time>
      </trkpt>
      <trkpt lat="45.82486" lon="4.71798">
        <ele>357.55731</ele>
        <time>2023-07-02T16:03:08.000Z</time>
      </trkpt>
      <trkpt lat="45.82492" lon="4.71799">
        <ele>357.25504</ele>
        <time>2023-07-02T16:03:09.000Z</time>
      </trkpt>
      <trkpt lat="45.82498" lon="4.71799">
        <ele>356.97061</ele>
        <time>2023-07-02T16:03:10.000Z</time>
      </trkpt>
      <trkpt lat="45.82505" lon="4.718">
        <ele>356.6684</ele>
        <time>2023-07-02T16:03:11.000Z</time>
      </trkpt>
      <trkpt lat="45.82511" lon="4.71801">
        <ele>356.40475</ele>
        <time>2023-07-02T16:03:12.000Z</time>
      </trkpt>
      <trkpt lat="45.82517" lon="4.71802">
        <ele>356.14056</ele>
        <time>2023-07-02T16:03:13.000Z</time>
      </trkpt>
      <trkpt lat="45.82522" lon="4.71803">
        <ele>355.89081</ele>
        <time>2023-07-02T16:03:14.000Z</time>
      </trkpt>
      <trkpt lat="45.82528" lon="4.71804">
        <ele>355.67001</ele>
        <time>2023-07-02T16:03:15.000Z</time>
      </trkpt>
      <trkpt lat="45.82534" lon="4.71805">
        <ele>355.44705</ele>
        <time>2023-07-02T16:03:16.000Z</time>
      </trkpt>
      <trkpt lat="45.8254" lon="4.71807">
        <ele>355.22876</ele>
        <time>2023-07-02T16:03:17.000Z</time>
      </trkpt>
      <trkpt lat="45.82546" lon="4.71808">
        <ele>355.04733</ele>
        <time>2023-07-02T16:03:18.000Z</time>
      </trkpt>
      <trkpt lat="45.82552" lon="4.71809">
        <ele>354.88788</ele>
        <time>2023-07-02T16:03:19.000Z</time>
      </trkpt>
      <trkpt lat="45.82558" lon="4.7181">
        <ele>354.72165</ele>
        <time>2023-07-02T16:03:20.000Z</time>
      </trkpt>
      <trkpt lat="45.82564" lon="4.71811">
        <ele>354.54651</ele>
        <time>2023-07-02T16:03:21.000Z</time>
      </trkpt>
      <trkpt lat="45.82569" lon="4.71812">
        <ele>354.39279</ele>
        <time>2023-07-02T16:03:22.000Z</time>
      </trkpt>
      <trkpt lat="45.82575" lon="4.71812">
        <ele>354.2417</ele>
        <time>2023-07-02T16:03:23.000Z</time>
      </trkpt>
      <trkpt lat="45.82581" lon="4.71812">
        <ele>354.11575</ele>
        <time>2023-07-02T16:03:24.000Z</time>
      </trkpt>
      <trkpt lat="45.82586" lon="4.71812">
        <ele>354.05255</ele>
        <time>2023-07-02T16:03:25.000Z</time>
      </trkpt>
      <trkpt lat="45.82591" lon="4.71813">
        <ele>353.97672</ele>
        <time>2023-07-02T16:03:26.000Z</time>
      </trkpt>
      <trkpt lat="45.82597" lon="4.71813">
        <ele>353.92673</ele>
        <time>2023-07-02T16:03:27.000Z</time>
      </trkpt>
      <trkpt lat="45.82602" lon="4.71813">
        <ele>353.77896</ele>
        <time>2023-07-02T16:03:28.000Z</time>
      </trkpt>
      <trkpt lat="45.82608" lon="4.71814">
        <ele>353.71808</ele>
        <time>2023-07-02T16:03:29.000Z</time>
      </trkpt>
      <trkpt lat="45.82613" lon="4.71815">
        <ele>353.63351</ele>
        <time>2023-07-02T16:03:30.000Z</time>
      </trkpt>
      <trkpt lat="45.82618" lon="4.71815">
        <ele>353.55963</ele>
        <time>2023-07-02T16:03:31.000Z</time>
      </trkpt>
      <trkpt lat="45.82623" lon="4.71816">
        <ele>353.47488</ele>
        <time>2023-07-02T16:03:32.000Z</time>
      </trkpt>
      <trkpt lat="45.82628" lon="4.71815">
        <ele>353.41473</ele>
        <time>2023-07-02T16:03:33.000Z</time>
      </trkpt>
      <trkpt lat="45.82632" lon="4.71814">
        <ele>353.40259</ele>
        <time>2023-07-02T16:03:34.000Z</time>
      </trkpt>
      <trkpt lat="45.82636" lon="4.71814">
        <ele>353.39456</ele>
        <time>2023-07-02T16:03:35.000Z</time>
      </trkpt>
      <trkpt lat="45.82641" lon="4.71814">
        <ele>353.40341</ele>
        <time>2023-07-02T16:03:36.000Z</time>
      </trkpt>
      <trkpt lat="45.82646" lon="4.71813">
        <ele>353.32602</ele>
        <time>2023-07-02T16:03:37.000Z</time>
      </trkpt>
      <trkpt lat="45.8265" lon="4.71811">
        <ele>353.25909</ele>
        <time>2023-07-02T16:03:38.000Z</time>
      </trkpt>
      <trkpt lat="45.82655" lon="4.71808">
        <ele>353.18561</ele>
        <time>2023-07-02T16:03:39.000Z</time>
      </trkpt>
      <trkpt lat="45.82658" lon="4.71803">
        <ele>353.14273</ele>
        <time>2023-07-02T16:03:40.000Z</time>
      </trkpt>
      <trkpt lat="45.82662" lon="4.71799">
        <ele>353.18756</ele>
        <time>2023-07-02T16:03:41.000Z</time>
      </trkpt>
      <trkpt lat="45.82667" lon="4.71794">
        <ele>353.21835</ele>
        <time>2023-07-02T16:03:42.000Z</time>
      </trkpt>
      <trkpt lat="45.82671" lon="4.7179">
        <ele>353.27008</ele>
        <time>2023-07-02T16:03:43.000Z</time>
      </trkpt>
      <trkpt lat="45.82676" lon="4.71786">
        <ele>353.32159</ele>
        <time>2023-07-02T16:03:44.000Z</time>
      </trkpt>
      <trkpt lat="45.8268" lon="4.71781">
        <ele>353.3327</ele>
        <time>2023-07-02T16:03:45.000Z</time>
      </trkpt>
      <trkpt lat="45.82685" lon="4.71777">
        <ele>353.33502</ele>
        <time>2023-07-02T16:03:46.000Z</time>
      </trkpt>
      <trkpt lat="45.8269" lon="4.71772">
        <ele>353.20612</ele>
        <time>2023-07-02T16:03:47.000Z</time>
      </trkpt>
      <trkpt lat="45.82695" lon="4.71767">
        <ele>353.18976</ele>
        <time>2023-07-02T16:03:48.000Z</time>
      </trkpt>
      <trkpt lat="45.827" lon="4.71763">
        <ele>353.14822</ele>
        <time>2023-07-02T16:03:49.000Z</time>
      </trkpt>
      <trkpt lat="45.82705" lon="4.71759">
        <ele>353.07123</ele>
        <time>2023-07-02T16:03:50.000Z</time>
      </trkpt>
      <trkpt lat="45.8271" lon="4.71755">
        <ele>352.99561</ele>
        <time>2023-07-02T16:03:51.000Z</time>
      </trkpt>
      <trkpt lat="45.82715" lon="4.7175">
        <ele>352.91681</ele>
        <time>2023-07-02T16:03:52.000Z</time>
      </trkpt>
      <trkpt lat="45.8272" lon="4.71746">
        <ele>352.81668</ele>
        <time>2023-07-02T16:03:53.000Z</time>
      </trkpt>
      <trkpt lat="45.82725" lon="4.71743">
        <ele>352.65536</ele>
        <time>2023-07-02T16:03:54.000Z</time>
      </trkpt>
      <trkpt lat="45.82731" lon="4.71739">
        <ele>352.47174</ele>
        <time>2023-07-02T16:03:55.000Z</time>
      </trkpt>
      <trkpt lat="45.82736" lon="4.71736">
        <ele>352.28693</ele>
        <time>2023-07-02T16:03:56.000Z</time>
      </trkpt>
      <trkpt lat="45.82742" lon="4.71733">
        <ele>352.19321</ele>
        <time>2023-07-02T16:03:57.000Z</time>
      </trkpt>
      <trkpt lat="45.82748" lon="4.7173">
        <ele>352.06451</ele>
        <time>2023-07-02T16:03:58.000Z</time>
      </trkpt>
      <trkpt lat="45.82754" lon="4.71726">
        <ele>351.94952</ele>
        <time>2023-07-02T16:03:59.000Z</time>
      </trkpt>
      <trkpt lat="45.8276" lon="4.71723">
        <ele>351.79205</ele>
        <time>2023-07-02T16:04:00.000Z</time>
      </trkpt>
      <trkpt lat="45.82765" lon="4.71719">
        <ele>351.55469</ele>
        <time>2023-07-02T16:04:01.000Z</time>
      </trkpt>
      <trkpt lat="45.82771" lon="4.71716">
        <ele>351.29013</ele>
        <time>2023-07-02T16:04:02.000Z</time>
      </trkpt>
      <trkpt lat="45.82778" lon="4.71712">
        <ele>350.98456</ele>
        <time>2023-07-02T16:04:03.000Z</time>
      </trkpt>
      <trkpt lat="45.82783" lon="4.71709">
        <ele>350.69092</ele>
        <time>2023-07-02T16:04:04.000Z</time>
      </trkpt>
      <trkpt lat="45.8279" lon="4.71706">
        <ele>350.35995</ele>
        <time>2023-07-02T16:04:05.000Z</time>
      </trkpt>
      <trkpt lat="45.82796" lon="4.71704">
        <ele>350.02231</ele>
        <time>2023-07-02T16:04:06.000Z</time>
      </trkpt>
      <trkpt lat="45.82802" lon="4.71704">
        <ele>349.79224</ele>
        <time>2023-07-02T16:04:07.000Z</time>
      </trkpt>
      <trkpt lat="45.82808" lon="4.71707">
        <ele>349.5311</ele>
        <time>2023-07-02T16:04:08.000Z</time>
      </trkpt>
      <trkpt lat="45.82814" lon="4.71712">
        <ele>349.39362</ele>
        <time>2023-07-02T16:04:09.000Z</time>
      </trkpt>
      <trkpt lat="45.82818" lon="4.71718">
        <ele>349.29575</ele>
        <time>2023-07-02T16:04:10.000Z</time>
      </trkpt>
      <trkpt lat="45.8282" lon="4.71726">
        <ele>349.26276</ele>
        <time>2023-07-02T16:04:11.000Z</time>
      </trkpt>
      <trkpt lat="45.82822" lon="4.71734">
        <ele>349.08624</ele>
        <time>2023-07-02T16:04:12.000Z</time>
      </trkpt>
      <trkpt lat="45.82823" lon="4.71742">
        <ele>348.90509</ele>
        <time>2023-07-02T16:04:13.000Z</time>
      </trkpt>
      <trkpt lat="45.82823" lon="4.7175">
        <ele>348.73676</ele>
        <time>2023-07-02T16:04:14.000Z</time>
      </trkpt>
      <trkpt lat="45.82822" lon="4.71758">
        <ele>348.61349</ele>
        <time>2023-07-02T16:04:15.000Z</time>
      </trkpt>
      <trkpt lat="45.82822" lon="4.71767">
        <ele>348.50699</ele>
        <time>2023-07-02T16:04:16.000Z</time>
      </trkpt>
      <trkpt lat="45.82821" lon="4.71775">
        <ele>348.42273</ele>
        <time>2023-07-02T16:04:17.000Z</time>
      </trkpt>
      <trkpt lat="45.8282" lon="4.71783">
        <ele>348.33936</ele>
        <time>2023-07-02T16:04:18.000Z</time>
      </trkpt>
      <trkpt lat="45.8282" lon="4.71791">
        <ele>348.2583</ele>
        <time>2023-07-02T16:04:19.000Z</time>
      </trkpt>
      <trkpt lat="45.8282" lon="4.718">
        <ele>348.21063</ele>
        <time>2023-07-02T16:04:20.000Z</time>
      </trkpt>
      <trkpt lat="45.82819" lon="4.71808">
        <ele>348.24182</ele>
        <time>2023-07-02T16:04:21.000Z</time>
      </trkpt>
      <trkpt lat="45.82819" lon="4.71816">
        <ele>348.33359</ele>
        <time>2023-07-02T16:04:22.000Z</time>
      </trkpt>
      <trkpt lat="45.82818" lon="4.71824">
        <ele>348.32016</ele>
        <time>2023-07-02T16:04:23.000Z</time>
      </trkpt>
      <trkpt lat="45.82817" lon="4.71833">
        <ele>348.28928</ele>
        <time>2023-07-02T16:04:24.000Z</time>
      </trkpt>
      <trkpt lat="45.82816" lon="4.71841">
        <ele>348.25165</ele>
        <time>2023-07-02T16:04:25.000Z</time>
      </trkpt>
      <trkpt lat="45.82815" lon="4.71849">
        <ele>348.22775</ele>
        <time>2023-07-02T16:04:26.000Z</time>
      </trkpt>
      <trkpt lat="45.82814" lon="4.71858">
        <ele>348.19086</ele>
        <time>2023-07-02T16:04:27.000Z</time>
      </trkpt>
      <trkpt lat="45.82813" lon="4.71866">
        <ele>348.14267</ele>
        <time>2023-07-02T16:04:28.000Z</time>
      </trkpt>
      <trkpt lat="45.82811" lon="4.71875">
        <ele>347.98257</ele>
        <time>2023-07-02T16:04:29.000Z</time>
      </trkpt>
      <trkpt lat="45.8281" lon="4.71884">
        <ele>347.82861</ele>
        <time>2023-07-02T16:04:30.000Z</time>
      </trkpt>
      <trkpt lat="45.82809" lon="4.71892">
        <ele>347.6185</ele>
        <time>2023-07-02T16:04:31.000Z</time>
      </trkpt>
      <trkpt lat="45.82808" lon="4.71901">
        <ele>347.5777</ele>
        <time>2023-07-02T16:04:32.000Z</time>
      </trkpt>
      <trkpt lat="45.82807" lon="4.7191">
        <ele>347.53519</ele>
        <time>2023-07-02T16:04:33.000Z</time>
      </trkpt>
      <trkpt lat="45.82805" lon="4.71918">
        <ele>347.49615</ele>
        <time>2023-07-02T16:04:34.000Z</time>
      </trkpt>
      <trkpt lat="45.82804" lon="4.71927">
        <ele>347.45187</ele>
        <time>2023-07-02T16:04:35.000Z</time>
      </trkpt>
      <trkpt lat="45.82803" lon="4.71935">
        <ele>347.41061</ele>
        <time>2023-07-02T16:04:36.000Z</time>
      </trkpt>
      <trkpt lat="45.82802" lon="4.71944">
        <ele>347.38153</ele>
        <time>2023-07-02T16:04:37.000Z</time>
      </trkpt>
      <trkpt lat="45.82802" lon="4.71952">
        <ele>347.37201</ele>
        <time>2023-07-02T16:04:38.000Z</time>
      </trkpt>
      <trkpt lat="45.82802" lon="4.7196">
        <ele>347.34705</ele>
        <time>2023-07-02T16:04:39.000Z</time>
      </trkpt>
      <trkpt lat="45.82802" lon="4.71967">
        <ele>347.31058</ele>
        <time>2023-07-02T16:04:40.000Z</time>
      </trkpt>
      <trkpt lat="45.82801" lon="4.71975">
        <ele>347.28391</ele>
        <time>2023-07-02T16:04:41.000Z</time>
      </trkpt>
      <trkpt lat="45.828" lon="4.71983">
        <ele>347.2641</ele>
        <time>2023-07-02T16:04:42.000Z</time>
      </trkpt>
      <trkpt lat="45.828" lon="4.7199">
        <ele>347.39151</ele>
        <time>2023-07-02T16:04:43.000Z</time>
      </trkpt>
      <trkpt lat="45.82799" lon="4.71997">
        <ele>347.39777</ele>
        <time>2023-07-02T16:04:44.000Z</time>
      </trkpt>
      <trkpt lat="45.82799" lon="4.72004">
        <ele>347.46066</ele>
        <time>2023-07-02T16:04:45.000Z</time>
      </trkpt>
      <trkpt lat="45.82798" lon="4.72011">
        <ele>347.52496</ele>
        <time>2023-07-02T16:04:46.000Z</time>
      </trkpt>
      <trkpt lat="45.82797" lon="4.72019">
        <ele>347.6297</ele>
        <time>2023-07-02T16:04:47.000Z</time>
      </trkpt>
      <trkpt lat="45.82795" lon="4.72026">
        <ele>347.80048</ele>
        <time>2023-07-02T16:04:48.000Z</time>
      </trkpt>
      <trkpt lat="45.82794" lon="4.72033">
        <ele>348.05362</ele>
        <time>2023-07-02T16:04:49.000Z</time>
      </trkpt>
      <trkpt lat="45.82791" lon="4.72039">
        <ele>348.33044</ele>
        <time>2023-07-02T16:04:50.000Z</time>
      </trkpt>
      <trkpt lat="45.8279" lon="4.72046">
        <ele>348.61761</ele>
        <time>2023-07-02T16:04:51.000Z</time>
      </trkpt>
      <trkpt lat="45.82788" lon="4.72053">
        <ele>348.8183</ele>
        <time>2023-07-02T16:04:52.000Z</time>
      </trkpt>
      <trkpt lat="45.82786" lon="4.7206">
        <ele>349.04401</ele>
        <time>2023-07-02T16:04:53.000Z</time>
      </trkpt>
      <trkpt lat="45.82784" lon="4.72066">
        <ele>349.28949</ele>
        <time>2023-07-02T16:04:54.000Z</time>
      </trkpt>
      <trkpt lat="45.82782" lon="4.72071">
        <ele>349.52994</ele>
        <time>2023-07-02T16:04:55.000Z</time>
      </trkpt>
      <trkpt lat="45.82781" lon="4.72077">
        <ele>349.77045</ele>
        <time>2023-07-02T16:04:56.000Z</time>
      </trkpt>
      <trkpt lat="45.82779" lon="4.72084">
        <ele>350.0014</ele>
        <time>2023-07-02T16:04:57.000Z</time>
      </trkpt>
      <trkpt lat="45.82777" lon="4.7209">
        <ele>350.2486</ele>
        <time>2023-07-02T16:04:58.000Z</time>
      </trkpt>
      <trkpt lat="45.82775" lon="4.72097">
        <ele>350.53854</ele>
        <time>2023-07-02T16:04:59.000Z</time>
      </trkpt>
      <trkpt lat="45.82773" lon="4.72103">
        <ele>350.83426</ele>
        <time>2023-07-02T16:05:00.000Z</time>
      </trkpt>
      <trkpt lat="45.82772" lon="4.7211">
        <ele>351.06995</ele>
        <time>2023-07-02T16:05:01.000Z</time>
      </trkpt>
      <trkpt lat="45.8277" lon="4.72116">
        <ele>351.27579</ele>
        <time>2023-07-02T16:05:02.000Z</time>
      </trkpt>
      <trkpt lat="45.82768" lon="4.72123">
        <ele>351.45322</ele>
        <time>2023-07-02T16:05:03.000Z</time>
      </trkpt>
      <trkpt lat="45.82766" lon="4.7213">
        <ele>351.75653</ele>
        <time>2023-07-02T16:05:04.000Z</time>
      </trkpt>
      <trkpt lat="45.82765" lon="4.72137">
        <ele>352.02798</ele>
        <time>2023-07-02T16:05:05.000Z</time>
      </trkpt>
      <trkpt lat="45.82764" lon="4.72142">
        <ele>352.34113</ele>
        <time>2023-07-02T16:05:06.000Z</time>
      </trkpt>
      <trkpt lat="45.82761" lon="4.72149">
        <ele>352.62009</ele>
        <time>2023-07-02T16:05:07.000Z</time>
      </trkpt>
      <trkpt lat="45.82759" lon="4.72155">
        <ele>352.90222</ele>
        <time>2023-07-02T16:05:08.000Z</time>
      </trkpt>
      <trkpt lat="45.82757" lon="4.72162">
        <ele>353.12402</ele>
        <time>2023-07-02T16:05:09.000Z</time>
      </trkpt>
      <trkpt lat="45.82755" lon="4.72168">
        <ele>353.27216</ele>
        <time>2023-07-02T16:05:10.000Z</time>
      </trkpt>
      <trkpt lat="45.82754" lon="4.72175">
        <ele>353.44394</ele>
        <time>2023-07-02T16:05:11.000Z</time>
      </trkpt>
      <trkpt lat="45.82752" lon="4.72181">
        <ele>353.69406</ele>
        <time>2023-07-02T16:05:12.000Z</time>
      </trkpt>
      <trkpt lat="45.8275" lon="4.72187">
        <ele>353.92422</ele>
        <time>2023-07-02T16:05:13.000Z</time>
      </trkpt>
      <trkpt lat="45.82748" lon="4.72194">
        <ele>354.15598</ele>
        <time>2023-07-02T16:05:14.000Z</time>
      </trkpt>
      <trkpt lat="45.82747" lon="4.722">
        <ele>354.38443</ele>
        <time>2023-07-02T16:05:15.000Z</time>
      </trkpt>
      <trkpt lat="45.82745" lon="4.72207">
        <ele>354.59366</ele>
        <time>2023-07-02T16:05:16.000Z</time>
      </trkpt>
      <trkpt lat="45.82743" lon="4.72213">
        <ele>354.82648</ele>
        <time>2023-07-02T16:05:17.000Z</time>
      </trkpt>
      <trkpt lat="45.82741" lon="4.7222">
        <ele>355.04477</ele>
        <time>2023-07-02T16:05:18.000Z</time>
      </trkpt>
      <trkpt lat="45.82739" lon="4.72226">
        <ele>355.24017</ele>
        <time>2023-07-02T16:05:19.000Z</time>
      </trkpt>
      <trkpt lat="45.82738" lon="4.72233">
        <ele>355.43222</ele>
        <time>2023-07-02T16:05:20.000Z</time>
      </trkpt>
      <trkpt lat="45.82736" lon="4.7224">
        <ele>355.61783</ele>
        <time>2023-07-02T16:05:21.000Z</time>
      </trkpt>
      <trkpt lat="45.82734" lon="4.72247">
        <ele>355.79135</ele>
        <time>2023-07-02T16:05:22.000Z</time>
      </trkpt>
      <trkpt lat="45.82733" lon="4.72253">
        <ele>355.97101</ele>
        <time>2023-07-02T16:05:23.000Z</time>
      </trkpt>
      <trkpt lat="45.8273" lon="4.7226">
        <ele>356.14215</ele>
        <time>2023-07-02T16:05:24.000Z</time>
      </trkpt>
      <trkpt lat="45.82729" lon="4.72266">
        <ele>356.31216</ele>
        <time>2023-07-02T16:05:25.000Z</time>
      </trkpt>
      <trkpt lat="45.82727" lon="4.72274">
        <ele>356.45425</ele>
        <time>2023-07-02T16:05:26.000Z</time>
      </trkpt>
      <trkpt lat="45.82726" lon="4.7228">
        <ele>356.62177</ele>
        <time>2023-07-02T16:05:27.000Z</time>
      </trkpt>
      <trkpt lat="45.82724" lon="4.72286">
        <ele>356.7731</ele>
        <time>2023-07-02T16:05:28.000Z</time>
      </trkpt>
      <trkpt lat="45.82722" lon="4.72293">
        <ele>356.92471</ele>
        <time>2023-07-02T16:05:29.000Z</time>
      </trkpt>
      <trkpt lat="45.82721" lon="4.72299">
        <ele>357.13718</ele>
        <time>2023-07-02T16:05:30.000Z</time>
      </trkpt>
      <trkpt lat="45.8272" lon="4.72306">
        <ele>357.33493</ele>
        <time>2023-07-02T16:05:31.000Z</time>
      </trkpt>
      <trkpt lat="45.82718" lon="4.72312">
        <ele>357.53888</ele>
        <time>2023-07-02T16:05:32.000Z</time>
      </trkpt>
      <trkpt lat="45.82716" lon="4.72319">
        <ele>357.77237</ele>
        <time>2023-07-02T16:05:33.000Z</time>
      </trkpt>
      <trkpt lat="45.82715" lon="4.72325">
        <ele>357.97696</ele>
        <time>2023-07-02T16:05:34.000Z</time>
      </trkpt>
      <trkpt lat="45.82714" lon="4.72332">
        <ele>358.19147</ele>
        <time>2023-07-02T16:05:35.000Z</time>
      </trkpt>
      <trkpt lat="45.82712" lon="4.72339">
        <ele>358.38837</ele>
        <time>2023-07-02T16:05:36.000Z</time>
      </trkpt>
      <trkpt lat="45.82711" lon="4.72344">
        <ele>358.55148</ele>
        <time>2023-07-02T16:05:37.000Z</time>
      </trkpt>
      <trkpt lat="45.82709" lon="4.7235">
        <ele>358.70593</ele>
        <time>2023-07-02T16:05:38.000Z</time>
      </trkpt>
      <trkpt lat="45.82706" lon="4.72355">
        <ele>358.88589</ele>
        <time>2023-07-02T16:05:39.000Z</time>
      </trkpt>
      <trkpt lat="45.82704" lon="4.72361">
        <ele>359.07208</ele>
        <time>2023-07-02T16:05:40.000Z</time>
      </trkpt>
      <trkpt lat="45.82702" lon="4.72366">
        <ele>359.15009</ele>
        <time>2023-07-02T16:05:41.000Z</time>
      </trkpt>
      <trkpt lat="45.82698" lon="4.72371">
        <ele>359.40933</ele>
        <time>2023-07-02T16:05:42.000Z</time>
      </trkpt>
      <trkpt lat="45.82696" lon="4.72376">
        <ele>359.68002</ele>
        <time>2023-07-02T16:05:43.000Z</time>
      </trkpt>
      <trkpt lat="45.82694" lon="4.72382">
        <ele>359.9834</ele>
        <time>2023-07-02T16:05:44.000Z</time>
      </trkpt>
      <trkpt lat="45.82692" lon="4.72389">
        <ele>360.31808</ele>
        <time>2023-07-02T16:05:45.000Z</time>
      </trkpt>
      <trkpt lat="45.82689" lon="4.72394">
        <ele>360.64438</ele>
        <time>2023-07-02T16:05:46.000Z</time>
      </trkpt>
      <trkpt lat="45.82686" lon="4.724">
        <ele>360.96466</ele>
        <time>2023-07-02T16:05:47.000Z</time>
      </trkpt>
      <trkpt lat="45.82685" lon="4.72407">
        <ele>361.23303</ele>
        <time>2023-07-02T16:05:48.000Z</time>
      </trkpt>
      <trkpt lat="45.82682" lon="4.72413">
        <ele>361.51608</ele>
        <time>2023-07-02T16:05:49.000Z</time>
      </trkpt>
      <trkpt lat="45.8268" lon="4.72418">
        <ele>361.78693</ele>
        <time>2023-07-02T16:05:50.000Z</time>
      </trkpt>
      <trkpt lat="45.82677" lon="4.72424">
        <ele>362.03241</ele>
        <time>2023-07-02T16:05:51.000Z</time>
      </trkpt>
      <trkpt lat="45.82675" lon="4.7243">
        <ele>362.27051</ele>
        <time>2023-07-02T16:05:52.000Z</time>
      </trkpt>
      <trkpt lat="45.82672" lon="4.72437">
        <ele>362.50751</ele>
        <time>2023-07-02T16:05:53.000Z</time>
      </trkpt>
      <trkpt lat="45.82669" lon="4.72442">
        <ele>362.71539</ele>
        <time>2023-07-02T16:05:54.000Z</time>
      </trkpt>
      <trkpt lat="45.82667" lon="4.72448">
        <ele>362.9274</ele>
        <time>2023-07-02T16:05:55.000Z</time>
      </trkpt>
      <trkpt lat="45.82665" lon="4.72453">
        <ele>363.15344</ele>
        <time>2023-07-02T16:05:56.000Z</time>
      </trkpt>
      <trkpt lat="45.82663" lon="4.72459">
        <ele>363.36697</ele>
        <time>2023-07-02T16:05:57.000Z</time>
      </trkpt>
      <trkpt lat="45.82661" lon="4.72466">
        <ele>363.60104</ele>
        <time>2023-07-02T16:05:58.000Z</time>
      </trkpt>
      <trkpt lat="45.82658" lon="4.72472">
        <ele>363.79391</ele>
        <time>2023-07-02T16:05:59.000Z</time>
      </trkpt>
      <trkpt lat="45.82655" lon="4.72478">
        <ele>364.09784</ele>
        <time>2023-07-02T16:06:00.000Z</time>
      </trkpt>
      <trkpt lat="45.82653" lon="4.72483">
        <ele>364.46295</ele>
        <time>2023-07-02T16:06:01.000Z</time>
      </trkpt>
      <trkpt lat="45.82652" lon="4.72489">
        <ele>364.64279</ele>
        <time>2023-07-02T16:06:02.000Z</time>
      </trkpt>
      <trkpt lat="45.82649" lon="4.72495">
        <ele>364.84521</ele>
        <time>2023-07-02T16:06:03.000Z</time>
      </trkpt>
      <trkpt lat="45.82647" lon="4.72501">
        <ele>365.03363</ele>
        <time>2023-07-02T16:06:04.000Z</time>
      </trkpt>
      <trkpt lat="45.82643" lon="4.72508">
        <ele>365.2308</ele>
        <time>2023-07-02T16:06:05.000Z</time>
      </trkpt>
      <trkpt lat="45.82641" lon="4.72514">
        <ele>365.43292</ele>
        <time>2023-07-02T16:06:06.000Z</time>
      </trkpt>
      <trkpt lat="45.82638" lon="4.7252">
        <ele>365.65262</ele>
        <time>2023-07-02T16:06:07.000Z</time>
      </trkpt>
      <trkpt lat="45.82635" lon="4.72525">
        <ele>365.92471</ele>
        <time>2023-07-02T16:06:08.000Z</time>
      </trkpt>
      <trkpt lat="45.82633" lon="4.72531">
        <ele>366.21097</ele>
        <time>2023-07-02T16:06:09.000Z</time>
      </trkpt>
      <trkpt lat="45.82631" lon="4.72536">
        <ele>366.50342</ele>
        <time>2023-07-02T16:06:10.000Z</time>
      </trkpt>
      <trkpt lat="45.82628" lon="4.72542">
        <ele>366.83524</ele>
        <time>2023-07-02T16:06:11.000Z</time>
      </trkpt>
      <trkpt lat="45.82626" lon="4.72548">
        <ele>367.18066</ele>
        <time>2023-07-02T16:06:12.000Z</time>
      </trkpt>
      <trkpt lat="45.82623" lon="4.72553">
        <ele>367.50674</ele>
        <time>2023-07-02T16:06:13.000Z</time>
      </trkpt>
      <trkpt lat="45.8262" lon="4.72559">
        <ele>367.89771</ele>
        <time>2023-07-02T16:06:14.000Z</time>
      </trkpt>
      <trkpt lat="45.82618" lon="4.72564">
        <ele>368.28989</ele>
        <time>2023-07-02T16:06:15.000Z</time>
      </trkpt>
      <trkpt lat="45.82616" lon="4.72569">
        <ele>368.6958</ele>
        <time>2023-07-02T16:06:16.000Z</time>
      </trkpt>
      <trkpt lat="45.82614" lon="4.72575">
        <ele>369.11322</ele>
        <time>2023-07-02T16:06:17.000Z</time>
      </trkpt>
      <trkpt lat="45.82611" lon="4.72581">
        <ele>369.53229</ele>
        <time>2023-07-02T16:06:18.000Z</time>
      </trkpt>
      <trkpt lat="45.82609" lon="4.72586">
        <ele>369.96045</ele>
        <time>2023-07-02T16:06:19.000Z</time>
      </trkpt>
      <trkpt lat="45.82608" lon="4.72592">
        <ele>370.27594</ele>
        <time>2023-07-02T16:06:20.000Z</time>
      </trkpt>
      <trkpt lat="45.82606" lon="4.72598">
        <ele>370.50259</ele>
        <time>2023-07-02T16:06:21.000Z</time>
      </trkpt>
      <trkpt lat="45.82604" lon="4.72604">
        <ele>370.71478</ele>
        <time>2023-07-02T16:06:22.000Z</time>
      </trkpt>
      <trkpt lat="45.82602" lon="4.7261">
        <ele>370.88873</ele>
        <time>2023-07-02T16:06:23.000Z</time>
      </trkpt>
      <trkpt lat="45.826" lon="4.72616">
        <ele>371.25601</ele>
        <time>2023-07-02T16:06:24.000Z</time>
      </trkpt>
      <trkpt lat="45.82598" lon="4.72622">
        <ele>371.55219</ele>
        <time>2023-07-02T16:06:25.000Z</time>
      </trkpt>
      <trkpt lat="45.82596" lon="4.72627">
        <ele>371.83975</ele>
        <time>2023-07-02T16:06:26.000Z</time>
      </trkpt>
      <trkpt lat="45.82594" lon="4.72633">
        <ele>372.10361</ele>
        <time>2023-07-02T16:06:27.000Z</time>
      </trkpt>
      <trkpt lat="45.82591" lon="4.7264">
        <ele>372.35245</ele>
        <time>2023-07-02T16:06:28.000Z</time>
      </trkpt>
      <trkpt lat="45.82589" lon="4.72645">
        <ele>372.57645</ele>
        <time>2023-07-02T16:06:29.000Z</time>
      </trkpt>
      <trkpt lat="45.82587" lon="4.72651">
        <ele>372.71426</ele>
        <time>2023-07-02T16:06:30.000Z</time>
      </trkpt>
      <trkpt lat="45.82584" lon="4.72656">
        <ele>372.81671</ele>
        <time>2023-07-02T16:06:31.000Z</time>
      </trkpt>
      <trkpt lat="45.82582" lon="4.72663">
        <ele>372.90094</ele>
        <time>2023-07-02T16:06:32.000Z</time>
      </trkpt>
      <trkpt lat="45.8258" lon="4.72669">
        <ele>373.00235</ele>
        <time>2023-07-02T16:06:33.000Z</time>
      </trkpt>
      <trkpt lat="45.82577" lon="4.72674">
        <ele>373.09567</ele>
        <time>2023-07-02T16:06:34.000Z</time>
      </trkpt>
      <trkpt lat="45.82575" lon="4.7268">
        <ele>373.1893</ele>
        <time>2023-07-02T16:06:35.000Z</time>
      </trkpt>
      <trkpt lat="45.82573" lon="4.72686">
        <ele>373.27509</ele>
        <time>2023-07-02T16:06:36.000Z</time>
      </trkpt>
      <trkpt lat="45.82572" lon="4.72693">
        <ele>373.34732</ele>
        <time>2023-07-02T16:06:37.000Z</time>
      </trkpt>
      <trkpt lat="45.8257" lon="4.727">
        <ele>373.42459</ele>
        <time>2023-07-02T16:06:38.000Z</time>
      </trkpt>
      <trkpt lat="45.82569" lon="4.72707">
        <ele>373.51456</ele>
        <time>2023-07-02T16:06:39.000Z</time>
      </trkpt>
      <trkpt lat="45.82568" lon="4.72714">
        <ele>373.6076</ele>
        <time>2023-07-02T16:06:40.000Z</time>
      </trkpt>
      <trkpt lat="45.82567" lon="4.72721">
        <ele>373.83627</ele>
        <time>2023-07-02T16:06:41.000Z</time>
      </trkpt>
      <trkpt lat="45.82566" lon="4.72728">
        <ele>374.09796</ele>
        <time>2023-07-02T16:06:42.000Z</time>
      </trkpt>
      <trkpt lat="45.82565" lon="4.72735">
        <ele>374.36676</ele>
        <time>2023-07-02T16:06:43.000Z</time>
      </trkpt>
      <trkpt lat="45.82565" lon="4.72743">
        <ele>374.43411</ele>
        <time>2023-07-02T16:06:44.000Z</time>
      </trkpt>
      <trkpt lat="45.82564" lon="4.7275">
        <ele>374.52655</ele>
        <time>2023-07-02T16:06:45.000Z</time>
      </trkpt>
      <trkpt lat="45.82564" lon="4.72757">
        <ele>374.62372</ele>
        <time>2023-07-02T16:06:46.000Z</time>
      </trkpt>
      <trkpt lat="45.82563" lon="4.72764">
        <ele>374.69537</ele>
        <time>2023-07-02T16:06:47.000Z</time>
      </trkpt>
      <trkpt lat="45.82563" lon="4.72771">
        <ele>374.78928</ele>
        <time>2023-07-02T16:06:48.000Z</time>
      </trkpt>
      <trkpt lat="45.82563" lon="4.72778">
        <ele>374.901</ele>
        <time>2023-07-02T16:06:49.000Z</time>
      </trkpt>
      <trkpt lat="45.82563" lon="4.72785">
        <ele>375.0972</ele>
        <time>2023-07-02T16:06:50.000Z</time>
      </trkpt>
      <trkpt lat="45.82562" lon="4.72792">
        <ele>375.28134</ele>
        <time>2023-07-02T16:06:51.000Z</time>
      </trkpt>
      <trkpt lat="45.82562" lon="4.72799">
        <ele>375.47604</ele>
        <time>2023-07-02T16:06:52.000Z</time>
      </trkpt>
      <trkpt lat="45.82561" lon="4.72807">
        <ele>375.63962</ele>
        <time>2023-07-02T16:06:53.000Z</time>
      </trkpt>
      <trkpt lat="45.82561" lon="4.72814">
        <ele>375.78333</ele>
        <time>2023-07-02T16:06:54.000Z</time>
      </trkpt>
      <trkpt lat="45.82561" lon="4.72821">
        <ele>375.90192</ele>
        <time>2023-07-02T16:06:55.000Z</time>
      </trkpt>
      <trkpt lat="45.82561" lon="4.72828">
        <ele>376.02347</ele>
        <time>2023-07-02T16:06:56.000Z</time>
      </trkpt>
      <trkpt lat="45.82561" lon="4.72836">
        <ele>376.17987</ele>
        <time>2023-07-02T16:06:57.000Z</time>
      </trkpt>
      <trkpt lat="45.82561" lon="4.72843">
        <ele>376.33011</ele>
        <time>2023-07-02T16:06:58.000Z</time>
      </trkpt>
      <trkpt lat="45.82561" lon="4.72851">
        <ele>376.40717</ele>
        <time>2023-07-02T16:06:59.000Z</time>
      </trkpt>
      <trkpt lat="45.82561" lon="4.72858">
        <ele>376.49408</ele>
        <time>2023-07-02T16:07:00.000Z</time>
      </trkpt>
      <trkpt lat="45.82561" lon="4.72866">
        <ele>376.49893</ele>
        <time>2023-07-02T16:07:01.000Z</time>
      </trkpt>
      <trkpt lat="45.82561" lon="4.72874">
        <ele>376.45645</ele>
        <time>2023-07-02T16:07:02.000Z</time>
      </trkpt>
      <trkpt lat="45.82562" lon="4.72881">
        <ele>376.70999</ele>
        <time>2023-07-02T16:07:03.000Z</time>
      </trkpt>
      <trkpt lat="45.82562" lon="4.72889">
        <ele>376.95123</ele>
        <time>2023-07-02T16:07:04.000Z</time>
      </trkpt>
      <trkpt lat="45.82563" lon="4.72896">
        <ele>377.2048</ele>
        <time>2023-07-02T16:07:05.000Z</time>
      </trkpt>
      <trkpt lat="45.82564" lon="4.72904">
        <ele>377.44974</ele>
        <time>2023-07-02T16:07:06.000Z</time>
      </trkpt>
      <trkpt lat="45.82565" lon="4.72912">
        <ele>377.73236</ele>
        <time>2023-07-02T16:07:07.000Z</time>
      </trkpt>
      <trkpt lat="45.82566" lon="4.72919">
        <ele>378.01236</ele>
        <time>2023-07-02T16:07:08.000Z</time>
      </trkpt>
      <trkpt lat="45.82567" lon="4.72926">
        <ele>378.26971</ele>
        <time>2023-07-02T16:07:09.000Z</time>
      </trkpt>
      <trkpt lat="45.82569" lon="4.72934">
        <ele>378.52603</ele>
        <time>2023-07-02T16:07:10.000Z</time>
      </trkpt>
      <trkpt lat="45.8257" lon="4.72941">
        <ele>378.94327</ele>
        <time>2023-07-02T16:07:11.000Z</time>
      </trkpt>
      <trkpt lat="45.82572" lon="4.72948">
        <ele>379.44687</ele>
        <time>2023-07-02T16:07:12.000Z</time>
      </trkpt>
      <trkpt lat="45.82575" lon="4.72955">
        <ele>379.76004</ele>
        <time>2023-07-02T16:07:13.000Z</time>
      </trkpt>
      <trkpt lat="45.82577" lon="4.72962">
        <ele>380.08746</ele>
        <time>2023-07-02T16:07:14.000Z</time>
      </trkpt>
      <trkpt lat="45.82578" lon="4.72969">
        <ele>380.44284</ele>
        <time>2023-07-02T16:07:15.000Z</time>
      </trkpt>
      <trkpt lat="45.8258" lon="4.72976">
        <ele>380.79092</ele>
        <time>2023-07-02T16:07:16.000Z</time>
      </trkpt>
      <trkpt lat="45.82582" lon="4.72984">
        <ele>381.1304</ele>
        <time>2023-07-02T16:07:17.000Z</time>
      </trkpt>
      <trkpt lat="45.82584" lon="4.72991">
        <ele>381.45078</ele>
        <time>2023-07-02T16:07:18.000Z</time>
      </trkpt>
      <trkpt lat="45.82586" lon="4.72998">
        <ele>381.83295</ele>
        <time>2023-07-02T16:07:19.000Z</time>
      </trkpt>
      <trkpt lat="45.82589" lon="4.73005">
        <ele>382.22131</ele>
        <time>2023-07-02T16:07:20.000Z</time>
      </trkpt>
      <trkpt lat="45.82591" lon="4.73013">
        <ele>382.65527</ele>
        <time>2023-07-02T16:07:21.000Z</time>
      </trkpt>
      <trkpt lat="45.82594" lon="4.73019">
        <ele>383.11493</ele>
        <time>2023-07-02T16:07:22.000Z</time>
      </trkpt>
      <trkpt lat="45.82595" lon="4.73027">
        <ele>383.302</ele>
        <time>2023-07-02T16:07:23.000Z</time>
      </trkpt>
      <trkpt lat="45.82598" lon="4.73034">
        <ele>383.50018</ele>
        <time>2023-07-02T16:07:24.000Z</time>
      </trkpt>
      <trkpt lat="45.826" lon="4.73042">
        <ele>383.6922</ele>
        <time>2023-07-02T16:07:25.000Z</time>
      </trkpt>
      <trkpt lat="45.82603" lon="4.73048">
        <ele>383.67871</ele>
        <time>2023-07-02T16:07:26.000Z</time>
      </trkpt>
      <trkpt lat="45.82606" lon="4.73055">
        <ele>383.59515</ele>
        <time>2023-07-02T16:07:27.000Z</time>
      </trkpt>
      <trkpt lat="45.82609" lon="4.73062">
        <ele>383.50238</ele>
        <time>2023-07-02T16:07:28.000Z</time>
      </trkpt>
      <trkpt lat="45.82612" lon="4.73069">
        <ele>383.37323</ele>
        <time>2023-07-02T16:07:29.000Z</time>
      </trkpt>
      <trkpt lat="45.82615" lon="4.73075">
        <ele>383.56833</ele>
        <time>2023-07-02T16:07:30.000Z</time>
      </trkpt>
      <trkpt lat="45.82617" lon="4.73083">
        <ele>383.60071</ele>
        <time>2023-07-02T16:07:31.000Z</time>
      </trkpt>
      <trkpt lat="45.82621" lon="4.7309">
        <ele>383.78986</ele>
        <time>2023-07-02T16:07:32.000Z</time>
      </trkpt>
      <trkpt lat="45.82623" lon="4.73097">
        <ele>384.18118</ele>
        <time>2023-07-02T16:07:33.000Z</time>
      </trkpt>
      <trkpt lat="45.82626" lon="4.73105">
        <ele>384.56134</ele>
        <time>2023-07-02T16:07:34.000Z</time>
      </trkpt>
      <trkpt lat="45.82629" lon="4.73113">
        <ele>384.45966</ele>
        <time>2023-07-02T16:07:35.000Z</time>
      </trkpt>
      <trkpt lat="45.82631" lon="4.7312">
        <ele>384.32025</ele>
        <time>2023-07-02T16:07:36.000Z</time>
      </trkpt>
      <trkpt lat="45.82634" lon="4.73128">
        <ele>384.49829</ele>
        <time>2023-07-02T16:07:37.000Z</time>
      </trkpt>
      <trkpt lat="45.82636" lon="4.73136">
        <ele>384.61896</ele>
        <time>2023-07-02T16:07:38.000Z</time>
      </trkpt>
      <trkpt lat="45.82637" lon="4.73144">
        <ele>384.75064</ele>
        <time>2023-07-02T16:07:39.000Z</time>
      </trkpt>
      <trkpt lat="45.82639" lon="4.73152">
        <ele>384.87891</ele>
        <time>2023-07-02T16:07:40.000Z</time>
      </trkpt>
      <trkpt lat="45.82641" lon="4.7316">
        <ele>385.04587</ele>
        <time>2023-07-02T16:07:41.000Z</time>
      </trkpt>
      <trkpt lat="45.82643" lon="4.73167">
        <ele>385.21835</ele>
        <time>2023-07-02T16:07:42.000Z</time>
      </trkpt>
      <trkpt lat="45.82645" lon="4.73175">
        <ele>385.37808</ele>
        <time>2023-07-02T16:07:43.000Z</time>
      </trkpt>
      <trkpt lat="45.82647" lon="4.73183">
        <ele>385.54501</ele>
        <time>2023-07-02T16:07:44.000Z</time>
      </trkpt>
      <trkpt lat="45.82648" lon="4.73191">
        <ele>385.70947</ele>
        <time>2023-07-02T16:07:45.000Z</time>
      </trkpt>
      <trkpt lat="45.82648" lon="4.73199">
        <ele>385.79126</ele>
        <time>2023-07-02T16:07:46.000Z</time>
      </trkpt>
      <trkpt lat="45.82649" lon="4.73207">
        <ele>386.24548</ele>
        <time>2023-07-02T16:07:47.000Z</time>
      </trkpt>
      <trkpt lat="45.8265" lon="4.73215">
        <ele>386.6748</ele>
        <time>2023-07-02T16:07:48.000Z</time>
      </trkpt>
      <trkpt lat="45.82651" lon="4.73222">
        <ele>387.15869</ele>
        <time>2023-07-02T16:07:49.000Z</time>
      </trkpt>
      <trkpt lat="45.82651" lon="4.73231">
        <ele>387.1232</ele>
        <time>2023-07-02T16:07:50.000Z</time>
      </trkpt>
      <trkpt lat="45.82652" lon="4.73238">
        <ele>387.00443</ele>
        <time>2023-07-02T16:07:51.000Z</time>
      </trkpt>
      <trkpt lat="45.82653" lon="4.73246">
        <ele>386.59827</ele>
        <time>2023-07-02T16:07:52.000Z</time>
      </trkpt>
      <trkpt lat="45.82654" lon="4.73253">
        <ele>386.18231</ele>
        <time>2023-07-02T16:07:53.000Z</time>
      </trkpt>
      <trkpt lat="45.82655" lon="4.7326">
        <ele>386.13068</ele>
        <time>2023-07-02T16:07:54.000Z</time>
      </trkpt>
      <trkpt lat="45.82656" lon="4.73268">
        <ele>386.13553</ele>
        <time>2023-07-02T16:07:55.000Z</time>
      </trkpt>
      <trkpt lat="45.82657" lon="4.73275">
        <ele>386.55402</ele>
        <time>2023-07-02T16:07:56.000Z</time>
      </trkpt>
      <trkpt lat="45.82658" lon="4.73282">
        <ele>386.62558</ele>
        <time>2023-07-02T16:07:57.000Z</time>
      </trkpt>
      <trkpt lat="45.82659" lon="4.73288">
        <ele>386.76392</ele>
        <time>2023-07-02T16:07:58.000Z</time>
      </trkpt>
      <trkpt lat="45.8266" lon="4.73294">
        <ele>386.86981</ele>
        <time>2023-07-02T16:07:59.000Z</time>
      </trkpt>
      <trkpt lat="45.82661" lon="4.73301">
        <ele>386.96347</ele>
        <time>2023-07-02T16:08:00.000Z</time>
      </trkpt>
      <trkpt lat="45.82661" lon="4.73307">
        <ele>386.87408</ele>
        <time>2023-07-02T16:08:01.000Z</time>
      </trkpt>
      <trkpt lat="45.82662" lon="4.73314">
        <ele>386.75763</ele>
        <time>2023-07-02T16:08:02.000Z</time>
      </trkpt>
      <trkpt lat="45.82662" lon="4.73321">
        <ele>386.50095</ele>
        <time>2023-07-02T16:08:03.000Z</time>
      </trkpt>
      <trkpt lat="45.82663" lon="4.73329">
        <ele>386.59454</ele>
        <time>2023-07-02T16:08:04.000Z</time>
      </trkpt>
      <trkpt lat="45.82664" lon="4.73337">
        <ele>386.65112</ele>
        <time>2023-07-02T16:08:05.000Z</time>
      </trkpt>
      <trkpt lat="45.82665" lon="4.73345">
        <ele>386.97174</ele>
        <time>2023-07-02T16:08:06.000Z</time>
      </trkpt>
      <trkpt lat="45.82666" lon="4.73353">
        <ele>386.99557</ele>
        <time>2023-07-02T16:08:07.000Z</time>
      </trkpt>
      <trkpt lat="45.82668" lon="4.73361">
        <ele>387.04993</ele>
        <time>2023-07-02T16:08:08.000Z</time>
      </trkpt>
      <trkpt lat="45.82669" lon="4.7337">
        <ele>386.92169</ele>
        <time>2023-07-02T16:08:09.000Z</time>
      </trkpt>
      <trkpt lat="45.82671" lon="4.73377">
        <ele>386.98611</ele>
        <time>2023-07-02T16:08:10.000Z</time>
      </trkpt>
      <trkpt lat="45.82672" lon="4.73385">
        <ele>387.15109</ele>
        <time>2023-07-02T16:08:11.000Z</time>
      </trkpt>
      <trkpt lat="45.82674" lon="4.73393">
        <ele>387.2486</ele>
        <time>2023-07-02T16:08:12.000Z</time>
      </trkpt>
      <trkpt lat="45.82675" lon="4.73401">
        <ele>387.34128</ele>
        <time>2023-07-02T16:08:13.000Z</time>
      </trkpt>
      <trkpt lat="45.82675" lon="4.73409">
        <ele>387.40973</ele>
        <time>2023-07-02T16:08:14.000Z</time>
      </trkpt>
      <trkpt lat="45.82676" lon="4.73417">
        <ele>387.80386</ele>
        <time>2023-07-02T16:08:15.000Z</time>
      </trkpt>
      <trkpt lat="45.82677" lon="4.73425">
        <ele>387.82077</ele>
        <time>2023-07-02T16:08:16.000Z</time>
      </trkpt>
      <trkpt lat="45.82677" lon="4.73432">
        <ele>387.87646</ele>
        <time>2023-07-02T16:08:17.000Z</time>
      </trkpt>
      <trkpt lat="45.82677" lon="4.73439">
        <ele>387.92722</ele>
        <time>2023-07-02T16:08:18.000Z</time>
      </trkpt>
      <trkpt lat="45.82677" lon="4.73447">
        <ele>387.99423</ele>
        <time>2023-07-02T16:08:19.000Z</time>
      </trkpt>
      <trkpt lat="45.82677" lon="4.73454">
        <ele>388.05731</ele>
        <time>2023-07-02T16:08:20.000Z</time>
      </trkpt>
      <trkpt lat="45.82676" lon="4.73461">
        <ele>388.28107</ele>
        <time>2023-07-02T16:08:21.000Z</time>
      </trkpt>
      <trkpt lat="45.82676" lon="4.73467">
        <ele>388.52167</ele>
        <time>2023-07-02T16:08:22.000Z</time>
      </trkpt>
      <trkpt lat="45.82675" lon="4.73473">
        <ele>388.90723</ele>
        <time>2023-07-02T16:08:23.000Z</time>
      </trkpt>
      <trkpt lat="45.82675" lon="4.73479">
        <ele>388.92429</ele>
        <time>2023-07-02T16:08:24.000Z</time>
      </trkpt>
      <trkpt lat="45.82674" lon="4.73486">
        <ele>388.99567</ele>
        <time>2023-07-02T16:08:25.000Z</time>
      </trkpt>
      <trkpt lat="45.82673" lon="4.73492">
        <ele>389.08813</ele>
        <time>2023-07-02T16:08:26.000Z</time>
      </trkpt>
      <trkpt lat="45.82673" lon="4.73498">
        <ele>389.1535</ele>
        <time>2023-07-02T16:08:27.000Z</time>
      </trkpt>
      <trkpt lat="45.82671" lon="4.73505">
        <ele>389.21878</ele>
        <time>2023-07-02T16:08:28.000Z</time>
      </trkpt>
      <trkpt lat="45.8267" lon="4.73512">
        <ele>389.42917</ele>
        <time>2023-07-02T16:08:29.000Z</time>
      </trkpt>
      <trkpt lat="45.82668" lon="4.73519">
        <ele>389.6337</ele>
        <time>2023-07-02T16:08:30.000Z</time>
      </trkpt>
      <trkpt lat="45.82667" lon="4.73525">
        <ele>389.84048</ele>
        <time>2023-07-02T16:08:31.000Z</time>
      </trkpt>
      <trkpt lat="45.82665" lon="4.73533">
        <ele>390.14069</ele>
        <time>2023-07-02T16:08:32.000Z</time>
      </trkpt>
      <trkpt lat="45.82662" lon="4.7354">
        <ele>390.2619</ele>
        <time>2023-07-02T16:08:33.000Z</time>
      </trkpt>
      <trkpt lat="45.82659" lon="4.73547">
        <ele>389.9039</ele>
        <time>2023-07-02T16:08:34.000Z</time>
      </trkpt>
      <trkpt lat="45.82656" lon="4.73555">
        <ele>389.61533</ele>
        <time>2023-07-02T16:08:35.000Z</time>
      </trkpt>
      <trkpt lat="45.82654" lon="4.73563">
        <ele>389.32574</ele>
        <time>2023-07-02T16:08:36.000Z</time>
      </trkpt>
      <trkpt lat="45.82652" lon="4.7357">
        <ele>389.3446</ele>
        <time>2023-07-02T16:08:37.000Z</time>
      </trkpt>
      <trkpt lat="45.82649" lon="4.73578">
        <ele>389.29855</ele>
        <time>2023-07-02T16:08:38.000Z</time>
      </trkpt>
      <trkpt lat="45.82647" lon="4.73587">
        <ele>389.23764</ele>
        <time>2023-07-02T16:08:39.000Z</time>
      </trkpt>
      <trkpt lat="45.82644" lon="4.73596">
        <ele>389.15363</ele>
        <time>2023-07-02T16:08:40.000Z</time>
      </trkpt>
      <trkpt lat="45.8264" lon="4.73604">
        <ele>389.06595</ele>
        <time>2023-07-02T16:08:41.000Z</time>
      </trkpt>
      <trkpt lat="45.82636" lon="4.73613">
        <ele>388.96042</ele>
        <time>2023-07-02T16:08:42.000Z</time>
      </trkpt>
      <trkpt lat="45.82632" lon="4.73623">
        <ele>388.8038</ele>
        <time>2023-07-02T16:08:43.000Z</time>
      </trkpt>
      <trkpt lat="45.82628" lon="4.73633">
        <ele>388.60559</ele>
        <time>2023-07-02T16:08:44.000Z</time>
      </trkpt>
      <trkpt lat="45.82626" lon="4.73646">
        <ele>388.15765</ele>
        <time>2023-07-02T16:08:45.000Z</time>
      </trkpt>
      <trkpt lat="45.82625" lon="4.73658">
        <ele>387.68488</ele>
        <time>2023-07-02T16:08:46.000Z</time>
      </trkpt>
      <trkpt lat="45.82625" lon="4.7367">
        <ele>387.18927</ele>
        <time>2023-07-02T16:08:47.000Z</time>
      </trkpt>
      <trkpt lat="45.82621" lon="4.7368">
        <ele>386.62021</ele>
        <time>2023-07-02T16:08:48.000Z</time>
      </trkpt>
      <trkpt lat="45.82617" lon="4.7369">
        <ele>386.36392</ele>
        <time>2023-07-02T16:08:49.000Z</time>
      </trkpt>
      <trkpt lat="45.82615" lon="4.73699">
        <ele>386.01352</ele>
        <time>2023-07-02T16:08:50.000Z</time>
      </trkpt>
      <trkpt lat="45.82618" lon="4.73708">
        <ele>385.64581</ele>
        <time>2023-07-02T16:08:51.000Z</time>
      </trkpt>
      <trkpt lat="45.82622" lon="4.73712">
        <ele>385.30521</ele>
        <time>2023-07-02T16:08:52.000Z</time>
      </trkpt>
      <trkpt lat="45.82627" lon="4.73715">
        <ele>385.17401</ele>
        <time>2023-07-02T16:08:53.000Z</time>
      </trkpt>
      <trkpt lat="45.82633" lon="4.73715">
        <ele>385.20224</ele>
        <time>2023-07-02T16:08:54.000Z</time>
      </trkpt>
      <trkpt lat="45.82638" lon="4.73715">
        <ele>385.24246</ele>
        <time>2023-07-02T16:08:55.000Z</time>
      </trkpt>
      <trkpt lat="45.82643" lon="4.73715">
        <ele>385.28555</ele>
        <time>2023-07-02T16:08:56.000Z</time>
      </trkpt>
      <trkpt lat="45.82648" lon="4.73715">
        <ele>384.96735</ele>
        <time>2023-07-02T16:08:57.000Z</time>
      </trkpt>
      <trkpt lat="45.82653" lon="4.73716">
        <ele>384.71063</ele>
        <time>2023-07-02T16:08:58.000Z</time>
      </trkpt>
      <trkpt lat="45.82658" lon="4.73715">
        <ele>384.47684</ele>
        <time>2023-07-02T16:08:59.000Z</time>
      </trkpt>
      <trkpt lat="45.82664" lon="4.73713">
        <ele>384.24542</ele>
        <time>2023-07-02T16:09:00.000Z</time>
      </trkpt>
      <trkpt lat="45.82668" lon="4.73709">
        <ele>384.02615</ele>
        <time>2023-07-02T16:09:01.000Z</time>
      </trkpt>
      <trkpt lat="45.82672" lon="4.73705">
        <ele>383.86304</ele>
        <time>2023-07-02T16:09:02.000Z</time>
      </trkpt>
      <trkpt lat="45.82676" lon="4.73702">
        <ele>383.76437</ele>
        <time>2023-07-02T16:09:03.000Z</time>
      </trkpt>
      <trkpt lat="45.82681" lon="4.737">
        <ele>383.69897</ele>
        <time>2023-07-02T16:09:04.000Z</time>
      </trkpt>
      <trkpt lat="45.82685" lon="4.73697">
        <ele>383.88586</ele>
        <time>2023-07-02T16:09:05.000Z</time>
      </trkpt>
      <trkpt lat="45.82688" lon="4.73694">
        <ele>384.07681</ele>
        <time>2023-07-02T16:09:06.000Z</time>
      </trkpt>
      <trkpt lat="45.82691" lon="4.73692">
        <ele>384.15323</ele>
        <time>2023-07-02T16:09:07.000Z</time>
      </trkpt>
      <trkpt lat="45.82694" lon="4.7369">
        <ele>384.30533</ele>
        <time>2023-07-02T16:09:08.000Z</time>
      </trkpt>
      <trkpt lat="45.82697" lon="4.73687">
        <ele>384.06781</ele>
        <time>2023-07-02T16:09:09.000Z</time>
      </trkpt>
      <trkpt lat="45.827" lon="4.73685">
        <ele>384.00302</ele>
        <time>2023-07-02T16:09:10.000Z</time>
      </trkpt>
      <trkpt lat="45.82703" lon="4.73682">
        <ele>383.85519</ele>
        <time>2023-07-02T16:09:11.000Z</time>
      </trkpt>
      <trkpt lat="45.82705" lon="4.7368">
        <ele>383.9921</ele>
        <time>2023-07-02T16:09:12.000Z</time>
      </trkpt>
      <trkpt lat="45.82709" lon="4.73678">
        <ele>384.06979</ele>
        <time>2023-07-02T16:09:13.000Z</time>
      </trkpt>
      <trkpt lat="45.82712" lon="4.73675">
        <ele>384.1145</ele>
        <time>2023-07-02T16:09:14.000Z</time>
      </trkpt>
      <trkpt lat="45.82715" lon="4.73672">
        <ele>384.14044</ele>
        <time>2023-07-02T16:09:15.000Z</time>
      </trkpt>
      <trkpt lat="45.82718" lon="4.73669">
        <ele>384.16162</ele>
        <time>2023-07-02T16:09:16.000Z</time>
      </trkpt>
      <trkpt lat="45.82721" lon="4.73666">
        <ele>384.18903</ele>
        <time>2023-07-02T16:09:17.000Z</time>
      </trkpt>
      <trkpt lat="45.82724" lon="4.73662">
        <ele>384.21579</ele>
        <time>2023-07-02T16:09:18.000Z</time>
      </trkpt>
      <trkpt lat="45.82728" lon="4.73658">
        <ele>384.23364</ele>
        <time>2023-07-02T16:09:19.000Z</time>
      </trkpt>
      <trkpt lat="45.82731" lon="4.73655">
        <ele>384.27808</ele>
        <time>2023-07-02T16:09:20.000Z</time>
      </trkpt>
      <trkpt lat="45.82734" lon="4.73651">
        <ele>384.31879</ele>
        <time>2023-07-02T16:09:21.000Z</time>
      </trkpt>
      <trkpt lat="45.82739" lon="4.73649">
        <ele>384.33405</ele>
        <time>2023-07-02T16:09:22.000Z</time>
      </trkpt>
      <trkpt lat="45.82742" lon="4.73645">
        <ele>384.3414</ele>
        <time>2023-07-02T16:09:23.000Z</time>
      </trkpt>
      <trkpt lat="45.82746" lon="4.73641">
        <ele>384.34958</ele>
        <time>2023-07-02T16:09:24.000Z</time>
      </trkpt>
      <trkpt lat="45.8275" lon="4.73636">
        <ele>384.35333</ele>
        <time>2023-07-02T16:09:25.000Z</time>
      </trkpt>
      <trkpt lat="45.82754" lon="4.73633">
        <ele>384.38571</ele>
        <time>2023-07-02T16:09:26.000Z</time>
      </trkpt>
      <trkpt lat="45.82758" lon="4.73629">
        <ele>384.53595</ele>
        <time>2023-07-02T16:09:27.000Z</time>
      </trkpt>
      <trkpt lat="45.82762" lon="4.73626">
        <ele>384.69089</ele>
        <time>2023-07-02T16:09:28.000Z</time>
      </trkpt>
      <trkpt lat="45.82766" lon="4.73622">
        <ele>384.95313</ele>
        <time>2023-07-02T16:09:29.000Z</time>
      </trkpt>
      <trkpt lat="45.8277" lon="4.73618">
        <ele>385.13531</ele>
        <time>2023-07-02T16:09:30.000Z</time>
      </trkpt>
      <trkpt lat="45.82775" lon="4.73611">
        <ele>385.38205</ele>
        <time>2023-07-02T16:09:31.000Z</time>
      </trkpt>
      <trkpt lat="45.8278" lon="4.73603">
        <ele>385.28448</ele>
        <time>2023-07-02T16:09:32.000Z</time>
      </trkpt>
      <trkpt lat="45.82785" lon="4.73596">
        <ele>385.2077</ele>
        <time>2023-07-02T16:09:33.000Z</time>
      </trkpt>
      <trkpt lat="45.8279" lon="4.73589">
        <ele>385.10477</ele>
        <time>2023-07-02T16:09:34.000Z</time>
      </trkpt>
      <trkpt lat="45.82796" lon="4.73584">
        <ele>384.97528</ele>
        <time>2023-07-02T16:09:35.000Z</time>
      </trkpt>
      <trkpt lat="45.82803" lon="4.73577">
        <ele>384.6925</ele>
        <time>2023-07-02T16:09:36.000Z</time>
      </trkpt>
      <trkpt lat="45.82809" lon="4.73571">
        <ele>384.41095</ele>
        <time>2023-07-02T16:09:37.000Z</time>
      </trkpt>
      <trkpt lat="45.82815" lon="4.73565">
        <ele>384.14978</ele>
        <time>2023-07-02T16:09:38.000Z</time>
      </trkpt>
      <trkpt lat="45.82821" lon="4.7356">
        <ele>383.88293</ele>
        <time>2023-07-02T16:09:39.000Z</time>
      </trkpt>
      <trkpt lat="45.82828" lon="4.73551">
        <ele>383.55136</ele>
        <time>2023-07-02T16:09:40.000Z</time>
      </trkpt>
      <trkpt lat="45.82834" lon="4.73542">
        <ele>383.11563</ele>
        <time>2023-07-02T16:09:41.000Z</time>
      </trkpt>
      <trkpt lat="45.82841" lon="4.73535">
        <ele>382.7272</ele>
        <time>2023-07-02T16:09:42.000Z</time>
      </trkpt>
      <trkpt lat="45.82848" lon="4.73526">
        <ele>382.19305</ele>
        <time>2023-07-02T16:09:43.000Z</time>
      </trkpt>
      <trkpt lat="45.82855" lon="4.73518">
        <ele>381.86859</ele>
        <time>2023-07-02T16:09:44.000Z</time>
      </trkpt>
      <trkpt lat="45.82864" lon="4.73509">
        <ele>381.42108</ele>
        <time>2023-07-02T16:09:45.000Z</time>
      </trkpt>
      <trkpt lat="45.8287" lon="4.73501">
        <ele>380.95395</ele>
        <time>2023-07-02T16:09:46.000Z</time>
      </trkpt>
      <trkpt lat="45.82878" lon="4.73492">
        <ele>380.45078</ele>
        <time>2023-07-02T16:09:47.000Z</time>
      </trkpt>
      <trkpt lat="45.82887" lon="4.73483">
        <ele>379.85635</ele>
        <time>2023-07-02T16:09:48.000Z</time>
      </trkpt>
      <trkpt lat="45.82893" lon="4.73475">
        <ele>379.18683</ele>
        <time>2023-07-02T16:09:49.000Z</time>
      </trkpt>
      <trkpt lat="45.829" lon="4.73467">
        <ele>378.50043</ele>
        <time>2023-07-02T16:09:50.000Z</time>
      </trkpt>
      <trkpt lat="45.82906" lon="4.7346">
        <ele>377.79294</ele>
        <time>2023-07-02T16:09:51.000Z</time>
      </trkpt>
      <trkpt lat="45.82913" lon="4.73453">
        <ele>377.17114</ele>
        <time>2023-07-02T16:09:52.000Z</time>
      </trkpt>
      <trkpt lat="45.82922" lon="4.73447">
        <ele>376.53394</ele>
        <time>2023-07-02T16:09:53.000Z</time>
      </trkpt>
      <trkpt lat="45.82928" lon="4.73442">
        <ele>375.90219</ele>
        <time>2023-07-02T16:09:54.000Z</time>
      </trkpt>
      <trkpt lat="45.82937" lon="4.73435">
        <ele>375.37054</ele>
        <time>2023-07-02T16:09:55.000Z</time>
      </trkpt>
      <trkpt lat="45.82945" lon="4.73428">
        <ele>374.97815</ele>
        <time>2023-07-02T16:09:56.000Z</time>
      </trkpt>
      <trkpt lat="45.82952" lon="4.7342">
        <ele>374.53659</ele>
        <time>2023-07-02T16:09:57.000Z</time>
      </trkpt>
      <trkpt lat="45.82959" lon="4.73413">
        <ele>374.04364</ele>
        <time>2023-07-02T16:09:58.000Z</time>
      </trkpt>
      <trkpt lat="45.82966" lon="4.73409">
        <ele>373.54245</ele>
        <time>2023-07-02T16:09:59.000Z</time>
      </trkpt>
      <trkpt lat="45.82974" lon="4.73403">
        <ele>373.08694</ele>
        <time>2023-07-02T16:10:00.000Z</time>
      </trkpt>
      <trkpt lat="45.82982" lon="4.73396">
        <ele>372.60538</ele>
        <time>2023-07-02T16:10:01.000Z</time>
      </trkpt>
      <trkpt lat="45.82987" lon="4.73389">
        <ele>372.03058</ele>
        <time>2023-07-02T16:10:02.000Z</time>
      </trkpt>
      <trkpt lat="45.82995" lon="4.73382">
        <ele>371.56381</ele>
        <time>2023-07-02T16:10:03.000Z</time>
      </trkpt>
      <trkpt lat="45.83002" lon="4.73376">
        <ele>371.01239</ele>
        <time>2023-07-02T16:10:04.000Z</time>
      </trkpt>
      <trkpt lat="45.8301" lon="4.73371">
        <ele>370.52789</ele>
        <time>2023-07-02T16:10:05.000Z</time>
      </trkpt>
      <trkpt lat="45.83018" lon="4.73364">
        <ele>370.02026</ele>
        <time>2023-07-02T16:10:06.000Z</time>
      </trkpt>
      <trkpt lat="45.83025" lon="4.73357">
        <ele>369.54437</ele>
        <time>2023-07-02T16:10:07.000Z</time>
      </trkpt>
      <trkpt lat="45.83032" lon="4.7335">
        <ele>369.10284</ele>
        <time>2023-07-02T16:10:08.000Z</time>
      </trkpt>
      <trkpt lat="45.83039" lon="4.73343">
        <ele>368.70685</ele>
        <time>2023-07-02T16:10:09.000Z</time>
      </trkpt>
      <trkpt lat="45.83047" lon="4.73337">
        <ele>368.29706</ele>
        <time>2023-07-02T16:10:10.000Z</time>
      </trkpt>
      <trkpt lat="45.83054" lon="4.73331">
        <ele>367.905</ele>
        <time>2023-07-02T16:10:11.000Z</time>
      </trkpt>
      <trkpt lat="45.83061" lon="4.73323">
        <ele>367.41977</ele>
        <time>2023-07-02T16:10:12.000Z</time>
      </trkpt>
      <trkpt lat="45.8307" lon="4.73315">
        <ele>366.92291</ele>
        <time>2023-07-02T16:10:13.000Z</time>
      </trkpt>
      <trkpt lat="45.83077" lon="4.73307">
        <ele>366.39819</ele>
        <time>2023-07-02T16:10:14.000Z</time>
      </trkpt>
      <trkpt lat="45.83085" lon="4.733">
        <ele>365.81317</ele>
        <time>2023-07-02T16:10:15.000Z</time>
      </trkpt>
      <trkpt lat="45.83092" lon="4.73293">
        <ele>365.20575</ele>
        <time>2023-07-02T16:10:16.000Z</time>
      </trkpt>
      <trkpt lat="45.83099" lon="4.73285">
        <ele>364.68042</ele>
        <time>2023-07-02T16:10:17.000Z</time>
      </trkpt>
      <trkpt lat="45.83107" lon="4.73277">
        <ele>364.1893</ele>
        <time>2023-07-02T16:10:18.000Z</time>
      </trkpt>
      <trkpt lat="45.83115" lon="4.73269">
        <ele>363.71439</ele>
        <time>2023-07-02T16:10:19.000Z</time>
      </trkpt>
      <trkpt lat="45.83121" lon="4.7326">
        <ele>363.22519</ele>
        <time>2023-07-02T16:10:20.000Z</time>
      </trkpt>
      <trkpt lat="45.83127" lon="4.73251">
        <ele>362.83746</ele>
        <time>2023-07-02T16:10:21.000Z</time>
      </trkpt>
      <trkpt lat="45.83133" lon="4.73246">
        <ele>362.42877</ele>
        <time>2023-07-02T16:10:22.000Z</time>
      </trkpt>
      <trkpt lat="45.83141" lon="4.73239">
        <ele>362.02866</ele>
        <time>2023-07-02T16:10:23.000Z</time>
      </trkpt>
      <trkpt lat="45.83144" lon="4.73235">
        <ele>361.51276</ele>
        <time>2023-07-02T16:10:24.000Z</time>
      </trkpt>
      <trkpt lat="45.83146" lon="4.73232">
        <ele>361.06427</ele>
        <time>2023-07-02T16:10:25.000Z</time>
      </trkpt>
      <trkpt lat="45.83149" lon="4.73229">
        <ele>360.62479</ele>
        <time>2023-07-02T16:10:26.000Z</time>
      </trkpt>
      <trkpt lat="45.83153" lon="4.73225">
        <ele>360.19876</ele>
        <time>2023-07-02T16:10:27.000Z</time>
      </trkpt>
      <trkpt lat="45.83158" lon="4.73221">
        <ele>359.77481</ele>
        <time>2023-07-02T16:10:28.000Z</time>
      </trkpt>
      <trkpt lat="45.83163" lon="4.73218">
        <ele>359.32632</ele>
        <time>2023-07-02T16:10:29.000Z</time>
      </trkpt>
      <trkpt lat="45.83167" lon="4.73213">
        <ele>358.86346</ele>
        <time>2023-07-02T16:10:30.000Z</time>
      </trkpt>
      <trkpt lat="45.83174" lon="4.73208">
        <ele>358.40936</ele>
        <time>2023-07-02T16:10:31.000Z</time>
      </trkpt>
      <trkpt lat="45.83179" lon="4.73204">
        <ele>358.01083</ele>
        <time>2023-07-02T16:10:32.000Z</time>
      </trkpt>
      <trkpt lat="45.83184" lon="4.73198">
        <ele>357.64517</ele>
        <time>2023-07-02T16:10:33.000Z</time>
      </trkpt>
      <trkpt lat="45.83188" lon="4.73191">
        <ele>357.3092</ele>
        <time>2023-07-02T16:10:34.000Z</time>
      </trkpt>
      <trkpt lat="45.83193" lon="4.73184">
        <ele>357.0101</ele>
        <time>2023-07-02T16:10:35.000Z</time>
      </trkpt>
      <trkpt lat="45.83198" lon="4.73178">
        <ele>356.77304</ele>
        <time>2023-07-02T16:10:36.000Z</time>
      </trkpt>
      <trkpt lat="45.83199" lon="4.73169">
        <ele>356.44174</ele>
        <time>2023-07-02T16:10:37.000Z</time>
      </trkpt>
      <trkpt lat="45.83202" lon="4.73162">
        <ele>356.11606</ele>
        <time>2023-07-02T16:10:38.000Z</time>
      </trkpt>
      <trkpt lat="45.83205" lon="4.73155">
        <ele>355.75269</ele>
        <time>2023-07-02T16:10:39.000Z</time>
      </trkpt>
      <trkpt lat="45.83206" lon="4.73146">
        <ele>355.37747</ele>
        <time>2023-07-02T16:10:40.000Z</time>
      </trkpt>
      <trkpt lat="45.83208" lon="4.73137">
        <ele>355.01962</ele>
        <time>2023-07-02T16:10:41.000Z</time>
      </trkpt>
      <trkpt lat="45.83209" lon="4.73128">
        <ele>354.80209</ele>
        <time>2023-07-02T16:10:42.000Z</time>
      </trkpt>
      <trkpt lat="45.8321" lon="4.73117">
        <ele>354.59821</ele>
        <time>2023-07-02T16:10:43.000Z</time>
      </trkpt>
      <trkpt lat="45.83212" lon="4.73109">
        <ele>354.41345</ele>
        <time>2023-07-02T16:10:44.000Z</time>
      </trkpt>
      <trkpt lat="45.83216" lon="4.73099">
        <ele>354.21576</ele>
        <time>2023-07-02T16:10:45.000Z</time>
      </trkpt>
      <trkpt lat="45.83219" lon="4.73091">
        <ele>354.04483</ele>
        <time>2023-07-02T16:10:46.000Z</time>
      </trkpt>
      <trkpt lat="45.8322" lon="4.73084">
        <ele>353.88712</ele>
        <time>2023-07-02T16:10:47.000Z</time>
      </trkpt>
      <trkpt lat="45.83221" lon="4.73079">
        <ele>353.73007</ele>
        <time>2023-07-02T16:10:48.000Z</time>
      </trkpt>
      <trkpt lat="45.83226" lon="4.73076">
        <ele>353.58539</ele>
        <time>2023-07-02T16:10:49.000Z</time>
      </trkpt>
      <trkpt lat="45.83229" lon="4.73069">
        <ele>353.46509</ele>
        <time>2023-07-02T16:10:50.000Z</time>
      </trkpt>
      <trkpt lat="45.83233" lon="4.73063">
        <ele>353.34723</ele>
        <time>2023-07-02T16:10:51.000Z</time>
      </trkpt>
      <trkpt lat="45.83236" lon="4.73058">
        <ele>353.2041</ele>
        <time>2023-07-02T16:10:52.000Z</time>
      </trkpt>
      <trkpt lat="45.83238" lon="4.73054">
        <ele>353.04056</ele>
        <time>2023-07-02T16:10:53.000Z</time>
      </trkpt>
      <trkpt lat="45.83241" lon="4.73048">
        <ele>352.97504</ele>
        <time>2023-07-02T16:10:54.000Z</time>
      </trkpt>
      <trkpt lat="45.83243" lon="4.73042">
        <ele>352.85028</ele>
        <time>2023-07-02T16:10:55.000Z</time>
      </trkpt>
      <trkpt lat="45.83245" lon="4.73038">
        <ele>352.67996</ele>
        <time>2023-07-02T16:10:56.000Z</time>
      </trkpt>
      <trkpt lat="45.83247" lon="4.73033">
        <ele>352.56619</ele>
        <time>2023-07-02T16:10:57.000Z</time>
      </trkpt>
      <trkpt lat="45.8325" lon="4.73028">
        <ele>352.29205</ele>
        <time>2023-07-02T16:10:58.000Z</time>
      </trkpt>
      <trkpt lat="45.83252" lon="4.73022">
        <ele>352.0668</ele>
        <time>2023-07-02T16:10:59.000Z</time>
      </trkpt>
      <trkpt lat="45.83254" lon="4.73016">
        <ele>351.88214</ele>
        <time>2023-07-02T16:11:00.000Z</time>
      </trkpt>
      <trkpt lat="45.83256" lon="4.73011">
        <ele>351.67471</ele>
        <time>2023-07-02T16:11:01.000Z</time>
      </trkpt>
      <trkpt lat="45.83258" lon="4.73005">
        <ele>351.40225</ele>
        <time>2023-07-02T16:11:02.000Z</time>
      </trkpt>
      <trkpt lat="45.8326" lon="4.72999">
        <ele>351.1084</ele>
        <time>2023-07-02T16:11:03.000Z</time>
      </trkpt>
      <trkpt lat="45.83262" lon="4.72993">
        <ele>350.79266</ele>
        <time>2023-07-02T16:11:04.000Z</time>
      </trkpt>
      <trkpt lat="45.83264" lon="4.72986">
        <ele>350.45816</ele>
        <time>2023-07-02T16:11:05.000Z</time>
      </trkpt>
      <trkpt lat="45.83266" lon="4.72981">
        <ele>350.11603</ele>
        <time>2023-07-02T16:11:06.000Z</time>
      </trkpt>
      <trkpt lat="45.83268" lon="4.72975">
        <ele>349.76257</ele>
        <time>2023-07-02T16:11:07.000Z</time>
      </trkpt>
      <trkpt lat="45.83272" lon="4.72968">
        <ele>349.40887</ele>
        <time>2023-07-02T16:11:08.000Z</time>
      </trkpt>
      <trkpt lat="45.83275" lon="4.72961">
        <ele>350.15149</ele>
        <time>2023-07-02T16:11:09.000Z</time>
      </trkpt>
      <trkpt lat="45.83278" lon="4.72953">
        <ele>350.88074</ele>
        <time>2023-07-02T16:11:10.000Z</time>
      </trkpt>
      <trkpt lat="45.83281" lon="4.72945">
        <ele>350.79996</ele>
        <time>2023-07-02T16:11:11.000Z</time>
      </trkpt>
      <trkpt lat="45.83283" lon="4.72936">
        <ele>350.64362</ele>
        <time>2023-07-02T16:11:12.000Z</time>
      </trkpt>
      <trkpt lat="45.83286" lon="4.72928">
        <ele>350.49506</ele>
        <time>2023-07-02T16:11:13.000Z</time>
      </trkpt>
      <trkpt lat="45.8329" lon="4.72918">
        <ele>350.23489</ele>
        <time>2023-07-02T16:11:14.000Z</time>
      </trkpt>
      <trkpt lat="45.83293" lon="4.72908">
        <ele>349.98523</ele>
        <time>2023-07-02T16:11:15.000Z</time>
      </trkpt>
      <trkpt lat="45.83297" lon="4.729">
        <ele>349.72299</ele>
        <time>2023-07-02T16:11:16.000Z</time>
      </trkpt>
      <trkpt lat="45.83299" lon="4.72894">
        <ele>349.47223</ele>
        <time>2023-07-02T16:11:17.000Z</time>
      </trkpt>
      <trkpt lat="45.83302" lon="4.72888">
        <ele>349.65448</ele>
        <time>2023-07-02T16:11:18.000Z</time>
      </trkpt>
      <trkpt lat="45.83306" lon="4.72885">
        <ele>349.47079</ele>
        <time>2023-07-02T16:11:19.000Z</time>
      </trkpt>
      <trkpt lat="45.83309" lon="4.72884">
        <ele>349.285</ele>
        <time>2023-07-02T16:11:20.000Z</time>
      </trkpt>
      <trkpt lat="45.83313" lon="4.72882">
        <ele>348.97104</ele>
        <time>2023-07-02T16:11:21.000Z</time>
      </trkpt>
      <trkpt lat="45.83317" lon="4.7288">
        <ele>348.67249</ele>
        <time>2023-07-02T16:11:22.000Z</time>
      </trkpt>
      <trkpt lat="45.83323" lon="4.72878">
        <ele>348.30109</ele>
        <time>2023-07-02T16:11:23.000Z</time>
      </trkpt>
      <trkpt lat="45.83328" lon="4.72879">
        <ele>347.93829</ele>
        <time>2023-07-02T16:11:24.000Z</time>
      </trkpt>
      <trkpt lat="45.83334" lon="4.72878">
        <ele>347.58072</ele>
        <time>2023-07-02T16:11:25.000Z</time>
      </trkpt>
      <trkpt lat="45.83339" lon="4.7288">
        <ele>347.25919</ele>
        <time>2023-07-02T16:11:26.000Z</time>
      </trkpt>
      <trkpt lat="45.83346" lon="4.72879">
        <ele>346.89871</ele>
        <time>2023-07-02T16:11:27.000Z</time>
      </trkpt>
      <trkpt lat="45.83355" lon="4.72879">
        <ele>346.6853</ele>
        <time>2023-07-02T16:11:28.000Z</time>
      </trkpt>
      <trkpt lat="45.83365" lon="4.72879">
        <ele>345.39478</ele>
        <time>2023-07-02T16:11:29.000Z</time>
      </trkpt>
      <trkpt lat="45.83373" lon="4.72883">
        <ele>344.1358</ele>
        <time>2023-07-02T16:11:30.000Z</time>
      </trkpt>
      <trkpt lat="45.8338" lon="4.72883">
        <ele>343.73706</ele>
        <time>2023-07-02T16:11:31.000Z</time>
      </trkpt>
      <trkpt lat="45.83388" lon="4.72883">
        <ele>343.34799</ele>
        <time>2023-07-02T16:11:32.000Z</time>
      </trkpt>
      <trkpt lat="45.83395" lon="4.72881">
        <ele>342.99725</ele>
        <time>2023-07-02T16:11:33.000Z</time>
      </trkpt>
      <trkpt lat="45.83403" lon="4.72877">
        <ele>342.6618</ele>
        <time>2023-07-02T16:11:34.000Z</time>
      </trkpt>
      <trkpt lat="45.83411" lon="4.72871">
        <ele>342.3382</ele>
        <time>2023-07-02T16:11:35.000Z</time>
      </trkpt>
      <trkpt lat="45.83417" lon="4.72867">
        <ele>342.19934</ele>
        <time>2023-07-02T16:11:36.000Z</time>
      </trkpt>
      <trkpt lat="45.83422" lon="4.72859">
        <ele>342.14236</ele>
        <time>2023-07-02T16:11:37.000Z</time>
      </trkpt>
      <trkpt lat="45.83426" lon="4.72851">
        <ele>341.81622</ele>
        <time>2023-07-02T16:11:38.000Z</time>
      </trkpt>
      <trkpt lat="45.83431" lon="4.72842">
        <ele>341.85773</ele>
        <time>2023-07-02T16:11:39.000Z</time>
      </trkpt>
      <trkpt lat="45.8343" lon="4.72835">
        <ele>342.02338</ele>
        <time>2023-07-02T16:11:40.000Z</time>
      </trkpt>
      <trkpt lat="45.83431" lon="4.72831">
        <ele>342.37076</ele>
        <time>2023-07-02T16:11:41.000Z</time>
      </trkpt>
      <trkpt lat="45.83429" lon="4.72825">
        <ele>342.31451</ele>
        <time>2023-07-02T16:11:42.000Z</time>
      </trkpt>
      <trkpt lat="45.8343" lon="4.72816">
        <ele>342.35367</ele>
        <time>2023-07-02T16:11:43.000Z</time>
      </trkpt>
      <trkpt lat="45.83431" lon="4.72808">
        <ele>342.37051</ele>
        <time>2023-07-02T16:11:44.000Z</time>
      </trkpt>
      <trkpt lat="45.83431" lon="4.728">
        <ele>342.33844</ele>
        <time>2023-07-02T16:11:45.000Z</time>
      </trkpt>
      <trkpt lat="45.83431" lon="4.72794">
        <ele>342.38297</ele>
        <time>2023-07-02T16:11:46.000Z</time>
      </trkpt>
      <trkpt lat="45.83432" lon="4.72787">
        <ele>342.6142</ele>
        <time>2023-07-02T16:11:47.000Z</time>
      </trkpt>
      <trkpt lat="45.83436" lon="4.72784">
        <ele>342.64255</ele>
        <time>2023-07-02T16:11:48.000Z</time>
      </trkpt>
      <trkpt lat="45.83438" lon="4.7278">
        <ele>342.27194</ele>
        <time>2023-07-02T16:11:49.000Z</time>
      </trkpt>
      <trkpt lat="45.83442" lon="4.72778">
        <ele>341.93307</ele>
        <time>2023-07-02T16:11:50.000Z</time>
      </trkpt>
      <trkpt lat="45.83445" lon="4.72776">
        <ele>341.53073</ele>
        <time>2023-07-02T16:11:51.000Z</time>
      </trkpt>
      <trkpt lat="45.83449" lon="4.72776">
        <ele>341.15884</ele>
        <time>2023-07-02T16:11:52.000Z</time>
      </trkpt>
      <trkpt lat="45.83453" lon="4.72775">
        <ele>340.75531</ele>
        <time>2023-07-02T16:11:53.000Z</time>
      </trkpt>
      <trkpt lat="45.83457" lon="4.72772">
        <ele>340.32724</ele>
        <time>2023-07-02T16:11:54.000Z</time>
      </trkpt>
      <trkpt lat="45.83461" lon="4.72772">
        <ele>339.96875</ele>
        <time>2023-07-02T16:11:55.000Z</time>
      </trkpt>
      <trkpt lat="45.83465" lon="4.7277">
        <ele>339.51819</ele>
        <time>2023-07-02T16:11:56.000Z</time>
      </trkpt>
      <trkpt lat="45.83469" lon="4.72769">
        <ele>338.99713</ele>
        <time>2023-07-02T16:11:57.000Z</time>
      </trkpt>
      <trkpt lat="45.83473" lon="4.72768">
        <ele>338.51031</ele>
        <time>2023-07-02T16:11:58.000Z</time>
      </trkpt>
      <trkpt lat="45.83478" lon="4.72767">
        <ele>337.95859</ele>
        <time>2023-07-02T16:11:59.000Z</time>
      </trkpt>
      <trkpt lat="45.83482" lon="4.72766">
        <ele>337.30383</ele>
        <time>2023-07-02T16:12:00.000Z</time>
      </trkpt>
      <trkpt lat="45.83486" lon="4.72765">
        <ele>336.638</ele>
        <time>2023-07-02T16:12:01.000Z</time>
      </trkpt>
      <trkpt lat="45.8349" lon="4.72764">
        <ele>336.51352</ele>
        <time>2023-07-02T16:12:02.000Z</time>
      </trkpt>
      <trkpt lat="45.83494" lon="4.72762">
        <ele>336.46109</ele>
        <time>2023-07-02T16:12:03.000Z</time>
      </trkpt>
      <trkpt lat="45.83498" lon="4.72761">
        <ele>336.11319</ele>
        <time>2023-07-02T16:12:04.000Z</time>
      </trkpt>
      <trkpt lat="45.83501" lon="4.72759">
        <ele>335.87396</ele>
        <time>2023-07-02T16:12:05.000Z</time>
      </trkpt>
      <trkpt lat="45.83505" lon="4.72758">
        <ele>335.57864</ele>
        <time>2023-07-02T16:12:06.000Z</time>
      </trkpt>
      <trkpt lat="45.83509" lon="4.72756">
        <ele>335.07965</ele>
        <time>2023-07-02T16:12:07.000Z</time>
      </trkpt>
      <trkpt lat="45.83513" lon="4.72755">
        <ele>334.61041</ele>
        <time>2023-07-02T16:12:08.000Z</time>
      </trkpt>
      <trkpt lat="45.83521" lon="4.72751">
        <ele>334.51453</ele>
        <time>2023-07-02T16:12:09.000Z</time>
      </trkpt>
      <trkpt lat="45.83526" lon="4.7275">
        <ele>334.39978</ele>
        <time>2023-07-02T16:12:10.000Z</time>
      </trkpt>
      <trkpt lat="45.83531" lon="4.72747">
        <ele>334.33252</ele>
        <time>2023-07-02T16:12:11.000Z</time>
      </trkpt>
      <trkpt lat="45.83535" lon="4.72745">
        <ele>334.26324</ele>
        <time>2023-07-02T16:12:12.000Z</time>
      </trkpt>
      <trkpt lat="45.83541" lon="4.72743">
        <ele>334.22427</ele>
        <time>2023-07-02T16:12:13.000Z</time>
      </trkpt>
      <trkpt lat="45.83545" lon="4.72742">
        <ele>334.35858</ele>
        <time>2023-07-02T16:12:14.000Z</time>
      </trkpt>
      <trkpt lat="45.83549" lon="4.72742">
        <ele>334.39801</ele>
        <time>2023-07-02T16:12:15.000Z</time>
      </trkpt>
      <trkpt lat="45.83554" lon="4.72741">
        <ele>334.31989</ele>
        <time>2023-07-02T16:12:16.000Z</time>
      </trkpt>
      <trkpt lat="45.8356" lon="4.7274">
        <ele>334.36084</ele>
        <time>2023-07-02T16:12:17.000Z</time>
      </trkpt>
      <trkpt lat="45.83565" lon="4.72738">
        <ele>334.327</ele>
        <time>2023-07-02T16:12:18.000Z</time>
      </trkpt>
      <trkpt lat="45.8357" lon="4.72735">
        <ele>334.03799</ele>
        <time>2023-07-02T16:12:19.000Z</time>
      </trkpt>
      <trkpt lat="45.83574" lon="4.72732">
        <ele>333.83807</ele>
        <time>2023-07-02T16:12:20.000Z</time>
      </trkpt>
      <trkpt lat="45.83578" lon="4.72728">
        <ele>333.77106</ele>
        <time>2023-07-02T16:12:21.000Z</time>
      </trkpt>
      <trkpt lat="45.83581" lon="4.72726">
        <ele>333.76385</ele>
        <time>2023-07-02T16:12:22.000Z</time>
      </trkpt>
      <trkpt lat="45.83585" lon="4.72724">
        <ele>333.83173</ele>
        <time>2023-07-02T16:12:23.000Z</time>
      </trkpt>
      <trkpt lat="45.83589" lon="4.72721">
        <ele>333.84058</ele>
        <time>2023-07-02T16:12:24.000Z</time>
      </trkpt>
      <trkpt lat="45.83592" lon="4.72719">
        <ele>333.82181</ele>
        <time>2023-07-02T16:12:25.000Z</time>
      </trkpt>
      <trkpt lat="45.83594" lon="4.72717">
        <ele>333.64691</ele>
        <time>2023-07-02T16:12:26.000Z</time>
      </trkpt>
      <trkpt lat="45.83597" lon="4.72715">
        <ele>333.61115</ele>
        <time>2023-07-02T16:12:27.000Z</time>
      </trkpt>
      <trkpt lat="45.83601" lon="4.72714">
        <ele>333.63873</ele>
        <time>2023-07-02T16:12:28.000Z</time>
      </trkpt>
      <trkpt lat="45.83609" lon="4.72708">
        <ele>333.69904</ele>
        <time>2023-07-02T16:12:29.000Z</time>
      </trkpt>
      <trkpt lat="45.83615" lon="4.72705">
        <ele>333.74899</ele>
        <time>2023-07-02T16:12:30.000Z</time>
      </trkpt>
      <trkpt lat="45.83618" lon="4.72699">
        <ele>333.78711</ele>
        <time>2023-07-02T16:12:31.000Z</time>
      </trkpt>
      <trkpt lat="45.83623" lon="4.72693">
        <ele>335.63385</ele>
        <time>2023-07-02T16:12:32.000Z</time>
      </trkpt>
      <trkpt lat="45.83629" lon="4.72687">
        <ele>335.81067</ele>
        <time>2023-07-02T16:12:33.000Z</time>
      </trkpt>
      <trkpt lat="45.83634" lon="4.72682">
        <ele>335.87292</ele>
        <time>2023-07-02T16:12:34.000Z</time>
      </trkpt>
      <trkpt lat="45.83639" lon="4.72679">
        <ele>335.96271</ele>
        <time>2023-07-02T16:12:35.000Z</time>
      </trkpt>
      <trkpt lat="45.83647" lon="4.72676">
        <ele>336.11993</ele>
        <time>2023-07-02T16:12:36.000Z</time>
      </trkpt>
      <trkpt lat="45.83654" lon="4.72673">
        <ele>336.16599</ele>
        <time>2023-07-02T16:12:37.000Z</time>
      </trkpt>
      <trkpt lat="45.8366" lon="4.7267">
        <ele>339.06915</ele>
        <time>2023-07-02T16:12:38.000Z</time>
      </trkpt>
      <trkpt lat="45.83666" lon="4.72667">
        <ele>340.75409</ele>
        <time>2023-07-02T16:12:39.000Z</time>
      </trkpt>
      <trkpt lat="45.83673" lon="4.72664">
        <ele>342.50351</ele>
        <time>2023-07-02T16:12:40.000Z</time>
      </trkpt>
      <trkpt lat="45.83679" lon="4.72663">
        <ele>343.9686</ele>
        <time>2023-07-02T16:12:41.000Z</time>
      </trkpt>
      <trkpt lat="45.83687" lon="4.72661">
        <ele>345.26236</ele>
        <time>2023-07-02T16:12:42.000Z</time>
      </trkpt>
      <trkpt lat="45.83693" lon="4.7266">
        <ele>346.35355</ele>
        <time>2023-07-02T16:12:43.000Z</time>
      </trkpt>
      <trkpt lat="45.837" lon="4.72657">
        <ele>347.77332</ele>
        <time>2023-07-02T16:12:44.000Z</time>
      </trkpt>
      <trkpt lat="45.83708" lon="4.72653">
        <ele>349.28546</ele>
        <time>2023-07-02T16:12:45.000Z</time>
      </trkpt>
      <trkpt lat="45.83715" lon="4.72648">
        <ele>350.81339</ele>
        <time>2023-07-02T16:12:46.000Z</time>
      </trkpt>
      <trkpt lat="45.83722" lon="4.72644">
        <ele>352.99188</ele>
        <time>2023-07-02T16:12:47.000Z</time>
      </trkpt>
      <trkpt lat="45.83728" lon="4.72641">
        <ele>354.85507</ele>
        <time>2023-07-02T16:12:48.000Z</time>
      </trkpt>
      <trkpt lat="45.83735" lon="4.72639">
        <ele>356.58096</ele>
        <time>2023-07-02T16:12:49.000Z</time>
      </trkpt>
      <trkpt lat="45.83741" lon="4.72637">
        <ele>356.25</ele>
        <time>2023-07-02T16:12:50.000Z</time>
      </trkpt>
      <trkpt lat="45.83748" lon="4.72635">
        <ele>355.96942</ele>
        <time>2023-07-02T16:12:51.000Z</time>
      </trkpt>
      <trkpt lat="45.83753" lon="4.72634">
        <ele>353.95068</ele>
        <time>2023-07-02T16:12:52.000Z</time>
      </trkpt>
      <trkpt lat="45.83759" lon="4.7263">
        <ele>353.61807</ele>
        <time>2023-07-02T16:12:53.000Z</time>
      </trkpt>
      <trkpt lat="45.83765" lon="4.72628">
        <ele>353.31253</ele>
        <time>2023-07-02T16:12:54.000Z</time>
      </trkpt>
      <trkpt lat="45.83771" lon="4.72626">
        <ele>352.94641</ele>
        <time>2023-07-02T16:12:55.000Z</time>
      </trkpt>
      <trkpt lat="45.83778" lon="4.72625">
        <ele>352.64352</ele>
        <time>2023-07-02T16:12:56.000Z</time>
      </trkpt>
      <trkpt lat="45.83785" lon="4.72622">
        <ele>352.25781</ele>
        <time>2023-07-02T16:12:57.000Z</time>
      </trkpt>
      <trkpt lat="45.83791" lon="4.7262">
        <ele>349.08215</ele>
        <time>2023-07-02T16:12:58.000Z</time>
      </trkpt>
      <trkpt lat="45.83797" lon="4.72617">
        <ele>347.51996</ele>
        <time>2023-07-02T16:12:59.000Z</time>
      </trkpt>
      <trkpt lat="45.83803" lon="4.72616">
        <ele>345.71259</ele>
        <time>2023-07-02T16:13:00.000Z</time>
      </trkpt>
      <trkpt lat="45.83808" lon="4.72615">
        <ele>344.0213</ele>
        <time>2023-07-02T16:13:01.000Z</time>
      </trkpt>
      <trkpt lat="45.83813" lon="4.72611">
        <ele>342.3848</ele>
        <time>2023-07-02T16:13:02.000Z</time>
      </trkpt>
      <trkpt lat="45.83819" lon="4.72607">
        <ele>340.76236</ele>
        <time>2023-07-02T16:13:03.000Z</time>
      </trkpt>
      <trkpt lat="45.83821" lon="4.72603">
        <ele>339.16223</ele>
        <time>2023-07-02T16:13:04.000Z</time>
      </trkpt>
      <trkpt lat="45.83824" lon="4.72598">
        <ele>337.35562</ele>
        <time>2023-07-02T16:13:05.000Z</time>
      </trkpt>
      <trkpt lat="45.83826" lon="4.72592">
        <ele>335.88458</ele>
        <time>2023-07-02T16:13:06.000Z</time>
      </trkpt>
      <trkpt lat="45.83828" lon="4.72586">
        <ele>333.18649</ele>
        <time>2023-07-02T16:13:07.000Z</time>
      </trkpt>
      <trkpt lat="45.83831" lon="4.7258">
        <ele>330.79578</ele>
        <time>2023-07-02T16:13:08.000Z</time>
      </trkpt>
      <trkpt lat="45.83832" lon="4.72574">
        <ele>328.46564</ele>
        <time>2023-07-02T16:13:09.000Z</time>
      </trkpt>
      <trkpt lat="45.83833" lon="4.72569">
        <ele>328.09955</ele>
        <time>2023-07-02T16:13:10.000Z</time>
      </trkpt>
      <trkpt lat="45.83834" lon="4.72564">
        <ele>327.68668</ele>
        <time>2023-07-02T16:13:11.000Z</time>
      </trkpt>
      <trkpt lat="45.83835" lon="4.72559">
        <ele>327.18842</ele>
        <time>2023-07-02T16:13:12.000Z</time>
      </trkpt>
      <trkpt lat="45.83835" lon="4.72556">
        <ele>326.85217</ele>
        <time>2023-07-02T16:13:13.000Z</time>
      </trkpt>
      <trkpt lat="45.83836" lon="4.72551">
        <ele>326.5556</ele>
        <time>2023-07-02T16:13:14.000Z</time>
      </trkpt>
      <trkpt lat="45.83837" lon="4.72547">
        <ele>326.27914</ele>
        <time>2023-07-02T16:13:15.000Z</time>
      </trkpt>
      <trkpt lat="45.83838" lon="4.72541">
        <ele>325.89166</ele>
        <time>2023-07-02T16:13:16.000Z</time>
      </trkpt>
      <trkpt lat="45.83839" lon="4.72536">
        <ele>325.57999</ele>
        <time>2023-07-02T16:13:17.000Z</time>
      </trkpt>
      <trkpt lat="45.83841" lon="4.72531">
        <ele>325.26276</ele>
        <time>2023-07-02T16:13:18.000Z</time>
      </trkpt>
      <trkpt lat="45.83842" lon="4.72525">
        <ele>324.93588</ele>
        <time>2023-07-02T16:13:19.000Z</time>
      </trkpt>
      <trkpt lat="45.83843" lon="4.72518">
        <ele>324.68274</ele>
        <time>2023-07-02T16:13:20.000Z</time>
      </trkpt>
      <trkpt lat="45.83843" lon="4.72512">
        <ele>324.4838</ele>
        <time>2023-07-02T16:13:21.000Z</time>
      </trkpt>
      <trkpt lat="45.83843" lon="4.72506">
        <ele>324.1362</ele>
        <time>2023-07-02T16:13:22.000Z</time>
      </trkpt>
      <trkpt lat="45.83843" lon="4.725">
        <ele>323.97565</ele>
        <time>2023-07-02T16:13:23.000Z</time>
      </trkpt>
      <trkpt lat="45.83843" lon="4.72494">
        <ele>323.36542</ele>
        <time>2023-07-02T16:13:24.000Z</time>
      </trkpt>
      <trkpt lat="45.83842" lon="4.72488">
        <ele>322.95908</ele>
        <time>2023-07-02T16:13:25.000Z</time>
      </trkpt>
      <trkpt lat="45.83841" lon="4.72482">
        <ele>322.4086</ele>
        <time>2023-07-02T16:13:26.000Z</time>
      </trkpt>
      <trkpt lat="45.83841" lon="4.72477">
        <ele>322.41107</ele>
        <time>2023-07-02T16:13:27.000Z</time>
      </trkpt>
      <trkpt lat="45.8384" lon="4.72472">
        <ele>322.44711</ele>
        <time>2023-07-02T16:13:28.000Z</time>
      </trkpt>
      <trkpt lat="45.8384" lon="4.72466">
        <ele>322.56796</ele>
        <time>2023-07-02T16:13:29.000Z</time>
      </trkpt>
      <trkpt lat="45.8384" lon="4.72461">
        <ele>322.91904</ele>
        <time>2023-07-02T16:13:30.000Z</time>
      </trkpt>
      <trkpt lat="45.83841" lon="4.72456">
        <ele>323.18192</ele>
        <time>2023-07-02T16:13:31.000Z</time>
      </trkpt>
      <trkpt lat="45.83842" lon="4.72452">
        <ele>323.52289</ele>
        <time>2023-07-02T16:13:32.000Z</time>
      </trkpt>
      <trkpt lat="45.83843" lon="4.72448">
        <ele>323.6813</ele>
        <time>2023-07-02T16:13:33.000Z</time>
      </trkpt>
      <trkpt lat="45.83844" lon="4.72444">
        <ele>324.07614</ele>
        <time>2023-07-02T16:13:34.000Z</time>
      </trkpt>
      <trkpt lat="45.83846" lon="4.7244">
        <ele>324.52853</ele>
        <time>2023-07-02T16:13:35.000Z</time>
      </trkpt>
      <trkpt lat="45.83848" lon="4.72436">
        <ele>324.97739</ele>
        <time>2023-07-02T16:13:36.000Z</time>
      </trkpt>
      <trkpt lat="45.8385" lon="4.72433">
        <ele>325.39813</ele>
        <time>2023-07-02T16:13:37.000Z</time>
      </trkpt>
      <trkpt lat="45.83853" lon="4.72429">
        <ele>325.84048</ele>
        <time>2023-07-02T16:13:38.000Z</time>
      </trkpt>
      <trkpt lat="45.83855" lon="4.72426">
        <ele>326.14304</ele>
        <time>2023-07-02T16:13:39.000Z</time>
      </trkpt>
      <trkpt lat="45.83858" lon="4.72423">
        <ele>326.66193</ele>
        <time>2023-07-02T16:13:40.000Z</time>
      </trkpt>
      <trkpt lat="45.83861" lon="4.72421">
        <ele>326.66898</ele>
        <time>2023-07-02T16:13:41.000Z</time>
      </trkpt>
      <trkpt lat="45.83864" lon="4.7242">
        <ele>326.77661</ele>
        <time>2023-07-02T16:13:42.000Z</time>
      </trkpt>
      <trkpt lat="45.83867" lon="4.72418">
        <ele>326.64413</ele>
        <time>2023-07-02T16:13:43.000Z</time>
      </trkpt>
      <trkpt lat="45.83869" lon="4.72417">
        <ele>326.93045</ele>
        <time>2023-07-02T16:13:44.000Z</time>
      </trkpt>
      <trkpt lat="45.83872" lon="4.72416">
        <ele>327.05655</ele>
        <time>2023-07-02T16:13:45.000Z</time>
      </trkpt>
      <trkpt lat="45.83875" lon="4.72414">
        <ele>327.11829</ele>
        <time>2023-07-02T16:13:46.000Z</time>
      </trkpt>
      <trkpt lat="45.83877" lon="4.72413">
        <ele>327.09564</ele>
        <time>2023-07-02T16:13:47.000Z</time>
      </trkpt>
      <trkpt lat="45.83879" lon="4.72412">
        <ele>326.99664</ele>
        <time>2023-07-02T16:13:48.000Z</time>
      </trkpt>
      <trkpt lat="45.83882" lon="4.72411">
        <ele>326.9588</ele>
        <time>2023-07-02T16:13:49.000Z</time>
      </trkpt>
      <trkpt lat="45.83885" lon="4.72409">
        <ele>326.82614</ele>
        <time>2023-07-02T16:13:50.000Z</time>
      </trkpt>
      <trkpt lat="45.83889" lon="4.72408">
        <ele>326.98596</ele>
        <time>2023-07-02T16:13:51.000Z</time>
      </trkpt>
      <trkpt lat="45.83892" lon="4.72406">
        <ele>327.06766</ele>
        <time>2023-07-02T16:13:52.000Z</time>
      </trkpt>
      <trkpt lat="45.83895" lon="4.72405">
        <ele>327.1586</ele>
        <time>2023-07-02T16:13:53.000Z</time>
      </trkpt>
      <trkpt lat="45.83897" lon="4.72404">
        <ele>326.92804</ele>
        <time>2023-07-02T16:13:54.000Z</time>
      </trkpt>
      <trkpt lat="45.839" lon="4.72404">
        <ele>326.69736</ele>
        <time>2023-07-02T16:13:55.000Z</time>
      </trkpt>
      <trkpt lat="45.83902" lon="4.72403">
        <ele>326.51852</ele>
        <time>2023-07-02T16:13:56.000Z</time>
      </trkpt>
      <trkpt lat="45.83905" lon="4.72402">
        <ele>326.37808</ele>
        <time>2023-07-02T16:13:57.000Z</time>
      </trkpt>
      <trkpt lat="45.83908" lon="4.724">
        <ele>326.42096</ele>
        <time>2023-07-02T16:13:58.000Z</time>
      </trkpt>
      <trkpt lat="45.8391" lon="4.72399">
        <ele>326.09152</ele>
        <time>2023-07-02T16:13:59.000Z</time>
      </trkpt>
      <trkpt lat="45.83912" lon="4.72397">
        <ele>325.57227</ele>
        <time>2023-07-02T16:14:00.000Z</time>
      </trkpt>
      <trkpt lat="45.83915" lon="4.72396">
        <ele>325.5163</ele>
        <time>2023-07-02T16:14:01.000Z</time>
      </trkpt>
      <trkpt lat="45.83918" lon="4.72395">
        <ele>325.44019</ele>
        <time>2023-07-02T16:14:02.000Z</time>
      </trkpt>
      <trkpt lat="45.83921" lon="4.72394">
        <ele>325.44034</ele>
        <time>2023-07-02T16:14:03.000Z</time>
      </trkpt>
      <trkpt lat="45.83924" lon="4.72393">
        <ele>325.49625</ele>
        <time>2023-07-02T16:14:04.000Z</time>
      </trkpt>
      <trkpt lat="45.83926" lon="4.72392">
        <ele>325.61685</ele>
        <time>2023-07-02T16:14:05.000Z</time>
      </trkpt>
      <trkpt lat="45.83929" lon="4.72391">
        <ele>325.70508</ele>
        <time>2023-07-02T16:14:06.000Z</time>
      </trkpt>
      <trkpt lat="45.83932" lon="4.7239">
        <ele>325.92432</ele>
        <time>2023-07-02T16:14:07.000Z</time>
      </trkpt>
      <trkpt lat="45.83935" lon="4.72388">
        <ele>326.16803</ele>
        <time>2023-07-02T16:14:08.000Z</time>
      </trkpt>
      <trkpt lat="45.83938" lon="4.72386">
        <ele>326.35324</ele>
        <time>2023-07-02T16:14:09.000Z</time>
      </trkpt>
      <trkpt lat="45.8394" lon="4.72385">
        <ele>326.48785</ele>
        <time>2023-07-02T16:14:10.000Z</time>
      </trkpt>
      <trkpt lat="45.83943" lon="4.72383">
        <ele>326.38739</ele>
        <time>2023-07-02T16:14:11.000Z</time>
      </trkpt>
      <trkpt lat="45.83945" lon="4.72382">
        <ele>326.54572</ele>
        <time>2023-07-02T16:14:12.000Z</time>
      </trkpt>
      <trkpt lat="45.83948" lon="4.7238">
        <ele>326.67343</ele>
        <time>2023-07-02T16:14:13.000Z</time>
      </trkpt>
      <trkpt lat="45.8395" lon="4.72379">
        <ele>326.95367</ele>
        <time>2023-07-02T16:14:14.000Z</time>
      </trkpt>
      <trkpt lat="45.83952" lon="4.72376">
        <ele>326.82462</ele>
        <time>2023-07-02T16:14:15.000Z</time>
      </trkpt>
      <trkpt lat="45.83955" lon="4.72374">
        <ele>326.76544</ele>
        <time>2023-07-02T16:14:16.000Z</time>
      </trkpt>
      <trkpt lat="45.83957" lon="4.72372">
        <ele>326.6723</ele>
        <time>2023-07-02T16:14:17.000Z</time>
      </trkpt>
      <trkpt lat="45.83959" lon="4.7237">
        <ele>326.37872</ele>
        <time>2023-07-02T16:14:18.000Z</time>
      </trkpt>
      <trkpt lat="45.83961" lon="4.72369">
        <ele>326.57837</ele>
        <time>2023-07-02T16:14:19.000Z</time>
      </trkpt>
      <trkpt lat="45.83964" lon="4.72367">
        <ele>326.78696</ele>
        <time>2023-07-02T16:14:20.000Z</time>
      </trkpt>
      <trkpt lat="45.83966" lon="4.72365">
        <ele>327.05133</ele>
        <time>2023-07-02T16:14:21.000Z</time>
      </trkpt>
      <trkpt lat="45.83968" lon="4.72363">
        <ele>327.24994</ele>
        <time>2023-07-02T16:14:22.000Z</time>
      </trkpt>
      <trkpt lat="45.8397" lon="4.72361">
        <ele>327.3898</ele>
        <time>2023-07-02T16:14:23.000Z</time>
      </trkpt>
      <trkpt lat="45.83971" lon="4.72359">
        <ele>327.51758</ele>
        <time>2023-07-02T16:14:24.000Z</time>
      </trkpt>
      <trkpt lat="45.83973" lon="4.72357">
        <ele>327.68573</ele>
        <time>2023-07-02T16:14:25.000Z</time>
      </trkpt>
      <trkpt lat="45.83975" lon="4.72355">
        <ele>327.90903</ele>
        <time>2023-07-02T16:14:26.000Z</time>
      </trkpt>
      <trkpt lat="45.83977" lon="4.72353">
        <ele>328.07813</ele>
        <time>2023-07-02T16:14:27.000Z</time>
      </trkpt>
      <trkpt lat="45.8398" lon="4.72351">
        <ele>328.2399</ele>
        <time>2023-07-02T16:14:28.000Z</time>
      </trkpt>
      <trkpt lat="45.83982" lon="4.72349">
        <ele>328.36841</ele>
        <time>2023-07-02T16:14:29.000Z</time>
      </trkpt>
      <trkpt lat="45.83985" lon="4.72347">
        <ele>328.61609</ele>
        <time>2023-07-02T16:14:30.000Z</time>
      </trkpt>
      <trkpt lat="45.83987" lon="4.72345">
        <ele>328.86847</ele>
        <time>2023-07-02T16:14:31.000Z</time>
      </trkpt>
      <trkpt lat="45.8399" lon="4.72342">
        <ele>329.09506</ele>
        <time>2023-07-02T16:14:32.000Z</time>
      </trkpt>
      <trkpt lat="45.83992" lon="4.7234">
        <ele>329.37619</ele>
        <time>2023-07-02T16:14:33.000Z</time>
      </trkpt>
      <trkpt lat="45.83994" lon="4.72337">
        <ele>329.0448</ele>
        <time>2023-07-02T16:14:34.000Z</time>
      </trkpt>
      <trkpt lat="45.83996" lon="4.72334">
        <ele>329.13605</ele>
        <time>2023-07-02T16:14:35.000Z</time>
      </trkpt>
      <trkpt lat="45.83998" lon="4.72331">
        <ele>329.14938</ele>
        <time>2023-07-02T16:14:36.000Z</time>
      </trkpt>
      <trkpt lat="45.84" lon="4.72328">
        <ele>329.22186</ele>
        <time>2023-07-02T16:14:37.000Z</time>
      </trkpt>
      <trkpt lat="45.84002" lon="4.72326">
        <ele>329.29254</ele>
        <time>2023-07-02T16:14:38.000Z</time>
      </trkpt>
      <trkpt lat="45.84004" lon="4.72323">
        <ele>329.24976</ele>
        <time>2023-07-02T16:14:39.000Z</time>
      </trkpt>
      <trkpt lat="45.84006" lon="4.72321">
        <ele>329.20636</ele>
        <time>2023-07-02T16:14:40.000Z</time>
      </trkpt>
      <trkpt lat="45.84008" lon="4.72318">
        <ele>329.11493</ele>
        <time>2023-07-02T16:14:41.000Z</time>
      </trkpt>
      <trkpt lat="45.8401" lon="4.72315">
        <ele>329.10522</ele>
        <time>2023-07-02T16:14:42.000Z</time>
      </trkpt>
      <trkpt lat="45.84011" lon="4.72312">
        <ele>329.11047</ele>
        <time>2023-07-02T16:14:43.000Z</time>
      </trkpt>
      <trkpt lat="45.84011" lon="4.72308">
        <ele>329.12521</ele>
        <time>2023-07-02T16:14:44.000Z</time>
      </trkpt>
      <trkpt lat="45.8401" lon="4.72305">
        <ele>329.09412</ele>
        <time>2023-07-02T16:14:45.000Z</time>
      </trkpt>
      <trkpt lat="45.84009" lon="4.72301">
        <ele>329.00397</ele>
        <time>2023-07-02T16:14:46.000Z</time>
      </trkpt>
      <trkpt lat="45.84007" lon="4.72299">
        <ele>328.89349</ele>
        <time>2023-07-02T16:14:47.000Z</time>
      </trkpt>
      <trkpt lat="45.84005" lon="4.72296">
        <ele>329.0022</ele>
        <time>2023-07-02T16:14:48.000Z</time>
      </trkpt>
      <trkpt lat="45.84003" lon="4.72293">
        <ele>329.12793</ele>
        <time>2023-07-02T16:14:49.000Z</time>
      </trkpt>
      <trkpt lat="45.84002" lon="4.72289">
        <ele>329.27597</ele>
        <time>2023-07-02T16:14:50.000Z</time>
      </trkpt>
      <trkpt lat="45.84002" lon="4.72285">
        <ele>328.98724</ele>
        <time>2023-07-02T16:14:51.000Z</time>
      </trkpt>
      <trkpt lat="45.84001" lon="4.72281">
        <ele>328.67206</ele>
        <time>2023-07-02T16:14:52.000Z</time>
      </trkpt>
      <trkpt lat="45.84" lon="4.72277">
        <ele>328.29559</ele>
        <time>2023-07-02T16:14:53.000Z</time>
      </trkpt>
      <trkpt lat="45.83998" lon="4.72274">
        <ele>328.41666</ele>
        <time>2023-07-02T16:14:54.000Z</time>
      </trkpt>
      <trkpt lat="45.83996" lon="4.72271">
        <ele>328.51593</ele>
        <time>2023-07-02T16:14:55.000Z</time>
      </trkpt>
      <trkpt lat="45.83994" lon="4.72268">
        <ele>328.62152</ele>
        <time>2023-07-02T16:14:56.000Z</time>
      </trkpt>
      <trkpt lat="45.83991" lon="4.72264">
        <ele>328.72281</ele>
        <time>2023-07-02T16:14:57.000Z</time>
      </trkpt>
      <trkpt lat="45.83989" lon="4.7226">
        <ele>328.80078</ele>
        <time>2023-07-02T16:14:58.000Z</time>
      </trkpt>
      <trkpt lat="45.83987" lon="4.72256">
        <ele>328.93976</ele>
        <time>2023-07-02T16:14:59.000Z</time>
      </trkpt>
      <trkpt lat="45.83985" lon="4.72252">
        <ele>329.00934</ele>
        <time>2023-07-02T16:15:00.000Z</time>
      </trkpt>
      <trkpt lat="45.83983" lon="4.72248">
        <ele>329.11411</ele>
        <time>2023-07-02T16:15:01.000Z</time>
      </trkpt>
      <trkpt lat="45.83981" lon="4.72243">
        <ele>329.15472</ele>
        <time>2023-07-02T16:15:02.000Z</time>
      </trkpt>
      <trkpt lat="45.83979" lon="4.72239">
        <ele>329.24091</ele>
        <time>2023-07-02T16:15:03.000Z</time>
      </trkpt>
      <trkpt lat="45.83977" lon="4.72234">
        <ele>329.37003</ele>
        <time>2023-07-02T16:15:04.000Z</time>
      </trkpt>
      <trkpt lat="45.83975" lon="4.7223">
        <ele>329.49103</ele>
        <time>2023-07-02T16:15:05.000Z</time>
      </trkpt>
      <trkpt lat="45.83973" lon="4.72225">
        <ele>329.6044</ele>
        <time>2023-07-02T16:15:06.000Z</time>
      </trkpt>
      <trkpt lat="45.83971" lon="4.7222">
        <ele>329.71649</ele>
        <time>2023-07-02T16:15:07.000Z</time>
      </trkpt>
      <trkpt lat="45.83969" lon="4.72215">
        <ele>329.64157</ele>
        <time>2023-07-02T16:15:08.000Z</time>
      </trkpt>
      <trkpt lat="45.83967" lon="4.7221">
        <ele>329.59622</ele>
        <time>2023-07-02T16:15:09.000Z</time>
      </trkpt>
      <trkpt lat="45.83965" lon="4.72205">
        <ele>329.41895</ele>
        <time>2023-07-02T16:15:10.000Z</time>
      </trkpt>
      <trkpt lat="45.83962" lon="4.722">
        <ele>329.70453</ele>
        <time>2023-07-02T16:15:11.000Z</time>
      </trkpt>
      <trkpt lat="45.8396" lon="4.72195">
        <ele>329.84802</ele>
        <time>2023-07-02T16:15:12.000Z</time>
      </trkpt>
      <trkpt lat="45.83958" lon="4.7219">
        <ele>330.01727</ele>
        <time>2023-07-02T16:15:13.000Z</time>
      </trkpt>
      <trkpt lat="45.83955" lon="4.72186">
        <ele>330.17117</ele>
        <time>2023-07-02T16:15:14.000Z</time>
      </trkpt>
      <trkpt lat="45.83953" lon="4.72181">
        <ele>330.3179</ele>
        <time>2023-07-02T16:15:15.000Z</time>
      </trkpt>
      <trkpt lat="45.8395" lon="4.72177">
        <ele>330.46075</ele>
        <time>2023-07-02T16:15:16.000Z</time>
      </trkpt>
      <trkpt lat="45.83947" lon="4.72174">
        <ele>330.73431</ele>
        <time>2023-07-02T16:15:17.000Z</time>
      </trkpt>
      <trkpt lat="45.83944" lon="4.7217">
        <ele>331.08862</ele>
        <time>2023-07-02T16:15:18.000Z</time>
      </trkpt>
      <trkpt lat="45.83943" lon="4.72165">
        <ele>331.11298</ele>
        <time>2023-07-02T16:15:19.000Z</time>
      </trkpt>
      <trkpt lat="45.83944" lon="4.7216">
        <ele>331.22675</ele>
        <time>2023-07-02T16:15:20.000Z</time>
      </trkpt>
      <trkpt lat="45.83947" lon="4.72157">
        <ele>331.46405</ele>
        <time>2023-07-02T16:15:21.000Z</time>
      </trkpt>
      <trkpt lat="45.83952" lon="4.72156">
        <ele>331.56079</ele>
        <time>2023-07-02T16:15:22.000Z</time>
      </trkpt>
      <trkpt lat="45.83956" lon="4.72157">
        <ele>331.64688</ele>
        <time>2023-07-02T16:15:23.000Z</time>
      </trkpt>
      <trkpt lat="45.83961" lon="4.72159">
        <ele>331.6889</ele>
        <time>2023-07-02T16:15:24.000Z</time>
      </trkpt>
      <trkpt lat="45.83965" lon="4.7216">
        <ele>331.7182</ele>
        <time>2023-07-02T16:15:25.000Z</time>
      </trkpt>
      <trkpt lat="45.83969" lon="4.72161">
        <ele>331.75043</ele>
        <time>2023-07-02T16:15:26.000Z</time>
      </trkpt>
      <trkpt lat="45.83973" lon="4.72162">
        <ele>331.77408</ele>
        <time>2023-07-02T16:15:27.000Z</time>
      </trkpt>
      <trkpt lat="45.83977" lon="4.72164">
        <ele>331.80853</ele>
        <time>2023-07-02T16:15:28.000Z</time>
      </trkpt>
      <trkpt lat="45.83982" lon="4.72165">
        <ele>331.81659</ele>
        <time>2023-07-02T16:15:29.000Z</time>
      </trkpt>
      <trkpt lat="45.83985" lon="4.72166">
        <ele>331.79324</ele>
        <time>2023-07-02T16:15:30.000Z</time>
      </trkpt>
      <trkpt lat="45.83989" lon="4.72167">
        <ele>331.78836</ele>
        <time>2023-07-02T16:15:31.000Z</time>
      </trkpt>
      <trkpt lat="45.83993" lon="4.72168">
        <ele>331.79678</ele>
        <time>2023-07-02T16:15:32.000Z</time>
      </trkpt>
      <trkpt lat="45.83997" lon="4.72168">
        <ele>331.83453</ele>
        <time>2023-07-02T16:15:33.000Z</time>
      </trkpt>
      <trkpt lat="45.84001" lon="4.72169">
        <ele>331.83966</ele>
        <time>2023-07-02T16:15:34.000Z</time>
      </trkpt>
      <trkpt lat="45.84005" lon="4.72169">
        <ele>332.10248</ele>
        <time>2023-07-02T16:15:35.000Z</time>
      </trkpt>
      <trkpt lat="45.84009" lon="4.72169">
        <ele>332.34</ele>
        <time>2023-07-02T16:15:36.000Z</time>
      </trkpt>
      <trkpt lat="45.84013" lon="4.72168">
        <ele>332.53183</ele>
        <time>2023-07-02T16:15:37.000Z</time>
      </trkpt>
      <trkpt lat="45.84017" lon="4.72166">
        <ele>332.63138</ele>
        <time>2023-07-02T16:15:38.000Z</time>
      </trkpt>
      <trkpt lat="45.8402" lon="4.72162">
        <ele>332.66473</ele>
        <time>2023-07-02T16:15:39.000Z</time>
      </trkpt>
      <trkpt lat="45.84023" lon="4.72158">
        <ele>332.68375</ele>
        <time>2023-07-02T16:15:40.000Z</time>
      </trkpt>
      <trkpt lat="45.84025" lon="4.72152">
        <ele>332.57413</ele>
        <time>2023-07-02T16:15:41.000Z</time>
      </trkpt>
      <trkpt lat="45.84025" lon="4.72142">
        <ele>332.63986</ele>
        <time>2023-07-02T16:15:42.000Z</time>
      </trkpt>
      <trkpt lat="45.84024" lon="4.72136">
        <ele>332.69757</ele>
        <time>2023-07-02T16:15:43.000Z</time>
      </trkpt>
      <trkpt lat="45.84024" lon="4.72129">
        <ele>332.74985</ele>
        <time>2023-07-02T16:15:44.000Z</time>
      </trkpt>
      <trkpt lat="45.84023" lon="4.72121">
        <ele>332.83163</ele>
        <time>2023-07-02T16:15:45.000Z</time>
      </trkpt>
      <trkpt lat="45.84022" lon="4.72114">
        <ele>332.9191</ele>
        <time>2023-07-02T16:15:46.000Z</time>
      </trkpt>
      <trkpt lat="45.84022" lon="4.72105">
        <ele>332.97522</ele>
        <time>2023-07-02T16:15:47.000Z</time>
      </trkpt>
      <trkpt lat="45.84021" lon="4.72097">
        <ele>333.02249</ele>
        <time>2023-07-02T16:15:48.000Z</time>
      </trkpt>
      <trkpt lat="45.8402" lon="4.72089">
        <ele>333.22739</ele>
        <time>2023-07-02T16:15:49.000Z</time>
      </trkpt>
      <trkpt lat="45.84018" lon="4.72083">
        <ele>333.42975</ele>
        <time>2023-07-02T16:15:50.000Z</time>
      </trkpt>
      <trkpt lat="45.84018" lon="4.72075">
        <ele>333.68427</ele>
        <time>2023-07-02T16:15:51.000Z</time>
      </trkpt>
      <trkpt lat="45.84017" lon="4.72067">
        <ele>333.9686</ele>
        <time>2023-07-02T16:15:52.000Z</time>
      </trkpt>
      <trkpt lat="45.84017" lon="4.72058">
        <ele>334.2728</ele>
        <time>2023-07-02T16:15:53.000Z</time>
      </trkpt>
      <trkpt lat="45.84017" lon="4.72051">
        <ele>334.20529</ele>
        <time>2023-07-02T16:15:54.000Z</time>
      </trkpt>
      <trkpt lat="45.84017" lon="4.72044">
        <ele>333.90353</ele>
        <time>2023-07-02T16:15:55.000Z</time>
      </trkpt>
      <trkpt lat="45.84016" lon="4.72036">
        <ele>333.62933</ele>
        <time>2023-07-02T16:15:56.000Z</time>
      </trkpt>
      <trkpt lat="45.84016" lon="4.72029">
        <ele>333.27463</ele>
        <time>2023-07-02T16:15:57.000Z</time>
      </trkpt>
      <trkpt lat="45.84016" lon="4.72023">
        <ele>332.91141</ele>
        <time>2023-07-02T16:15:58.000Z</time>
      </trkpt>
      <trkpt lat="45.84016" lon="4.72016">
        <ele>333.17871</ele>
        <time>2023-07-02T16:15:59.000Z</time>
      </trkpt>
      <trkpt lat="45.84015" lon="4.72011">
        <ele>333.45328</ele>
        <time>2023-07-02T16:16:00.000Z</time>
      </trkpt>
      <trkpt lat="45.84015" lon="4.72005">
        <ele>333.7113</ele>
        <time>2023-07-02T16:16:01.000Z</time>
      </trkpt>
      <trkpt lat="45.84015" lon="4.71999">
        <ele>333.61835</ele>
        <time>2023-07-02T16:16:02.000Z</time>
      </trkpt>
      <trkpt lat="45.84015" lon="4.71994">
        <ele>333.60571</ele>
        <time>2023-07-02T16:16:03.000Z</time>
      </trkpt>
      <trkpt lat="45.84014" lon="4.71988">
        <ele>333.61884</ele>
        <time>2023-07-02T16:16:04.000Z</time>
      </trkpt>
      <trkpt lat="45.84014" lon="4.71982">
        <ele>333.6348</ele>
        <time>2023-07-02T16:16:05.000Z</time>
      </trkpt>
      <trkpt lat="45.84015" lon="4.71977">
        <ele>333.65396</ele>
        <time>2023-07-02T16:16:06.000Z</time>
      </trkpt>
      <trkpt lat="45.84014" lon="4.71972">
        <ele>333.70819</ele>
        <time>2023-07-02T16:16:07.000Z</time>
      </trkpt>
      <trkpt lat="45.84014" lon="4.71967">
        <ele>333.91104</ele>
        <time>2023-07-02T16:16:08.000Z</time>
      </trkpt>
      <trkpt lat="45.84014" lon="4.71962">
        <ele>333.96753</ele>
        <time>2023-07-02T16:16:09.000Z</time>
      </trkpt>
      <trkpt lat="45.84014" lon="4.71957">
        <ele>334.0484</ele>
        <time>2023-07-02T16:16:10.000Z</time>
      </trkpt>
      <trkpt lat="45.84013" lon="4.71953">
        <ele>334.11917</ele>
        <time>2023-07-02T16:16:11.000Z</time>
      </trkpt>
      <trkpt lat="45.84013" lon="4.71948">
        <ele>334.21173</ele>
        <time>2023-07-02T16:16:12.000Z</time>
      </trkpt>
      <trkpt lat="45.84012" lon="4.71943">
        <ele>334.27304</ele>
        <time>2023-07-02T16:16:13.000Z</time>
      </trkpt>
      <trkpt lat="45.84012" lon="4.71939">
        <ele>334.43848</ele>
        <time>2023-07-02T16:16:14.000Z</time>
      </trkpt>
      <trkpt lat="45.84011" lon="4.71933">
        <ele>334.63608</ele>
        <time>2023-07-02T16:16:15.000Z</time>
      </trkpt>
      <trkpt lat="45.84011" lon="4.71927">
        <ele>334.8382</ele>
        <time>2023-07-02T16:16:16.000Z</time>
      </trkpt>
      <trkpt lat="45.8401" lon="4.71922">
        <ele>335.0336</ele>
        <time>2023-07-02T16:16:17.000Z</time>
      </trkpt>
      <trkpt lat="45.8401" lon="4.71916">
        <ele>335.3873</ele>
        <time>2023-07-02T16:16:18.000Z</time>
      </trkpt>
      <trkpt lat="45.8401" lon="4.7191">
        <ele>335.57404</ele>
        <time>2023-07-02T16:16:19.000Z</time>
      </trkpt>
      <trkpt lat="45.8401" lon="4.71904">
        <ele>335.6795</ele>
        <time>2023-07-02T16:16:20.000Z</time>
      </trkpt>
      <trkpt lat="45.8401" lon="4.71899">
        <ele>335.55023</ele>
        <time>2023-07-02T16:16:21.000Z</time>
      </trkpt>
      <trkpt lat="45.8401" lon="4.71894">
        <ele>335.85464</ele>
        <time>2023-07-02T16:16:22.000Z</time>
      </trkpt>
      <trkpt lat="45.84009" lon="4.71889">
        <ele>336.1185</ele>
        <time>2023-07-02T16:16:23.000Z</time>
      </trkpt>
      <trkpt lat="45.84008" lon="4.71885">
        <ele>336.35196</ele>
        <time>2023-07-02T16:16:24.000Z</time>
      </trkpt>
      <trkpt lat="45.84007" lon="4.71881">
        <ele>336.5571</ele>
        <time>2023-07-02T16:16:25.000Z</time>
      </trkpt>
      <trkpt lat="45.84005" lon="4.71877">
        <ele>336.75897</ele>
        <time>2023-07-02T16:16:26.000Z</time>
      </trkpt>
      <trkpt lat="45.84002" lon="4.71874">
        <ele>337.08051</ele>
        <time>2023-07-02T16:16:27.000Z</time>
      </trkpt>
      <trkpt lat="45.83999" lon="4.7187">
        <ele>337.3591</ele>
        <time>2023-07-02T16:16:28.000Z</time>
      </trkpt>
      <trkpt lat="45.83997" lon="4.71867">
        <ele>337.37372</ele>
        <time>2023-07-02T16:16:29.000Z</time>
      </trkpt>
      <trkpt lat="45.83994" lon="4.71863">
        <ele>337.44287</ele>
        <time>2023-07-02T16:16:30.000Z</time>
      </trkpt>
      <trkpt lat="45.83991" lon="4.7186">
        <ele>337.47015</ele>
        <time>2023-07-02T16:16:31.000Z</time>
      </trkpt>
      <trkpt lat="45.83988" lon="4.71857">
        <ele>337.42767</ele>
        <time>2023-07-02T16:16:32.000Z</time>
      </trkpt>
      <trkpt lat="45.83985" lon="4.71853">
        <ele>337.35162</ele>
        <time>2023-07-02T16:16:33.000Z</time>
      </trkpt>
      <trkpt lat="45.83983" lon="4.71849">
        <ele>337.57104</ele>
        <time>2023-07-02T16:16:34.000Z</time>
      </trkpt>
      <trkpt lat="45.83978" lon="4.71844">
        <ele>337.73218</ele>
        <time>2023-07-02T16:16:35.000Z</time>
      </trkpt>
      <trkpt lat="45.83974" lon="4.71839">
        <ele>337.90909</ele>
        <time>2023-07-02T16:16:36.000Z</time>
      </trkpt>
      <trkpt lat="45.83971" lon="4.71835">
        <ele>338.04681</ele>
        <time>2023-07-02T16:16:37.000Z</time>
      </trkpt>
      <trkpt lat="45.83969" lon="4.71829">
        <ele>338.00821</ele>
        <time>2023-07-02T16:16:38.000Z</time>
      </trkpt>
      <trkpt lat="45.83966" lon="4.71826">
        <ele>337.90472</ele>
        <time>2023-07-02T16:16:39.000Z</time>
      </trkpt>
      <trkpt lat="45.83963" lon="4.71821">
        <ele>337.78287</ele>
        <time>2023-07-02T16:16:40.000Z</time>
      </trkpt>
      <trkpt lat="45.83959" lon="4.71816">
        <ele>337.81021</ele>
        <time>2023-07-02T16:16:41.000Z</time>
      </trkpt>
      <trkpt lat="45.83957" lon="4.71809">
        <ele>337.72293</ele>
        <time>2023-07-02T16:16:42.000Z</time>
      </trkpt>
      <trkpt lat="45.83955" lon="4.71803">
        <ele>337.64655</ele>
        <time>2023-07-02T16:16:43.000Z</time>
      </trkpt>
      <trkpt lat="45.83954" lon="4.71797">
        <ele>337.54916</ele>
        <time>2023-07-02T16:16:44.000Z</time>
      </trkpt>
      <trkpt lat="45.83952" lon="4.71791">
        <ele>337.45364</ele>
        <time>2023-07-02T16:16:45.000Z</time>
      </trkpt>
      <trkpt lat="45.83952" lon="4.71786">
        <ele>337.33615</ele>
        <time>2023-07-02T16:16:46.000Z</time>
      </trkpt>
      <trkpt lat="45.83951" lon="4.71779">
        <ele>337.06915</ele>
        <time>2023-07-02T16:16:47.000Z</time>
      </trkpt>
      <trkpt lat="45.83949" lon="4.71773">
        <ele>336.69058</ele>
        <time>2023-07-02T16:16:48.000Z</time>
      </trkpt>
      <trkpt lat="45.83946" lon="4.71767">
        <ele>336.5694</ele>
        <time>2023-07-02T16:16:49.000Z</time>
      </trkpt>
      <trkpt lat="45.83943" lon="4.71762">
        <ele>336.38712</ele>
        <time>2023-07-02T16:16:50.000Z</time>
      </trkpt>
      <trkpt lat="45.83939" lon="4.71758">
        <ele>336.27158</ele>
        <time>2023-07-02T16:16:51.000Z</time>
      </trkpt>
      <trkpt lat="45.83934" lon="4.71756">
        <ele>336.1922</ele>
        <time>2023-07-02T16:16:52.000Z</time>
      </trkpt>
      <trkpt lat="45.83931" lon="4.71754">
        <ele>336.09772</ele>
        <time>2023-07-02T16:16:53.000Z</time>
      </trkpt>
      <trkpt lat="45.83927" lon="4.71752">
        <ele>335.9855</ele>
        <time>2023-07-02T16:16:54.000Z</time>
      </trkpt>
      <trkpt lat="45.83924" lon="4.71751">
        <ele>336.00021</ele>
        <time>2023-07-02T16:16:55.000Z</time>
      </trkpt>
      <trkpt lat="45.83921" lon="4.71749">
        <ele>335.97757</ele>
        <time>2023-07-02T16:16:56.000Z</time>
      </trkpt>
      <trkpt lat="45.83917" lon="4.71748">
        <ele>335.94098</ele>
        <time>2023-07-02T16:16:57.000Z</time>
      </trkpt>
      <trkpt lat="45.83914" lon="4.71746">
        <ele>336.03143</ele>
        <time>2023-07-02T16:16:58.000Z</time>
      </trkpt>
      <trkpt lat="45.83911" lon="4.71744">
        <ele>336.11465</ele>
        <time>2023-07-02T16:16:59.000Z</time>
      </trkpt>
      <trkpt lat="45.83907" lon="4.71742">
        <ele>335.93011</ele>
        <time>2023-07-02T16:17:00.000Z</time>
      </trkpt>
      <trkpt lat="45.83903" lon="4.7174">
        <ele>335.83716</ele>
        <time>2023-07-02T16:17:01.000Z</time>
      </trkpt>
      <trkpt lat="45.83899" lon="4.71737">
        <ele>335.73846</ele>
        <time>2023-07-02T16:17:02.000Z</time>
      </trkpt>
      <trkpt lat="45.83893" lon="4.71734">
        <ele>335.60913</ele>
        <time>2023-07-02T16:17:03.000Z</time>
      </trkpt>
      <trkpt lat="45.83888" lon="4.71732">
        <ele>335.51398</ele>
        <time>2023-07-02T16:17:04.000Z</time>
      </trkpt>
      <trkpt lat="45.83882" lon="4.71729">
        <ele>335.3963</ele>
        <time>2023-07-02T16:17:05.000Z</time>
      </trkpt>
      <trkpt lat="45.83876" lon="4.71727">
        <ele>335.50424</ele>
        <time>2023-07-02T16:17:06.000Z</time>
      </trkpt>
      <trkpt lat="45.8387" lon="4.71725">
        <ele>335.39029</ele>
        <time>2023-07-02T16:17:07.000Z</time>
      </trkpt>
      <trkpt lat="45.83863" lon="4.71723">
        <ele>335.2562</ele>
        <time>2023-07-02T16:17:08.000Z</time>
      </trkpt>
      <trkpt lat="45.83857" lon="4.71721">
        <ele>335.12</ele>
        <time>2023-07-02T16:17:09.000Z</time>
      </trkpt>
      <trkpt lat="45.83852" lon="4.7172">
        <ele>334.99518</ele>
        <time>2023-07-02T16:17:10.000Z</time>
      </trkpt>
      <trkpt lat="45.83846" lon="4.71718">
        <ele>334.78061</ele>
        <time>2023-07-02T16:17:11.000Z</time>
      </trkpt>
      <trkpt lat="45.8384" lon="4.71717">
        <ele>334.56467</ele>
        <time>2023-07-02T16:17:12.000Z</time>
      </trkpt>
      <trkpt lat="45.83835" lon="4.71714">
        <ele>334.35815</ele>
        <time>2023-07-02T16:17:13.000Z</time>
      </trkpt>
      <trkpt lat="45.8383" lon="4.71712">
        <ele>334.34387</ele>
        <time>2023-07-02T16:17:14.000Z</time>
      </trkpt>
      <trkpt lat="45.83825" lon="4.71711">
        <ele>334.37689</ele>
        <time>2023-07-02T16:17:15.000Z</time>
      </trkpt>
      <trkpt lat="45.8382" lon="4.71708">
        <ele>334.39691</ele>
        <time>2023-07-02T16:17:16.000Z</time>
      </trkpt>
      <trkpt lat="45.83815" lon="4.71707">
        <ele>334.50327</ele>
        <time>2023-07-02T16:17:17.000Z</time>
      </trkpt>
      <trkpt lat="45.83808" lon="4.71706">
        <ele>334.23383</ele>
        <time>2023-07-02T16:17:18.000Z</time>
      </trkpt>
      <trkpt lat="45.83803" lon="4.71705">
        <ele>334.08023</ele>
        <time>2023-07-02T16:17:19.000Z</time>
      </trkpt>
      <trkpt lat="45.83796" lon="4.71704">
        <ele>334.19513</ele>
        <time>2023-07-02T16:17:20.000Z</time>
      </trkpt>
      <trkpt lat="45.83789" lon="4.71702">
        <ele>334.38446</ele>
        <time>2023-07-02T16:17:21.000Z</time>
      </trkpt>
      <trkpt lat="45.8378" lon="4.71701">
        <ele>334.55276</ele>
        <time>2023-07-02T16:17:22.000Z</time>
      </trkpt>
      <trkpt lat="45.83774" lon="4.717">
        <ele>334.74957</ele>
        <time>2023-07-02T16:17:23.000Z</time>
      </trkpt>
      <trkpt lat="45.83767" lon="4.717">
        <ele>334.94128</ele>
        <time>2023-07-02T16:17:24.000Z</time>
      </trkpt>
      <trkpt lat="45.83761" lon="4.717">
        <ele>334.74933</ele>
        <time>2023-07-02T16:17:25.000Z</time>
      </trkpt>
      <trkpt lat="45.83753" lon="4.71699">
        <ele>334.36957</ele>
        <time>2023-07-02T16:17:26.000Z</time>
      </trkpt>
      <trkpt lat="45.83747" lon="4.71698">
        <ele>334.25812</ele>
        <time>2023-07-02T16:17:27.000Z</time>
      </trkpt>
      <trkpt lat="45.8374" lon="4.717">
        <ele>334.3161</ele>
        <time>2023-07-02T16:17:28.000Z</time>
      </trkpt>
      <trkpt lat="45.83734" lon="4.717">
        <ele>334.2243</ele>
        <time>2023-07-02T16:17:29.000Z</time>
      </trkpt>
      <trkpt lat="45.83728" lon="4.71696">
        <ele>334.1301</ele>
        <time>2023-07-02T16:17:30.000Z</time>
      </trkpt>
      <trkpt lat="45.83725" lon="4.71691">
        <ele>334.07132</ele>
        <time>2023-07-02T16:17:31.000Z</time>
      </trkpt>
      <trkpt lat="45.83722" lon="4.71686">
        <ele>333.97852</ele>
        <time>2023-07-02T16:17:32.000Z</time>
      </trkpt>
      <trkpt lat="45.8372" lon="4.71683">
        <ele>333.86688</ele>
        <time>2023-07-02T16:17:33.000Z</time>
      </trkpt>
      <trkpt lat="45.83717" lon="4.71679">
        <ele>333.56122</ele>
        <time>2023-07-02T16:17:34.000Z</time>
      </trkpt>
      <trkpt lat="45.83714" lon="4.71675">
        <ele>333.03522</ele>
        <time>2023-07-02T16:17:35.000Z</time>
      </trkpt>
      <trkpt lat="45.83713" lon="4.71671">
        <ele>332.44986</ele>
        <time>2023-07-02T16:17:36.000Z</time>
      </trkpt>
      <trkpt lat="45.83711" lon="4.71668">
        <ele>331.86188</ele>
        <time>2023-07-02T16:17:37.000Z</time>
      </trkpt>
      <trkpt lat="45.83711" lon="4.71664">
        <ele>331.6312</ele>
        <time>2023-07-02T16:17:38.000Z</time>
      </trkpt>
      <trkpt lat="45.83709" lon="4.71662">
        <ele>331.43915</ele>
        <time>2023-07-02T16:17:39.000Z</time>
      </trkpt>
      <trkpt lat="45.83708" lon="4.71659">
        <ele>331.31525</ele>
        <time>2023-07-02T16:17:40.000Z</time>
      </trkpt>
      <trkpt lat="45.83706" lon="4.71657">
        <ele>331.14908</ele>
        <time>2023-07-02T16:17:41.000Z</time>
      </trkpt>
      <trkpt lat="45.83704" lon="4.71655">
        <ele>331.23447</ele>
        <time>2023-07-02T16:17:42.000Z</time>
      </trkpt>
      <trkpt lat="45.83702" lon="4.71653">
        <ele>331.42496</ele>
        <time>2023-07-02T16:17:43.000Z</time>
      </trkpt>
      <trkpt lat="45.837" lon="4.71651">
        <ele>331.7475</ele>
        <time>2023-07-02T16:17:44.000Z</time>
      </trkpt>
      <trkpt lat="45.83698" lon="4.71651">
        <ele>332.00568</ele>
        <time>2023-07-02T16:17:45.000Z</time>
      </trkpt>
      <trkpt lat="45.83696" lon="4.71651">
        <ele>332.30902</ele>
        <time>2023-07-02T16:17:46.000Z</time>
      </trkpt>
      <trkpt lat="45.83694" lon="4.71651">
        <ele>332.59088</ele>
        <time>2023-07-02T16:17:47.000Z</time>
      </trkpt>
      <trkpt lat="45.8369" lon="4.71652">
        <ele>332.80392</ele>
        <time>2023-07-02T16:17:49.000Z</time>
      </trkpt>
      <trkpt lat="45.83687" lon="4.71653">
        <ele>333.10916</ele>
        <time>2023-07-02T16:17:50.000Z</time>
      </trkpt>
      <trkpt lat="45.83684" lon="4.71654">
        <ele>333.43439</ele>
        <time>2023-07-02T16:17:51.000Z</time>
      </trkpt>
      <trkpt lat="45.83682" lon="4.71655">
        <ele>333.59775</ele>
        <time>2023-07-02T16:17:52.000Z</time>
      </trkpt>
      <trkpt lat="45.83679" lon="4.71656">
        <ele>333.75104</ele>
        <time>2023-07-02T16:17:53.000Z</time>
      </trkpt>
      <trkpt lat="45.83677" lon="4.71657">
        <ele>333.86981</ele>
        <time>2023-07-02T16:17:54.000Z</time>
      </trkpt>
      <trkpt lat="45.83674" lon="4.71659">
        <ele>334.08118</ele>
        <time>2023-07-02T16:17:55.000Z</time>
      </trkpt>
      <trkpt lat="45.83671" lon="4.7166">
        <ele>334.38028</ele>
        <time>2023-07-02T16:17:56.000Z</time>
      </trkpt>
      <trkpt lat="45.83667" lon="4.7166">
        <ele>334.83881</ele>
        <time>2023-07-02T16:17:57.000Z</time>
      </trkpt>
      <trkpt lat="45.83664" lon="4.7166">
        <ele>335.21283</ele>
        <time>2023-07-02T16:17:58.000Z</time>
      </trkpt>
      <trkpt lat="45.83662" lon="4.7166">
        <ele>335.48883</ele>
        <time>2023-07-02T16:17:59.000Z</time>
      </trkpt>
      <trkpt lat="45.83659" lon="4.71658">
        <ele>335.54453</ele>
        <time>2023-07-02T16:18:00.000Z</time>
      </trkpt>
      <trkpt lat="45.83656" lon="4.71657">
        <ele>335.58209</ele>
        <time>2023-07-02T16:18:01.000Z</time>
      </trkpt>
      <trkpt lat="45.83653" lon="4.71656">
        <ele>335.6037</ele>
        <time>2023-07-02T16:18:02.000Z</time>
      </trkpt>
      <trkpt lat="45.83651" lon="4.71655">
        <ele>335.3667</ele>
        <time>2023-07-02T16:18:03.000Z</time>
      </trkpt>
      <trkpt lat="45.83649" lon="4.71653">
        <ele>335.00293</ele>
        <time>2023-07-02T16:18:04.000Z</time>
      </trkpt>
      <trkpt lat="45.83647" lon="4.71652">
        <ele>334.54025</ele>
        <time>2023-07-02T16:18:05.000Z</time>
      </trkpt>
      <trkpt lat="45.83644" lon="4.71649">
        <ele>334.63574</ele>
        <time>2023-07-02T16:18:06.000Z</time>
      </trkpt>
      <trkpt lat="45.83642" lon="4.71647">
        <ele>334.63867</ele>
        <time>2023-07-02T16:18:07.000Z</time>
      </trkpt>
      <trkpt lat="45.8364" lon="4.71643">
        <ele>334.61554</ele>
        <time>2023-07-02T16:18:08.000Z</time>
      </trkpt>
      <trkpt lat="45.83638" lon="4.71639">
        <ele>334.47568</ele>
        <time>2023-07-02T16:18:09.000Z</time>
      </trkpt>
      <trkpt lat="45.83636" lon="4.71635">
        <ele>334.4483</ele>
        <time>2023-07-02T16:18:10.000Z</time>
      </trkpt>
      <trkpt lat="45.83634" lon="4.71631">
        <ele>334.39481</ele>
        <time>2023-07-02T16:18:11.000Z</time>
      </trkpt>
      <trkpt lat="45.83632" lon="4.71627">
        <ele>334.49786</ele>
        <time>2023-07-02T16:18:12.000Z</time>
      </trkpt>
      <trkpt lat="45.83631" lon="4.71622">
        <ele>334.86252</ele>
        <time>2023-07-02T16:18:13.000Z</time>
      </trkpt>
      <trkpt lat="45.8363" lon="4.71618">
        <ele>335.2684</ele>
        <time>2023-07-02T16:18:14.000Z</time>
      </trkpt>
      <trkpt lat="45.83629" lon="4.71614">
        <ele>335.74832</ele>
        <time>2023-07-02T16:18:15.000Z</time>
      </trkpt>
      <trkpt lat="45.83628" lon="4.71609">
        <ele>336.2189</ele>
        <time>2023-07-02T16:18:16.000Z</time>
      </trkpt>
      <trkpt lat="45.83627" lon="4.71605">
        <ele>336.66617</ele>
        <time>2023-07-02T16:18:17.000Z</time>
      </trkpt>
      <trkpt lat="45.83627" lon="4.716">
        <ele>337.29413</ele>
        <time>2023-07-02T16:18:18.000Z</time>
      </trkpt>
      <trkpt lat="45.83626" lon="4.71596">
        <ele>337.97363</ele>
        <time>2023-07-02T16:18:19.000Z</time>
      </trkpt>
      <trkpt lat="45.83625" lon="4.71592">
        <ele>338.40982</ele>
        <time>2023-07-02T16:18:20.000Z</time>
      </trkpt>
      <trkpt lat="45.83624" lon="4.71588">
        <ele>338.9408</ele>
        <time>2023-07-02T16:18:21.000Z</time>
      </trkpt>
      <trkpt lat="45.83623" lon="4.71585">
        <ele>339.42899</ele>
        <time>2023-07-02T16:18:22.000Z</time>
      </trkpt>
      <trkpt lat="45.83623" lon="4.71579">
        <ele>339.9693</ele>
        <time>2023-07-02T16:18:24.000Z</time>
      </trkpt>
      <trkpt lat="45.83622" lon="4.71576">
        <ele>340.53625</ele>
        <time>2023-07-02T16:18:25.000Z</time>
      </trkpt>
      <trkpt lat="45.83621" lon="4.71571">
        <ele>341.09058</ele>
        <time>2023-07-02T16:18:26.000Z</time>
      </trkpt>
      <trkpt lat="45.83621" lon="4.71567">
        <ele>341.55923</ele>
        <time>2023-07-02T16:18:27.000Z</time>
      </trkpt>
      <trkpt lat="45.83621" lon="4.71563">
        <ele>342.10165</ele>
        <time>2023-07-02T16:18:28.000Z</time>
      </trkpt>
      <trkpt lat="45.83621" lon="4.71559">
        <ele>342.70615</ele>
        <time>2023-07-02T16:18:29.000Z</time>
      </trkpt>
      <trkpt lat="45.83621" lon="4.71555">
        <ele>343.35635</ele>
        <time>2023-07-02T16:18:30.000Z</time>
      </trkpt>
      <trkpt lat="45.83621" lon="4.71551">
        <ele>343.90607</ele>
        <time>2023-07-02T16:18:31.000Z</time>
      </trkpt>
      <trkpt lat="45.83621" lon="4.71548">
        <ele>344.45343</ele>
        <time>2023-07-02T16:18:32.000Z</time>
      </trkpt>
      <trkpt lat="45.83621" lon="4.71545">
        <ele>344.96759</ele>
        <time>2023-07-02T16:18:33.000Z</time>
      </trkpt>
      <trkpt lat="45.83621" lon="4.71541">
        <ele>345.26486</ele>
        <time>2023-07-02T16:18:34.000Z</time>
      </trkpt>
      <trkpt lat="45.83621" lon="4.71537">
        <ele>345.58655</ele>
        <time>2023-07-02T16:18:35.000Z</time>
      </trkpt>
      <trkpt lat="45.83621" lon="4.71533">
        <ele>345.76553</ele>
        <time>2023-07-02T16:18:36.000Z</time>
      </trkpt>
      <trkpt lat="45.83619" lon="4.71529">
        <ele>345.91031</ele>
        <time>2023-07-02T16:18:37.000Z</time>
      </trkpt>
      <trkpt lat="45.83618" lon="4.71526">
        <ele>346.0163</ele>
        <time>2023-07-02T16:18:38.000Z</time>
      </trkpt>
      <trkpt lat="45.83616" lon="4.71522">
        <ele>345.97672</ele>
        <time>2023-07-02T16:18:39.000Z</time>
      </trkpt>
      <trkpt lat="45.83615" lon="4.71519">
        <ele>345.89386</ele>
        <time>2023-07-02T16:18:40.000Z</time>
      </trkpt>
      <trkpt lat="45.83613" lon="4.71515">
        <ele>346.12244</ele>
        <time>2023-07-02T16:18:41.000Z</time>
      </trkpt>
      <trkpt lat="45.83611" lon="4.71512">
        <ele>346.24701</ele>
        <time>2023-07-02T16:18:42.000Z</time>
      </trkpt>
      <trkpt lat="45.83609" lon="4.71508">
        <ele>346.39862</ele>
        <time>2023-07-02T16:18:43.000Z</time>
      </trkpt>
      <trkpt lat="45.83608" lon="4.71504">
        <ele>346.55316</ele>
        <time>2023-07-02T16:18:44.000Z</time>
      </trkpt>
      <trkpt lat="45.83606" lon="4.71501">
        <ele>346.68744</ele>
        <time>2023-07-02T16:18:45.000Z</time>
      </trkpt>
      <trkpt lat="45.83606" lon="4.71497">
        <ele>346.78079</ele>
        <time>2023-07-02T16:18:46.000Z</time>
      </trkpt>
      <trkpt lat="45.83607" lon="4.71494">
        <ele>346.91034</ele>
        <time>2023-07-02T16:18:47.000Z</time>
      </trkpt>
      <trkpt lat="45.83608" lon="4.7149">
        <ele>346.9812</ele>
        <time>2023-07-02T16:18:48.000Z</time>
      </trkpt>
      <trkpt lat="45.83611" lon="4.71487">
        <ele>347.03516</ele>
        <time>2023-07-02T16:18:49.000Z</time>
      </trkpt>
      <trkpt lat="45.83613" lon="4.71484">
        <ele>347.09207</ele>
        <time>2023-07-02T16:18:50.000Z</time>
      </trkpt>
      <trkpt lat="45.83616" lon="4.71481">
        <ele>347.20758</ele>
        <time>2023-07-02T16:18:51.000Z</time>
      </trkpt>
      <trkpt lat="45.8362" lon="4.71478">
        <ele>347.33423</ele>
        <time>2023-07-02T16:18:52.000Z</time>
      </trkpt>
      <trkpt lat="45.83622" lon="4.71475">
        <ele>347.46954</ele>
        <time>2023-07-02T16:18:53.000Z</time>
      </trkpt>
      <trkpt lat="45.83625" lon="4.71472">
        <ele>347.59015</ele>
        <time>2023-07-02T16:18:54.000Z</time>
      </trkpt>
      <trkpt lat="45.83627" lon="4.71467">
        <ele>347.6926</ele>
        <time>2023-07-02T16:18:55.000Z</time>
      </trkpt>
      <trkpt lat="45.83628" lon="4.71462">
        <ele>347.78534</ele>
        <time>2023-07-02T16:18:56.000Z</time>
      </trkpt>
      <trkpt lat="45.8363" lon="4.71457">
        <ele>347.88129</ele>
        <time>2023-07-02T16:18:57.000Z</time>
      </trkpt>
      <trkpt lat="45.83632" lon="4.71453">
        <ele>347.96994</ele>
        <time>2023-07-02T16:18:58.000Z</time>
      </trkpt>
      <trkpt lat="45.83634" lon="4.71449">
        <ele>348.0542</ele>
        <time>2023-07-02T16:18:59.000Z</time>
      </trkpt>
      <trkpt lat="45.83635" lon="4.71444">
        <ele>348.14908</ele>
        <time>2023-07-02T16:19:00.000Z</time>
      </trkpt>
      <trkpt lat="45.83637" lon="4.71439">
        <ele>348.23376</ele>
        <time>2023-07-02T16:19:01.000Z</time>
      </trkpt>
      <trkpt lat="45.83638" lon="4.71434">
        <ele>348.52417</ele>
        <time>2023-07-02T16:19:02.000Z</time>
      </trkpt>
      <trkpt lat="45.83639" lon="4.71428">
        <ele>348.79709</ele>
        <time>2023-07-02T16:19:03.000Z</time>
      </trkpt>
      <trkpt lat="45.83641" lon="4.71422">
        <ele>349.0506</ele>
        <time>2023-07-02T16:19:04.000Z</time>
      </trkpt>
      <trkpt lat="45.83643" lon="4.71416">
        <ele>349.28909</ele>
        <time>2023-07-02T16:19:05.000Z</time>
      </trkpt>
      <trkpt lat="45.83645" lon="4.7141">
        <ele>349.55682</ele>
        <time>2023-07-02T16:19:06.000Z</time>
      </trkpt>
      <trkpt lat="45.83646" lon="4.71403">
        <ele>349.784</ele>
        <time>2023-07-02T16:19:07.000Z</time>
      </trkpt>
      <trkpt lat="45.83648" lon="4.71397">
        <ele>350.02606</ele>
        <time>2023-07-02T16:19:08.000Z</time>
      </trkpt>
      <trkpt lat="45.83649" lon="4.7139">
        <ele>350.23361</ele>
        <time>2023-07-02T16:19:09.000Z</time>
      </trkpt>
      <trkpt lat="45.83651" lon="4.71384">
        <ele>350.44247</ele>
        <time>2023-07-02T16:19:10.000Z</time>
      </trkpt>
      <trkpt lat="45.83652" lon="4.71378">
        <ele>350.64093</ele>
        <time>2023-07-02T16:19:11.000Z</time>
      </trkpt>
      <trkpt lat="45.83653" lon="4.71371">
        <ele>350.84372</ele>
        <time>2023-07-02T16:19:12.000Z</time>
      </trkpt>
      <trkpt lat="45.83655" lon="4.71365">
        <ele>350.82495</ele>
        <time>2023-07-02T16:19:13.000Z</time>
      </trkpt>
      <trkpt lat="45.83656" lon="4.71359">
        <ele>350.81747</ele>
        <time>2023-07-02T16:19:14.000Z</time>
      </trkpt>
      <trkpt lat="45.83657" lon="4.71353">
        <ele>350.82886</ele>
        <time>2023-07-02T16:19:15.000Z</time>
      </trkpt>
      <trkpt lat="45.83659" lon="4.71346">
        <ele>350.8389</ele>
        <time>2023-07-02T16:19:16.000Z</time>
      </trkpt>
      <trkpt lat="45.8366" lon="4.7134">
        <ele>350.83493</ele>
        <time>2023-07-02T16:19:17.000Z</time>
      </trkpt>
      <trkpt lat="45.83661" lon="4.71334">
        <ele>350.84708</ele>
        <time>2023-07-02T16:19:18.000Z</time>
      </trkpt>
      <trkpt lat="45.83663" lon="4.71328">
        <ele>350.85648</ele>
        <time>2023-07-02T16:19:19.000Z</time>
      </trkpt>
      <trkpt lat="45.83665" lon="4.71322">
        <ele>350.85989</ele>
        <time>2023-07-02T16:19:20.000Z</time>
      </trkpt>
      <trkpt lat="45.83666" lon="4.71316">
        <ele>351.08084</ele>
        <time>2023-07-02T16:19:21.000Z</time>
      </trkpt>
      <trkpt lat="45.83668" lon="4.7131">
        <ele>351.10541</ele>
        <time>2023-07-02T16:19:22.000Z</time>
      </trkpt>
      <trkpt lat="45.83669" lon="4.71303">
        <ele>351.138</ele>
        <time>2023-07-02T16:19:23.000Z</time>
      </trkpt>
      <trkpt lat="45.83671" lon="4.71297">
        <ele>351.17014</ele>
        <time>2023-07-02T16:19:24.000Z</time>
      </trkpt>
      <trkpt lat="45.83672" lon="4.71291">
        <ele>350.99344</ele>
        <time>2023-07-02T16:19:25.000Z</time>
      </trkpt>
      <trkpt lat="45.83674" lon="4.71284">
        <ele>350.83557</ele>
        <time>2023-07-02T16:19:26.000Z</time>
      </trkpt>
      <trkpt lat="45.83675" lon="4.71278">
        <ele>350.65729</ele>
        <time>2023-07-02T16:19:27.000Z</time>
      </trkpt>
      <trkpt lat="45.83677" lon="4.71272">
        <ele>350.47955</ele>
        <time>2023-07-02T16:19:28.000Z</time>
      </trkpt>
      <trkpt lat="45.83678" lon="4.71266">
        <ele>350.31323</ele>
        <time>2023-07-02T16:19:29.000Z</time>
      </trkpt>
      <trkpt lat="45.8368" lon="4.71259">
        <ele>350.14658</ele>
        <time>2023-07-02T16:19:30.000Z</time>
      </trkpt>
      <trkpt lat="45.83681" lon="4.71253">
        <ele>349.97601</ele>
        <time>2023-07-02T16:19:31.000Z</time>
      </trkpt>
      <trkpt lat="45.83683" lon="4.71247">
        <ele>349.8006</ele>
        <time>2023-07-02T16:19:32.000Z</time>
      </trkpt>
      <trkpt lat="45.83684" lon="4.7124">
        <ele>349.83734</ele>
        <time>2023-07-02T16:19:33.000Z</time>
      </trkpt>
      <trkpt lat="45.83686" lon="4.71235">
        <ele>349.85443</ele>
        <time>2023-07-02T16:19:34.000Z</time>
      </trkpt>
      <trkpt lat="45.83686" lon="4.71228">
        <ele>349.87067</ele>
        <time>2023-07-02T16:19:35.000Z</time>
      </trkpt>
      <trkpt lat="45.83687" lon="4.71222">
        <ele>349.88644</ele>
        <time>2023-07-02T16:19:36.000Z</time>
      </trkpt>
      <trkpt lat="45.83682" lon="4.71221">
        <ele>349.93011</ele>
        <time>2023-07-02T16:19:37.000Z</time>
      </trkpt>
      <trkpt lat="45.83679" lon="4.71218">
        <ele>349.95374</ele>
        <time>2023-07-02T16:19:38.000Z</time>
      </trkpt>
      <trkpt lat="45.83676" lon="4.71216">
        <ele>350.02905</ele>
        <time>2023-07-02T16:19:39.000Z</time>
      </trkpt>
      <trkpt lat="45.83674" lon="4.71214">
        <ele>350.1087</ele>
        <time>2023-07-02T16:19:40.000Z</time>
      </trkpt>
      <trkpt lat="45.83672" lon="4.71213">
        <ele>349.96396</ele>
        <time>2023-07-02T16:19:41.000Z</time>
      </trkpt>
      <trkpt lat="45.8367" lon="4.71212">
        <ele>350.02509</ele>
        <time>2023-07-02T16:19:42.000Z</time>
      </trkpt>
      <trkpt lat="45.83668" lon="4.71209">
        <ele>350.08698</ele>
        <time>2023-07-02T16:19:44.000Z</time>
      </trkpt>
      <trkpt lat="45.83665" lon="4.71208">
        <ele>350.13104</ele>
        <time>2023-07-02T16:19:47.000Z</time>
      </trkpt>
      <trkpt lat="45.83663" lon="4.71207">
        <ele>350.1463</ele>
        <time>2023-07-02T16:19:48.000Z</time>
      </trkpt>
      <trkpt lat="45.8366" lon="4.71205">
        <ele>350.15472</ele>
        <time>2023-07-02T16:19:49.000Z</time>
      </trkpt>
      <trkpt lat="45.83657" lon="4.71202">
        <ele>350.20627</ele>
        <time>2023-07-02T16:19:50.000Z</time>
      </trkpt>
      <trkpt lat="45.83654" lon="4.712">
        <ele>350.24683</ele>
        <time>2023-07-02T16:19:51.000Z</time>
      </trkpt>
      <trkpt lat="45.83651" lon="4.71199">
        <ele>350.30841</ele>
        <time>2023-07-02T16:19:52.000Z</time>
      </trkpt>
      <trkpt lat="45.83649" lon="4.71197">
        <ele>350.37335</ele>
        <time>2023-07-02T16:19:53.000Z</time>
      </trkpt>
      <trkpt lat="45.83646" lon="4.71196">
        <ele>350.44592</ele>
        <time>2023-07-02T16:19:54.000Z</time>
      </trkpt>
      <trkpt lat="45.83642" lon="4.71194">
        <ele>350.53156</ele>
        <time>2023-07-02T16:19:55.000Z</time>
      </trkpt>
      <trkpt lat="45.83639" lon="4.71192">
        <ele>350.62186</ele>
        <time>2023-07-02T16:19:56.000Z</time>
      </trkpt>
      <trkpt lat="45.83636" lon="4.7119">
        <ele>350.70599</ele>
        <time>2023-07-02T16:19:57.000Z</time>
      </trkpt>
      <trkpt lat="45.83632" lon="4.71187">
        <ele>350.81366</ele>
        <time>2023-07-02T16:19:58.000Z</time>
      </trkpt>
      <trkpt lat="45.83629" lon="4.71184">
        <ele>350.95383</ele>
        <time>2023-07-02T16:19:59.000Z</time>
      </trkpt>
      <trkpt lat="45.83626" lon="4.71181">
        <ele>351.09436</ele>
        <time>2023-07-02T16:20:00.000Z</time>
      </trkpt>
      <trkpt lat="45.83623" lon="4.71179">
        <ele>351.24176</ele>
        <time>2023-07-02T16:20:01.000Z</time>
      </trkpt>
      <trkpt lat="45.83619" lon="4.71176">
        <ele>351.33685</ele>
        <time>2023-07-02T16:20:02.000Z</time>
      </trkpt>
      <trkpt lat="45.83616" lon="4.71174">
        <ele>351.42383</ele>
        <time>2023-07-02T16:20:03.000Z</time>
      </trkpt>
      <trkpt lat="45.83612" lon="4.71172">
        <ele>351.52606</ele>
        <time>2023-07-02T16:20:04.000Z</time>
      </trkpt>
      <trkpt lat="45.83609" lon="4.7117">
        <ele>351.42154</ele>
        <time>2023-07-02T16:20:05.000Z</time>
      </trkpt>
      <trkpt lat="45.83605" lon="4.71168">
        <ele>351.32016</ele>
        <time>2023-07-02T16:20:06.000Z</time>
      </trkpt>
      <trkpt lat="45.83602" lon="4.71167">
        <ele>351.22711</ele>
        <time>2023-07-02T16:20:07.000Z</time>
      </trkpt>
      <trkpt lat="45.83599" lon="4.71164">
        <ele>351.38513</ele>
        <time>2023-07-02T16:20:08.000Z</time>
      </trkpt>
      <trkpt lat="45.83596" lon="4.71162">
        <ele>351.53632</ele>
        <time>2023-07-02T16:20:09.000Z</time>
      </trkpt>
      <trkpt lat="45.83592" lon="4.7116">
        <ele>351.67615</ele>
        <time>2023-07-02T16:20:10.000Z</time>
      </trkpt>
      <trkpt lat="45.83589" lon="4.71158">
        <ele>351.82416</ele>
        <time>2023-07-02T16:20:11.000Z</time>
      </trkpt>
      <trkpt lat="45.83586" lon="4.71157">
        <ele>351.94547</ele>
        <time>2023-07-02T16:20:12.000Z</time>
      </trkpt>
      <trkpt lat="45.83583" lon="4.71155">
        <ele>352.04767</ele>
        <time>2023-07-02T16:20:13.000Z</time>
      </trkpt>
      <trkpt lat="45.83579" lon="4.71153">
        <ele>352.13736</ele>
        <time>2023-07-02T16:20:14.000Z</time>
      </trkpt>
      <trkpt lat="45.83577" lon="4.7115">
        <ele>352.21497</ele>
        <time>2023-07-02T16:20:15.000Z</time>
      </trkpt>
      <trkpt lat="45.83574" lon="4.71146">
        <ele>352.30167</ele>
        <time>2023-07-02T16:20:16.000Z</time>
      </trkpt>
      <trkpt lat="45.83572" lon="4.71142">
        <ele>352.40405</ele>
        <time>2023-07-02T16:20:17.000Z</time>
      </trkpt>
      <trkpt lat="45.83572" lon="4.71136">
        <ele>352.49362</ele>
        <time>2023-07-02T16:20:18.000Z</time>
      </trkpt>
      <trkpt lat="45.83573" lon="4.71131">
        <ele>352.5639</ele>
        <time>2023-07-02T16:20:19.000Z</time>
      </trkpt>
      <trkpt lat="45.83575" lon="4.71125">
        <ele>352.64127</ele>
        <time>2023-07-02T16:20:20.000Z</time>
      </trkpt>
      <trkpt lat="45.83577" lon="4.7112">
        <ele>352.72623</ele>
        <time>2023-07-02T16:20:21.000Z</time>
      </trkpt>
      <trkpt lat="45.83579" lon="4.71115">
        <ele>352.81512</ele>
        <time>2023-07-02T16:20:22.000Z</time>
      </trkpt>
      <trkpt lat="45.83581" lon="4.71109">
        <ele>352.90399</ele>
        <time>2023-07-02T16:20:23.000Z</time>
      </trkpt>
      <trkpt lat="45.83582" lon="4.71104">
        <ele>352.99609</ele>
        <time>2023-07-02T16:20:24.000Z</time>
      </trkpt>
      <trkpt lat="45.83584" lon="4.71098">
        <ele>353.09995</ele>
        <time>2023-07-02T16:20:25.000Z</time>
      </trkpt>
      <trkpt lat="45.83586" lon="4.71093">
        <ele>353.19504</ele>
        <time>2023-07-02T16:20:26.000Z</time>
      </trkpt>
      <trkpt lat="45.83587" lon="4.71088">
        <ele>353.47369</ele>
        <time>2023-07-02T16:20:27.000Z</time>
      </trkpt>
      <trkpt lat="45.83589" lon="4.71082">
        <ele>353.74341</ele>
        <time>2023-07-02T16:20:28.000Z</time>
      </trkpt>
      <trkpt lat="45.8359" lon="4.71077">
        <ele>353.99664</ele>
        <time>2023-07-02T16:20:29.000Z</time>
      </trkpt>
      <trkpt lat="45.83592" lon="4.71072">
        <ele>354.24261</ele>
        <time>2023-07-02T16:20:30.000Z</time>
      </trkpt>
      <trkpt lat="45.83593" lon="4.71067">
        <ele>354.47913</ele>
        <time>2023-07-02T16:20:31.000Z</time>
      </trkpt>
      <trkpt lat="45.83594" lon="4.71061">
        <ele>354.7128</ele>
        <time>2023-07-02T16:20:32.000Z</time>
      </trkpt>
      <trkpt lat="45.83593" lon="4.71056">
        <ele>354.95059</ele>
        <time>2023-07-02T16:20:33.000Z</time>
      </trkpt>
      <trkpt lat="45.8359" lon="4.71051">
        <ele>354.98444</ele>
        <time>2023-07-02T16:20:34.000Z</time>
      </trkpt>
      <trkpt lat="45.83588" lon="4.71048">
        <ele>355.10406</ele>
        <time>2023-07-02T16:20:35.000Z</time>
      </trkpt>
      <trkpt lat="45.83585" lon="4.71045">
        <ele>355.19913</ele>
        <time>2023-07-02T16:20:36.000Z</time>
      </trkpt>
      <trkpt lat="45.83581" lon="4.71042">
        <ele>355.29388</ele>
        <time>2023-07-02T16:20:37.000Z</time>
      </trkpt>
      <trkpt lat="45.83576" lon="4.71041">
        <ele>355.39508</ele>
        <time>2023-07-02T16:20:38.000Z</time>
      </trkpt>
      <trkpt lat="45.83572" lon="4.71038">
        <ele>355.4787</ele>
        <time>2023-07-02T16:20:39.000Z</time>
      </trkpt>
      <trkpt lat="45.83568" lon="4.71036">
        <ele>355.54172</ele>
        <time>2023-07-02T16:20:40.000Z</time>
      </trkpt>
      <trkpt lat="45.83565" lon="4.71033">
        <ele>355.59799</ele>
        <time>2023-07-02T16:20:41.000Z</time>
      </trkpt>
      <trkpt lat="45.83561" lon="4.7103">
        <ele>355.71478</ele>
        <time>2023-07-02T16:20:42.000Z</time>
      </trkpt>
      <trkpt lat="45.83557" lon="4.71027">
        <ele>355.90121</ele>
        <time>2023-07-02T16:20:43.000Z</time>
      </trkpt>
      <trkpt lat="45.83553" lon="4.71023">
        <ele>356.11115</ele>
        <time>2023-07-02T16:20:44.000Z</time>
      </trkpt>
      <trkpt lat="45.83549" lon="4.7102">
        <ele>356.30344</ele>
        <time>2023-07-02T16:20:45.000Z</time>
      </trkpt>
      <trkpt lat="45.83546" lon="4.71018">
        <ele>356.31772</ele>
        <time>2023-07-02T16:20:46.000Z</time>
      </trkpt>
      <trkpt lat="45.83542" lon="4.71015">
        <ele>356.20349</ele>
        <time>2023-07-02T16:20:47.000Z</time>
      </trkpt>
      <trkpt lat="45.83538" lon="4.71011">
        <ele>355.84241</ele>
        <time>2023-07-02T16:20:48.000Z</time>
      </trkpt>
      <trkpt lat="45.83535" lon="4.71008">
        <ele>355.48779</ele>
        <time>2023-07-02T16:20:49.000Z</time>
      </trkpt>
      <trkpt lat="45.8353" lon="4.71006">
        <ele>355.12604</ele>
        <time>2023-07-02T16:20:50.000Z</time>
      </trkpt>
      <trkpt lat="45.83526" lon="4.71004">
        <ele>354.78473</ele>
        <time>2023-07-02T16:20:51.000Z</time>
      </trkpt>
      <trkpt lat="45.83523" lon="4.71">
        <ele>354.44629</ele>
        <time>2023-07-02T16:20:52.000Z</time>
      </trkpt>
      <trkpt lat="45.83521" lon="4.70998">
        <ele>354.10587</ele>
        <time>2023-07-02T16:20:53.000Z</time>
      </trkpt>
      <trkpt lat="45.83517" lon="4.70995">
        <ele>354.29694</ele>
        <time>2023-07-02T16:20:54.000Z</time>
      </trkpt>
      <trkpt lat="45.83514" lon="4.70992">
        <ele>354.40054</ele>
        <time>2023-07-02T16:20:55.000Z</time>
      </trkpt>
      <trkpt lat="45.8351" lon="4.7099">
        <ele>354.52069</ele>
        <time>2023-07-02T16:20:56.000Z</time>
      </trkpt>
      <trkpt lat="45.83506" lon="4.70989">
        <ele>354.67358</ele>
        <time>2023-07-02T16:20:57.000Z</time>
      </trkpt>
      <trkpt lat="45.83502" lon="4.70988">
        <ele>354.79587</ele>
        <time>2023-07-02T16:20:58.000Z</time>
      </trkpt>
      <trkpt lat="45.83498" lon="4.70988">
        <ele>354.92542</ele>
        <time>2023-07-02T16:20:59.000Z</time>
      </trkpt>
      <trkpt lat="45.83495" lon="4.70988">
        <ele>355.05457</ele>
        <time>2023-07-02T16:21:00.000Z</time>
      </trkpt>
      <trkpt lat="45.83491" lon="4.70987">
        <ele>355.19171</ele>
        <time>2023-07-02T16:21:01.000Z</time>
      </trkpt>
      <trkpt lat="45.83487" lon="4.70987">
        <ele>355.26089</ele>
        <time>2023-07-02T16:21:02.000Z</time>
      </trkpt>
      <trkpt lat="45.83483" lon="4.70987">
        <ele>355.35788</ele>
        <time>2023-07-02T16:21:03.000Z</time>
      </trkpt>
      <trkpt lat="45.83479" lon="4.70988">
        <ele>355.42374</ele>
        <time>2023-07-02T16:21:04.000Z</time>
      </trkpt>
      <trkpt lat="45.83475" lon="4.70988">
        <ele>355.52936</ele>
        <time>2023-07-02T16:21:05.000Z</time>
      </trkpt>
      <trkpt lat="45.83471" lon="4.70989">
        <ele>355.65216</ele>
        <time>2023-07-02T16:21:06.000Z</time>
      </trkpt>
      <trkpt lat="45.83468" lon="4.70989">
        <ele>355.75443</ele>
        <time>2023-07-02T16:21:07.000Z</time>
      </trkpt>
      <trkpt lat="45.83464" lon="4.70989">
        <ele>356.09824</ele>
        <time>2023-07-02T16:21:08.000Z</time>
      </trkpt>
      <trkpt lat="45.8346" lon="4.70989">
        <ele>356.44864</ele>
        <time>2023-07-02T16:21:09.000Z</time>
      </trkpt>
      <trkpt lat="45.83457" lon="4.70989">
        <ele>356.82849</ele>
        <time>2023-07-02T16:21:10.000Z</time>
      </trkpt>
      <trkpt lat="45.83453" lon="4.70989">
        <ele>357.2261</ele>
        <time>2023-07-02T16:21:11.000Z</time>
      </trkpt>
      <trkpt lat="45.8345" lon="4.70988">
        <ele>357.6188</ele>
        <time>2023-07-02T16:21:12.000Z</time>
      </trkpt>
      <trkpt lat="45.83446" lon="4.70988">
        <ele>358.02396</ele>
        <time>2023-07-02T16:21:13.000Z</time>
      </trkpt>
      <trkpt lat="45.83442" lon="4.70988">
        <ele>358.10043</ele>
        <time>2023-07-02T16:21:14.000Z</time>
      </trkpt>
      <trkpt lat="45.83439" lon="4.70988">
        <ele>358.18912</ele>
        <time>2023-07-02T16:21:15.000Z</time>
      </trkpt>
      <trkpt lat="45.83436" lon="4.70989">
        <ele>358.31015</ele>
        <time>2023-07-02T16:21:16.000Z</time>
      </trkpt>
      <trkpt lat="45.83432" lon="4.70989">
        <ele>358.43668</ele>
        <time>2023-07-02T16:21:17.000Z</time>
      </trkpt>
      <trkpt lat="45.83429" lon="4.7099">
        <ele>358.57474</ele>
        <time>2023-07-02T16:21:18.000Z</time>
      </trkpt>
      <trkpt lat="45.83426" lon="4.7099">
        <ele>358.69135</ele>
        <time>2023-07-02T16:21:19.000Z</time>
      </trkpt>
      <trkpt lat="45.83423" lon="4.70989">
        <ele>358.7999</ele>
        <time>2023-07-02T16:21:20.000Z</time>
      </trkpt>
      <trkpt lat="45.8342" lon="4.70989">
        <ele>358.93201</ele>
        <time>2023-07-02T16:21:21.000Z</time>
      </trkpt>
      <trkpt lat="45.83416" lon="4.70989">
        <ele>359.0744</ele>
        <time>2023-07-02T16:21:22.000Z</time>
      </trkpt>
      <trkpt lat="45.83413" lon="4.70989">
        <ele>359.1192</ele>
        <time>2023-07-02T16:21:23.000Z</time>
      </trkpt>
      <trkpt lat="45.8341" lon="4.7099">
        <ele>359.19589</ele>
        <time>2023-07-02T16:21:24.000Z</time>
      </trkpt>
      <trkpt lat="45.83406" lon="4.7099">
        <ele>359.26074</ele>
        <time>2023-07-02T16:21:25.000Z</time>
      </trkpt>
      <trkpt lat="45.83403" lon="4.7099">
        <ele>359.4938</ele>
        <time>2023-07-02T16:21:26.000Z</time>
      </trkpt>
      <trkpt lat="45.834" lon="4.70991">
        <ele>359.72382</ele>
        <time>2023-07-02T16:21:27.000Z</time>
      </trkpt>
      <trkpt lat="45.83396" lon="4.70991">
        <ele>359.97321</ele>
        <time>2023-07-02T16:21:28.000Z</time>
      </trkpt>
      <trkpt lat="45.83393" lon="4.70993">
        <ele>360.2196</ele>
        <time>2023-07-02T16:21:29.000Z</time>
      </trkpt>
      <trkpt lat="45.83389" lon="4.70993">
        <ele>360.42807</ele>
        <time>2023-07-02T16:21:30.000Z</time>
      </trkpt>
      <trkpt lat="45.83385" lon="4.70994">
        <ele>360.66324</ele>
        <time>2023-07-02T16:21:31.000Z</time>
      </trkpt>
      <trkpt lat="45.83382" lon="4.70995">
        <ele>360.93793</ele>
        <time>2023-07-02T16:21:32.000Z</time>
      </trkpt>
      <trkpt lat="45.83378" lon="4.70996">
        <ele>361.22159</ele>
        <time>2023-07-02T16:21:33.000Z</time>
      </trkpt>
      <trkpt lat="45.83374" lon="4.70997">
        <ele>361.48849</ele>
        <time>2023-07-02T16:21:34.000Z</time>
      </trkpt>
      <trkpt lat="45.8337" lon="4.70998">
        <ele>361.75861</ele>
        <time>2023-07-02T16:21:35.000Z</time>
      </trkpt>
      <trkpt lat="45.83366" lon="4.70998">
        <ele>361.85391</ele>
        <time>2023-07-02T16:21:36.000Z</time>
      </trkpt>
      <trkpt lat="45.83362" lon="4.70998">
        <ele>361.94775</ele>
        <time>2023-07-02T16:21:37.000Z</time>
      </trkpt>
      <trkpt lat="45.83358" lon="4.70998">
        <ele>362.10236</ele>
        <time>2023-07-02T16:21:38.000Z</time>
      </trkpt>
      <trkpt lat="45.83354" lon="4.70999">
        <ele>362.29504</ele>
        <time>2023-07-02T16:21:39.000Z</time>
      </trkpt>
      <trkpt lat="45.83351" lon="4.70999">
        <ele>362.48413</ele>
        <time>2023-07-02T16:21:40.000Z</time>
      </trkpt>
      <trkpt lat="45.83347" lon="4.70999">
        <ele>362.46216</ele>
        <time>2023-07-02T16:21:41.000Z</time>
      </trkpt>
      <trkpt lat="45.83344" lon="4.71">
        <ele>362.45642</ele>
        <time>2023-07-02T16:21:42.000Z</time>
      </trkpt>
      <trkpt lat="45.83341" lon="4.71001">
        <ele>362.45721</ele>
        <time>2023-07-02T16:21:43.000Z</time>
      </trkpt>
      <trkpt lat="45.83338" lon="4.71002">
        <ele>362.4472</ele>
        <time>2023-07-02T16:21:44.000Z</time>
      </trkpt>
      <trkpt lat="45.83336" lon="4.71002">
        <ele>362.40472</ele>
        <time>2023-07-02T16:21:45.000Z</time>
      </trkpt>
      <trkpt lat="45.83333" lon="4.71003">
        <ele>362.37558</ele>
        <time>2023-07-02T16:21:46.000Z</time>
      </trkpt>
      <trkpt lat="45.8333" lon="4.71002">
        <ele>362.31079</ele>
        <time>2023-07-02T16:21:47.000Z</time>
      </trkpt>
      <trkpt lat="45.83327" lon="4.71002">
        <ele>362.22864</ele>
        <time>2023-07-02T16:21:48.000Z</time>
      </trkpt>
      <trkpt lat="45.83324" lon="4.71001">
        <ele>362.12994</ele>
        <time>2023-07-02T16:21:49.000Z</time>
      </trkpt>
      <trkpt lat="45.83321" lon="4.71">
        <ele>362.03897</ele>
        <time>2023-07-02T16:21:50.000Z</time>
      </trkpt>
      <trkpt lat="45.83317" lon="4.70998">
        <ele>361.83588</ele>
        <time>2023-07-02T16:21:51.000Z</time>
      </trkpt>
      <trkpt lat="45.83315" lon="4.70995">
        <ele>361.5686</ele>
        <time>2023-07-02T16:21:52.000Z</time>
      </trkpt>
      <trkpt lat="45.83314" lon="4.7099">
        <ele>361.29062</ele>
        <time>2023-07-02T16:21:53.000Z</time>
      </trkpt>
      <trkpt lat="45.83314" lon="4.70984">
        <ele>361.03027</ele>
        <time>2023-07-02T16:21:54.000Z</time>
      </trkpt>
      <trkpt lat="45.83316" lon="4.70979">
        <ele>360.75751</ele>
        <time>2023-07-02T16:21:55.000Z</time>
      </trkpt>
      <trkpt lat="45.83317" lon="4.70973">
        <ele>360.62909</ele>
        <time>2023-07-02T16:21:56.000Z</time>
      </trkpt>
      <trkpt lat="45.83319" lon="4.70968">
        <ele>360.47101</ele>
        <time>2023-07-02T16:21:57.000Z</time>
      </trkpt>
      <trkpt lat="45.83321" lon="4.70963">
        <ele>360.25604</ele>
        <time>2023-07-02T16:21:58.000Z</time>
      </trkpt>
      <trkpt lat="45.83323" lon="4.70958">
        <ele>360.00262</ele>
        <time>2023-07-02T16:21:59.000Z</time>
      </trkpt>
      <trkpt lat="45.83325" lon="4.70952">
        <ele>359.75238</ele>
        <time>2023-07-02T16:22:00.000Z</time>
      </trkpt>
      <trkpt lat="45.83326" lon="4.70947">
        <ele>359.67874</ele>
        <time>2023-07-02T16:22:01.000Z</time>
      </trkpt>
      <trkpt lat="45.83328" lon="4.70942">
        <ele>359.60498</ele>
        <time>2023-07-02T16:22:02.000Z</time>
      </trkpt>
      <trkpt lat="45.83329" lon="4.70937">
        <ele>359.50217</ele>
        <time>2023-07-02T16:22:03.000Z</time>
      </trkpt>
      <trkpt lat="45.8333" lon="4.70932">
        <ele>359.3963</ele>
        <time>2023-07-02T16:22:04.000Z</time>
      </trkpt>
      <trkpt lat="45.83331" lon="4.70927">
        <ele>359.31973</ele>
        <time>2023-07-02T16:22:05.000Z</time>
      </trkpt>
      <trkpt lat="45.83331" lon="4.70922">
        <ele>359.2233</ele>
        <time>2023-07-02T16:22:06.000Z</time>
      </trkpt>
      <trkpt lat="45.83332" lon="4.70916">
        <ele>359.1489</ele>
        <time>2023-07-02T16:22:07.000Z</time>
      </trkpt>
      <trkpt lat="45.83333" lon="4.70911">
        <ele>359.09283</ele>
        <time>2023-07-02T16:22:08.000Z</time>
      </trkpt>
      <trkpt lat="45.83333" lon="4.70906">
        <ele>359.05215</ele>
        <time>2023-07-02T16:22:09.000Z</time>
      </trkpt>
      <trkpt lat="45.83334" lon="4.70901">
        <ele>359.00745</ele>
        <time>2023-07-02T16:22:10.000Z</time>
      </trkpt>
      <trkpt lat="45.83335" lon="4.70897">
        <ele>359.00436</ele>
        <time>2023-07-02T16:22:11.000Z</time>
      </trkpt>
      <trkpt lat="45.83336" lon="4.70892">
        <ele>359.05911</ele>
        <time>2023-07-02T16:22:12.000Z</time>
      </trkpt>
      <trkpt lat="45.83336" lon="4.70887">
        <ele>359.11237</ele>
        <time>2023-07-02T16:22:13.000Z</time>
      </trkpt>
      <trkpt lat="45.83336" lon="4.70883">
        <ele>359.17145</ele>
        <time>2023-07-02T16:22:14.000Z</time>
      </trkpt>
      <trkpt lat="45.83336" lon="4.70879">
        <ele>359.2464</ele>
        <time>2023-07-02T16:22:15.000Z</time>
      </trkpt>
      <trkpt lat="45.83335" lon="4.70876">
        <ele>359.30362</ele>
        <time>2023-07-02T16:22:16.000Z</time>
      </trkpt>
      <trkpt lat="45.83333" lon="4.70875">
        <ele>359.37079</ele>
        <time>2023-07-02T16:22:17.000Z</time>
      </trkpt>
      <trkpt lat="45.83331" lon="4.70876">
        <ele>359.43829</ele>
        <time>2023-07-02T16:22:18.000Z</time>
      </trkpt>
      <trkpt lat="45.83329" lon="4.70878">
        <ele>359.52618</ele>
        <time>2023-07-02T16:22:19.000Z</time>
      </trkpt>
      <trkpt lat="45.83328" lon="4.7088">
        <ele>359.80911</ele>
        <time>2023-07-02T16:22:20.000Z</time>
      </trkpt>
      <trkpt lat="45.83328" lon="4.70883">
        <ele>360.09601</ele>
        <time>2023-07-02T16:22:21.000Z</time>
      </trkpt>
      <trkpt lat="45.83329" lon="4.70887">
        <ele>360.34848</ele>
        <time>2023-07-02T16:22:22.000Z</time>
      </trkpt>
      <trkpt lat="45.8333" lon="4.7089">
        <ele>360.62042</ele>
        <time>2023-07-02T16:22:23.000Z</time>
      </trkpt>
      <trkpt lat="45.8333" lon="4.70893">
        <ele>360.867</ele>
        <time>2023-07-02T16:22:24.000Z</time>
      </trkpt>
      <trkpt lat="45.8333" lon="4.70896">
        <ele>361.08405</ele>
        <time>2023-07-02T16:22:25.000Z</time>
      </trkpt>
    </trkseg>
  </trk>
</gpx>